<?xml version="1.0" encoding="UTF-8" standalone="no" ?>
<gpx xmlns="http://www.topografix.com/GPX/1/1" xmlns:xsi="http://www.w3.org/2001/XMLSchema-instance" xsi:schemaLocation="http://www.topografix.com/GPX/1/1 http://www.topografix.com/GPX/1/1/gpx.xsd" version="1.1" creator="VisuGPX - https://www.visugpx.com">
  <metadata>
    <name>Orleix - lac de l'Arrêt Darré.</name>
  </metadata>
  <trk>
    <name><![CDATA[Vtt Orleix - lac de l'Arrêt Darré.]]></name>
    <trkseg>
      <trkpt lat="43.22313" lon="0.1373">
        <ele>369.4</ele>
        <time>2024-04-17T11:48:44Z</time>
      </trkpt>
      <trkpt lat="43.22316" lon="0.13736">
        <ele>365.2</ele>
        <time>2024-04-17T11:48:45Z</time>
      </trkpt>
      <trkpt lat="43.22319" lon="0.13741">
        <ele>364.6</ele>
        <time>2024-04-17T11:48:46Z</time>
      </trkpt>
      <trkpt lat="43.22321" lon="0.13746">
        <ele>364.2</ele>
        <time>2024-04-17T11:48:47Z</time>
      </trkpt>
      <trkpt lat="43.22324" lon="0.1375">
        <ele>363.2</ele>
        <time>2024-04-17T11:48:48Z</time>
      </trkpt>
      <trkpt lat="43.22326" lon="0.13754">
        <ele>361.6</ele>
        <time>2024-04-17T11:48:49Z</time>
      </trkpt>
      <trkpt lat="43.22327" lon="0.13758">
        <ele>363</ele>
        <time>2024-04-17T11:48:50Z</time>
      </trkpt>
      <trkpt lat="43.22329" lon="0.13762">
        <ele>363.4</ele>
        <time>2024-04-17T11:48:51Z</time>
      </trkpt>
      <trkpt lat="43.2233" lon="0.13767">
        <ele>363.6</ele>
        <time>2024-04-17T11:48:52Z</time>
      </trkpt>
      <trkpt lat="43.2233" lon="0.13773">
        <ele>363</ele>
        <time>2024-04-17T11:48:53Z</time>
      </trkpt>
      <trkpt lat="43.22328" lon="0.13778">
        <ele>361.6</ele>
        <time>2024-04-17T11:48:54Z</time>
      </trkpt>
      <trkpt lat="43.22325" lon="0.13782">
        <ele>360.2</ele>
        <time>2024-04-17T11:48:55Z</time>
      </trkpt>
      <trkpt lat="43.22323" lon="0.13785">
        <ele>362.4</ele>
        <time>2024-04-17T11:48:56Z</time>
      </trkpt>
      <trkpt lat="43.2232" lon="0.13788">
        <ele>363</ele>
        <time>2024-04-17T11:48:57Z</time>
      </trkpt>
      <trkpt lat="43.22317" lon="0.13791">
        <ele>363.2</ele>
        <time>2024-04-17T11:48:58Z</time>
      </trkpt>
      <trkpt lat="43.22314" lon="0.13794">
        <ele>363.2</ele>
        <time>2024-04-17T11:48:59Z</time>
      </trkpt>
      <trkpt lat="43.22311" lon="0.13796">
        <ele>363.2</ele>
        <time>2024-04-17T11:49:00Z</time>
      </trkpt>
      <trkpt lat="43.22308" lon="0.13799">
        <ele>363.2</ele>
        <time>2024-04-17T11:49:01Z</time>
      </trkpt>
      <trkpt lat="43.22304" lon="0.13801">
        <ele>363.2</ele>
        <time>2024-04-17T11:49:02Z</time>
      </trkpt>
      <trkpt lat="43.22301" lon="0.13803">
        <ele>363</ele>
        <time>2024-04-17T11:49:03Z</time>
      </trkpt>
      <trkpt lat="43.22298" lon="0.13806">
        <ele>362.8</ele>
        <time>2024-04-17T11:49:04Z</time>
      </trkpt>
      <trkpt lat="43.22294" lon="0.13809">
        <ele>362.6</ele>
        <time>2024-04-17T11:49:05Z</time>
      </trkpt>
      <trkpt lat="43.2229" lon="0.13812">
        <ele>362.6</ele>
        <time>2024-04-17T11:49:06Z</time>
      </trkpt>
      <trkpt lat="43.22286" lon="0.13815">
        <ele>362.6</ele>
        <time>2024-04-17T11:49:07Z</time>
      </trkpt>
      <trkpt lat="43.22282" lon="0.13818">
        <ele>362.4</ele>
        <time>2024-04-17T11:49:08Z</time>
      </trkpt>
      <trkpt lat="43.22278" lon="0.13821">
        <ele>362.2</ele>
        <time>2024-04-17T11:49:09Z</time>
      </trkpt>
      <trkpt lat="43.22273" lon="0.13825">
        <ele>362</ele>
        <time>2024-04-17T11:49:10Z</time>
      </trkpt>
      <trkpt lat="43.22269" lon="0.13828">
        <ele>362</ele>
        <time>2024-04-17T11:49:11Z</time>
      </trkpt>
      <trkpt lat="43.22265" lon="0.13832">
        <ele>362</ele>
        <time>2024-04-17T11:49:12Z</time>
      </trkpt>
      <trkpt lat="43.22261" lon="0.13835">
        <ele>362</ele>
        <time>2024-04-17T11:49:13Z</time>
      </trkpt>
      <trkpt lat="43.22256" lon="0.13839">
        <ele>361.8</ele>
        <time>2024-04-17T11:49:14Z</time>
      </trkpt>
      <trkpt lat="43.22253" lon="0.13842">
        <ele>361.6</ele>
        <time>2024-04-17T11:49:15Z</time>
      </trkpt>
      <trkpt lat="43.22249" lon="0.13845">
        <ele>361.6</ele>
        <time>2024-04-17T11:49:16Z</time>
      </trkpt>
      <trkpt lat="43.22246" lon="0.13847">
        <ele>361.4</ele>
        <time>2024-04-17T11:49:17Z</time>
      </trkpt>
      <trkpt lat="43.22243" lon="0.1385">
        <ele>361.4</ele>
        <time>2024-04-17T11:49:18Z</time>
      </trkpt>
      <trkpt lat="43.2224" lon="0.13853">
        <ele>361.4</ele>
        <time>2024-04-17T11:49:19Z</time>
      </trkpt>
      <trkpt lat="43.22236" lon="0.13856">
        <ele>361.4</ele>
        <time>2024-04-17T11:49:20Z</time>
      </trkpt>
      <trkpt lat="43.22233" lon="0.13858">
        <ele>361.4</ele>
        <time>2024-04-17T11:49:21Z</time>
      </trkpt>
      <trkpt lat="43.2223" lon="0.13861">
        <ele>361.4</ele>
        <time>2024-04-17T11:49:22Z</time>
      </trkpt>
      <trkpt lat="43.22226" lon="0.13865">
        <ele>361.4</ele>
        <time>2024-04-17T11:49:23Z</time>
      </trkpt>
      <trkpt lat="43.22223" lon="0.13869">
        <ele>361.4</ele>
        <time>2024-04-17T11:49:24Z</time>
      </trkpt>
      <trkpt lat="43.22219" lon="0.13872">
        <ele>361.2</ele>
        <time>2024-04-17T11:49:25Z</time>
      </trkpt>
      <trkpt lat="43.22215" lon="0.13876">
        <ele>361.2</ele>
        <time>2024-04-17T11:49:26Z</time>
      </trkpt>
      <trkpt lat="43.22211" lon="0.1388">
        <ele>361.2</ele>
        <time>2024-04-17T11:49:27Z</time>
      </trkpt>
      <trkpt lat="43.22207" lon="0.13885">
        <ele>360.8</ele>
        <time>2024-04-17T11:49:28Z</time>
      </trkpt>
      <trkpt lat="43.22203" lon="0.13889">
        <ele>360.6</ele>
        <time>2024-04-17T11:49:29Z</time>
      </trkpt>
      <trkpt lat="43.22199" lon="0.13893">
        <ele>360</ele>
        <time>2024-04-17T11:49:30Z</time>
      </trkpt>
      <trkpt lat="43.22194" lon="0.13898">
        <ele>359.8</ele>
        <time>2024-04-17T11:49:31Z</time>
      </trkpt>
      <trkpt lat="43.2219" lon="0.13902">
        <ele>359.4</ele>
        <time>2024-04-17T11:49:32Z</time>
      </trkpt>
      <trkpt lat="43.22185" lon="0.13906">
        <ele>359.2</ele>
        <time>2024-04-17T11:49:33Z</time>
      </trkpt>
      <trkpt lat="43.2218" lon="0.1391">
        <ele>359</ele>
        <time>2024-04-17T11:49:34Z</time>
      </trkpt>
      <trkpt lat="43.22175" lon="0.13913">
        <ele>358.6</ele>
        <time>2024-04-17T11:49:35Z</time>
      </trkpt>
      <trkpt lat="43.22171" lon="0.13916">
        <ele>358.6</ele>
        <time>2024-04-17T11:49:36Z</time>
      </trkpt>
      <trkpt lat="43.22168" lon="0.13919">
        <ele>358.4</ele>
        <time>2024-04-17T11:49:37Z</time>
      </trkpt>
      <trkpt lat="43.22165" lon="0.13921">
        <ele>358.2</ele>
        <time>2024-04-17T11:49:38Z</time>
      </trkpt>
      <trkpt lat="43.22162" lon="0.13922">
        <ele>357.8</ele>
        <time>2024-04-17T11:49:39Z</time>
      </trkpt>
      <trkpt lat="43.22159" lon="0.13924">
        <ele>357.8</ele>
        <time>2024-04-17T11:49:40Z</time>
      </trkpt>
      <trkpt lat="43.22156" lon="0.13925">
        <ele>357.6</ele>
        <time>2024-04-17T11:49:41Z</time>
      </trkpt>
      <trkpt lat="43.22154" lon="0.13927">
        <ele>357.6</ele>
        <time>2024-04-17T11:49:42Z</time>
      </trkpt>
      <trkpt lat="43.22152" lon="0.13929">
        <ele>357.6</ele>
        <time>2024-04-17T11:49:43Z</time>
      </trkpt>
      <trkpt lat="43.2215" lon="0.13931">
        <ele>357.6</ele>
        <time>2024-04-17T11:49:44Z</time>
      </trkpt>
      <trkpt lat="43.22147" lon="0.13934">
        <ele>357.6</ele>
        <time>2024-04-17T11:49:45Z</time>
      </trkpt>
      <trkpt lat="43.22145" lon="0.13937">
        <ele>357.6</ele>
        <time>2024-04-17T11:49:46Z</time>
      </trkpt>
      <trkpt lat="43.22143" lon="0.1394">
        <ele>357.6</ele>
        <time>2024-04-17T11:49:47Z</time>
      </trkpt>
      <trkpt lat="43.22141" lon="0.13943">
        <ele>358</ele>
        <time>2024-04-17T11:49:48Z</time>
      </trkpt>
      <trkpt lat="43.22139" lon="0.13946">
        <ele>358.2</ele>
        <time>2024-04-17T11:49:49Z</time>
      </trkpt>
      <trkpt lat="43.22137" lon="0.13948">
        <ele>358.6</ele>
        <time>2024-04-17T11:49:50Z</time>
      </trkpt>
      <trkpt lat="43.22135" lon="0.1395">
        <ele>358.8</ele>
        <time>2024-04-17T11:49:51Z</time>
      </trkpt>
      <trkpt lat="43.22133" lon="0.13954">
        <ele>359</ele>
        <time>2024-04-17T11:49:52Z</time>
      </trkpt>
      <trkpt lat="43.22131" lon="0.13957">
        <ele>359</ele>
        <time>2024-04-17T11:49:53Z</time>
      </trkpt>
      <trkpt lat="43.22129" lon="0.13959">
        <ele>359.2</ele>
        <time>2024-04-17T11:49:54Z</time>
      </trkpt>
      <trkpt lat="43.22128" lon="0.13962">
        <ele>359.2</ele>
        <time>2024-04-17T11:49:55Z</time>
      </trkpt>
      <trkpt lat="43.22127" lon="0.13964">
        <ele>359.4</ele>
        <time>2024-04-17T11:49:56Z</time>
      </trkpt>
      <trkpt lat="43.22126" lon="0.13966">
        <ele>359.6</ele>
        <time>2024-04-17T11:49:57Z</time>
      </trkpt>
      <trkpt lat="43.22125" lon="0.13968">
        <ele>359.8</ele>
        <time>2024-04-17T11:49:58Z</time>
      </trkpt>
      <trkpt lat="43.22124" lon="0.13969">
        <ele>360</ele>
        <time>2024-04-17T11:49:59Z</time>
      </trkpt>
      <trkpt lat="43.22123" lon="0.1397">
        <ele>360</ele>
        <time>2024-04-17T11:50:00Z</time>
      </trkpt>
      <trkpt lat="43.22121" lon="0.1397">
        <ele>360.2</ele>
        <time>2024-04-17T11:50:01Z</time>
      </trkpt>
      <trkpt lat="43.2212" lon="0.1397">
        <ele>360.2</ele>
        <time>2024-04-17T11:50:02Z</time>
      </trkpt>
      <trkpt lat="43.22118" lon="0.1397">
        <ele>360.2</ele>
        <time>2024-04-17T11:50:03Z</time>
      </trkpt>
      <trkpt lat="43.22117" lon="0.1397">
        <ele>360.2</ele>
        <time>2024-04-17T11:50:04Z</time>
      </trkpt>
      <trkpt lat="43.22116" lon="0.13969">
        <ele>360.4</ele>
        <time>2024-04-17T11:50:05Z</time>
      </trkpt>
      <trkpt lat="43.22114" lon="0.13969">
        <ele>360.4</ele>
        <time>2024-04-17T11:50:06Z</time>
      </trkpt>
      <trkpt lat="43.22112" lon="0.13968">
        <ele>360.4</ele>
        <time>2024-04-17T11:50:07Z</time>
      </trkpt>
      <trkpt lat="43.2211" lon="0.13967">
        <ele>360.6</ele>
        <time>2024-04-17T11:50:08Z</time>
      </trkpt>
      <trkpt lat="43.22109" lon="0.13965">
        <ele>360.8</ele>
        <time>2024-04-17T11:50:09Z</time>
      </trkpt>
      <trkpt lat="43.22108" lon="0.13964">
        <ele>360.8</ele>
        <time>2024-04-17T11:50:10Z</time>
      </trkpt>
      <trkpt lat="43.22107" lon="0.13962">
        <ele>361</ele>
        <time>2024-04-17T11:50:11Z</time>
      </trkpt>
      <trkpt lat="43.22106" lon="0.13961">
        <ele>361</ele>
        <time>2024-04-17T11:50:12Z</time>
      </trkpt>
      <trkpt lat="43.22105" lon="0.13959">
        <ele>361.2</ele>
        <time>2024-04-17T11:50:13Z</time>
      </trkpt>
      <trkpt lat="43.22103" lon="0.13956">
        <ele>361.2</ele>
        <time>2024-04-17T11:50:14Z</time>
      </trkpt>
      <trkpt lat="43.22102" lon="0.13954">
        <ele>361.4</ele>
        <time>2024-04-17T11:50:15Z</time>
      </trkpt>
      <trkpt lat="43.22101" lon="0.13953">
        <ele>361.4</ele>
        <time>2024-04-17T11:50:16Z</time>
      </trkpt>
      <trkpt lat="43.22099" lon="0.13951">
        <ele>361.6</ele>
        <time>2024-04-17T11:50:17Z</time>
      </trkpt>
      <trkpt lat="43.22098" lon="0.13949">
        <ele>361.8</ele>
        <time>2024-04-17T11:50:18Z</time>
      </trkpt>
      <trkpt lat="43.22097" lon="0.13947">
        <ele>361.8</ele>
        <time>2024-04-17T11:50:19Z</time>
      </trkpt>
      <trkpt lat="43.22095" lon="0.13946">
        <ele>361.8</ele>
        <time>2024-04-17T11:50:20Z</time>
      </trkpt>
      <trkpt lat="43.22093" lon="0.13944">
        <ele>361.8</ele>
        <time>2024-04-17T11:50:21Z</time>
      </trkpt>
      <trkpt lat="43.22091" lon="0.13942">
        <ele>362.2</ele>
        <time>2024-04-17T11:50:22Z</time>
      </trkpt>
      <trkpt lat="43.22089" lon="0.1394">
        <ele>362.2</ele>
        <time>2024-04-17T11:50:23Z</time>
      </trkpt>
      <trkpt lat="43.22086" lon="0.13938">
        <ele>362.4</ele>
        <time>2024-04-17T11:50:24Z</time>
      </trkpt>
      <trkpt lat="43.22085" lon="0.13937">
        <ele>362.6</ele>
        <time>2024-04-17T11:50:25Z</time>
      </trkpt>
      <trkpt lat="43.22082" lon="0.13935">
        <ele>362.8</ele>
        <time>2024-04-17T11:50:26Z</time>
      </trkpt>
      <trkpt lat="43.2208" lon="0.13934">
        <ele>363</ele>
        <time>2024-04-17T11:50:27Z</time>
      </trkpt>
      <trkpt lat="43.22078" lon="0.13933">
        <ele>363</ele>
        <time>2024-04-17T11:50:28Z</time>
      </trkpt>
      <trkpt lat="43.22076" lon="0.13932">
        <ele>363.2</ele>
        <time>2024-04-17T11:50:29Z</time>
      </trkpt>
      <trkpt lat="43.22073" lon="0.13932">
        <ele>363.2</ele>
        <time>2024-04-17T11:50:30Z</time>
      </trkpt>
      <trkpt lat="43.2207" lon="0.13931">
        <ele>363.4</ele>
        <time>2024-04-17T11:50:31Z</time>
      </trkpt>
      <trkpt lat="43.22067" lon="0.1393">
        <ele>363.4</ele>
        <time>2024-04-17T11:50:32Z</time>
      </trkpt>
      <trkpt lat="43.22064" lon="0.1393">
        <ele>363.6</ele>
        <time>2024-04-17T11:50:33Z</time>
      </trkpt>
      <trkpt lat="43.22061" lon="0.1393">
        <ele>364</ele>
        <time>2024-04-17T11:50:34Z</time>
      </trkpt>
      <trkpt lat="43.22059" lon="0.1393">
        <ele>364.2</ele>
        <time>2024-04-17T11:50:35Z</time>
      </trkpt>
      <trkpt lat="43.22057" lon="0.1393">
        <ele>364.4</ele>
        <time>2024-04-17T11:50:36Z</time>
      </trkpt>
      <trkpt lat="43.22055" lon="0.1393">
        <ele>364.4</ele>
        <time>2024-04-17T11:50:37Z</time>
      </trkpt>
      <trkpt lat="43.22052" lon="0.1393">
        <ele>364.4</ele>
        <time>2024-04-17T11:50:38Z</time>
      </trkpt>
      <trkpt lat="43.22051" lon="0.1393">
        <ele>364.4</ele>
        <time>2024-04-17T11:50:39Z</time>
      </trkpt>
      <trkpt lat="43.22049" lon="0.13929">
        <ele>364.6</ele>
        <time>2024-04-17T11:50:40Z</time>
      </trkpt>
      <trkpt lat="43.22046" lon="0.13928">
        <ele>364.6</ele>
        <time>2024-04-17T11:50:41Z</time>
      </trkpt>
      <trkpt lat="43.22042" lon="0.13929">
        <ele>364.6</ele>
        <time>2024-04-17T11:50:42Z</time>
      </trkpt>
      <trkpt lat="43.2204" lon="0.13928">
        <ele>364.8</ele>
        <time>2024-04-17T11:50:43Z</time>
      </trkpt>
      <trkpt lat="43.22037" lon="0.13928">
        <ele>365</ele>
        <time>2024-04-17T11:50:44Z</time>
      </trkpt>
      <trkpt lat="43.22035" lon="0.13928">
        <ele>365.2</ele>
        <time>2024-04-17T11:50:45Z</time>
      </trkpt>
      <trkpt lat="43.22033" lon="0.13927">
        <ele>365.4</ele>
        <time>2024-04-17T11:50:46Z</time>
      </trkpt>
      <trkpt lat="43.22031" lon="0.13926">
        <ele>365.6</ele>
        <time>2024-04-17T11:50:47Z</time>
      </trkpt>
      <trkpt lat="43.22029" lon="0.13925">
        <ele>365.6</ele>
        <time>2024-04-17T11:50:48Z</time>
      </trkpt>
      <trkpt lat="43.22028" lon="0.13922">
        <ele>365.8</ele>
        <time>2024-04-17T11:50:49Z</time>
      </trkpt>
      <trkpt lat="43.22027" lon="0.13919">
        <ele>366</ele>
        <time>2024-04-17T11:50:50Z</time>
      </trkpt>
      <trkpt lat="43.22026" lon="0.13917">
        <ele>366.2</ele>
        <time>2024-04-17T11:50:51Z</time>
      </trkpt>
      <trkpt lat="43.22025" lon="0.13914">
        <ele>366.4</ele>
        <time>2024-04-17T11:50:52Z</time>
      </trkpt>
      <trkpt lat="43.22024" lon="0.1391">
        <ele>366.4</ele>
        <time>2024-04-17T11:50:53Z</time>
      </trkpt>
      <trkpt lat="43.22022" lon="0.13908">
        <ele>366.6</ele>
        <time>2024-04-17T11:50:54Z</time>
      </trkpt>
      <trkpt lat="43.22021" lon="0.13905">
        <ele>366.6</ele>
        <time>2024-04-17T11:50:55Z</time>
      </trkpt>
      <trkpt lat="43.22021" lon="0.13902">
        <ele>366.6</ele>
        <time>2024-04-17T11:50:56Z</time>
      </trkpt>
      <trkpt lat="43.2202" lon="0.139">
        <ele>366.8</ele>
        <time>2024-04-17T11:50:57Z</time>
      </trkpt>
      <trkpt lat="43.2202" lon="0.13898">
        <ele>366.8</ele>
        <time>2024-04-17T11:50:58Z</time>
      </trkpt>
      <trkpt lat="43.22019" lon="0.13896">
        <ele>367</ele>
        <time>2024-04-17T11:50:59Z</time>
      </trkpt>
      <trkpt lat="43.22019" lon="0.13893">
        <ele>367</ele>
        <time>2024-04-17T11:51:00Z</time>
      </trkpt>
      <trkpt lat="43.22018" lon="0.13891">
        <ele>367.2</ele>
        <time>2024-04-17T11:51:01Z</time>
      </trkpt>
      <trkpt lat="43.22016" lon="0.13888">
        <ele>367.4</ele>
        <time>2024-04-17T11:51:02Z</time>
      </trkpt>
      <trkpt lat="43.22015" lon="0.13887">
        <ele>367.4</ele>
        <time>2024-04-17T11:51:03Z</time>
      </trkpt>
      <trkpt lat="43.22015" lon="0.13885">
        <ele>367.6</ele>
        <time>2024-04-17T11:51:04Z</time>
      </trkpt>
      <trkpt lat="43.22014" lon="0.13883">
        <ele>367.6</ele>
        <time>2024-04-17T11:51:05Z</time>
      </trkpt>
      <trkpt lat="43.22014" lon="0.1388">
        <ele>367.6</ele>
        <time>2024-04-17T11:51:06Z</time>
      </trkpt>
      <trkpt lat="43.22013" lon="0.13877">
        <ele>367.8</ele>
        <time>2024-04-17T11:51:07Z</time>
      </trkpt>
      <trkpt lat="43.22013" lon="0.13875">
        <ele>368</ele>
        <time>2024-04-17T11:51:08Z</time>
      </trkpt>
      <trkpt lat="43.22013" lon="0.13872">
        <ele>368.4</ele>
        <time>2024-04-17T11:51:09Z</time>
      </trkpt>
      <trkpt lat="43.22012" lon="0.13869">
        <ele>368.6</ele>
        <time>2024-04-17T11:51:10Z</time>
      </trkpt>
      <trkpt lat="43.22011" lon="0.13867">
        <ele>368.8</ele>
        <time>2024-04-17T11:51:11Z</time>
      </trkpt>
      <trkpt lat="43.22011" lon="0.13864">
        <ele>369.2</ele>
        <time>2024-04-17T11:51:12Z</time>
      </trkpt>
      <trkpt lat="43.22011" lon="0.13862">
        <ele>369.2</ele>
        <time>2024-04-17T11:51:13Z</time>
      </trkpt>
      <trkpt lat="43.2201" lon="0.1386">
        <ele>369.4</ele>
        <time>2024-04-17T11:51:14Z</time>
      </trkpt>
      <trkpt lat="43.22008" lon="0.13857">
        <ele>369.4</ele>
        <time>2024-04-17T11:51:15Z</time>
      </trkpt>
      <trkpt lat="43.22008" lon="0.13855">
        <ele>369.4</ele>
        <time>2024-04-17T11:51:16Z</time>
      </trkpt>
      <trkpt lat="43.22007" lon="0.13853">
        <ele>369.6</ele>
        <time>2024-04-17T11:51:17Z</time>
      </trkpt>
      <trkpt lat="43.22006" lon="0.13851">
        <ele>369.8</ele>
        <time>2024-04-17T11:51:18Z</time>
      </trkpt>
      <trkpt lat="43.22004" lon="0.13849">
        <ele>370</ele>
        <time>2024-04-17T11:51:19Z</time>
      </trkpt>
      <trkpt lat="43.22003" lon="0.13845">
        <ele>370</ele>
        <time>2024-04-17T11:51:20Z</time>
      </trkpt>
      <trkpt lat="43.22002" lon="0.13841">
        <ele>370.2</ele>
        <time>2024-04-17T11:51:21Z</time>
      </trkpt>
      <trkpt lat="43.22001" lon="0.13839">
        <ele>370.2</ele>
        <time>2024-04-17T11:51:22Z</time>
      </trkpt>
      <trkpt lat="43.22" lon="0.13836">
        <ele>370.4</ele>
        <time>2024-04-17T11:51:23Z</time>
      </trkpt>
      <trkpt lat="43.22" lon="0.13833">
        <ele>370.6</ele>
        <time>2024-04-17T11:51:24Z</time>
      </trkpt>
      <trkpt lat="43.21999" lon="0.13829">
        <ele>370.8</ele>
        <time>2024-04-17T11:51:25Z</time>
      </trkpt>
      <trkpt lat="43.21997" lon="0.13826">
        <ele>371.2</ele>
        <time>2024-04-17T11:51:26Z</time>
      </trkpt>
      <trkpt lat="43.21997" lon="0.13824">
        <ele>371.2</ele>
        <time>2024-04-17T11:51:27Z</time>
      </trkpt>
      <trkpt lat="43.21997" lon="0.13821">
        <ele>371.4</ele>
        <time>2024-04-17T11:51:28Z</time>
      </trkpt>
      <trkpt lat="43.21997" lon="0.13818">
        <ele>371.4</ele>
        <time>2024-04-17T11:51:29Z</time>
      </trkpt>
      <trkpt lat="43.21996" lon="0.13816">
        <ele>371.6</ele>
        <time>2024-04-17T11:51:30Z</time>
      </trkpt>
      <trkpt lat="43.21995" lon="0.13814">
        <ele>371.8</ele>
        <time>2024-04-17T11:51:31Z</time>
      </trkpt>
      <trkpt lat="43.21993" lon="0.13811">
        <ele>371.8</ele>
        <time>2024-04-17T11:51:32Z</time>
      </trkpt>
      <trkpt lat="43.21992" lon="0.13808">
        <ele>371.8</ele>
        <time>2024-04-17T11:51:33Z</time>
      </trkpt>
      <trkpt lat="43.21989" lon="0.13803">
        <ele>371.8</ele>
        <time>2024-04-17T11:51:34Z</time>
      </trkpt>
      <trkpt lat="43.21986" lon="0.13799">
        <ele>372</ele>
        <time>2024-04-17T11:51:35Z</time>
      </trkpt>
      <trkpt lat="43.21985" lon="0.13796">
        <ele>372</ele>
        <time>2024-04-17T11:51:36Z</time>
      </trkpt>
      <trkpt lat="43.21985" lon="0.13792">
        <ele>372</ele>
        <time>2024-04-17T11:51:37Z</time>
      </trkpt>
      <trkpt lat="43.21986" lon="0.13788">
        <ele>372</ele>
        <time>2024-04-17T11:51:38Z</time>
      </trkpt>
      <trkpt lat="43.21986" lon="0.13783">
        <ele>372.2</ele>
        <time>2024-04-17T11:51:39Z</time>
      </trkpt>
      <trkpt lat="43.21985" lon="0.1378">
        <ele>372.2</ele>
        <time>2024-04-17T11:51:40Z</time>
      </trkpt>
      <trkpt lat="43.21982" lon="0.13775">
        <ele>372.4</ele>
        <time>2024-04-17T11:51:41Z</time>
      </trkpt>
      <trkpt lat="43.21981" lon="0.13773">
        <ele>372.4</ele>
        <time>2024-04-17T11:51:42Z</time>
      </trkpt>
      <trkpt lat="43.21979" lon="0.13771">
        <ele>372.4</ele>
        <time>2024-04-17T11:51:43Z</time>
      </trkpt>
      <trkpt lat="43.21977" lon="0.1377">
        <ele>372.6</ele>
        <time>2024-04-17T11:51:44Z</time>
      </trkpt>
      <trkpt lat="43.21974" lon="0.13771">
        <ele>372.8</ele>
        <time>2024-04-17T11:51:45Z</time>
      </trkpt>
      <trkpt lat="43.21972" lon="0.13771">
        <ele>373</ele>
        <time>2024-04-17T11:51:46Z</time>
      </trkpt>
      <trkpt lat="43.21971" lon="0.13771">
        <ele>373.2</ele>
        <time>2024-04-17T11:51:47Z</time>
      </trkpt>
      <trkpt lat="43.2197" lon="0.13771">
        <ele>373.6</ele>
        <time>2024-04-17T11:51:48Z</time>
      </trkpt>
      <trkpt lat="43.21968" lon="0.13772">
        <ele>373.6</ele>
        <time>2024-04-17T11:51:49Z</time>
      </trkpt>
      <trkpt lat="43.21967" lon="0.13774">
        <ele>373.8</ele>
        <time>2024-04-17T11:51:50Z</time>
      </trkpt>
      <trkpt lat="43.21966" lon="0.13775">
        <ele>374</ele>
        <time>2024-04-17T11:51:51Z</time>
      </trkpt>
      <trkpt lat="43.21964" lon="0.13777">
        <ele>374</ele>
        <time>2024-04-17T11:51:52Z</time>
      </trkpt>
      <trkpt lat="43.21963" lon="0.13778">
        <ele>374.2</ele>
        <time>2024-04-17T11:51:53Z</time>
      </trkpt>
      <trkpt lat="43.2196" lon="0.13779">
        <ele>374.2</ele>
        <time>2024-04-17T11:51:54Z</time>
      </trkpt>
      <trkpt lat="43.21958" lon="0.13781">
        <ele>374.6</ele>
        <time>2024-04-17T11:51:55Z</time>
      </trkpt>
      <trkpt lat="43.21956" lon="0.13783">
        <ele>374.6</ele>
        <time>2024-04-17T11:51:56Z</time>
      </trkpt>
      <trkpt lat="43.21954" lon="0.13784">
        <ele>374.8</ele>
        <time>2024-04-17T11:51:57Z</time>
      </trkpt>
      <trkpt lat="43.21953" lon="0.13786">
        <ele>374.6</ele>
        <time>2024-04-17T11:51:58Z</time>
      </trkpt>
      <trkpt lat="43.21951" lon="0.13787">
        <ele>374.8</ele>
        <time>2024-04-17T11:51:59Z</time>
      </trkpt>
      <trkpt lat="43.21949" lon="0.13789">
        <ele>374.8</ele>
        <time>2024-04-17T11:52:00Z</time>
      </trkpt>
      <trkpt lat="43.21947" lon="0.1379">
        <ele>375</ele>
        <time>2024-04-17T11:52:01Z</time>
      </trkpt>
      <trkpt lat="43.21944" lon="0.13791">
        <ele>375</ele>
        <time>2024-04-17T11:52:02Z</time>
      </trkpt>
      <trkpt lat="43.21942" lon="0.13791">
        <ele>375</ele>
        <time>2024-04-17T11:52:03Z</time>
      </trkpt>
      <trkpt lat="43.2194" lon="0.13792">
        <ele>375</ele>
        <time>2024-04-17T11:52:04Z</time>
      </trkpt>
      <trkpt lat="43.21938" lon="0.13793">
        <ele>375</ele>
        <time>2024-04-17T11:52:05Z</time>
      </trkpt>
      <trkpt lat="43.21936" lon="0.13794">
        <ele>375</ele>
        <time>2024-04-17T11:52:06Z</time>
      </trkpt>
      <trkpt lat="43.21933" lon="0.13794">
        <ele>375</ele>
        <time>2024-04-17T11:52:07Z</time>
      </trkpt>
      <trkpt lat="43.21931" lon="0.13794">
        <ele>375</ele>
        <time>2024-04-17T11:52:08Z</time>
      </trkpt>
      <trkpt lat="43.21928" lon="0.13794">
        <ele>375</ele>
        <time>2024-04-17T11:52:09Z</time>
      </trkpt>
      <trkpt lat="43.21926" lon="0.13794">
        <ele>375</ele>
        <time>2024-04-17T11:52:10Z</time>
      </trkpt>
      <trkpt lat="43.21924" lon="0.13794">
        <ele>375</ele>
        <time>2024-04-17T11:52:11Z</time>
      </trkpt>
      <trkpt lat="43.21922" lon="0.13794">
        <ele>375</ele>
        <time>2024-04-17T11:52:12Z</time>
      </trkpt>
      <trkpt lat="43.2192" lon="0.13795">
        <ele>375.2</ele>
        <time>2024-04-17T11:52:13Z</time>
      </trkpt>
      <trkpt lat="43.21917" lon="0.13796">
        <ele>375.4</ele>
        <time>2024-04-17T11:52:14Z</time>
      </trkpt>
      <trkpt lat="43.21916" lon="0.13796">
        <ele>375.6</ele>
        <time>2024-04-17T11:52:15Z</time>
      </trkpt>
      <trkpt lat="43.21914" lon="0.13798">
        <ele>375.8</ele>
        <time>2024-04-17T11:52:16Z</time>
      </trkpt>
      <trkpt lat="43.21911" lon="0.13801">
        <ele>375.8</ele>
        <time>2024-04-17T11:52:17Z</time>
      </trkpt>
      <trkpt lat="43.21908" lon="0.13804">
        <ele>376</ele>
        <time>2024-04-17T11:52:18Z</time>
      </trkpt>
      <trkpt lat="43.21905" lon="0.13805">
        <ele>376</ele>
        <time>2024-04-17T11:52:19Z</time>
      </trkpt>
      <trkpt lat="43.21902" lon="0.13806">
        <ele>376</ele>
        <time>2024-04-17T11:52:20Z</time>
      </trkpt>
      <trkpt lat="43.21899" lon="0.13807">
        <ele>376</ele>
        <time>2024-04-17T11:52:21Z</time>
      </trkpt>
      <trkpt lat="43.21896" lon="0.13808">
        <ele>376.2</ele>
        <time>2024-04-17T11:52:22Z</time>
      </trkpt>
      <trkpt lat="43.21893" lon="0.1381">
        <ele>376.2</ele>
        <time>2024-04-17T11:52:23Z</time>
      </trkpt>
      <trkpt lat="43.21892" lon="0.13811">
        <ele>376.2</ele>
        <time>2024-04-17T11:52:24Z</time>
      </trkpt>
      <trkpt lat="43.21889" lon="0.13814">
        <ele>376.4</ele>
        <time>2024-04-17T11:52:25Z</time>
      </trkpt>
      <trkpt lat="43.21886" lon="0.13816">
        <ele>376.4</ele>
        <time>2024-04-17T11:52:26Z</time>
      </trkpt>
      <trkpt lat="43.21884" lon="0.13817">
        <ele>376.6</ele>
        <time>2024-04-17T11:52:27Z</time>
      </trkpt>
      <trkpt lat="43.2188" lon="0.13817">
        <ele>376.6</ele>
        <time>2024-04-17T11:52:28Z</time>
      </trkpt>
      <trkpt lat="43.21878" lon="0.13817">
        <ele>376.8</ele>
        <time>2024-04-17T11:52:29Z</time>
      </trkpt>
      <trkpt lat="43.21876" lon="0.13819">
        <ele>376.8</ele>
        <time>2024-04-17T11:52:30Z</time>
      </trkpt>
      <trkpt lat="43.21874" lon="0.13821">
        <ele>377</ele>
        <time>2024-04-17T11:52:31Z</time>
      </trkpt>
      <trkpt lat="43.21873" lon="0.13822">
        <ele>377</ele>
        <time>2024-04-17T11:52:32Z</time>
      </trkpt>
      <trkpt lat="43.2187" lon="0.13823">
        <ele>377.2</ele>
        <time>2024-04-17T11:52:33Z</time>
      </trkpt>
      <trkpt lat="43.21869" lon="0.13825">
        <ele>377</ele>
        <time>2024-04-17T11:52:34Z</time>
      </trkpt>
      <trkpt lat="43.21867" lon="0.13827">
        <ele>377</ele>
        <time>2024-04-17T11:52:35Z</time>
      </trkpt>
      <trkpt lat="43.21864" lon="0.13828">
        <ele>377</ele>
        <time>2024-04-17T11:52:36Z</time>
      </trkpt>
      <trkpt lat="43.2186" lon="0.13829">
        <ele>377</ele>
        <time>2024-04-17T11:52:37Z</time>
      </trkpt>
      <trkpt lat="43.21858" lon="0.13831">
        <ele>377</ele>
        <time>2024-04-17T11:52:38Z</time>
      </trkpt>
      <trkpt lat="43.21856" lon="0.13833">
        <ele>377</ele>
        <time>2024-04-17T11:52:39Z</time>
      </trkpt>
      <trkpt lat="43.21854" lon="0.13834">
        <ele>377</ele>
        <time>2024-04-17T11:52:40Z</time>
      </trkpt>
      <trkpt lat="43.21852" lon="0.13835">
        <ele>377</ele>
        <time>2024-04-17T11:52:41Z</time>
      </trkpt>
      <trkpt lat="43.2185" lon="0.13837">
        <ele>377</ele>
        <time>2024-04-17T11:52:42Z</time>
      </trkpt>
      <trkpt lat="43.21848" lon="0.13839">
        <ele>377</ele>
        <time>2024-04-17T11:52:43Z</time>
      </trkpt>
      <trkpt lat="43.21845" lon="0.1384">
        <ele>377</ele>
        <time>2024-04-17T11:52:44Z</time>
      </trkpt>
      <trkpt lat="43.21843" lon="0.13841">
        <ele>377</ele>
        <time>2024-04-17T11:52:45Z</time>
      </trkpt>
      <trkpt lat="43.21841" lon="0.13842">
        <ele>377</ele>
        <time>2024-04-17T11:52:46Z</time>
      </trkpt>
      <trkpt lat="43.21839" lon="0.13842">
        <ele>377</ele>
        <time>2024-04-17T11:52:47Z</time>
      </trkpt>
      <trkpt lat="43.21837" lon="0.13842">
        <ele>377</ele>
        <time>2024-04-17T11:52:48Z</time>
      </trkpt>
      <trkpt lat="43.21834" lon="0.13841">
        <ele>376.8</ele>
        <time>2024-04-17T11:52:49Z</time>
      </trkpt>
      <trkpt lat="43.21831" lon="0.13839">
        <ele>376.8</ele>
        <time>2024-04-17T11:52:50Z</time>
      </trkpt>
      <trkpt lat="43.21828" lon="0.13838">
        <ele>376.6</ele>
        <time>2024-04-17T11:52:51Z</time>
      </trkpt>
      <trkpt lat="43.21825" lon="0.13836">
        <ele>376.8</ele>
        <time>2024-04-17T11:52:52Z</time>
      </trkpt>
      <trkpt lat="43.21824" lon="0.13834">
        <ele>376.8</ele>
        <time>2024-04-17T11:52:53Z</time>
      </trkpt>
      <trkpt lat="43.21823" lon="0.13832">
        <ele>376.8</ele>
        <time>2024-04-17T11:52:54Z</time>
      </trkpt>
      <trkpt lat="43.21821" lon="0.1383">
        <ele>376.8</ele>
        <time>2024-04-17T11:52:55Z</time>
      </trkpt>
      <trkpt lat="43.21821" lon="0.13827">
        <ele>376.8</ele>
        <time>2024-04-17T11:52:56Z</time>
      </trkpt>
      <trkpt lat="43.21821" lon="0.13824">
        <ele>376.8</ele>
        <time>2024-04-17T11:52:57Z</time>
      </trkpt>
      <trkpt lat="43.2182" lon="0.13821">
        <ele>376.8</ele>
        <time>2024-04-17T11:52:58Z</time>
      </trkpt>
      <trkpt lat="43.21819" lon="0.13818">
        <ele>377</ele>
        <time>2024-04-17T11:52:59Z</time>
      </trkpt>
      <trkpt lat="43.21819" lon="0.13815">
        <ele>377</ele>
        <time>2024-04-17T11:53:00Z</time>
      </trkpt>
      <trkpt lat="43.21819" lon="0.13812">
        <ele>377.2</ele>
        <time>2024-04-17T11:53:01Z</time>
      </trkpt>
      <trkpt lat="43.21819" lon="0.1381">
        <ele>377</ele>
        <time>2024-04-17T11:53:02Z</time>
      </trkpt>
      <trkpt lat="43.2182" lon="0.13807">
        <ele>377</ele>
        <time>2024-04-17T11:53:03Z</time>
      </trkpt>
      <trkpt lat="43.2182" lon="0.13802">
        <ele>377.2</ele>
        <time>2024-04-17T11:53:04Z</time>
      </trkpt>
      <trkpt lat="43.21819" lon="0.13798">
        <ele>377.4</ele>
        <time>2024-04-17T11:53:05Z</time>
      </trkpt>
      <trkpt lat="43.21819" lon="0.13794">
        <ele>377.6</ele>
        <time>2024-04-17T11:53:06Z</time>
      </trkpt>
      <trkpt lat="43.21819" lon="0.13791">
        <ele>377.6</ele>
        <time>2024-04-17T11:53:07Z</time>
      </trkpt>
      <trkpt lat="43.21818" lon="0.13788">
        <ele>377.8</ele>
        <time>2024-04-17T11:53:08Z</time>
      </trkpt>
      <trkpt lat="43.21817" lon="0.13785">
        <ele>378</ele>
        <time>2024-04-17T11:53:09Z</time>
      </trkpt>
      <trkpt lat="43.21814" lon="0.13781">
        <ele>378.2</ele>
        <time>2024-04-17T11:53:10Z</time>
      </trkpt>
      <trkpt lat="43.21813" lon="0.13779">
        <ele>378.2</ele>
        <time>2024-04-17T11:53:11Z</time>
      </trkpt>
      <trkpt lat="43.21812" lon="0.13777">
        <ele>378.4</ele>
        <time>2024-04-17T11:53:12Z</time>
      </trkpt>
      <trkpt lat="43.2181" lon="0.13774">
        <ele>378.6</ele>
        <time>2024-04-17T11:53:13Z</time>
      </trkpt>
      <trkpt lat="43.21808" lon="0.1377">
        <ele>378.6</ele>
        <time>2024-04-17T11:53:14Z</time>
      </trkpt>
      <trkpt lat="43.21806" lon="0.13766">
        <ele>378.8</ele>
        <time>2024-04-17T11:53:15Z</time>
      </trkpt>
      <trkpt lat="43.21805" lon="0.13764">
        <ele>379</ele>
        <time>2024-04-17T11:53:16Z</time>
      </trkpt>
      <trkpt lat="43.21804" lon="0.1376">
        <ele>379</ele>
        <time>2024-04-17T11:53:17Z</time>
      </trkpt>
      <trkpt lat="43.21803" lon="0.13757">
        <ele>379.2</ele>
        <time>2024-04-17T11:53:18Z</time>
      </trkpt>
      <trkpt lat="43.21803" lon="0.13755">
        <ele>379.2</ele>
        <time>2024-04-17T11:53:19Z</time>
      </trkpt>
      <trkpt lat="43.21802" lon="0.13753">
        <ele>379.2</ele>
        <time>2024-04-17T11:53:20Z</time>
      </trkpt>
      <trkpt lat="43.21801" lon="0.13751">
        <ele>379.4</ele>
        <time>2024-04-17T11:53:21Z</time>
      </trkpt>
      <trkpt lat="43.21801" lon="0.13749">
        <ele>379.4</ele>
        <time>2024-04-17T11:53:22Z</time>
      </trkpt>
      <trkpt lat="43.21799" lon="0.13747">
        <ele>379.4</ele>
        <time>2024-04-17T11:53:23Z</time>
      </trkpt>
      <trkpt lat="43.21799" lon="0.13746">
        <ele>379.6</ele>
        <time>2024-04-17T11:53:24Z</time>
      </trkpt>
      <trkpt lat="43.21798" lon="0.13745">
        <ele>379.6</ele>
        <time>2024-04-17T11:53:25Z</time>
      </trkpt>
      <trkpt lat="43.21798" lon="0.13742">
        <ele>379.6</ele>
        <time>2024-04-17T11:53:26Z</time>
      </trkpt>
      <trkpt lat="43.21798" lon="0.1374">
        <ele>379.6</ele>
        <time>2024-04-17T11:53:27Z</time>
      </trkpt>
      <trkpt lat="43.21798" lon="0.13738">
        <ele>379.6</ele>
        <time>2024-04-17T11:53:28Z</time>
      </trkpt>
      <trkpt lat="43.21797" lon="0.13736">
        <ele>379.6</ele>
        <time>2024-04-17T11:53:29Z</time>
      </trkpt>
      <trkpt lat="43.21796" lon="0.13734">
        <ele>379.6</ele>
        <time>2024-04-17T11:53:30Z</time>
      </trkpt>
      <trkpt lat="43.21796" lon="0.13732">
        <ele>379.8</ele>
        <time>2024-04-17T11:53:31Z</time>
      </trkpt>
      <trkpt lat="43.21796" lon="0.1373">
        <ele>379.8</ele>
        <time>2024-04-17T11:53:32Z</time>
      </trkpt>
      <trkpt lat="43.21795" lon="0.13729">
        <ele>379.8</ele>
        <time>2024-04-17T11:53:33Z</time>
      </trkpt>
      <trkpt lat="43.21795" lon="0.13727">
        <ele>379.8</ele>
        <time>2024-04-17T11:53:34Z</time>
      </trkpt>
      <trkpt lat="43.21795" lon="0.13724">
        <ele>380.2</ele>
        <time>2024-04-17T11:53:35Z</time>
      </trkpt>
      <trkpt lat="43.21795" lon="0.13722">
        <ele>380.2</ele>
        <time>2024-04-17T11:53:36Z</time>
      </trkpt>
      <trkpt lat="43.21793" lon="0.1372">
        <ele>380.4</ele>
        <time>2024-04-17T11:53:37Z</time>
      </trkpt>
      <trkpt lat="43.21793" lon="0.13718">
        <ele>380.6</ele>
        <time>2024-04-17T11:53:38Z</time>
      </trkpt>
      <trkpt lat="43.21793" lon="0.13717">
        <ele>380.8</ele>
        <time>2024-04-17T11:53:39Z</time>
      </trkpt>
      <trkpt lat="43.21793" lon="0.13716">
        <ele>380.8</ele>
        <time>2024-04-17T11:53:40Z</time>
      </trkpt>
      <trkpt lat="43.21791" lon="0.13713">
        <ele>381</ele>
        <time>2024-04-17T11:53:41Z</time>
      </trkpt>
      <trkpt lat="43.2179" lon="0.1371">
        <ele>381.2</ele>
        <time>2024-04-17T11:53:42Z</time>
      </trkpt>
      <trkpt lat="43.21788" lon="0.13706">
        <ele>381.2</ele>
        <time>2024-04-17T11:53:43Z</time>
      </trkpt>
      <trkpt lat="43.21785" lon="0.13702">
        <ele>381.4</ele>
        <time>2024-04-17T11:53:44Z</time>
      </trkpt>
      <trkpt lat="43.21783" lon="0.13698">
        <ele>381.4</ele>
        <time>2024-04-17T11:53:45Z</time>
      </trkpt>
      <trkpt lat="43.21782" lon="0.13695">
        <ele>381.4</ele>
        <time>2024-04-17T11:53:46Z</time>
      </trkpt>
      <trkpt lat="43.21782" lon="0.13692">
        <ele>381.6</ele>
        <time>2024-04-17T11:53:47Z</time>
      </trkpt>
      <trkpt lat="43.21781" lon="0.13689">
        <ele>381.6</ele>
        <time>2024-04-17T11:53:48Z</time>
      </trkpt>
      <trkpt lat="43.21782" lon="0.13686">
        <ele>382</ele>
        <time>2024-04-17T11:53:49Z</time>
      </trkpt>
      <trkpt lat="43.21781" lon="0.13684">
        <ele>382.2</ele>
        <time>2024-04-17T11:53:50Z</time>
      </trkpt>
      <trkpt lat="43.21779" lon="0.13681">
        <ele>382.4</ele>
        <time>2024-04-17T11:53:51Z</time>
      </trkpt>
      <trkpt lat="43.21778" lon="0.13679">
        <ele>382.6</ele>
        <time>2024-04-17T11:53:52Z</time>
      </trkpt>
      <trkpt lat="43.21777" lon="0.13676">
        <ele>382.8</ele>
        <time>2024-04-17T11:53:53Z</time>
      </trkpt>
      <trkpt lat="43.21775" lon="0.13672">
        <ele>382.8</ele>
        <time>2024-04-17T11:53:54Z</time>
      </trkpt>
      <trkpt lat="43.21775" lon="0.13669">
        <ele>383.4</ele>
        <time>2024-04-17T11:53:55Z</time>
      </trkpt>
      <trkpt lat="43.21774" lon="0.13666">
        <ele>383.4</ele>
        <time>2024-04-17T11:53:56Z</time>
      </trkpt>
      <trkpt lat="43.21774" lon="0.13662">
        <ele>383.4</ele>
        <time>2024-04-17T11:53:57Z</time>
      </trkpt>
      <trkpt lat="43.21772" lon="0.13659">
        <ele>383.8</ele>
        <time>2024-04-17T11:53:58Z</time>
      </trkpt>
      <trkpt lat="43.21772" lon="0.13654">
        <ele>383.8</ele>
        <time>2024-04-17T11:53:59Z</time>
      </trkpt>
      <trkpt lat="43.21769" lon="0.1365">
        <ele>384.2</ele>
        <time>2024-04-17T11:54:00Z</time>
      </trkpt>
      <trkpt lat="43.21768" lon="0.13648">
        <ele>384.2</ele>
        <time>2024-04-17T11:54:01Z</time>
      </trkpt>
      <trkpt lat="43.21768" lon="0.13646">
        <ele>384.6</ele>
        <time>2024-04-17T11:54:02Z</time>
      </trkpt>
      <trkpt lat="43.21766" lon="0.13643">
        <ele>384.6</ele>
        <time>2024-04-17T11:54:03Z</time>
      </trkpt>
      <trkpt lat="43.21765" lon="0.13641">
        <ele>384.6</ele>
        <time>2024-04-17T11:54:04Z</time>
      </trkpt>
      <trkpt lat="43.21764" lon="0.1364">
        <ele>384.6</ele>
        <time>2024-04-17T11:54:05Z</time>
      </trkpt>
      <trkpt lat="43.21764" lon="0.13636">
        <ele>384.6</ele>
        <time>2024-04-17T11:54:06Z</time>
      </trkpt>
      <trkpt lat="43.21764" lon="0.13632">
        <ele>384.8</ele>
        <time>2024-04-17T11:54:07Z</time>
      </trkpt>
      <trkpt lat="43.21763" lon="0.1363">
        <ele>385</ele>
        <time>2024-04-17T11:54:08Z</time>
      </trkpt>
      <trkpt lat="43.21763" lon="0.13627">
        <ele>385.2</ele>
        <time>2024-04-17T11:54:09Z</time>
      </trkpt>
      <trkpt lat="43.21762" lon="0.13625">
        <ele>385.2</ele>
        <time>2024-04-17T11:54:10Z</time>
      </trkpt>
      <trkpt lat="43.21761" lon="0.13623">
        <ele>385.6</ele>
        <time>2024-04-17T11:54:11Z</time>
      </trkpt>
      <trkpt lat="43.21761" lon="0.13621">
        <ele>386</ele>
        <time>2024-04-17T11:54:12Z</time>
      </trkpt>
      <trkpt lat="43.2176" lon="0.13619">
        <ele>386.2</ele>
        <time>2024-04-17T11:54:13Z</time>
      </trkpt>
      <trkpt lat="43.21759" lon="0.13617">
        <ele>386.4</ele>
        <time>2024-04-17T11:54:14Z</time>
      </trkpt>
      <trkpt lat="43.21759" lon="0.13615">
        <ele>386.6</ele>
        <time>2024-04-17T11:54:15Z</time>
      </trkpt>
      <trkpt lat="43.21758" lon="0.13612">
        <ele>386.8</ele>
        <time>2024-04-17T11:54:16Z</time>
      </trkpt>
      <trkpt lat="43.21758" lon="0.1361">
        <ele>386.8</ele>
        <time>2024-04-17T11:54:17Z</time>
      </trkpt>
      <trkpt lat="43.21757" lon="0.13607">
        <ele>386.8</ele>
        <time>2024-04-17T11:54:18Z</time>
      </trkpt>
      <trkpt lat="43.21756" lon="0.13605">
        <ele>387</ele>
        <time>2024-04-17T11:54:19Z</time>
      </trkpt>
      <trkpt lat="43.21755" lon="0.13603">
        <ele>387.2</ele>
        <time>2024-04-17T11:54:20Z</time>
      </trkpt>
      <trkpt lat="43.21755" lon="0.13601">
        <ele>387.4</ele>
        <time>2024-04-17T11:54:21Z</time>
      </trkpt>
      <trkpt lat="43.21754" lon="0.13599">
        <ele>387.6</ele>
        <time>2024-04-17T11:54:22Z</time>
      </trkpt>
      <trkpt lat="43.21754" lon="0.13596">
        <ele>387.8</ele>
        <time>2024-04-17T11:54:23Z</time>
      </trkpt>
      <trkpt lat="43.21754" lon="0.13594">
        <ele>387.8</ele>
        <time>2024-04-17T11:54:24Z</time>
      </trkpt>
      <trkpt lat="43.21754" lon="0.13592">
        <ele>388</ele>
        <time>2024-04-17T11:54:25Z</time>
      </trkpt>
      <trkpt lat="43.21753" lon="0.1359">
        <ele>388</ele>
        <time>2024-04-17T11:54:26Z</time>
      </trkpt>
      <trkpt lat="43.21753" lon="0.13588">
        <ele>388.6</ele>
        <time>2024-04-17T11:54:27Z</time>
      </trkpt>
      <trkpt lat="43.21752" lon="0.13587">
        <ele>389</ele>
        <time>2024-04-17T11:54:28Z</time>
      </trkpt>
      <trkpt lat="43.21751" lon="0.13586">
        <ele>389</ele>
        <time>2024-04-17T11:54:29Z</time>
      </trkpt>
      <trkpt lat="43.2175" lon="0.13585">
        <ele>389.2</ele>
        <time>2024-04-17T11:54:30Z</time>
      </trkpt>
      <trkpt lat="43.2175" lon="0.13583">
        <ele>389.2</ele>
        <time>2024-04-17T11:54:31Z</time>
      </trkpt>
      <trkpt lat="43.21749" lon="0.13581">
        <ele>389.4</ele>
        <time>2024-04-17T11:54:32Z</time>
      </trkpt>
      <trkpt lat="43.21748" lon="0.13579">
        <ele>389.4</ele>
        <time>2024-04-17T11:54:33Z</time>
      </trkpt>
      <trkpt lat="43.21747" lon="0.13576">
        <ele>389.4</ele>
        <time>2024-04-17T11:54:34Z</time>
      </trkpt>
      <trkpt lat="43.21747" lon="0.13573">
        <ele>389.6</ele>
        <time>2024-04-17T11:54:35Z</time>
      </trkpt>
      <trkpt lat="43.21747" lon="0.13571">
        <ele>389.6</ele>
        <time>2024-04-17T11:54:36Z</time>
      </trkpt>
      <trkpt lat="43.21746" lon="0.13569">
        <ele>389.8</ele>
        <time>2024-04-17T11:54:37Z</time>
      </trkpt>
      <trkpt lat="43.21744" lon="0.13566">
        <ele>389.8</ele>
        <time>2024-04-17T11:54:38Z</time>
      </trkpt>
      <trkpt lat="43.21744" lon="0.13563">
        <ele>390</ele>
        <time>2024-04-17T11:54:39Z</time>
      </trkpt>
      <trkpt lat="43.21743" lon="0.13559">
        <ele>390.2</ele>
        <time>2024-04-17T11:54:40Z</time>
      </trkpt>
      <trkpt lat="43.21742" lon="0.13556">
        <ele>390.2</ele>
        <time>2024-04-17T11:54:41Z</time>
      </trkpt>
      <trkpt lat="43.21742" lon="0.13553">
        <ele>390.2</ele>
        <time>2024-04-17T11:54:42Z</time>
      </trkpt>
      <trkpt lat="43.21741" lon="0.1355">
        <ele>390.4</ele>
        <time>2024-04-17T11:54:43Z</time>
      </trkpt>
      <trkpt lat="43.2174" lon="0.13546">
        <ele>390.4</ele>
        <time>2024-04-17T11:54:44Z</time>
      </trkpt>
      <trkpt lat="43.21739" lon="0.13543">
        <ele>390.6</ele>
        <time>2024-04-17T11:54:45Z</time>
      </trkpt>
      <trkpt lat="43.21736" lon="0.13539">
        <ele>390.8</ele>
        <time>2024-04-17T11:54:46Z</time>
      </trkpt>
      <trkpt lat="43.21735" lon="0.13536">
        <ele>391</ele>
        <time>2024-04-17T11:54:47Z</time>
      </trkpt>
      <trkpt lat="43.21733" lon="0.13531">
        <ele>391</ele>
        <time>2024-04-17T11:54:48Z</time>
      </trkpt>
      <trkpt lat="43.21732" lon="0.13527">
        <ele>391</ele>
        <time>2024-04-17T11:54:49Z</time>
      </trkpt>
      <trkpt lat="43.21729" lon="0.13523">
        <ele>391</ele>
        <time>2024-04-17T11:54:50Z</time>
      </trkpt>
      <trkpt lat="43.21727" lon="0.1352">
        <ele>391.2</ele>
        <time>2024-04-17T11:54:51Z</time>
      </trkpt>
      <trkpt lat="43.21726" lon="0.13518">
        <ele>391.2</ele>
        <time>2024-04-17T11:54:52Z</time>
      </trkpt>
      <trkpt lat="43.21726" lon="0.13516">
        <ele>391.4</ele>
        <time>2024-04-17T11:54:53Z</time>
      </trkpt>
      <trkpt lat="43.21725" lon="0.13516">
        <ele>391.6</ele>
        <time>2024-04-17T11:54:54Z</time>
      </trkpt>
      <trkpt lat="43.21724" lon="0.13514">
        <ele>391.8</ele>
        <time>2024-04-17T11:54:55Z</time>
      </trkpt>
      <trkpt lat="43.21724" lon="0.13513">
        <ele>391.8</ele>
        <time>2024-04-17T11:54:56Z</time>
      </trkpt>
      <trkpt lat="43.21723" lon="0.13512">
        <ele>392</ele>
        <time>2024-04-17T11:54:57Z</time>
      </trkpt>
      <trkpt lat="43.21723" lon="0.13512">
        <ele>392.2</ele>
        <time>2024-04-17T11:54:58Z</time>
      </trkpt>
      <trkpt lat="43.21723" lon="0.13511">
        <ele>392.4</ele>
        <time>2024-04-17T11:54:59Z</time>
      </trkpt>
      <trkpt lat="43.21723" lon="0.1351">
        <ele>392.4</ele>
        <time>2024-04-17T11:55:00Z</time>
      </trkpt>
      <trkpt lat="43.21722" lon="0.13508">
        <ele>392.8</ele>
        <time>2024-04-17T11:55:01Z</time>
      </trkpt>
      <trkpt lat="43.21722" lon="0.13507">
        <ele>393.2</ele>
        <time>2024-04-17T11:55:02Z</time>
      </trkpt>
      <trkpt lat="43.21721" lon="0.13506">
        <ele>393.4</ele>
        <time>2024-04-17T11:55:03Z</time>
      </trkpt>
      <trkpt lat="43.21721" lon="0.13504">
        <ele>393.8</ele>
        <time>2024-04-17T11:55:04Z</time>
      </trkpt>
      <trkpt lat="43.2172" lon="0.13503">
        <ele>394</ele>
        <time>2024-04-17T11:55:05Z</time>
      </trkpt>
      <trkpt lat="43.2172" lon="0.135">
        <ele>394.2</ele>
        <time>2024-04-17T11:55:06Z</time>
      </trkpt>
      <trkpt lat="43.2172" lon="0.13499">
        <ele>394.2</ele>
        <time>2024-04-17T11:55:07Z</time>
      </trkpt>
      <trkpt lat="43.21719" lon="0.13497">
        <ele>394.4</ele>
        <time>2024-04-17T11:55:08Z</time>
      </trkpt>
      <trkpt lat="43.21717" lon="0.13495">
        <ele>394.6</ele>
        <time>2024-04-17T11:55:09Z</time>
      </trkpt>
      <trkpt lat="43.21717" lon="0.13495">
        <ele>394.8</ele>
        <time>2024-04-17T11:55:10Z</time>
      </trkpt>
      <trkpt lat="43.21717" lon="0.13495">
        <ele>395.2</ele>
        <time>2024-04-17T11:55:11Z</time>
      </trkpt>
      <trkpt lat="43.21717" lon="0.13495">
        <ele>395.4</ele>
        <time>2024-04-17T11:55:12Z</time>
      </trkpt>
      <trkpt lat="43.21717" lon="0.13494">
        <ele>395.6</ele>
        <time>2024-04-17T11:55:13Z</time>
      </trkpt>
      <trkpt lat="43.21716" lon="0.13492">
        <ele>395.6</ele>
        <time>2024-04-17T11:55:14Z</time>
      </trkpt>
      <trkpt lat="43.21716" lon="0.13491">
        <ele>395.8</ele>
        <time>2024-04-17T11:55:15Z</time>
      </trkpt>
      <trkpt lat="43.21716" lon="0.1349">
        <ele>395.8</ele>
        <time>2024-04-17T11:55:16Z</time>
      </trkpt>
      <trkpt lat="43.21716" lon="0.13488">
        <ele>396.2</ele>
        <time>2024-04-17T11:55:17Z</time>
      </trkpt>
      <trkpt lat="43.21716" lon="0.13486">
        <ele>396.4</ele>
        <time>2024-04-17T11:55:18Z</time>
      </trkpt>
      <trkpt lat="43.21716" lon="0.13485">
        <ele>396.6</ele>
        <time>2024-04-17T11:55:19Z</time>
      </trkpt>
      <trkpt lat="43.21714" lon="0.13481">
        <ele>396.8</ele>
        <time>2024-04-17T11:55:20Z</time>
      </trkpt>
      <trkpt lat="43.21713" lon="0.13479">
        <ele>396.8</ele>
        <time>2024-04-17T11:55:21Z</time>
      </trkpt>
      <trkpt lat="43.21712" lon="0.13477">
        <ele>397.2</ele>
        <time>2024-04-17T11:55:22Z</time>
      </trkpt>
      <trkpt lat="43.21713" lon="0.13475">
        <ele>397.2</ele>
        <time>2024-04-17T11:55:23Z</time>
      </trkpt>
      <trkpt lat="43.21713" lon="0.13474">
        <ele>397.4</ele>
        <time>2024-04-17T11:55:24Z</time>
      </trkpt>
      <trkpt lat="43.21713" lon="0.13472">
        <ele>397.6</ele>
        <time>2024-04-17T11:55:25Z</time>
      </trkpt>
      <trkpt lat="43.21714" lon="0.13472">
        <ele>398</ele>
        <time>2024-04-17T11:55:26Z</time>
      </trkpt>
      <trkpt lat="43.21715" lon="0.13472">
        <ele>398.6</ele>
        <time>2024-04-17T11:55:27Z</time>
      </trkpt>
      <trkpt lat="43.21716" lon="0.13472">
        <ele>398.6</ele>
        <time>2024-04-17T11:55:28Z</time>
      </trkpt>
      <trkpt lat="43.21716" lon="0.13472">
        <ele>398.8</ele>
        <time>2024-04-17T11:55:29Z</time>
      </trkpt>
      <trkpt lat="43.21717" lon="0.13472">
        <ele>399</ele>
        <time>2024-04-17T11:55:30Z</time>
      </trkpt>
      <trkpt lat="43.21717" lon="0.13472">
        <ele>399.2</ele>
        <time>2024-04-17T11:55:31Z</time>
      </trkpt>
      <trkpt lat="43.21717" lon="0.13472">
        <ele>399.2</ele>
        <time>2024-04-17T11:55:32Z</time>
      </trkpt>
      <trkpt lat="43.21717" lon="0.13472">
        <ele>399.6</ele>
        <time>2024-04-17T11:55:33Z</time>
      </trkpt>
      <trkpt lat="43.21717" lon="0.13472">
        <ele>399.6</ele>
        <time>2024-04-17T11:55:34Z</time>
      </trkpt>
      <trkpt lat="43.21717" lon="0.13472">
        <ele>399.8</ele>
        <time>2024-04-17T11:55:35Z</time>
      </trkpt>
      <trkpt lat="43.21717" lon="0.13472">
        <ele>400</ele>
        <time>2024-04-17T11:55:36Z</time>
      </trkpt>
      <trkpt lat="43.21717" lon="0.13472">
        <ele>400.2</ele>
        <time>2024-04-17T11:55:37Z</time>
      </trkpt>
      <trkpt lat="43.21717" lon="0.13472">
        <ele>400.4</ele>
        <time>2024-04-17T11:55:38Z</time>
      </trkpt>
      <trkpt lat="43.21717" lon="0.13472">
        <ele>400.6</ele>
        <time>2024-04-17T11:55:39Z</time>
      </trkpt>
      <trkpt lat="43.21717" lon="0.13472">
        <ele>400.8</ele>
        <time>2024-04-17T11:55:40Z</time>
      </trkpt>
      <trkpt lat="43.21718" lon="0.13472">
        <ele>400.8</ele>
        <time>2024-04-17T11:55:41Z</time>
      </trkpt>
      <trkpt lat="43.2172" lon="0.1347">
        <ele>401.2</ele>
        <time>2024-04-17T11:55:42Z</time>
      </trkpt>
      <trkpt lat="43.21722" lon="0.13467">
        <ele>401.4</ele>
        <time>2024-04-17T11:55:43Z</time>
      </trkpt>
      <trkpt lat="43.21723" lon="0.13465">
        <ele>401.4</ele>
        <time>2024-04-17T11:55:44Z</time>
      </trkpt>
      <trkpt lat="43.21725" lon="0.13464">
        <ele>401.8</ele>
        <time>2024-04-17T11:55:45Z</time>
      </trkpt>
      <trkpt lat="43.21726" lon="0.13462">
        <ele>402</ele>
        <time>2024-04-17T11:55:46Z</time>
      </trkpt>
      <trkpt lat="43.21727" lon="0.13462">
        <ele>402.2</ele>
        <time>2024-04-17T11:55:47Z</time>
      </trkpt>
      <trkpt lat="43.21728" lon="0.13461">
        <ele>402.4</ele>
        <time>2024-04-17T11:55:48Z</time>
      </trkpt>
      <trkpt lat="43.2173" lon="0.13459">
        <ele>402.6</ele>
        <time>2024-04-17T11:55:49Z</time>
      </trkpt>
      <trkpt lat="43.21731" lon="0.13456">
        <ele>402.8</ele>
        <time>2024-04-17T11:55:50Z</time>
      </trkpt>
      <trkpt lat="43.21732" lon="0.13453">
        <ele>402.8</ele>
        <time>2024-04-17T11:55:51Z</time>
      </trkpt>
      <trkpt lat="43.21733" lon="0.13451">
        <ele>403</ele>
        <time>2024-04-17T11:55:52Z</time>
      </trkpt>
      <trkpt lat="43.21735" lon="0.13449">
        <ele>403.2</ele>
        <time>2024-04-17T11:55:53Z</time>
      </trkpt>
      <trkpt lat="43.21737" lon="0.13447">
        <ele>403.4</ele>
        <time>2024-04-17T11:55:54Z</time>
      </trkpt>
      <trkpt lat="43.21738" lon="0.13446">
        <ele>403.6</ele>
        <time>2024-04-17T11:55:55Z</time>
      </trkpt>
      <trkpt lat="43.21738" lon="0.13445">
        <ele>403.6</ele>
        <time>2024-04-17T11:55:56Z</time>
      </trkpt>
      <trkpt lat="43.21739" lon="0.13445">
        <ele>403.8</ele>
        <time>2024-04-17T11:55:57Z</time>
      </trkpt>
      <trkpt lat="43.2174" lon="0.13445">
        <ele>404</ele>
        <time>2024-04-17T11:55:58Z</time>
      </trkpt>
      <trkpt lat="43.21741" lon="0.13444">
        <ele>404.2</ele>
        <time>2024-04-17T11:55:59Z</time>
      </trkpt>
      <trkpt lat="43.21742" lon="0.13443">
        <ele>404.4</ele>
        <time>2024-04-17T11:56:00Z</time>
      </trkpt>
      <trkpt lat="43.21744" lon="0.13442">
        <ele>404.4</ele>
        <time>2024-04-17T11:56:01Z</time>
      </trkpt>
      <trkpt lat="43.21746" lon="0.13441">
        <ele>404.6</ele>
        <time>2024-04-17T11:56:02Z</time>
      </trkpt>
      <trkpt lat="43.21746" lon="0.1344">
        <ele>404.6</ele>
        <time>2024-04-17T11:56:03Z</time>
      </trkpt>
      <trkpt lat="43.21747" lon="0.13441">
        <ele>404.8</ele>
        <time>2024-04-17T11:56:04Z</time>
      </trkpt>
      <trkpt lat="43.2175" lon="0.13438">
        <ele>405</ele>
        <time>2024-04-17T11:56:05Z</time>
      </trkpt>
      <trkpt lat="43.21752" lon="0.13433">
        <ele>405.2</ele>
        <time>2024-04-17T11:56:06Z</time>
      </trkpt>
      <trkpt lat="43.21753" lon="0.13429">
        <ele>405.4</ele>
        <time>2024-04-17T11:56:07Z</time>
      </trkpt>
      <trkpt lat="43.21754" lon="0.13425">
        <ele>405.4</ele>
        <time>2024-04-17T11:56:08Z</time>
      </trkpt>
      <trkpt lat="43.21755" lon="0.13422">
        <ele>405.4</ele>
        <time>2024-04-17T11:56:09Z</time>
      </trkpt>
      <trkpt lat="43.21757" lon="0.1342">
        <ele>405.6</ele>
        <time>2024-04-17T11:56:10Z</time>
      </trkpt>
      <trkpt lat="43.21759" lon="0.13418">
        <ele>405.6</ele>
        <time>2024-04-17T11:56:11Z</time>
      </trkpt>
      <trkpt lat="43.21759" lon="0.13416">
        <ele>405.6</ele>
        <time>2024-04-17T11:56:12Z</time>
      </trkpt>
      <trkpt lat="43.21758" lon="0.13413">
        <ele>405.8</ele>
        <time>2024-04-17T11:56:13Z</time>
      </trkpt>
      <trkpt lat="43.21758" lon="0.13411">
        <ele>405.8</ele>
        <time>2024-04-17T11:56:14Z</time>
      </trkpt>
      <trkpt lat="43.21756" lon="0.13409">
        <ele>406</ele>
        <time>2024-04-17T11:56:15Z</time>
      </trkpt>
      <trkpt lat="43.21756" lon="0.13407">
        <ele>406.2</ele>
        <time>2024-04-17T11:56:16Z</time>
      </trkpt>
      <trkpt lat="43.21754" lon="0.13405">
        <ele>406.4</ele>
        <time>2024-04-17T11:56:17Z</time>
      </trkpt>
      <trkpt lat="43.21753" lon="0.13402">
        <ele>406.6</ele>
        <time>2024-04-17T11:56:18Z</time>
      </trkpt>
      <trkpt lat="43.21753" lon="0.134">
        <ele>406.8</ele>
        <time>2024-04-17T11:56:19Z</time>
      </trkpt>
      <trkpt lat="43.21753" lon="0.13398">
        <ele>406.8</ele>
        <time>2024-04-17T11:56:20Z</time>
      </trkpt>
      <trkpt lat="43.21751" lon="0.13395">
        <ele>407</ele>
        <time>2024-04-17T11:56:21Z</time>
      </trkpt>
      <trkpt lat="43.2175" lon="0.13394">
        <ele>407</ele>
        <time>2024-04-17T11:56:22Z</time>
      </trkpt>
      <trkpt lat="43.2175" lon="0.13391">
        <ele>407.2</ele>
        <time>2024-04-17T11:56:23Z</time>
      </trkpt>
      <trkpt lat="43.21749" lon="0.1339">
        <ele>407.4</ele>
        <time>2024-04-17T11:56:24Z</time>
      </trkpt>
      <trkpt lat="43.21749" lon="0.1339">
        <ele>407.4</ele>
        <time>2024-04-17T11:56:25Z</time>
      </trkpt>
      <trkpt lat="43.21748" lon="0.13389">
        <ele>407.6</ele>
        <time>2024-04-17T11:56:26Z</time>
      </trkpt>
      <trkpt lat="43.21747" lon="0.13387">
        <ele>407.6</ele>
        <time>2024-04-17T11:56:27Z</time>
      </trkpt>
      <trkpt lat="43.21746" lon="0.13386">
        <ele>407.8</ele>
        <time>2024-04-17T11:56:28Z</time>
      </trkpt>
      <trkpt lat="43.21746" lon="0.13385">
        <ele>407.8</ele>
        <time>2024-04-17T11:56:29Z</time>
      </trkpt>
      <trkpt lat="43.21745" lon="0.13385">
        <ele>408</ele>
        <time>2024-04-17T11:56:30Z</time>
      </trkpt>
      <trkpt lat="43.21744" lon="0.13384">
        <ele>408.2</ele>
        <time>2024-04-17T11:56:31Z</time>
      </trkpt>
      <trkpt lat="43.21743" lon="0.13384">
        <ele>408.2</ele>
        <time>2024-04-17T11:56:32Z</time>
      </trkpt>
      <trkpt lat="43.21741" lon="0.13383">
        <ele>408.4</ele>
        <time>2024-04-17T11:56:33Z</time>
      </trkpt>
      <trkpt lat="43.2174" lon="0.13382">
        <ele>408.4</ele>
        <time>2024-04-17T11:56:34Z</time>
      </trkpt>
      <trkpt lat="43.21739" lon="0.13382">
        <ele>408.6</ele>
        <time>2024-04-17T11:56:35Z</time>
      </trkpt>
      <trkpt lat="43.21738" lon="0.1338">
        <ele>408.8</ele>
        <time>2024-04-17T11:56:36Z</time>
      </trkpt>
      <trkpt lat="43.21737" lon="0.13379">
        <ele>409</ele>
        <time>2024-04-17T11:56:37Z</time>
      </trkpt>
      <trkpt lat="43.21736" lon="0.13378">
        <ele>409.2</ele>
        <time>2024-04-17T11:56:38Z</time>
      </trkpt>
      <trkpt lat="43.21736" lon="0.13377">
        <ele>409.2</ele>
        <time>2024-04-17T11:56:39Z</time>
      </trkpt>
      <trkpt lat="43.21736" lon="0.13376">
        <ele>409.2</ele>
        <time>2024-04-17T11:56:40Z</time>
      </trkpt>
      <trkpt lat="43.21736" lon="0.13376">
        <ele>409.4</ele>
        <time>2024-04-17T11:56:41Z</time>
      </trkpt>
      <trkpt lat="43.21736" lon="0.13376">
        <ele>409.8</ele>
        <time>2024-04-17T11:56:42Z</time>
      </trkpt>
      <trkpt lat="43.21735" lon="0.13375">
        <ele>409.8</ele>
        <time>2024-04-17T11:56:43Z</time>
      </trkpt>
      <trkpt lat="43.21734" lon="0.13373">
        <ele>410</ele>
        <time>2024-04-17T11:56:44Z</time>
      </trkpt>
      <trkpt lat="43.21733" lon="0.13372">
        <ele>410.2</ele>
        <time>2024-04-17T11:56:45Z</time>
      </trkpt>
      <trkpt lat="43.21733" lon="0.13372">
        <ele>410.4</ele>
        <time>2024-04-17T11:56:46Z</time>
      </trkpt>
      <trkpt lat="43.21732" lon="0.13371">
        <ele>410.4</ele>
        <time>2024-04-17T11:56:47Z</time>
      </trkpt>
      <trkpt lat="43.21731" lon="0.1337">
        <ele>410.8</ele>
        <time>2024-04-17T11:56:48Z</time>
      </trkpt>
      <trkpt lat="43.21731" lon="0.13369">
        <ele>411</ele>
        <time>2024-04-17T11:56:49Z</time>
      </trkpt>
      <trkpt lat="43.2173" lon="0.13368">
        <ele>411</ele>
        <time>2024-04-17T11:56:50Z</time>
      </trkpt>
      <trkpt lat="43.21729" lon="0.13366">
        <ele>411.2</ele>
        <time>2024-04-17T11:56:51Z</time>
      </trkpt>
      <trkpt lat="43.21727" lon="0.13365">
        <ele>411.4</ele>
        <time>2024-04-17T11:56:52Z</time>
      </trkpt>
      <trkpt lat="43.21726" lon="0.13363">
        <ele>411.6</ele>
        <time>2024-04-17T11:56:53Z</time>
      </trkpt>
      <trkpt lat="43.21725" lon="0.13363">
        <ele>411.6</ele>
        <time>2024-04-17T11:56:54Z</time>
      </trkpt>
      <trkpt lat="43.21725" lon="0.13362">
        <ele>411.8</ele>
        <time>2024-04-17T11:56:55Z</time>
      </trkpt>
      <trkpt lat="43.21725" lon="0.13362">
        <ele>411.8</ele>
        <time>2024-04-17T11:56:56Z</time>
      </trkpt>
      <trkpt lat="43.21725" lon="0.13362">
        <ele>412</ele>
        <time>2024-04-17T11:56:57Z</time>
      </trkpt>
      <trkpt lat="43.21725" lon="0.13362">
        <ele>412.2</ele>
        <time>2024-04-17T11:56:58Z</time>
      </trkpt>
      <trkpt lat="43.21725" lon="0.13362">
        <ele>412.4</ele>
        <time>2024-04-17T11:56:59Z</time>
      </trkpt>
      <trkpt lat="43.21725" lon="0.13362">
        <ele>412.4</ele>
        <time>2024-04-17T11:57:00Z</time>
      </trkpt>
      <trkpt lat="43.21725" lon="0.13362">
        <ele>412.6</ele>
        <time>2024-04-17T11:57:01Z</time>
      </trkpt>
      <trkpt lat="43.21725" lon="0.13362">
        <ele>412.6</ele>
        <time>2024-04-17T11:57:02Z</time>
      </trkpt>
      <trkpt lat="43.21725" lon="0.13362">
        <ele>412.6</ele>
        <time>2024-04-17T11:57:03Z</time>
      </trkpt>
      <trkpt lat="43.21725" lon="0.13362">
        <ele>412.6</ele>
        <time>2024-04-17T11:57:04Z</time>
      </trkpt>
      <trkpt lat="43.21724" lon="0.13361">
        <ele>412.8</ele>
        <time>2024-04-17T11:57:05Z</time>
      </trkpt>
      <trkpt lat="43.21724" lon="0.13361">
        <ele>412.8</ele>
        <time>2024-04-17T11:57:06Z</time>
      </trkpt>
      <trkpt lat="43.21724" lon="0.13361">
        <ele>412.8</ele>
        <time>2024-04-17T11:57:07Z</time>
      </trkpt>
      <trkpt lat="43.21724" lon="0.13361">
        <ele>412.8</ele>
        <time>2024-04-17T11:57:08Z</time>
      </trkpt>
      <trkpt lat="43.21724" lon="0.13361">
        <ele>412.8</ele>
        <time>2024-04-17T11:57:09Z</time>
      </trkpt>
      <trkpt lat="43.21724" lon="0.13361">
        <ele>412.8</ele>
        <time>2024-04-17T11:57:10Z</time>
      </trkpt>
      <trkpt lat="43.21724" lon="0.13361">
        <ele>413</ele>
        <time>2024-04-17T11:57:11Z</time>
      </trkpt>
      <trkpt lat="43.21723" lon="0.13358">
        <ele>413</ele>
        <time>2024-04-17T11:57:12Z</time>
      </trkpt>
      <trkpt lat="43.21722" lon="0.13357">
        <ele>413</ele>
        <time>2024-04-17T11:57:13Z</time>
      </trkpt>
      <trkpt lat="43.21721" lon="0.13356">
        <ele>413</ele>
        <time>2024-04-17T11:57:14Z</time>
      </trkpt>
      <trkpt lat="43.2172" lon="0.13354">
        <ele>413.2</ele>
        <time>2024-04-17T11:57:15Z</time>
      </trkpt>
      <trkpt lat="43.21719" lon="0.13353">
        <ele>413.2</ele>
        <time>2024-04-17T11:57:16Z</time>
      </trkpt>
      <trkpt lat="43.21717" lon="0.13351">
        <ele>413.2</ele>
        <time>2024-04-17T11:57:17Z</time>
      </trkpt>
      <trkpt lat="43.21716" lon="0.13349">
        <ele>413.4</ele>
        <time>2024-04-17T11:57:18Z</time>
      </trkpt>
      <trkpt lat="43.21715" lon="0.13346">
        <ele>413.6</ele>
        <time>2024-04-17T11:57:19Z</time>
      </trkpt>
      <trkpt lat="43.21714" lon="0.13343">
        <ele>413.8</ele>
        <time>2024-04-17T11:57:20Z</time>
      </trkpt>
      <trkpt lat="43.21713" lon="0.13341">
        <ele>413.8</ele>
        <time>2024-04-17T11:57:21Z</time>
      </trkpt>
      <trkpt lat="43.21713" lon="0.13339">
        <ele>414</ele>
        <time>2024-04-17T11:57:22Z</time>
      </trkpt>
      <trkpt lat="43.21712" lon="0.13337">
        <ele>414.2</ele>
        <time>2024-04-17T11:57:23Z</time>
      </trkpt>
      <trkpt lat="43.2171" lon="0.13335">
        <ele>414.2</ele>
        <time>2024-04-17T11:57:24Z</time>
      </trkpt>
      <trkpt lat="43.21709" lon="0.13333">
        <ele>414.4</ele>
        <time>2024-04-17T11:57:25Z</time>
      </trkpt>
      <trkpt lat="43.21708" lon="0.13332">
        <ele>414.6</ele>
        <time>2024-04-17T11:57:26Z</time>
      </trkpt>
      <trkpt lat="43.21707" lon="0.13331">
        <ele>414.8</ele>
        <time>2024-04-17T11:57:27Z</time>
      </trkpt>
      <trkpt lat="43.21707" lon="0.13329">
        <ele>415</ele>
        <time>2024-04-17T11:57:28Z</time>
      </trkpt>
      <trkpt lat="43.21707" lon="0.13327">
        <ele>415.2</ele>
        <time>2024-04-17T11:57:29Z</time>
      </trkpt>
      <trkpt lat="43.21706" lon="0.13326">
        <ele>415.2</ele>
        <time>2024-04-17T11:57:30Z</time>
      </trkpt>
      <trkpt lat="43.21705" lon="0.13325">
        <ele>415.4</ele>
        <time>2024-04-17T11:57:31Z</time>
      </trkpt>
      <trkpt lat="43.21705" lon="0.13324">
        <ele>415.4</ele>
        <time>2024-04-17T11:57:32Z</time>
      </trkpt>
      <trkpt lat="43.21704" lon="0.13322">
        <ele>415.6</ele>
        <time>2024-04-17T11:57:33Z</time>
      </trkpt>
      <trkpt lat="43.21702" lon="0.1332">
        <ele>416</ele>
        <time>2024-04-17T11:57:34Z</time>
      </trkpt>
      <trkpt lat="43.21702" lon="0.1332">
        <ele>416</ele>
        <time>2024-04-17T11:57:35Z</time>
      </trkpt>
      <trkpt lat="43.21699" lon="0.13318">
        <ele>416.4</ele>
        <time>2024-04-17T11:57:36Z</time>
      </trkpt>
      <trkpt lat="43.21699" lon="0.13317">
        <ele>416.4</ele>
        <time>2024-04-17T11:57:37Z</time>
      </trkpt>
      <trkpt lat="43.21698" lon="0.13316">
        <ele>416.6</ele>
        <time>2024-04-17T11:57:38Z</time>
      </trkpt>
      <trkpt lat="43.21696" lon="0.13314">
        <ele>416.6</ele>
        <time>2024-04-17T11:57:39Z</time>
      </trkpt>
      <trkpt lat="43.21696" lon="0.13312">
        <ele>417</ele>
        <time>2024-04-17T11:57:40Z</time>
      </trkpt>
      <trkpt lat="43.21695" lon="0.13309">
        <ele>417.2</ele>
        <time>2024-04-17T11:57:41Z</time>
      </trkpt>
      <trkpt lat="43.21694" lon="0.13307">
        <ele>417.4</ele>
        <time>2024-04-17T11:57:42Z</time>
      </trkpt>
      <trkpt lat="43.21693" lon="0.13305">
        <ele>417.6</ele>
        <time>2024-04-17T11:57:43Z</time>
      </trkpt>
      <trkpt lat="43.21691" lon="0.13303">
        <ele>417.6</ele>
        <time>2024-04-17T11:57:44Z</time>
      </trkpt>
      <trkpt lat="43.21687" lon="0.13301">
        <ele>417.8</ele>
        <time>2024-04-17T11:57:45Z</time>
      </trkpt>
      <trkpt lat="43.21685" lon="0.133">
        <ele>417.8</ele>
        <time>2024-04-17T11:57:46Z</time>
      </trkpt>
      <trkpt lat="43.21684" lon="0.13299">
        <ele>418</ele>
        <time>2024-04-17T11:57:47Z</time>
      </trkpt>
      <trkpt lat="43.21683" lon="0.13297">
        <ele>418</ele>
        <time>2024-04-17T11:57:48Z</time>
      </trkpt>
      <trkpt lat="43.21683" lon="0.13297">
        <ele>418.2</ele>
        <time>2024-04-17T11:57:49Z</time>
      </trkpt>
      <trkpt lat="43.21683" lon="0.13295">
        <ele>418.4</ele>
        <time>2024-04-17T11:57:50Z</time>
      </trkpt>
      <trkpt lat="43.21684" lon="0.13292">
        <ele>418.6</ele>
        <time>2024-04-17T11:57:51Z</time>
      </trkpt>
      <trkpt lat="43.21684" lon="0.13291">
        <ele>418.8</ele>
        <time>2024-04-17T11:57:52Z</time>
      </trkpt>
      <trkpt lat="43.21684" lon="0.13289">
        <ele>418.8</ele>
        <time>2024-04-17T11:57:53Z</time>
      </trkpt>
      <trkpt lat="43.21683" lon="0.13288">
        <ele>419</ele>
        <time>2024-04-17T11:57:54Z</time>
      </trkpt>
      <trkpt lat="43.21683" lon="0.13287">
        <ele>419</ele>
        <time>2024-04-17T11:57:55Z</time>
      </trkpt>
      <trkpt lat="43.21682" lon="0.13285">
        <ele>419.2</ele>
        <time>2024-04-17T11:57:56Z</time>
      </trkpt>
      <trkpt lat="43.21681" lon="0.13284">
        <ele>419.2</ele>
        <time>2024-04-17T11:57:57Z</time>
      </trkpt>
      <trkpt lat="43.21679" lon="0.13283">
        <ele>419.4</ele>
        <time>2024-04-17T11:57:58Z</time>
      </trkpt>
      <trkpt lat="43.21679" lon="0.13282">
        <ele>419.6</ele>
        <time>2024-04-17T11:57:59Z</time>
      </trkpt>
      <trkpt lat="43.21678" lon="0.13282">
        <ele>419.6</ele>
        <time>2024-04-17T11:58:00Z</time>
      </trkpt>
      <trkpt lat="43.21678" lon="0.1328">
        <ele>419.8</ele>
        <time>2024-04-17T11:58:01Z</time>
      </trkpt>
      <trkpt lat="43.21677" lon="0.13278">
        <ele>419.8</ele>
        <time>2024-04-17T11:58:02Z</time>
      </trkpt>
      <trkpt lat="43.21677" lon="0.13276">
        <ele>420</ele>
        <time>2024-04-17T11:58:03Z</time>
      </trkpt>
      <trkpt lat="43.21677" lon="0.13275">
        <ele>420.2</ele>
        <time>2024-04-17T11:58:04Z</time>
      </trkpt>
      <trkpt lat="43.21676" lon="0.13273">
        <ele>420.2</ele>
        <time>2024-04-17T11:58:05Z</time>
      </trkpt>
      <trkpt lat="43.21676" lon="0.13272">
        <ele>420.4</ele>
        <time>2024-04-17T11:58:06Z</time>
      </trkpt>
      <trkpt lat="43.21676" lon="0.1327">
        <ele>420.4</ele>
        <time>2024-04-17T11:58:07Z</time>
      </trkpt>
      <trkpt lat="43.21676" lon="0.13268">
        <ele>420.6</ele>
        <time>2024-04-17T11:58:08Z</time>
      </trkpt>
      <trkpt lat="43.21676" lon="0.13267">
        <ele>420.6</ele>
        <time>2024-04-17T11:58:09Z</time>
      </trkpt>
      <trkpt lat="43.21675" lon="0.13265">
        <ele>420.8</ele>
        <time>2024-04-17T11:58:10Z</time>
      </trkpt>
      <trkpt lat="43.21673" lon="0.13263">
        <ele>421</ele>
        <time>2024-04-17T11:58:11Z</time>
      </trkpt>
      <trkpt lat="43.21673" lon="0.13261">
        <ele>421</ele>
        <time>2024-04-17T11:58:12Z</time>
      </trkpt>
      <trkpt lat="43.21672" lon="0.1326">
        <ele>421.2</ele>
        <time>2024-04-17T11:58:13Z</time>
      </trkpt>
      <trkpt lat="43.21671" lon="0.13259">
        <ele>421.2</ele>
        <time>2024-04-17T11:58:14Z</time>
      </trkpt>
      <trkpt lat="43.21671" lon="0.13258">
        <ele>421.4</ele>
        <time>2024-04-17T11:58:15Z</time>
      </trkpt>
      <trkpt lat="43.21669" lon="0.13255">
        <ele>421.4</ele>
        <time>2024-04-17T11:58:16Z</time>
      </trkpt>
      <trkpt lat="43.21668" lon="0.13253">
        <ele>421.6</ele>
        <time>2024-04-17T11:58:17Z</time>
      </trkpt>
      <trkpt lat="43.21666" lon="0.13251">
        <ele>421.6</ele>
        <time>2024-04-17T11:58:18Z</time>
      </trkpt>
      <trkpt lat="43.21664" lon="0.13249">
        <ele>421.8</ele>
        <time>2024-04-17T11:58:19Z</time>
      </trkpt>
      <trkpt lat="43.21664" lon="0.13248">
        <ele>422</ele>
        <time>2024-04-17T11:58:20Z</time>
      </trkpt>
      <trkpt lat="43.21663" lon="0.13247">
        <ele>422</ele>
        <time>2024-04-17T11:58:21Z</time>
      </trkpt>
      <trkpt lat="43.2166" lon="0.13246">
        <ele>422</ele>
        <time>2024-04-17T11:58:22Z</time>
      </trkpt>
      <trkpt lat="43.21657" lon="0.13243">
        <ele>422.2</ele>
        <time>2024-04-17T11:58:23Z</time>
      </trkpt>
      <trkpt lat="43.21656" lon="0.13241">
        <ele>422.4</ele>
        <time>2024-04-17T11:58:24Z</time>
      </trkpt>
      <trkpt lat="43.21655" lon="0.13238">
        <ele>422.4</ele>
        <time>2024-04-17T11:58:25Z</time>
      </trkpt>
      <trkpt lat="43.21654" lon="0.13236">
        <ele>422.6</ele>
        <time>2024-04-17T11:58:26Z</time>
      </trkpt>
      <trkpt lat="43.21654" lon="0.13233">
        <ele>422.6</ele>
        <time>2024-04-17T11:58:27Z</time>
      </trkpt>
      <trkpt lat="43.21653" lon="0.13232">
        <ele>422.6</ele>
        <time>2024-04-17T11:58:28Z</time>
      </trkpt>
      <trkpt lat="43.21651" lon="0.1323">
        <ele>422.8</ele>
        <time>2024-04-17T11:58:29Z</time>
      </trkpt>
      <trkpt lat="43.21649" lon="0.13227">
        <ele>422.8</ele>
        <time>2024-04-17T11:58:30Z</time>
      </trkpt>
      <trkpt lat="43.21649" lon="0.13225">
        <ele>423</ele>
        <time>2024-04-17T11:58:31Z</time>
      </trkpt>
      <trkpt lat="43.21649" lon="0.13223">
        <ele>423</ele>
        <time>2024-04-17T11:58:32Z</time>
      </trkpt>
      <trkpt lat="43.21648" lon="0.1322">
        <ele>423.2</ele>
        <time>2024-04-17T11:58:33Z</time>
      </trkpt>
      <trkpt lat="43.21645" lon="0.13217">
        <ele>423.4</ele>
        <time>2024-04-17T11:58:34Z</time>
      </trkpt>
      <trkpt lat="43.21645" lon="0.13217">
        <ele>423.6</ele>
        <time>2024-04-17T11:58:35Z</time>
      </trkpt>
      <trkpt lat="43.21644" lon="0.13217">
        <ele>423.8</ele>
        <time>2024-04-17T11:58:36Z</time>
      </trkpt>
      <trkpt lat="43.21643" lon="0.13215">
        <ele>423.8</ele>
        <time>2024-04-17T11:58:37Z</time>
      </trkpt>
      <trkpt lat="43.21643" lon="0.13213">
        <ele>424</ele>
        <time>2024-04-17T11:58:38Z</time>
      </trkpt>
      <trkpt lat="43.21643" lon="0.13211">
        <ele>424</ele>
        <time>2024-04-17T11:58:39Z</time>
      </trkpt>
      <trkpt lat="43.21643" lon="0.13208">
        <ele>424.2</ele>
        <time>2024-04-17T11:58:40Z</time>
      </trkpt>
      <trkpt lat="43.21643" lon="0.13205">
        <ele>424.2</ele>
        <time>2024-04-17T11:58:41Z</time>
      </trkpt>
      <trkpt lat="43.21642" lon="0.13203">
        <ele>424.2</ele>
        <time>2024-04-17T11:58:42Z</time>
      </trkpt>
      <trkpt lat="43.2164" lon="0.13199">
        <ele>424.4</ele>
        <time>2024-04-17T11:58:43Z</time>
      </trkpt>
      <trkpt lat="43.2164" lon="0.13196">
        <ele>424.6</ele>
        <time>2024-04-17T11:58:44Z</time>
      </trkpt>
      <trkpt lat="43.21639" lon="0.13193">
        <ele>424.8</ele>
        <time>2024-04-17T11:58:45Z</time>
      </trkpt>
      <trkpt lat="43.21638" lon="0.13189">
        <ele>424.8</ele>
        <time>2024-04-17T11:58:46Z</time>
      </trkpt>
      <trkpt lat="43.21637" lon="0.13188">
        <ele>425</ele>
        <time>2024-04-17T11:58:47Z</time>
      </trkpt>
      <trkpt lat="43.21636" lon="0.13187">
        <ele>425.2</ele>
        <time>2024-04-17T11:58:48Z</time>
      </trkpt>
      <trkpt lat="43.21635" lon="0.13189">
        <ele>425.4</ele>
        <time>2024-04-17T11:58:49Z</time>
      </trkpt>
      <trkpt lat="43.21631" lon="0.13187">
        <ele>425.4</ele>
        <time>2024-04-17T11:58:50Z</time>
      </trkpt>
      <trkpt lat="43.2163" lon="0.13186">
        <ele>425.6</ele>
        <time>2024-04-17T11:58:51Z</time>
      </trkpt>
      <trkpt lat="43.21629" lon="0.13185">
        <ele>425.6</ele>
        <time>2024-04-17T11:58:52Z</time>
      </trkpt>
      <trkpt lat="43.21628" lon="0.13183">
        <ele>425.6</ele>
        <time>2024-04-17T11:58:53Z</time>
      </trkpt>
      <trkpt lat="43.21626" lon="0.13181">
        <ele>425.8</ele>
        <time>2024-04-17T11:58:54Z</time>
      </trkpt>
      <trkpt lat="43.21626" lon="0.13179">
        <ele>425.8</ele>
        <time>2024-04-17T11:58:55Z</time>
      </trkpt>
      <trkpt lat="43.21625" lon="0.13178">
        <ele>426</ele>
        <time>2024-04-17T11:58:56Z</time>
      </trkpt>
      <trkpt lat="43.21624" lon="0.13177">
        <ele>426</ele>
        <time>2024-04-17T11:58:57Z</time>
      </trkpt>
      <trkpt lat="43.21624" lon="0.13175">
        <ele>426.2</ele>
        <time>2024-04-17T11:58:58Z</time>
      </trkpt>
      <trkpt lat="43.21624" lon="0.13173">
        <ele>426.2</ele>
        <time>2024-04-17T11:58:59Z</time>
      </trkpt>
      <trkpt lat="43.21623" lon="0.13171">
        <ele>426.4</ele>
        <time>2024-04-17T11:59:00Z</time>
      </trkpt>
      <trkpt lat="43.21622" lon="0.13168">
        <ele>426.4</ele>
        <time>2024-04-17T11:59:01Z</time>
      </trkpt>
      <trkpt lat="43.21622" lon="0.13165">
        <ele>426.4</ele>
        <time>2024-04-17T11:59:02Z</time>
      </trkpt>
      <trkpt lat="43.21621" lon="0.13163">
        <ele>426.4</ele>
        <time>2024-04-17T11:59:03Z</time>
      </trkpt>
      <trkpt lat="43.21621" lon="0.13161">
        <ele>426.4</ele>
        <time>2024-04-17T11:59:04Z</time>
      </trkpt>
      <trkpt lat="43.2162" lon="0.13157">
        <ele>426.6</ele>
        <time>2024-04-17T11:59:05Z</time>
      </trkpt>
      <trkpt lat="43.21619" lon="0.13153">
        <ele>426.6</ele>
        <time>2024-04-17T11:59:06Z</time>
      </trkpt>
      <trkpt lat="43.21619" lon="0.1315">
        <ele>426.6</ele>
        <time>2024-04-17T11:59:07Z</time>
      </trkpt>
      <trkpt lat="43.21619" lon="0.13146">
        <ele>426.8</ele>
        <time>2024-04-17T11:59:08Z</time>
      </trkpt>
      <trkpt lat="43.21618" lon="0.13142">
        <ele>426.8</ele>
        <time>2024-04-17T11:59:09Z</time>
      </trkpt>
      <trkpt lat="43.21618" lon="0.13139">
        <ele>426.8</ele>
        <time>2024-04-17T11:59:10Z</time>
      </trkpt>
      <trkpt lat="43.21619" lon="0.13137">
        <ele>426.8</ele>
        <time>2024-04-17T11:59:11Z</time>
      </trkpt>
      <trkpt lat="43.21619" lon="0.13133">
        <ele>426.6</ele>
        <time>2024-04-17T11:59:12Z</time>
      </trkpt>
      <trkpt lat="43.21616" lon="0.13128">
        <ele>426.6</ele>
        <time>2024-04-17T11:59:13Z</time>
      </trkpt>
      <trkpt lat="43.21615" lon="0.13124">
        <ele>426.6</ele>
        <time>2024-04-17T11:59:14Z</time>
      </trkpt>
      <trkpt lat="43.21613" lon="0.13118">
        <ele>426.6</ele>
        <time>2024-04-17T11:59:15Z</time>
      </trkpt>
      <trkpt lat="43.21612" lon="0.13113">
        <ele>426.6</ele>
        <time>2024-04-17T11:59:16Z</time>
      </trkpt>
      <trkpt lat="43.21612" lon="0.13108">
        <ele>426.8</ele>
        <time>2024-04-17T11:59:17Z</time>
      </trkpt>
      <trkpt lat="43.21612" lon="0.13103">
        <ele>426.8</ele>
        <time>2024-04-17T11:59:18Z</time>
      </trkpt>
      <trkpt lat="43.21613" lon="0.131">
        <ele>426.8</ele>
        <time>2024-04-17T11:59:19Z</time>
      </trkpt>
      <trkpt lat="43.21613" lon="0.13095">
        <ele>426.8</ele>
        <time>2024-04-17T11:59:20Z</time>
      </trkpt>
      <trkpt lat="43.21613" lon="0.13092">
        <ele>426.8</ele>
        <time>2024-04-17T11:59:21Z</time>
      </trkpt>
      <trkpt lat="43.21613" lon="0.13089">
        <ele>426.8</ele>
        <time>2024-04-17T11:59:22Z</time>
      </trkpt>
      <trkpt lat="43.21609" lon="0.13086">
        <ele>426.6</ele>
        <time>2024-04-17T11:59:23Z</time>
      </trkpt>
      <trkpt lat="43.21608" lon="0.13081">
        <ele>426.6</ele>
        <time>2024-04-17T11:59:24Z</time>
      </trkpt>
      <trkpt lat="43.21607" lon="0.13079">
        <ele>426.6</ele>
        <time>2024-04-17T11:59:25Z</time>
      </trkpt>
      <trkpt lat="43.21605" lon="0.13078">
        <ele>426.4</ele>
        <time>2024-04-17T11:59:26Z</time>
      </trkpt>
      <trkpt lat="43.21607" lon="0.13076">
        <ele>426.4</ele>
        <time>2024-04-17T11:59:27Z</time>
      </trkpt>
      <trkpt lat="43.21608" lon="0.13071">
        <ele>426.4</ele>
        <time>2024-04-17T11:59:28Z</time>
      </trkpt>
      <trkpt lat="43.21608" lon="0.13065">
        <ele>426.2</ele>
        <time>2024-04-17T11:59:29Z</time>
      </trkpt>
      <trkpt lat="43.21608" lon="0.13057">
        <ele>426.2</ele>
        <time>2024-04-17T11:59:30Z</time>
      </trkpt>
      <trkpt lat="43.21608" lon="0.1305">
        <ele>426</ele>
        <time>2024-04-17T11:59:31Z</time>
      </trkpt>
      <trkpt lat="43.21608" lon="0.13045">
        <ele>426</ele>
        <time>2024-04-17T11:59:32Z</time>
      </trkpt>
      <trkpt lat="43.21609" lon="0.13041">
        <ele>425.8</ele>
        <time>2024-04-17T11:59:33Z</time>
      </trkpt>
      <trkpt lat="43.21609" lon="0.13035">
        <ele>425.6</ele>
        <time>2024-04-17T11:59:34Z</time>
      </trkpt>
      <trkpt lat="43.21608" lon="0.1303">
        <ele>425.6</ele>
        <time>2024-04-17T11:59:35Z</time>
      </trkpt>
      <trkpt lat="43.21607" lon="0.13024">
        <ele>425.4</ele>
        <time>2024-04-17T11:59:36Z</time>
      </trkpt>
      <trkpt lat="43.21604" lon="0.13017">
        <ele>425.4</ele>
        <time>2024-04-17T11:59:37Z</time>
      </trkpt>
      <trkpt lat="43.216" lon="0.1301">
        <ele>425.2</ele>
        <time>2024-04-17T11:59:38Z</time>
      </trkpt>
      <trkpt lat="43.21598" lon="0.13006">
        <ele>425</ele>
        <time>2024-04-17T11:59:39Z</time>
      </trkpt>
      <trkpt lat="43.21597" lon="0.13005">
        <ele>425</ele>
        <time>2024-04-17T11:59:40Z</time>
      </trkpt>
      <trkpt lat="43.21597" lon="0.13005">
        <ele>424.6</ele>
        <time>2024-04-17T11:59:41Z</time>
      </trkpt>
      <trkpt lat="43.21597" lon="0.13005">
        <ele>424.2</ele>
        <time>2024-04-17T11:59:42Z</time>
      </trkpt>
      <trkpt lat="43.21597" lon="0.13005">
        <ele>424</ele>
        <time>2024-04-17T11:59:43Z</time>
      </trkpt>
      <trkpt lat="43.21597" lon="0.13005">
        <ele>423.6</ele>
        <time>2024-04-17T11:59:44Z</time>
      </trkpt>
      <trkpt lat="43.21597" lon="0.13005">
        <ele>423.4</ele>
        <time>2024-04-17T11:59:45Z</time>
      </trkpt>
      <trkpt lat="43.21597" lon="0.13005">
        <ele>423</ele>
        <time>2024-04-17T11:59:46Z</time>
      </trkpt>
      <trkpt lat="43.21597" lon="0.13005">
        <ele>423</ele>
        <time>2024-04-17T11:59:47Z</time>
      </trkpt>
      <trkpt lat="43.21597" lon="0.13005">
        <ele>423</ele>
        <time>2024-04-17T11:59:48Z</time>
      </trkpt>
      <trkpt lat="43.21597" lon="0.13005">
        <ele>422.8</ele>
        <time>2024-04-17T11:59:49Z</time>
      </trkpt>
      <trkpt lat="43.21597" lon="0.13005">
        <ele>422.8</ele>
        <time>2024-04-17T11:59:50Z</time>
      </trkpt>
      <trkpt lat="43.21597" lon="0.13005">
        <ele>422.8</ele>
        <time>2024-04-17T11:59:51Z</time>
      </trkpt>
      <trkpt lat="43.21597" lon="0.13005">
        <ele>422.8</ele>
        <time>2024-04-17T11:59:52Z</time>
      </trkpt>
      <trkpt lat="43.21597" lon="0.13005">
        <ele>422.8</ele>
        <time>2024-04-17T11:59:53Z</time>
      </trkpt>
      <trkpt lat="43.21597" lon="0.13005">
        <ele>422.8</ele>
        <time>2024-04-17T11:59:54Z</time>
      </trkpt>
      <trkpt lat="43.21597" lon="0.13005">
        <ele>422.8</ele>
        <time>2024-04-17T11:59:55Z</time>
      </trkpt>
      <trkpt lat="43.21597" lon="0.13005">
        <ele>422.8</ele>
        <time>2024-04-17T11:59:56Z</time>
      </trkpt>
      <trkpt lat="43.21597" lon="0.13005">
        <ele>423</ele>
        <time>2024-04-17T11:59:57Z</time>
      </trkpt>
      <trkpt lat="43.21597" lon="0.13005">
        <ele>423</ele>
        <time>2024-04-17T11:59:58Z</time>
      </trkpt>
      <trkpt lat="43.21597" lon="0.13005">
        <ele>423</ele>
        <time>2024-04-17T11:59:59Z</time>
      </trkpt>
      <trkpt lat="43.21597" lon="0.13005">
        <ele>423</ele>
        <time>2024-04-17T12:00:00Z</time>
      </trkpt>
      <trkpt lat="43.21597" lon="0.13005">
        <ele>423</ele>
        <time>2024-04-17T12:00:01Z</time>
      </trkpt>
      <trkpt lat="43.21597" lon="0.13005">
        <ele>422.8</ele>
        <time>2024-04-17T12:00:02Z</time>
      </trkpt>
      <trkpt lat="43.21597" lon="0.13005">
        <ele>422.8</ele>
        <time>2024-04-17T12:00:03Z</time>
      </trkpt>
      <trkpt lat="43.21597" lon="0.13005">
        <ele>422.8</ele>
        <time>2024-04-17T12:00:04Z</time>
      </trkpt>
      <trkpt lat="43.21597" lon="0.13005">
        <ele>422.8</ele>
        <time>2024-04-17T12:00:05Z</time>
      </trkpt>
      <trkpt lat="43.21597" lon="0.13005">
        <ele>422.8</ele>
        <time>2024-04-17T12:00:06Z</time>
      </trkpt>
      <trkpt lat="43.21597" lon="0.13005">
        <ele>422.8</ele>
        <time>2024-04-17T12:00:07Z</time>
      </trkpt>
      <trkpt lat="43.21597" lon="0.13005">
        <ele>422.8</ele>
        <time>2024-04-17T12:00:08Z</time>
      </trkpt>
      <trkpt lat="43.21597" lon="0.13005">
        <ele>422.8</ele>
        <time>2024-04-17T12:00:09Z</time>
      </trkpt>
      <trkpt lat="43.21597" lon="0.13005">
        <ele>422.8</ele>
        <time>2024-04-17T12:00:10Z</time>
      </trkpt>
      <trkpt lat="43.21597" lon="0.13005">
        <ele>422.8</ele>
        <time>2024-04-17T12:00:11Z</time>
      </trkpt>
      <trkpt lat="43.21597" lon="0.13005">
        <ele>422.8</ele>
        <time>2024-04-17T12:00:12Z</time>
      </trkpt>
      <trkpt lat="43.21597" lon="0.13005">
        <ele>422.8</ele>
        <time>2024-04-17T12:00:13Z</time>
      </trkpt>
      <trkpt lat="43.21597" lon="0.13005">
        <ele>422.6</ele>
        <time>2024-04-17T12:00:14Z</time>
      </trkpt>
      <trkpt lat="43.21597" lon="0.13005">
        <ele>422.6</ele>
        <time>2024-04-17T12:00:15Z</time>
      </trkpt>
      <trkpt lat="43.21597" lon="0.13005">
        <ele>422.6</ele>
        <time>2024-04-17T12:00:16Z</time>
      </trkpt>
      <trkpt lat="43.21598" lon="0.13006">
        <ele>422.6</ele>
        <time>2024-04-17T12:00:17Z</time>
      </trkpt>
      <trkpt lat="43.21598" lon="0.13006">
        <ele>422.4</ele>
        <time>2024-04-17T12:00:18Z</time>
      </trkpt>
      <trkpt lat="43.21598" lon="0.13006">
        <ele>422.4</ele>
        <time>2024-04-17T12:00:19Z</time>
      </trkpt>
      <trkpt lat="43.21598" lon="0.13006">
        <ele>422.4</ele>
        <time>2024-04-17T12:00:20Z</time>
      </trkpt>
      <trkpt lat="43.21598" lon="0.13006">
        <ele>422.4</ele>
        <time>2024-04-17T12:00:21Z</time>
      </trkpt>
      <trkpt lat="43.21598" lon="0.13006">
        <ele>422.2</ele>
        <time>2024-04-17T12:00:22Z</time>
      </trkpt>
      <trkpt lat="43.21598" lon="0.13006">
        <ele>422.2</ele>
        <time>2024-04-17T12:00:23Z</time>
      </trkpt>
      <trkpt lat="43.21598" lon="0.13006">
        <ele>422.2</ele>
        <time>2024-04-17T12:00:24Z</time>
      </trkpt>
      <trkpt lat="43.21598" lon="0.13006">
        <ele>422.2</ele>
        <time>2024-04-17T12:00:25Z</time>
      </trkpt>
      <trkpt lat="43.21598" lon="0.13006">
        <ele>422.2</ele>
        <time>2024-04-17T12:00:26Z</time>
      </trkpt>
      <trkpt lat="43.21598" lon="0.13006">
        <ele>422.2</ele>
        <time>2024-04-17T12:00:27Z</time>
      </trkpt>
      <trkpt lat="43.21598" lon="0.13006">
        <ele>422.2</ele>
        <time>2024-04-17T12:00:28Z</time>
      </trkpt>
      <trkpt lat="43.21598" lon="0.13006">
        <ele>422.2</ele>
        <time>2024-04-17T12:00:29Z</time>
      </trkpt>
      <trkpt lat="43.21598" lon="0.13006">
        <ele>422.2</ele>
        <time>2024-04-17T12:00:30Z</time>
      </trkpt>
      <trkpt lat="43.21599" lon="0.13006">
        <ele>422.2</ele>
        <time>2024-04-17T12:00:31Z</time>
      </trkpt>
      <trkpt lat="43.21599" lon="0.13006">
        <ele>422.2</ele>
        <time>2024-04-17T12:00:32Z</time>
      </trkpt>
      <trkpt lat="43.216" lon="0.13006">
        <ele>422.2</ele>
        <time>2024-04-17T12:00:33Z</time>
      </trkpt>
      <trkpt lat="43.216" lon="0.13006">
        <ele>422.4</ele>
        <time>2024-04-17T12:00:34Z</time>
      </trkpt>
      <trkpt lat="43.216" lon="0.13006">
        <ele>422.4</ele>
        <time>2024-04-17T12:00:35Z</time>
      </trkpt>
      <trkpt lat="43.216" lon="0.13006">
        <ele>422.4</ele>
        <time>2024-04-17T12:00:36Z</time>
      </trkpt>
      <trkpt lat="43.216" lon="0.13006">
        <ele>422.4</ele>
        <time>2024-04-17T12:00:37Z</time>
      </trkpt>
      <trkpt lat="43.216" lon="0.13006">
        <ele>422.4</ele>
        <time>2024-04-17T12:00:38Z</time>
      </trkpt>
      <trkpt lat="43.216" lon="0.13006">
        <ele>422.4</ele>
        <time>2024-04-17T12:00:39Z</time>
      </trkpt>
      <trkpt lat="43.216" lon="0.13006">
        <ele>422.4</ele>
        <time>2024-04-17T12:00:40Z</time>
      </trkpt>
      <trkpt lat="43.216" lon="0.13006">
        <ele>422.4</ele>
        <time>2024-04-17T12:00:41Z</time>
      </trkpt>
      <trkpt lat="43.216" lon="0.13006">
        <ele>422.4</ele>
        <time>2024-04-17T12:00:42Z</time>
      </trkpt>
      <trkpt lat="43.216" lon="0.13006">
        <ele>422.4</ele>
        <time>2024-04-17T12:00:43Z</time>
      </trkpt>
      <trkpt lat="43.216" lon="0.13006">
        <ele>422.4</ele>
        <time>2024-04-17T12:00:44Z</time>
      </trkpt>
      <trkpt lat="43.216" lon="0.13006">
        <ele>422.4</ele>
        <time>2024-04-17T12:00:45Z</time>
      </trkpt>
      <trkpt lat="43.216" lon="0.13006">
        <ele>422.4</ele>
        <time>2024-04-17T12:00:46Z</time>
      </trkpt>
      <trkpt lat="43.216" lon="0.13006">
        <ele>422.4</ele>
        <time>2024-04-17T12:00:47Z</time>
      </trkpt>
      <trkpt lat="43.216" lon="0.13006">
        <ele>422.4</ele>
        <time>2024-04-17T12:00:48Z</time>
      </trkpt>
      <trkpt lat="43.216" lon="0.13006">
        <ele>422.4</ele>
        <time>2024-04-17T12:00:49Z</time>
      </trkpt>
      <trkpt lat="43.216" lon="0.13006">
        <ele>422.4</ele>
        <time>2024-04-17T12:00:50Z</time>
      </trkpt>
      <trkpt lat="43.216" lon="0.13006">
        <ele>422.4</ele>
        <time>2024-04-17T12:00:51Z</time>
      </trkpt>
      <trkpt lat="43.216" lon="0.13006">
        <ele>422.4</ele>
        <time>2024-04-17T12:00:52Z</time>
      </trkpt>
      <trkpt lat="43.216" lon="0.13006">
        <ele>422.4</ele>
        <time>2024-04-17T12:00:53Z</time>
      </trkpt>
      <trkpt lat="43.216" lon="0.13006">
        <ele>422.4</ele>
        <time>2024-04-17T12:00:54Z</time>
      </trkpt>
      <trkpt lat="43.216" lon="0.13006">
        <ele>422.4</ele>
        <time>2024-04-17T12:00:55Z</time>
      </trkpt>
      <trkpt lat="43.216" lon="0.13006">
        <ele>422.4</ele>
        <time>2024-04-17T12:00:56Z</time>
      </trkpt>
      <trkpt lat="43.216" lon="0.13006">
        <ele>422.4</ele>
        <time>2024-04-17T12:00:57Z</time>
      </trkpt>
      <trkpt lat="43.216" lon="0.13006">
        <ele>422.4</ele>
        <time>2024-04-17T12:00:58Z</time>
      </trkpt>
      <trkpt lat="43.216" lon="0.13006">
        <ele>422.4</ele>
        <time>2024-04-17T12:00:59Z</time>
      </trkpt>
      <trkpt lat="43.216" lon="0.13008">
        <ele>422.4</ele>
        <time>2024-04-17T12:01:00Z</time>
      </trkpt>
      <trkpt lat="43.216" lon="0.13008">
        <ele>422.2</ele>
        <time>2024-04-17T12:01:01Z</time>
      </trkpt>
      <trkpt lat="43.216" lon="0.13008">
        <ele>422.2</ele>
        <time>2024-04-17T12:01:02Z</time>
      </trkpt>
      <trkpt lat="43.216" lon="0.13008">
        <ele>422.2</ele>
        <time>2024-04-17T12:01:03Z</time>
      </trkpt>
      <trkpt lat="43.216" lon="0.13008">
        <ele>422.2</ele>
        <time>2024-04-17T12:01:04Z</time>
      </trkpt>
      <trkpt lat="43.216" lon="0.13008">
        <ele>422.2</ele>
        <time>2024-04-17T12:01:05Z</time>
      </trkpt>
      <trkpt lat="43.216" lon="0.13008">
        <ele>422.2</ele>
        <time>2024-04-17T12:01:06Z</time>
      </trkpt>
      <trkpt lat="43.216" lon="0.13008">
        <ele>422.2</ele>
        <time>2024-04-17T12:01:07Z</time>
      </trkpt>
      <trkpt lat="43.216" lon="0.13008">
        <ele>422.2</ele>
        <time>2024-04-17T12:01:08Z</time>
      </trkpt>
      <trkpt lat="43.216" lon="0.13008">
        <ele>422.2</ele>
        <time>2024-04-17T12:01:09Z</time>
      </trkpt>
      <trkpt lat="43.216" lon="0.13008">
        <ele>422.2</ele>
        <time>2024-04-17T12:01:10Z</time>
      </trkpt>
      <trkpt lat="43.216" lon="0.13008">
        <ele>422.2</ele>
        <time>2024-04-17T12:01:11Z</time>
      </trkpt>
      <trkpt lat="43.216" lon="0.13008">
        <ele>422.2</ele>
        <time>2024-04-17T12:01:12Z</time>
      </trkpt>
      <trkpt lat="43.216" lon="0.13008">
        <ele>422.2</ele>
        <time>2024-04-17T12:01:13Z</time>
      </trkpt>
      <trkpt lat="43.21601" lon="0.1301">
        <ele>422.2</ele>
        <time>2024-04-17T12:01:14Z</time>
      </trkpt>
      <trkpt lat="43.21601" lon="0.1301">
        <ele>422.2</ele>
        <time>2024-04-17T12:01:15Z</time>
      </trkpt>
      <trkpt lat="43.21601" lon="0.1301">
        <ele>422.2</ele>
        <time>2024-04-17T12:01:16Z</time>
      </trkpt>
      <trkpt lat="43.21601" lon="0.1301">
        <ele>422.4</ele>
        <time>2024-04-17T12:01:17Z</time>
      </trkpt>
      <trkpt lat="43.21601" lon="0.1301">
        <ele>422.4</ele>
        <time>2024-04-17T12:01:18Z</time>
      </trkpt>
      <trkpt lat="43.21601" lon="0.1301">
        <ele>422.4</ele>
        <time>2024-04-17T12:01:19Z</time>
      </trkpt>
      <trkpt lat="43.21601" lon="0.13011">
        <ele>422.4</ele>
        <time>2024-04-17T12:01:20Z</time>
      </trkpt>
      <trkpt lat="43.216" lon="0.13013">
        <ele>422.6</ele>
        <time>2024-04-17T12:01:21Z</time>
      </trkpt>
      <trkpt lat="43.216" lon="0.13014">
        <ele>422.6</ele>
        <time>2024-04-17T12:01:22Z</time>
      </trkpt>
      <trkpt lat="43.21599" lon="0.13017">
        <ele>422.6</ele>
        <time>2024-04-17T12:01:23Z</time>
      </trkpt>
      <trkpt lat="43.21599" lon="0.1302">
        <ele>422.6</ele>
        <time>2024-04-17T12:01:24Z</time>
      </trkpt>
      <trkpt lat="43.21598" lon="0.13023">
        <ele>422.6</ele>
        <time>2024-04-17T12:01:25Z</time>
      </trkpt>
      <trkpt lat="43.21598" lon="0.13026">
        <ele>422.8</ele>
        <time>2024-04-17T12:01:26Z</time>
      </trkpt>
      <trkpt lat="43.21598" lon="0.13028">
        <ele>422.8</ele>
        <time>2024-04-17T12:01:27Z</time>
      </trkpt>
      <trkpt lat="43.21599" lon="0.13031">
        <ele>423</ele>
        <time>2024-04-17T12:01:28Z</time>
      </trkpt>
      <trkpt lat="43.21599" lon="0.13034">
        <ele>423</ele>
        <time>2024-04-17T12:01:29Z</time>
      </trkpt>
      <trkpt lat="43.216" lon="0.13035">
        <ele>423.2</ele>
        <time>2024-04-17T12:01:30Z</time>
      </trkpt>
      <trkpt lat="43.216" lon="0.13037">
        <ele>423.2</ele>
        <time>2024-04-17T12:01:31Z</time>
      </trkpt>
      <trkpt lat="43.216" lon="0.13039">
        <ele>423.4</ele>
        <time>2024-04-17T12:01:32Z</time>
      </trkpt>
      <trkpt lat="43.216" lon="0.13041">
        <ele>423.4</ele>
        <time>2024-04-17T12:01:33Z</time>
      </trkpt>
      <trkpt lat="43.216" lon="0.13043">
        <ele>423.6</ele>
        <time>2024-04-17T12:01:34Z</time>
      </trkpt>
      <trkpt lat="43.216" lon="0.13044">
        <ele>423.6</ele>
        <time>2024-04-17T12:01:35Z</time>
      </trkpt>
      <trkpt lat="43.216" lon="0.13046">
        <ele>423.8</ele>
        <time>2024-04-17T12:01:36Z</time>
      </trkpt>
      <trkpt lat="43.216" lon="0.13048">
        <ele>424</ele>
        <time>2024-04-17T12:01:37Z</time>
      </trkpt>
      <trkpt lat="43.216" lon="0.1305">
        <ele>424.2</ele>
        <time>2024-04-17T12:01:38Z</time>
      </trkpt>
      <trkpt lat="43.216" lon="0.13052">
        <ele>424.2</ele>
        <time>2024-04-17T12:01:39Z</time>
      </trkpt>
      <trkpt lat="43.216" lon="0.13055">
        <ele>424.6</ele>
        <time>2024-04-17T12:01:40Z</time>
      </trkpt>
      <trkpt lat="43.216" lon="0.13058">
        <ele>424.6</ele>
        <time>2024-04-17T12:01:41Z</time>
      </trkpt>
      <trkpt lat="43.21599" lon="0.1306">
        <ele>424.8</ele>
        <time>2024-04-17T12:01:42Z</time>
      </trkpt>
      <trkpt lat="43.21599" lon="0.13063">
        <ele>424.8</ele>
        <time>2024-04-17T12:01:43Z</time>
      </trkpt>
      <trkpt lat="43.21598" lon="0.13067">
        <ele>425.2</ele>
        <time>2024-04-17T12:01:44Z</time>
      </trkpt>
      <trkpt lat="43.21599" lon="0.13069">
        <ele>425.4</ele>
        <time>2024-04-17T12:01:45Z</time>
      </trkpt>
      <trkpt lat="43.216" lon="0.13071">
        <ele>425.4</ele>
        <time>2024-04-17T12:01:46Z</time>
      </trkpt>
      <trkpt lat="43.21599" lon="0.13072">
        <ele>425.4</ele>
        <time>2024-04-17T12:01:47Z</time>
      </trkpt>
      <trkpt lat="43.21598" lon="0.13072">
        <ele>425.4</ele>
        <time>2024-04-17T12:01:48Z</time>
      </trkpt>
      <trkpt lat="43.21599" lon="0.13073">
        <ele>425.6</ele>
        <time>2024-04-17T12:01:49Z</time>
      </trkpt>
      <trkpt lat="43.216" lon="0.13076">
        <ele>425.6</ele>
        <time>2024-04-17T12:01:50Z</time>
      </trkpt>
      <trkpt lat="43.21601" lon="0.13078">
        <ele>425.6</ele>
        <time>2024-04-17T12:01:51Z</time>
      </trkpt>
      <trkpt lat="43.21602" lon="0.13081">
        <ele>425.6</ele>
        <time>2024-04-17T12:01:52Z</time>
      </trkpt>
      <trkpt lat="43.21601" lon="0.13084">
        <ele>425.6</ele>
        <time>2024-04-17T12:01:53Z</time>
      </trkpt>
      <trkpt lat="43.21601" lon="0.13086">
        <ele>425.6</ele>
        <time>2024-04-17T12:01:54Z</time>
      </trkpt>
      <trkpt lat="43.21601" lon="0.13089">
        <ele>425.6</ele>
        <time>2024-04-17T12:01:55Z</time>
      </trkpt>
      <trkpt lat="43.21603" lon="0.13093">
        <ele>425.6</ele>
        <time>2024-04-17T12:01:56Z</time>
      </trkpt>
      <trkpt lat="43.21603" lon="0.13096">
        <ele>425.6</ele>
        <time>2024-04-17T12:01:57Z</time>
      </trkpt>
      <trkpt lat="43.21605" lon="0.131">
        <ele>425.6</ele>
        <time>2024-04-17T12:01:58Z</time>
      </trkpt>
      <trkpt lat="43.21605" lon="0.13104">
        <ele>425.6</ele>
        <time>2024-04-17T12:01:59Z</time>
      </trkpt>
      <trkpt lat="43.21604" lon="0.13109">
        <ele>425.8</ele>
        <time>2024-04-17T12:02:00Z</time>
      </trkpt>
      <trkpt lat="43.21604" lon="0.13112">
        <ele>426</ele>
        <time>2024-04-17T12:02:01Z</time>
      </trkpt>
      <trkpt lat="43.21603" lon="0.13113">
        <ele>426</ele>
        <time>2024-04-17T12:02:02Z</time>
      </trkpt>
      <trkpt lat="43.21602" lon="0.13115">
        <ele>426</ele>
        <time>2024-04-17T12:02:03Z</time>
      </trkpt>
      <trkpt lat="43.21602" lon="0.13115">
        <ele>426</ele>
        <time>2024-04-17T12:02:04Z</time>
      </trkpt>
      <trkpt lat="43.21602" lon="0.13115">
        <ele>426.2</ele>
        <time>2024-04-17T12:02:05Z</time>
      </trkpt>
      <trkpt lat="43.21602" lon="0.13115">
        <ele>426.2</ele>
        <time>2024-04-17T12:02:06Z</time>
      </trkpt>
      <trkpt lat="43.21603" lon="0.13114">
        <ele>426.2</ele>
        <time>2024-04-17T12:02:07Z</time>
      </trkpt>
      <trkpt lat="43.21604" lon="0.13113">
        <ele>426.2</ele>
        <time>2024-04-17T12:02:08Z</time>
      </trkpt>
      <trkpt lat="43.21604" lon="0.13112">
        <ele>426.4</ele>
        <time>2024-04-17T12:02:09Z</time>
      </trkpt>
      <trkpt lat="43.21604" lon="0.13111">
        <ele>426.4</ele>
        <time>2024-04-17T12:02:10Z</time>
      </trkpt>
      <trkpt lat="43.21605" lon="0.13109">
        <ele>426.4</ele>
        <time>2024-04-17T12:02:11Z</time>
      </trkpt>
      <trkpt lat="43.21606" lon="0.13106">
        <ele>426.6</ele>
        <time>2024-04-17T12:02:12Z</time>
      </trkpt>
      <trkpt lat="43.21607" lon="0.13104">
        <ele>426.6</ele>
        <time>2024-04-17T12:02:13Z</time>
      </trkpt>
      <trkpt lat="43.21608" lon="0.13101">
        <ele>426.6</ele>
        <time>2024-04-17T12:02:14Z</time>
      </trkpt>
      <trkpt lat="43.21609" lon="0.13097">
        <ele>426.6</ele>
        <time>2024-04-17T12:02:15Z</time>
      </trkpt>
      <trkpt lat="43.2161" lon="0.13094">
        <ele>426.6</ele>
        <time>2024-04-17T12:02:16Z</time>
      </trkpt>
      <trkpt lat="43.21609" lon="0.13092">
        <ele>426.4</ele>
        <time>2024-04-17T12:02:17Z</time>
      </trkpt>
      <trkpt lat="43.21609" lon="0.13091">
        <ele>426.4</ele>
        <time>2024-04-17T12:02:18Z</time>
      </trkpt>
      <trkpt lat="43.21609" lon="0.1309">
        <ele>426.4</ele>
        <time>2024-04-17T12:02:19Z</time>
      </trkpt>
      <trkpt lat="43.2161" lon="0.13087">
        <ele>426.2</ele>
        <time>2024-04-17T12:02:20Z</time>
      </trkpt>
      <trkpt lat="43.21611" lon="0.13085">
        <ele>426</ele>
        <time>2024-04-17T12:02:21Z</time>
      </trkpt>
      <trkpt lat="43.21612" lon="0.13083">
        <ele>426</ele>
        <time>2024-04-17T12:02:22Z</time>
      </trkpt>
      <trkpt lat="43.21612" lon="0.13081">
        <ele>426</ele>
        <time>2024-04-17T12:02:23Z</time>
      </trkpt>
      <trkpt lat="43.21612" lon="0.13079">
        <ele>426</ele>
        <time>2024-04-17T12:02:24Z</time>
      </trkpt>
      <trkpt lat="43.21612" lon="0.13076">
        <ele>425.8</ele>
        <time>2024-04-17T12:02:25Z</time>
      </trkpt>
      <trkpt lat="43.21612" lon="0.13074">
        <ele>425.8</ele>
        <time>2024-04-17T12:02:26Z</time>
      </trkpt>
      <trkpt lat="43.21613" lon="0.13072">
        <ele>425.8</ele>
        <time>2024-04-17T12:02:27Z</time>
      </trkpt>
      <trkpt lat="43.21613" lon="0.1307">
        <ele>425.8</ele>
        <time>2024-04-17T12:02:28Z</time>
      </trkpt>
      <trkpt lat="43.21614" lon="0.13069">
        <ele>425.8</ele>
        <time>2024-04-17T12:02:29Z</time>
      </trkpt>
      <trkpt lat="43.21614" lon="0.13068">
        <ele>425.8</ele>
        <time>2024-04-17T12:02:30Z</time>
      </trkpt>
      <trkpt lat="43.21615" lon="0.13066">
        <ele>425.8</ele>
        <time>2024-04-17T12:02:31Z</time>
      </trkpt>
      <trkpt lat="43.21615" lon="0.13065">
        <ele>425.8</ele>
        <time>2024-04-17T12:02:32Z</time>
      </trkpt>
      <trkpt lat="43.21615" lon="0.13065">
        <ele>425.8</ele>
        <time>2024-04-17T12:02:33Z</time>
      </trkpt>
      <trkpt lat="43.21615" lon="0.13064">
        <ele>425.8</ele>
        <time>2024-04-17T12:02:34Z</time>
      </trkpt>
      <trkpt lat="43.21615" lon="0.13063">
        <ele>425.8</ele>
        <time>2024-04-17T12:02:35Z</time>
      </trkpt>
      <trkpt lat="43.21615" lon="0.13062">
        <ele>425.8</ele>
        <time>2024-04-17T12:02:36Z</time>
      </trkpt>
      <trkpt lat="43.21616" lon="0.13062">
        <ele>425.8</ele>
        <time>2024-04-17T12:02:37Z</time>
      </trkpt>
      <trkpt lat="43.21616" lon="0.13062">
        <ele>425.8</ele>
        <time>2024-04-17T12:02:38Z</time>
      </trkpt>
      <trkpt lat="43.21616" lon="0.13062">
        <ele>425.8</ele>
        <time>2024-04-17T12:02:39Z</time>
      </trkpt>
      <trkpt lat="43.21616" lon="0.13061">
        <ele>425.8</ele>
        <time>2024-04-17T12:02:40Z</time>
      </trkpt>
      <trkpt lat="43.21617" lon="0.1306">
        <ele>425.8</ele>
        <time>2024-04-17T12:02:41Z</time>
      </trkpt>
      <trkpt lat="43.21617" lon="0.13059">
        <ele>425.8</ele>
        <time>2024-04-17T12:02:42Z</time>
      </trkpt>
      <trkpt lat="43.21618" lon="0.13058">
        <ele>425.8</ele>
        <time>2024-04-17T12:02:43Z</time>
      </trkpt>
      <trkpt lat="43.21618" lon="0.13056">
        <ele>425.8</ele>
        <time>2024-04-17T12:02:44Z</time>
      </trkpt>
      <trkpt lat="43.21619" lon="0.13056">
        <ele>425.8</ele>
        <time>2024-04-17T12:02:45Z</time>
      </trkpt>
      <trkpt lat="43.2162" lon="0.1305">
        <ele>425.8</ele>
        <time>2024-04-17T12:02:46Z</time>
      </trkpt>
      <trkpt lat="43.2162" lon="0.1305">
        <ele>425.8</ele>
        <time>2024-04-17T12:02:47Z</time>
      </trkpt>
      <trkpt lat="43.21621" lon="0.13048">
        <ele>425.8</ele>
        <time>2024-04-17T12:02:48Z</time>
      </trkpt>
      <trkpt lat="43.21622" lon="0.13046">
        <ele>425.8</ele>
        <time>2024-04-17T12:02:49Z</time>
      </trkpt>
      <trkpt lat="43.21622" lon="0.13046">
        <ele>425.8</ele>
        <time>2024-04-17T12:02:50Z</time>
      </trkpt>
      <trkpt lat="43.21622" lon="0.13044">
        <ele>425.8</ele>
        <time>2024-04-17T12:02:51Z</time>
      </trkpt>
      <trkpt lat="43.21623" lon="0.13043">
        <ele>425.8</ele>
        <time>2024-04-17T12:02:52Z</time>
      </trkpt>
      <trkpt lat="43.21622" lon="0.13042">
        <ele>425.8</ele>
        <time>2024-04-17T12:02:53Z</time>
      </trkpt>
      <trkpt lat="43.21622" lon="0.13042">
        <ele>425.8</ele>
        <time>2024-04-17T12:02:54Z</time>
      </trkpt>
      <trkpt lat="43.21623" lon="0.13041">
        <ele>425.6</ele>
        <time>2024-04-17T12:02:55Z</time>
      </trkpt>
      <trkpt lat="43.21624" lon="0.1304">
        <ele>425.6</ele>
        <time>2024-04-17T12:02:56Z</time>
      </trkpt>
      <trkpt lat="43.21625" lon="0.1304">
        <ele>425.6</ele>
        <time>2024-04-17T12:02:57Z</time>
      </trkpt>
      <trkpt lat="43.21626" lon="0.13039">
        <ele>425.4</ele>
        <time>2024-04-17T12:02:58Z</time>
      </trkpt>
      <trkpt lat="43.21628" lon="0.13037">
        <ele>425.4</ele>
        <time>2024-04-17T12:02:59Z</time>
      </trkpt>
      <trkpt lat="43.21629" lon="0.13035">
        <ele>425.2</ele>
        <time>2024-04-17T12:03:00Z</time>
      </trkpt>
      <trkpt lat="43.21631" lon="0.13035">
        <ele>425</ele>
        <time>2024-04-17T12:03:01Z</time>
      </trkpt>
      <trkpt lat="43.21633" lon="0.13034">
        <ele>425</ele>
        <time>2024-04-17T12:03:02Z</time>
      </trkpt>
      <trkpt lat="43.21634" lon="0.13033">
        <ele>425</ele>
        <time>2024-04-17T12:03:03Z</time>
      </trkpt>
      <trkpt lat="43.21635" lon="0.13033">
        <ele>425</ele>
        <time>2024-04-17T12:03:04Z</time>
      </trkpt>
      <trkpt lat="43.21636" lon="0.13033">
        <ele>425</ele>
        <time>2024-04-17T12:03:05Z</time>
      </trkpt>
      <trkpt lat="43.21638" lon="0.13033">
        <ele>425</ele>
        <time>2024-04-17T12:03:06Z</time>
      </trkpt>
      <trkpt lat="43.21639" lon="0.13032">
        <ele>425</ele>
        <time>2024-04-17T12:03:07Z</time>
      </trkpt>
      <trkpt lat="43.2164" lon="0.13031">
        <ele>425</ele>
        <time>2024-04-17T12:03:08Z</time>
      </trkpt>
      <trkpt lat="43.21642" lon="0.13028">
        <ele>425</ele>
        <time>2024-04-17T12:03:09Z</time>
      </trkpt>
      <trkpt lat="43.21644" lon="0.13026">
        <ele>425</ele>
        <time>2024-04-17T12:03:10Z</time>
      </trkpt>
      <trkpt lat="43.21645" lon="0.13024">
        <ele>424.8</ele>
        <time>2024-04-17T12:03:11Z</time>
      </trkpt>
      <trkpt lat="43.21646" lon="0.13023">
        <ele>424.8</ele>
        <time>2024-04-17T12:03:12Z</time>
      </trkpt>
      <trkpt lat="43.21647" lon="0.13021">
        <ele>424.8</ele>
        <time>2024-04-17T12:03:13Z</time>
      </trkpt>
      <trkpt lat="43.21648" lon="0.13016">
        <ele>424.8</ele>
        <time>2024-04-17T12:03:14Z</time>
      </trkpt>
      <trkpt lat="43.21649" lon="0.13011">
        <ele>424.8</ele>
        <time>2024-04-17T12:03:15Z</time>
      </trkpt>
      <trkpt lat="43.21649" lon="0.13004">
        <ele>424.6</ele>
        <time>2024-04-17T12:03:16Z</time>
      </trkpt>
      <trkpt lat="43.2165" lon="0.12999">
        <ele>424.4</ele>
        <time>2024-04-17T12:03:17Z</time>
      </trkpt>
      <trkpt lat="43.21652" lon="0.12994">
        <ele>424.2</ele>
        <time>2024-04-17T12:03:18Z</time>
      </trkpt>
      <trkpt lat="43.21653" lon="0.12988">
        <ele>424</ele>
        <time>2024-04-17T12:03:19Z</time>
      </trkpt>
      <trkpt lat="43.21654" lon="0.12984">
        <ele>423.8</ele>
        <time>2024-04-17T12:03:20Z</time>
      </trkpt>
      <trkpt lat="43.21655" lon="0.12978">
        <ele>423.8</ele>
        <time>2024-04-17T12:03:21Z</time>
      </trkpt>
      <trkpt lat="43.21656" lon="0.12972">
        <ele>423.6</ele>
        <time>2024-04-17T12:03:22Z</time>
      </trkpt>
      <trkpt lat="43.21656" lon="0.12966">
        <ele>423</ele>
        <time>2024-04-17T12:03:23Z</time>
      </trkpt>
      <trkpt lat="43.21657" lon="0.12959">
        <ele>422.8</ele>
        <time>2024-04-17T12:03:24Z</time>
      </trkpt>
      <trkpt lat="43.21659" lon="0.12953">
        <ele>422.6</ele>
        <time>2024-04-17T12:03:25Z</time>
      </trkpt>
      <trkpt lat="43.2166" lon="0.12948">
        <ele>422.4</ele>
        <time>2024-04-17T12:03:26Z</time>
      </trkpt>
      <trkpt lat="43.21661" lon="0.12942">
        <ele>422</ele>
        <time>2024-04-17T12:03:27Z</time>
      </trkpt>
      <trkpt lat="43.21661" lon="0.12938">
        <ele>421.8</ele>
        <time>2024-04-17T12:03:28Z</time>
      </trkpt>
      <trkpt lat="43.21661" lon="0.12935">
        <ele>421.6</ele>
        <time>2024-04-17T12:03:29Z</time>
      </trkpt>
      <trkpt lat="43.2166" lon="0.1293">
        <ele>421.4</ele>
        <time>2024-04-17T12:03:30Z</time>
      </trkpt>
      <trkpt lat="43.2166" lon="0.12926">
        <ele>420.6</ele>
        <time>2024-04-17T12:03:31Z</time>
      </trkpt>
      <trkpt lat="43.2166" lon="0.12923">
        <ele>419.6</ele>
        <time>2024-04-17T12:03:32Z</time>
      </trkpt>
      <trkpt lat="43.21659" lon="0.12921">
        <ele>419.2</ele>
        <time>2024-04-17T12:03:33Z</time>
      </trkpt>
      <trkpt lat="43.21656" lon="0.1292">
        <ele>418.6</ele>
        <time>2024-04-17T12:03:34Z</time>
      </trkpt>
      <trkpt lat="43.21653" lon="0.1292">
        <ele>418.4</ele>
        <time>2024-04-17T12:03:35Z</time>
      </trkpt>
      <trkpt lat="43.2165" lon="0.1292">
        <ele>418.2</ele>
        <time>2024-04-17T12:03:36Z</time>
      </trkpt>
      <trkpt lat="43.21647" lon="0.12921">
        <ele>418.2</ele>
        <time>2024-04-17T12:03:37Z</time>
      </trkpt>
      <trkpt lat="43.21644" lon="0.12922">
        <ele>418</ele>
        <time>2024-04-17T12:03:38Z</time>
      </trkpt>
      <trkpt lat="43.21641" lon="0.12923">
        <ele>417.8</ele>
        <time>2024-04-17T12:03:39Z</time>
      </trkpt>
      <trkpt lat="43.21637" lon="0.12924">
        <ele>417.8</ele>
        <time>2024-04-17T12:03:40Z</time>
      </trkpt>
      <trkpt lat="43.21634" lon="0.12925">
        <ele>417.6</ele>
        <time>2024-04-17T12:03:41Z</time>
      </trkpt>
      <trkpt lat="43.21631" lon="0.12926">
        <ele>417.6</ele>
        <time>2024-04-17T12:03:42Z</time>
      </trkpt>
      <trkpt lat="43.21628" lon="0.12928">
        <ele>417.4</ele>
        <time>2024-04-17T12:03:43Z</time>
      </trkpt>
      <trkpt lat="43.21625" lon="0.12929">
        <ele>417.4</ele>
        <time>2024-04-17T12:03:44Z</time>
      </trkpt>
      <trkpt lat="43.21622" lon="0.12929">
        <ele>417.4</ele>
        <time>2024-04-17T12:03:45Z</time>
      </trkpt>
      <trkpt lat="43.21619" lon="0.1293">
        <ele>417.4</ele>
        <time>2024-04-17T12:03:46Z</time>
      </trkpt>
      <trkpt lat="43.21617" lon="0.1293">
        <ele>417.4</ele>
        <time>2024-04-17T12:03:47Z</time>
      </trkpt>
      <trkpt lat="43.21615" lon="0.1293">
        <ele>417.4</ele>
        <time>2024-04-17T12:03:48Z</time>
      </trkpt>
      <trkpt lat="43.21612" lon="0.12931">
        <ele>417.4</ele>
        <time>2024-04-17T12:03:49Z</time>
      </trkpt>
      <trkpt lat="43.21609" lon="0.12931">
        <ele>417.6</ele>
        <time>2024-04-17T12:03:50Z</time>
      </trkpt>
      <trkpt lat="43.21606" lon="0.12932">
        <ele>417.6</ele>
        <time>2024-04-17T12:03:51Z</time>
      </trkpt>
      <trkpt lat="43.21604" lon="0.12933">
        <ele>417.6</ele>
        <time>2024-04-17T12:03:52Z</time>
      </trkpt>
      <trkpt lat="43.21601" lon="0.12933">
        <ele>417.6</ele>
        <time>2024-04-17T12:03:53Z</time>
      </trkpt>
      <trkpt lat="43.21599" lon="0.12933">
        <ele>417.6</ele>
        <time>2024-04-17T12:03:54Z</time>
      </trkpt>
      <trkpt lat="43.21596" lon="0.12934">
        <ele>417.6</ele>
        <time>2024-04-17T12:03:55Z</time>
      </trkpt>
      <trkpt lat="43.21594" lon="0.12934">
        <ele>417.6</ele>
        <time>2024-04-17T12:03:56Z</time>
      </trkpt>
      <trkpt lat="43.21592" lon="0.12933">
        <ele>417.8</ele>
        <time>2024-04-17T12:03:57Z</time>
      </trkpt>
      <trkpt lat="43.2159" lon="0.12932">
        <ele>417.8</ele>
        <time>2024-04-17T12:03:58Z</time>
      </trkpt>
      <trkpt lat="43.21589" lon="0.1293">
        <ele>417.8</ele>
        <time>2024-04-17T12:03:59Z</time>
      </trkpt>
      <trkpt lat="43.21587" lon="0.12927">
        <ele>417.8</ele>
        <time>2024-04-17T12:04:00Z</time>
      </trkpt>
      <trkpt lat="43.21586" lon="0.12925">
        <ele>417.8</ele>
        <time>2024-04-17T12:04:01Z</time>
      </trkpt>
      <trkpt lat="43.21586" lon="0.12921">
        <ele>417.4</ele>
        <time>2024-04-17T12:04:02Z</time>
      </trkpt>
      <trkpt lat="43.21585" lon="0.12917">
        <ele>417.4</ele>
        <time>2024-04-17T12:04:03Z</time>
      </trkpt>
      <trkpt lat="43.21585" lon="0.12913">
        <ele>417.2</ele>
        <time>2024-04-17T12:04:04Z</time>
      </trkpt>
      <trkpt lat="43.21585" lon="0.12909">
        <ele>417.2</ele>
        <time>2024-04-17T12:04:05Z</time>
      </trkpt>
      <trkpt lat="43.21584" lon="0.12905">
        <ele>417</ele>
        <time>2024-04-17T12:04:06Z</time>
      </trkpt>
      <trkpt lat="43.21584" lon="0.12901">
        <ele>416.8</ele>
        <time>2024-04-17T12:04:07Z</time>
      </trkpt>
      <trkpt lat="43.21584" lon="0.12896">
        <ele>416.8</ele>
        <time>2024-04-17T12:04:08Z</time>
      </trkpt>
      <trkpt lat="43.21584" lon="0.12892">
        <ele>416.6</ele>
        <time>2024-04-17T12:04:09Z</time>
      </trkpt>
      <trkpt lat="43.21584" lon="0.12888">
        <ele>416.2</ele>
        <time>2024-04-17T12:04:10Z</time>
      </trkpt>
      <trkpt lat="43.21584" lon="0.12884">
        <ele>416.2</ele>
        <time>2024-04-17T12:04:11Z</time>
      </trkpt>
      <trkpt lat="43.21585" lon="0.1288">
        <ele>415.6</ele>
        <time>2024-04-17T12:04:12Z</time>
      </trkpt>
      <trkpt lat="43.21585" lon="0.12875">
        <ele>415.4</ele>
        <time>2024-04-17T12:04:13Z</time>
      </trkpt>
      <trkpt lat="43.21586" lon="0.12871">
        <ele>415.4</ele>
        <time>2024-04-17T12:04:14Z</time>
      </trkpt>
      <trkpt lat="43.21586" lon="0.12867">
        <ele>415.2</ele>
        <time>2024-04-17T12:04:15Z</time>
      </trkpt>
      <trkpt lat="43.21586" lon="0.12863">
        <ele>415.2</ele>
        <time>2024-04-17T12:04:16Z</time>
      </trkpt>
      <trkpt lat="43.21586" lon="0.12859">
        <ele>415</ele>
        <time>2024-04-17T12:04:17Z</time>
      </trkpt>
      <trkpt lat="43.21586" lon="0.12855">
        <ele>415</ele>
        <time>2024-04-17T12:04:18Z</time>
      </trkpt>
      <trkpt lat="43.21586" lon="0.12851">
        <ele>414.8</ele>
        <time>2024-04-17T12:04:19Z</time>
      </trkpt>
      <trkpt lat="43.21587" lon="0.12846">
        <ele>414.4</ele>
        <time>2024-04-17T12:04:20Z</time>
      </trkpt>
      <trkpt lat="43.21588" lon="0.12842">
        <ele>414.4</ele>
        <time>2024-04-17T12:04:21Z</time>
      </trkpt>
      <trkpt lat="43.21588" lon="0.12837">
        <ele>414.4</ele>
        <time>2024-04-17T12:04:22Z</time>
      </trkpt>
      <trkpt lat="43.21589" lon="0.12832">
        <ele>414.4</ele>
        <time>2024-04-17T12:04:23Z</time>
      </trkpt>
      <trkpt lat="43.2159" lon="0.12826">
        <ele>414.4</ele>
        <time>2024-04-17T12:04:24Z</time>
      </trkpt>
      <trkpt lat="43.21591" lon="0.12821">
        <ele>414.4</ele>
        <time>2024-04-17T12:04:25Z</time>
      </trkpt>
      <trkpt lat="43.21592" lon="0.12816">
        <ele>414.4</ele>
        <time>2024-04-17T12:04:26Z</time>
      </trkpt>
      <trkpt lat="43.21593" lon="0.12811">
        <ele>414.4</ele>
        <time>2024-04-17T12:04:27Z</time>
      </trkpt>
      <trkpt lat="43.21594" lon="0.12807">
        <ele>414.4</ele>
        <time>2024-04-17T12:04:28Z</time>
      </trkpt>
      <trkpt lat="43.21594" lon="0.12803">
        <ele>414.4</ele>
        <time>2024-04-17T12:04:29Z</time>
      </trkpt>
      <trkpt lat="43.21595" lon="0.12798">
        <ele>414.4</ele>
        <time>2024-04-17T12:04:30Z</time>
      </trkpt>
      <trkpt lat="43.21595" lon="0.12794">
        <ele>414.4</ele>
        <time>2024-04-17T12:04:31Z</time>
      </trkpt>
      <trkpt lat="43.21596" lon="0.1279">
        <ele>414.4</ele>
        <time>2024-04-17T12:04:32Z</time>
      </trkpt>
      <trkpt lat="43.21596" lon="0.12785">
        <ele>414.4</ele>
        <time>2024-04-17T12:04:33Z</time>
      </trkpt>
      <trkpt lat="43.21597" lon="0.12781">
        <ele>414.2</ele>
        <time>2024-04-17T12:04:34Z</time>
      </trkpt>
      <trkpt lat="43.21597" lon="0.12776">
        <ele>414.2</ele>
        <time>2024-04-17T12:04:35Z</time>
      </trkpt>
      <trkpt lat="43.21598" lon="0.12771">
        <ele>414.2</ele>
        <time>2024-04-17T12:04:36Z</time>
      </trkpt>
      <trkpt lat="43.21598" lon="0.12767">
        <ele>414.2</ele>
        <time>2024-04-17T12:04:37Z</time>
      </trkpt>
      <trkpt lat="43.21599" lon="0.12763">
        <ele>414.2</ele>
        <time>2024-04-17T12:04:38Z</time>
      </trkpt>
      <trkpt lat="43.216" lon="0.12758">
        <ele>414.2</ele>
        <time>2024-04-17T12:04:39Z</time>
      </trkpt>
      <trkpt lat="43.21601" lon="0.12754">
        <ele>414.2</ele>
        <time>2024-04-17T12:04:40Z</time>
      </trkpt>
      <trkpt lat="43.21602" lon="0.1275">
        <ele>414</ele>
        <time>2024-04-17T12:04:41Z</time>
      </trkpt>
      <trkpt lat="43.21603" lon="0.12745">
        <ele>414</ele>
        <time>2024-04-17T12:04:42Z</time>
      </trkpt>
      <trkpt lat="43.21605" lon="0.12741">
        <ele>414</ele>
        <time>2024-04-17T12:04:43Z</time>
      </trkpt>
      <trkpt lat="43.21606" lon="0.12737">
        <ele>413.8</ele>
        <time>2024-04-17T12:04:44Z</time>
      </trkpt>
      <trkpt lat="43.21608" lon="0.12734">
        <ele>413.8</ele>
        <time>2024-04-17T12:04:45Z</time>
      </trkpt>
      <trkpt lat="43.21609" lon="0.1273">
        <ele>413.6</ele>
        <time>2024-04-17T12:04:46Z</time>
      </trkpt>
      <trkpt lat="43.2161" lon="0.12726">
        <ele>413.4</ele>
        <time>2024-04-17T12:04:47Z</time>
      </trkpt>
      <trkpt lat="43.21611" lon="0.12722">
        <ele>413.4</ele>
        <time>2024-04-17T12:04:48Z</time>
      </trkpt>
      <trkpt lat="43.21612" lon="0.12718">
        <ele>413.2</ele>
        <time>2024-04-17T12:04:49Z</time>
      </trkpt>
      <trkpt lat="43.21613" lon="0.12715">
        <ele>413.2</ele>
        <time>2024-04-17T12:04:50Z</time>
      </trkpt>
      <trkpt lat="43.21613" lon="0.12711">
        <ele>413</ele>
        <time>2024-04-17T12:04:51Z</time>
      </trkpt>
      <trkpt lat="43.21613" lon="0.12706">
        <ele>413</ele>
        <time>2024-04-17T12:04:52Z</time>
      </trkpt>
      <trkpt lat="43.21615" lon="0.12702">
        <ele>413</ele>
        <time>2024-04-17T12:04:53Z</time>
      </trkpt>
      <trkpt lat="43.21616" lon="0.12698">
        <ele>413</ele>
        <time>2024-04-17T12:04:54Z</time>
      </trkpt>
      <trkpt lat="43.21618" lon="0.12695">
        <ele>413</ele>
        <time>2024-04-17T12:04:55Z</time>
      </trkpt>
      <trkpt lat="43.21619" lon="0.1269">
        <ele>413</ele>
        <time>2024-04-17T12:04:56Z</time>
      </trkpt>
      <trkpt lat="43.2162" lon="0.12686">
        <ele>413</ele>
        <time>2024-04-17T12:04:57Z</time>
      </trkpt>
      <trkpt lat="43.21621" lon="0.12682">
        <ele>413</ele>
        <time>2024-04-17T12:04:58Z</time>
      </trkpt>
      <trkpt lat="43.21622" lon="0.12679">
        <ele>413</ele>
        <time>2024-04-17T12:04:59Z</time>
      </trkpt>
      <trkpt lat="43.21623" lon="0.12676">
        <ele>412.8</ele>
        <time>2024-04-17T12:05:00Z</time>
      </trkpt>
      <trkpt lat="43.21624" lon="0.12672">
        <ele>412.8</ele>
        <time>2024-04-17T12:05:01Z</time>
      </trkpt>
      <trkpt lat="43.21624" lon="0.1267">
        <ele>412.8</ele>
        <time>2024-04-17T12:05:02Z</time>
      </trkpt>
      <trkpt lat="43.21624" lon="0.12669">
        <ele>412.8</ele>
        <time>2024-04-17T12:05:03Z</time>
      </trkpt>
      <trkpt lat="43.21625" lon="0.12669">
        <ele>412.6</ele>
        <time>2024-04-17T12:05:04Z</time>
      </trkpt>
      <trkpt lat="43.21625" lon="0.12669">
        <ele>412.6</ele>
        <time>2024-04-17T12:05:05Z</time>
      </trkpt>
      <trkpt lat="43.21625" lon="0.12669">
        <ele>412.4</ele>
        <time>2024-04-17T12:05:06Z</time>
      </trkpt>
      <trkpt lat="43.21625" lon="0.12669">
        <ele>412.4</ele>
        <time>2024-04-17T12:05:07Z</time>
      </trkpt>
      <trkpt lat="43.21625" lon="0.12669">
        <ele>412.4</ele>
        <time>2024-04-17T12:05:08Z</time>
      </trkpt>
      <trkpt lat="43.21625" lon="0.12668">
        <ele>412.4</ele>
        <time>2024-04-17T12:05:09Z</time>
      </trkpt>
      <trkpt lat="43.21624" lon="0.12668">
        <ele>412.4</ele>
        <time>2024-04-17T12:05:10Z</time>
      </trkpt>
      <trkpt lat="43.21623" lon="0.12668">
        <ele>412.4</ele>
        <time>2024-04-17T12:05:11Z</time>
      </trkpt>
      <trkpt lat="43.21623" lon="0.12668">
        <ele>412.2</ele>
        <time>2024-04-17T12:05:12Z</time>
      </trkpt>
      <trkpt lat="43.21623" lon="0.12668">
        <ele>412.2</ele>
        <time>2024-04-17T12:05:13Z</time>
      </trkpt>
      <trkpt lat="43.21623" lon="0.12669">
        <ele>412.2</ele>
        <time>2024-04-17T12:05:14Z</time>
      </trkpt>
      <trkpt lat="43.21622" lon="0.1267">
        <ele>412.2</ele>
        <time>2024-04-17T12:05:15Z</time>
      </trkpt>
      <trkpt lat="43.2162" lon="0.12671">
        <ele>412.2</ele>
        <time>2024-04-17T12:05:16Z</time>
      </trkpt>
      <trkpt lat="43.2162" lon="0.12673">
        <ele>412.2</ele>
        <time>2024-04-17T12:05:17Z</time>
      </trkpt>
      <trkpt lat="43.21619" lon="0.12675">
        <ele>412.2</ele>
        <time>2024-04-17T12:05:18Z</time>
      </trkpt>
      <trkpt lat="43.21619" lon="0.12677">
        <ele>412.2</ele>
        <time>2024-04-17T12:05:19Z</time>
      </trkpt>
      <trkpt lat="43.21619" lon="0.12678">
        <ele>412.2</ele>
        <time>2024-04-17T12:05:20Z</time>
      </trkpt>
      <trkpt lat="43.21619" lon="0.12678">
        <ele>412.2</ele>
        <time>2024-04-17T12:05:21Z</time>
      </trkpt>
      <trkpt lat="43.21619" lon="0.12678">
        <ele>412.2</ele>
        <time>2024-04-17T12:05:22Z</time>
      </trkpt>
      <trkpt lat="43.21619" lon="0.12678">
        <ele>412.2</ele>
        <time>2024-04-17T12:05:23Z</time>
      </trkpt>
      <trkpt lat="43.21619" lon="0.12678">
        <ele>412.4</ele>
        <time>2024-04-17T12:05:24Z</time>
      </trkpt>
      <trkpt lat="43.21619" lon="0.12678">
        <ele>412.4</ele>
        <time>2024-04-17T12:05:25Z</time>
      </trkpt>
      <trkpt lat="43.21619" lon="0.12678">
        <ele>412.4</ele>
        <time>2024-04-17T12:05:26Z</time>
      </trkpt>
      <trkpt lat="43.21619" lon="0.12679">
        <ele>412.4</ele>
        <time>2024-04-17T12:05:27Z</time>
      </trkpt>
      <trkpt lat="43.2162" lon="0.12679">
        <ele>412.4</ele>
        <time>2024-04-17T12:05:28Z</time>
      </trkpt>
      <trkpt lat="43.21622" lon="0.12679">
        <ele>412.4</ele>
        <time>2024-04-17T12:05:29Z</time>
      </trkpt>
      <trkpt lat="43.21624" lon="0.12678">
        <ele>412.4</ele>
        <time>2024-04-17T12:05:30Z</time>
      </trkpt>
      <trkpt lat="43.21626" lon="0.12677">
        <ele>412.4</ele>
        <time>2024-04-17T12:05:31Z</time>
      </trkpt>
      <trkpt lat="43.21628" lon="0.12676">
        <ele>412.4</ele>
        <time>2024-04-17T12:05:32Z</time>
      </trkpt>
      <trkpt lat="43.2163" lon="0.12675">
        <ele>412.4</ele>
        <time>2024-04-17T12:05:33Z</time>
      </trkpt>
      <trkpt lat="43.21633" lon="0.12673">
        <ele>412.6</ele>
        <time>2024-04-17T12:05:34Z</time>
      </trkpt>
      <trkpt lat="43.21635" lon="0.12671">
        <ele>412.4</ele>
        <time>2024-04-17T12:05:35Z</time>
      </trkpt>
      <trkpt lat="43.21637" lon="0.12669">
        <ele>412.4</ele>
        <time>2024-04-17T12:05:36Z</time>
      </trkpt>
      <trkpt lat="43.2164" lon="0.12667">
        <ele>412.4</ele>
        <time>2024-04-17T12:05:37Z</time>
      </trkpt>
      <trkpt lat="43.21644" lon="0.12663">
        <ele>412.4</ele>
        <time>2024-04-17T12:05:38Z</time>
      </trkpt>
      <trkpt lat="43.21646" lon="0.1266">
        <ele>412.4</ele>
        <time>2024-04-17T12:05:39Z</time>
      </trkpt>
      <trkpt lat="43.21649" lon="0.12657">
        <ele>412.4</ele>
        <time>2024-04-17T12:05:40Z</time>
      </trkpt>
      <trkpt lat="43.21653" lon="0.12655">
        <ele>412.4</ele>
        <time>2024-04-17T12:05:41Z</time>
      </trkpt>
      <trkpt lat="43.21656" lon="0.12653">
        <ele>412.4</ele>
        <time>2024-04-17T12:05:42Z</time>
      </trkpt>
      <trkpt lat="43.2166" lon="0.12651">
        <ele>412.4</ele>
        <time>2024-04-17T12:05:43Z</time>
      </trkpt>
      <trkpt lat="43.21664" lon="0.12649">
        <ele>412.2</ele>
        <time>2024-04-17T12:05:44Z</time>
      </trkpt>
      <trkpt lat="43.21668" lon="0.12646">
        <ele>412.2</ele>
        <time>2024-04-17T12:05:45Z</time>
      </trkpt>
      <trkpt lat="43.21672" lon="0.12643">
        <ele>412.2</ele>
        <time>2024-04-17T12:05:46Z</time>
      </trkpt>
      <trkpt lat="43.21676" lon="0.1264">
        <ele>412</ele>
        <time>2024-04-17T12:05:47Z</time>
      </trkpt>
      <trkpt lat="43.2168" lon="0.12638">
        <ele>412</ele>
        <time>2024-04-17T12:05:48Z</time>
      </trkpt>
      <trkpt lat="43.21683" lon="0.12637">
        <ele>412</ele>
        <time>2024-04-17T12:05:49Z</time>
      </trkpt>
      <trkpt lat="43.21686" lon="0.12636">
        <ele>411.8</ele>
        <time>2024-04-17T12:05:50Z</time>
      </trkpt>
      <trkpt lat="43.21689" lon="0.12636">
        <ele>411.8</ele>
        <time>2024-04-17T12:05:51Z</time>
      </trkpt>
      <trkpt lat="43.21693" lon="0.12636">
        <ele>411.6</ele>
        <time>2024-04-17T12:05:52Z</time>
      </trkpt>
      <trkpt lat="43.21697" lon="0.12634">
        <ele>411.6</ele>
        <time>2024-04-17T12:05:53Z</time>
      </trkpt>
      <trkpt lat="43.21701" lon="0.12631">
        <ele>411.6</ele>
        <time>2024-04-17T12:05:54Z</time>
      </trkpt>
      <trkpt lat="43.21705" lon="0.12629">
        <ele>411.6</ele>
        <time>2024-04-17T12:05:55Z</time>
      </trkpt>
      <trkpt lat="43.21709" lon="0.12628">
        <ele>411.6</ele>
        <time>2024-04-17T12:05:56Z</time>
      </trkpt>
      <trkpt lat="43.21713" lon="0.12625">
        <ele>411.6</ele>
        <time>2024-04-17T12:05:57Z</time>
      </trkpt>
      <trkpt lat="43.21717" lon="0.12622">
        <ele>411.6</ele>
        <time>2024-04-17T12:05:58Z</time>
      </trkpt>
      <trkpt lat="43.21722" lon="0.12619">
        <ele>411.6</ele>
        <time>2024-04-17T12:05:59Z</time>
      </trkpt>
      <trkpt lat="43.21726" lon="0.12616">
        <ele>411.6</ele>
        <time>2024-04-17T12:06:00Z</time>
      </trkpt>
      <trkpt lat="43.2173" lon="0.12615">
        <ele>411.6</ele>
        <time>2024-04-17T12:06:01Z</time>
      </trkpt>
      <trkpt lat="43.21734" lon="0.12613">
        <ele>411.2</ele>
        <time>2024-04-17T12:06:02Z</time>
      </trkpt>
      <trkpt lat="43.21738" lon="0.12612">
        <ele>411.2</ele>
        <time>2024-04-17T12:06:03Z</time>
      </trkpt>
      <trkpt lat="43.21742" lon="0.12611">
        <ele>411.2</ele>
        <time>2024-04-17T12:06:04Z</time>
      </trkpt>
      <trkpt lat="43.21746" lon="0.12609">
        <ele>411.2</ele>
        <time>2024-04-17T12:06:05Z</time>
      </trkpt>
      <trkpt lat="43.2175" lon="0.12607">
        <ele>411.2</ele>
        <time>2024-04-17T12:06:06Z</time>
      </trkpt>
      <trkpt lat="43.21754" lon="0.12605">
        <ele>411.2</ele>
        <time>2024-04-17T12:06:07Z</time>
      </trkpt>
      <trkpt lat="43.21757" lon="0.12603">
        <ele>411.2</ele>
        <time>2024-04-17T12:06:08Z</time>
      </trkpt>
      <trkpt lat="43.2176" lon="0.12601">
        <ele>411</ele>
        <time>2024-04-17T12:06:09Z</time>
      </trkpt>
      <trkpt lat="43.21764" lon="0.126">
        <ele>411</ele>
        <time>2024-04-17T12:06:10Z</time>
      </trkpt>
      <trkpt lat="43.21768" lon="0.12597">
        <ele>411</ele>
        <time>2024-04-17T12:06:11Z</time>
      </trkpt>
      <trkpt lat="43.21772" lon="0.12595">
        <ele>411</ele>
        <time>2024-04-17T12:06:12Z</time>
      </trkpt>
      <trkpt lat="43.21776" lon="0.12593">
        <ele>411</ele>
        <time>2024-04-17T12:06:13Z</time>
      </trkpt>
      <trkpt lat="43.2178" lon="0.1259">
        <ele>410.6</ele>
        <time>2024-04-17T12:06:14Z</time>
      </trkpt>
      <trkpt lat="43.21785" lon="0.12588">
        <ele>410.6</ele>
        <time>2024-04-17T12:06:15Z</time>
      </trkpt>
      <trkpt lat="43.21789" lon="0.12587">
        <ele>410.2</ele>
        <time>2024-04-17T12:06:16Z</time>
      </trkpt>
      <trkpt lat="43.21794" lon="0.12586">
        <ele>410.2</ele>
        <time>2024-04-17T12:06:17Z</time>
      </trkpt>
      <trkpt lat="43.21798" lon="0.12584">
        <ele>410</ele>
        <time>2024-04-17T12:06:18Z</time>
      </trkpt>
      <trkpt lat="43.21804" lon="0.12582">
        <ele>410</ele>
        <time>2024-04-17T12:06:19Z</time>
      </trkpt>
      <trkpt lat="43.2181" lon="0.1258">
        <ele>409.8</ele>
        <time>2024-04-17T12:06:20Z</time>
      </trkpt>
      <trkpt lat="43.21815" lon="0.12577">
        <ele>409.6</ele>
        <time>2024-04-17T12:06:21Z</time>
      </trkpt>
      <trkpt lat="43.21821" lon="0.12575">
        <ele>409.4</ele>
        <time>2024-04-17T12:06:22Z</time>
      </trkpt>
      <trkpt lat="43.21826" lon="0.12572">
        <ele>409</ele>
        <time>2024-04-17T12:06:23Z</time>
      </trkpt>
      <trkpt lat="43.21832" lon="0.1257">
        <ele>408.8</ele>
        <time>2024-04-17T12:06:24Z</time>
      </trkpt>
      <trkpt lat="43.21837" lon="0.12567">
        <ele>408.8</ele>
        <time>2024-04-17T12:06:25Z</time>
      </trkpt>
      <trkpt lat="43.21842" lon="0.12566">
        <ele>408.6</ele>
        <time>2024-04-17T12:06:26Z</time>
      </trkpt>
      <trkpt lat="43.21847" lon="0.12565">
        <ele>408.4</ele>
        <time>2024-04-17T12:06:27Z</time>
      </trkpt>
      <trkpt lat="43.21852" lon="0.12564">
        <ele>408.2</ele>
        <time>2024-04-17T12:06:28Z</time>
      </trkpt>
      <trkpt lat="43.21857" lon="0.12562">
        <ele>408.2</ele>
        <time>2024-04-17T12:06:29Z</time>
      </trkpt>
      <trkpt lat="43.21862" lon="0.12561">
        <ele>408</ele>
        <time>2024-04-17T12:06:30Z</time>
      </trkpt>
      <trkpt lat="43.21867" lon="0.12559">
        <ele>408</ele>
        <time>2024-04-17T12:06:31Z</time>
      </trkpt>
      <trkpt lat="43.21872" lon="0.12557">
        <ele>407.8</ele>
        <time>2024-04-17T12:06:32Z</time>
      </trkpt>
      <trkpt lat="43.21877" lon="0.12555">
        <ele>407.8</ele>
        <time>2024-04-17T12:06:33Z</time>
      </trkpt>
      <trkpt lat="43.21882" lon="0.12554">
        <ele>407.6</ele>
        <time>2024-04-17T12:06:34Z</time>
      </trkpt>
      <trkpt lat="43.21886" lon="0.12553">
        <ele>407.4</ele>
        <time>2024-04-17T12:06:35Z</time>
      </trkpt>
      <trkpt lat="43.2189" lon="0.12552">
        <ele>407.4</ele>
        <time>2024-04-17T12:06:36Z</time>
      </trkpt>
      <trkpt lat="43.21895" lon="0.1255">
        <ele>407.2</ele>
        <time>2024-04-17T12:06:37Z</time>
      </trkpt>
      <trkpt lat="43.219" lon="0.12549">
        <ele>407.2</ele>
        <time>2024-04-17T12:06:38Z</time>
      </trkpt>
      <trkpt lat="43.21905" lon="0.12547">
        <ele>407</ele>
        <time>2024-04-17T12:06:39Z</time>
      </trkpt>
      <trkpt lat="43.2191" lon="0.12547">
        <ele>406.8</ele>
        <time>2024-04-17T12:06:40Z</time>
      </trkpt>
      <trkpt lat="43.21916" lon="0.12546">
        <ele>406.6</ele>
        <time>2024-04-17T12:06:41Z</time>
      </trkpt>
      <trkpt lat="43.21922" lon="0.12545">
        <ele>406.4</ele>
        <time>2024-04-17T12:06:42Z</time>
      </trkpt>
      <trkpt lat="43.21929" lon="0.12542">
        <ele>406.2</ele>
        <time>2024-04-17T12:06:43Z</time>
      </trkpt>
      <trkpt lat="43.21936" lon="0.12539">
        <ele>406</ele>
        <time>2024-04-17T12:06:44Z</time>
      </trkpt>
      <trkpt lat="43.21943" lon="0.12537">
        <ele>405.6</ele>
        <time>2024-04-17T12:06:45Z</time>
      </trkpt>
      <trkpt lat="43.2195" lon="0.12535">
        <ele>405.4</ele>
        <time>2024-04-17T12:06:46Z</time>
      </trkpt>
      <trkpt lat="43.21958" lon="0.12533">
        <ele>405.2</ele>
        <time>2024-04-17T12:06:47Z</time>
      </trkpt>
      <trkpt lat="43.21967" lon="0.1253">
        <ele>404.8</ele>
        <time>2024-04-17T12:06:48Z</time>
      </trkpt>
      <trkpt lat="43.21976" lon="0.12527">
        <ele>404.4</ele>
        <time>2024-04-17T12:06:49Z</time>
      </trkpt>
      <trkpt lat="43.21985" lon="0.12523">
        <ele>403.8</ele>
        <time>2024-04-17T12:06:50Z</time>
      </trkpt>
      <trkpt lat="43.21994" lon="0.1252">
        <ele>403.4</ele>
        <time>2024-04-17T12:06:51Z</time>
      </trkpt>
      <trkpt lat="43.22003" lon="0.12517">
        <ele>402.8</ele>
        <time>2024-04-17T12:06:52Z</time>
      </trkpt>
      <trkpt lat="43.22012" lon="0.12515">
        <ele>402.6</ele>
        <time>2024-04-17T12:06:53Z</time>
      </trkpt>
      <trkpt lat="43.22021" lon="0.12513">
        <ele>402</ele>
        <time>2024-04-17T12:06:54Z</time>
      </trkpt>
      <trkpt lat="43.22029" lon="0.12511">
        <ele>401</ele>
        <time>2024-04-17T12:06:55Z</time>
      </trkpt>
      <trkpt lat="43.22038" lon="0.12508">
        <ele>400.6</ele>
        <time>2024-04-17T12:06:56Z</time>
      </trkpt>
      <trkpt lat="43.22046" lon="0.12506">
        <ele>400</ele>
        <time>2024-04-17T12:06:57Z</time>
      </trkpt>
      <trkpt lat="43.22054" lon="0.12503">
        <ele>399.6</ele>
        <time>2024-04-17T12:06:58Z</time>
      </trkpt>
      <trkpt lat="43.22062" lon="0.12501">
        <ele>399.2</ele>
        <time>2024-04-17T12:06:59Z</time>
      </trkpt>
      <trkpt lat="43.22069" lon="0.12499">
        <ele>398.8</ele>
        <time>2024-04-17T12:07:00Z</time>
      </trkpt>
      <trkpt lat="43.22076" lon="0.12497">
        <ele>398.2</ele>
        <time>2024-04-17T12:07:01Z</time>
      </trkpt>
      <trkpt lat="43.22083" lon="0.12496">
        <ele>398</ele>
        <time>2024-04-17T12:07:02Z</time>
      </trkpt>
      <trkpt lat="43.22089" lon="0.12495">
        <ele>397.6</ele>
        <time>2024-04-17T12:07:03Z</time>
      </trkpt>
      <trkpt lat="43.22095" lon="0.12493">
        <ele>397.2</ele>
        <time>2024-04-17T12:07:04Z</time>
      </trkpt>
      <trkpt lat="43.22102" lon="0.12492">
        <ele>397.2</ele>
        <time>2024-04-17T12:07:05Z</time>
      </trkpt>
      <trkpt lat="43.22108" lon="0.12491">
        <ele>397.2</ele>
        <time>2024-04-17T12:07:06Z</time>
      </trkpt>
      <trkpt lat="43.22114" lon="0.1249">
        <ele>397</ele>
        <time>2024-04-17T12:07:07Z</time>
      </trkpt>
      <trkpt lat="43.2212" lon="0.12488">
        <ele>397</ele>
        <time>2024-04-17T12:07:08Z</time>
      </trkpt>
      <trkpt lat="43.22125" lon="0.12487">
        <ele>397</ele>
        <time>2024-04-17T12:07:09Z</time>
      </trkpt>
      <trkpt lat="43.22131" lon="0.12485">
        <ele>397</ele>
        <time>2024-04-17T12:07:10Z</time>
      </trkpt>
      <trkpt lat="43.22136" lon="0.12485">
        <ele>397</ele>
        <time>2024-04-17T12:07:11Z</time>
      </trkpt>
      <trkpt lat="43.22141" lon="0.12484">
        <ele>397</ele>
        <time>2024-04-17T12:07:12Z</time>
      </trkpt>
      <trkpt lat="43.22146" lon="0.12482">
        <ele>397</ele>
        <time>2024-04-17T12:07:13Z</time>
      </trkpt>
      <trkpt lat="43.22151" lon="0.12481">
        <ele>397</ele>
        <time>2024-04-17T12:07:14Z</time>
      </trkpt>
      <trkpt lat="43.22156" lon="0.1248">
        <ele>397</ele>
        <time>2024-04-17T12:07:15Z</time>
      </trkpt>
      <trkpt lat="43.22161" lon="0.12479">
        <ele>397</ele>
        <time>2024-04-17T12:07:16Z</time>
      </trkpt>
      <trkpt lat="43.22167" lon="0.12477">
        <ele>396.8</ele>
        <time>2024-04-17T12:07:17Z</time>
      </trkpt>
      <trkpt lat="43.22172" lon="0.12475">
        <ele>396.8</ele>
        <time>2024-04-17T12:07:18Z</time>
      </trkpt>
      <trkpt lat="43.22177" lon="0.12473">
        <ele>396.8</ele>
        <time>2024-04-17T12:07:19Z</time>
      </trkpt>
      <trkpt lat="43.22183" lon="0.12472">
        <ele>396.8</ele>
        <time>2024-04-17T12:07:20Z</time>
      </trkpt>
      <trkpt lat="43.22188" lon="0.12471">
        <ele>396.8</ele>
        <time>2024-04-17T12:07:21Z</time>
      </trkpt>
      <trkpt lat="43.22193" lon="0.1247">
        <ele>396.6</ele>
        <time>2024-04-17T12:07:22Z</time>
      </trkpt>
      <trkpt lat="43.22198" lon="0.12469">
        <ele>396.4</ele>
        <time>2024-04-17T12:07:23Z</time>
      </trkpt>
      <trkpt lat="43.22202" lon="0.12469">
        <ele>396.4</ele>
        <time>2024-04-17T12:07:24Z</time>
      </trkpt>
      <trkpt lat="43.22207" lon="0.12468">
        <ele>396.2</ele>
        <time>2024-04-17T12:07:25Z</time>
      </trkpt>
      <trkpt lat="43.22212" lon="0.12468">
        <ele>396.2</ele>
        <time>2024-04-17T12:07:26Z</time>
      </trkpt>
      <trkpt lat="43.22217" lon="0.12468">
        <ele>396.2</ele>
        <time>2024-04-17T12:07:27Z</time>
      </trkpt>
      <trkpt lat="43.22221" lon="0.12468">
        <ele>396</ele>
        <time>2024-04-17T12:07:28Z</time>
      </trkpt>
      <trkpt lat="43.22226" lon="0.12468">
        <ele>396</ele>
        <time>2024-04-17T12:07:29Z</time>
      </trkpt>
      <trkpt lat="43.2223" lon="0.12468">
        <ele>396</ele>
        <time>2024-04-17T12:07:30Z</time>
      </trkpt>
      <trkpt lat="43.22235" lon="0.12467">
        <ele>396</ele>
        <time>2024-04-17T12:07:31Z</time>
      </trkpt>
      <trkpt lat="43.22239" lon="0.12466">
        <ele>396</ele>
        <time>2024-04-17T12:07:32Z</time>
      </trkpt>
      <trkpt lat="43.22244" lon="0.12464">
        <ele>396</ele>
        <time>2024-04-17T12:07:33Z</time>
      </trkpt>
      <trkpt lat="43.22249" lon="0.12463">
        <ele>396</ele>
        <time>2024-04-17T12:07:34Z</time>
      </trkpt>
      <trkpt lat="43.22254" lon="0.12463">
        <ele>395.8</ele>
        <time>2024-04-17T12:07:35Z</time>
      </trkpt>
      <trkpt lat="43.22258" lon="0.12462">
        <ele>395.8</ele>
        <time>2024-04-17T12:07:36Z</time>
      </trkpt>
      <trkpt lat="43.22263" lon="0.12461">
        <ele>395.8</ele>
        <time>2024-04-17T12:07:37Z</time>
      </trkpt>
      <trkpt lat="43.22268" lon="0.1246">
        <ele>395.8</ele>
        <time>2024-04-17T12:07:38Z</time>
      </trkpt>
      <trkpt lat="43.22273" lon="0.12457">
        <ele>395.8</ele>
        <time>2024-04-17T12:07:39Z</time>
      </trkpt>
      <trkpt lat="43.22279" lon="0.12455">
        <ele>395.6</ele>
        <time>2024-04-17T12:07:40Z</time>
      </trkpt>
      <trkpt lat="43.22284" lon="0.12453">
        <ele>395.6</ele>
        <time>2024-04-17T12:07:41Z</time>
      </trkpt>
      <trkpt lat="43.22289" lon="0.1245">
        <ele>395.4</ele>
        <time>2024-04-17T12:07:42Z</time>
      </trkpt>
      <trkpt lat="43.22294" lon="0.12447">
        <ele>395.4</ele>
        <time>2024-04-17T12:07:43Z</time>
      </trkpt>
      <trkpt lat="43.223" lon="0.12445">
        <ele>395</ele>
        <time>2024-04-17T12:07:44Z</time>
      </trkpt>
      <trkpt lat="43.22306" lon="0.12443">
        <ele>394.8</ele>
        <time>2024-04-17T12:07:45Z</time>
      </trkpt>
      <trkpt lat="43.22312" lon="0.12441">
        <ele>394.6</ele>
        <time>2024-04-17T12:07:46Z</time>
      </trkpt>
      <trkpt lat="43.22318" lon="0.1244">
        <ele>394.4</ele>
        <time>2024-04-17T12:07:47Z</time>
      </trkpt>
      <trkpt lat="43.22323" lon="0.12439">
        <ele>394.4</ele>
        <time>2024-04-17T12:07:48Z</time>
      </trkpt>
      <trkpt lat="43.22329" lon="0.12437">
        <ele>394.2</ele>
        <time>2024-04-17T12:07:49Z</time>
      </trkpt>
      <trkpt lat="43.22335" lon="0.12435">
        <ele>394.2</ele>
        <time>2024-04-17T12:07:50Z</time>
      </trkpt>
      <trkpt lat="43.22342" lon="0.12434">
        <ele>393.8</ele>
        <time>2024-04-17T12:07:51Z</time>
      </trkpt>
      <trkpt lat="43.22347" lon="0.12433">
        <ele>393.4</ele>
        <time>2024-04-17T12:07:52Z</time>
      </trkpt>
      <trkpt lat="43.22353" lon="0.12432">
        <ele>393.2</ele>
        <time>2024-04-17T12:07:53Z</time>
      </trkpt>
      <trkpt lat="43.22361" lon="0.12428">
        <ele>392.8</ele>
        <time>2024-04-17T12:07:54Z</time>
      </trkpt>
      <trkpt lat="43.22369" lon="0.12425">
        <ele>392.6</ele>
        <time>2024-04-17T12:07:55Z</time>
      </trkpt>
      <trkpt lat="43.22376" lon="0.12423">
        <ele>392.4</ele>
        <time>2024-04-17T12:07:56Z</time>
      </trkpt>
      <trkpt lat="43.22383" lon="0.12421">
        <ele>392</ele>
        <time>2024-04-17T12:07:57Z</time>
      </trkpt>
      <trkpt lat="43.22391" lon="0.12418">
        <ele>391.6</ele>
        <time>2024-04-17T12:07:58Z</time>
      </trkpt>
      <trkpt lat="43.22397" lon="0.12416">
        <ele>391.4</ele>
        <time>2024-04-17T12:07:59Z</time>
      </trkpt>
      <trkpt lat="43.22404" lon="0.12414">
        <ele>391</ele>
        <time>2024-04-17T12:08:00Z</time>
      </trkpt>
      <trkpt lat="43.22411" lon="0.12412">
        <ele>390.6</ele>
        <time>2024-04-17T12:08:01Z</time>
      </trkpt>
      <trkpt lat="43.22417" lon="0.1241">
        <ele>390.4</ele>
        <time>2024-04-17T12:08:02Z</time>
      </trkpt>
      <trkpt lat="43.22424" lon="0.12409">
        <ele>390.2</ele>
        <time>2024-04-17T12:08:03Z</time>
      </trkpt>
      <trkpt lat="43.2243" lon="0.12408">
        <ele>390</ele>
        <time>2024-04-17T12:08:04Z</time>
      </trkpt>
      <trkpt lat="43.22436" lon="0.12406">
        <ele>389.8</ele>
        <time>2024-04-17T12:08:05Z</time>
      </trkpt>
      <trkpt lat="43.22442" lon="0.12406">
        <ele>389.6</ele>
        <time>2024-04-17T12:08:06Z</time>
      </trkpt>
      <trkpt lat="43.22448" lon="0.12406">
        <ele>389.2</ele>
        <time>2024-04-17T12:08:07Z</time>
      </trkpt>
      <trkpt lat="43.22454" lon="0.12408">
        <ele>389</ele>
        <time>2024-04-17T12:08:08Z</time>
      </trkpt>
      <trkpt lat="43.22459" lon="0.12411">
        <ele>389</ele>
        <time>2024-04-17T12:08:09Z</time>
      </trkpt>
      <trkpt lat="43.22464" lon="0.12415">
        <ele>388.8</ele>
        <time>2024-04-17T12:08:10Z</time>
      </trkpt>
      <trkpt lat="43.22468" lon="0.12419">
        <ele>388.8</ele>
        <time>2024-04-17T12:08:11Z</time>
      </trkpt>
      <trkpt lat="43.22472" lon="0.12424">
        <ele>388.6</ele>
        <time>2024-04-17T12:08:12Z</time>
      </trkpt>
      <trkpt lat="43.22476" lon="0.12428">
        <ele>388.6</ele>
        <time>2024-04-17T12:08:13Z</time>
      </trkpt>
      <trkpt lat="43.2248" lon="0.12431">
        <ele>388.4</ele>
        <time>2024-04-17T12:08:14Z</time>
      </trkpt>
      <trkpt lat="43.22484" lon="0.12433">
        <ele>388.4</ele>
        <time>2024-04-17T12:08:15Z</time>
      </trkpt>
      <trkpt lat="43.22488" lon="0.12432">
        <ele>388.2</ele>
        <time>2024-04-17T12:08:16Z</time>
      </trkpt>
      <trkpt lat="43.22491" lon="0.12429">
        <ele>387.6</ele>
        <time>2024-04-17T12:08:17Z</time>
      </trkpt>
      <trkpt lat="43.22492" lon="0.12424">
        <ele>387.4</ele>
        <time>2024-04-17T12:08:18Z</time>
      </trkpt>
      <trkpt lat="43.22492" lon="0.12418">
        <ele>387</ele>
        <time>2024-04-17T12:08:19Z</time>
      </trkpt>
      <trkpt lat="43.22491" lon="0.12413">
        <ele>387</ele>
        <time>2024-04-17T12:08:20Z</time>
      </trkpt>
      <trkpt lat="43.2249" lon="0.12408">
        <ele>386.8</ele>
        <time>2024-04-17T12:08:21Z</time>
      </trkpt>
      <trkpt lat="43.2249" lon="0.12403">
        <ele>386.8</ele>
        <time>2024-04-17T12:08:22Z</time>
      </trkpt>
      <trkpt lat="43.22491" lon="0.12398">
        <ele>386.8</ele>
        <time>2024-04-17T12:08:23Z</time>
      </trkpt>
      <trkpt lat="43.22492" lon="0.12394">
        <ele>386.8</ele>
        <time>2024-04-17T12:08:24Z</time>
      </trkpt>
      <trkpt lat="43.22494" lon="0.12391">
        <ele>386.8</ele>
        <time>2024-04-17T12:08:25Z</time>
      </trkpt>
      <trkpt lat="43.22496" lon="0.12389">
        <ele>386.8</ele>
        <time>2024-04-17T12:08:26Z</time>
      </trkpt>
      <trkpt lat="43.22499" lon="0.12387">
        <ele>386.8</ele>
        <time>2024-04-17T12:08:27Z</time>
      </trkpt>
      <trkpt lat="43.22503" lon="0.12385">
        <ele>387</ele>
        <time>2024-04-17T12:08:28Z</time>
      </trkpt>
      <trkpt lat="43.22506" lon="0.12384">
        <ele>387.2</ele>
        <time>2024-04-17T12:08:29Z</time>
      </trkpt>
      <trkpt lat="43.2251" lon="0.12384">
        <ele>387.4</ele>
        <time>2024-04-17T12:08:30Z</time>
      </trkpt>
      <trkpt lat="43.22513" lon="0.12383">
        <ele>387.4</ele>
        <time>2024-04-17T12:08:31Z</time>
      </trkpt>
      <trkpt lat="43.22517" lon="0.12382">
        <ele>387.8</ele>
        <time>2024-04-17T12:08:32Z</time>
      </trkpt>
      <trkpt lat="43.2252" lon="0.12381">
        <ele>388</ele>
        <time>2024-04-17T12:08:33Z</time>
      </trkpt>
      <trkpt lat="43.22523" lon="0.1238">
        <ele>388</ele>
        <time>2024-04-17T12:08:34Z</time>
      </trkpt>
      <trkpt lat="43.22527" lon="0.12379">
        <ele>388.2</ele>
        <time>2024-04-17T12:08:35Z</time>
      </trkpt>
      <trkpt lat="43.2253" lon="0.12378">
        <ele>388.4</ele>
        <time>2024-04-17T12:08:36Z</time>
      </trkpt>
      <trkpt lat="43.22533" lon="0.12378">
        <ele>388.4</ele>
        <time>2024-04-17T12:08:37Z</time>
      </trkpt>
      <trkpt lat="43.22536" lon="0.12378">
        <ele>388.4</ele>
        <time>2024-04-17T12:08:38Z</time>
      </trkpt>
      <trkpt lat="43.22539" lon="0.12377">
        <ele>388.4</ele>
        <time>2024-04-17T12:08:39Z</time>
      </trkpt>
      <trkpt lat="43.22542" lon="0.12376">
        <ele>388.6</ele>
        <time>2024-04-17T12:08:40Z</time>
      </trkpt>
      <trkpt lat="43.22545" lon="0.12376">
        <ele>388.6</ele>
        <time>2024-04-17T12:08:41Z</time>
      </trkpt>
      <trkpt lat="43.22549" lon="0.12375">
        <ele>388.6</ele>
        <time>2024-04-17T12:08:42Z</time>
      </trkpt>
      <trkpt lat="43.22552" lon="0.12374">
        <ele>388.6</ele>
        <time>2024-04-17T12:08:43Z</time>
      </trkpt>
      <trkpt lat="43.22556" lon="0.12373">
        <ele>388.8</ele>
        <time>2024-04-17T12:08:44Z</time>
      </trkpt>
      <trkpt lat="43.2256" lon="0.12372">
        <ele>388.8</ele>
        <time>2024-04-17T12:08:45Z</time>
      </trkpt>
      <trkpt lat="43.22564" lon="0.12371">
        <ele>389</ele>
        <time>2024-04-17T12:08:46Z</time>
      </trkpt>
      <trkpt lat="43.22567" lon="0.1237">
        <ele>389</ele>
        <time>2024-04-17T12:08:47Z</time>
      </trkpt>
      <trkpt lat="43.22571" lon="0.12369">
        <ele>389</ele>
        <time>2024-04-17T12:08:48Z</time>
      </trkpt>
      <trkpt lat="43.22575" lon="0.12368">
        <ele>389</ele>
        <time>2024-04-17T12:08:49Z</time>
      </trkpt>
      <trkpt lat="43.22579" lon="0.12367">
        <ele>389</ele>
        <time>2024-04-17T12:08:50Z</time>
      </trkpt>
      <trkpt lat="43.22582" lon="0.12366">
        <ele>389</ele>
        <time>2024-04-17T12:08:51Z</time>
      </trkpt>
      <trkpt lat="43.22586" lon="0.12366">
        <ele>389</ele>
        <time>2024-04-17T12:08:52Z</time>
      </trkpt>
      <trkpt lat="43.2259" lon="0.12365">
        <ele>389</ele>
        <time>2024-04-17T12:08:53Z</time>
      </trkpt>
      <trkpt lat="43.22593" lon="0.12363">
        <ele>389</ele>
        <time>2024-04-17T12:08:54Z</time>
      </trkpt>
      <trkpt lat="43.22597" lon="0.12362">
        <ele>389.2</ele>
        <time>2024-04-17T12:08:55Z</time>
      </trkpt>
      <trkpt lat="43.22601" lon="0.12361">
        <ele>389.2</ele>
        <time>2024-04-17T12:08:56Z</time>
      </trkpt>
      <trkpt lat="43.22605" lon="0.1236">
        <ele>389.2</ele>
        <time>2024-04-17T12:08:57Z</time>
      </trkpt>
      <trkpt lat="43.22608" lon="0.12359">
        <ele>389.2</ele>
        <time>2024-04-17T12:08:58Z</time>
      </trkpt>
      <trkpt lat="43.22612" lon="0.12358">
        <ele>389.4</ele>
        <time>2024-04-17T12:08:59Z</time>
      </trkpt>
      <trkpt lat="43.22616" lon="0.12357">
        <ele>389.4</ele>
        <time>2024-04-17T12:09:00Z</time>
      </trkpt>
      <trkpt lat="43.2262" lon="0.12356">
        <ele>389.4</ele>
        <time>2024-04-17T12:09:01Z</time>
      </trkpt>
      <trkpt lat="43.22623" lon="0.12355">
        <ele>389.4</ele>
        <time>2024-04-17T12:09:02Z</time>
      </trkpt>
      <trkpt lat="43.22627" lon="0.12354">
        <ele>389.4</ele>
        <time>2024-04-17T12:09:03Z</time>
      </trkpt>
      <trkpt lat="43.2263" lon="0.12353">
        <ele>389.4</ele>
        <time>2024-04-17T12:09:04Z</time>
      </trkpt>
      <trkpt lat="43.22633" lon="0.12353">
        <ele>389.4</ele>
        <time>2024-04-17T12:09:05Z</time>
      </trkpt>
      <trkpt lat="43.22635" lon="0.12353">
        <ele>389.6</ele>
        <time>2024-04-17T12:09:06Z</time>
      </trkpt>
      <trkpt lat="43.22637" lon="0.12353">
        <ele>389.6</ele>
        <time>2024-04-17T12:09:07Z</time>
      </trkpt>
      <trkpt lat="43.2264" lon="0.12352">
        <ele>389.6</ele>
        <time>2024-04-17T12:09:08Z</time>
      </trkpt>
      <trkpt lat="43.22643" lon="0.12351">
        <ele>389.6</ele>
        <time>2024-04-17T12:09:09Z</time>
      </trkpt>
      <trkpt lat="43.22645" lon="0.1235">
        <ele>389.8</ele>
        <time>2024-04-17T12:09:10Z</time>
      </trkpt>
      <trkpt lat="43.22648" lon="0.12349">
        <ele>389.8</ele>
        <time>2024-04-17T12:09:11Z</time>
      </trkpt>
      <trkpt lat="43.22651" lon="0.12348">
        <ele>389.8</ele>
        <time>2024-04-17T12:09:12Z</time>
      </trkpt>
      <trkpt lat="43.22655" lon="0.12346">
        <ele>389.8</ele>
        <time>2024-04-17T12:09:13Z</time>
      </trkpt>
      <trkpt lat="43.22659" lon="0.12345">
        <ele>390</ele>
        <time>2024-04-17T12:09:14Z</time>
      </trkpt>
      <trkpt lat="43.22663" lon="0.12344">
        <ele>390</ele>
        <time>2024-04-17T12:09:15Z</time>
      </trkpt>
      <trkpt lat="43.22667" lon="0.12343">
        <ele>390.4</ele>
        <time>2024-04-17T12:09:16Z</time>
      </trkpt>
      <trkpt lat="43.22671" lon="0.12342">
        <ele>390.4</ele>
        <time>2024-04-17T12:09:17Z</time>
      </trkpt>
      <trkpt lat="43.22674" lon="0.12341">
        <ele>390.6</ele>
        <time>2024-04-17T12:09:18Z</time>
      </trkpt>
      <trkpt lat="43.22678" lon="0.1234">
        <ele>390.6</ele>
        <time>2024-04-17T12:09:19Z</time>
      </trkpt>
      <trkpt lat="43.22682" lon="0.12338">
        <ele>390.6</ele>
        <time>2024-04-17T12:09:20Z</time>
      </trkpt>
      <trkpt lat="43.22686" lon="0.12337">
        <ele>390.6</ele>
        <time>2024-04-17T12:09:21Z</time>
      </trkpt>
      <trkpt lat="43.2269" lon="0.12336">
        <ele>390.6</ele>
        <time>2024-04-17T12:09:22Z</time>
      </trkpt>
      <trkpt lat="43.22693" lon="0.12335">
        <ele>390.6</ele>
        <time>2024-04-17T12:09:23Z</time>
      </trkpt>
      <trkpt lat="43.22697" lon="0.12334">
        <ele>390.6</ele>
        <time>2024-04-17T12:09:24Z</time>
      </trkpt>
      <trkpt lat="43.22701" lon="0.12334">
        <ele>390.6</ele>
        <time>2024-04-17T12:09:25Z</time>
      </trkpt>
      <trkpt lat="43.22704" lon="0.12333">
        <ele>390.6</ele>
        <time>2024-04-17T12:09:26Z</time>
      </trkpt>
      <trkpt lat="43.22707" lon="0.12332">
        <ele>390.8</ele>
        <time>2024-04-17T12:09:27Z</time>
      </trkpt>
      <trkpt lat="43.22711" lon="0.12332">
        <ele>390.8</ele>
        <time>2024-04-17T12:09:28Z</time>
      </trkpt>
      <trkpt lat="43.22714" lon="0.12331">
        <ele>390.8</ele>
        <time>2024-04-17T12:09:29Z</time>
      </trkpt>
      <trkpt lat="43.22718" lon="0.1233">
        <ele>391</ele>
        <time>2024-04-17T12:09:30Z</time>
      </trkpt>
      <trkpt lat="43.22721" lon="0.12329">
        <ele>391</ele>
        <time>2024-04-17T12:09:31Z</time>
      </trkpt>
      <trkpt lat="43.22725" lon="0.12329">
        <ele>391.2</ele>
        <time>2024-04-17T12:09:32Z</time>
      </trkpt>
      <trkpt lat="43.22728" lon="0.12328">
        <ele>391.2</ele>
        <time>2024-04-17T12:09:33Z</time>
      </trkpt>
      <trkpt lat="43.22731" lon="0.12328">
        <ele>391.2</ele>
        <time>2024-04-17T12:09:34Z</time>
      </trkpt>
      <trkpt lat="43.22735" lon="0.12328">
        <ele>391.4</ele>
        <time>2024-04-17T12:09:35Z</time>
      </trkpt>
      <trkpt lat="43.22738" lon="0.12327">
        <ele>391.4</ele>
        <time>2024-04-17T12:09:36Z</time>
      </trkpt>
      <trkpt lat="43.22742" lon="0.12326">
        <ele>391.4</ele>
        <time>2024-04-17T12:09:37Z</time>
      </trkpt>
      <trkpt lat="43.22745" lon="0.12326">
        <ele>391.6</ele>
        <time>2024-04-17T12:09:38Z</time>
      </trkpt>
      <trkpt lat="43.22749" lon="0.12326">
        <ele>391.6</ele>
        <time>2024-04-17T12:09:39Z</time>
      </trkpt>
      <trkpt lat="43.22752" lon="0.12326">
        <ele>391.6</ele>
        <time>2024-04-17T12:09:40Z</time>
      </trkpt>
      <trkpt lat="43.22755" lon="0.12328">
        <ele>391.6</ele>
        <time>2024-04-17T12:09:41Z</time>
      </trkpt>
      <trkpt lat="43.22759" lon="0.1233">
        <ele>391.8</ele>
        <time>2024-04-17T12:09:42Z</time>
      </trkpt>
      <trkpt lat="43.22761" lon="0.12333">
        <ele>391.8</ele>
        <time>2024-04-17T12:09:43Z</time>
      </trkpt>
      <trkpt lat="43.22764" lon="0.12336">
        <ele>391.8</ele>
        <time>2024-04-17T12:09:44Z</time>
      </trkpt>
      <trkpt lat="43.22766" lon="0.1234">
        <ele>391.8</ele>
        <time>2024-04-17T12:09:45Z</time>
      </trkpt>
      <trkpt lat="43.22768" lon="0.12345">
        <ele>391.8</ele>
        <time>2024-04-17T12:09:46Z</time>
      </trkpt>
      <trkpt lat="43.22771" lon="0.1235">
        <ele>391.8</ele>
        <time>2024-04-17T12:09:47Z</time>
      </trkpt>
      <trkpt lat="43.22774" lon="0.12354">
        <ele>391.8</ele>
        <time>2024-04-17T12:09:48Z</time>
      </trkpt>
      <trkpt lat="43.22778" lon="0.12357">
        <ele>391.8</ele>
        <time>2024-04-17T12:09:49Z</time>
      </trkpt>
      <trkpt lat="43.22782" lon="0.12359">
        <ele>391.8</ele>
        <time>2024-04-17T12:09:50Z</time>
      </trkpt>
      <trkpt lat="43.22786" lon="0.12359">
        <ele>391.6</ele>
        <time>2024-04-17T12:09:51Z</time>
      </trkpt>
      <trkpt lat="43.2279" lon="0.12359">
        <ele>391.6</ele>
        <time>2024-04-17T12:09:52Z</time>
      </trkpt>
      <trkpt lat="43.22794" lon="0.1236">
        <ele>391.6</ele>
        <time>2024-04-17T12:09:53Z</time>
      </trkpt>
      <trkpt lat="43.22798" lon="0.1236">
        <ele>391.6</ele>
        <time>2024-04-17T12:09:54Z</time>
      </trkpt>
      <trkpt lat="43.22802" lon="0.1236">
        <ele>391.4</ele>
        <time>2024-04-17T12:09:55Z</time>
      </trkpt>
      <trkpt lat="43.22806" lon="0.1236">
        <ele>391.4</ele>
        <time>2024-04-17T12:09:56Z</time>
      </trkpt>
      <trkpt lat="43.22811" lon="0.1236">
        <ele>391.4</ele>
        <time>2024-04-17T12:09:57Z</time>
      </trkpt>
      <trkpt lat="43.22815" lon="0.12359">
        <ele>391.4</ele>
        <time>2024-04-17T12:09:58Z</time>
      </trkpt>
      <trkpt lat="43.22819" lon="0.12359">
        <ele>391.4</ele>
        <time>2024-04-17T12:09:59Z</time>
      </trkpt>
      <trkpt lat="43.22823" lon="0.12359">
        <ele>391.4</ele>
        <time>2024-04-17T12:10:00Z</time>
      </trkpt>
      <trkpt lat="43.22827" lon="0.12359">
        <ele>391.6</ele>
        <time>2024-04-17T12:10:01Z</time>
      </trkpt>
      <trkpt lat="43.22831" lon="0.12359">
        <ele>391.6</ele>
        <time>2024-04-17T12:10:02Z</time>
      </trkpt>
      <trkpt lat="43.22835" lon="0.12359">
        <ele>391.6</ele>
        <time>2024-04-17T12:10:03Z</time>
      </trkpt>
      <trkpt lat="43.2284" lon="0.12359">
        <ele>391.6</ele>
        <time>2024-04-17T12:10:04Z</time>
      </trkpt>
      <trkpt lat="43.22844" lon="0.12359">
        <ele>391.6</ele>
        <time>2024-04-17T12:10:05Z</time>
      </trkpt>
      <trkpt lat="43.22848" lon="0.12359">
        <ele>391.6</ele>
        <time>2024-04-17T12:10:06Z</time>
      </trkpt>
      <trkpt lat="43.22852" lon="0.12359">
        <ele>391.6</ele>
        <time>2024-04-17T12:10:07Z</time>
      </trkpt>
      <trkpt lat="43.22856" lon="0.12359">
        <ele>391.8</ele>
        <time>2024-04-17T12:10:08Z</time>
      </trkpt>
      <trkpt lat="43.2286" lon="0.12359">
        <ele>391.8</ele>
        <time>2024-04-17T12:10:09Z</time>
      </trkpt>
      <trkpt lat="43.22864" lon="0.12359">
        <ele>391.8</ele>
        <time>2024-04-17T12:10:10Z</time>
      </trkpt>
      <trkpt lat="43.22868" lon="0.12359">
        <ele>391.8</ele>
        <time>2024-04-17T12:10:11Z</time>
      </trkpt>
      <trkpt lat="43.22872" lon="0.12359">
        <ele>391.8</ele>
        <time>2024-04-17T12:10:12Z</time>
      </trkpt>
      <trkpt lat="43.22876" lon="0.12359">
        <ele>391.8</ele>
        <time>2024-04-17T12:10:13Z</time>
      </trkpt>
      <trkpt lat="43.2288" lon="0.1236">
        <ele>391.8</ele>
        <time>2024-04-17T12:10:14Z</time>
      </trkpt>
      <trkpt lat="43.22884" lon="0.1236">
        <ele>391.8</ele>
        <time>2024-04-17T12:10:15Z</time>
      </trkpt>
      <trkpt lat="43.22888" lon="0.1236">
        <ele>391.8</ele>
        <time>2024-04-17T12:10:16Z</time>
      </trkpt>
      <trkpt lat="43.22892" lon="0.12361">
        <ele>391.8</ele>
        <time>2024-04-17T12:10:17Z</time>
      </trkpt>
      <trkpt lat="43.22896" lon="0.12361">
        <ele>392</ele>
        <time>2024-04-17T12:10:18Z</time>
      </trkpt>
      <trkpt lat="43.229" lon="0.12362">
        <ele>392</ele>
        <time>2024-04-17T12:10:19Z</time>
      </trkpt>
      <trkpt lat="43.22903" lon="0.12362">
        <ele>392</ele>
        <time>2024-04-17T12:10:20Z</time>
      </trkpt>
      <trkpt lat="43.22907" lon="0.12362">
        <ele>392</ele>
        <time>2024-04-17T12:10:21Z</time>
      </trkpt>
      <trkpt lat="43.22911" lon="0.12363">
        <ele>392.2</ele>
        <time>2024-04-17T12:10:22Z</time>
      </trkpt>
      <trkpt lat="43.22915" lon="0.12363">
        <ele>392.2</ele>
        <time>2024-04-17T12:10:23Z</time>
      </trkpt>
      <trkpt lat="43.22919" lon="0.12364">
        <ele>392.4</ele>
        <time>2024-04-17T12:10:24Z</time>
      </trkpt>
      <trkpt lat="43.22922" lon="0.12365">
        <ele>392.4</ele>
        <time>2024-04-17T12:10:25Z</time>
      </trkpt>
      <trkpt lat="43.22926" lon="0.12365">
        <ele>392.6</ele>
        <time>2024-04-17T12:10:26Z</time>
      </trkpt>
      <trkpt lat="43.2293" lon="0.12366">
        <ele>392.6</ele>
        <time>2024-04-17T12:10:27Z</time>
      </trkpt>
      <trkpt lat="43.22933" lon="0.12367">
        <ele>392.6</ele>
        <time>2024-04-17T12:10:28Z</time>
      </trkpt>
      <trkpt lat="43.22936" lon="0.12367">
        <ele>392.8</ele>
        <time>2024-04-17T12:10:29Z</time>
      </trkpt>
      <trkpt lat="43.2294" lon="0.12367">
        <ele>392.8</ele>
        <time>2024-04-17T12:10:30Z</time>
      </trkpt>
      <trkpt lat="43.22943" lon="0.12368">
        <ele>392.8</ele>
        <time>2024-04-17T12:10:31Z</time>
      </trkpt>
      <trkpt lat="43.22947" lon="0.12368">
        <ele>392.8</ele>
        <time>2024-04-17T12:10:32Z</time>
      </trkpt>
      <trkpt lat="43.2295" lon="0.12369">
        <ele>393</ele>
        <time>2024-04-17T12:10:33Z</time>
      </trkpt>
      <trkpt lat="43.22953" lon="0.12369">
        <ele>393.2</ele>
        <time>2024-04-17T12:10:34Z</time>
      </trkpt>
      <trkpt lat="43.22957" lon="0.12369">
        <ele>393.2</ele>
        <time>2024-04-17T12:10:35Z</time>
      </trkpt>
      <trkpt lat="43.2296" lon="0.12369">
        <ele>393.4</ele>
        <time>2024-04-17T12:10:36Z</time>
      </trkpt>
      <trkpt lat="43.22964" lon="0.12369">
        <ele>393.4</ele>
        <time>2024-04-17T12:10:37Z</time>
      </trkpt>
      <trkpt lat="43.22968" lon="0.12369">
        <ele>393.6</ele>
        <time>2024-04-17T12:10:38Z</time>
      </trkpt>
      <trkpt lat="43.22971" lon="0.12369">
        <ele>393.8</ele>
        <time>2024-04-17T12:10:39Z</time>
      </trkpt>
      <trkpt lat="43.22974" lon="0.1237">
        <ele>394</ele>
        <time>2024-04-17T12:10:40Z</time>
      </trkpt>
      <trkpt lat="43.22978" lon="0.1237">
        <ele>394</ele>
        <time>2024-04-17T12:10:41Z</time>
      </trkpt>
      <trkpt lat="43.22981" lon="0.12371">
        <ele>394.4</ele>
        <time>2024-04-17T12:10:42Z</time>
      </trkpt>
      <trkpt lat="43.22984" lon="0.12371">
        <ele>394.4</ele>
        <time>2024-04-17T12:10:43Z</time>
      </trkpt>
      <trkpt lat="43.22987" lon="0.12372">
        <ele>394.8</ele>
        <time>2024-04-17T12:10:44Z</time>
      </trkpt>
      <trkpt lat="43.22991" lon="0.12372">
        <ele>394.8</ele>
        <time>2024-04-17T12:10:45Z</time>
      </trkpt>
      <trkpt lat="43.22994" lon="0.12373">
        <ele>394.8</ele>
        <time>2024-04-17T12:10:46Z</time>
      </trkpt>
      <trkpt lat="43.22997" lon="0.12373">
        <ele>395</ele>
        <time>2024-04-17T12:10:47Z</time>
      </trkpt>
      <trkpt lat="43.23" lon="0.12374">
        <ele>395</ele>
        <time>2024-04-17T12:10:48Z</time>
      </trkpt>
      <trkpt lat="43.23004" lon="0.12375">
        <ele>395.4</ele>
        <time>2024-04-17T12:10:49Z</time>
      </trkpt>
      <trkpt lat="43.23007" lon="0.12376">
        <ele>395.4</ele>
        <time>2024-04-17T12:10:50Z</time>
      </trkpt>
      <trkpt lat="43.2301" lon="0.12376">
        <ele>395.4</ele>
        <time>2024-04-17T12:10:51Z</time>
      </trkpt>
      <trkpt lat="43.23014" lon="0.12377">
        <ele>395.6</ele>
        <time>2024-04-17T12:10:52Z</time>
      </trkpt>
      <trkpt lat="43.23017" lon="0.12377">
        <ele>395.6</ele>
        <time>2024-04-17T12:10:53Z</time>
      </trkpt>
      <trkpt lat="43.2302" lon="0.12378">
        <ele>395.6</ele>
        <time>2024-04-17T12:10:54Z</time>
      </trkpt>
      <trkpt lat="43.23024" lon="0.12378">
        <ele>395.8</ele>
        <time>2024-04-17T12:10:55Z</time>
      </trkpt>
      <trkpt lat="43.23027" lon="0.12378">
        <ele>395.8</ele>
        <time>2024-04-17T12:10:56Z</time>
      </trkpt>
      <trkpt lat="43.2303" lon="0.12378">
        <ele>396</ele>
        <time>2024-04-17T12:10:57Z</time>
      </trkpt>
      <trkpt lat="43.23033" lon="0.12378">
        <ele>396</ele>
        <time>2024-04-17T12:10:58Z</time>
      </trkpt>
      <trkpt lat="43.23036" lon="0.12378">
        <ele>396.2</ele>
        <time>2024-04-17T12:10:59Z</time>
      </trkpt>
      <trkpt lat="43.23039" lon="0.12378">
        <ele>396.2</ele>
        <time>2024-04-17T12:11:00Z</time>
      </trkpt>
      <trkpt lat="43.23042" lon="0.12378">
        <ele>396.4</ele>
        <time>2024-04-17T12:11:01Z</time>
      </trkpt>
      <trkpt lat="43.23046" lon="0.12378">
        <ele>396.4</ele>
        <time>2024-04-17T12:11:02Z</time>
      </trkpt>
      <trkpt lat="43.23049" lon="0.12377">
        <ele>396.6</ele>
        <time>2024-04-17T12:11:03Z</time>
      </trkpt>
      <trkpt lat="43.23052" lon="0.12377">
        <ele>396.8</ele>
        <time>2024-04-17T12:11:04Z</time>
      </trkpt>
      <trkpt lat="43.23056" lon="0.12376">
        <ele>396.8</ele>
        <time>2024-04-17T12:11:05Z</time>
      </trkpt>
      <trkpt lat="43.23059" lon="0.12376">
        <ele>397</ele>
        <time>2024-04-17T12:11:06Z</time>
      </trkpt>
      <trkpt lat="43.23062" lon="0.12376">
        <ele>397.4</ele>
        <time>2024-04-17T12:11:07Z</time>
      </trkpt>
      <trkpt lat="43.23065" lon="0.12375">
        <ele>397.4</ele>
        <time>2024-04-17T12:11:08Z</time>
      </trkpt>
      <trkpt lat="43.23068" lon="0.12375">
        <ele>397.4</ele>
        <time>2024-04-17T12:11:09Z</time>
      </trkpt>
      <trkpt lat="43.23071" lon="0.12375">
        <ele>397.6</ele>
        <time>2024-04-17T12:11:10Z</time>
      </trkpt>
      <trkpt lat="43.23074" lon="0.12374">
        <ele>397.6</ele>
        <time>2024-04-17T12:11:11Z</time>
      </trkpt>
      <trkpt lat="43.23076" lon="0.12374">
        <ele>398</ele>
        <time>2024-04-17T12:11:12Z</time>
      </trkpt>
      <trkpt lat="43.23079" lon="0.12375">
        <ele>398</ele>
        <time>2024-04-17T12:11:13Z</time>
      </trkpt>
      <trkpt lat="43.23081" lon="0.12375">
        <ele>398</ele>
        <time>2024-04-17T12:11:14Z</time>
      </trkpt>
      <trkpt lat="43.23084" lon="0.12375">
        <ele>398</ele>
        <time>2024-04-17T12:11:15Z</time>
      </trkpt>
      <trkpt lat="43.23087" lon="0.12375">
        <ele>398</ele>
        <time>2024-04-17T12:11:16Z</time>
      </trkpt>
      <trkpt lat="43.2309" lon="0.12375">
        <ele>398</ele>
        <time>2024-04-17T12:11:17Z</time>
      </trkpt>
      <trkpt lat="43.23094" lon="0.12375">
        <ele>398</ele>
        <time>2024-04-17T12:11:18Z</time>
      </trkpt>
      <trkpt lat="43.23097" lon="0.12375">
        <ele>398</ele>
        <time>2024-04-17T12:11:19Z</time>
      </trkpt>
      <trkpt lat="43.231" lon="0.12375">
        <ele>398</ele>
        <time>2024-04-17T12:11:20Z</time>
      </trkpt>
      <trkpt lat="43.23103" lon="0.12374">
        <ele>398.2</ele>
        <time>2024-04-17T12:11:21Z</time>
      </trkpt>
      <trkpt lat="43.23106" lon="0.12373">
        <ele>398.2</ele>
        <time>2024-04-17T12:11:22Z</time>
      </trkpt>
      <trkpt lat="43.23109" lon="0.12372">
        <ele>398.2</ele>
        <time>2024-04-17T12:11:23Z</time>
      </trkpt>
      <trkpt lat="43.23112" lon="0.12372">
        <ele>398</ele>
        <time>2024-04-17T12:11:24Z</time>
      </trkpt>
      <trkpt lat="43.23115" lon="0.12372">
        <ele>398</ele>
        <time>2024-04-17T12:11:25Z</time>
      </trkpt>
      <trkpt lat="43.23119" lon="0.12371">
        <ele>398</ele>
        <time>2024-04-17T12:11:26Z</time>
      </trkpt>
      <trkpt lat="43.23123" lon="0.12371">
        <ele>398</ele>
        <time>2024-04-17T12:11:27Z</time>
      </trkpt>
      <trkpt lat="43.23127" lon="0.1237">
        <ele>397.6</ele>
        <time>2024-04-17T12:11:28Z</time>
      </trkpt>
      <trkpt lat="43.23131" lon="0.1237">
        <ele>397.4</ele>
        <time>2024-04-17T12:11:29Z</time>
      </trkpt>
      <trkpt lat="43.23135" lon="0.1237">
        <ele>397.4</ele>
        <time>2024-04-17T12:11:30Z</time>
      </trkpt>
      <trkpt lat="43.2314" lon="0.1237">
        <ele>397.4</ele>
        <time>2024-04-17T12:11:31Z</time>
      </trkpt>
      <trkpt lat="43.23144" lon="0.1237">
        <ele>397</ele>
        <time>2024-04-17T12:11:32Z</time>
      </trkpt>
      <trkpt lat="43.23147" lon="0.12368">
        <ele>396.8</ele>
        <time>2024-04-17T12:11:33Z</time>
      </trkpt>
      <trkpt lat="43.23151" lon="0.12363">
        <ele>396.6</ele>
        <time>2024-04-17T12:11:34Z</time>
      </trkpt>
      <trkpt lat="43.23156" lon="0.12358">
        <ele>396.2</ele>
        <time>2024-04-17T12:11:35Z</time>
      </trkpt>
      <trkpt lat="43.23161" lon="0.12354">
        <ele>396.2</ele>
        <time>2024-04-17T12:11:36Z</time>
      </trkpt>
      <trkpt lat="43.23165" lon="0.12349">
        <ele>395.8</ele>
        <time>2024-04-17T12:11:37Z</time>
      </trkpt>
      <trkpt lat="43.23169" lon="0.12345">
        <ele>395.8</ele>
        <time>2024-04-17T12:11:38Z</time>
      </trkpt>
      <trkpt lat="43.23173" lon="0.12342">
        <ele>395.4</ele>
        <time>2024-04-17T12:11:39Z</time>
      </trkpt>
      <trkpt lat="43.23177" lon="0.12337">
        <ele>395</ele>
        <time>2024-04-17T12:11:40Z</time>
      </trkpt>
      <trkpt lat="43.23181" lon="0.12332">
        <ele>394.6</ele>
        <time>2024-04-17T12:11:41Z</time>
      </trkpt>
      <trkpt lat="43.23184" lon="0.12328">
        <ele>394.2</ele>
        <time>2024-04-17T12:11:42Z</time>
      </trkpt>
      <trkpt lat="43.23187" lon="0.12322">
        <ele>394.2</ele>
        <time>2024-04-17T12:11:43Z</time>
      </trkpt>
      <trkpt lat="43.23191" lon="0.12319">
        <ele>394</ele>
        <time>2024-04-17T12:11:44Z</time>
      </trkpt>
      <trkpt lat="43.23194" lon="0.12315">
        <ele>394</ele>
        <time>2024-04-17T12:11:45Z</time>
      </trkpt>
      <trkpt lat="43.23198" lon="0.12311">
        <ele>394</ele>
        <time>2024-04-17T12:11:46Z</time>
      </trkpt>
      <trkpt lat="43.23202" lon="0.12307">
        <ele>394</ele>
        <time>2024-04-17T12:11:47Z</time>
      </trkpt>
      <trkpt lat="43.23206" lon="0.12303">
        <ele>394</ele>
        <time>2024-04-17T12:11:48Z</time>
      </trkpt>
      <trkpt lat="43.23209" lon="0.12299">
        <ele>394.2</ele>
        <time>2024-04-17T12:11:49Z</time>
      </trkpt>
      <trkpt lat="43.23212" lon="0.12296">
        <ele>394.4</ele>
        <time>2024-04-17T12:11:50Z</time>
      </trkpt>
      <trkpt lat="43.23215" lon="0.12292">
        <ele>394.6</ele>
        <time>2024-04-17T12:11:51Z</time>
      </trkpt>
      <trkpt lat="43.23217" lon="0.12286">
        <ele>394.8</ele>
        <time>2024-04-17T12:11:52Z</time>
      </trkpt>
      <trkpt lat="43.23219" lon="0.12281">
        <ele>395</ele>
        <time>2024-04-17T12:11:53Z</time>
      </trkpt>
      <trkpt lat="43.23222" lon="0.12277">
        <ele>395</ele>
        <time>2024-04-17T12:11:54Z</time>
      </trkpt>
      <trkpt lat="43.23224" lon="0.12273">
        <ele>395</ele>
        <time>2024-04-17T12:11:55Z</time>
      </trkpt>
      <trkpt lat="43.23227" lon="0.1227">
        <ele>395.2</ele>
        <time>2024-04-17T12:11:56Z</time>
      </trkpt>
      <trkpt lat="43.2323" lon="0.12267">
        <ele>395.2</ele>
        <time>2024-04-17T12:11:57Z</time>
      </trkpt>
      <trkpt lat="43.23233" lon="0.12264">
        <ele>395.4</ele>
        <time>2024-04-17T12:11:58Z</time>
      </trkpt>
      <trkpt lat="43.23236" lon="0.12262">
        <ele>395.4</ele>
        <time>2024-04-17T12:11:59Z</time>
      </trkpt>
      <trkpt lat="43.23239" lon="0.12259">
        <ele>395.4</ele>
        <time>2024-04-17T12:12:00Z</time>
      </trkpt>
      <trkpt lat="43.23242" lon="0.12257">
        <ele>395.4</ele>
        <time>2024-04-17T12:12:01Z</time>
      </trkpt>
      <trkpt lat="43.23245" lon="0.12255">
        <ele>395.6</ele>
        <time>2024-04-17T12:12:02Z</time>
      </trkpt>
      <trkpt lat="43.23248" lon="0.12253">
        <ele>395.6</ele>
        <time>2024-04-17T12:12:03Z</time>
      </trkpt>
      <trkpt lat="43.2325" lon="0.12252">
        <ele>396</ele>
        <time>2024-04-17T12:12:04Z</time>
      </trkpt>
      <trkpt lat="43.23253" lon="0.1225">
        <ele>396.2</ele>
        <time>2024-04-17T12:12:05Z</time>
      </trkpt>
      <trkpt lat="43.23255" lon="0.12248">
        <ele>396.4</ele>
        <time>2024-04-17T12:12:06Z</time>
      </trkpt>
      <trkpt lat="43.23258" lon="0.12246">
        <ele>396.4</ele>
        <time>2024-04-17T12:12:07Z</time>
      </trkpt>
      <trkpt lat="43.23261" lon="0.12244">
        <ele>396.6</ele>
        <time>2024-04-17T12:12:08Z</time>
      </trkpt>
      <trkpt lat="43.23263" lon="0.12242">
        <ele>396.8</ele>
        <time>2024-04-17T12:12:09Z</time>
      </trkpt>
      <trkpt lat="43.23266" lon="0.1224">
        <ele>397</ele>
        <time>2024-04-17T12:12:10Z</time>
      </trkpt>
      <trkpt lat="43.23268" lon="0.12239">
        <ele>397.2</ele>
        <time>2024-04-17T12:12:11Z</time>
      </trkpt>
      <trkpt lat="43.2327" lon="0.12237">
        <ele>397.2</ele>
        <time>2024-04-17T12:12:12Z</time>
      </trkpt>
      <trkpt lat="43.23273" lon="0.12236">
        <ele>397.6</ele>
        <time>2024-04-17T12:12:13Z</time>
      </trkpt>
      <trkpt lat="43.23275" lon="0.12234">
        <ele>397.8</ele>
        <time>2024-04-17T12:12:14Z</time>
      </trkpt>
      <trkpt lat="43.23278" lon="0.12233">
        <ele>398</ele>
        <time>2024-04-17T12:12:15Z</time>
      </trkpt>
      <trkpt lat="43.2328" lon="0.12231">
        <ele>398.2</ele>
        <time>2024-04-17T12:12:16Z</time>
      </trkpt>
      <trkpt lat="43.23282" lon="0.1223">
        <ele>398.4</ele>
        <time>2024-04-17T12:12:17Z</time>
      </trkpt>
      <trkpt lat="43.23284" lon="0.12228">
        <ele>398.8</ele>
        <time>2024-04-17T12:12:18Z</time>
      </trkpt>
      <trkpt lat="43.23286" lon="0.12226">
        <ele>398.8</ele>
        <time>2024-04-17T12:12:19Z</time>
      </trkpt>
      <trkpt lat="43.23288" lon="0.12225">
        <ele>399.4</ele>
        <time>2024-04-17T12:12:20Z</time>
      </trkpt>
      <trkpt lat="43.2329" lon="0.12224">
        <ele>399.4</ele>
        <time>2024-04-17T12:12:21Z</time>
      </trkpt>
      <trkpt lat="43.23292" lon="0.12222">
        <ele>399.6</ele>
        <time>2024-04-17T12:12:22Z</time>
      </trkpt>
      <trkpt lat="43.23294" lon="0.12221">
        <ele>399.6</ele>
        <time>2024-04-17T12:12:23Z</time>
      </trkpt>
      <trkpt lat="43.23296" lon="0.12219">
        <ele>399.8</ele>
        <time>2024-04-17T12:12:24Z</time>
      </trkpt>
      <trkpt lat="43.23298" lon="0.12218">
        <ele>399.8</ele>
        <time>2024-04-17T12:12:25Z</time>
      </trkpt>
      <trkpt lat="43.23301" lon="0.12217">
        <ele>400</ele>
        <time>2024-04-17T12:12:26Z</time>
      </trkpt>
      <trkpt lat="43.23303" lon="0.12215">
        <ele>400</ele>
        <time>2024-04-17T12:12:27Z</time>
      </trkpt>
      <trkpt lat="43.23306" lon="0.12214">
        <ele>400.2</ele>
        <time>2024-04-17T12:12:28Z</time>
      </trkpt>
      <trkpt lat="43.23308" lon="0.12213">
        <ele>400.2</ele>
        <time>2024-04-17T12:12:29Z</time>
      </trkpt>
      <trkpt lat="43.2331" lon="0.12212">
        <ele>400.2</ele>
        <time>2024-04-17T12:12:30Z</time>
      </trkpt>
      <trkpt lat="43.23311" lon="0.12211">
        <ele>400.2</ele>
        <time>2024-04-17T12:12:31Z</time>
      </trkpt>
      <trkpt lat="43.23313" lon="0.1221">
        <ele>400.2</ele>
        <time>2024-04-17T12:12:32Z</time>
      </trkpt>
      <trkpt lat="43.23316" lon="0.12208">
        <ele>400.2</ele>
        <time>2024-04-17T12:12:33Z</time>
      </trkpt>
      <trkpt lat="43.23319" lon="0.12206">
        <ele>400.2</ele>
        <time>2024-04-17T12:12:34Z</time>
      </trkpt>
      <trkpt lat="43.23322" lon="0.12203">
        <ele>400.2</ele>
        <time>2024-04-17T12:12:35Z</time>
      </trkpt>
      <trkpt lat="43.23324" lon="0.12202">
        <ele>400.2</ele>
        <time>2024-04-17T12:12:36Z</time>
      </trkpt>
      <trkpt lat="43.23327" lon="0.122">
        <ele>400.2</ele>
        <time>2024-04-17T12:12:37Z</time>
      </trkpt>
      <trkpt lat="43.2333" lon="0.12198">
        <ele>399.8</ele>
        <time>2024-04-17T12:12:38Z</time>
      </trkpt>
      <trkpt lat="43.23334" lon="0.12196">
        <ele>399.8</ele>
        <time>2024-04-17T12:12:39Z</time>
      </trkpt>
      <trkpt lat="43.23337" lon="0.12194">
        <ele>399.8</ele>
        <time>2024-04-17T12:12:40Z</time>
      </trkpt>
      <trkpt lat="43.2334" lon="0.12191">
        <ele>399.6</ele>
        <time>2024-04-17T12:12:41Z</time>
      </trkpt>
      <trkpt lat="43.23344" lon="0.12188">
        <ele>399.4</ele>
        <time>2024-04-17T12:12:42Z</time>
      </trkpt>
      <trkpt lat="43.23348" lon="0.12184">
        <ele>399.2</ele>
        <time>2024-04-17T12:12:43Z</time>
      </trkpt>
      <trkpt lat="43.23352" lon="0.1218">
        <ele>399.2</ele>
        <time>2024-04-17T12:12:44Z</time>
      </trkpt>
      <trkpt lat="43.23357" lon="0.12178">
        <ele>399</ele>
        <time>2024-04-17T12:12:45Z</time>
      </trkpt>
      <trkpt lat="43.23362" lon="0.12176">
        <ele>398.6</ele>
        <time>2024-04-17T12:12:46Z</time>
      </trkpt>
      <trkpt lat="43.23367" lon="0.12173">
        <ele>398.6</ele>
        <time>2024-04-17T12:12:47Z</time>
      </trkpt>
      <trkpt lat="43.23372" lon="0.1217">
        <ele>398.4</ele>
        <time>2024-04-17T12:12:48Z</time>
      </trkpt>
      <trkpt lat="43.23378" lon="0.12167">
        <ele>398.2</ele>
        <time>2024-04-17T12:12:49Z</time>
      </trkpt>
      <trkpt lat="43.23384" lon="0.12165">
        <ele>398</ele>
        <time>2024-04-17T12:12:50Z</time>
      </trkpt>
      <trkpt lat="43.23391" lon="0.12162">
        <ele>398</ele>
        <time>2024-04-17T12:12:51Z</time>
      </trkpt>
      <trkpt lat="43.23398" lon="0.12159">
        <ele>397.6</ele>
        <time>2024-04-17T12:12:52Z</time>
      </trkpt>
      <trkpt lat="43.23406" lon="0.12155">
        <ele>397.2</ele>
        <time>2024-04-17T12:12:53Z</time>
      </trkpt>
      <trkpt lat="43.23414" lon="0.12151">
        <ele>397.2</ele>
        <time>2024-04-17T12:12:54Z</time>
      </trkpt>
      <trkpt lat="43.23422" lon="0.12148">
        <ele>396.8</ele>
        <time>2024-04-17T12:12:55Z</time>
      </trkpt>
      <trkpt lat="43.2343" lon="0.12144">
        <ele>396.4</ele>
        <time>2024-04-17T12:12:56Z</time>
      </trkpt>
      <trkpt lat="43.23437" lon="0.12141">
        <ele>395</ele>
        <time>2024-04-17T12:12:57Z</time>
      </trkpt>
      <trkpt lat="43.23446" lon="0.12136">
        <ele>394</ele>
        <time>2024-04-17T12:12:58Z</time>
      </trkpt>
      <trkpt lat="43.23453" lon="0.12132">
        <ele>392.4</ele>
        <time>2024-04-17T12:12:59Z</time>
      </trkpt>
      <trkpt lat="43.2346" lon="0.12129">
        <ele>391.8</ele>
        <time>2024-04-17T12:13:00Z</time>
      </trkpt>
      <trkpt lat="43.23467" lon="0.12125">
        <ele>391</ele>
        <time>2024-04-17T12:13:01Z</time>
      </trkpt>
      <trkpt lat="43.23473" lon="0.12121">
        <ele>390.8</ele>
        <time>2024-04-17T12:13:02Z</time>
      </trkpt>
      <trkpt lat="43.23478" lon="0.12118">
        <ele>390.6</ele>
        <time>2024-04-17T12:13:03Z</time>
      </trkpt>
      <trkpt lat="43.23483" lon="0.12116">
        <ele>390.4</ele>
        <time>2024-04-17T12:13:04Z</time>
      </trkpt>
      <trkpt lat="43.23487" lon="0.12114">
        <ele>390.4</ele>
        <time>2024-04-17T12:13:05Z</time>
      </trkpt>
      <trkpt lat="43.23491" lon="0.12112">
        <ele>390.4</ele>
        <time>2024-04-17T12:13:06Z</time>
      </trkpt>
      <trkpt lat="43.23494" lon="0.12111">
        <ele>390.4</ele>
        <time>2024-04-17T12:13:07Z</time>
      </trkpt>
      <trkpt lat="43.23497" lon="0.1211">
        <ele>390.6</ele>
        <time>2024-04-17T12:13:08Z</time>
      </trkpt>
      <trkpt lat="43.235" lon="0.12108">
        <ele>390.6</ele>
        <time>2024-04-17T12:13:09Z</time>
      </trkpt>
      <trkpt lat="43.23502" lon="0.12107">
        <ele>390.6</ele>
        <time>2024-04-17T12:13:10Z</time>
      </trkpt>
      <trkpt lat="43.23505" lon="0.12106">
        <ele>391</ele>
        <time>2024-04-17T12:13:11Z</time>
      </trkpt>
      <trkpt lat="43.23508" lon="0.12104">
        <ele>391</ele>
        <time>2024-04-17T12:13:12Z</time>
      </trkpt>
      <trkpt lat="43.23511" lon="0.12103">
        <ele>391</ele>
        <time>2024-04-17T12:13:13Z</time>
      </trkpt>
      <trkpt lat="43.23514" lon="0.12101">
        <ele>391.2</ele>
        <time>2024-04-17T12:13:14Z</time>
      </trkpt>
      <trkpt lat="43.23517" lon="0.121">
        <ele>391.2</ele>
        <time>2024-04-17T12:13:15Z</time>
      </trkpt>
      <trkpt lat="43.23521" lon="0.12098">
        <ele>391.2</ele>
        <time>2024-04-17T12:13:16Z</time>
      </trkpt>
      <trkpt lat="43.23525" lon="0.12096">
        <ele>391.2</ele>
        <time>2024-04-17T12:13:17Z</time>
      </trkpt>
      <trkpt lat="43.2353" lon="0.12093">
        <ele>391.2</ele>
        <time>2024-04-17T12:13:18Z</time>
      </trkpt>
      <trkpt lat="43.23535" lon="0.12091">
        <ele>391.2</ele>
        <time>2024-04-17T12:13:19Z</time>
      </trkpt>
      <trkpt lat="43.23539" lon="0.12088">
        <ele>390.6</ele>
        <time>2024-04-17T12:13:20Z</time>
      </trkpt>
      <trkpt lat="43.23544" lon="0.12086">
        <ele>390.4</ele>
        <time>2024-04-17T12:13:21Z</time>
      </trkpt>
      <trkpt lat="43.23548" lon="0.12083">
        <ele>390</ele>
        <time>2024-04-17T12:13:22Z</time>
      </trkpt>
      <trkpt lat="43.23553" lon="0.1208">
        <ele>389.8</ele>
        <time>2024-04-17T12:13:23Z</time>
      </trkpt>
      <trkpt lat="43.23557" lon="0.12078">
        <ele>389.6</ele>
        <time>2024-04-17T12:13:24Z</time>
      </trkpt>
      <trkpt lat="43.23561" lon="0.12076">
        <ele>389.4</ele>
        <time>2024-04-17T12:13:25Z</time>
      </trkpt>
      <trkpt lat="43.23566" lon="0.12073">
        <ele>389.4</ele>
        <time>2024-04-17T12:13:26Z</time>
      </trkpt>
      <trkpt lat="43.2357" lon="0.1207">
        <ele>389.2</ele>
        <time>2024-04-17T12:13:27Z</time>
      </trkpt>
      <trkpt lat="43.23575" lon="0.12067">
        <ele>389</ele>
        <time>2024-04-17T12:13:28Z</time>
      </trkpt>
      <trkpt lat="43.2358" lon="0.12066">
        <ele>388.8</ele>
        <time>2024-04-17T12:13:29Z</time>
      </trkpt>
      <trkpt lat="43.23585" lon="0.12063">
        <ele>388.6</ele>
        <time>2024-04-17T12:13:30Z</time>
      </trkpt>
      <trkpt lat="43.2359" lon="0.1206">
        <ele>388.4</ele>
        <time>2024-04-17T12:13:31Z</time>
      </trkpt>
      <trkpt lat="43.23596" lon="0.12056">
        <ele>388.2</ele>
        <time>2024-04-17T12:13:32Z</time>
      </trkpt>
      <trkpt lat="43.23603" lon="0.12053">
        <ele>388</ele>
        <time>2024-04-17T12:13:33Z</time>
      </trkpt>
      <trkpt lat="43.23609" lon="0.1205">
        <ele>388</ele>
        <time>2024-04-17T12:13:34Z</time>
      </trkpt>
      <trkpt lat="43.23614" lon="0.12047">
        <ele>387.4</ele>
        <time>2024-04-17T12:13:35Z</time>
      </trkpt>
      <trkpt lat="43.2362" lon="0.12045">
        <ele>387.2</ele>
        <time>2024-04-17T12:13:36Z</time>
      </trkpt>
      <trkpt lat="43.23625" lon="0.12042">
        <ele>387.2</ele>
        <time>2024-04-17T12:13:37Z</time>
      </trkpt>
      <trkpt lat="43.23629" lon="0.1204">
        <ele>387</ele>
        <time>2024-04-17T12:13:38Z</time>
      </trkpt>
      <trkpt lat="43.23634" lon="0.12038">
        <ele>387</ele>
        <time>2024-04-17T12:13:39Z</time>
      </trkpt>
      <trkpt lat="43.23638" lon="0.12035">
        <ele>386.8</ele>
        <time>2024-04-17T12:13:40Z</time>
      </trkpt>
      <trkpt lat="43.23642" lon="0.12032">
        <ele>386.8</ele>
        <time>2024-04-17T12:13:41Z</time>
      </trkpt>
      <trkpt lat="43.23646" lon="0.1203">
        <ele>386.8</ele>
        <time>2024-04-17T12:13:42Z</time>
      </trkpt>
      <trkpt lat="43.23649" lon="0.12028">
        <ele>386.8</ele>
        <time>2024-04-17T12:13:43Z</time>
      </trkpt>
      <trkpt lat="43.23653" lon="0.12025">
        <ele>386.6</ele>
        <time>2024-04-17T12:13:44Z</time>
      </trkpt>
      <trkpt lat="43.23657" lon="0.12022">
        <ele>386.8</ele>
        <time>2024-04-17T12:13:45Z</time>
      </trkpt>
      <trkpt lat="43.23661" lon="0.12019">
        <ele>387</ele>
        <time>2024-04-17T12:13:46Z</time>
      </trkpt>
      <trkpt lat="43.23664" lon="0.12018">
        <ele>387</ele>
        <time>2024-04-17T12:13:47Z</time>
      </trkpt>
      <trkpt lat="43.23668" lon="0.12016">
        <ele>387.2</ele>
        <time>2024-04-17T12:13:48Z</time>
      </trkpt>
      <trkpt lat="43.23672" lon="0.12015">
        <ele>387.2</ele>
        <time>2024-04-17T12:13:49Z</time>
      </trkpt>
      <trkpt lat="43.23676" lon="0.12013">
        <ele>387.4</ele>
        <time>2024-04-17T12:13:50Z</time>
      </trkpt>
      <trkpt lat="43.23679" lon="0.12011">
        <ele>387.4</ele>
        <time>2024-04-17T12:13:51Z</time>
      </trkpt>
      <trkpt lat="43.23683" lon="0.12009">
        <ele>387.6</ele>
        <time>2024-04-17T12:13:52Z</time>
      </trkpt>
      <trkpt lat="43.23687" lon="0.12008">
        <ele>387.8</ele>
        <time>2024-04-17T12:13:53Z</time>
      </trkpt>
      <trkpt lat="43.2369" lon="0.12007">
        <ele>388.2</ele>
        <time>2024-04-17T12:13:54Z</time>
      </trkpt>
      <trkpt lat="43.23694" lon="0.12006">
        <ele>388.2</ele>
        <time>2024-04-17T12:13:55Z</time>
      </trkpt>
      <trkpt lat="43.23698" lon="0.12005">
        <ele>388.4</ele>
        <time>2024-04-17T12:13:56Z</time>
      </trkpt>
      <trkpt lat="43.23701" lon="0.12004">
        <ele>388.4</ele>
        <time>2024-04-17T12:13:57Z</time>
      </trkpt>
      <trkpt lat="43.23705" lon="0.12002">
        <ele>388.6</ele>
        <time>2024-04-17T12:13:58Z</time>
      </trkpt>
      <trkpt lat="43.23709" lon="0.12">
        <ele>388.6</ele>
        <time>2024-04-17T12:13:59Z</time>
      </trkpt>
      <trkpt lat="43.23712" lon="0.11999">
        <ele>388.6</ele>
        <time>2024-04-17T12:14:00Z</time>
      </trkpt>
      <trkpt lat="43.23715" lon="0.11997">
        <ele>388.6</ele>
        <time>2024-04-17T12:14:01Z</time>
      </trkpt>
      <trkpt lat="43.23718" lon="0.11995">
        <ele>388.8</ele>
        <time>2024-04-17T12:14:02Z</time>
      </trkpt>
      <trkpt lat="43.23721" lon="0.11994">
        <ele>388.8</ele>
        <time>2024-04-17T12:14:03Z</time>
      </trkpt>
      <trkpt lat="43.23724" lon="0.11993">
        <ele>388.8</ele>
        <time>2024-04-17T12:14:04Z</time>
      </trkpt>
      <trkpt lat="43.23727" lon="0.11992">
        <ele>389</ele>
        <time>2024-04-17T12:14:05Z</time>
      </trkpt>
      <trkpt lat="43.2373" lon="0.11991">
        <ele>389.2</ele>
        <time>2024-04-17T12:14:06Z</time>
      </trkpt>
      <trkpt lat="43.23733" lon="0.1199">
        <ele>389.2</ele>
        <time>2024-04-17T12:14:07Z</time>
      </trkpt>
      <trkpt lat="43.23736" lon="0.11988">
        <ele>389.2</ele>
        <time>2024-04-17T12:14:08Z</time>
      </trkpt>
      <trkpt lat="43.23738" lon="0.11987">
        <ele>389.4</ele>
        <time>2024-04-17T12:14:09Z</time>
      </trkpt>
      <trkpt lat="43.23741" lon="0.11986">
        <ele>389.6</ele>
        <time>2024-04-17T12:14:10Z</time>
      </trkpt>
      <trkpt lat="43.23743" lon="0.11985">
        <ele>389.8</ele>
        <time>2024-04-17T12:14:11Z</time>
      </trkpt>
      <trkpt lat="43.23746" lon="0.11984">
        <ele>390</ele>
        <time>2024-04-17T12:14:12Z</time>
      </trkpt>
      <trkpt lat="43.2375" lon="0.11983">
        <ele>390</ele>
        <time>2024-04-17T12:14:13Z</time>
      </trkpt>
      <trkpt lat="43.23753" lon="0.11982">
        <ele>390</ele>
        <time>2024-04-17T12:14:14Z</time>
      </trkpt>
      <trkpt lat="43.23756" lon="0.1198">
        <ele>390</ele>
        <time>2024-04-17T12:14:15Z</time>
      </trkpt>
      <trkpt lat="43.23759" lon="0.11978">
        <ele>390.2</ele>
        <time>2024-04-17T12:14:16Z</time>
      </trkpt>
      <trkpt lat="43.23762" lon="0.11976">
        <ele>390.2</ele>
        <time>2024-04-17T12:14:17Z</time>
      </trkpt>
      <trkpt lat="43.23765" lon="0.11974">
        <ele>390.4</ele>
        <time>2024-04-17T12:14:18Z</time>
      </trkpt>
      <trkpt lat="43.23769" lon="0.11972">
        <ele>390.6</ele>
        <time>2024-04-17T12:14:19Z</time>
      </trkpt>
      <trkpt lat="43.23772" lon="0.1197">
        <ele>390.6</ele>
        <time>2024-04-17T12:14:20Z</time>
      </trkpt>
      <trkpt lat="43.23774" lon="0.11968">
        <ele>390.8</ele>
        <time>2024-04-17T12:14:21Z</time>
      </trkpt>
      <trkpt lat="43.23777" lon="0.11967">
        <ele>390.8</ele>
        <time>2024-04-17T12:14:22Z</time>
      </trkpt>
      <trkpt lat="43.2378" lon="0.11964">
        <ele>390.8</ele>
        <time>2024-04-17T12:14:23Z</time>
      </trkpt>
      <trkpt lat="43.23784" lon="0.1196">
        <ele>390.8</ele>
        <time>2024-04-17T12:14:24Z</time>
      </trkpt>
      <trkpt lat="43.23788" lon="0.11956">
        <ele>390.8</ele>
        <time>2024-04-17T12:14:25Z</time>
      </trkpt>
      <trkpt lat="43.23791" lon="0.11954">
        <ele>390.8</ele>
        <time>2024-04-17T12:14:26Z</time>
      </trkpt>
      <trkpt lat="43.23794" lon="0.11953">
        <ele>390.8</ele>
        <time>2024-04-17T12:14:27Z</time>
      </trkpt>
      <trkpt lat="43.23797" lon="0.11952">
        <ele>390.8</ele>
        <time>2024-04-17T12:14:28Z</time>
      </trkpt>
      <trkpt lat="43.238" lon="0.11951">
        <ele>390.8</ele>
        <time>2024-04-17T12:14:29Z</time>
      </trkpt>
      <trkpt lat="43.23803" lon="0.11949">
        <ele>391</ele>
        <time>2024-04-17T12:14:30Z</time>
      </trkpt>
      <trkpt lat="43.23806" lon="0.11946">
        <ele>390.8</ele>
        <time>2024-04-17T12:14:31Z</time>
      </trkpt>
      <trkpt lat="43.2381" lon="0.11944">
        <ele>390.8</ele>
        <time>2024-04-17T12:14:32Z</time>
      </trkpt>
      <trkpt lat="43.23813" lon="0.1194">
        <ele>390.6</ele>
        <time>2024-04-17T12:14:33Z</time>
      </trkpt>
      <trkpt lat="43.23817" lon="0.11936">
        <ele>390.6</ele>
        <time>2024-04-17T12:14:34Z</time>
      </trkpt>
      <trkpt lat="43.23821" lon="0.11933">
        <ele>390.4</ele>
        <time>2024-04-17T12:14:35Z</time>
      </trkpt>
      <trkpt lat="43.23824" lon="0.1193">
        <ele>390.4</ele>
        <time>2024-04-17T12:14:36Z</time>
      </trkpt>
      <trkpt lat="43.23827" lon="0.11926">
        <ele>390.4</ele>
        <time>2024-04-17T12:14:37Z</time>
      </trkpt>
      <trkpt lat="43.23831" lon="0.11924">
        <ele>390.2</ele>
        <time>2024-04-17T12:14:38Z</time>
      </trkpt>
      <trkpt lat="43.23834" lon="0.11922">
        <ele>390</ele>
        <time>2024-04-17T12:14:39Z</time>
      </trkpt>
      <trkpt lat="43.23839" lon="0.11918">
        <ele>389.8</ele>
        <time>2024-04-17T12:14:40Z</time>
      </trkpt>
      <trkpt lat="43.23844" lon="0.11914">
        <ele>389.8</ele>
        <time>2024-04-17T12:14:41Z</time>
      </trkpt>
      <trkpt lat="43.2385" lon="0.11909">
        <ele>389.4</ele>
        <time>2024-04-17T12:14:42Z</time>
      </trkpt>
      <trkpt lat="43.23856" lon="0.11904">
        <ele>389.2</ele>
        <time>2024-04-17T12:14:43Z</time>
      </trkpt>
      <trkpt lat="43.23861" lon="0.119">
        <ele>388.6</ele>
        <time>2024-04-17T12:14:44Z</time>
      </trkpt>
      <trkpt lat="43.23867" lon="0.11896">
        <ele>388.4</ele>
        <time>2024-04-17T12:14:45Z</time>
      </trkpt>
      <trkpt lat="43.23871" lon="0.11894">
        <ele>388.2</ele>
        <time>2024-04-17T12:14:46Z</time>
      </trkpt>
      <trkpt lat="43.23875" lon="0.11891">
        <ele>388</ele>
        <time>2024-04-17T12:14:47Z</time>
      </trkpt>
      <trkpt lat="43.23881" lon="0.11884">
        <ele>387.6</ele>
        <time>2024-04-17T12:14:48Z</time>
      </trkpt>
      <trkpt lat="43.23886" lon="0.1188">
        <ele>387.2</ele>
        <time>2024-04-17T12:14:49Z</time>
      </trkpt>
      <trkpt lat="43.23891" lon="0.11877">
        <ele>386.6</ele>
        <time>2024-04-17T12:14:50Z</time>
      </trkpt>
      <trkpt lat="43.23897" lon="0.11873">
        <ele>386.2</ele>
        <time>2024-04-17T12:14:51Z</time>
      </trkpt>
      <trkpt lat="43.23904" lon="0.11871">
        <ele>385.6</ele>
        <time>2024-04-17T12:14:52Z</time>
      </trkpt>
      <trkpt lat="43.2391" lon="0.1187">
        <ele>384.6</ele>
        <time>2024-04-17T12:14:53Z</time>
      </trkpt>
      <trkpt lat="43.23917" lon="0.11867">
        <ele>384</ele>
        <time>2024-04-17T12:14:54Z</time>
      </trkpt>
      <trkpt lat="43.23925" lon="0.11864">
        <ele>382.8</ele>
        <time>2024-04-17T12:14:55Z</time>
      </trkpt>
      <trkpt lat="43.23932" lon="0.1186">
        <ele>382.2</ele>
        <time>2024-04-17T12:14:56Z</time>
      </trkpt>
      <trkpt lat="43.23941" lon="0.11857">
        <ele>381.2</ele>
        <time>2024-04-17T12:14:57Z</time>
      </trkpt>
      <trkpt lat="43.23949" lon="0.11853">
        <ele>380.6</ele>
        <time>2024-04-17T12:14:58Z</time>
      </trkpt>
      <trkpt lat="43.23959" lon="0.11849">
        <ele>380</ele>
        <time>2024-04-17T12:14:59Z</time>
      </trkpt>
      <trkpt lat="43.23969" lon="0.11844">
        <ele>379.6</ele>
        <time>2024-04-17T12:15:00Z</time>
      </trkpt>
      <trkpt lat="43.2398" lon="0.11841">
        <ele>379.4</ele>
        <time>2024-04-17T12:15:01Z</time>
      </trkpt>
      <trkpt lat="43.23991" lon="0.11837">
        <ele>378.2</ele>
        <time>2024-04-17T12:15:02Z</time>
      </trkpt>
      <trkpt lat="43.24002" lon="0.11833">
        <ele>377.4</ele>
        <time>2024-04-17T12:15:03Z</time>
      </trkpt>
      <trkpt lat="43.24013" lon="0.11829">
        <ele>376</ele>
        <time>2024-04-17T12:15:04Z</time>
      </trkpt>
      <trkpt lat="43.24024" lon="0.11825">
        <ele>375.4</ele>
        <time>2024-04-17T12:15:05Z</time>
      </trkpt>
      <trkpt lat="43.24034" lon="0.11821">
        <ele>373.6</ele>
        <time>2024-04-17T12:15:06Z</time>
      </trkpt>
      <trkpt lat="43.24043" lon="0.11818">
        <ele>371.6</ele>
        <time>2024-04-17T12:15:07Z</time>
      </trkpt>
      <trkpt lat="43.24052" lon="0.11815">
        <ele>370.8</ele>
        <time>2024-04-17T12:15:08Z</time>
      </trkpt>
      <trkpt lat="43.2406" lon="0.11812">
        <ele>369.6</ele>
        <time>2024-04-17T12:15:09Z</time>
      </trkpt>
      <trkpt lat="43.24067" lon="0.11809">
        <ele>368.8</ele>
        <time>2024-04-17T12:15:10Z</time>
      </trkpt>
      <trkpt lat="43.24073" lon="0.11805">
        <ele>367</ele>
        <time>2024-04-17T12:15:11Z</time>
      </trkpt>
      <trkpt lat="43.24078" lon="0.11802">
        <ele>366.2</ele>
        <time>2024-04-17T12:15:12Z</time>
      </trkpt>
      <trkpt lat="43.24082" lon="0.118">
        <ele>365</ele>
        <time>2024-04-17T12:15:13Z</time>
      </trkpt>
      <trkpt lat="43.24086" lon="0.118">
        <ele>363.6</ele>
        <time>2024-04-17T12:15:14Z</time>
      </trkpt>
      <trkpt lat="43.24089" lon="0.11801">
        <ele>363.2</ele>
        <time>2024-04-17T12:15:15Z</time>
      </trkpt>
      <trkpt lat="43.24092" lon="0.11804">
        <ele>361.8</ele>
        <time>2024-04-17T12:15:16Z</time>
      </trkpt>
      <trkpt lat="43.24096" lon="0.11808">
        <ele>361.4</ele>
        <time>2024-04-17T12:15:17Z</time>
      </trkpt>
      <trkpt lat="43.24099" lon="0.11811">
        <ele>360.8</ele>
        <time>2024-04-17T12:15:18Z</time>
      </trkpt>
      <trkpt lat="43.24103" lon="0.11814">
        <ele>360.6</ele>
        <time>2024-04-17T12:15:19Z</time>
      </trkpt>
      <trkpt lat="43.24107" lon="0.11817">
        <ele>360.2</ele>
        <time>2024-04-17T12:15:20Z</time>
      </trkpt>
      <trkpt lat="43.2411" lon="0.1182">
        <ele>360.2</ele>
        <time>2024-04-17T12:15:21Z</time>
      </trkpt>
      <trkpt lat="43.24112" lon="0.11823">
        <ele>360</ele>
        <time>2024-04-17T12:15:22Z</time>
      </trkpt>
      <trkpt lat="43.24113" lon="0.11826">
        <ele>359.8</ele>
        <time>2024-04-17T12:15:23Z</time>
      </trkpt>
      <trkpt lat="43.24115" lon="0.11828">
        <ele>359.8</ele>
        <time>2024-04-17T12:15:24Z</time>
      </trkpt>
      <trkpt lat="43.24116" lon="0.1183">
        <ele>359.6</ele>
        <time>2024-04-17T12:15:25Z</time>
      </trkpt>
      <trkpt lat="43.24117" lon="0.11831">
        <ele>359.4</ele>
        <time>2024-04-17T12:15:26Z</time>
      </trkpt>
      <trkpt lat="43.24118" lon="0.11832">
        <ele>359.4</ele>
        <time>2024-04-17T12:15:27Z</time>
      </trkpt>
      <trkpt lat="43.2412" lon="0.11832">
        <ele>359.4</ele>
        <time>2024-04-17T12:15:28Z</time>
      </trkpt>
      <trkpt lat="43.24122" lon="0.11831">
        <ele>359.2</ele>
        <time>2024-04-17T12:15:29Z</time>
      </trkpt>
      <trkpt lat="43.24123" lon="0.11827">
        <ele>359.2</ele>
        <time>2024-04-17T12:15:30Z</time>
      </trkpt>
      <trkpt lat="43.24124" lon="0.11822">
        <ele>359</ele>
        <time>2024-04-17T12:15:31Z</time>
      </trkpt>
      <trkpt lat="43.24124" lon="0.11817">
        <ele>359</ele>
        <time>2024-04-17T12:15:32Z</time>
      </trkpt>
      <trkpt lat="43.24125" lon="0.11812">
        <ele>359</ele>
        <time>2024-04-17T12:15:33Z</time>
      </trkpt>
      <trkpt lat="43.24125" lon="0.11807">
        <ele>358.8</ele>
        <time>2024-04-17T12:15:34Z</time>
      </trkpt>
      <trkpt lat="43.24126" lon="0.11801">
        <ele>358.8</ele>
        <time>2024-04-17T12:15:35Z</time>
      </trkpt>
      <trkpt lat="43.24126" lon="0.11796">
        <ele>359</ele>
        <time>2024-04-17T12:15:36Z</time>
      </trkpt>
      <trkpt lat="43.24127" lon="0.1179">
        <ele>359</ele>
        <time>2024-04-17T12:15:37Z</time>
      </trkpt>
      <trkpt lat="43.24128" lon="0.11786">
        <ele>359</ele>
        <time>2024-04-17T12:15:38Z</time>
      </trkpt>
      <trkpt lat="43.24129" lon="0.11781">
        <ele>359</ele>
        <time>2024-04-17T12:15:39Z</time>
      </trkpt>
      <trkpt lat="43.24129" lon="0.11776">
        <ele>359</ele>
        <time>2024-04-17T12:15:40Z</time>
      </trkpt>
      <trkpt lat="43.2413" lon="0.11772">
        <ele>359</ele>
        <time>2024-04-17T12:15:41Z</time>
      </trkpt>
      <trkpt lat="43.24132" lon="0.11769">
        <ele>359</ele>
        <time>2024-04-17T12:15:42Z</time>
      </trkpt>
      <trkpt lat="43.24134" lon="0.11766">
        <ele>359.2</ele>
        <time>2024-04-17T12:15:43Z</time>
      </trkpt>
      <trkpt lat="43.24137" lon="0.11765">
        <ele>359.2</ele>
        <time>2024-04-17T12:15:44Z</time>
      </trkpt>
      <trkpt lat="43.2414" lon="0.11764">
        <ele>359.4</ele>
        <time>2024-04-17T12:15:45Z</time>
      </trkpt>
      <trkpt lat="43.24144" lon="0.11763">
        <ele>359.4</ele>
        <time>2024-04-17T12:15:46Z</time>
      </trkpt>
      <trkpt lat="43.24147" lon="0.11763">
        <ele>359.8</ele>
        <time>2024-04-17T12:15:47Z</time>
      </trkpt>
      <trkpt lat="43.2415" lon="0.11762">
        <ele>360</ele>
        <time>2024-04-17T12:15:48Z</time>
      </trkpt>
      <trkpt lat="43.24154" lon="0.11762">
        <ele>360</ele>
        <time>2024-04-17T12:15:49Z</time>
      </trkpt>
      <trkpt lat="43.24157" lon="0.11761">
        <ele>360.2</ele>
        <time>2024-04-17T12:15:50Z</time>
      </trkpt>
      <trkpt lat="43.2416" lon="0.11761">
        <ele>360.2</ele>
        <time>2024-04-17T12:15:51Z</time>
      </trkpt>
      <trkpt lat="43.24163" lon="0.11761">
        <ele>360.4</ele>
        <time>2024-04-17T12:15:52Z</time>
      </trkpt>
      <trkpt lat="43.24166" lon="0.1176">
        <ele>360.4</ele>
        <time>2024-04-17T12:15:53Z</time>
      </trkpt>
      <trkpt lat="43.24169" lon="0.1176">
        <ele>360.4</ele>
        <time>2024-04-17T12:15:54Z</time>
      </trkpt>
      <trkpt lat="43.24172" lon="0.1176">
        <ele>360.6</ele>
        <time>2024-04-17T12:15:55Z</time>
      </trkpt>
      <trkpt lat="43.24175" lon="0.11759">
        <ele>360.6</ele>
        <time>2024-04-17T12:15:56Z</time>
      </trkpt>
      <trkpt lat="43.24179" lon="0.11759">
        <ele>360.6</ele>
        <time>2024-04-17T12:15:57Z</time>
      </trkpt>
      <trkpt lat="43.24182" lon="0.11759">
        <ele>360.8</ele>
        <time>2024-04-17T12:15:58Z</time>
      </trkpt>
      <trkpt lat="43.24185" lon="0.11758">
        <ele>360.8</ele>
        <time>2024-04-17T12:15:59Z</time>
      </trkpt>
      <trkpt lat="43.24188" lon="0.11758">
        <ele>360.8</ele>
        <time>2024-04-17T12:16:00Z</time>
      </trkpt>
      <trkpt lat="43.24191" lon="0.11758">
        <ele>360.8</ele>
        <time>2024-04-17T12:16:01Z</time>
      </trkpt>
      <trkpt lat="43.24194" lon="0.11758">
        <ele>361</ele>
        <time>2024-04-17T12:16:02Z</time>
      </trkpt>
      <trkpt lat="43.24197" lon="0.11758">
        <ele>361</ele>
        <time>2024-04-17T12:16:03Z</time>
      </trkpt>
      <trkpt lat="43.24199" lon="0.11758">
        <ele>361.4</ele>
        <time>2024-04-17T12:16:04Z</time>
      </trkpt>
      <trkpt lat="43.24202" lon="0.11758">
        <ele>361.6</ele>
        <time>2024-04-17T12:16:05Z</time>
      </trkpt>
      <trkpt lat="43.24204" lon="0.11758">
        <ele>361.6</ele>
        <time>2024-04-17T12:16:06Z</time>
      </trkpt>
      <trkpt lat="43.24206" lon="0.11758">
        <ele>361.8</ele>
        <time>2024-04-17T12:16:07Z</time>
      </trkpt>
      <trkpt lat="43.24208" lon="0.11758">
        <ele>361.8</ele>
        <time>2024-04-17T12:16:08Z</time>
      </trkpt>
      <trkpt lat="43.24211" lon="0.11758">
        <ele>362.2</ele>
        <time>2024-04-17T12:16:09Z</time>
      </trkpt>
      <trkpt lat="43.24213" lon="0.11758">
        <ele>362.4</ele>
        <time>2024-04-17T12:16:10Z</time>
      </trkpt>
      <trkpt lat="43.24215" lon="0.11758">
        <ele>362.4</ele>
        <time>2024-04-17T12:16:11Z</time>
      </trkpt>
      <trkpt lat="43.24217" lon="0.11758">
        <ele>362.6</ele>
        <time>2024-04-17T12:16:12Z</time>
      </trkpt>
      <trkpt lat="43.24219" lon="0.11758">
        <ele>363</ele>
        <time>2024-04-17T12:16:13Z</time>
      </trkpt>
      <trkpt lat="43.2422" lon="0.11758">
        <ele>363.2</ele>
        <time>2024-04-17T12:16:14Z</time>
      </trkpt>
      <trkpt lat="43.24222" lon="0.11758">
        <ele>363.4</ele>
        <time>2024-04-17T12:16:15Z</time>
      </trkpt>
      <trkpt lat="43.24224" lon="0.11758">
        <ele>363.2</ele>
        <time>2024-04-17T12:16:16Z</time>
      </trkpt>
      <trkpt lat="43.24226" lon="0.11758">
        <ele>363.8</ele>
        <time>2024-04-17T12:16:17Z</time>
      </trkpt>
      <trkpt lat="43.24228" lon="0.11758">
        <ele>363.8</ele>
        <time>2024-04-17T12:16:18Z</time>
      </trkpt>
      <trkpt lat="43.24229" lon="0.11758">
        <ele>364.4</ele>
        <time>2024-04-17T12:16:19Z</time>
      </trkpt>
      <trkpt lat="43.24231" lon="0.11758">
        <ele>364.6</ele>
        <time>2024-04-17T12:16:20Z</time>
      </trkpt>
      <trkpt lat="43.24232" lon="0.11759">
        <ele>364.6</ele>
        <time>2024-04-17T12:16:21Z</time>
      </trkpt>
      <trkpt lat="43.24233" lon="0.1176">
        <ele>364.8</ele>
        <time>2024-04-17T12:16:22Z</time>
      </trkpt>
      <trkpt lat="43.24235" lon="0.11761">
        <ele>365</ele>
        <time>2024-04-17T12:16:23Z</time>
      </trkpt>
      <trkpt lat="43.24237" lon="0.11761">
        <ele>365.4</ele>
        <time>2024-04-17T12:16:24Z</time>
      </trkpt>
      <trkpt lat="43.24239" lon="0.11761">
        <ele>365.2</ele>
        <time>2024-04-17T12:16:25Z</time>
      </trkpt>
      <trkpt lat="43.2424" lon="0.11761">
        <ele>365.8</ele>
        <time>2024-04-17T12:16:26Z</time>
      </trkpt>
      <trkpt lat="43.24242" lon="0.11761">
        <ele>365.8</ele>
        <time>2024-04-17T12:16:27Z</time>
      </trkpt>
      <trkpt lat="43.24244" lon="0.11761">
        <ele>366.2</ele>
        <time>2024-04-17T12:16:28Z</time>
      </trkpt>
      <trkpt lat="43.24245" lon="0.11761">
        <ele>366.4</ele>
        <time>2024-04-17T12:16:29Z</time>
      </trkpt>
      <trkpt lat="43.24247" lon="0.11761">
        <ele>366.4</ele>
        <time>2024-04-17T12:16:30Z</time>
      </trkpt>
      <trkpt lat="43.24249" lon="0.11761">
        <ele>366.6</ele>
        <time>2024-04-17T12:16:31Z</time>
      </trkpt>
      <trkpt lat="43.24251" lon="0.11761">
        <ele>366.8</ele>
        <time>2024-04-17T12:16:32Z</time>
      </trkpt>
      <trkpt lat="43.24253" lon="0.11761">
        <ele>367.2</ele>
        <time>2024-04-17T12:16:33Z</time>
      </trkpt>
      <trkpt lat="43.24255" lon="0.11761">
        <ele>367.2</ele>
        <time>2024-04-17T12:16:34Z</time>
      </trkpt>
      <trkpt lat="43.24256" lon="0.11761">
        <ele>367.6</ele>
        <time>2024-04-17T12:16:35Z</time>
      </trkpt>
      <trkpt lat="43.24258" lon="0.11761">
        <ele>368</ele>
        <time>2024-04-17T12:16:36Z</time>
      </trkpt>
      <trkpt lat="43.2426" lon="0.11761">
        <ele>368</ele>
        <time>2024-04-17T12:16:37Z</time>
      </trkpt>
      <trkpt lat="43.24262" lon="0.11761">
        <ele>368.4</ele>
        <time>2024-04-17T12:16:38Z</time>
      </trkpt>
      <trkpt lat="43.24264" lon="0.11761">
        <ele>368.4</ele>
        <time>2024-04-17T12:16:39Z</time>
      </trkpt>
      <trkpt lat="43.24267" lon="0.11761">
        <ele>368.8</ele>
        <time>2024-04-17T12:16:40Z</time>
      </trkpt>
      <trkpt lat="43.24269" lon="0.11761">
        <ele>368.8</ele>
        <time>2024-04-17T12:16:41Z</time>
      </trkpt>
      <trkpt lat="43.2427" lon="0.11761">
        <ele>369</ele>
        <time>2024-04-17T12:16:42Z</time>
      </trkpt>
      <trkpt lat="43.24272" lon="0.1176">
        <ele>369.2</ele>
        <time>2024-04-17T12:16:43Z</time>
      </trkpt>
      <trkpt lat="43.24274" lon="0.1176">
        <ele>369.4</ele>
        <time>2024-04-17T12:16:44Z</time>
      </trkpt>
      <trkpt lat="43.24276" lon="0.1176">
        <ele>369.6</ele>
        <time>2024-04-17T12:16:45Z</time>
      </trkpt>
      <trkpt lat="43.24278" lon="0.1176">
        <ele>369.6</ele>
        <time>2024-04-17T12:16:46Z</time>
      </trkpt>
      <trkpt lat="43.24281" lon="0.11761">
        <ele>369.8</ele>
        <time>2024-04-17T12:16:47Z</time>
      </trkpt>
      <trkpt lat="43.24283" lon="0.11761">
        <ele>370</ele>
        <time>2024-04-17T12:16:48Z</time>
      </trkpt>
      <trkpt lat="43.24285" lon="0.1176">
        <ele>370.2</ele>
        <time>2024-04-17T12:16:49Z</time>
      </trkpt>
      <trkpt lat="43.24287" lon="0.11759">
        <ele>370.2</ele>
        <time>2024-04-17T12:16:50Z</time>
      </trkpt>
      <trkpt lat="43.2429" lon="0.11759">
        <ele>370.4</ele>
        <time>2024-04-17T12:16:51Z</time>
      </trkpt>
      <trkpt lat="43.24292" lon="0.11759">
        <ele>370.4</ele>
        <time>2024-04-17T12:16:52Z</time>
      </trkpt>
      <trkpt lat="43.24294" lon="0.11759">
        <ele>370.6</ele>
        <time>2024-04-17T12:16:53Z</time>
      </trkpt>
      <trkpt lat="43.24296" lon="0.11758">
        <ele>370.6</ele>
        <time>2024-04-17T12:16:54Z</time>
      </trkpt>
      <trkpt lat="43.24298" lon="0.11758">
        <ele>370.8</ele>
        <time>2024-04-17T12:16:55Z</time>
      </trkpt>
      <trkpt lat="43.24301" lon="0.11758">
        <ele>371</ele>
        <time>2024-04-17T12:16:56Z</time>
      </trkpt>
      <trkpt lat="43.24303" lon="0.11758">
        <ele>371</ele>
        <time>2024-04-17T12:16:57Z</time>
      </trkpt>
      <trkpt lat="43.24306" lon="0.11758">
        <ele>371.4</ele>
        <time>2024-04-17T12:16:58Z</time>
      </trkpt>
      <trkpt lat="43.24308" lon="0.11757">
        <ele>371.4</ele>
        <time>2024-04-17T12:16:59Z</time>
      </trkpt>
      <trkpt lat="43.24311" lon="0.11757">
        <ele>371.6</ele>
        <time>2024-04-17T12:17:00Z</time>
      </trkpt>
      <trkpt lat="43.24313" lon="0.11757">
        <ele>371.8</ele>
        <time>2024-04-17T12:17:01Z</time>
      </trkpt>
      <trkpt lat="43.24315" lon="0.11757">
        <ele>372</ele>
        <time>2024-04-17T12:17:02Z</time>
      </trkpt>
      <trkpt lat="43.24317" lon="0.11756">
        <ele>372.2</ele>
        <time>2024-04-17T12:17:03Z</time>
      </trkpt>
      <trkpt lat="43.2432" lon="0.11756">
        <ele>372.2</ele>
        <time>2024-04-17T12:17:04Z</time>
      </trkpt>
      <trkpt lat="43.24322" lon="0.11755">
        <ele>372.2</ele>
        <time>2024-04-17T12:17:05Z</time>
      </trkpt>
      <trkpt lat="43.24324" lon="0.11755">
        <ele>372.4</ele>
        <time>2024-04-17T12:17:06Z</time>
      </trkpt>
      <trkpt lat="43.24326" lon="0.11754">
        <ele>372.4</ele>
        <time>2024-04-17T12:17:07Z</time>
      </trkpt>
      <trkpt lat="43.24329" lon="0.11754">
        <ele>372.6</ele>
        <time>2024-04-17T12:17:08Z</time>
      </trkpt>
      <trkpt lat="43.24331" lon="0.11753">
        <ele>372.6</ele>
        <time>2024-04-17T12:17:09Z</time>
      </trkpt>
      <trkpt lat="43.24334" lon="0.11753">
        <ele>372.8</ele>
        <time>2024-04-17T12:17:10Z</time>
      </trkpt>
      <trkpt lat="43.24337" lon="0.11753">
        <ele>372.8</ele>
        <time>2024-04-17T12:17:11Z</time>
      </trkpt>
      <trkpt lat="43.2434" lon="0.11752">
        <ele>373</ele>
        <time>2024-04-17T12:17:12Z</time>
      </trkpt>
      <trkpt lat="43.24343" lon="0.11752">
        <ele>373</ele>
        <time>2024-04-17T12:17:13Z</time>
      </trkpt>
      <trkpt lat="43.24346" lon="0.11752">
        <ele>373</ele>
        <time>2024-04-17T12:17:14Z</time>
      </trkpt>
      <trkpt lat="43.2435" lon="0.11751">
        <ele>373.2</ele>
        <time>2024-04-17T12:17:15Z</time>
      </trkpt>
      <trkpt lat="43.24354" lon="0.11751">
        <ele>373.2</ele>
        <time>2024-04-17T12:17:16Z</time>
      </trkpt>
      <trkpt lat="43.24357" lon="0.1175">
        <ele>373.2</ele>
        <time>2024-04-17T12:17:17Z</time>
      </trkpt>
      <trkpt lat="43.24361" lon="0.11749">
        <ele>373.2</ele>
        <time>2024-04-17T12:17:18Z</time>
      </trkpt>
      <trkpt lat="43.24364" lon="0.11748">
        <ele>373.2</ele>
        <time>2024-04-17T12:17:19Z</time>
      </trkpt>
      <trkpt lat="43.24368" lon="0.11747">
        <ele>373.2</ele>
        <time>2024-04-17T12:17:20Z</time>
      </trkpt>
      <trkpt lat="43.24371" lon="0.11746">
        <ele>373</ele>
        <time>2024-04-17T12:17:21Z</time>
      </trkpt>
      <trkpt lat="43.24374" lon="0.11745">
        <ele>373</ele>
        <time>2024-04-17T12:17:22Z</time>
      </trkpt>
      <trkpt lat="43.24377" lon="0.11744">
        <ele>372.8</ele>
        <time>2024-04-17T12:17:23Z</time>
      </trkpt>
      <trkpt lat="43.2438" lon="0.11743">
        <ele>372.8</ele>
        <time>2024-04-17T12:17:24Z</time>
      </trkpt>
      <trkpt lat="43.24383" lon="0.11742">
        <ele>372.8</ele>
        <time>2024-04-17T12:17:25Z</time>
      </trkpt>
      <trkpt lat="43.24386" lon="0.11742">
        <ele>372.8</ele>
        <time>2024-04-17T12:17:26Z</time>
      </trkpt>
      <trkpt lat="43.24389" lon="0.11742">
        <ele>372.8</ele>
        <time>2024-04-17T12:17:27Z</time>
      </trkpt>
      <trkpt lat="43.24392" lon="0.11742">
        <ele>372.6</ele>
        <time>2024-04-17T12:17:28Z</time>
      </trkpt>
      <trkpt lat="43.24395" lon="0.1174">
        <ele>372.6</ele>
        <time>2024-04-17T12:17:29Z</time>
      </trkpt>
      <trkpt lat="43.24398" lon="0.1174">
        <ele>372.6</ele>
        <time>2024-04-17T12:17:30Z</time>
      </trkpt>
      <trkpt lat="43.24401" lon="0.11739">
        <ele>372.8</ele>
        <time>2024-04-17T12:17:31Z</time>
      </trkpt>
      <trkpt lat="43.24404" lon="0.11739">
        <ele>372.8</ele>
        <time>2024-04-17T12:17:32Z</time>
      </trkpt>
      <trkpt lat="43.24407" lon="0.11738">
        <ele>372.8</ele>
        <time>2024-04-17T12:17:33Z</time>
      </trkpt>
      <trkpt lat="43.24409" lon="0.11738">
        <ele>372.8</ele>
        <time>2024-04-17T12:17:34Z</time>
      </trkpt>
      <trkpt lat="43.24412" lon="0.11737">
        <ele>373</ele>
        <time>2024-04-17T12:17:35Z</time>
      </trkpt>
      <trkpt lat="43.24414" lon="0.11736">
        <ele>373</ele>
        <time>2024-04-17T12:17:36Z</time>
      </trkpt>
      <trkpt lat="43.24417" lon="0.11735">
        <ele>373.4</ele>
        <time>2024-04-17T12:17:37Z</time>
      </trkpt>
      <trkpt lat="43.24419" lon="0.11735">
        <ele>373.4</ele>
        <time>2024-04-17T12:17:38Z</time>
      </trkpt>
      <trkpt lat="43.24421" lon="0.11735">
        <ele>373.6</ele>
        <time>2024-04-17T12:17:39Z</time>
      </trkpt>
      <trkpt lat="43.24423" lon="0.11735">
        <ele>373.8</ele>
        <time>2024-04-17T12:17:40Z</time>
      </trkpt>
      <trkpt lat="43.24425" lon="0.11735">
        <ele>373.8</ele>
        <time>2024-04-17T12:17:41Z</time>
      </trkpt>
      <trkpt lat="43.24427" lon="0.11734">
        <ele>374</ele>
        <time>2024-04-17T12:17:42Z</time>
      </trkpt>
      <trkpt lat="43.2443" lon="0.11733">
        <ele>374.2</ele>
        <time>2024-04-17T12:17:43Z</time>
      </trkpt>
      <trkpt lat="43.24432" lon="0.11732">
        <ele>374.8</ele>
        <time>2024-04-17T12:17:44Z</time>
      </trkpt>
      <trkpt lat="43.24434" lon="0.1173">
        <ele>374.8</ele>
        <time>2024-04-17T12:17:45Z</time>
      </trkpt>
      <trkpt lat="43.24436" lon="0.1173">
        <ele>375.2</ele>
        <time>2024-04-17T12:17:46Z</time>
      </trkpt>
      <trkpt lat="43.24438" lon="0.11729">
        <ele>375.2</ele>
        <time>2024-04-17T12:17:47Z</time>
      </trkpt>
      <trkpt lat="43.24441" lon="0.11728">
        <ele>375.6</ele>
        <time>2024-04-17T12:17:48Z</time>
      </trkpt>
      <trkpt lat="43.24443" lon="0.11727">
        <ele>375.6</ele>
        <time>2024-04-17T12:17:49Z</time>
      </trkpt>
      <trkpt lat="43.24446" lon="0.11727">
        <ele>375.8</ele>
        <time>2024-04-17T12:17:50Z</time>
      </trkpt>
      <trkpt lat="43.24449" lon="0.11726">
        <ele>376</ele>
        <time>2024-04-17T12:17:51Z</time>
      </trkpt>
      <trkpt lat="43.24451" lon="0.11727">
        <ele>376.2</ele>
        <time>2024-04-17T12:17:52Z</time>
      </trkpt>
      <trkpt lat="43.24454" lon="0.11727">
        <ele>376.4</ele>
        <time>2024-04-17T12:17:53Z</time>
      </trkpt>
      <trkpt lat="43.24456" lon="0.11726">
        <ele>376.6</ele>
        <time>2024-04-17T12:17:54Z</time>
      </trkpt>
      <trkpt lat="43.24459" lon="0.11726">
        <ele>376.8</ele>
        <time>2024-04-17T12:17:55Z</time>
      </trkpt>
      <trkpt lat="43.24462" lon="0.11725">
        <ele>377</ele>
        <time>2024-04-17T12:17:56Z</time>
      </trkpt>
      <trkpt lat="43.24464" lon="0.11725">
        <ele>377.2</ele>
        <time>2024-04-17T12:17:57Z</time>
      </trkpt>
      <trkpt lat="43.24467" lon="0.11725">
        <ele>377.4</ele>
        <time>2024-04-17T12:17:58Z</time>
      </trkpt>
      <trkpt lat="43.24469" lon="0.11724">
        <ele>377.6</ele>
        <time>2024-04-17T12:17:59Z</time>
      </trkpt>
      <trkpt lat="43.24471" lon="0.11723">
        <ele>377.8</ele>
        <time>2024-04-17T12:18:00Z</time>
      </trkpt>
      <trkpt lat="43.24472" lon="0.1172">
        <ele>377.8</ele>
        <time>2024-04-17T12:18:01Z</time>
      </trkpt>
      <trkpt lat="43.24473" lon="0.11716">
        <ele>378</ele>
        <time>2024-04-17T12:18:02Z</time>
      </trkpt>
      <trkpt lat="43.24473" lon="0.11713">
        <ele>378</ele>
        <time>2024-04-17T12:18:03Z</time>
      </trkpt>
      <trkpt lat="43.24474" lon="0.1171">
        <ele>378.2</ele>
        <time>2024-04-17T12:18:04Z</time>
      </trkpt>
      <trkpt lat="43.24474" lon="0.11707">
        <ele>378.4</ele>
        <time>2024-04-17T12:18:05Z</time>
      </trkpt>
      <trkpt lat="43.24474" lon="0.11705">
        <ele>378.6</ele>
        <time>2024-04-17T12:18:06Z</time>
      </trkpt>
      <trkpt lat="43.24474" lon="0.11702">
        <ele>378.6</ele>
        <time>2024-04-17T12:18:07Z</time>
      </trkpt>
      <trkpt lat="43.24473" lon="0.11698">
        <ele>378.6</ele>
        <time>2024-04-17T12:18:08Z</time>
      </trkpt>
      <trkpt lat="43.24473" lon="0.11695">
        <ele>378.6</ele>
        <time>2024-04-17T12:18:09Z</time>
      </trkpt>
      <trkpt lat="43.24473" lon="0.11691">
        <ele>378.6</ele>
        <time>2024-04-17T12:18:10Z</time>
      </trkpt>
      <trkpt lat="43.24473" lon="0.11686">
        <ele>378.6</ele>
        <time>2024-04-17T12:18:11Z</time>
      </trkpt>
      <trkpt lat="43.24472" lon="0.11681">
        <ele>378.6</ele>
        <time>2024-04-17T12:18:12Z</time>
      </trkpt>
      <trkpt lat="43.24472" lon="0.11675">
        <ele>378.6</ele>
        <time>2024-04-17T12:18:13Z</time>
      </trkpt>
      <trkpt lat="43.24474" lon="0.1167">
        <ele>378.6</ele>
        <time>2024-04-17T12:18:14Z</time>
      </trkpt>
      <trkpt lat="43.24475" lon="0.11667">
        <ele>378.6</ele>
        <time>2024-04-17T12:18:15Z</time>
      </trkpt>
      <trkpt lat="43.24477" lon="0.11665">
        <ele>378.4</ele>
        <time>2024-04-17T12:18:16Z</time>
      </trkpt>
      <trkpt lat="43.2448" lon="0.11664">
        <ele>378.4</ele>
        <time>2024-04-17T12:18:17Z</time>
      </trkpt>
      <trkpt lat="43.24483" lon="0.11662">
        <ele>378.2</ele>
        <time>2024-04-17T12:18:18Z</time>
      </trkpt>
      <trkpt lat="43.24486" lon="0.11661">
        <ele>378.2</ele>
        <time>2024-04-17T12:18:19Z</time>
      </trkpt>
      <trkpt lat="43.2449" lon="0.1166">
        <ele>378.2</ele>
        <time>2024-04-17T12:18:20Z</time>
      </trkpt>
      <trkpt lat="43.24492" lon="0.11659">
        <ele>378.2</ele>
        <time>2024-04-17T12:18:21Z</time>
      </trkpt>
      <trkpt lat="43.24495" lon="0.11658">
        <ele>378.2</ele>
        <time>2024-04-17T12:18:22Z</time>
      </trkpt>
      <trkpt lat="43.24498" lon="0.11658">
        <ele>378.2</ele>
        <time>2024-04-17T12:18:23Z</time>
      </trkpt>
      <trkpt lat="43.24501" lon="0.11656">
        <ele>378.2</ele>
        <time>2024-04-17T12:18:24Z</time>
      </trkpt>
      <trkpt lat="43.24503" lon="0.11655">
        <ele>378.2</ele>
        <time>2024-04-17T12:18:25Z</time>
      </trkpt>
      <trkpt lat="43.24505" lon="0.11653">
        <ele>378.2</ele>
        <time>2024-04-17T12:18:26Z</time>
      </trkpt>
      <trkpt lat="43.24507" lon="0.11653">
        <ele>378.6</ele>
        <time>2024-04-17T12:18:27Z</time>
      </trkpt>
      <trkpt lat="43.24509" lon="0.11651">
        <ele>378.8</ele>
        <time>2024-04-17T12:18:28Z</time>
      </trkpt>
      <trkpt lat="43.24511" lon="0.11651">
        <ele>379.2</ele>
        <time>2024-04-17T12:18:29Z</time>
      </trkpt>
      <trkpt lat="43.24512" lon="0.1165">
        <ele>379.2</ele>
        <time>2024-04-17T12:18:30Z</time>
      </trkpt>
      <trkpt lat="43.24513" lon="0.11649">
        <ele>379.6</ele>
        <time>2024-04-17T12:18:31Z</time>
      </trkpt>
      <trkpt lat="43.24515" lon="0.11648">
        <ele>379.8</ele>
        <time>2024-04-17T12:18:32Z</time>
      </trkpt>
      <trkpt lat="43.24516" lon="0.11648">
        <ele>379.8</ele>
        <time>2024-04-17T12:18:33Z</time>
      </trkpt>
      <trkpt lat="43.24517" lon="0.11647">
        <ele>380</ele>
        <time>2024-04-17T12:18:34Z</time>
      </trkpt>
      <trkpt lat="43.24518" lon="0.11647">
        <ele>380.2</ele>
        <time>2024-04-17T12:18:35Z</time>
      </trkpt>
      <trkpt lat="43.24518" lon="0.11645">
        <ele>380.2</ele>
        <time>2024-04-17T12:18:36Z</time>
      </trkpt>
      <trkpt lat="43.24518" lon="0.11643">
        <ele>380.2</ele>
        <time>2024-04-17T12:18:37Z</time>
      </trkpt>
      <trkpt lat="43.24517" lon="0.11641">
        <ele>380.4</ele>
        <time>2024-04-17T12:18:38Z</time>
      </trkpt>
      <trkpt lat="43.24517" lon="0.1164">
        <ele>380.4</ele>
        <time>2024-04-17T12:18:39Z</time>
      </trkpt>
      <trkpt lat="43.24517" lon="0.11639">
        <ele>380.4</ele>
        <time>2024-04-17T12:18:40Z</time>
      </trkpt>
      <trkpt lat="43.24518" lon="0.11637">
        <ele>380.4</ele>
        <time>2024-04-17T12:18:41Z</time>
      </trkpt>
      <trkpt lat="43.24518" lon="0.11636">
        <ele>380.4</ele>
        <time>2024-04-17T12:18:42Z</time>
      </trkpt>
      <trkpt lat="43.24518" lon="0.11634">
        <ele>380.4</ele>
        <time>2024-04-17T12:18:43Z</time>
      </trkpt>
      <trkpt lat="43.24518" lon="0.11633">
        <ele>380.2</ele>
        <time>2024-04-17T12:18:44Z</time>
      </trkpt>
      <trkpt lat="43.24518" lon="0.11633">
        <ele>380.2</ele>
        <time>2024-04-17T12:18:45Z</time>
      </trkpt>
      <trkpt lat="43.24517" lon="0.11632">
        <ele>380</ele>
        <time>2024-04-17T12:18:46Z</time>
      </trkpt>
      <trkpt lat="43.24517" lon="0.1163">
        <ele>380</ele>
        <time>2024-04-17T12:18:47Z</time>
      </trkpt>
      <trkpt lat="43.24515" lon="0.11627">
        <ele>380</ele>
        <time>2024-04-17T12:18:48Z</time>
      </trkpt>
      <trkpt lat="43.24512" lon="0.11626">
        <ele>379.8</ele>
        <time>2024-04-17T12:18:49Z</time>
      </trkpt>
      <trkpt lat="43.24509" lon="0.11626">
        <ele>379.6</ele>
        <time>2024-04-17T12:18:50Z</time>
      </trkpt>
      <trkpt lat="43.24505" lon="0.11627">
        <ele>379.6</ele>
        <time>2024-04-17T12:18:51Z</time>
      </trkpt>
      <trkpt lat="43.24501" lon="0.11627">
        <ele>379.4</ele>
        <time>2024-04-17T12:18:52Z</time>
      </trkpt>
      <trkpt lat="43.24496" lon="0.11627">
        <ele>379.2</ele>
        <time>2024-04-17T12:18:53Z</time>
      </trkpt>
      <trkpt lat="43.2449" lon="0.11628">
        <ele>378.8</ele>
        <time>2024-04-17T12:18:54Z</time>
      </trkpt>
      <trkpt lat="43.24483" lon="0.1163">
        <ele>378.8</ele>
        <time>2024-04-17T12:18:55Z</time>
      </trkpt>
      <trkpt lat="43.24477" lon="0.11631">
        <ele>378.4</ele>
        <time>2024-04-17T12:18:56Z</time>
      </trkpt>
      <trkpt lat="43.24471" lon="0.11632">
        <ele>377.8</ele>
        <time>2024-04-17T12:18:57Z</time>
      </trkpt>
      <trkpt lat="43.24463" lon="0.11634">
        <ele>377.2</ele>
        <time>2024-04-17T12:18:58Z</time>
      </trkpt>
      <trkpt lat="43.24455" lon="0.11635">
        <ele>376.2</ele>
        <time>2024-04-17T12:18:59Z</time>
      </trkpt>
      <trkpt lat="43.24446" lon="0.11634">
        <ele>375.8</ele>
        <time>2024-04-17T12:19:00Z</time>
      </trkpt>
      <trkpt lat="43.24437" lon="0.11635">
        <ele>374.6</ele>
        <time>2024-04-17T12:19:01Z</time>
      </trkpt>
      <trkpt lat="43.24428" lon="0.11636">
        <ele>374.2</ele>
        <time>2024-04-17T12:19:02Z</time>
      </trkpt>
      <trkpt lat="43.24421" lon="0.11637">
        <ele>372.2</ele>
        <time>2024-04-17T12:19:03Z</time>
      </trkpt>
      <trkpt lat="43.24413" lon="0.11635">
        <ele>371.6</ele>
        <time>2024-04-17T12:19:04Z</time>
      </trkpt>
      <trkpt lat="43.24407" lon="0.11633">
        <ele>370</ele>
        <time>2024-04-17T12:19:05Z</time>
      </trkpt>
      <trkpt lat="43.24401" lon="0.11631">
        <ele>368.6</ele>
        <time>2024-04-17T12:19:06Z</time>
      </trkpt>
      <trkpt lat="43.24397" lon="0.11629">
        <ele>367.8</ele>
        <time>2024-04-17T12:19:07Z</time>
      </trkpt>
      <trkpt lat="43.24394" lon="0.11627">
        <ele>366.8</ele>
        <time>2024-04-17T12:19:08Z</time>
      </trkpt>
      <trkpt lat="43.24393" lon="0.11623">
        <ele>366.4</ele>
        <time>2024-04-17T12:19:09Z</time>
      </trkpt>
      <trkpt lat="43.24395" lon="0.11618">
        <ele>365.6</ele>
        <time>2024-04-17T12:19:10Z</time>
      </trkpt>
      <trkpt lat="43.24397" lon="0.11615">
        <ele>365.2</ele>
        <time>2024-04-17T12:19:11Z</time>
      </trkpt>
      <trkpt lat="43.244" lon="0.11611">
        <ele>364.4</ele>
        <time>2024-04-17T12:19:12Z</time>
      </trkpt>
      <trkpt lat="43.24402" lon="0.11607">
        <ele>363.4</ele>
        <time>2024-04-17T12:19:13Z</time>
      </trkpt>
      <trkpt lat="43.24405" lon="0.11603">
        <ele>362.8</ele>
        <time>2024-04-17T12:19:14Z</time>
      </trkpt>
      <trkpt lat="43.24408" lon="0.11597">
        <ele>361</ele>
        <time>2024-04-17T12:19:15Z</time>
      </trkpt>
      <trkpt lat="43.24412" lon="0.11592">
        <ele>360.4</ele>
        <time>2024-04-17T12:19:16Z</time>
      </trkpt>
      <trkpt lat="43.24416" lon="0.11586">
        <ele>359</ele>
        <time>2024-04-17T12:19:17Z</time>
      </trkpt>
      <trkpt lat="43.24421" lon="0.1158">
        <ele>358.4</ele>
        <time>2024-04-17T12:19:18Z</time>
      </trkpt>
      <trkpt lat="43.24426" lon="0.11575">
        <ele>356.8</ele>
        <time>2024-04-17T12:19:19Z</time>
      </trkpt>
      <trkpt lat="43.24431" lon="0.1157">
        <ele>354.6</ele>
        <time>2024-04-17T12:19:20Z</time>
      </trkpt>
      <trkpt lat="43.24434" lon="0.11564">
        <ele>352.4</ele>
        <time>2024-04-17T12:19:21Z</time>
      </trkpt>
      <trkpt lat="43.24436" lon="0.11557">
        <ele>351.4</ele>
        <time>2024-04-17T12:19:22Z</time>
      </trkpt>
      <trkpt lat="43.24437" lon="0.11552">
        <ele>351.2</ele>
        <time>2024-04-17T12:19:23Z</time>
      </trkpt>
      <trkpt lat="43.24437" lon="0.11546">
        <ele>350.6</ele>
        <time>2024-04-17T12:19:24Z</time>
      </trkpt>
      <trkpt lat="43.24437" lon="0.11539">
        <ele>350</ele>
        <time>2024-04-17T12:19:25Z</time>
      </trkpt>
      <trkpt lat="43.24437" lon="0.11534">
        <ele>348.2</ele>
        <time>2024-04-17T12:19:26Z</time>
      </trkpt>
      <trkpt lat="43.24438" lon="0.11529">
        <ele>347.4</ele>
        <time>2024-04-17T12:19:27Z</time>
      </trkpt>
      <trkpt lat="43.2444" lon="0.11526">
        <ele>346.2</ele>
        <time>2024-04-17T12:19:28Z</time>
      </trkpt>
      <trkpt lat="43.24441" lon="0.11523">
        <ele>345.6</ele>
        <time>2024-04-17T12:19:29Z</time>
      </trkpt>
      <trkpt lat="43.24442" lon="0.11519">
        <ele>345</ele>
        <time>2024-04-17T12:19:30Z</time>
      </trkpt>
      <trkpt lat="43.24444" lon="0.11515">
        <ele>344.4</ele>
        <time>2024-04-17T12:19:31Z</time>
      </trkpt>
      <trkpt lat="43.24445" lon="0.11511">
        <ele>344.2</ele>
        <time>2024-04-17T12:19:32Z</time>
      </trkpt>
      <trkpt lat="43.24445" lon="0.11506">
        <ele>343.8</ele>
        <time>2024-04-17T12:19:33Z</time>
      </trkpt>
      <trkpt lat="43.24447" lon="0.11501">
        <ele>343.6</ele>
        <time>2024-04-17T12:19:34Z</time>
      </trkpt>
      <trkpt lat="43.2445" lon="0.11494">
        <ele>342.8</ele>
        <time>2024-04-17T12:19:35Z</time>
      </trkpt>
      <trkpt lat="43.24452" lon="0.11487">
        <ele>342.4</ele>
        <time>2024-04-17T12:19:36Z</time>
      </trkpt>
      <trkpt lat="43.24454" lon="0.1148">
        <ele>342</ele>
        <time>2024-04-17T12:19:37Z</time>
      </trkpt>
      <trkpt lat="43.24457" lon="0.11473">
        <ele>341.4</ele>
        <time>2024-04-17T12:19:38Z</time>
      </trkpt>
      <trkpt lat="43.2446" lon="0.11467">
        <ele>341.2</ele>
        <time>2024-04-17T12:19:39Z</time>
      </trkpt>
      <trkpt lat="43.24463" lon="0.11461">
        <ele>340.8</ele>
        <time>2024-04-17T12:19:40Z</time>
      </trkpt>
      <trkpt lat="43.24464" lon="0.11457">
        <ele>340.6</ele>
        <time>2024-04-17T12:19:41Z</time>
      </trkpt>
      <trkpt lat="43.24465" lon="0.11452">
        <ele>340.4</ele>
        <time>2024-04-17T12:19:42Z</time>
      </trkpt>
      <trkpt lat="43.24464" lon="0.11447">
        <ele>340.4</ele>
        <time>2024-04-17T12:19:43Z</time>
      </trkpt>
      <trkpt lat="43.24462" lon="0.11443">
        <ele>339.8</ele>
        <time>2024-04-17T12:19:44Z</time>
      </trkpt>
      <trkpt lat="43.24459" lon="0.11439">
        <ele>339.4</ele>
        <time>2024-04-17T12:19:45Z</time>
      </trkpt>
      <trkpt lat="43.24455" lon="0.11435">
        <ele>338.6</ele>
        <time>2024-04-17T12:19:46Z</time>
      </trkpt>
      <trkpt lat="43.24449" lon="0.11432">
        <ele>337.8</ele>
        <time>2024-04-17T12:19:47Z</time>
      </trkpt>
      <trkpt lat="43.24441" lon="0.11428">
        <ele>337.4</ele>
        <time>2024-04-17T12:19:48Z</time>
      </trkpt>
      <trkpt lat="43.24433" lon="0.11425">
        <ele>336.6</ele>
        <time>2024-04-17T12:19:49Z</time>
      </trkpt>
      <trkpt lat="43.24426" lon="0.11422">
        <ele>336.2</ele>
        <time>2024-04-17T12:19:50Z</time>
      </trkpt>
      <trkpt lat="43.24421" lon="0.11418">
        <ele>334.8</ele>
        <time>2024-04-17T12:19:51Z</time>
      </trkpt>
      <trkpt lat="43.24417" lon="0.11416">
        <ele>334.2</ele>
        <time>2024-04-17T12:19:52Z</time>
      </trkpt>
      <trkpt lat="43.24414" lon="0.11413">
        <ele>333</ele>
        <time>2024-04-17T12:19:53Z</time>
      </trkpt>
      <trkpt lat="43.24411" lon="0.11412">
        <ele>330.8</ele>
        <time>2024-04-17T12:19:54Z</time>
      </trkpt>
      <trkpt lat="43.24407" lon="0.11411">
        <ele>330.4</ele>
        <time>2024-04-17T12:19:55Z</time>
      </trkpt>
      <trkpt lat="43.24403" lon="0.1141">
        <ele>329.6</ele>
        <time>2024-04-17T12:19:56Z</time>
      </trkpt>
      <trkpt lat="43.244" lon="0.11407">
        <ele>329.4</ele>
        <time>2024-04-17T12:19:57Z</time>
      </trkpt>
      <trkpt lat="43.24398" lon="0.11404">
        <ele>327.8</ele>
        <time>2024-04-17T12:19:58Z</time>
      </trkpt>
      <trkpt lat="43.24396" lon="0.11399">
        <ele>327.2</ele>
        <time>2024-04-17T12:19:59Z</time>
      </trkpt>
      <trkpt lat="43.24396" lon="0.11395">
        <ele>326.2</ele>
        <time>2024-04-17T12:20:00Z</time>
      </trkpt>
      <trkpt lat="43.24397" lon="0.11392">
        <ele>325.4</ele>
        <time>2024-04-17T12:20:01Z</time>
      </trkpt>
      <trkpt lat="43.24398" lon="0.11388">
        <ele>324.4</ele>
        <time>2024-04-17T12:20:02Z</time>
      </trkpt>
      <trkpt lat="43.244" lon="0.11385">
        <ele>323.6</ele>
        <time>2024-04-17T12:20:03Z</time>
      </trkpt>
      <trkpt lat="43.24401" lon="0.11381">
        <ele>323</ele>
        <time>2024-04-17T12:20:04Z</time>
      </trkpt>
      <trkpt lat="43.244" lon="0.11377">
        <ele>320.4</ele>
        <time>2024-04-17T12:20:05Z</time>
      </trkpt>
      <trkpt lat="43.24398" lon="0.11372">
        <ele>319.8</ele>
        <time>2024-04-17T12:20:06Z</time>
      </trkpt>
      <trkpt lat="43.24395" lon="0.11368">
        <ele>319</ele>
        <time>2024-04-17T12:20:07Z</time>
      </trkpt>
      <trkpt lat="43.24392" lon="0.11364">
        <ele>318.6</ele>
        <time>2024-04-17T12:20:08Z</time>
      </trkpt>
      <trkpt lat="43.24389" lon="0.11363">
        <ele>318</ele>
        <time>2024-04-17T12:20:09Z</time>
      </trkpt>
      <trkpt lat="43.24388" lon="0.11361">
        <ele>317.4</ele>
        <time>2024-04-17T12:20:10Z</time>
      </trkpt>
      <trkpt lat="43.24387" lon="0.11358">
        <ele>316.6</ele>
        <time>2024-04-17T12:20:11Z</time>
      </trkpt>
      <trkpt lat="43.24387" lon="0.11354">
        <ele>316</ele>
        <time>2024-04-17T12:20:12Z</time>
      </trkpt>
      <trkpt lat="43.24385" lon="0.1135">
        <ele>315.8</ele>
        <time>2024-04-17T12:20:13Z</time>
      </trkpt>
      <trkpt lat="43.24383" lon="0.11347">
        <ele>315.4</ele>
        <time>2024-04-17T12:20:14Z</time>
      </trkpt>
      <trkpt lat="43.2438" lon="0.11344">
        <ele>315.4</ele>
        <time>2024-04-17T12:20:15Z</time>
      </trkpt>
      <trkpt lat="43.24377" lon="0.11343">
        <ele>315.2</ele>
        <time>2024-04-17T12:20:16Z</time>
      </trkpt>
      <trkpt lat="43.24375" lon="0.11342">
        <ele>314.8</ele>
        <time>2024-04-17T12:20:17Z</time>
      </trkpt>
      <trkpt lat="43.24375" lon="0.11342">
        <ele>314.6</ele>
        <time>2024-04-17T12:20:18Z</time>
      </trkpt>
      <trkpt lat="43.24374" lon="0.11341">
        <ele>314.4</ele>
        <time>2024-04-17T12:20:19Z</time>
      </trkpt>
      <trkpt lat="43.24371" lon="0.1134">
        <ele>314</ele>
        <time>2024-04-17T12:20:20Z</time>
      </trkpt>
      <trkpt lat="43.24369" lon="0.11338">
        <ele>313.8</ele>
        <time>2024-04-17T12:20:21Z</time>
      </trkpt>
      <trkpt lat="43.24368" lon="0.11337">
        <ele>314</ele>
        <time>2024-04-17T12:20:22Z</time>
      </trkpt>
      <trkpt lat="43.24366" lon="0.11337">
        <ele>313.8</ele>
        <time>2024-04-17T12:20:23Z</time>
      </trkpt>
      <trkpt lat="43.24365" lon="0.11337">
        <ele>313.8</ele>
        <time>2024-04-17T12:20:24Z</time>
      </trkpt>
      <trkpt lat="43.24363" lon="0.11337">
        <ele>313.6</ele>
        <time>2024-04-17T12:20:25Z</time>
      </trkpt>
      <trkpt lat="43.2436" lon="0.11335">
        <ele>313.6</ele>
        <time>2024-04-17T12:20:26Z</time>
      </trkpt>
      <trkpt lat="43.24358" lon="0.11332">
        <ele>313.6</ele>
        <time>2024-04-17T12:20:27Z</time>
      </trkpt>
      <trkpt lat="43.24357" lon="0.11328">
        <ele>313.2</ele>
        <time>2024-04-17T12:20:28Z</time>
      </trkpt>
      <trkpt lat="43.24356" lon="0.11324">
        <ele>313.2</ele>
        <time>2024-04-17T12:20:29Z</time>
      </trkpt>
      <trkpt lat="43.24353" lon="0.11319">
        <ele>313</ele>
        <time>2024-04-17T12:20:30Z</time>
      </trkpt>
      <trkpt lat="43.2435" lon="0.11313">
        <ele>312.8</ele>
        <time>2024-04-17T12:20:31Z</time>
      </trkpt>
      <trkpt lat="43.24349" lon="0.11306">
        <ele>312.6</ele>
        <time>2024-04-17T12:20:32Z</time>
      </trkpt>
      <trkpt lat="43.24345" lon="0.11299">
        <ele>312.4</ele>
        <time>2024-04-17T12:20:33Z</time>
      </trkpt>
      <trkpt lat="43.24344" lon="0.11294">
        <ele>312.2</ele>
        <time>2024-04-17T12:20:34Z</time>
      </trkpt>
      <trkpt lat="43.24342" lon="0.11289">
        <ele>312</ele>
        <time>2024-04-17T12:20:35Z</time>
      </trkpt>
      <trkpt lat="43.24342" lon="0.11284">
        <ele>311.6</ele>
        <time>2024-04-17T12:20:36Z</time>
      </trkpt>
      <trkpt lat="43.24343" lon="0.11281">
        <ele>311.2</ele>
        <time>2024-04-17T12:20:37Z</time>
      </trkpt>
      <trkpt lat="43.24342" lon="0.11278">
        <ele>311</ele>
        <time>2024-04-17T12:20:38Z</time>
      </trkpt>
      <trkpt lat="43.2434" lon="0.11274">
        <ele>310.6</ele>
        <time>2024-04-17T12:20:39Z</time>
      </trkpt>
      <trkpt lat="43.2434" lon="0.11271">
        <ele>310.4</ele>
        <time>2024-04-17T12:20:40Z</time>
      </trkpt>
      <trkpt lat="43.24342" lon="0.1127">
        <ele>310.2</ele>
        <time>2024-04-17T12:20:41Z</time>
      </trkpt>
      <trkpt lat="43.24345" lon="0.11269">
        <ele>310.2</ele>
        <time>2024-04-17T12:20:42Z</time>
      </trkpt>
      <trkpt lat="43.24347" lon="0.11268">
        <ele>310.2</ele>
        <time>2024-04-17T12:20:43Z</time>
      </trkpt>
      <trkpt lat="43.24349" lon="0.11268">
        <ele>310</ele>
        <time>2024-04-17T12:20:44Z</time>
      </trkpt>
      <trkpt lat="43.24352" lon="0.11269">
        <ele>310</ele>
        <time>2024-04-17T12:20:45Z</time>
      </trkpt>
      <trkpt lat="43.24354" lon="0.11269">
        <ele>310</ele>
        <time>2024-04-17T12:20:46Z</time>
      </trkpt>
      <trkpt lat="43.24357" lon="0.11268">
        <ele>310</ele>
        <time>2024-04-17T12:20:47Z</time>
      </trkpt>
      <trkpt lat="43.24359" lon="0.11268">
        <ele>310</ele>
        <time>2024-04-17T12:20:48Z</time>
      </trkpt>
      <trkpt lat="43.24362" lon="0.11268">
        <ele>309.8</ele>
        <time>2024-04-17T12:20:49Z</time>
      </trkpt>
      <trkpt lat="43.24364" lon="0.11267">
        <ele>309.8</ele>
        <time>2024-04-17T12:20:50Z</time>
      </trkpt>
      <trkpt lat="43.24366" lon="0.11267">
        <ele>309.6</ele>
        <time>2024-04-17T12:20:51Z</time>
      </trkpt>
      <trkpt lat="43.24369" lon="0.11267">
        <ele>309.6</ele>
        <time>2024-04-17T12:20:52Z</time>
      </trkpt>
      <trkpt lat="43.24371" lon="0.11267">
        <ele>309.6</ele>
        <time>2024-04-17T12:20:53Z</time>
      </trkpt>
      <trkpt lat="43.24374" lon="0.11266">
        <ele>309.6</ele>
        <time>2024-04-17T12:20:54Z</time>
      </trkpt>
      <trkpt lat="43.24376" lon="0.11266">
        <ele>309.6</ele>
        <time>2024-04-17T12:20:55Z</time>
      </trkpt>
      <trkpt lat="43.24378" lon="0.11266">
        <ele>309.6</ele>
        <time>2024-04-17T12:20:56Z</time>
      </trkpt>
      <trkpt lat="43.2438" lon="0.11266">
        <ele>309.6</ele>
        <time>2024-04-17T12:20:57Z</time>
      </trkpt>
      <trkpt lat="43.24382" lon="0.11267">
        <ele>309.6</ele>
        <time>2024-04-17T12:20:58Z</time>
      </trkpt>
      <trkpt lat="43.24384" lon="0.11267">
        <ele>309.6</ele>
        <time>2024-04-17T12:20:59Z</time>
      </trkpt>
      <trkpt lat="43.24386" lon="0.11267">
        <ele>309.6</ele>
        <time>2024-04-17T12:21:00Z</time>
      </trkpt>
      <trkpt lat="43.24388" lon="0.11267">
        <ele>309.6</ele>
        <time>2024-04-17T12:21:01Z</time>
      </trkpt>
      <trkpt lat="43.2439" lon="0.11267">
        <ele>309.6</ele>
        <time>2024-04-17T12:21:02Z</time>
      </trkpt>
      <trkpt lat="43.24392" lon="0.11268">
        <ele>309.4</ele>
        <time>2024-04-17T12:21:03Z</time>
      </trkpt>
      <trkpt lat="43.24394" lon="0.11269">
        <ele>309.4</ele>
        <time>2024-04-17T12:21:04Z</time>
      </trkpt>
      <trkpt lat="43.24395" lon="0.1127">
        <ele>309.4</ele>
        <time>2024-04-17T12:21:05Z</time>
      </trkpt>
      <trkpt lat="43.24397" lon="0.11271">
        <ele>309.4</ele>
        <time>2024-04-17T12:21:06Z</time>
      </trkpt>
      <trkpt lat="43.24399" lon="0.11272">
        <ele>309.4</ele>
        <time>2024-04-17T12:21:07Z</time>
      </trkpt>
      <trkpt lat="43.24401" lon="0.11272">
        <ele>309.2</ele>
        <time>2024-04-17T12:21:08Z</time>
      </trkpt>
      <trkpt lat="43.24403" lon="0.11272">
        <ele>309.2</ele>
        <time>2024-04-17T12:21:09Z</time>
      </trkpt>
      <trkpt lat="43.24405" lon="0.11272">
        <ele>309</ele>
        <time>2024-04-17T12:21:10Z</time>
      </trkpt>
      <trkpt lat="43.24409" lon="0.11271">
        <ele>309</ele>
        <time>2024-04-17T12:21:11Z</time>
      </trkpt>
      <trkpt lat="43.24411" lon="0.11271">
        <ele>309</ele>
        <time>2024-04-17T12:21:12Z</time>
      </trkpt>
      <trkpt lat="43.24412" lon="0.1127">
        <ele>308.8</ele>
        <time>2024-04-17T12:21:13Z</time>
      </trkpt>
      <trkpt lat="43.24414" lon="0.1127">
        <ele>308.8</ele>
        <time>2024-04-17T12:21:14Z</time>
      </trkpt>
      <trkpt lat="43.24416" lon="0.11269">
        <ele>308.6</ele>
        <time>2024-04-17T12:21:15Z</time>
      </trkpt>
      <trkpt lat="43.24419" lon="0.11268">
        <ele>308.6</ele>
        <time>2024-04-17T12:21:16Z</time>
      </trkpt>
      <trkpt lat="43.24421" lon="0.11267">
        <ele>308.6</ele>
        <time>2024-04-17T12:21:17Z</time>
      </trkpt>
      <trkpt lat="43.24424" lon="0.11266">
        <ele>308.6</ele>
        <time>2024-04-17T12:21:18Z</time>
      </trkpt>
      <trkpt lat="43.24427" lon="0.11265">
        <ele>308.6</ele>
        <time>2024-04-17T12:21:19Z</time>
      </trkpt>
      <trkpt lat="43.2443" lon="0.11265">
        <ele>308.6</ele>
        <time>2024-04-17T12:21:20Z</time>
      </trkpt>
      <trkpt lat="43.24431" lon="0.11264">
        <ele>308.4</ele>
        <time>2024-04-17T12:21:21Z</time>
      </trkpt>
      <trkpt lat="43.24434" lon="0.11263">
        <ele>308.4</ele>
        <time>2024-04-17T12:21:22Z</time>
      </trkpt>
      <trkpt lat="43.24436" lon="0.11263">
        <ele>308.4</ele>
        <time>2024-04-17T12:21:23Z</time>
      </trkpt>
      <trkpt lat="43.24438" lon="0.11262">
        <ele>308.4</ele>
        <time>2024-04-17T12:21:24Z</time>
      </trkpt>
      <trkpt lat="43.24441" lon="0.11261">
        <ele>308.4</ele>
        <time>2024-04-17T12:21:25Z</time>
      </trkpt>
      <trkpt lat="43.24443" lon="0.1126">
        <ele>308.4</ele>
        <time>2024-04-17T12:21:26Z</time>
      </trkpt>
      <trkpt lat="43.24446" lon="0.1126">
        <ele>308.4</ele>
        <time>2024-04-17T12:21:27Z</time>
      </trkpt>
      <trkpt lat="43.24449" lon="0.11259">
        <ele>308.2</ele>
        <time>2024-04-17T12:21:28Z</time>
      </trkpt>
      <trkpt lat="43.24452" lon="0.11258">
        <ele>308.4</ele>
        <time>2024-04-17T12:21:29Z</time>
      </trkpt>
      <trkpt lat="43.24455" lon="0.11257">
        <ele>308.4</ele>
        <time>2024-04-17T12:21:30Z</time>
      </trkpt>
      <trkpt lat="43.24458" lon="0.11256">
        <ele>308.4</ele>
        <time>2024-04-17T12:21:31Z</time>
      </trkpt>
      <trkpt lat="43.24461" lon="0.11254">
        <ele>308.4</ele>
        <time>2024-04-17T12:21:32Z</time>
      </trkpt>
      <trkpt lat="43.24463" lon="0.11253">
        <ele>308.4</ele>
        <time>2024-04-17T12:21:33Z</time>
      </trkpt>
      <trkpt lat="43.24465" lon="0.11253">
        <ele>308.2</ele>
        <time>2024-04-17T12:21:34Z</time>
      </trkpt>
      <trkpt lat="43.24468" lon="0.11253">
        <ele>308.2</ele>
        <time>2024-04-17T12:21:35Z</time>
      </trkpt>
      <trkpt lat="43.24471" lon="0.11253">
        <ele>308</ele>
        <time>2024-04-17T12:21:36Z</time>
      </trkpt>
      <trkpt lat="43.24474" lon="0.11254">
        <ele>308</ele>
        <time>2024-04-17T12:21:37Z</time>
      </trkpt>
      <trkpt lat="43.24477" lon="0.11253">
        <ele>307.8</ele>
        <time>2024-04-17T12:21:38Z</time>
      </trkpt>
      <trkpt lat="43.2448" lon="0.11253">
        <ele>307.8</ele>
        <time>2024-04-17T12:21:39Z</time>
      </trkpt>
      <trkpt lat="43.24483" lon="0.11252">
        <ele>307.8</ele>
        <time>2024-04-17T12:21:40Z</time>
      </trkpt>
      <trkpt lat="43.24486" lon="0.11252">
        <ele>307.8</ele>
        <time>2024-04-17T12:21:41Z</time>
      </trkpt>
      <trkpt lat="43.24489" lon="0.11251">
        <ele>307.8</ele>
        <time>2024-04-17T12:21:42Z</time>
      </trkpt>
      <trkpt lat="43.24492" lon="0.11248">
        <ele>307.8</ele>
        <time>2024-04-17T12:21:43Z</time>
      </trkpt>
      <trkpt lat="43.24495" lon="0.11248">
        <ele>307.8</ele>
        <time>2024-04-17T12:21:44Z</time>
      </trkpt>
      <trkpt lat="43.24497" lon="0.11248">
        <ele>307.8</ele>
        <time>2024-04-17T12:21:45Z</time>
      </trkpt>
      <trkpt lat="43.245" lon="0.11247">
        <ele>307.8</ele>
        <time>2024-04-17T12:21:46Z</time>
      </trkpt>
      <trkpt lat="43.24501" lon="0.11247">
        <ele>307.8</ele>
        <time>2024-04-17T12:21:47Z</time>
      </trkpt>
      <trkpt lat="43.24503" lon="0.11247">
        <ele>307.6</ele>
        <time>2024-04-17T12:21:48Z</time>
      </trkpt>
      <trkpt lat="43.24506" lon="0.11247">
        <ele>307.6</ele>
        <time>2024-04-17T12:21:49Z</time>
      </trkpt>
      <trkpt lat="43.24508" lon="0.11246">
        <ele>307.6</ele>
        <time>2024-04-17T12:21:50Z</time>
      </trkpt>
      <trkpt lat="43.24511" lon="0.11245">
        <ele>307.6</ele>
        <time>2024-04-17T12:21:51Z</time>
      </trkpt>
      <trkpt lat="43.24514" lon="0.11243">
        <ele>307.6</ele>
        <time>2024-04-17T12:21:52Z</time>
      </trkpt>
      <trkpt lat="43.24517" lon="0.11241">
        <ele>307.6</ele>
        <time>2024-04-17T12:21:53Z</time>
      </trkpt>
      <trkpt lat="43.2452" lon="0.11241">
        <ele>307.6</ele>
        <time>2024-04-17T12:21:54Z</time>
      </trkpt>
      <trkpt lat="43.24523" lon="0.11241">
        <ele>307.6</ele>
        <time>2024-04-17T12:21:55Z</time>
      </trkpt>
      <trkpt lat="43.24525" lon="0.11241">
        <ele>307.4</ele>
        <time>2024-04-17T12:21:56Z</time>
      </trkpt>
      <trkpt lat="43.24527" lon="0.11241">
        <ele>307.4</ele>
        <time>2024-04-17T12:21:57Z</time>
      </trkpt>
      <trkpt lat="43.24529" lon="0.11243">
        <ele>307.4</ele>
        <time>2024-04-17T12:21:58Z</time>
      </trkpt>
      <trkpt lat="43.24531" lon="0.11245">
        <ele>307.4</ele>
        <time>2024-04-17T12:21:59Z</time>
      </trkpt>
      <trkpt lat="43.24534" lon="0.11247">
        <ele>307.4</ele>
        <time>2024-04-17T12:22:00Z</time>
      </trkpt>
      <trkpt lat="43.24537" lon="0.1125">
        <ele>307.4</ele>
        <time>2024-04-17T12:22:01Z</time>
      </trkpt>
      <trkpt lat="43.24539" lon="0.11253">
        <ele>307.4</ele>
        <time>2024-04-17T12:22:02Z</time>
      </trkpt>
      <trkpt lat="43.2454" lon="0.11255">
        <ele>307.6</ele>
        <time>2024-04-17T12:22:03Z</time>
      </trkpt>
      <trkpt lat="43.24542" lon="0.11258">
        <ele>307.6</ele>
        <time>2024-04-17T12:22:04Z</time>
      </trkpt>
      <trkpt lat="43.24543" lon="0.11261">
        <ele>307.6</ele>
        <time>2024-04-17T12:22:05Z</time>
      </trkpt>
      <trkpt lat="43.24546" lon="0.11264">
        <ele>307.4</ele>
        <time>2024-04-17T12:22:06Z</time>
      </trkpt>
      <trkpt lat="43.24548" lon="0.11266">
        <ele>307.4</ele>
        <time>2024-04-17T12:22:07Z</time>
      </trkpt>
      <trkpt lat="43.2455" lon="0.11267">
        <ele>307.4</ele>
        <time>2024-04-17T12:22:08Z</time>
      </trkpt>
      <trkpt lat="43.24551" lon="0.11268">
        <ele>307.4</ele>
        <time>2024-04-17T12:22:09Z</time>
      </trkpt>
      <trkpt lat="43.24552" lon="0.1127">
        <ele>307.4</ele>
        <time>2024-04-17T12:22:10Z</time>
      </trkpt>
      <trkpt lat="43.24554" lon="0.11272">
        <ele>307.4</ele>
        <time>2024-04-17T12:22:11Z</time>
      </trkpt>
      <trkpt lat="43.24555" lon="0.11273">
        <ele>307.6</ele>
        <time>2024-04-17T12:22:12Z</time>
      </trkpt>
      <trkpt lat="43.24557" lon="0.11275">
        <ele>307.6</ele>
        <time>2024-04-17T12:22:13Z</time>
      </trkpt>
      <trkpt lat="43.24561" lon="0.11277">
        <ele>307.8</ele>
        <time>2024-04-17T12:22:14Z</time>
      </trkpt>
      <trkpt lat="43.24564" lon="0.11279">
        <ele>308.2</ele>
        <time>2024-04-17T12:22:15Z</time>
      </trkpt>
      <trkpt lat="43.24566" lon="0.11279">
        <ele>308.2</ele>
        <time>2024-04-17T12:22:16Z</time>
      </trkpt>
      <trkpt lat="43.24567" lon="0.1128">
        <ele>308.6</ele>
        <time>2024-04-17T12:22:17Z</time>
      </trkpt>
      <trkpt lat="43.24567" lon="0.1128">
        <ele>308.6</ele>
        <time>2024-04-17T12:22:18Z</time>
      </trkpt>
      <trkpt lat="43.24567" lon="0.1128">
        <ele>309</ele>
        <time>2024-04-17T12:22:19Z</time>
      </trkpt>
      <trkpt lat="43.24568" lon="0.11282">
        <ele>309.2</ele>
        <time>2024-04-17T12:22:20Z</time>
      </trkpt>
      <trkpt lat="43.2457" lon="0.11286">
        <ele>309.4</ele>
        <time>2024-04-17T12:22:21Z</time>
      </trkpt>
      <trkpt lat="43.24571" lon="0.1129">
        <ele>309.6</ele>
        <time>2024-04-17T12:22:22Z</time>
      </trkpt>
      <trkpt lat="43.24573" lon="0.11291">
        <ele>309.8</ele>
        <time>2024-04-17T12:22:23Z</time>
      </trkpt>
      <trkpt lat="43.24574" lon="0.11292">
        <ele>310</ele>
        <time>2024-04-17T12:22:24Z</time>
      </trkpt>
      <trkpt lat="43.24576" lon="0.11293">
        <ele>310.2</ele>
        <time>2024-04-17T12:22:25Z</time>
      </trkpt>
      <trkpt lat="43.24576" lon="0.11293">
        <ele>310.4</ele>
        <time>2024-04-17T12:22:26Z</time>
      </trkpt>
      <trkpt lat="43.24577" lon="0.11293">
        <ele>310.4</ele>
        <time>2024-04-17T12:22:27Z</time>
      </trkpt>
      <trkpt lat="43.24578" lon="0.11293">
        <ele>310.6</ele>
        <time>2024-04-17T12:22:28Z</time>
      </trkpt>
      <trkpt lat="43.24579" lon="0.11294">
        <ele>310.8</ele>
        <time>2024-04-17T12:22:29Z</time>
      </trkpt>
      <trkpt lat="43.2458" lon="0.11294">
        <ele>311</ele>
        <time>2024-04-17T12:22:30Z</time>
      </trkpt>
      <trkpt lat="43.2458" lon="0.11294">
        <ele>311</ele>
        <time>2024-04-17T12:22:31Z</time>
      </trkpt>
      <trkpt lat="43.2458" lon="0.11294">
        <ele>311.2</ele>
        <time>2024-04-17T12:22:32Z</time>
      </trkpt>
      <trkpt lat="43.2458" lon="0.11294">
        <ele>311.2</ele>
        <time>2024-04-17T12:22:33Z</time>
      </trkpt>
      <trkpt lat="43.2458" lon="0.11294">
        <ele>311.2</ele>
        <time>2024-04-17T12:22:34Z</time>
      </trkpt>
      <trkpt lat="43.2458" lon="0.11294">
        <ele>311.2</ele>
        <time>2024-04-17T12:22:35Z</time>
      </trkpt>
      <trkpt lat="43.2458" lon="0.11294">
        <ele>311.4</ele>
        <time>2024-04-17T12:22:36Z</time>
      </trkpt>
      <trkpt lat="43.2458" lon="0.11294">
        <ele>311.2</ele>
        <time>2024-04-17T12:22:37Z</time>
      </trkpt>
      <trkpt lat="43.2458" lon="0.11294">
        <ele>311.2</ele>
        <time>2024-04-17T12:22:38Z</time>
      </trkpt>
      <trkpt lat="43.2458" lon="0.11294">
        <ele>311.2</ele>
        <time>2024-04-17T12:22:39Z</time>
      </trkpt>
      <trkpt lat="43.2458" lon="0.11294">
        <ele>311.2</ele>
        <time>2024-04-17T12:22:40Z</time>
      </trkpt>
      <trkpt lat="43.2458" lon="0.11294">
        <ele>311.2</ele>
        <time>2024-04-17T12:22:41Z</time>
      </trkpt>
      <trkpt lat="43.2458" lon="0.11294">
        <ele>311.2</ele>
        <time>2024-04-17T12:22:42Z</time>
      </trkpt>
      <trkpt lat="43.2458" lon="0.11294">
        <ele>311.2</ele>
        <time>2024-04-17T12:22:43Z</time>
      </trkpt>
      <trkpt lat="43.2458" lon="0.11294">
        <ele>311.4</ele>
        <time>2024-04-17T12:22:44Z</time>
      </trkpt>
      <trkpt lat="43.2458" lon="0.11294">
        <ele>311.4</ele>
        <time>2024-04-17T12:22:45Z</time>
      </trkpt>
      <trkpt lat="43.2458" lon="0.11294">
        <ele>311.4</ele>
        <time>2024-04-17T12:22:46Z</time>
      </trkpt>
      <trkpt lat="43.2458" lon="0.11294">
        <ele>311.4</ele>
        <time>2024-04-17T12:22:47Z</time>
      </trkpt>
      <trkpt lat="43.2458" lon="0.11294">
        <ele>311.4</ele>
        <time>2024-04-17T12:22:48Z</time>
      </trkpt>
      <trkpt lat="43.2458" lon="0.11294">
        <ele>311.4</ele>
        <time>2024-04-17T12:22:49Z</time>
      </trkpt>
      <trkpt lat="43.2458" lon="0.11294">
        <ele>311.4</ele>
        <time>2024-04-17T12:22:50Z</time>
      </trkpt>
      <trkpt lat="43.2458" lon="0.11294">
        <ele>311.4</ele>
        <time>2024-04-17T12:22:51Z</time>
      </trkpt>
      <trkpt lat="43.2458" lon="0.11294">
        <ele>311.4</ele>
        <time>2024-04-17T12:22:52Z</time>
      </trkpt>
      <trkpt lat="43.2458" lon="0.11294">
        <ele>311.4</ele>
        <time>2024-04-17T12:22:53Z</time>
      </trkpt>
      <trkpt lat="43.2458" lon="0.11294">
        <ele>311.4</ele>
        <time>2024-04-17T12:22:54Z</time>
      </trkpt>
      <trkpt lat="43.2458" lon="0.11294">
        <ele>311.4</ele>
        <time>2024-04-17T12:22:55Z</time>
      </trkpt>
      <trkpt lat="43.2458" lon="0.11294">
        <ele>311.4</ele>
        <time>2024-04-17T12:22:56Z</time>
      </trkpt>
      <trkpt lat="43.2458" lon="0.11294">
        <ele>311.4</ele>
        <time>2024-04-17T12:22:57Z</time>
      </trkpt>
      <trkpt lat="43.2458" lon="0.11294">
        <ele>311.4</ele>
        <time>2024-04-17T12:22:58Z</time>
      </trkpt>
      <trkpt lat="43.2458" lon="0.11294">
        <ele>311.4</ele>
        <time>2024-04-17T12:22:59Z</time>
      </trkpt>
      <trkpt lat="43.2458" lon="0.11294">
        <ele>311.4</ele>
        <time>2024-04-17T12:23:00Z</time>
      </trkpt>
      <trkpt lat="43.2458" lon="0.11294">
        <ele>311.4</ele>
        <time>2024-04-17T12:23:01Z</time>
      </trkpt>
      <trkpt lat="43.2458" lon="0.11294">
        <ele>311.4</ele>
        <time>2024-04-17T12:23:02Z</time>
      </trkpt>
      <trkpt lat="43.2458" lon="0.11294">
        <ele>311.4</ele>
        <time>2024-04-17T12:23:03Z</time>
      </trkpt>
      <trkpt lat="43.2458" lon="0.11294">
        <ele>311.4</ele>
        <time>2024-04-17T12:23:04Z</time>
      </trkpt>
      <trkpt lat="43.2458" lon="0.11294">
        <ele>311.4</ele>
        <time>2024-04-17T12:23:05Z</time>
      </trkpt>
      <trkpt lat="43.2458" lon="0.11294">
        <ele>311.4</ele>
        <time>2024-04-17T12:23:06Z</time>
      </trkpt>
      <trkpt lat="43.2458" lon="0.11294">
        <ele>311.8</ele>
        <time>2024-04-17T12:23:07Z</time>
      </trkpt>
      <trkpt lat="43.2458" lon="0.11294">
        <ele>311.8</ele>
        <time>2024-04-17T12:23:08Z</time>
      </trkpt>
      <trkpt lat="43.2458" lon="0.11294">
        <ele>312</ele>
        <time>2024-04-17T12:23:09Z</time>
      </trkpt>
      <trkpt lat="43.2458" lon="0.11294">
        <ele>312</ele>
        <time>2024-04-17T12:23:10Z</time>
      </trkpt>
      <trkpt lat="43.2458" lon="0.11294">
        <ele>312</ele>
        <time>2024-04-17T12:23:11Z</time>
      </trkpt>
      <trkpt lat="43.2458" lon="0.11294">
        <ele>312</ele>
        <time>2024-04-17T12:23:12Z</time>
      </trkpt>
      <trkpt lat="43.2458" lon="0.11294">
        <ele>312</ele>
        <time>2024-04-17T12:23:13Z</time>
      </trkpt>
      <trkpt lat="43.2458" lon="0.11294">
        <ele>311.8</ele>
        <time>2024-04-17T12:23:14Z</time>
      </trkpt>
      <trkpt lat="43.2458" lon="0.11294">
        <ele>311.8</ele>
        <time>2024-04-17T12:23:15Z</time>
      </trkpt>
      <trkpt lat="43.2458" lon="0.11294">
        <ele>311.8</ele>
        <time>2024-04-17T12:23:16Z</time>
      </trkpt>
      <trkpt lat="43.2458" lon="0.11294">
        <ele>311.6</ele>
        <time>2024-04-17T12:23:17Z</time>
      </trkpt>
      <trkpt lat="43.2458" lon="0.11294">
        <ele>311.6</ele>
        <time>2024-04-17T12:23:18Z</time>
      </trkpt>
      <trkpt lat="43.2458" lon="0.11294">
        <ele>311.6</ele>
        <time>2024-04-17T12:23:19Z</time>
      </trkpt>
      <trkpt lat="43.2458" lon="0.11294">
        <ele>311.6</ele>
        <time>2024-04-17T12:23:20Z</time>
      </trkpt>
      <trkpt lat="43.2458" lon="0.11294">
        <ele>311.6</ele>
        <time>2024-04-17T12:23:21Z</time>
      </trkpt>
      <trkpt lat="43.2458" lon="0.11294">
        <ele>311.6</ele>
        <time>2024-04-17T12:23:22Z</time>
      </trkpt>
      <trkpt lat="43.2458" lon="0.11294">
        <ele>311.6</ele>
        <time>2024-04-17T12:23:23Z</time>
      </trkpt>
      <trkpt lat="43.2458" lon="0.11294">
        <ele>311.6</ele>
        <time>2024-04-17T12:23:24Z</time>
      </trkpt>
      <trkpt lat="43.2458" lon="0.11294">
        <ele>311.6</ele>
        <time>2024-04-17T12:23:25Z</time>
      </trkpt>
      <trkpt lat="43.2458" lon="0.11294">
        <ele>311.6</ele>
        <time>2024-04-17T12:23:26Z</time>
      </trkpt>
      <trkpt lat="43.2458" lon="0.11294">
        <ele>311.4</ele>
        <time>2024-04-17T12:23:27Z</time>
      </trkpt>
      <trkpt lat="43.2458" lon="0.11294">
        <ele>311.4</ele>
        <time>2024-04-17T12:23:28Z</time>
      </trkpt>
      <trkpt lat="43.2458" lon="0.11294">
        <ele>311.4</ele>
        <time>2024-04-17T12:23:29Z</time>
      </trkpt>
      <trkpt lat="43.2458" lon="0.11294">
        <ele>311.4</ele>
        <time>2024-04-17T12:23:30Z</time>
      </trkpt>
      <trkpt lat="43.2458" lon="0.11294">
        <ele>311.4</ele>
        <time>2024-04-17T12:23:31Z</time>
      </trkpt>
      <trkpt lat="43.2458" lon="0.11294">
        <ele>310.8</ele>
        <time>2024-04-17T12:23:32Z</time>
      </trkpt>
      <trkpt lat="43.2458" lon="0.11294">
        <ele>310.8</ele>
        <time>2024-04-17T12:23:33Z</time>
      </trkpt>
      <trkpt lat="43.2458" lon="0.11294">
        <ele>310.8</ele>
        <time>2024-04-17T12:23:34Z</time>
      </trkpt>
      <trkpt lat="43.2458" lon="0.11294">
        <ele>310.8</ele>
        <time>2024-04-17T12:23:35Z</time>
      </trkpt>
      <trkpt lat="43.24579" lon="0.11293">
        <ele>311.2</ele>
        <time>2024-04-17T12:23:36Z</time>
      </trkpt>
      <trkpt lat="43.24579" lon="0.11293">
        <ele>311.8</ele>
        <time>2024-04-17T12:23:37Z</time>
      </trkpt>
      <trkpt lat="43.24579" lon="0.11293">
        <ele>311.8</ele>
        <time>2024-04-17T12:23:38Z</time>
      </trkpt>
      <trkpt lat="43.24579" lon="0.11293">
        <ele>312</ele>
        <time>2024-04-17T12:23:39Z</time>
      </trkpt>
      <trkpt lat="43.24579" lon="0.11293">
        <ele>312</ele>
        <time>2024-04-17T12:23:40Z</time>
      </trkpt>
      <trkpt lat="43.24579" lon="0.11293">
        <ele>312.2</ele>
        <time>2024-04-17T12:23:41Z</time>
      </trkpt>
      <trkpt lat="43.24579" lon="0.11293">
        <ele>312.2</ele>
        <time>2024-04-17T12:23:42Z</time>
      </trkpt>
      <trkpt lat="43.24579" lon="0.11293">
        <ele>312.2</ele>
        <time>2024-04-17T12:23:43Z</time>
      </trkpt>
      <trkpt lat="43.24579" lon="0.11293">
        <ele>312.2</ele>
        <time>2024-04-17T12:23:44Z</time>
      </trkpt>
      <trkpt lat="43.24579" lon="0.11293">
        <ele>312.2</ele>
        <time>2024-04-17T12:23:45Z</time>
      </trkpt>
      <trkpt lat="43.24579" lon="0.11293">
        <ele>311.6</ele>
        <time>2024-04-17T12:23:46Z</time>
      </trkpt>
      <trkpt lat="43.24579" lon="0.11293">
        <ele>311.8</ele>
        <time>2024-04-17T12:23:47Z</time>
      </trkpt>
      <trkpt lat="43.24579" lon="0.11293">
        <ele>312</ele>
        <time>2024-04-17T12:23:48Z</time>
      </trkpt>
      <trkpt lat="43.24579" lon="0.11293">
        <ele>311.8</ele>
        <time>2024-04-17T12:23:49Z</time>
      </trkpt>
      <trkpt lat="43.24579" lon="0.11293">
        <ele>311.8</ele>
        <time>2024-04-17T12:23:50Z</time>
      </trkpt>
      <trkpt lat="43.24579" lon="0.11293">
        <ele>311.6</ele>
        <time>2024-04-17T12:23:51Z</time>
      </trkpt>
      <trkpt lat="43.24579" lon="0.11293">
        <ele>311.6</ele>
        <time>2024-04-17T12:23:52Z</time>
      </trkpt>
      <trkpt lat="43.24579" lon="0.11293">
        <ele>311.6</ele>
        <time>2024-04-17T12:23:53Z</time>
      </trkpt>
      <trkpt lat="43.24579" lon="0.11293">
        <ele>311.6</ele>
        <time>2024-04-17T12:23:54Z</time>
      </trkpt>
      <trkpt lat="43.24579" lon="0.11293">
        <ele>311.4</ele>
        <time>2024-04-17T12:23:55Z</time>
      </trkpt>
      <trkpt lat="43.24579" lon="0.11293">
        <ele>311.4</ele>
        <time>2024-04-17T12:23:56Z</time>
      </trkpt>
      <trkpt lat="43.24579" lon="0.11293">
        <ele>311.4</ele>
        <time>2024-04-17T12:23:57Z</time>
      </trkpt>
      <trkpt lat="43.24578" lon="0.11291">
        <ele>311.4</ele>
        <time>2024-04-17T12:23:58Z</time>
      </trkpt>
      <trkpt lat="43.24577" lon="0.1129">
        <ele>311.4</ele>
        <time>2024-04-17T12:23:59Z</time>
      </trkpt>
      <trkpt lat="43.24577" lon="0.1129">
        <ele>311.4</ele>
        <time>2024-04-17T12:24:00Z</time>
      </trkpt>
      <trkpt lat="43.24577" lon="0.1129">
        <ele>311.4</ele>
        <time>2024-04-17T12:24:01Z</time>
      </trkpt>
      <trkpt lat="43.24577" lon="0.1129">
        <ele>311.4</ele>
        <time>2024-04-17T12:24:02Z</time>
      </trkpt>
      <trkpt lat="43.24577" lon="0.1129">
        <ele>311.4</ele>
        <time>2024-04-17T12:24:03Z</time>
      </trkpt>
      <trkpt lat="43.24577" lon="0.1129">
        <ele>311.2</ele>
        <time>2024-04-17T12:24:04Z</time>
      </trkpt>
      <trkpt lat="43.24577" lon="0.1129">
        <ele>311.2</ele>
        <time>2024-04-17T12:24:05Z</time>
      </trkpt>
      <trkpt lat="43.24577" lon="0.1129">
        <ele>311.2</ele>
        <time>2024-04-17T12:24:06Z</time>
      </trkpt>
      <trkpt lat="43.24577" lon="0.1129">
        <ele>311.2</ele>
        <time>2024-04-17T12:24:07Z</time>
      </trkpt>
      <trkpt lat="43.24577" lon="0.1129">
        <ele>311</ele>
        <time>2024-04-17T12:24:08Z</time>
      </trkpt>
      <trkpt lat="43.24577" lon="0.1129">
        <ele>311</ele>
        <time>2024-04-17T12:24:09Z</time>
      </trkpt>
      <trkpt lat="43.24577" lon="0.1129">
        <ele>311.2</ele>
        <time>2024-04-17T12:24:10Z</time>
      </trkpt>
      <trkpt lat="43.24577" lon="0.1129">
        <ele>311.2</ele>
        <time>2024-04-17T12:24:11Z</time>
      </trkpt>
      <trkpt lat="43.24577" lon="0.1129">
        <ele>311</ele>
        <time>2024-04-17T12:24:12Z</time>
      </trkpt>
      <trkpt lat="43.24577" lon="0.11289">
        <ele>311</ele>
        <time>2024-04-17T12:24:13Z</time>
      </trkpt>
      <trkpt lat="43.24576" lon="0.11289">
        <ele>311</ele>
        <time>2024-04-17T12:24:14Z</time>
      </trkpt>
      <trkpt lat="43.24576" lon="0.11289">
        <ele>311</ele>
        <time>2024-04-17T12:24:15Z</time>
      </trkpt>
      <trkpt lat="43.24576" lon="0.11289">
        <ele>311</ele>
        <time>2024-04-17T12:24:16Z</time>
      </trkpt>
      <trkpt lat="43.24576" lon="0.11289">
        <ele>311</ele>
        <time>2024-04-17T12:24:17Z</time>
      </trkpt>
      <trkpt lat="43.24576" lon="0.11289">
        <ele>311</ele>
        <time>2024-04-17T12:24:18Z</time>
      </trkpt>
      <trkpt lat="43.24576" lon="0.11289">
        <ele>311</ele>
        <time>2024-04-17T12:24:19Z</time>
      </trkpt>
      <trkpt lat="43.24576" lon="0.11289">
        <ele>311</ele>
        <time>2024-04-17T12:24:20Z</time>
      </trkpt>
      <trkpt lat="43.24576" lon="0.11289">
        <ele>311</ele>
        <time>2024-04-17T12:24:21Z</time>
      </trkpt>
      <trkpt lat="43.24576" lon="0.11289">
        <ele>311</ele>
        <time>2024-04-17T12:24:22Z</time>
      </trkpt>
      <trkpt lat="43.24576" lon="0.11289">
        <ele>311.2</ele>
        <time>2024-04-17T12:24:23Z</time>
      </trkpt>
      <trkpt lat="43.24576" lon="0.11289">
        <ele>311.2</ele>
        <time>2024-04-17T12:24:24Z</time>
      </trkpt>
      <trkpt lat="43.24576" lon="0.11289">
        <ele>311.2</ele>
        <time>2024-04-17T12:24:25Z</time>
      </trkpt>
      <trkpt lat="43.24576" lon="0.11289">
        <ele>311.2</ele>
        <time>2024-04-17T12:24:26Z</time>
      </trkpt>
      <trkpt lat="43.24576" lon="0.11289">
        <ele>311.4</ele>
        <time>2024-04-17T12:24:27Z</time>
      </trkpt>
      <trkpt lat="43.24576" lon="0.11289">
        <ele>311.4</ele>
        <time>2024-04-17T12:24:28Z</time>
      </trkpt>
      <trkpt lat="43.24576" lon="0.11289">
        <ele>311.4</ele>
        <time>2024-04-17T12:24:29Z</time>
      </trkpt>
      <trkpt lat="43.24576" lon="0.11289">
        <ele>311.4</ele>
        <time>2024-04-17T12:24:30Z</time>
      </trkpt>
      <trkpt lat="43.24576" lon="0.11289">
        <ele>311.4</ele>
        <time>2024-04-17T12:24:31Z</time>
      </trkpt>
      <trkpt lat="43.24576" lon="0.11289">
        <ele>311.4</ele>
        <time>2024-04-17T12:24:32Z</time>
      </trkpt>
      <trkpt lat="43.24576" lon="0.11289">
        <ele>311.2</ele>
        <time>2024-04-17T12:24:33Z</time>
      </trkpt>
      <trkpt lat="43.24576" lon="0.11288">
        <ele>311.2</ele>
        <time>2024-04-17T12:24:34Z</time>
      </trkpt>
      <trkpt lat="43.24576" lon="0.11288">
        <ele>311.2</ele>
        <time>2024-04-17T12:24:35Z</time>
      </trkpt>
      <trkpt lat="43.24576" lon="0.11288">
        <ele>311.2</ele>
        <time>2024-04-17T12:24:36Z</time>
      </trkpt>
      <trkpt lat="43.24576" lon="0.11288">
        <ele>311.2</ele>
        <time>2024-04-17T12:24:37Z</time>
      </trkpt>
      <trkpt lat="43.24576" lon="0.11288">
        <ele>311.2</ele>
        <time>2024-04-17T12:24:38Z</time>
      </trkpt>
      <trkpt lat="43.24576" lon="0.11288">
        <ele>311.2</ele>
        <time>2024-04-17T12:24:39Z</time>
      </trkpt>
      <trkpt lat="43.24576" lon="0.11288">
        <ele>311.2</ele>
        <time>2024-04-17T12:24:40Z</time>
      </trkpt>
      <trkpt lat="43.24576" lon="0.11288">
        <ele>311.2</ele>
        <time>2024-04-17T12:24:41Z</time>
      </trkpt>
      <trkpt lat="43.24576" lon="0.11288">
        <ele>311.2</ele>
        <time>2024-04-17T12:24:42Z</time>
      </trkpt>
      <trkpt lat="43.24576" lon="0.11288">
        <ele>311.2</ele>
        <time>2024-04-17T12:24:43Z</time>
      </trkpt>
      <trkpt lat="43.24576" lon="0.11288">
        <ele>311.2</ele>
        <time>2024-04-17T12:24:44Z</time>
      </trkpt>
      <trkpt lat="43.24576" lon="0.11288">
        <ele>311.2</ele>
        <time>2024-04-17T12:24:45Z</time>
      </trkpt>
      <trkpt lat="43.24576" lon="0.11288">
        <ele>311.2</ele>
        <time>2024-04-17T12:24:46Z</time>
      </trkpt>
      <trkpt lat="43.24576" lon="0.11288">
        <ele>311</ele>
        <time>2024-04-17T12:24:47Z</time>
      </trkpt>
      <trkpt lat="43.24576" lon="0.11288">
        <ele>311</ele>
        <time>2024-04-17T12:24:48Z</time>
      </trkpt>
      <trkpt lat="43.24576" lon="0.11288">
        <ele>311</ele>
        <time>2024-04-17T12:24:49Z</time>
      </trkpt>
      <trkpt lat="43.24576" lon="0.11288">
        <ele>311</ele>
        <time>2024-04-17T12:24:50Z</time>
      </trkpt>
      <trkpt lat="43.24576" lon="0.11288">
        <ele>311</ele>
        <time>2024-04-17T12:24:51Z</time>
      </trkpt>
      <trkpt lat="43.24576" lon="0.11288">
        <ele>311</ele>
        <time>2024-04-17T12:24:52Z</time>
      </trkpt>
      <trkpt lat="43.24576" lon="0.11288">
        <ele>311</ele>
        <time>2024-04-17T12:24:53Z</time>
      </trkpt>
      <trkpt lat="43.24576" lon="0.11288">
        <ele>311</ele>
        <time>2024-04-17T12:24:54Z</time>
      </trkpt>
      <trkpt lat="43.24576" lon="0.11288">
        <ele>311</ele>
        <time>2024-04-17T12:24:55Z</time>
      </trkpt>
      <trkpt lat="43.24576" lon="0.11288">
        <ele>311</ele>
        <time>2024-04-17T12:24:56Z</time>
      </trkpt>
      <trkpt lat="43.24576" lon="0.11288">
        <ele>311</ele>
        <time>2024-04-17T12:24:57Z</time>
      </trkpt>
      <trkpt lat="43.24576" lon="0.11288">
        <ele>311</ele>
        <time>2024-04-17T12:24:58Z</time>
      </trkpt>
      <trkpt lat="43.24576" lon="0.11288">
        <ele>311</ele>
        <time>2024-04-17T12:24:59Z</time>
      </trkpt>
      <trkpt lat="43.24576" lon="0.11288">
        <ele>311</ele>
        <time>2024-04-17T12:25:00Z</time>
      </trkpt>
      <trkpt lat="43.24576" lon="0.11288">
        <ele>311</ele>
        <time>2024-04-17T12:25:01Z</time>
      </trkpt>
      <trkpt lat="43.24576" lon="0.11288">
        <ele>311</ele>
        <time>2024-04-17T12:25:02Z</time>
      </trkpt>
      <trkpt lat="43.24576" lon="0.11288">
        <ele>311</ele>
        <time>2024-04-17T12:25:03Z</time>
      </trkpt>
      <trkpt lat="43.24576" lon="0.11288">
        <ele>311</ele>
        <time>2024-04-17T12:25:04Z</time>
      </trkpt>
      <trkpt lat="43.24576" lon="0.11288">
        <ele>311</ele>
        <time>2024-04-17T12:25:05Z</time>
      </trkpt>
      <trkpt lat="43.24576" lon="0.11288">
        <ele>311</ele>
        <time>2024-04-17T12:25:06Z</time>
      </trkpt>
      <trkpt lat="43.24576" lon="0.11288">
        <ele>311</ele>
        <time>2024-04-17T12:25:07Z</time>
      </trkpt>
      <trkpt lat="43.24576" lon="0.11288">
        <ele>311</ele>
        <time>2024-04-17T12:25:08Z</time>
      </trkpt>
      <trkpt lat="43.24576" lon="0.11288">
        <ele>311</ele>
        <time>2024-04-17T12:25:09Z</time>
      </trkpt>
      <trkpt lat="43.24576" lon="0.11288">
        <ele>311</ele>
        <time>2024-04-17T12:25:10Z</time>
      </trkpt>
      <trkpt lat="43.24576" lon="0.11288">
        <ele>311</ele>
        <time>2024-04-17T12:25:11Z</time>
      </trkpt>
      <trkpt lat="43.24576" lon="0.11288">
        <ele>311</ele>
        <time>2024-04-17T12:25:12Z</time>
      </trkpt>
      <trkpt lat="43.24576" lon="0.11288">
        <ele>311</ele>
        <time>2024-04-17T12:25:13Z</time>
      </trkpt>
      <trkpt lat="43.24576" lon="0.11288">
        <ele>311</ele>
        <time>2024-04-17T12:25:14Z</time>
      </trkpt>
      <trkpt lat="43.24576" lon="0.11288">
        <ele>311</ele>
        <time>2024-04-17T12:25:15Z</time>
      </trkpt>
      <trkpt lat="43.24576" lon="0.11288">
        <ele>311</ele>
        <time>2024-04-17T12:25:16Z</time>
      </trkpt>
      <trkpt lat="43.24576" lon="0.11288">
        <ele>310.8</ele>
        <time>2024-04-17T12:25:17Z</time>
      </trkpt>
      <trkpt lat="43.24576" lon="0.11288">
        <ele>310.8</ele>
        <time>2024-04-17T12:25:18Z</time>
      </trkpt>
      <trkpt lat="43.24576" lon="0.11288">
        <ele>310.8</ele>
        <time>2024-04-17T12:25:19Z</time>
      </trkpt>
      <trkpt lat="43.24576" lon="0.11288">
        <ele>310.8</ele>
        <time>2024-04-17T12:25:20Z</time>
      </trkpt>
      <trkpt lat="43.24576" lon="0.11288">
        <ele>310.8</ele>
        <time>2024-04-17T12:25:21Z</time>
      </trkpt>
      <trkpt lat="43.24576" lon="0.11288">
        <ele>310.8</ele>
        <time>2024-04-17T12:25:22Z</time>
      </trkpt>
      <trkpt lat="43.24576" lon="0.11288">
        <ele>310.8</ele>
        <time>2024-04-17T12:25:23Z</time>
      </trkpt>
      <trkpt lat="43.24576" lon="0.11288">
        <ele>310.8</ele>
        <time>2024-04-17T12:25:24Z</time>
      </trkpt>
      <trkpt lat="43.24576" lon="0.11288">
        <ele>310.8</ele>
        <time>2024-04-17T12:25:25Z</time>
      </trkpt>
      <trkpt lat="43.24576" lon="0.11288">
        <ele>310.8</ele>
        <time>2024-04-17T12:25:26Z</time>
      </trkpt>
      <trkpt lat="43.24576" lon="0.11288">
        <ele>310.8</ele>
        <time>2024-04-17T12:25:27Z</time>
      </trkpt>
      <trkpt lat="43.24576" lon="0.11288">
        <ele>310.8</ele>
        <time>2024-04-17T12:25:28Z</time>
      </trkpt>
      <trkpt lat="43.24576" lon="0.11288">
        <ele>310.8</ele>
        <time>2024-04-17T12:25:29Z</time>
      </trkpt>
      <trkpt lat="43.24576" lon="0.11288">
        <ele>310.8</ele>
        <time>2024-04-17T12:25:30Z</time>
      </trkpt>
      <trkpt lat="43.24576" lon="0.11288">
        <ele>310.8</ele>
        <time>2024-04-17T12:25:31Z</time>
      </trkpt>
      <trkpt lat="43.24576" lon="0.11288">
        <ele>310.8</ele>
        <time>2024-04-17T12:25:32Z</time>
      </trkpt>
      <trkpt lat="43.24576" lon="0.11288">
        <ele>310.8</ele>
        <time>2024-04-17T12:25:33Z</time>
      </trkpt>
      <trkpt lat="43.24576" lon="0.11288">
        <ele>310.8</ele>
        <time>2024-04-17T12:25:34Z</time>
      </trkpt>
      <trkpt lat="43.24576" lon="0.11288">
        <ele>310.8</ele>
        <time>2024-04-17T12:25:35Z</time>
      </trkpt>
      <trkpt lat="43.24576" lon="0.11288">
        <ele>310.8</ele>
        <time>2024-04-17T12:25:36Z</time>
      </trkpt>
      <trkpt lat="43.24576" lon="0.11288">
        <ele>310.8</ele>
        <time>2024-04-17T12:25:37Z</time>
      </trkpt>
      <trkpt lat="43.24576" lon="0.11288">
        <ele>310.8</ele>
        <time>2024-04-17T12:25:38Z</time>
      </trkpt>
      <trkpt lat="43.24576" lon="0.11288">
        <ele>310.8</ele>
        <time>2024-04-17T12:25:39Z</time>
      </trkpt>
      <trkpt lat="43.24576" lon="0.11288">
        <ele>310.8</ele>
        <time>2024-04-17T12:25:40Z</time>
      </trkpt>
      <trkpt lat="43.24576" lon="0.11288">
        <ele>310.8</ele>
        <time>2024-04-17T12:25:41Z</time>
      </trkpt>
      <trkpt lat="43.24576" lon="0.11288">
        <ele>310.8</ele>
        <time>2024-04-17T12:25:42Z</time>
      </trkpt>
      <trkpt lat="43.24576" lon="0.11288">
        <ele>310.8</ele>
        <time>2024-04-17T12:25:43Z</time>
      </trkpt>
      <trkpt lat="43.24576" lon="0.11288">
        <ele>310.8</ele>
        <time>2024-04-17T12:25:44Z</time>
      </trkpt>
      <trkpt lat="43.24576" lon="0.11288">
        <ele>310.8</ele>
        <time>2024-04-17T12:25:45Z</time>
      </trkpt>
      <trkpt lat="43.24576" lon="0.11288">
        <ele>310.8</ele>
        <time>2024-04-17T12:25:46Z</time>
      </trkpt>
      <trkpt lat="43.24576" lon="0.11288">
        <ele>310.8</ele>
        <time>2024-04-17T12:25:47Z</time>
      </trkpt>
      <trkpt lat="43.24576" lon="0.11288">
        <ele>310.8</ele>
        <time>2024-04-17T12:25:48Z</time>
      </trkpt>
      <trkpt lat="43.24576" lon="0.11288">
        <ele>310.8</ele>
        <time>2024-04-17T12:25:49Z</time>
      </trkpt>
      <trkpt lat="43.24576" lon="0.11288">
        <ele>310.8</ele>
        <time>2024-04-17T12:25:50Z</time>
      </trkpt>
      <trkpt lat="43.24576" lon="0.11288">
        <ele>310.6</ele>
        <time>2024-04-17T12:25:51Z</time>
      </trkpt>
      <trkpt lat="43.24576" lon="0.11288">
        <ele>310.6</ele>
        <time>2024-04-17T12:25:52Z</time>
      </trkpt>
      <trkpt lat="43.24576" lon="0.11288">
        <ele>310.8</ele>
        <time>2024-04-17T12:25:53Z</time>
      </trkpt>
      <trkpt lat="43.24576" lon="0.11288">
        <ele>310.8</ele>
        <time>2024-04-17T12:25:54Z</time>
      </trkpt>
      <trkpt lat="43.24576" lon="0.11288">
        <ele>310.8</ele>
        <time>2024-04-17T12:25:55Z</time>
      </trkpt>
      <trkpt lat="43.24576" lon="0.11288">
        <ele>310.8</ele>
        <time>2024-04-17T12:25:56Z</time>
      </trkpt>
      <trkpt lat="43.24576" lon="0.11288">
        <ele>310.8</ele>
        <time>2024-04-17T12:25:57Z</time>
      </trkpt>
      <trkpt lat="43.24576" lon="0.11288">
        <ele>310.8</ele>
        <time>2024-04-17T12:25:58Z</time>
      </trkpt>
      <trkpt lat="43.24576" lon="0.11288">
        <ele>310.8</ele>
        <time>2024-04-17T12:25:59Z</time>
      </trkpt>
      <trkpt lat="43.24576" lon="0.11288">
        <ele>310.8</ele>
        <time>2024-04-17T12:26:00Z</time>
      </trkpt>
      <trkpt lat="43.24576" lon="0.11288">
        <ele>310.8</ele>
        <time>2024-04-17T12:26:01Z</time>
      </trkpt>
      <trkpt lat="43.24576" lon="0.11288">
        <ele>310.8</ele>
        <time>2024-04-17T12:26:02Z</time>
      </trkpt>
      <trkpt lat="43.24576" lon="0.11288">
        <ele>311</ele>
        <time>2024-04-17T12:26:03Z</time>
      </trkpt>
      <trkpt lat="43.24576" lon="0.11288">
        <ele>311</ele>
        <time>2024-04-17T12:26:04Z</time>
      </trkpt>
      <trkpt lat="43.24576" lon="0.11288">
        <ele>311</ele>
        <time>2024-04-17T12:26:05Z</time>
      </trkpt>
      <trkpt lat="43.24576" lon="0.11288">
        <ele>311</ele>
        <time>2024-04-17T12:26:06Z</time>
      </trkpt>
      <trkpt lat="43.24577" lon="0.11288">
        <ele>311</ele>
        <time>2024-04-17T12:26:07Z</time>
      </trkpt>
      <trkpt lat="43.24577" lon="0.11288">
        <ele>311</ele>
        <time>2024-04-17T12:26:08Z</time>
      </trkpt>
      <trkpt lat="43.24577" lon="0.11288">
        <ele>311</ele>
        <time>2024-04-17T12:26:09Z</time>
      </trkpt>
      <trkpt lat="43.24577" lon="0.11288">
        <ele>311</ele>
        <time>2024-04-17T12:26:10Z</time>
      </trkpt>
      <trkpt lat="43.24577" lon="0.11288">
        <ele>311</ele>
        <time>2024-04-17T12:26:11Z</time>
      </trkpt>
      <trkpt lat="43.24577" lon="0.11288">
        <ele>311</ele>
        <time>2024-04-17T12:26:12Z</time>
      </trkpt>
      <trkpt lat="43.24577" lon="0.11288">
        <ele>311</ele>
        <time>2024-04-17T12:26:13Z</time>
      </trkpt>
      <trkpt lat="43.24577" lon="0.11288">
        <ele>311</ele>
        <time>2024-04-17T12:26:14Z</time>
      </trkpt>
      <trkpt lat="43.24577" lon="0.11288">
        <ele>311</ele>
        <time>2024-04-17T12:26:15Z</time>
      </trkpt>
      <trkpt lat="43.24577" lon="0.11288">
        <ele>311</ele>
        <time>2024-04-17T12:26:16Z</time>
      </trkpt>
      <trkpt lat="43.24577" lon="0.11288">
        <ele>311</ele>
        <time>2024-04-17T12:26:17Z</time>
      </trkpt>
      <trkpt lat="43.24577" lon="0.11288">
        <ele>311</ele>
        <time>2024-04-17T12:26:18Z</time>
      </trkpt>
      <trkpt lat="43.24577" lon="0.11288">
        <ele>311</ele>
        <time>2024-04-17T12:26:19Z</time>
      </trkpt>
      <trkpt lat="43.24577" lon="0.11288">
        <ele>311</ele>
        <time>2024-04-17T12:26:20Z</time>
      </trkpt>
      <trkpt lat="43.24577" lon="0.11288">
        <ele>311</ele>
        <time>2024-04-17T12:26:21Z</time>
      </trkpt>
      <trkpt lat="43.24577" lon="0.11288">
        <ele>311</ele>
        <time>2024-04-17T12:26:22Z</time>
      </trkpt>
      <trkpt lat="43.24577" lon="0.11288">
        <ele>311</ele>
        <time>2024-04-17T12:26:23Z</time>
      </trkpt>
      <trkpt lat="43.24577" lon="0.11288">
        <ele>311</ele>
        <time>2024-04-17T12:26:24Z</time>
      </trkpt>
      <trkpt lat="43.24577" lon="0.11288">
        <ele>311</ele>
        <time>2024-04-17T12:26:25Z</time>
      </trkpt>
      <trkpt lat="43.24577" lon="0.11288">
        <ele>311</ele>
        <time>2024-04-17T12:26:26Z</time>
      </trkpt>
      <trkpt lat="43.24577" lon="0.11288">
        <ele>311</ele>
        <time>2024-04-17T12:26:27Z</time>
      </trkpt>
      <trkpt lat="43.24577" lon="0.11288">
        <ele>311</ele>
        <time>2024-04-17T12:26:28Z</time>
      </trkpt>
      <trkpt lat="43.24577" lon="0.11288">
        <ele>311</ele>
        <time>2024-04-17T12:26:29Z</time>
      </trkpt>
      <trkpt lat="43.24577" lon="0.11288">
        <ele>311</ele>
        <time>2024-04-17T12:26:30Z</time>
      </trkpt>
      <trkpt lat="43.24577" lon="0.11288">
        <ele>311</ele>
        <time>2024-04-17T12:26:31Z</time>
      </trkpt>
      <trkpt lat="43.24577" lon="0.11288">
        <ele>311</ele>
        <time>2024-04-17T12:26:32Z</time>
      </trkpt>
      <trkpt lat="43.24577" lon="0.11288">
        <ele>311</ele>
        <time>2024-04-17T12:26:33Z</time>
      </trkpt>
      <trkpt lat="43.24577" lon="0.11288">
        <ele>311</ele>
        <time>2024-04-17T12:26:34Z</time>
      </trkpt>
      <trkpt lat="43.24577" lon="0.11288">
        <ele>311</ele>
        <time>2024-04-17T12:26:35Z</time>
      </trkpt>
      <trkpt lat="43.24577" lon="0.11288">
        <ele>311</ele>
        <time>2024-04-17T12:26:36Z</time>
      </trkpt>
      <trkpt lat="43.24577" lon="0.11288">
        <ele>311</ele>
        <time>2024-04-17T12:26:37Z</time>
      </trkpt>
      <trkpt lat="43.24577" lon="0.11288">
        <ele>311</ele>
        <time>2024-04-17T12:26:38Z</time>
      </trkpt>
      <trkpt lat="43.24577" lon="0.11288">
        <ele>311</ele>
        <time>2024-04-17T12:26:39Z</time>
      </trkpt>
      <trkpt lat="43.24577" lon="0.11288">
        <ele>311</ele>
        <time>2024-04-17T12:26:40Z</time>
      </trkpt>
      <trkpt lat="43.24577" lon="0.11288">
        <ele>311</ele>
        <time>2024-04-17T12:26:41Z</time>
      </trkpt>
      <trkpt lat="43.24577" lon="0.11288">
        <ele>311</ele>
        <time>2024-04-17T12:26:42Z</time>
      </trkpt>
      <trkpt lat="43.24577" lon="0.11288">
        <ele>311</ele>
        <time>2024-04-17T12:26:43Z</time>
      </trkpt>
      <trkpt lat="43.24577" lon="0.11288">
        <ele>311</ele>
        <time>2024-04-17T12:26:44Z</time>
      </trkpt>
      <trkpt lat="43.24577" lon="0.11288">
        <ele>311</ele>
        <time>2024-04-17T12:26:45Z</time>
      </trkpt>
      <trkpt lat="43.24577" lon="0.11288">
        <ele>311</ele>
        <time>2024-04-17T12:26:46Z</time>
      </trkpt>
      <trkpt lat="43.24577" lon="0.11288">
        <ele>311</ele>
        <time>2024-04-17T12:26:47Z</time>
      </trkpt>
      <trkpt lat="43.24577" lon="0.11288">
        <ele>311</ele>
        <time>2024-04-17T12:26:48Z</time>
      </trkpt>
      <trkpt lat="43.24577" lon="0.11288">
        <ele>311</ele>
        <time>2024-04-17T12:26:49Z</time>
      </trkpt>
      <trkpt lat="43.24577" lon="0.11288">
        <ele>311</ele>
        <time>2024-04-17T12:26:50Z</time>
      </trkpt>
      <trkpt lat="43.24577" lon="0.11288">
        <ele>310.8</ele>
        <time>2024-04-17T12:26:51Z</time>
      </trkpt>
      <trkpt lat="43.24577" lon="0.11288">
        <ele>310.8</ele>
        <time>2024-04-17T12:26:52Z</time>
      </trkpt>
      <trkpt lat="43.24577" lon="0.11288">
        <ele>310.6</ele>
        <time>2024-04-17T12:26:53Z</time>
      </trkpt>
      <trkpt lat="43.24577" lon="0.11288">
        <ele>310.6</ele>
        <time>2024-04-17T12:26:54Z</time>
      </trkpt>
      <trkpt lat="43.24577" lon="0.11288">
        <ele>310.8</ele>
        <time>2024-04-17T12:26:55Z</time>
      </trkpt>
      <trkpt lat="43.24577" lon="0.11288">
        <ele>310.8</ele>
        <time>2024-04-17T12:26:56Z</time>
      </trkpt>
      <trkpt lat="43.24577" lon="0.11288">
        <ele>310.8</ele>
        <time>2024-04-17T12:26:57Z</time>
      </trkpt>
      <trkpt lat="43.24577" lon="0.11288">
        <ele>310.8</ele>
        <time>2024-04-17T12:26:58Z</time>
      </trkpt>
      <trkpt lat="43.24577" lon="0.11288">
        <ele>311</ele>
        <time>2024-04-17T12:26:59Z</time>
      </trkpt>
      <trkpt lat="43.24577" lon="0.11288">
        <ele>311</ele>
        <time>2024-04-17T12:27:00Z</time>
      </trkpt>
      <trkpt lat="43.24577" lon="0.11288">
        <ele>311</ele>
        <time>2024-04-17T12:27:01Z</time>
      </trkpt>
      <trkpt lat="43.24577" lon="0.11288">
        <ele>311</ele>
        <time>2024-04-17T12:27:02Z</time>
      </trkpt>
      <trkpt lat="43.24577" lon="0.11288">
        <ele>311</ele>
        <time>2024-04-17T12:27:03Z</time>
      </trkpt>
      <trkpt lat="43.24577" lon="0.11288">
        <ele>311</ele>
        <time>2024-04-17T12:27:04Z</time>
      </trkpt>
      <trkpt lat="43.24577" lon="0.11288">
        <ele>311</ele>
        <time>2024-04-17T12:27:05Z</time>
      </trkpt>
      <trkpt lat="43.24577" lon="0.11288">
        <ele>311</ele>
        <time>2024-04-17T12:27:06Z</time>
      </trkpt>
      <trkpt lat="43.24577" lon="0.11288">
        <ele>311</ele>
        <time>2024-04-17T12:27:07Z</time>
      </trkpt>
      <trkpt lat="43.24577" lon="0.11288">
        <ele>311</ele>
        <time>2024-04-17T12:27:08Z</time>
      </trkpt>
      <trkpt lat="43.24577" lon="0.11288">
        <ele>311</ele>
        <time>2024-04-17T12:27:09Z</time>
      </trkpt>
      <trkpt lat="43.24577" lon="0.11288">
        <ele>311</ele>
        <time>2024-04-17T12:27:10Z</time>
      </trkpt>
      <trkpt lat="43.24577" lon="0.11287">
        <ele>311</ele>
        <time>2024-04-17T12:27:11Z</time>
      </trkpt>
      <trkpt lat="43.24577" lon="0.11287">
        <ele>311</ele>
        <time>2024-04-17T12:27:12Z</time>
      </trkpt>
      <trkpt lat="43.24577" lon="0.11287">
        <ele>311</ele>
        <time>2024-04-17T12:27:13Z</time>
      </trkpt>
      <trkpt lat="43.24577" lon="0.11287">
        <ele>311</ele>
        <time>2024-04-17T12:27:14Z</time>
      </trkpt>
      <trkpt lat="43.24577" lon="0.11287">
        <ele>311</ele>
        <time>2024-04-17T12:27:15Z</time>
      </trkpt>
      <trkpt lat="43.24577" lon="0.11287">
        <ele>311</ele>
        <time>2024-04-17T12:27:16Z</time>
      </trkpt>
      <trkpt lat="43.24577" lon="0.11287">
        <ele>311</ele>
        <time>2024-04-17T12:27:17Z</time>
      </trkpt>
      <trkpt lat="43.24577" lon="0.11287">
        <ele>311</ele>
        <time>2024-04-17T12:27:18Z</time>
      </trkpt>
      <trkpt lat="43.24577" lon="0.11287">
        <ele>311</ele>
        <time>2024-04-17T12:27:19Z</time>
      </trkpt>
      <trkpt lat="43.24577" lon="0.11287">
        <ele>311</ele>
        <time>2024-04-17T12:27:20Z</time>
      </trkpt>
      <trkpt lat="43.24577" lon="0.11287">
        <ele>310.8</ele>
        <time>2024-04-17T12:27:21Z</time>
      </trkpt>
      <trkpt lat="43.24577" lon="0.11287">
        <ele>310.8</ele>
        <time>2024-04-17T12:27:22Z</time>
      </trkpt>
      <trkpt lat="43.24577" lon="0.11287">
        <ele>310.8</ele>
        <time>2024-04-17T12:27:23Z</time>
      </trkpt>
      <trkpt lat="43.24577" lon="0.11287">
        <ele>310.8</ele>
        <time>2024-04-17T12:27:24Z</time>
      </trkpt>
      <trkpt lat="43.24577" lon="0.11287">
        <ele>310.8</ele>
        <time>2024-04-17T12:27:25Z</time>
      </trkpt>
      <trkpt lat="43.24577" lon="0.11287">
        <ele>310.8</ele>
        <time>2024-04-17T12:27:26Z</time>
      </trkpt>
      <trkpt lat="43.24577" lon="0.11287">
        <ele>310.8</ele>
        <time>2024-04-17T12:27:27Z</time>
      </trkpt>
      <trkpt lat="43.24577" lon="0.11287">
        <ele>310.8</ele>
        <time>2024-04-17T12:27:28Z</time>
      </trkpt>
      <trkpt lat="43.24577" lon="0.11287">
        <ele>310.8</ele>
        <time>2024-04-17T12:27:29Z</time>
      </trkpt>
      <trkpt lat="43.24577" lon="0.11287">
        <ele>310.8</ele>
        <time>2024-04-17T12:27:30Z</time>
      </trkpt>
      <trkpt lat="43.24577" lon="0.11287">
        <ele>310.8</ele>
        <time>2024-04-17T12:27:31Z</time>
      </trkpt>
      <trkpt lat="43.24577" lon="0.11287">
        <ele>310.8</ele>
        <time>2024-04-17T12:27:32Z</time>
      </trkpt>
      <trkpt lat="43.24577" lon="0.11287">
        <ele>310.8</ele>
        <time>2024-04-17T12:27:33Z</time>
      </trkpt>
      <trkpt lat="43.24577" lon="0.11287">
        <ele>310.8</ele>
        <time>2024-04-17T12:27:34Z</time>
      </trkpt>
      <trkpt lat="43.24577" lon="0.11287">
        <ele>310.8</ele>
        <time>2024-04-17T12:27:35Z</time>
      </trkpt>
      <trkpt lat="43.24577" lon="0.11287">
        <ele>310.8</ele>
        <time>2024-04-17T12:27:36Z</time>
      </trkpt>
      <trkpt lat="43.24577" lon="0.11287">
        <ele>310.8</ele>
        <time>2024-04-17T12:27:37Z</time>
      </trkpt>
      <trkpt lat="43.24577" lon="0.11287">
        <ele>310.8</ele>
        <time>2024-04-17T12:27:38Z</time>
      </trkpt>
      <trkpt lat="43.24577" lon="0.11287">
        <ele>310.6</ele>
        <time>2024-04-17T12:27:39Z</time>
      </trkpt>
      <trkpt lat="43.24577" lon="0.11287">
        <ele>310.6</ele>
        <time>2024-04-17T12:27:40Z</time>
      </trkpt>
      <trkpt lat="43.24577" lon="0.11287">
        <ele>310.6</ele>
        <time>2024-04-17T12:27:41Z</time>
      </trkpt>
      <trkpt lat="43.24577" lon="0.11287">
        <ele>310.6</ele>
        <time>2024-04-17T12:27:42Z</time>
      </trkpt>
      <trkpt lat="43.24578" lon="0.11286">
        <ele>310.6</ele>
        <time>2024-04-17T12:27:43Z</time>
      </trkpt>
      <trkpt lat="43.24579" lon="0.11286">
        <ele>310.6</ele>
        <time>2024-04-17T12:27:44Z</time>
      </trkpt>
      <trkpt lat="43.24581" lon="0.11284">
        <ele>310.6</ele>
        <time>2024-04-17T12:27:45Z</time>
      </trkpt>
      <trkpt lat="43.24582" lon="0.11283">
        <ele>310.6</ele>
        <time>2024-04-17T12:27:46Z</time>
      </trkpt>
      <trkpt lat="43.24586" lon="0.11284">
        <ele>310.6</ele>
        <time>2024-04-17T12:27:47Z</time>
      </trkpt>
      <trkpt lat="43.2459" lon="0.11285">
        <ele>310.6</ele>
        <time>2024-04-17T12:27:48Z</time>
      </trkpt>
      <trkpt lat="43.24595" lon="0.11286">
        <ele>310.6</ele>
        <time>2024-04-17T12:27:49Z</time>
      </trkpt>
      <trkpt lat="43.246" lon="0.11287">
        <ele>310.6</ele>
        <time>2024-04-17T12:27:50Z</time>
      </trkpt>
      <trkpt lat="43.24605" lon="0.11288">
        <ele>310.4</ele>
        <time>2024-04-17T12:27:51Z</time>
      </trkpt>
      <trkpt lat="43.24609" lon="0.11288">
        <ele>310.2</ele>
        <time>2024-04-17T12:27:52Z</time>
      </trkpt>
      <trkpt lat="43.24613" lon="0.11287">
        <ele>310</ele>
        <time>2024-04-17T12:27:53Z</time>
      </trkpt>
      <trkpt lat="43.24617" lon="0.11288">
        <ele>309.6</ele>
        <time>2024-04-17T12:27:54Z</time>
      </trkpt>
      <trkpt lat="43.24621" lon="0.11287">
        <ele>309.4</ele>
        <time>2024-04-17T12:27:55Z</time>
      </trkpt>
      <trkpt lat="43.24625" lon="0.11285">
        <ele>309</ele>
        <time>2024-04-17T12:27:56Z</time>
      </trkpt>
      <trkpt lat="43.24629" lon="0.11285">
        <ele>308.8</ele>
        <time>2024-04-17T12:27:57Z</time>
      </trkpt>
      <trkpt lat="43.24633" lon="0.11283">
        <ele>308.6</ele>
        <time>2024-04-17T12:27:58Z</time>
      </trkpt>
      <trkpt lat="43.24637" lon="0.11283">
        <ele>308.4</ele>
        <time>2024-04-17T12:27:59Z</time>
      </trkpt>
      <trkpt lat="43.24642" lon="0.11282">
        <ele>308.4</ele>
        <time>2024-04-17T12:28:00Z</time>
      </trkpt>
      <trkpt lat="43.24646" lon="0.11282">
        <ele>308.2</ele>
        <time>2024-04-17T12:28:01Z</time>
      </trkpt>
      <trkpt lat="43.24651" lon="0.11282">
        <ele>308.2</ele>
        <time>2024-04-17T12:28:02Z</time>
      </trkpt>
      <trkpt lat="43.24655" lon="0.11281">
        <ele>308.2</ele>
        <time>2024-04-17T12:28:03Z</time>
      </trkpt>
      <trkpt lat="43.24658" lon="0.11279">
        <ele>308.2</ele>
        <time>2024-04-17T12:28:04Z</time>
      </trkpt>
      <trkpt lat="43.24662" lon="0.11275">
        <ele>308.2</ele>
        <time>2024-04-17T12:28:05Z</time>
      </trkpt>
      <trkpt lat="43.24664" lon="0.11272">
        <ele>308.2</ele>
        <time>2024-04-17T12:28:06Z</time>
      </trkpt>
      <trkpt lat="43.24667" lon="0.11269">
        <ele>308.4</ele>
        <time>2024-04-17T12:28:07Z</time>
      </trkpt>
      <trkpt lat="43.2467" lon="0.11266">
        <ele>308.6</ele>
        <time>2024-04-17T12:28:08Z</time>
      </trkpt>
      <trkpt lat="43.24673" lon="0.11264">
        <ele>308.6</ele>
        <time>2024-04-17T12:28:09Z</time>
      </trkpt>
      <trkpt lat="43.24675" lon="0.11262">
        <ele>308.8</ele>
        <time>2024-04-17T12:28:10Z</time>
      </trkpt>
      <trkpt lat="43.24678" lon="0.11261">
        <ele>309</ele>
        <time>2024-04-17T12:28:11Z</time>
      </trkpt>
      <trkpt lat="43.24681" lon="0.1126">
        <ele>309.2</ele>
        <time>2024-04-17T12:28:12Z</time>
      </trkpt>
      <trkpt lat="43.24683" lon="0.11258">
        <ele>309.4</ele>
        <time>2024-04-17T12:28:13Z</time>
      </trkpt>
      <trkpt lat="43.24686" lon="0.11255">
        <ele>309.4</ele>
        <time>2024-04-17T12:28:14Z</time>
      </trkpt>
      <trkpt lat="43.2469" lon="0.11252">
        <ele>309.6</ele>
        <time>2024-04-17T12:28:15Z</time>
      </trkpt>
      <trkpt lat="43.24693" lon="0.11251">
        <ele>309.6</ele>
        <time>2024-04-17T12:28:16Z</time>
      </trkpt>
      <trkpt lat="43.24695" lon="0.1125">
        <ele>309.6</ele>
        <time>2024-04-17T12:28:17Z</time>
      </trkpt>
      <trkpt lat="43.24697" lon="0.11249">
        <ele>309.8</ele>
        <time>2024-04-17T12:28:18Z</time>
      </trkpt>
      <trkpt lat="43.247" lon="0.11248">
        <ele>309.8</ele>
        <time>2024-04-17T12:28:19Z</time>
      </trkpt>
      <trkpt lat="43.24702" lon="0.11246">
        <ele>309.8</ele>
        <time>2024-04-17T12:28:20Z</time>
      </trkpt>
      <trkpt lat="43.24705" lon="0.11245">
        <ele>309.8</ele>
        <time>2024-04-17T12:28:21Z</time>
      </trkpt>
      <trkpt lat="43.24708" lon="0.11245">
        <ele>309.8</ele>
        <time>2024-04-17T12:28:22Z</time>
      </trkpt>
      <trkpt lat="43.24711" lon="0.11244">
        <ele>309.6</ele>
        <time>2024-04-17T12:28:23Z</time>
      </trkpt>
      <trkpt lat="43.24715" lon="0.11242">
        <ele>309.6</ele>
        <time>2024-04-17T12:28:24Z</time>
      </trkpt>
      <trkpt lat="43.2472" lon="0.1124">
        <ele>309.6</ele>
        <time>2024-04-17T12:28:25Z</time>
      </trkpt>
      <trkpt lat="43.24724" lon="0.11238">
        <ele>309.4</ele>
        <time>2024-04-17T12:28:26Z</time>
      </trkpt>
      <trkpt lat="43.24729" lon="0.11237">
        <ele>309.2</ele>
        <time>2024-04-17T12:28:27Z</time>
      </trkpt>
      <trkpt lat="43.24733" lon="0.11236">
        <ele>308.8</ele>
        <time>2024-04-17T12:28:28Z</time>
      </trkpt>
      <trkpt lat="43.24738" lon="0.11234">
        <ele>308.4</ele>
        <time>2024-04-17T12:28:29Z</time>
      </trkpt>
      <trkpt lat="43.24743" lon="0.11232">
        <ele>308</ele>
        <time>2024-04-17T12:28:30Z</time>
      </trkpt>
      <trkpt lat="43.24748" lon="0.11231">
        <ele>307.8</ele>
        <time>2024-04-17T12:28:31Z</time>
      </trkpt>
      <trkpt lat="43.24752" lon="0.1123">
        <ele>307.6</ele>
        <time>2024-04-17T12:28:32Z</time>
      </trkpt>
      <trkpt lat="43.24756" lon="0.11229">
        <ele>307.2</ele>
        <time>2024-04-17T12:28:33Z</time>
      </trkpt>
      <trkpt lat="43.24759" lon="0.11229">
        <ele>307.2</ele>
        <time>2024-04-17T12:28:34Z</time>
      </trkpt>
      <trkpt lat="43.24763" lon="0.11229">
        <ele>306.8</ele>
        <time>2024-04-17T12:28:35Z</time>
      </trkpt>
      <trkpt lat="43.24766" lon="0.11228">
        <ele>306.6</ele>
        <time>2024-04-17T12:28:36Z</time>
      </trkpt>
      <trkpt lat="43.24768" lon="0.11227">
        <ele>306.6</ele>
        <time>2024-04-17T12:28:37Z</time>
      </trkpt>
      <trkpt lat="43.24772" lon="0.11227">
        <ele>306.6</ele>
        <time>2024-04-17T12:28:38Z</time>
      </trkpt>
      <trkpt lat="43.24774" lon="0.11228">
        <ele>306.4</ele>
        <time>2024-04-17T12:28:39Z</time>
      </trkpt>
      <trkpt lat="43.24777" lon="0.11229">
        <ele>306.4</ele>
        <time>2024-04-17T12:28:40Z</time>
      </trkpt>
      <trkpt lat="43.24779" lon="0.11229">
        <ele>306.4</ele>
        <time>2024-04-17T12:28:41Z</time>
      </trkpt>
      <trkpt lat="43.24782" lon="0.11229">
        <ele>306.4</ele>
        <time>2024-04-17T12:28:42Z</time>
      </trkpt>
      <trkpt lat="43.24785" lon="0.11228">
        <ele>306.2</ele>
        <time>2024-04-17T12:28:43Z</time>
      </trkpt>
      <trkpt lat="43.24787" lon="0.11227">
        <ele>306.2</ele>
        <time>2024-04-17T12:28:44Z</time>
      </trkpt>
      <trkpt lat="43.24789" lon="0.11228">
        <ele>306.2</ele>
        <time>2024-04-17T12:28:45Z</time>
      </trkpt>
      <trkpt lat="43.24792" lon="0.11228">
        <ele>306.2</ele>
        <time>2024-04-17T12:28:46Z</time>
      </trkpt>
      <trkpt lat="43.24796" lon="0.11229">
        <ele>306</ele>
        <time>2024-04-17T12:28:47Z</time>
      </trkpt>
      <trkpt lat="43.248" lon="0.11229">
        <ele>306</ele>
        <time>2024-04-17T12:28:48Z</time>
      </trkpt>
      <trkpt lat="43.24803" lon="0.11229">
        <ele>306</ele>
        <time>2024-04-17T12:28:49Z</time>
      </trkpt>
      <trkpt lat="43.24807" lon="0.1123">
        <ele>306</ele>
        <time>2024-04-17T12:28:50Z</time>
      </trkpt>
      <trkpt lat="43.24812" lon="0.11231">
        <ele>306</ele>
        <time>2024-04-17T12:28:51Z</time>
      </trkpt>
      <trkpt lat="43.24817" lon="0.11232">
        <ele>306</ele>
        <time>2024-04-17T12:28:52Z</time>
      </trkpt>
      <trkpt lat="43.24822" lon="0.11232">
        <ele>306</ele>
        <time>2024-04-17T12:28:53Z</time>
      </trkpt>
      <trkpt lat="43.24826" lon="0.11231">
        <ele>305.8</ele>
        <time>2024-04-17T12:28:54Z</time>
      </trkpt>
      <trkpt lat="43.2483" lon="0.1123">
        <ele>305.8</ele>
        <time>2024-04-17T12:28:55Z</time>
      </trkpt>
      <trkpt lat="43.24834" lon="0.11228">
        <ele>305.8</ele>
        <time>2024-04-17T12:28:56Z</time>
      </trkpt>
      <trkpt lat="43.24838" lon="0.11228">
        <ele>305.8</ele>
        <time>2024-04-17T12:28:57Z</time>
      </trkpt>
      <trkpt lat="43.24843" lon="0.11227">
        <ele>305.8</ele>
        <time>2024-04-17T12:28:58Z</time>
      </trkpt>
      <trkpt lat="43.24846" lon="0.11226">
        <ele>305.8</ele>
        <time>2024-04-17T12:28:59Z</time>
      </trkpt>
      <trkpt lat="43.2485" lon="0.11225">
        <ele>305.8</ele>
        <time>2024-04-17T12:29:00Z</time>
      </trkpt>
      <trkpt lat="43.24853" lon="0.11224">
        <ele>305.6</ele>
        <time>2024-04-17T12:29:01Z</time>
      </trkpt>
      <trkpt lat="43.24857" lon="0.11223">
        <ele>305.6</ele>
        <time>2024-04-17T12:29:02Z</time>
      </trkpt>
      <trkpt lat="43.24859" lon="0.11222">
        <ele>305.8</ele>
        <time>2024-04-17T12:29:03Z</time>
      </trkpt>
      <trkpt lat="43.24862" lon="0.11222">
        <ele>306</ele>
        <time>2024-04-17T12:29:04Z</time>
      </trkpt>
      <trkpt lat="43.24865" lon="0.11222">
        <ele>306</ele>
        <time>2024-04-17T12:29:05Z</time>
      </trkpt>
      <trkpt lat="43.24868" lon="0.11221">
        <ele>306</ele>
        <time>2024-04-17T12:29:06Z</time>
      </trkpt>
      <trkpt lat="43.24871" lon="0.1122">
        <ele>305.8</ele>
        <time>2024-04-17T12:29:07Z</time>
      </trkpt>
      <trkpt lat="43.24874" lon="0.1122">
        <ele>306</ele>
        <time>2024-04-17T12:29:08Z</time>
      </trkpt>
      <trkpt lat="43.24878" lon="0.1122">
        <ele>306</ele>
        <time>2024-04-17T12:29:09Z</time>
      </trkpt>
      <trkpt lat="43.24881" lon="0.11219">
        <ele>306</ele>
        <time>2024-04-17T12:29:10Z</time>
      </trkpt>
      <trkpt lat="43.24884" lon="0.11219">
        <ele>306</ele>
        <time>2024-04-17T12:29:11Z</time>
      </trkpt>
      <trkpt lat="43.24888" lon="0.11218">
        <ele>306</ele>
        <time>2024-04-17T12:29:12Z</time>
      </trkpt>
      <trkpt lat="43.24891" lon="0.11218">
        <ele>305.8</ele>
        <time>2024-04-17T12:29:13Z</time>
      </trkpt>
      <trkpt lat="43.24895" lon="0.11217">
        <ele>305.8</ele>
        <time>2024-04-17T12:29:14Z</time>
      </trkpt>
      <trkpt lat="43.24898" lon="0.11217">
        <ele>305.8</ele>
        <time>2024-04-17T12:29:15Z</time>
      </trkpt>
      <trkpt lat="43.24902" lon="0.11215">
        <ele>305.6</ele>
        <time>2024-04-17T12:29:16Z</time>
      </trkpt>
      <trkpt lat="43.24906" lon="0.11215">
        <ele>305.6</ele>
        <time>2024-04-17T12:29:17Z</time>
      </trkpt>
      <trkpt lat="43.2491" lon="0.11214">
        <ele>305.4</ele>
        <time>2024-04-17T12:29:18Z</time>
      </trkpt>
      <trkpt lat="43.24914" lon="0.11214">
        <ele>305.4</ele>
        <time>2024-04-17T12:29:19Z</time>
      </trkpt>
      <trkpt lat="43.24917" lon="0.11213">
        <ele>305.2</ele>
        <time>2024-04-17T12:29:20Z</time>
      </trkpt>
      <trkpt lat="43.24921" lon="0.11212">
        <ele>305.2</ele>
        <time>2024-04-17T12:29:21Z</time>
      </trkpt>
      <trkpt lat="43.24925" lon="0.11212">
        <ele>305.2</ele>
        <time>2024-04-17T12:29:22Z</time>
      </trkpt>
      <trkpt lat="43.24929" lon="0.11211">
        <ele>305.2</ele>
        <time>2024-04-17T12:29:23Z</time>
      </trkpt>
      <trkpt lat="43.24933" lon="0.11211">
        <ele>305.2</ele>
        <time>2024-04-17T12:29:24Z</time>
      </trkpt>
      <trkpt lat="43.24937" lon="0.11209">
        <ele>305</ele>
        <time>2024-04-17T12:29:25Z</time>
      </trkpt>
      <trkpt lat="43.24941" lon="0.1121">
        <ele>304.8</ele>
        <time>2024-04-17T12:29:26Z</time>
      </trkpt>
      <trkpt lat="43.24945" lon="0.11211">
        <ele>304.8</ele>
        <time>2024-04-17T12:29:27Z</time>
      </trkpt>
      <trkpt lat="43.24948" lon="0.11213">
        <ele>304.6</ele>
        <time>2024-04-17T12:29:28Z</time>
      </trkpt>
      <trkpt lat="43.24949" lon="0.11216">
        <ele>304.6</ele>
        <time>2024-04-17T12:29:29Z</time>
      </trkpt>
      <trkpt lat="43.2495" lon="0.11219">
        <ele>304.6</ele>
        <time>2024-04-17T12:29:30Z</time>
      </trkpt>
      <trkpt lat="43.24951" lon="0.11223">
        <ele>304.6</ele>
        <time>2024-04-17T12:29:31Z</time>
      </trkpt>
      <trkpt lat="43.24951" lon="0.11226">
        <ele>304.6</ele>
        <time>2024-04-17T12:29:32Z</time>
      </trkpt>
      <trkpt lat="43.24951" lon="0.11229">
        <ele>304.6</ele>
        <time>2024-04-17T12:29:33Z</time>
      </trkpt>
      <trkpt lat="43.2495" lon="0.11232">
        <ele>304.6</ele>
        <time>2024-04-17T12:29:34Z</time>
      </trkpt>
      <trkpt lat="43.24949" lon="0.11235">
        <ele>304.6</ele>
        <time>2024-04-17T12:29:35Z</time>
      </trkpt>
      <trkpt lat="43.24949" lon="0.11237">
        <ele>304.4</ele>
        <time>2024-04-17T12:29:36Z</time>
      </trkpt>
      <trkpt lat="43.24952" lon="0.11242">
        <ele>304.4</ele>
        <time>2024-04-17T12:29:37Z</time>
      </trkpt>
      <trkpt lat="43.24954" lon="0.11244">
        <ele>304.4</ele>
        <time>2024-04-17T12:29:38Z</time>
      </trkpt>
      <trkpt lat="43.24956" lon="0.11247">
        <ele>304.4</ele>
        <time>2024-04-17T12:29:39Z</time>
      </trkpt>
      <trkpt lat="43.24958" lon="0.11247">
        <ele>304.4</ele>
        <time>2024-04-17T12:29:40Z</time>
      </trkpt>
      <trkpt lat="43.24961" lon="0.11248">
        <ele>304.8</ele>
        <time>2024-04-17T12:29:41Z</time>
      </trkpt>
      <trkpt lat="43.24964" lon="0.11248">
        <ele>304.8</ele>
        <time>2024-04-17T12:29:42Z</time>
      </trkpt>
      <trkpt lat="43.24968" lon="0.11247">
        <ele>305</ele>
        <time>2024-04-17T12:29:43Z</time>
      </trkpt>
      <trkpt lat="43.24971" lon="0.11247">
        <ele>305.4</ele>
        <time>2024-04-17T12:29:44Z</time>
      </trkpt>
      <trkpt lat="43.24973" lon="0.11247">
        <ele>305.4</ele>
        <time>2024-04-17T12:29:45Z</time>
      </trkpt>
      <trkpt lat="43.24976" lon="0.11247">
        <ele>305.6</ele>
        <time>2024-04-17T12:29:46Z</time>
      </trkpt>
      <trkpt lat="43.24978" lon="0.11247">
        <ele>305.6</ele>
        <time>2024-04-17T12:29:47Z</time>
      </trkpt>
      <trkpt lat="43.24981" lon="0.11245">
        <ele>305.6</ele>
        <time>2024-04-17T12:29:48Z</time>
      </trkpt>
      <trkpt lat="43.24983" lon="0.11244">
        <ele>305.6</ele>
        <time>2024-04-17T12:29:49Z</time>
      </trkpt>
      <trkpt lat="43.24985" lon="0.11243">
        <ele>305.6</ele>
        <time>2024-04-17T12:29:50Z</time>
      </trkpt>
      <trkpt lat="43.24989" lon="0.11242">
        <ele>305.6</ele>
        <time>2024-04-17T12:29:51Z</time>
      </trkpt>
      <trkpt lat="43.24992" lon="0.11242">
        <ele>305.6</ele>
        <time>2024-04-17T12:29:52Z</time>
      </trkpt>
      <trkpt lat="43.24996" lon="0.11242">
        <ele>305.2</ele>
        <time>2024-04-17T12:29:53Z</time>
      </trkpt>
      <trkpt lat="43.24999" lon="0.11242">
        <ele>305.2</ele>
        <time>2024-04-17T12:29:54Z</time>
      </trkpt>
      <trkpt lat="43.25003" lon="0.11242">
        <ele>305.2</ele>
        <time>2024-04-17T12:29:55Z</time>
      </trkpt>
      <trkpt lat="43.25007" lon="0.11241">
        <ele>305.2</ele>
        <time>2024-04-17T12:29:56Z</time>
      </trkpt>
      <trkpt lat="43.25011" lon="0.11242">
        <ele>305.2</ele>
        <time>2024-04-17T12:29:57Z</time>
      </trkpt>
      <trkpt lat="43.25016" lon="0.11242">
        <ele>305.2</ele>
        <time>2024-04-17T12:29:58Z</time>
      </trkpt>
      <trkpt lat="43.2502" lon="0.11242">
        <ele>305.2</ele>
        <time>2024-04-17T12:29:59Z</time>
      </trkpt>
      <trkpt lat="43.25023" lon="0.11241">
        <ele>305.2</ele>
        <time>2024-04-17T12:30:00Z</time>
      </trkpt>
      <trkpt lat="43.25027" lon="0.11241">
        <ele>305.2</ele>
        <time>2024-04-17T12:30:01Z</time>
      </trkpt>
      <trkpt lat="43.25031" lon="0.11238">
        <ele>305.2</ele>
        <time>2024-04-17T12:30:02Z</time>
      </trkpt>
      <trkpt lat="43.25035" lon="0.11236">
        <ele>305.2</ele>
        <time>2024-04-17T12:30:03Z</time>
      </trkpt>
      <trkpt lat="43.2504" lon="0.11235">
        <ele>305.2</ele>
        <time>2024-04-17T12:30:04Z</time>
      </trkpt>
      <trkpt lat="43.25045" lon="0.11233">
        <ele>305.2</ele>
        <time>2024-04-17T12:30:05Z</time>
      </trkpt>
      <trkpt lat="43.25047" lon="0.11233">
        <ele>305.2</ele>
        <time>2024-04-17T12:30:06Z</time>
      </trkpt>
      <trkpt lat="43.25051" lon="0.11234">
        <ele>305.2</ele>
        <time>2024-04-17T12:30:07Z</time>
      </trkpt>
      <trkpt lat="43.25056" lon="0.11235">
        <ele>305.2</ele>
        <time>2024-04-17T12:30:08Z</time>
      </trkpt>
      <trkpt lat="43.2506" lon="0.11234">
        <ele>305.2</ele>
        <time>2024-04-17T12:30:09Z</time>
      </trkpt>
      <trkpt lat="43.25063" lon="0.11234">
        <ele>305.2</ele>
        <time>2024-04-17T12:30:10Z</time>
      </trkpt>
      <trkpt lat="43.25066" lon="0.11234">
        <ele>305.2</ele>
        <time>2024-04-17T12:30:11Z</time>
      </trkpt>
      <trkpt lat="43.2507" lon="0.11235">
        <ele>305.2</ele>
        <time>2024-04-17T12:30:12Z</time>
      </trkpt>
      <trkpt lat="43.25073" lon="0.11235">
        <ele>305.2</ele>
        <time>2024-04-17T12:30:13Z</time>
      </trkpt>
      <trkpt lat="43.25077" lon="0.11235">
        <ele>305.2</ele>
        <time>2024-04-17T12:30:14Z</time>
      </trkpt>
      <trkpt lat="43.25082" lon="0.11236">
        <ele>305</ele>
        <time>2024-04-17T12:30:15Z</time>
      </trkpt>
      <trkpt lat="43.25087" lon="0.11237">
        <ele>305</ele>
        <time>2024-04-17T12:30:16Z</time>
      </trkpt>
      <trkpt lat="43.25092" lon="0.11239">
        <ele>305</ele>
        <time>2024-04-17T12:30:17Z</time>
      </trkpt>
      <trkpt lat="43.25095" lon="0.1124">
        <ele>305</ele>
        <time>2024-04-17T12:30:18Z</time>
      </trkpt>
      <trkpt lat="43.25099" lon="0.1124">
        <ele>305</ele>
        <time>2024-04-17T12:30:19Z</time>
      </trkpt>
      <trkpt lat="43.25103" lon="0.11239">
        <ele>305</ele>
        <time>2024-04-17T12:30:20Z</time>
      </trkpt>
      <trkpt lat="43.25106" lon="0.1124">
        <ele>305</ele>
        <time>2024-04-17T12:30:21Z</time>
      </trkpt>
      <trkpt lat="43.25107" lon="0.11242">
        <ele>305</ele>
        <time>2024-04-17T12:30:22Z</time>
      </trkpt>
      <trkpt lat="43.25109" lon="0.11244">
        <ele>305</ele>
        <time>2024-04-17T12:30:23Z</time>
      </trkpt>
      <trkpt lat="43.25112" lon="0.11245">
        <ele>305.2</ele>
        <time>2024-04-17T12:30:24Z</time>
      </trkpt>
      <trkpt lat="43.25115" lon="0.11246">
        <ele>305.4</ele>
        <time>2024-04-17T12:30:25Z</time>
      </trkpt>
      <trkpt lat="43.25117" lon="0.11247">
        <ele>305.4</ele>
        <time>2024-04-17T12:30:26Z</time>
      </trkpt>
      <trkpt lat="43.2512" lon="0.11247">
        <ele>305.4</ele>
        <time>2024-04-17T12:30:27Z</time>
      </trkpt>
      <trkpt lat="43.25122" lon="0.11247">
        <ele>305.6</ele>
        <time>2024-04-17T12:30:28Z</time>
      </trkpt>
      <trkpt lat="43.25124" lon="0.11247">
        <ele>305.8</ele>
        <time>2024-04-17T12:30:29Z</time>
      </trkpt>
      <trkpt lat="43.25125" lon="0.11248">
        <ele>306</ele>
        <time>2024-04-17T12:30:30Z</time>
      </trkpt>
      <trkpt lat="43.25126" lon="0.11248">
        <ele>306.4</ele>
        <time>2024-04-17T12:30:31Z</time>
      </trkpt>
      <trkpt lat="43.25128" lon="0.11249">
        <ele>306.6</ele>
        <time>2024-04-17T12:30:32Z</time>
      </trkpt>
      <trkpt lat="43.2513" lon="0.11251">
        <ele>306.8</ele>
        <time>2024-04-17T12:30:33Z</time>
      </trkpt>
      <trkpt lat="43.25131" lon="0.11253">
        <ele>307.2</ele>
        <time>2024-04-17T12:30:34Z</time>
      </trkpt>
      <trkpt lat="43.25133" lon="0.11254">
        <ele>307.4</ele>
        <time>2024-04-17T12:30:35Z</time>
      </trkpt>
      <trkpt lat="43.25134" lon="0.11254">
        <ele>307.6</ele>
        <time>2024-04-17T12:30:36Z</time>
      </trkpt>
      <trkpt lat="43.25136" lon="0.11255">
        <ele>307.6</ele>
        <time>2024-04-17T12:30:37Z</time>
      </trkpt>
      <trkpt lat="43.25137" lon="0.11256">
        <ele>307.8</ele>
        <time>2024-04-17T12:30:38Z</time>
      </trkpt>
      <trkpt lat="43.25139" lon="0.11257">
        <ele>307.8</ele>
        <time>2024-04-17T12:30:39Z</time>
      </trkpt>
      <trkpt lat="43.25141" lon="0.11258">
        <ele>308.2</ele>
        <time>2024-04-17T12:30:40Z</time>
      </trkpt>
      <trkpt lat="43.25142" lon="0.11259">
        <ele>308.2</ele>
        <time>2024-04-17T12:30:41Z</time>
      </trkpt>
      <trkpt lat="43.25144" lon="0.11261">
        <ele>308.4</ele>
        <time>2024-04-17T12:30:42Z</time>
      </trkpt>
      <trkpt lat="43.25146" lon="0.11263">
        <ele>308.6</ele>
        <time>2024-04-17T12:30:43Z</time>
      </trkpt>
      <trkpt lat="43.25147" lon="0.11266">
        <ele>308.8</ele>
        <time>2024-04-17T12:30:44Z</time>
      </trkpt>
      <trkpt lat="43.25148" lon="0.11267">
        <ele>309</ele>
        <time>2024-04-17T12:30:45Z</time>
      </trkpt>
      <trkpt lat="43.25149" lon="0.11269">
        <ele>309.2</ele>
        <time>2024-04-17T12:30:46Z</time>
      </trkpt>
      <trkpt lat="43.2515" lon="0.11273">
        <ele>309.4</ele>
        <time>2024-04-17T12:30:47Z</time>
      </trkpt>
      <trkpt lat="43.25153" lon="0.11275">
        <ele>309.6</ele>
        <time>2024-04-17T12:30:48Z</time>
      </trkpt>
      <trkpt lat="43.25154" lon="0.11278">
        <ele>309.8</ele>
        <time>2024-04-17T12:30:49Z</time>
      </trkpt>
      <trkpt lat="43.25156" lon="0.11281">
        <ele>310</ele>
        <time>2024-04-17T12:30:50Z</time>
      </trkpt>
      <trkpt lat="43.25157" lon="0.11283">
        <ele>310</ele>
        <time>2024-04-17T12:30:51Z</time>
      </trkpt>
      <trkpt lat="43.25158" lon="0.11285">
        <ele>310.4</ele>
        <time>2024-04-17T12:30:52Z</time>
      </trkpt>
      <trkpt lat="43.2516" lon="0.11286">
        <ele>310.6</ele>
        <time>2024-04-17T12:30:53Z</time>
      </trkpt>
      <trkpt lat="43.25162" lon="0.11287">
        <ele>310.8</ele>
        <time>2024-04-17T12:30:54Z</time>
      </trkpt>
      <trkpt lat="43.25164" lon="0.11288">
        <ele>310.8</ele>
        <time>2024-04-17T12:30:55Z</time>
      </trkpt>
      <trkpt lat="43.25166" lon="0.11289">
        <ele>311</ele>
        <time>2024-04-17T12:30:56Z</time>
      </trkpt>
      <trkpt lat="43.25167" lon="0.1129">
        <ele>311.2</ele>
        <time>2024-04-17T12:30:57Z</time>
      </trkpt>
      <trkpt lat="43.25169" lon="0.11291">
        <ele>311.6</ele>
        <time>2024-04-17T12:30:58Z</time>
      </trkpt>
      <trkpt lat="43.25171" lon="0.11292">
        <ele>311.8</ele>
        <time>2024-04-17T12:30:59Z</time>
      </trkpt>
      <trkpt lat="43.25174" lon="0.11293">
        <ele>311.8</ele>
        <time>2024-04-17T12:31:00Z</time>
      </trkpt>
      <trkpt lat="43.25176" lon="0.11294">
        <ele>312</ele>
        <time>2024-04-17T12:31:01Z</time>
      </trkpt>
      <trkpt lat="43.25177" lon="0.11294">
        <ele>312</ele>
        <time>2024-04-17T12:31:02Z</time>
      </trkpt>
      <trkpt lat="43.25179" lon="0.11294">
        <ele>312.2</ele>
        <time>2024-04-17T12:31:03Z</time>
      </trkpt>
      <trkpt lat="43.25181" lon="0.11294">
        <ele>312.4</ele>
        <time>2024-04-17T12:31:04Z</time>
      </trkpt>
      <trkpt lat="43.25183" lon="0.11294">
        <ele>312.4</ele>
        <time>2024-04-17T12:31:05Z</time>
      </trkpt>
      <trkpt lat="43.25185" lon="0.11294">
        <ele>312.8</ele>
        <time>2024-04-17T12:31:06Z</time>
      </trkpt>
      <trkpt lat="43.25187" lon="0.11295">
        <ele>312.8</ele>
        <time>2024-04-17T12:31:07Z</time>
      </trkpt>
      <trkpt lat="43.25189" lon="0.11295">
        <ele>313</ele>
        <time>2024-04-17T12:31:08Z</time>
      </trkpt>
      <trkpt lat="43.25191" lon="0.11295">
        <ele>313</ele>
        <time>2024-04-17T12:31:09Z</time>
      </trkpt>
      <trkpt lat="43.25193" lon="0.11296">
        <ele>313.2</ele>
        <time>2024-04-17T12:31:10Z</time>
      </trkpt>
      <trkpt lat="43.25195" lon="0.11296">
        <ele>313.4</ele>
        <time>2024-04-17T12:31:11Z</time>
      </trkpt>
      <trkpt lat="43.25196" lon="0.11296">
        <ele>313.6</ele>
        <time>2024-04-17T12:31:12Z</time>
      </trkpt>
      <trkpt lat="43.25198" lon="0.11296">
        <ele>313.8</ele>
        <time>2024-04-17T12:31:13Z</time>
      </trkpt>
      <trkpt lat="43.252" lon="0.11296">
        <ele>314</ele>
        <time>2024-04-17T12:31:14Z</time>
      </trkpt>
      <trkpt lat="43.25203" lon="0.11297">
        <ele>314.2</ele>
        <time>2024-04-17T12:31:15Z</time>
      </trkpt>
      <trkpt lat="43.25204" lon="0.11297">
        <ele>314.2</ele>
        <time>2024-04-17T12:31:16Z</time>
      </trkpt>
      <trkpt lat="43.25207" lon="0.11297">
        <ele>314.4</ele>
        <time>2024-04-17T12:31:17Z</time>
      </trkpt>
      <trkpt lat="43.25209" lon="0.11297">
        <ele>314.4</ele>
        <time>2024-04-17T12:31:18Z</time>
      </trkpt>
      <trkpt lat="43.25211" lon="0.11298">
        <ele>314.6</ele>
        <time>2024-04-17T12:31:19Z</time>
      </trkpt>
      <trkpt lat="43.25214" lon="0.11298">
        <ele>314.8</ele>
        <time>2024-04-17T12:31:20Z</time>
      </trkpt>
      <trkpt lat="43.25216" lon="0.11299">
        <ele>315</ele>
        <time>2024-04-17T12:31:21Z</time>
      </trkpt>
      <trkpt lat="43.25218" lon="0.113">
        <ele>315.2</ele>
        <time>2024-04-17T12:31:22Z</time>
      </trkpt>
      <trkpt lat="43.2522" lon="0.113">
        <ele>315.4</ele>
        <time>2024-04-17T12:31:23Z</time>
      </trkpt>
      <trkpt lat="43.25223" lon="0.11301">
        <ele>315.6</ele>
        <time>2024-04-17T12:31:24Z</time>
      </trkpt>
      <trkpt lat="43.25225" lon="0.11302">
        <ele>315.6</ele>
        <time>2024-04-17T12:31:25Z</time>
      </trkpt>
      <trkpt lat="43.25228" lon="0.11303">
        <ele>315.8</ele>
        <time>2024-04-17T12:31:26Z</time>
      </trkpt>
      <trkpt lat="43.2523" lon="0.11304">
        <ele>316</ele>
        <time>2024-04-17T12:31:27Z</time>
      </trkpt>
      <trkpt lat="43.25232" lon="0.11305">
        <ele>316.4</ele>
        <time>2024-04-17T12:31:28Z</time>
      </trkpt>
      <trkpt lat="43.25235" lon="0.11305">
        <ele>316.6</ele>
        <time>2024-04-17T12:31:29Z</time>
      </trkpt>
      <trkpt lat="43.25237" lon="0.11306">
        <ele>316.8</ele>
        <time>2024-04-17T12:31:30Z</time>
      </trkpt>
      <trkpt lat="43.25239" lon="0.11306">
        <ele>316.8</ele>
        <time>2024-04-17T12:31:31Z</time>
      </trkpt>
      <trkpt lat="43.25241" lon="0.11306">
        <ele>317</ele>
        <time>2024-04-17T12:31:32Z</time>
      </trkpt>
      <trkpt lat="43.25242" lon="0.11307">
        <ele>317</ele>
        <time>2024-04-17T12:31:33Z</time>
      </trkpt>
      <trkpt lat="43.25244" lon="0.11307">
        <ele>317.2</ele>
        <time>2024-04-17T12:31:34Z</time>
      </trkpt>
      <trkpt lat="43.25245" lon="0.11308">
        <ele>317.4</ele>
        <time>2024-04-17T12:31:35Z</time>
      </trkpt>
      <trkpt lat="43.25248" lon="0.11308">
        <ele>317.4</ele>
        <time>2024-04-17T12:31:36Z</time>
      </trkpt>
      <trkpt lat="43.2525" lon="0.11308">
        <ele>317.8</ele>
        <time>2024-04-17T12:31:37Z</time>
      </trkpt>
      <trkpt lat="43.25251" lon="0.11309">
        <ele>318</ele>
        <time>2024-04-17T12:31:38Z</time>
      </trkpt>
      <trkpt lat="43.25253" lon="0.1131">
        <ele>318.2</ele>
        <time>2024-04-17T12:31:39Z</time>
      </trkpt>
      <trkpt lat="43.25255" lon="0.1131">
        <ele>318.4</ele>
        <time>2024-04-17T12:31:40Z</time>
      </trkpt>
      <trkpt lat="43.25257" lon="0.1131">
        <ele>318.4</ele>
        <time>2024-04-17T12:31:41Z</time>
      </trkpt>
      <trkpt lat="43.25259" lon="0.11311">
        <ele>318.6</ele>
        <time>2024-04-17T12:31:42Z</time>
      </trkpt>
      <trkpt lat="43.25261" lon="0.11312">
        <ele>318.8</ele>
        <time>2024-04-17T12:31:43Z</time>
      </trkpt>
      <trkpt lat="43.25263" lon="0.11312">
        <ele>319</ele>
        <time>2024-04-17T12:31:44Z</time>
      </trkpt>
      <trkpt lat="43.25265" lon="0.11313">
        <ele>319</ele>
        <time>2024-04-17T12:31:45Z</time>
      </trkpt>
      <trkpt lat="43.25267" lon="0.11314">
        <ele>319.2</ele>
        <time>2024-04-17T12:31:46Z</time>
      </trkpt>
      <trkpt lat="43.25268" lon="0.11314">
        <ele>319.2</ele>
        <time>2024-04-17T12:31:47Z</time>
      </trkpt>
      <trkpt lat="43.2527" lon="0.11315">
        <ele>319.4</ele>
        <time>2024-04-17T12:31:48Z</time>
      </trkpt>
      <trkpt lat="43.25272" lon="0.11316">
        <ele>319.6</ele>
        <time>2024-04-17T12:31:49Z</time>
      </trkpt>
      <trkpt lat="43.25274" lon="0.11316">
        <ele>319.6</ele>
        <time>2024-04-17T12:31:50Z</time>
      </trkpt>
      <trkpt lat="43.25276" lon="0.11316">
        <ele>320</ele>
        <time>2024-04-17T12:31:51Z</time>
      </trkpt>
      <trkpt lat="43.25278" lon="0.11317">
        <ele>320</ele>
        <time>2024-04-17T12:31:52Z</time>
      </trkpt>
      <trkpt lat="43.2528" lon="0.11318">
        <ele>320.2</ele>
        <time>2024-04-17T12:31:53Z</time>
      </trkpt>
      <trkpt lat="43.25282" lon="0.11319">
        <ele>320.2</ele>
        <time>2024-04-17T12:31:54Z</time>
      </trkpt>
      <trkpt lat="43.25284" lon="0.1132">
        <ele>320.4</ele>
        <time>2024-04-17T12:31:55Z</time>
      </trkpt>
      <trkpt lat="43.25286" lon="0.11321">
        <ele>320.6</ele>
        <time>2024-04-17T12:31:56Z</time>
      </trkpt>
      <trkpt lat="43.25288" lon="0.11322">
        <ele>320.6</ele>
        <time>2024-04-17T12:31:57Z</time>
      </trkpt>
      <trkpt lat="43.2529" lon="0.11324">
        <ele>321</ele>
        <time>2024-04-17T12:31:58Z</time>
      </trkpt>
      <trkpt lat="43.25292" lon="0.11325">
        <ele>321</ele>
        <time>2024-04-17T12:31:59Z</time>
      </trkpt>
      <trkpt lat="43.25294" lon="0.11328">
        <ele>321.4</ele>
        <time>2024-04-17T12:32:00Z</time>
      </trkpt>
      <trkpt lat="43.25296" lon="0.11329">
        <ele>321.6</ele>
        <time>2024-04-17T12:32:01Z</time>
      </trkpt>
      <trkpt lat="43.25297" lon="0.11332">
        <ele>321.8</ele>
        <time>2024-04-17T12:32:02Z</time>
      </trkpt>
      <trkpt lat="43.25298" lon="0.11334">
        <ele>322</ele>
        <time>2024-04-17T12:32:03Z</time>
      </trkpt>
      <trkpt lat="43.253" lon="0.11336">
        <ele>322.2</ele>
        <time>2024-04-17T12:32:04Z</time>
      </trkpt>
      <trkpt lat="43.253" lon="0.11338">
        <ele>322.4</ele>
        <time>2024-04-17T12:32:05Z</time>
      </trkpt>
      <trkpt lat="43.253" lon="0.1134">
        <ele>322.6</ele>
        <time>2024-04-17T12:32:06Z</time>
      </trkpt>
      <trkpt lat="43.25301" lon="0.11343">
        <ele>323</ele>
        <time>2024-04-17T12:32:07Z</time>
      </trkpt>
      <trkpt lat="43.25301" lon="0.11345">
        <ele>323</ele>
        <time>2024-04-17T12:32:08Z</time>
      </trkpt>
      <trkpt lat="43.25301" lon="0.11348">
        <ele>323.2</ele>
        <time>2024-04-17T12:32:09Z</time>
      </trkpt>
      <trkpt lat="43.25301" lon="0.1135">
        <ele>323.4</ele>
        <time>2024-04-17T12:32:10Z</time>
      </trkpt>
      <trkpt lat="43.25301" lon="0.11353">
        <ele>323.4</ele>
        <time>2024-04-17T12:32:11Z</time>
      </trkpt>
      <trkpt lat="43.253" lon="0.11356">
        <ele>323.6</ele>
        <time>2024-04-17T12:32:12Z</time>
      </trkpt>
      <trkpt lat="43.253" lon="0.11359">
        <ele>323.8</ele>
        <time>2024-04-17T12:32:13Z</time>
      </trkpt>
      <trkpt lat="43.25299" lon="0.1136">
        <ele>324</ele>
        <time>2024-04-17T12:32:14Z</time>
      </trkpt>
      <trkpt lat="43.25298" lon="0.11362">
        <ele>324</ele>
        <time>2024-04-17T12:32:15Z</time>
      </trkpt>
      <trkpt lat="43.25298" lon="0.11364">
        <ele>324.4</ele>
        <time>2024-04-17T12:32:16Z</time>
      </trkpt>
      <trkpt lat="43.25297" lon="0.11366">
        <ele>324.4</ele>
        <time>2024-04-17T12:32:17Z</time>
      </trkpt>
      <trkpt lat="43.25296" lon="0.11368">
        <ele>324.8</ele>
        <time>2024-04-17T12:32:18Z</time>
      </trkpt>
      <trkpt lat="43.25295" lon="0.1137">
        <ele>325</ele>
        <time>2024-04-17T12:32:19Z</time>
      </trkpt>
      <trkpt lat="43.25294" lon="0.11372">
        <ele>325.2</ele>
        <time>2024-04-17T12:32:20Z</time>
      </trkpt>
      <trkpt lat="43.25293" lon="0.11375">
        <ele>325.4</ele>
        <time>2024-04-17T12:32:21Z</time>
      </trkpt>
      <trkpt lat="43.25292" lon="0.11378">
        <ele>325.4</ele>
        <time>2024-04-17T12:32:22Z</time>
      </trkpt>
      <trkpt lat="43.25291" lon="0.1138">
        <ele>325.6</ele>
        <time>2024-04-17T12:32:23Z</time>
      </trkpt>
      <trkpt lat="43.2529" lon="0.11383">
        <ele>325.8</ele>
        <time>2024-04-17T12:32:24Z</time>
      </trkpt>
      <trkpt lat="43.25289" lon="0.11386">
        <ele>326</ele>
        <time>2024-04-17T12:32:25Z</time>
      </trkpt>
      <trkpt lat="43.25288" lon="0.11389">
        <ele>326.2</ele>
        <time>2024-04-17T12:32:26Z</time>
      </trkpt>
      <trkpt lat="43.25287" lon="0.11392">
        <ele>326.2</ele>
        <time>2024-04-17T12:32:27Z</time>
      </trkpt>
      <trkpt lat="43.25286" lon="0.11395">
        <ele>326.4</ele>
        <time>2024-04-17T12:32:28Z</time>
      </trkpt>
      <trkpt lat="43.25286" lon="0.11398">
        <ele>326.8</ele>
        <time>2024-04-17T12:32:29Z</time>
      </trkpt>
      <trkpt lat="43.25286" lon="0.11401">
        <ele>327</ele>
        <time>2024-04-17T12:32:30Z</time>
      </trkpt>
      <trkpt lat="43.25286" lon="0.11405">
        <ele>327.2</ele>
        <time>2024-04-17T12:32:31Z</time>
      </trkpt>
      <trkpt lat="43.25287" lon="0.11408">
        <ele>327.2</ele>
        <time>2024-04-17T12:32:32Z</time>
      </trkpt>
      <trkpt lat="43.25288" lon="0.1141">
        <ele>327.4</ele>
        <time>2024-04-17T12:32:33Z</time>
      </trkpt>
      <trkpt lat="43.25289" lon="0.11413">
        <ele>327.6</ele>
        <time>2024-04-17T12:32:34Z</time>
      </trkpt>
      <trkpt lat="43.25291" lon="0.11415">
        <ele>327.6</ele>
        <time>2024-04-17T12:32:35Z</time>
      </trkpt>
      <trkpt lat="43.25293" lon="0.11416">
        <ele>327.8</ele>
        <time>2024-04-17T12:32:36Z</time>
      </trkpt>
      <trkpt lat="43.25295" lon="0.11417">
        <ele>328</ele>
        <time>2024-04-17T12:32:37Z</time>
      </trkpt>
      <trkpt lat="43.25297" lon="0.11417">
        <ele>328.2</ele>
        <time>2024-04-17T12:32:38Z</time>
      </trkpt>
      <trkpt lat="43.25298" lon="0.11417">
        <ele>328.2</ele>
        <time>2024-04-17T12:32:39Z</time>
      </trkpt>
      <trkpt lat="43.25299" lon="0.11417">
        <ele>328.4</ele>
        <time>2024-04-17T12:32:40Z</time>
      </trkpt>
      <trkpt lat="43.25301" lon="0.11416">
        <ele>328.6</ele>
        <time>2024-04-17T12:32:41Z</time>
      </trkpt>
      <trkpt lat="43.25302" lon="0.11415">
        <ele>328.6</ele>
        <time>2024-04-17T12:32:42Z</time>
      </trkpt>
      <trkpt lat="43.25304" lon="0.11413">
        <ele>328.8</ele>
        <time>2024-04-17T12:32:43Z</time>
      </trkpt>
      <trkpt lat="43.25306" lon="0.11411">
        <ele>329</ele>
        <time>2024-04-17T12:32:44Z</time>
      </trkpt>
      <trkpt lat="43.25307" lon="0.1141">
        <ele>329.2</ele>
        <time>2024-04-17T12:32:45Z</time>
      </trkpt>
      <trkpt lat="43.25307" lon="0.11409">
        <ele>329.2</ele>
        <time>2024-04-17T12:32:46Z</time>
      </trkpt>
      <trkpt lat="43.25308" lon="0.11407">
        <ele>329.4</ele>
        <time>2024-04-17T12:32:47Z</time>
      </trkpt>
      <trkpt lat="43.25309" lon="0.11406">
        <ele>329.6</ele>
        <time>2024-04-17T12:32:48Z</time>
      </trkpt>
      <trkpt lat="43.25311" lon="0.11405">
        <ele>329.8</ele>
        <time>2024-04-17T12:32:49Z</time>
      </trkpt>
      <trkpt lat="43.25312" lon="0.11403">
        <ele>330</ele>
        <time>2024-04-17T12:32:50Z</time>
      </trkpt>
      <trkpt lat="43.25314" lon="0.11402">
        <ele>330.2</ele>
        <time>2024-04-17T12:32:51Z</time>
      </trkpt>
      <trkpt lat="43.25316" lon="0.11401">
        <ele>330.4</ele>
        <time>2024-04-17T12:32:52Z</time>
      </trkpt>
      <trkpt lat="43.25317" lon="0.114">
        <ele>330.6</ele>
        <time>2024-04-17T12:32:53Z</time>
      </trkpt>
      <trkpt lat="43.25319" lon="0.11399">
        <ele>330.8</ele>
        <time>2024-04-17T12:32:54Z</time>
      </trkpt>
      <trkpt lat="43.25321" lon="0.11398">
        <ele>331</ele>
        <time>2024-04-17T12:32:55Z</time>
      </trkpt>
      <trkpt lat="43.25322" lon="0.11397">
        <ele>331.2</ele>
        <time>2024-04-17T12:32:56Z</time>
      </trkpt>
      <trkpt lat="43.25323" lon="0.11397">
        <ele>331.4</ele>
        <time>2024-04-17T12:32:57Z</time>
      </trkpt>
      <trkpt lat="43.25325" lon="0.11397">
        <ele>331.6</ele>
        <time>2024-04-17T12:32:58Z</time>
      </trkpt>
      <trkpt lat="43.25326" lon="0.11397">
        <ele>331.8</ele>
        <time>2024-04-17T12:32:59Z</time>
      </trkpt>
      <trkpt lat="43.25328" lon="0.11397">
        <ele>332</ele>
        <time>2024-04-17T12:33:00Z</time>
      </trkpt>
      <trkpt lat="43.2533" lon="0.11396">
        <ele>332.2</ele>
        <time>2024-04-17T12:33:01Z</time>
      </trkpt>
      <trkpt lat="43.25332" lon="0.11395">
        <ele>332.2</ele>
        <time>2024-04-17T12:33:02Z</time>
      </trkpt>
      <trkpt lat="43.25333" lon="0.11395">
        <ele>332.4</ele>
        <time>2024-04-17T12:33:03Z</time>
      </trkpt>
      <trkpt lat="43.25335" lon="0.11395">
        <ele>332.6</ele>
        <time>2024-04-17T12:33:04Z</time>
      </trkpt>
      <trkpt lat="43.25336" lon="0.11395">
        <ele>332.6</ele>
        <time>2024-04-17T12:33:05Z</time>
      </trkpt>
      <trkpt lat="43.25337" lon="0.11394">
        <ele>332.8</ele>
        <time>2024-04-17T12:33:06Z</time>
      </trkpt>
      <trkpt lat="43.25338" lon="0.11394">
        <ele>332.8</ele>
        <time>2024-04-17T12:33:07Z</time>
      </trkpt>
      <trkpt lat="43.2534" lon="0.11394">
        <ele>333</ele>
        <time>2024-04-17T12:33:08Z</time>
      </trkpt>
      <trkpt lat="43.25342" lon="0.11394">
        <ele>333.2</ele>
        <time>2024-04-17T12:33:09Z</time>
      </trkpt>
      <trkpt lat="43.25344" lon="0.11394">
        <ele>333.4</ele>
        <time>2024-04-17T12:33:10Z</time>
      </trkpt>
      <trkpt lat="43.25346" lon="0.11394">
        <ele>333.6</ele>
        <time>2024-04-17T12:33:11Z</time>
      </trkpt>
      <trkpt lat="43.25348" lon="0.11393">
        <ele>333.6</ele>
        <time>2024-04-17T12:33:12Z</time>
      </trkpt>
      <trkpt lat="43.25349" lon="0.11392">
        <ele>333.8</ele>
        <time>2024-04-17T12:33:13Z</time>
      </trkpt>
      <trkpt lat="43.25351" lon="0.11392">
        <ele>333.8</ele>
        <time>2024-04-17T12:33:14Z</time>
      </trkpt>
      <trkpt lat="43.25353" lon="0.11392">
        <ele>334.2</ele>
        <time>2024-04-17T12:33:15Z</time>
      </trkpt>
      <trkpt lat="43.25355" lon="0.11392">
        <ele>334.4</ele>
        <time>2024-04-17T12:33:16Z</time>
      </trkpt>
      <trkpt lat="43.25357" lon="0.11392">
        <ele>335</ele>
        <time>2024-04-17T12:33:17Z</time>
      </trkpt>
      <trkpt lat="43.25358" lon="0.11392">
        <ele>335.4</ele>
        <time>2024-04-17T12:33:18Z</time>
      </trkpt>
      <trkpt lat="43.25361" lon="0.11392">
        <ele>335.4</ele>
        <time>2024-04-17T12:33:19Z</time>
      </trkpt>
      <trkpt lat="43.25363" lon="0.1139">
        <ele>335.6</ele>
        <time>2024-04-17T12:33:20Z</time>
      </trkpt>
      <trkpt lat="43.25365" lon="0.1139">
        <ele>335.8</ele>
        <time>2024-04-17T12:33:21Z</time>
      </trkpt>
      <trkpt lat="43.25367" lon="0.11388">
        <ele>335.8</ele>
        <time>2024-04-17T12:33:22Z</time>
      </trkpt>
      <trkpt lat="43.25368" lon="0.11387">
        <ele>335.8</ele>
        <time>2024-04-17T12:33:23Z</time>
      </trkpt>
      <trkpt lat="43.25368" lon="0.11387">
        <ele>336.2</ele>
        <time>2024-04-17T12:33:24Z</time>
      </trkpt>
      <trkpt lat="43.2537" lon="0.11388">
        <ele>336.4</ele>
        <time>2024-04-17T12:33:25Z</time>
      </trkpt>
      <trkpt lat="43.25372" lon="0.11389">
        <ele>336.4</ele>
        <time>2024-04-17T12:33:26Z</time>
      </trkpt>
      <trkpt lat="43.25374" lon="0.11389">
        <ele>336.8</ele>
        <time>2024-04-17T12:33:27Z</time>
      </trkpt>
      <trkpt lat="43.25376" lon="0.11388">
        <ele>336.8</ele>
        <time>2024-04-17T12:33:28Z</time>
      </trkpt>
      <trkpt lat="43.25377" lon="0.11388">
        <ele>337.2</ele>
        <time>2024-04-17T12:33:29Z</time>
      </trkpt>
      <trkpt lat="43.25377" lon="0.11387">
        <ele>337.2</ele>
        <time>2024-04-17T12:33:30Z</time>
      </trkpt>
      <trkpt lat="43.25378" lon="0.11386">
        <ele>337.4</ele>
        <time>2024-04-17T12:33:31Z</time>
      </trkpt>
      <trkpt lat="43.2538" lon="0.11387">
        <ele>337.4</ele>
        <time>2024-04-17T12:33:32Z</time>
      </trkpt>
      <trkpt lat="43.25382" lon="0.11386">
        <ele>337.8</ele>
        <time>2024-04-17T12:33:33Z</time>
      </trkpt>
      <trkpt lat="43.25383" lon="0.11386">
        <ele>338</ele>
        <time>2024-04-17T12:33:34Z</time>
      </trkpt>
      <trkpt lat="43.25385" lon="0.11386">
        <ele>338</ele>
        <time>2024-04-17T12:33:35Z</time>
      </trkpt>
      <trkpt lat="43.25386" lon="0.11385">
        <ele>338.2</ele>
        <time>2024-04-17T12:33:36Z</time>
      </trkpt>
      <trkpt lat="43.25388" lon="0.11384">
        <ele>338.2</ele>
        <time>2024-04-17T12:33:37Z</time>
      </trkpt>
      <trkpt lat="43.2539" lon="0.11383">
        <ele>338.2</ele>
        <time>2024-04-17T12:33:38Z</time>
      </trkpt>
      <trkpt lat="43.25391" lon="0.11383">
        <ele>338.6</ele>
        <time>2024-04-17T12:33:39Z</time>
      </trkpt>
      <trkpt lat="43.25393" lon="0.11382">
        <ele>338.8</ele>
        <time>2024-04-17T12:33:40Z</time>
      </trkpt>
      <trkpt lat="43.25394" lon="0.11382">
        <ele>338.8</ele>
        <time>2024-04-17T12:33:41Z</time>
      </trkpt>
      <trkpt lat="43.25395" lon="0.11382">
        <ele>338.8</ele>
        <time>2024-04-17T12:33:42Z</time>
      </trkpt>
      <trkpt lat="43.25397" lon="0.11382">
        <ele>339.2</ele>
        <time>2024-04-17T12:33:43Z</time>
      </trkpt>
      <trkpt lat="43.25398" lon="0.11381">
        <ele>339.4</ele>
        <time>2024-04-17T12:33:44Z</time>
      </trkpt>
      <trkpt lat="43.25399" lon="0.11381">
        <ele>339.4</ele>
        <time>2024-04-17T12:33:45Z</time>
      </trkpt>
      <trkpt lat="43.254" lon="0.11381">
        <ele>339.8</ele>
        <time>2024-04-17T12:33:46Z</time>
      </trkpt>
      <trkpt lat="43.25402" lon="0.1138">
        <ele>340</ele>
        <time>2024-04-17T12:33:47Z</time>
      </trkpt>
      <trkpt lat="43.25404" lon="0.1138">
        <ele>340</ele>
        <time>2024-04-17T12:33:48Z</time>
      </trkpt>
      <trkpt lat="43.25405" lon="0.1138">
        <ele>340.2</ele>
        <time>2024-04-17T12:33:49Z</time>
      </trkpt>
      <trkpt lat="43.25406" lon="0.1138">
        <ele>340.4</ele>
        <time>2024-04-17T12:33:50Z</time>
      </trkpt>
      <trkpt lat="43.25407" lon="0.11381">
        <ele>340.6</ele>
        <time>2024-04-17T12:33:51Z</time>
      </trkpt>
      <trkpt lat="43.25408" lon="0.11383">
        <ele>340.8</ele>
        <time>2024-04-17T12:33:52Z</time>
      </trkpt>
      <trkpt lat="43.2541" lon="0.11384">
        <ele>340.8</ele>
        <time>2024-04-17T12:33:53Z</time>
      </trkpt>
      <trkpt lat="43.2541" lon="0.11385">
        <ele>341</ele>
        <time>2024-04-17T12:33:54Z</time>
      </trkpt>
      <trkpt lat="43.25411" lon="0.11386">
        <ele>341</ele>
        <time>2024-04-17T12:33:55Z</time>
      </trkpt>
      <trkpt lat="43.25411" lon="0.11386">
        <ele>341.2</ele>
        <time>2024-04-17T12:33:56Z</time>
      </trkpt>
      <trkpt lat="43.25412" lon="0.11387">
        <ele>341.4</ele>
        <time>2024-04-17T12:33:57Z</time>
      </trkpt>
      <trkpt lat="43.25414" lon="0.11389">
        <ele>341.6</ele>
        <time>2024-04-17T12:33:58Z</time>
      </trkpt>
      <trkpt lat="43.25416" lon="0.11391">
        <ele>341.8</ele>
        <time>2024-04-17T12:33:59Z</time>
      </trkpt>
      <trkpt lat="43.25419" lon="0.11392">
        <ele>342</ele>
        <time>2024-04-17T12:34:00Z</time>
      </trkpt>
      <trkpt lat="43.25421" lon="0.11394">
        <ele>342</ele>
        <time>2024-04-17T12:34:01Z</time>
      </trkpt>
      <trkpt lat="43.25423" lon="0.11394">
        <ele>342.2</ele>
        <time>2024-04-17T12:34:02Z</time>
      </trkpt>
      <trkpt lat="43.25426" lon="0.11395">
        <ele>342.4</ele>
        <time>2024-04-17T12:34:03Z</time>
      </trkpt>
      <trkpt lat="43.25427" lon="0.11396">
        <ele>342.4</ele>
        <time>2024-04-17T12:34:04Z</time>
      </trkpt>
      <trkpt lat="43.25429" lon="0.11397">
        <ele>342.6</ele>
        <time>2024-04-17T12:34:05Z</time>
      </trkpt>
      <trkpt lat="43.25431" lon="0.11398">
        <ele>342.8</ele>
        <time>2024-04-17T12:34:06Z</time>
      </trkpt>
      <trkpt lat="43.25433" lon="0.11398">
        <ele>343</ele>
        <time>2024-04-17T12:34:07Z</time>
      </trkpt>
      <trkpt lat="43.25434" lon="0.11398">
        <ele>343.2</ele>
        <time>2024-04-17T12:34:08Z</time>
      </trkpt>
      <trkpt lat="43.25436" lon="0.11398">
        <ele>343.2</ele>
        <time>2024-04-17T12:34:09Z</time>
      </trkpt>
      <trkpt lat="43.25437" lon="0.11398">
        <ele>343.4</ele>
        <time>2024-04-17T12:34:10Z</time>
      </trkpt>
      <trkpt lat="43.25437" lon="0.11396">
        <ele>343.6</ele>
        <time>2024-04-17T12:34:11Z</time>
      </trkpt>
      <trkpt lat="43.25438" lon="0.11394">
        <ele>343.8</ele>
        <time>2024-04-17T12:34:12Z</time>
      </trkpt>
      <trkpt lat="43.2544" lon="0.11393">
        <ele>343.8</ele>
        <time>2024-04-17T12:34:13Z</time>
      </trkpt>
      <trkpt lat="43.25441" lon="0.11393">
        <ele>344.2</ele>
        <time>2024-04-17T12:34:14Z</time>
      </trkpt>
      <trkpt lat="43.25442" lon="0.11393">
        <ele>344.4</ele>
        <time>2024-04-17T12:34:15Z</time>
      </trkpt>
      <trkpt lat="43.25444" lon="0.11393">
        <ele>344.4</ele>
        <time>2024-04-17T12:34:16Z</time>
      </trkpt>
      <trkpt lat="43.25446" lon="0.11394">
        <ele>344.6</ele>
        <time>2024-04-17T12:34:17Z</time>
      </trkpt>
      <trkpt lat="43.25447" lon="0.11394">
        <ele>344.6</ele>
        <time>2024-04-17T12:34:18Z</time>
      </trkpt>
      <trkpt lat="43.25449" lon="0.11394">
        <ele>345</ele>
        <time>2024-04-17T12:34:19Z</time>
      </trkpt>
      <trkpt lat="43.2545" lon="0.11394">
        <ele>345</ele>
        <time>2024-04-17T12:34:20Z</time>
      </trkpt>
      <trkpt lat="43.25452" lon="0.11394">
        <ele>345.4</ele>
        <time>2024-04-17T12:34:21Z</time>
      </trkpt>
      <trkpt lat="43.25454" lon="0.11393">
        <ele>345.8</ele>
        <time>2024-04-17T12:34:22Z</time>
      </trkpt>
      <trkpt lat="43.25455" lon="0.11392">
        <ele>345.8</ele>
        <time>2024-04-17T12:34:23Z</time>
      </trkpt>
      <trkpt lat="43.25456" lon="0.11391">
        <ele>346</ele>
        <time>2024-04-17T12:34:24Z</time>
      </trkpt>
      <trkpt lat="43.25458" lon="0.1139">
        <ele>346</ele>
        <time>2024-04-17T12:34:25Z</time>
      </trkpt>
      <trkpt lat="43.25459" lon="0.11389">
        <ele>346.2</ele>
        <time>2024-04-17T12:34:26Z</time>
      </trkpt>
      <trkpt lat="43.25461" lon="0.11388">
        <ele>346.4</ele>
        <time>2024-04-17T12:34:27Z</time>
      </trkpt>
      <trkpt lat="43.25463" lon="0.11387">
        <ele>346.8</ele>
        <time>2024-04-17T12:34:28Z</time>
      </trkpt>
      <trkpt lat="43.25464" lon="0.11386">
        <ele>346.8</ele>
        <time>2024-04-17T12:34:29Z</time>
      </trkpt>
      <trkpt lat="43.25466" lon="0.11386">
        <ele>347.2</ele>
        <time>2024-04-17T12:34:30Z</time>
      </trkpt>
      <trkpt lat="43.25467" lon="0.11385">
        <ele>347.2</ele>
        <time>2024-04-17T12:34:31Z</time>
      </trkpt>
      <trkpt lat="43.25468" lon="0.11385">
        <ele>347.4</ele>
        <time>2024-04-17T12:34:32Z</time>
      </trkpt>
      <trkpt lat="43.2547" lon="0.11384">
        <ele>347.6</ele>
        <time>2024-04-17T12:34:33Z</time>
      </trkpt>
      <trkpt lat="43.25471" lon="0.11385">
        <ele>347.8</ele>
        <time>2024-04-17T12:34:34Z</time>
      </trkpt>
      <trkpt lat="43.25473" lon="0.11385">
        <ele>348</ele>
        <time>2024-04-17T12:34:35Z</time>
      </trkpt>
      <trkpt lat="43.25474" lon="0.11384">
        <ele>348</ele>
        <time>2024-04-17T12:34:36Z</time>
      </trkpt>
      <trkpt lat="43.25475" lon="0.11384">
        <ele>348.2</ele>
        <time>2024-04-17T12:34:37Z</time>
      </trkpt>
      <trkpt lat="43.25476" lon="0.11384">
        <ele>348.2</ele>
        <time>2024-04-17T12:34:38Z</time>
      </trkpt>
      <trkpt lat="43.25478" lon="0.11383">
        <ele>348.4</ele>
        <time>2024-04-17T12:34:39Z</time>
      </trkpt>
      <trkpt lat="43.2548" lon="0.11383">
        <ele>348.6</ele>
        <time>2024-04-17T12:34:40Z</time>
      </trkpt>
      <trkpt lat="43.25482" lon="0.11383">
        <ele>348.8</ele>
        <time>2024-04-17T12:34:41Z</time>
      </trkpt>
      <trkpt lat="43.25484" lon="0.11382">
        <ele>349</ele>
        <time>2024-04-17T12:34:42Z</time>
      </trkpt>
      <trkpt lat="43.25486" lon="0.11382">
        <ele>349.2</ele>
        <time>2024-04-17T12:34:43Z</time>
      </trkpt>
      <trkpt lat="43.25488" lon="0.11382">
        <ele>349.4</ele>
        <time>2024-04-17T12:34:44Z</time>
      </trkpt>
      <trkpt lat="43.2549" lon="0.11382">
        <ele>349.4</ele>
        <time>2024-04-17T12:34:45Z</time>
      </trkpt>
      <trkpt lat="43.25492" lon="0.11382">
        <ele>349.6</ele>
        <time>2024-04-17T12:34:46Z</time>
      </trkpt>
      <trkpt lat="43.25494" lon="0.11381">
        <ele>349.6</ele>
        <time>2024-04-17T12:34:47Z</time>
      </trkpt>
      <trkpt lat="43.25496" lon="0.1138">
        <ele>349.6</ele>
        <time>2024-04-17T12:34:48Z</time>
      </trkpt>
      <trkpt lat="43.25498" lon="0.1138">
        <ele>349.8</ele>
        <time>2024-04-17T12:34:49Z</time>
      </trkpt>
      <trkpt lat="43.255" lon="0.1138">
        <ele>349.8</ele>
        <time>2024-04-17T12:34:50Z</time>
      </trkpt>
      <trkpt lat="43.25503" lon="0.11379">
        <ele>350</ele>
        <time>2024-04-17T12:34:51Z</time>
      </trkpt>
      <trkpt lat="43.25505" lon="0.11379">
        <ele>350</ele>
        <time>2024-04-17T12:34:52Z</time>
      </trkpt>
      <trkpt lat="43.25507" lon="0.11378">
        <ele>350</ele>
        <time>2024-04-17T12:34:53Z</time>
      </trkpt>
      <trkpt lat="43.2551" lon="0.11378">
        <ele>350</ele>
        <time>2024-04-17T12:34:54Z</time>
      </trkpt>
      <trkpt lat="43.25512" lon="0.11377">
        <ele>350</ele>
        <time>2024-04-17T12:34:55Z</time>
      </trkpt>
      <trkpt lat="43.25514" lon="0.11377">
        <ele>350</ele>
        <time>2024-04-17T12:34:56Z</time>
      </trkpt>
      <trkpt lat="43.25516" lon="0.11376">
        <ele>350</ele>
        <time>2024-04-17T12:34:57Z</time>
      </trkpt>
      <trkpt lat="43.25519" lon="0.11376">
        <ele>350.2</ele>
        <time>2024-04-17T12:34:58Z</time>
      </trkpt>
      <trkpt lat="43.25521" lon="0.11375">
        <ele>350.2</ele>
        <time>2024-04-17T12:34:59Z</time>
      </trkpt>
      <trkpt lat="43.25523" lon="0.11375">
        <ele>350.2</ele>
        <time>2024-04-17T12:35:00Z</time>
      </trkpt>
      <trkpt lat="43.25525" lon="0.11374">
        <ele>350.2</ele>
        <time>2024-04-17T12:35:01Z</time>
      </trkpt>
      <trkpt lat="43.25528" lon="0.11374">
        <ele>350.2</ele>
        <time>2024-04-17T12:35:02Z</time>
      </trkpt>
      <trkpt lat="43.2553" lon="0.11373">
        <ele>350.2</ele>
        <time>2024-04-17T12:35:03Z</time>
      </trkpt>
      <trkpt lat="43.25532" lon="0.11373">
        <ele>350.2</ele>
        <time>2024-04-17T12:35:04Z</time>
      </trkpt>
      <trkpt lat="43.25535" lon="0.11372">
        <ele>350.2</ele>
        <time>2024-04-17T12:35:05Z</time>
      </trkpt>
      <trkpt lat="43.25537" lon="0.11371">
        <ele>350.4</ele>
        <time>2024-04-17T12:35:06Z</time>
      </trkpt>
      <trkpt lat="43.25539" lon="0.11371">
        <ele>350.6</ele>
        <time>2024-04-17T12:35:07Z</time>
      </trkpt>
      <trkpt lat="43.25541" lon="0.1137">
        <ele>350.8</ele>
        <time>2024-04-17T12:35:08Z</time>
      </trkpt>
      <trkpt lat="43.25543" lon="0.11369">
        <ele>351</ele>
        <time>2024-04-17T12:35:09Z</time>
      </trkpt>
      <trkpt lat="43.25545" lon="0.11369">
        <ele>351</ele>
        <time>2024-04-17T12:35:10Z</time>
      </trkpt>
      <trkpt lat="43.25548" lon="0.11368">
        <ele>351</ele>
        <time>2024-04-17T12:35:11Z</time>
      </trkpt>
      <trkpt lat="43.2555" lon="0.11367">
        <ele>351.2</ele>
        <time>2024-04-17T12:35:12Z</time>
      </trkpt>
      <trkpt lat="43.25552" lon="0.11367">
        <ele>351.2</ele>
        <time>2024-04-17T12:35:13Z</time>
      </trkpt>
      <trkpt lat="43.25555" lon="0.11366">
        <ele>351.2</ele>
        <time>2024-04-17T12:35:14Z</time>
      </trkpt>
      <trkpt lat="43.25557" lon="0.11365">
        <ele>351.2</ele>
        <time>2024-04-17T12:35:15Z</time>
      </trkpt>
      <trkpt lat="43.25559" lon="0.11365">
        <ele>351.4</ele>
        <time>2024-04-17T12:35:16Z</time>
      </trkpt>
      <trkpt lat="43.25561" lon="0.11364">
        <ele>351.6</ele>
        <time>2024-04-17T12:35:17Z</time>
      </trkpt>
      <trkpt lat="43.25563" lon="0.11364">
        <ele>351.6</ele>
        <time>2024-04-17T12:35:18Z</time>
      </trkpt>
      <trkpt lat="43.25566" lon="0.11363">
        <ele>351.6</ele>
        <time>2024-04-17T12:35:19Z</time>
      </trkpt>
      <trkpt lat="43.25568" lon="0.11363">
        <ele>351.6</ele>
        <time>2024-04-17T12:35:20Z</time>
      </trkpt>
      <trkpt lat="43.25571" lon="0.11362">
        <ele>351.6</ele>
        <time>2024-04-17T12:35:21Z</time>
      </trkpt>
      <trkpt lat="43.25573" lon="0.11361">
        <ele>351.6</ele>
        <time>2024-04-17T12:35:22Z</time>
      </trkpt>
      <trkpt lat="43.25575" lon="0.11361">
        <ele>351.6</ele>
        <time>2024-04-17T12:35:23Z</time>
      </trkpt>
      <trkpt lat="43.25578" lon="0.1136">
        <ele>351.8</ele>
        <time>2024-04-17T12:35:24Z</time>
      </trkpt>
      <trkpt lat="43.25581" lon="0.11359">
        <ele>352</ele>
        <time>2024-04-17T12:35:25Z</time>
      </trkpt>
      <trkpt lat="43.25584" lon="0.11359">
        <ele>352</ele>
        <time>2024-04-17T12:35:26Z</time>
      </trkpt>
      <trkpt lat="43.25587" lon="0.11358">
        <ele>352</ele>
        <time>2024-04-17T12:35:27Z</time>
      </trkpt>
      <trkpt lat="43.2559" lon="0.11357">
        <ele>352</ele>
        <time>2024-04-17T12:35:28Z</time>
      </trkpt>
      <trkpt lat="43.25593" lon="0.11356">
        <ele>352</ele>
        <time>2024-04-17T12:35:29Z</time>
      </trkpt>
      <trkpt lat="43.25597" lon="0.11356">
        <ele>352</ele>
        <time>2024-04-17T12:35:30Z</time>
      </trkpt>
      <trkpt lat="43.256" lon="0.11355">
        <ele>352</ele>
        <time>2024-04-17T12:35:31Z</time>
      </trkpt>
      <trkpt lat="43.25603" lon="0.11354">
        <ele>352</ele>
        <time>2024-04-17T12:35:32Z</time>
      </trkpt>
      <trkpt lat="43.25606" lon="0.11353">
        <ele>352</ele>
        <time>2024-04-17T12:35:33Z</time>
      </trkpt>
      <trkpt lat="43.25609" lon="0.11353">
        <ele>352</ele>
        <time>2024-04-17T12:35:34Z</time>
      </trkpt>
      <trkpt lat="43.25612" lon="0.11352">
        <ele>352</ele>
        <time>2024-04-17T12:35:35Z</time>
      </trkpt>
      <trkpt lat="43.25615" lon="0.11352">
        <ele>352</ele>
        <time>2024-04-17T12:35:36Z</time>
      </trkpt>
      <trkpt lat="43.25618" lon="0.11351">
        <ele>351.8</ele>
        <time>2024-04-17T12:35:37Z</time>
      </trkpt>
      <trkpt lat="43.25621" lon="0.1135">
        <ele>351.8</ele>
        <time>2024-04-17T12:35:38Z</time>
      </trkpt>
      <trkpt lat="43.25624" lon="0.1135">
        <ele>351.6</ele>
        <time>2024-04-17T12:35:39Z</time>
      </trkpt>
      <trkpt lat="43.25627" lon="0.11349">
        <ele>351.6</ele>
        <time>2024-04-17T12:35:40Z</time>
      </trkpt>
      <trkpt lat="43.2563" lon="0.11348">
        <ele>351.4</ele>
        <time>2024-04-17T12:35:41Z</time>
      </trkpt>
      <trkpt lat="43.25634" lon="0.11347">
        <ele>351.4</ele>
        <time>2024-04-17T12:35:42Z</time>
      </trkpt>
      <trkpt lat="43.25637" lon="0.11346">
        <ele>351.2</ele>
        <time>2024-04-17T12:35:43Z</time>
      </trkpt>
      <trkpt lat="43.25641" lon="0.11345">
        <ele>351</ele>
        <time>2024-04-17T12:35:44Z</time>
      </trkpt>
      <trkpt lat="43.25644" lon="0.11344">
        <ele>351</ele>
        <time>2024-04-17T12:35:45Z</time>
      </trkpt>
      <trkpt lat="43.25648" lon="0.11343">
        <ele>351</ele>
        <time>2024-04-17T12:35:46Z</time>
      </trkpt>
      <trkpt lat="43.25652" lon="0.11343">
        <ele>350.8</ele>
        <time>2024-04-17T12:35:47Z</time>
      </trkpt>
      <trkpt lat="43.25655" lon="0.11342">
        <ele>350.6</ele>
        <time>2024-04-17T12:35:48Z</time>
      </trkpt>
      <trkpt lat="43.25659" lon="0.11341">
        <ele>350.6</ele>
        <time>2024-04-17T12:35:49Z</time>
      </trkpt>
      <trkpt lat="43.25663" lon="0.1134">
        <ele>350.2</ele>
        <time>2024-04-17T12:35:50Z</time>
      </trkpt>
      <trkpt lat="43.25667" lon="0.11339">
        <ele>350.2</ele>
        <time>2024-04-17T12:35:51Z</time>
      </trkpt>
      <trkpt lat="43.25671" lon="0.11339">
        <ele>350</ele>
        <time>2024-04-17T12:35:52Z</time>
      </trkpt>
      <trkpt lat="43.25675" lon="0.11339">
        <ele>349.8</ele>
        <time>2024-04-17T12:35:53Z</time>
      </trkpt>
      <trkpt lat="43.25679" lon="0.11338">
        <ele>349.8</ele>
        <time>2024-04-17T12:35:54Z</time>
      </trkpt>
      <trkpt lat="43.25682" lon="0.11337">
        <ele>349.6</ele>
        <time>2024-04-17T12:35:55Z</time>
      </trkpt>
      <trkpt lat="43.25686" lon="0.11337">
        <ele>349.6</ele>
        <time>2024-04-17T12:35:56Z</time>
      </trkpt>
      <trkpt lat="43.2569" lon="0.11336">
        <ele>349.4</ele>
        <time>2024-04-17T12:35:57Z</time>
      </trkpt>
      <trkpt lat="43.25693" lon="0.11336">
        <ele>349.4</ele>
        <time>2024-04-17T12:35:58Z</time>
      </trkpt>
      <trkpt lat="43.25696" lon="0.11335">
        <ele>349.6</ele>
        <time>2024-04-17T12:35:59Z</time>
      </trkpt>
      <trkpt lat="43.257" lon="0.11335">
        <ele>349.6</ele>
        <time>2024-04-17T12:36:00Z</time>
      </trkpt>
      <trkpt lat="43.25703" lon="0.11334">
        <ele>349.4</ele>
        <time>2024-04-17T12:36:01Z</time>
      </trkpt>
      <trkpt lat="43.25706" lon="0.11333">
        <ele>349.4</ele>
        <time>2024-04-17T12:36:02Z</time>
      </trkpt>
      <trkpt lat="43.25709" lon="0.11332">
        <ele>349.4</ele>
        <time>2024-04-17T12:36:03Z</time>
      </trkpt>
      <trkpt lat="43.25712" lon="0.11332">
        <ele>349.6</ele>
        <time>2024-04-17T12:36:04Z</time>
      </trkpt>
      <trkpt lat="43.25715" lon="0.11331">
        <ele>349.6</ele>
        <time>2024-04-17T12:36:05Z</time>
      </trkpt>
      <trkpt lat="43.25718" lon="0.11331">
        <ele>350</ele>
        <time>2024-04-17T12:36:06Z</time>
      </trkpt>
      <trkpt lat="43.2572" lon="0.11331">
        <ele>350</ele>
        <time>2024-04-17T12:36:07Z</time>
      </trkpt>
      <trkpt lat="43.25723" lon="0.11331">
        <ele>350.4</ele>
        <time>2024-04-17T12:36:08Z</time>
      </trkpt>
      <trkpt lat="43.25725" lon="0.11331">
        <ele>350.6</ele>
        <time>2024-04-17T12:36:09Z</time>
      </trkpt>
      <trkpt lat="43.25728" lon="0.1133">
        <ele>350.6</ele>
        <time>2024-04-17T12:36:10Z</time>
      </trkpt>
      <trkpt lat="43.2573" lon="0.11329">
        <ele>350.8</ele>
        <time>2024-04-17T12:36:11Z</time>
      </trkpt>
      <trkpt lat="43.25732" lon="0.11328">
        <ele>350.8</ele>
        <time>2024-04-17T12:36:12Z</time>
      </trkpt>
      <trkpt lat="43.25735" lon="0.11327">
        <ele>350.8</ele>
        <time>2024-04-17T12:36:13Z</time>
      </trkpt>
      <trkpt lat="43.25737" lon="0.11327">
        <ele>351</ele>
        <time>2024-04-17T12:36:14Z</time>
      </trkpt>
      <trkpt lat="43.2574" lon="0.11326">
        <ele>351.2</ele>
        <time>2024-04-17T12:36:15Z</time>
      </trkpt>
      <trkpt lat="43.25743" lon="0.11326">
        <ele>351.2</ele>
        <time>2024-04-17T12:36:16Z</time>
      </trkpt>
      <trkpt lat="43.25746" lon="0.11325">
        <ele>351.2</ele>
        <time>2024-04-17T12:36:17Z</time>
      </trkpt>
      <trkpt lat="43.25749" lon="0.11324">
        <ele>351.4</ele>
        <time>2024-04-17T12:36:18Z</time>
      </trkpt>
      <trkpt lat="43.25752" lon="0.11323">
        <ele>351.4</ele>
        <time>2024-04-17T12:36:19Z</time>
      </trkpt>
      <trkpt lat="43.25755" lon="0.11322">
        <ele>351.6</ele>
        <time>2024-04-17T12:36:20Z</time>
      </trkpt>
      <trkpt lat="43.25758" lon="0.11322">
        <ele>351.6</ele>
        <time>2024-04-17T12:36:21Z</time>
      </trkpt>
      <trkpt lat="43.25762" lon="0.11321">
        <ele>351.4</ele>
        <time>2024-04-17T12:36:22Z</time>
      </trkpt>
      <trkpt lat="43.25765" lon="0.1132">
        <ele>351.4</ele>
        <time>2024-04-17T12:36:23Z</time>
      </trkpt>
      <trkpt lat="43.25768" lon="0.11319">
        <ele>351.4</ele>
        <time>2024-04-17T12:36:24Z</time>
      </trkpt>
      <trkpt lat="43.25771" lon="0.11319">
        <ele>351.6</ele>
        <time>2024-04-17T12:36:25Z</time>
      </trkpt>
      <trkpt lat="43.25774" lon="0.11318">
        <ele>351.6</ele>
        <time>2024-04-17T12:36:26Z</time>
      </trkpt>
      <trkpt lat="43.25777" lon="0.11317">
        <ele>351.6</ele>
        <time>2024-04-17T12:36:27Z</time>
      </trkpt>
      <trkpt lat="43.2578" lon="0.11316">
        <ele>351.6</ele>
        <time>2024-04-17T12:36:28Z</time>
      </trkpt>
      <trkpt lat="43.25784" lon="0.11315">
        <ele>351.6</ele>
        <time>2024-04-17T12:36:29Z</time>
      </trkpt>
      <trkpt lat="43.25787" lon="0.11314">
        <ele>351.6</ele>
        <time>2024-04-17T12:36:30Z</time>
      </trkpt>
      <trkpt lat="43.25791" lon="0.11313">
        <ele>351.6</ele>
        <time>2024-04-17T12:36:31Z</time>
      </trkpt>
      <trkpt lat="43.25794" lon="0.11312">
        <ele>351.6</ele>
        <time>2024-04-17T12:36:32Z</time>
      </trkpt>
      <trkpt lat="43.25798" lon="0.11311">
        <ele>351.6</ele>
        <time>2024-04-17T12:36:33Z</time>
      </trkpt>
      <trkpt lat="43.25802" lon="0.1131">
        <ele>351.4</ele>
        <time>2024-04-17T12:36:34Z</time>
      </trkpt>
      <trkpt lat="43.25807" lon="0.11309">
        <ele>351.4</ele>
        <time>2024-04-17T12:36:35Z</time>
      </trkpt>
      <trkpt lat="43.25811" lon="0.11307">
        <ele>351</ele>
        <time>2024-04-17T12:36:36Z</time>
      </trkpt>
      <trkpt lat="43.25816" lon="0.11306">
        <ele>351</ele>
        <time>2024-04-17T12:36:37Z</time>
      </trkpt>
      <trkpt lat="43.2582" lon="0.11304">
        <ele>350.6</ele>
        <time>2024-04-17T12:36:38Z</time>
      </trkpt>
      <trkpt lat="43.25825" lon="0.11303">
        <ele>350.2</ele>
        <time>2024-04-17T12:36:39Z</time>
      </trkpt>
      <trkpt lat="43.25829" lon="0.11302">
        <ele>349.8</ele>
        <time>2024-04-17T12:36:40Z</time>
      </trkpt>
      <trkpt lat="43.25833" lon="0.11302">
        <ele>349.8</ele>
        <time>2024-04-17T12:36:41Z</time>
      </trkpt>
      <trkpt lat="43.25837" lon="0.11301">
        <ele>349.4</ele>
        <time>2024-04-17T12:36:42Z</time>
      </trkpt>
      <trkpt lat="43.25842" lon="0.11301">
        <ele>349.4</ele>
        <time>2024-04-17T12:36:43Z</time>
      </trkpt>
      <trkpt lat="43.25848" lon="0.11301">
        <ele>349.2</ele>
        <time>2024-04-17T12:36:44Z</time>
      </trkpt>
      <trkpt lat="43.25854" lon="0.113">
        <ele>348.6</ele>
        <time>2024-04-17T12:36:45Z</time>
      </trkpt>
      <trkpt lat="43.2586" lon="0.11299">
        <ele>348.6</ele>
        <time>2024-04-17T12:36:46Z</time>
      </trkpt>
      <trkpt lat="43.25865" lon="0.11298">
        <ele>347.8</ele>
        <time>2024-04-17T12:36:47Z</time>
      </trkpt>
      <trkpt lat="43.25871" lon="0.11297">
        <ele>347.6</ele>
        <time>2024-04-17T12:36:48Z</time>
      </trkpt>
      <trkpt lat="43.25876" lon="0.11295">
        <ele>347.2</ele>
        <time>2024-04-17T12:36:49Z</time>
      </trkpt>
      <trkpt lat="43.25881" lon="0.11294">
        <ele>347.2</ele>
        <time>2024-04-17T12:36:50Z</time>
      </trkpt>
      <trkpt lat="43.25886" lon="0.11293">
        <ele>346.8</ele>
        <time>2024-04-17T12:36:51Z</time>
      </trkpt>
      <trkpt lat="43.25891" lon="0.11292">
        <ele>346.4</ele>
        <time>2024-04-17T12:36:52Z</time>
      </trkpt>
      <trkpt lat="43.25895" lon="0.11291">
        <ele>346.2</ele>
        <time>2024-04-17T12:36:53Z</time>
      </trkpt>
      <trkpt lat="43.25899" lon="0.11291">
        <ele>346.2</ele>
        <time>2024-04-17T12:36:54Z</time>
      </trkpt>
      <trkpt lat="43.25902" lon="0.1129">
        <ele>346</ele>
        <time>2024-04-17T12:36:55Z</time>
      </trkpt>
      <trkpt lat="43.25905" lon="0.11289">
        <ele>345.6</ele>
        <time>2024-04-17T12:36:56Z</time>
      </trkpt>
      <trkpt lat="43.25909" lon="0.11289">
        <ele>345.4</ele>
        <time>2024-04-17T12:36:57Z</time>
      </trkpt>
      <trkpt lat="43.25912" lon="0.11288">
        <ele>345.2</ele>
        <time>2024-04-17T12:36:58Z</time>
      </trkpt>
      <trkpt lat="43.25915" lon="0.11287">
        <ele>345.2</ele>
        <time>2024-04-17T12:36:59Z</time>
      </trkpt>
      <trkpt lat="43.25918" lon="0.11286">
        <ele>345.2</ele>
        <time>2024-04-17T12:37:00Z</time>
      </trkpt>
      <trkpt lat="43.2592" lon="0.11286">
        <ele>345.4</ele>
        <time>2024-04-17T12:37:01Z</time>
      </trkpt>
      <trkpt lat="43.25923" lon="0.11285">
        <ele>345.6</ele>
        <time>2024-04-17T12:37:02Z</time>
      </trkpt>
      <trkpt lat="43.25925" lon="0.11284">
        <ele>345.6</ele>
        <time>2024-04-17T12:37:03Z</time>
      </trkpt>
      <trkpt lat="43.25927" lon="0.11282">
        <ele>345.6</ele>
        <time>2024-04-17T12:37:04Z</time>
      </trkpt>
      <trkpt lat="43.25928" lon="0.11281">
        <ele>345.8</ele>
        <time>2024-04-17T12:37:05Z</time>
      </trkpt>
      <trkpt lat="43.25928" lon="0.11279">
        <ele>345.8</ele>
        <time>2024-04-17T12:37:06Z</time>
      </trkpt>
      <trkpt lat="43.25928" lon="0.11277">
        <ele>345.8</ele>
        <time>2024-04-17T12:37:07Z</time>
      </trkpt>
      <trkpt lat="43.25929" lon="0.11275">
        <ele>346</ele>
        <time>2024-04-17T12:37:08Z</time>
      </trkpt>
      <trkpt lat="43.25929" lon="0.11274">
        <ele>346</ele>
        <time>2024-04-17T12:37:09Z</time>
      </trkpt>
      <trkpt lat="43.25929" lon="0.11272">
        <ele>346</ele>
        <time>2024-04-17T12:37:10Z</time>
      </trkpt>
      <trkpt lat="43.25929" lon="0.11269">
        <ele>346</ele>
        <time>2024-04-17T12:37:11Z</time>
      </trkpt>
      <trkpt lat="43.25929" lon="0.11266">
        <ele>346</ele>
        <time>2024-04-17T12:37:12Z</time>
      </trkpt>
      <trkpt lat="43.25929" lon="0.11263">
        <ele>345.8</ele>
        <time>2024-04-17T12:37:13Z</time>
      </trkpt>
      <trkpt lat="43.25929" lon="0.11261">
        <ele>345.8</ele>
        <time>2024-04-17T12:37:14Z</time>
      </trkpt>
      <trkpt lat="43.2593" lon="0.1126">
        <ele>345.6</ele>
        <time>2024-04-17T12:37:15Z</time>
      </trkpt>
      <trkpt lat="43.2593" lon="0.11259">
        <ele>345.6</ele>
        <time>2024-04-17T12:37:16Z</time>
      </trkpt>
      <trkpt lat="43.2593" lon="0.11259">
        <ele>345.2</ele>
        <time>2024-04-17T12:37:17Z</time>
      </trkpt>
      <trkpt lat="43.2593" lon="0.11259">
        <ele>345</ele>
        <time>2024-04-17T12:37:18Z</time>
      </trkpt>
      <trkpt lat="43.2593" lon="0.11259">
        <ele>344.8</ele>
        <time>2024-04-17T12:37:19Z</time>
      </trkpt>
      <trkpt lat="43.2593" lon="0.11259">
        <ele>344.8</ele>
        <time>2024-04-17T12:37:20Z</time>
      </trkpt>
      <trkpt lat="43.2593" lon="0.11259">
        <ele>344.6</ele>
        <time>2024-04-17T12:37:21Z</time>
      </trkpt>
      <trkpt lat="43.2593" lon="0.11259">
        <ele>344.4</ele>
        <time>2024-04-17T12:37:22Z</time>
      </trkpt>
      <trkpt lat="43.2593" lon="0.11259">
        <ele>344.4</ele>
        <time>2024-04-17T12:37:23Z</time>
      </trkpt>
      <trkpt lat="43.2593" lon="0.11259">
        <ele>344.4</ele>
        <time>2024-04-17T12:37:24Z</time>
      </trkpt>
      <trkpt lat="43.2593" lon="0.11259">
        <ele>344.2</ele>
        <time>2024-04-17T12:37:25Z</time>
      </trkpt>
      <trkpt lat="43.2593" lon="0.11259">
        <ele>344.2</ele>
        <time>2024-04-17T12:37:26Z</time>
      </trkpt>
      <trkpt lat="43.2593" lon="0.11257">
        <ele>344.2</ele>
        <time>2024-04-17T12:37:27Z</time>
      </trkpt>
      <trkpt lat="43.25931" lon="0.11255">
        <ele>344.2</ele>
        <time>2024-04-17T12:37:28Z</time>
      </trkpt>
      <trkpt lat="43.25931" lon="0.11252">
        <ele>344.2</ele>
        <time>2024-04-17T12:37:29Z</time>
      </trkpt>
      <trkpt lat="43.25932" lon="0.1125">
        <ele>344.2</ele>
        <time>2024-04-17T12:37:30Z</time>
      </trkpt>
      <trkpt lat="43.25934" lon="0.11248">
        <ele>344</ele>
        <time>2024-04-17T12:37:31Z</time>
      </trkpt>
      <trkpt lat="43.25937" lon="0.11247">
        <ele>344</ele>
        <time>2024-04-17T12:37:32Z</time>
      </trkpt>
      <trkpt lat="43.2594" lon="0.11246">
        <ele>344</ele>
        <time>2024-04-17T12:37:33Z</time>
      </trkpt>
      <trkpt lat="43.25944" lon="0.11244">
        <ele>343.8</ele>
        <time>2024-04-17T12:37:34Z</time>
      </trkpt>
      <trkpt lat="43.25948" lon="0.11243">
        <ele>343.2</ele>
        <time>2024-04-17T12:37:35Z</time>
      </trkpt>
      <trkpt lat="43.25953" lon="0.11242">
        <ele>342.4</ele>
        <time>2024-04-17T12:37:36Z</time>
      </trkpt>
      <trkpt lat="43.25957" lon="0.11241">
        <ele>341.6</ele>
        <time>2024-04-17T12:37:37Z</time>
      </trkpt>
      <trkpt lat="43.25961" lon="0.11239">
        <ele>341</ele>
        <time>2024-04-17T12:37:38Z</time>
      </trkpt>
      <trkpt lat="43.25964" lon="0.11237">
        <ele>340.4</ele>
        <time>2024-04-17T12:37:39Z</time>
      </trkpt>
      <trkpt lat="43.25967" lon="0.11237">
        <ele>339.2</ele>
        <time>2024-04-17T12:37:40Z</time>
      </trkpt>
      <trkpt lat="43.2597" lon="0.11237">
        <ele>339</ele>
        <time>2024-04-17T12:37:41Z</time>
      </trkpt>
      <trkpt lat="43.25973" lon="0.11237">
        <ele>338.4</ele>
        <time>2024-04-17T12:37:42Z</time>
      </trkpt>
      <trkpt lat="43.25976" lon="0.11238">
        <ele>338.2</ele>
        <time>2024-04-17T12:37:43Z</time>
      </trkpt>
      <trkpt lat="43.2598" lon="0.11239">
        <ele>338</ele>
        <time>2024-04-17T12:37:44Z</time>
      </trkpt>
      <trkpt lat="43.25984" lon="0.11238">
        <ele>337.8</ele>
        <time>2024-04-17T12:37:45Z</time>
      </trkpt>
      <trkpt lat="43.25988" lon="0.11239">
        <ele>337.8</ele>
        <time>2024-04-17T12:37:46Z</time>
      </trkpt>
      <trkpt lat="43.25991" lon="0.11238">
        <ele>337.8</ele>
        <time>2024-04-17T12:37:47Z</time>
      </trkpt>
      <trkpt lat="43.25995" lon="0.11238">
        <ele>337.6</ele>
        <time>2024-04-17T12:37:48Z</time>
      </trkpt>
      <trkpt lat="43.25999" lon="0.11237">
        <ele>337.6</ele>
        <time>2024-04-17T12:37:49Z</time>
      </trkpt>
      <trkpt lat="43.26002" lon="0.11235">
        <ele>337.6</ele>
        <time>2024-04-17T12:37:50Z</time>
      </trkpt>
      <trkpt lat="43.26006" lon="0.11233">
        <ele>337.6</ele>
        <time>2024-04-17T12:37:51Z</time>
      </trkpt>
      <trkpt lat="43.26009" lon="0.11233">
        <ele>337.6</ele>
        <time>2024-04-17T12:37:52Z</time>
      </trkpt>
      <trkpt lat="43.26011" lon="0.11234">
        <ele>337.6</ele>
        <time>2024-04-17T12:37:53Z</time>
      </trkpt>
      <trkpt lat="43.26014" lon="0.11235">
        <ele>337.6</ele>
        <time>2024-04-17T12:37:54Z</time>
      </trkpt>
      <trkpt lat="43.26017" lon="0.11239">
        <ele>337.6</ele>
        <time>2024-04-17T12:37:55Z</time>
      </trkpt>
      <trkpt lat="43.26018" lon="0.11242">
        <ele>337.6</ele>
        <time>2024-04-17T12:37:56Z</time>
      </trkpt>
      <trkpt lat="43.26019" lon="0.11246">
        <ele>337.6</ele>
        <time>2024-04-17T12:37:57Z</time>
      </trkpt>
      <trkpt lat="43.26018" lon="0.11251">
        <ele>337.6</ele>
        <time>2024-04-17T12:37:58Z</time>
      </trkpt>
      <trkpt lat="43.26019" lon="0.11256">
        <ele>337.6</ele>
        <time>2024-04-17T12:37:59Z</time>
      </trkpt>
      <trkpt lat="43.26018" lon="0.11259">
        <ele>337.6</ele>
        <time>2024-04-17T12:38:00Z</time>
      </trkpt>
      <trkpt lat="43.26018" lon="0.11263">
        <ele>337.6</ele>
        <time>2024-04-17T12:38:01Z</time>
      </trkpt>
      <trkpt lat="43.26017" lon="0.11266">
        <ele>337.6</ele>
        <time>2024-04-17T12:38:02Z</time>
      </trkpt>
      <trkpt lat="43.26018" lon="0.11269">
        <ele>337.6</ele>
        <time>2024-04-17T12:38:03Z</time>
      </trkpt>
      <trkpt lat="43.26018" lon="0.11273">
        <ele>337.8</ele>
        <time>2024-04-17T12:38:04Z</time>
      </trkpt>
      <trkpt lat="43.26019" lon="0.11277">
        <ele>337.8</ele>
        <time>2024-04-17T12:38:05Z</time>
      </trkpt>
      <trkpt lat="43.26019" lon="0.11281">
        <ele>337.8</ele>
        <time>2024-04-17T12:38:06Z</time>
      </trkpt>
      <trkpt lat="43.26019" lon="0.11285">
        <ele>337.8</ele>
        <time>2024-04-17T12:38:07Z</time>
      </trkpt>
      <trkpt lat="43.26018" lon="0.11287">
        <ele>337.8</ele>
        <time>2024-04-17T12:38:08Z</time>
      </trkpt>
      <trkpt lat="43.26017" lon="0.1129">
        <ele>337.4</ele>
        <time>2024-04-17T12:38:09Z</time>
      </trkpt>
      <trkpt lat="43.26017" lon="0.11294">
        <ele>337.2</ele>
        <time>2024-04-17T12:38:10Z</time>
      </trkpt>
      <trkpt lat="43.26017" lon="0.11297">
        <ele>337</ele>
        <time>2024-04-17T12:38:11Z</time>
      </trkpt>
      <trkpt lat="43.26017" lon="0.11301">
        <ele>336.8</ele>
        <time>2024-04-17T12:38:12Z</time>
      </trkpt>
      <trkpt lat="43.26017" lon="0.11304">
        <ele>336.6</ele>
        <time>2024-04-17T12:38:13Z</time>
      </trkpt>
      <trkpt lat="43.26017" lon="0.11309">
        <ele>336.2</ele>
        <time>2024-04-17T12:38:14Z</time>
      </trkpt>
      <trkpt lat="43.26016" lon="0.11316">
        <ele>336.2</ele>
        <time>2024-04-17T12:38:15Z</time>
      </trkpt>
      <trkpt lat="43.26016" lon="0.11324">
        <ele>335.8</ele>
        <time>2024-04-17T12:38:16Z</time>
      </trkpt>
      <trkpt lat="43.26016" lon="0.11332">
        <ele>335.6</ele>
        <time>2024-04-17T12:38:17Z</time>
      </trkpt>
      <trkpt lat="43.26016" lon="0.11341">
        <ele>335</ele>
        <time>2024-04-17T12:38:18Z</time>
      </trkpt>
      <trkpt lat="43.26016" lon="0.1135">
        <ele>334.8</ele>
        <time>2024-04-17T12:38:19Z</time>
      </trkpt>
      <trkpt lat="43.26015" lon="0.11359">
        <ele>334</ele>
        <time>2024-04-17T12:38:20Z</time>
      </trkpt>
      <trkpt lat="43.26015" lon="0.11368">
        <ele>333.4</ele>
        <time>2024-04-17T12:38:21Z</time>
      </trkpt>
      <trkpt lat="43.26015" lon="0.11377">
        <ele>333</ele>
        <time>2024-04-17T12:38:22Z</time>
      </trkpt>
      <trkpt lat="43.26015" lon="0.11385">
        <ele>332.6</ele>
        <time>2024-04-17T12:38:23Z</time>
      </trkpt>
      <trkpt lat="43.26015" lon="0.11393">
        <ele>332.2</ele>
        <time>2024-04-17T12:38:24Z</time>
      </trkpt>
      <trkpt lat="43.26015" lon="0.114">
        <ele>331.6</ele>
        <time>2024-04-17T12:38:25Z</time>
      </trkpt>
      <trkpt lat="43.26015" lon="0.11407">
        <ele>331.2</ele>
        <time>2024-04-17T12:38:26Z</time>
      </trkpt>
      <trkpt lat="43.26016" lon="0.11413">
        <ele>330.2</ele>
        <time>2024-04-17T12:38:27Z</time>
      </trkpt>
      <trkpt lat="43.26016" lon="0.11419">
        <ele>329.6</ele>
        <time>2024-04-17T12:38:28Z</time>
      </trkpt>
      <trkpt lat="43.26017" lon="0.11424">
        <ele>328.6</ele>
        <time>2024-04-17T12:38:29Z</time>
      </trkpt>
      <trkpt lat="43.2602" lon="0.11428">
        <ele>327.8</ele>
        <time>2024-04-17T12:38:30Z</time>
      </trkpt>
      <trkpt lat="43.26023" lon="0.11431">
        <ele>327.8</ele>
        <time>2024-04-17T12:38:31Z</time>
      </trkpt>
      <trkpt lat="43.26027" lon="0.11431">
        <ele>327.4</ele>
        <time>2024-04-17T12:38:32Z</time>
      </trkpt>
      <trkpt lat="43.2603" lon="0.11431">
        <ele>327.2</ele>
        <time>2024-04-17T12:38:33Z</time>
      </trkpt>
      <trkpt lat="43.26034" lon="0.1143">
        <ele>326.8</ele>
        <time>2024-04-17T12:38:34Z</time>
      </trkpt>
      <trkpt lat="43.26038" lon="0.1143">
        <ele>326.6</ele>
        <time>2024-04-17T12:38:35Z</time>
      </trkpt>
      <trkpt lat="43.26041" lon="0.11431">
        <ele>326.2</ele>
        <time>2024-04-17T12:38:36Z</time>
      </trkpt>
      <trkpt lat="43.26045" lon="0.11431">
        <ele>326.2</ele>
        <time>2024-04-17T12:38:37Z</time>
      </trkpt>
      <trkpt lat="43.26048" lon="0.11432">
        <ele>326</ele>
        <time>2024-04-17T12:38:38Z</time>
      </trkpt>
      <trkpt lat="43.26051" lon="0.11433">
        <ele>326</ele>
        <time>2024-04-17T12:38:39Z</time>
      </trkpt>
      <trkpt lat="43.26055" lon="0.11433">
        <ele>325.8</ele>
        <time>2024-04-17T12:38:40Z</time>
      </trkpt>
      <trkpt lat="43.26058" lon="0.11434">
        <ele>325.8</ele>
        <time>2024-04-17T12:38:41Z</time>
      </trkpt>
      <trkpt lat="43.26062" lon="0.11434">
        <ele>325.8</ele>
        <time>2024-04-17T12:38:42Z</time>
      </trkpt>
      <trkpt lat="43.26065" lon="0.11435">
        <ele>325.8</ele>
        <time>2024-04-17T12:38:43Z</time>
      </trkpt>
      <trkpt lat="43.26068" lon="0.11436">
        <ele>325.8</ele>
        <time>2024-04-17T12:38:44Z</time>
      </trkpt>
      <trkpt lat="43.26071" lon="0.11438">
        <ele>325.8</ele>
        <time>2024-04-17T12:38:45Z</time>
      </trkpt>
      <trkpt lat="43.26074" lon="0.11439">
        <ele>325.8</ele>
        <time>2024-04-17T12:38:46Z</time>
      </trkpt>
      <trkpt lat="43.26077" lon="0.11441">
        <ele>325.8</ele>
        <time>2024-04-17T12:38:47Z</time>
      </trkpt>
      <trkpt lat="43.2608" lon="0.11442">
        <ele>325.8</ele>
        <time>2024-04-17T12:38:48Z</time>
      </trkpt>
      <trkpt lat="43.26083" lon="0.11443">
        <ele>325.8</ele>
        <time>2024-04-17T12:38:49Z</time>
      </trkpt>
      <trkpt lat="43.26086" lon="0.11444">
        <ele>325.8</ele>
        <time>2024-04-17T12:38:50Z</time>
      </trkpt>
      <trkpt lat="43.26089" lon="0.11445">
        <ele>325.8</ele>
        <time>2024-04-17T12:38:51Z</time>
      </trkpt>
      <trkpt lat="43.26091" lon="0.11447">
        <ele>325.8</ele>
        <time>2024-04-17T12:38:52Z</time>
      </trkpt>
      <trkpt lat="43.26094" lon="0.11448">
        <ele>326</ele>
        <time>2024-04-17T12:38:53Z</time>
      </trkpt>
      <trkpt lat="43.26096" lon="0.11449">
        <ele>326.2</ele>
        <time>2024-04-17T12:38:54Z</time>
      </trkpt>
      <trkpt lat="43.26098" lon="0.11451">
        <ele>326.2</ele>
        <time>2024-04-17T12:38:55Z</time>
      </trkpt>
      <trkpt lat="43.261" lon="0.11452">
        <ele>326.2</ele>
        <time>2024-04-17T12:38:56Z</time>
      </trkpt>
      <trkpt lat="43.26102" lon="0.11453">
        <ele>326.6</ele>
        <time>2024-04-17T12:38:57Z</time>
      </trkpt>
      <trkpt lat="43.26104" lon="0.11454">
        <ele>326.8</ele>
        <time>2024-04-17T12:38:58Z</time>
      </trkpt>
      <trkpt lat="43.26106" lon="0.11455">
        <ele>327.2</ele>
        <time>2024-04-17T12:38:59Z</time>
      </trkpt>
      <trkpt lat="43.26108" lon="0.11456">
        <ele>327.2</ele>
        <time>2024-04-17T12:39:00Z</time>
      </trkpt>
      <trkpt lat="43.2611" lon="0.11457">
        <ele>327.4</ele>
        <time>2024-04-17T12:39:01Z</time>
      </trkpt>
      <trkpt lat="43.26112" lon="0.11458">
        <ele>327.6</ele>
        <time>2024-04-17T12:39:02Z</time>
      </trkpt>
      <trkpt lat="43.26114" lon="0.1146">
        <ele>328</ele>
        <time>2024-04-17T12:39:03Z</time>
      </trkpt>
      <trkpt lat="43.26116" lon="0.11461">
        <ele>328.4</ele>
        <time>2024-04-17T12:39:04Z</time>
      </trkpt>
      <trkpt lat="43.26119" lon="0.11462">
        <ele>328.4</ele>
        <time>2024-04-17T12:39:05Z</time>
      </trkpt>
      <trkpt lat="43.26121" lon="0.11464">
        <ele>328.6</ele>
        <time>2024-04-17T12:39:06Z</time>
      </trkpt>
      <trkpt lat="43.26123" lon="0.11465">
        <ele>328.6</ele>
        <time>2024-04-17T12:39:07Z</time>
      </trkpt>
      <trkpt lat="43.26126" lon="0.11467">
        <ele>328.8</ele>
        <time>2024-04-17T12:39:08Z</time>
      </trkpt>
      <trkpt lat="43.26128" lon="0.11468">
        <ele>329</ele>
        <time>2024-04-17T12:39:09Z</time>
      </trkpt>
      <trkpt lat="43.2613" lon="0.11469">
        <ele>329</ele>
        <time>2024-04-17T12:39:10Z</time>
      </trkpt>
      <trkpt lat="43.26132" lon="0.11471">
        <ele>329.2</ele>
        <time>2024-04-17T12:39:11Z</time>
      </trkpt>
      <trkpt lat="43.26134" lon="0.11472">
        <ele>329.2</ele>
        <time>2024-04-17T12:39:12Z</time>
      </trkpt>
      <trkpt lat="43.26136" lon="0.11474">
        <ele>329.6</ele>
        <time>2024-04-17T12:39:13Z</time>
      </trkpt>
      <trkpt lat="43.26138" lon="0.11475">
        <ele>329.6</ele>
        <time>2024-04-17T12:39:14Z</time>
      </trkpt>
      <trkpt lat="43.26141" lon="0.11476">
        <ele>329.8</ele>
        <time>2024-04-17T12:39:15Z</time>
      </trkpt>
      <trkpt lat="43.26143" lon="0.11478">
        <ele>329.8</ele>
        <time>2024-04-17T12:39:16Z</time>
      </trkpt>
      <trkpt lat="43.26145" lon="0.11479">
        <ele>330</ele>
        <time>2024-04-17T12:39:17Z</time>
      </trkpt>
      <trkpt lat="43.26148" lon="0.11479">
        <ele>330</ele>
        <time>2024-04-17T12:39:18Z</time>
      </trkpt>
      <trkpt lat="43.2615" lon="0.1148">
        <ele>330</ele>
        <time>2024-04-17T12:39:19Z</time>
      </trkpt>
      <trkpt lat="43.26153" lon="0.11481">
        <ele>330</ele>
        <time>2024-04-17T12:39:20Z</time>
      </trkpt>
      <trkpt lat="43.26156" lon="0.11482">
        <ele>330</ele>
        <time>2024-04-17T12:39:21Z</time>
      </trkpt>
      <trkpt lat="43.26159" lon="0.11484">
        <ele>330</ele>
        <time>2024-04-17T12:39:22Z</time>
      </trkpt>
      <trkpt lat="43.26162" lon="0.11485">
        <ele>330</ele>
        <time>2024-04-17T12:39:23Z</time>
      </trkpt>
      <trkpt lat="43.26165" lon="0.11487">
        <ele>330</ele>
        <time>2024-04-17T12:39:24Z</time>
      </trkpt>
      <trkpt lat="43.26168" lon="0.11488">
        <ele>330</ele>
        <time>2024-04-17T12:39:25Z</time>
      </trkpt>
      <trkpt lat="43.26171" lon="0.11489">
        <ele>329.8</ele>
        <time>2024-04-17T12:39:26Z</time>
      </trkpt>
      <trkpt lat="43.26175" lon="0.11489">
        <ele>329.8</ele>
        <time>2024-04-17T12:39:27Z</time>
      </trkpt>
      <trkpt lat="43.26179" lon="0.1149">
        <ele>329.6</ele>
        <time>2024-04-17T12:39:28Z</time>
      </trkpt>
      <trkpt lat="43.26182" lon="0.11491">
        <ele>329.6</ele>
        <time>2024-04-17T12:39:29Z</time>
      </trkpt>
      <trkpt lat="43.26186" lon="0.11492">
        <ele>329.6</ele>
        <time>2024-04-17T12:39:30Z</time>
      </trkpt>
      <trkpt lat="43.26191" lon="0.11492">
        <ele>329.4</ele>
        <time>2024-04-17T12:39:31Z</time>
      </trkpt>
      <trkpt lat="43.26195" lon="0.11493">
        <ele>329.4</ele>
        <time>2024-04-17T12:39:32Z</time>
      </trkpt>
      <trkpt lat="43.262" lon="0.11494">
        <ele>329.4</ele>
        <time>2024-04-17T12:39:33Z</time>
      </trkpt>
      <trkpt lat="43.26204" lon="0.11494">
        <ele>329.4</ele>
        <time>2024-04-17T12:39:34Z</time>
      </trkpt>
      <trkpt lat="43.26209" lon="0.11495">
        <ele>329.2</ele>
        <time>2024-04-17T12:39:35Z</time>
      </trkpt>
      <trkpt lat="43.26214" lon="0.11496">
        <ele>329</ele>
        <time>2024-04-17T12:39:36Z</time>
      </trkpt>
      <trkpt lat="43.26219" lon="0.11496">
        <ele>328.8</ele>
        <time>2024-04-17T12:39:37Z</time>
      </trkpt>
      <trkpt lat="43.26224" lon="0.11497">
        <ele>328.6</ele>
        <time>2024-04-17T12:39:38Z</time>
      </trkpt>
      <trkpt lat="43.26228" lon="0.11497">
        <ele>328.6</ele>
        <time>2024-04-17T12:39:39Z</time>
      </trkpt>
      <trkpt lat="43.26232" lon="0.11498">
        <ele>328</ele>
        <time>2024-04-17T12:39:40Z</time>
      </trkpt>
      <trkpt lat="43.26237" lon="0.11498">
        <ele>327.8</ele>
        <time>2024-04-17T12:39:41Z</time>
      </trkpt>
      <trkpt lat="43.26241" lon="0.11499">
        <ele>327.4</ele>
        <time>2024-04-17T12:39:42Z</time>
      </trkpt>
      <trkpt lat="43.26246" lon="0.11499">
        <ele>327.4</ele>
        <time>2024-04-17T12:39:43Z</time>
      </trkpt>
      <trkpt lat="43.2625" lon="0.11499">
        <ele>327.2</ele>
        <time>2024-04-17T12:39:44Z</time>
      </trkpt>
      <trkpt lat="43.26254" lon="0.115">
        <ele>327.2</ele>
        <time>2024-04-17T12:39:45Z</time>
      </trkpt>
      <trkpt lat="43.26258" lon="0.115">
        <ele>327.2</ele>
        <time>2024-04-17T12:39:46Z</time>
      </trkpt>
      <trkpt lat="43.26262" lon="0.11501">
        <ele>327.2</ele>
        <time>2024-04-17T12:39:47Z</time>
      </trkpt>
      <trkpt lat="43.26266" lon="0.11501">
        <ele>327.2</ele>
        <time>2024-04-17T12:39:48Z</time>
      </trkpt>
      <trkpt lat="43.2627" lon="0.11502">
        <ele>327</ele>
        <time>2024-04-17T12:39:49Z</time>
      </trkpt>
      <trkpt lat="43.26273" lon="0.11502">
        <ele>327</ele>
        <time>2024-04-17T12:39:50Z</time>
      </trkpt>
      <trkpt lat="43.26277" lon="0.11503">
        <ele>326.8</ele>
        <time>2024-04-17T12:39:51Z</time>
      </trkpt>
      <trkpt lat="43.26281" lon="0.11504">
        <ele>326.8</ele>
        <time>2024-04-17T12:39:52Z</time>
      </trkpt>
      <trkpt lat="43.26284" lon="0.11505">
        <ele>326.8</ele>
        <time>2024-04-17T12:39:53Z</time>
      </trkpt>
      <trkpt lat="43.26287" lon="0.11506">
        <ele>326.8</ele>
        <time>2024-04-17T12:39:54Z</time>
      </trkpt>
      <trkpt lat="43.26291" lon="0.11507">
        <ele>326.6</ele>
        <time>2024-04-17T12:39:55Z</time>
      </trkpt>
      <trkpt lat="43.26295" lon="0.11507">
        <ele>326.6</ele>
        <time>2024-04-17T12:39:56Z</time>
      </trkpt>
      <trkpt lat="43.26299" lon="0.11507">
        <ele>326.6</ele>
        <time>2024-04-17T12:39:57Z</time>
      </trkpt>
      <trkpt lat="43.26302" lon="0.11507">
        <ele>326.4</ele>
        <time>2024-04-17T12:39:58Z</time>
      </trkpt>
      <trkpt lat="43.26305" lon="0.11507">
        <ele>326.4</ele>
        <time>2024-04-17T12:39:59Z</time>
      </trkpt>
      <trkpt lat="43.26307" lon="0.11507">
        <ele>326.2</ele>
        <time>2024-04-17T12:40:00Z</time>
      </trkpt>
      <trkpt lat="43.26309" lon="0.11507">
        <ele>326.2</ele>
        <time>2024-04-17T12:40:01Z</time>
      </trkpt>
      <trkpt lat="43.26311" lon="0.11506">
        <ele>326.2</ele>
        <time>2024-04-17T12:40:02Z</time>
      </trkpt>
      <trkpt lat="43.26311" lon="0.11505">
        <ele>326.2</ele>
        <time>2024-04-17T12:40:03Z</time>
      </trkpt>
      <trkpt lat="43.26312" lon="0.11503">
        <ele>326.2</ele>
        <time>2024-04-17T12:40:04Z</time>
      </trkpt>
      <trkpt lat="43.26312" lon="0.11502">
        <ele>326.2</ele>
        <time>2024-04-17T12:40:05Z</time>
      </trkpt>
      <trkpt lat="43.26312" lon="0.115">
        <ele>326.2</ele>
        <time>2024-04-17T12:40:06Z</time>
      </trkpt>
      <trkpt lat="43.26312" lon="0.11498">
        <ele>326.2</ele>
        <time>2024-04-17T12:40:07Z</time>
      </trkpt>
      <trkpt lat="43.26312" lon="0.11496">
        <ele>326.2</ele>
        <time>2024-04-17T12:40:08Z</time>
      </trkpt>
      <trkpt lat="43.26313" lon="0.11494">
        <ele>326.2</ele>
        <time>2024-04-17T12:40:09Z</time>
      </trkpt>
      <trkpt lat="43.26313" lon="0.11491">
        <ele>326.6</ele>
        <time>2024-04-17T12:40:10Z</time>
      </trkpt>
      <trkpt lat="43.26314" lon="0.11488">
        <ele>326.8</ele>
        <time>2024-04-17T12:40:11Z</time>
      </trkpt>
      <trkpt lat="43.26314" lon="0.11486">
        <ele>327.2</ele>
        <time>2024-04-17T12:40:12Z</time>
      </trkpt>
      <trkpt lat="43.26314" lon="0.11484">
        <ele>327.4</ele>
        <time>2024-04-17T12:40:13Z</time>
      </trkpt>
      <trkpt lat="43.26314" lon="0.11481">
        <ele>327.8</ele>
        <time>2024-04-17T12:40:14Z</time>
      </trkpt>
      <trkpt lat="43.26313" lon="0.11479">
        <ele>328</ele>
        <time>2024-04-17T12:40:15Z</time>
      </trkpt>
      <trkpt lat="43.26313" lon="0.11477">
        <ele>328.4</ele>
        <time>2024-04-17T12:40:16Z</time>
      </trkpt>
      <trkpt lat="43.26313" lon="0.11475">
        <ele>328.6</ele>
        <time>2024-04-17T12:40:17Z</time>
      </trkpt>
      <trkpt lat="43.26313" lon="0.11473">
        <ele>328.6</ele>
        <time>2024-04-17T12:40:18Z</time>
      </trkpt>
      <trkpt lat="43.26313" lon="0.11471">
        <ele>328.8</ele>
        <time>2024-04-17T12:40:19Z</time>
      </trkpt>
      <trkpt lat="43.26313" lon="0.11469">
        <ele>328.8</ele>
        <time>2024-04-17T12:40:20Z</time>
      </trkpt>
      <trkpt lat="43.26314" lon="0.11467">
        <ele>329</ele>
        <time>2024-04-17T12:40:21Z</time>
      </trkpt>
      <trkpt lat="43.26314" lon="0.11464">
        <ele>329.2</ele>
        <time>2024-04-17T12:40:22Z</time>
      </trkpt>
      <trkpt lat="43.26314" lon="0.11462">
        <ele>329.4</ele>
        <time>2024-04-17T12:40:23Z</time>
      </trkpt>
      <trkpt lat="43.26314" lon="0.1146">
        <ele>329.6</ele>
        <time>2024-04-17T12:40:24Z</time>
      </trkpt>
      <trkpt lat="43.26315" lon="0.11459">
        <ele>329.8</ele>
        <time>2024-04-17T12:40:25Z</time>
      </trkpt>
      <trkpt lat="43.26315" lon="0.11458">
        <ele>330.2</ele>
        <time>2024-04-17T12:40:26Z</time>
      </trkpt>
      <trkpt lat="43.26315" lon="0.11456">
        <ele>330.4</ele>
        <time>2024-04-17T12:40:27Z</time>
      </trkpt>
      <trkpt lat="43.26315" lon="0.11454">
        <ele>330.6</ele>
        <time>2024-04-17T12:40:28Z</time>
      </trkpt>
      <trkpt lat="43.26315" lon="0.11452">
        <ele>330.4</ele>
        <time>2024-04-17T12:40:29Z</time>
      </trkpt>
      <trkpt lat="43.26315" lon="0.11451">
        <ele>331</ele>
        <time>2024-04-17T12:40:30Z</time>
      </trkpt>
      <trkpt lat="43.26315" lon="0.11449">
        <ele>331</ele>
        <time>2024-04-17T12:40:31Z</time>
      </trkpt>
      <trkpt lat="43.26316" lon="0.11447">
        <ele>331.2</ele>
        <time>2024-04-17T12:40:32Z</time>
      </trkpt>
      <trkpt lat="43.26316" lon="0.11445">
        <ele>331.4</ele>
        <time>2024-04-17T12:40:33Z</time>
      </trkpt>
      <trkpt lat="43.26316" lon="0.11442">
        <ele>331.6</ele>
        <time>2024-04-17T12:40:34Z</time>
      </trkpt>
      <trkpt lat="43.26317" lon="0.1144">
        <ele>331.8</ele>
        <time>2024-04-17T12:40:35Z</time>
      </trkpt>
      <trkpt lat="43.26317" lon="0.1144">
        <ele>332</ele>
        <time>2024-04-17T12:40:36Z</time>
      </trkpt>
      <trkpt lat="43.26317" lon="0.11438">
        <ele>332.2</ele>
        <time>2024-04-17T12:40:37Z</time>
      </trkpt>
      <trkpt lat="43.26317" lon="0.11438">
        <ele>332.2</ele>
        <time>2024-04-17T12:40:38Z</time>
      </trkpt>
      <trkpt lat="43.26317" lon="0.11436">
        <ele>332.4</ele>
        <time>2024-04-17T12:40:39Z</time>
      </trkpt>
      <trkpt lat="43.26317" lon="0.11434">
        <ele>332.4</ele>
        <time>2024-04-17T12:40:40Z</time>
      </trkpt>
      <trkpt lat="43.26317" lon="0.11432">
        <ele>332.8</ele>
        <time>2024-04-17T12:40:41Z</time>
      </trkpt>
      <trkpt lat="43.26317" lon="0.11432">
        <ele>333</ele>
        <time>2024-04-17T12:40:42Z</time>
      </trkpt>
      <trkpt lat="43.26316" lon="0.1143">
        <ele>333.2</ele>
        <time>2024-04-17T12:40:43Z</time>
      </trkpt>
      <trkpt lat="43.26317" lon="0.11425">
        <ele>333.2</ele>
        <time>2024-04-17T12:40:44Z</time>
      </trkpt>
      <trkpt lat="43.26317" lon="0.11423">
        <ele>333.4</ele>
        <time>2024-04-17T12:40:45Z</time>
      </trkpt>
      <trkpt lat="43.26317" lon="0.11422">
        <ele>333.6</ele>
        <time>2024-04-17T12:40:46Z</time>
      </trkpt>
      <trkpt lat="43.26317" lon="0.11422">
        <ele>333.6</ele>
        <time>2024-04-17T12:40:47Z</time>
      </trkpt>
      <trkpt lat="43.26317" lon="0.11422">
        <ele>334</ele>
        <time>2024-04-17T12:40:48Z</time>
      </trkpt>
      <trkpt lat="43.26317" lon="0.11422">
        <ele>334.2</ele>
        <time>2024-04-17T12:40:49Z</time>
      </trkpt>
      <trkpt lat="43.26317" lon="0.11422">
        <ele>334.2</ele>
        <time>2024-04-17T12:40:50Z</time>
      </trkpt>
      <trkpt lat="43.26317" lon="0.11422">
        <ele>334.4</ele>
        <time>2024-04-17T12:40:51Z</time>
      </trkpt>
      <trkpt lat="43.26317" lon="0.11422">
        <ele>334.4</ele>
        <time>2024-04-17T12:40:52Z</time>
      </trkpt>
      <trkpt lat="43.26317" lon="0.11422">
        <ele>334.4</ele>
        <time>2024-04-17T12:40:53Z</time>
      </trkpt>
      <trkpt lat="43.26317" lon="0.11422">
        <ele>334.6</ele>
        <time>2024-04-17T12:40:54Z</time>
      </trkpt>
      <trkpt lat="43.26317" lon="0.11421">
        <ele>334.6</ele>
        <time>2024-04-17T12:40:55Z</time>
      </trkpt>
      <trkpt lat="43.26317" lon="0.11422">
        <ele>334.6</ele>
        <time>2024-04-17T12:40:56Z</time>
      </trkpt>
      <trkpt lat="43.26317" lon="0.11422">
        <ele>334.6</ele>
        <time>2024-04-17T12:40:57Z</time>
      </trkpt>
      <trkpt lat="43.26317" lon="0.11422">
        <ele>334.6</ele>
        <time>2024-04-17T12:40:58Z</time>
      </trkpt>
      <trkpt lat="43.26317" lon="0.11422">
        <ele>334.6</ele>
        <time>2024-04-17T12:40:59Z</time>
      </trkpt>
      <trkpt lat="43.26317" lon="0.11422">
        <ele>334.6</ele>
        <time>2024-04-17T12:41:00Z</time>
      </trkpt>
      <trkpt lat="43.26317" lon="0.11422">
        <ele>334.6</ele>
        <time>2024-04-17T12:41:01Z</time>
      </trkpt>
      <trkpt lat="43.26317" lon="0.11422">
        <ele>334.8</ele>
        <time>2024-04-17T12:41:02Z</time>
      </trkpt>
      <trkpt lat="43.26317" lon="0.11422">
        <ele>334.8</ele>
        <time>2024-04-17T12:41:03Z</time>
      </trkpt>
      <trkpt lat="43.26317" lon="0.11422">
        <ele>334.8</ele>
        <time>2024-04-17T12:41:04Z</time>
      </trkpt>
      <trkpt lat="43.26317" lon="0.11422">
        <ele>334.8</ele>
        <time>2024-04-17T12:41:05Z</time>
      </trkpt>
      <trkpt lat="43.26317" lon="0.11422">
        <ele>334.8</ele>
        <time>2024-04-17T12:41:06Z</time>
      </trkpt>
      <trkpt lat="43.26317" lon="0.11422">
        <ele>334.8</ele>
        <time>2024-04-17T12:41:07Z</time>
      </trkpt>
      <trkpt lat="43.26317" lon="0.11422">
        <ele>334.8</ele>
        <time>2024-04-17T12:41:08Z</time>
      </trkpt>
      <trkpt lat="43.26317" lon="0.11422">
        <ele>334.8</ele>
        <time>2024-04-17T12:41:09Z</time>
      </trkpt>
      <trkpt lat="43.26317" lon="0.11422">
        <ele>334.8</ele>
        <time>2024-04-17T12:41:10Z</time>
      </trkpt>
      <trkpt lat="43.26318" lon="0.11422">
        <ele>334.8</ele>
        <time>2024-04-17T12:41:11Z</time>
      </trkpt>
      <trkpt lat="43.26319" lon="0.11421">
        <ele>334.8</ele>
        <time>2024-04-17T12:41:12Z</time>
      </trkpt>
      <trkpt lat="43.2632" lon="0.1142">
        <ele>334.8</ele>
        <time>2024-04-17T12:41:13Z</time>
      </trkpt>
      <trkpt lat="43.26322" lon="0.11419">
        <ele>334.8</ele>
        <time>2024-04-17T12:41:14Z</time>
      </trkpt>
      <trkpt lat="43.26323" lon="0.11417">
        <ele>334.8</ele>
        <time>2024-04-17T12:41:15Z</time>
      </trkpt>
      <trkpt lat="43.26324" lon="0.11417">
        <ele>334.8</ele>
        <time>2024-04-17T12:41:16Z</time>
      </trkpt>
      <trkpt lat="43.26325" lon="0.11416">
        <ele>334.8</ele>
        <time>2024-04-17T12:41:17Z</time>
      </trkpt>
      <trkpt lat="43.26326" lon="0.11415">
        <ele>335</ele>
        <time>2024-04-17T12:41:18Z</time>
      </trkpt>
      <trkpt lat="43.26327" lon="0.11414">
        <ele>335</ele>
        <time>2024-04-17T12:41:19Z</time>
      </trkpt>
      <trkpt lat="43.26328" lon="0.11414">
        <ele>335</ele>
        <time>2024-04-17T12:41:20Z</time>
      </trkpt>
      <trkpt lat="43.2633" lon="0.11412">
        <ele>335</ele>
        <time>2024-04-17T12:41:21Z</time>
      </trkpt>
      <trkpt lat="43.26332" lon="0.11411">
        <ele>335.2</ele>
        <time>2024-04-17T12:41:22Z</time>
      </trkpt>
      <trkpt lat="43.26332" lon="0.11411">
        <ele>335.2</ele>
        <time>2024-04-17T12:41:23Z</time>
      </trkpt>
      <trkpt lat="43.26333" lon="0.1141">
        <ele>335.2</ele>
        <time>2024-04-17T12:41:24Z</time>
      </trkpt>
      <trkpt lat="43.26333" lon="0.1141">
        <ele>335.2</ele>
        <time>2024-04-17T12:41:25Z</time>
      </trkpt>
      <trkpt lat="43.26333" lon="0.1141">
        <ele>335.2</ele>
        <time>2024-04-17T12:41:26Z</time>
      </trkpt>
      <trkpt lat="43.26335" lon="0.11409">
        <ele>335.2</ele>
        <time>2024-04-17T12:41:27Z</time>
      </trkpt>
      <trkpt lat="43.26336" lon="0.11407">
        <ele>335.2</ele>
        <time>2024-04-17T12:41:28Z</time>
      </trkpt>
      <trkpt lat="43.26338" lon="0.11405">
        <ele>335</ele>
        <time>2024-04-17T12:41:29Z</time>
      </trkpt>
      <trkpt lat="43.26339" lon="0.11403">
        <ele>335</ele>
        <time>2024-04-17T12:41:30Z</time>
      </trkpt>
      <trkpt lat="43.26339" lon="0.11403">
        <ele>335</ele>
        <time>2024-04-17T12:41:31Z</time>
      </trkpt>
      <trkpt lat="43.26339" lon="0.11403">
        <ele>335</ele>
        <time>2024-04-17T12:41:32Z</time>
      </trkpt>
      <trkpt lat="43.26339" lon="0.11403">
        <ele>335</ele>
        <time>2024-04-17T12:41:33Z</time>
      </trkpt>
      <trkpt lat="43.26339" lon="0.11403">
        <ele>335</ele>
        <time>2024-04-17T12:41:34Z</time>
      </trkpt>
      <trkpt lat="43.26339" lon="0.11403">
        <ele>335.2</ele>
        <time>2024-04-17T12:41:35Z</time>
      </trkpt>
      <trkpt lat="43.26339" lon="0.11403">
        <ele>335.2</ele>
        <time>2024-04-17T12:41:36Z</time>
      </trkpt>
      <trkpt lat="43.26339" lon="0.11403">
        <ele>335.2</ele>
        <time>2024-04-17T12:41:37Z</time>
      </trkpt>
      <trkpt lat="43.2634" lon="0.11402">
        <ele>335.2</ele>
        <time>2024-04-17T12:41:38Z</time>
      </trkpt>
      <trkpt lat="43.2634" lon="0.11401">
        <ele>335.4</ele>
        <time>2024-04-17T12:41:39Z</time>
      </trkpt>
      <trkpt lat="43.26342" lon="0.11398">
        <ele>335.4</ele>
        <time>2024-04-17T12:41:40Z</time>
      </trkpt>
      <trkpt lat="43.26342" lon="0.11397">
        <ele>335.4</ele>
        <time>2024-04-17T12:41:41Z</time>
      </trkpt>
      <trkpt lat="43.26345" lon="0.11393">
        <ele>335.4</ele>
        <time>2024-04-17T12:41:42Z</time>
      </trkpt>
      <trkpt lat="43.26345" lon="0.11393">
        <ele>335.4</ele>
        <time>2024-04-17T12:41:43Z</time>
      </trkpt>
      <trkpt lat="43.26345" lon="0.11393">
        <ele>335.4</ele>
        <time>2024-04-17T12:41:44Z</time>
      </trkpt>
      <trkpt lat="43.26346" lon="0.11394">
        <ele>335.4</ele>
        <time>2024-04-17T12:41:45Z</time>
      </trkpt>
      <trkpt lat="43.26346" lon="0.11394">
        <ele>335.4</ele>
        <time>2024-04-17T12:41:46Z</time>
      </trkpt>
      <trkpt lat="43.26347" lon="0.11394">
        <ele>335.4</ele>
        <time>2024-04-17T12:41:47Z</time>
      </trkpt>
      <trkpt lat="43.26348" lon="0.11393">
        <ele>335.2</ele>
        <time>2024-04-17T12:41:48Z</time>
      </trkpt>
      <trkpt lat="43.26349" lon="0.11393">
        <ele>335.2</ele>
        <time>2024-04-17T12:41:49Z</time>
      </trkpt>
      <trkpt lat="43.26349" lon="0.11393">
        <ele>335.2</ele>
        <time>2024-04-17T12:41:50Z</time>
      </trkpt>
      <trkpt lat="43.26349" lon="0.11393">
        <ele>335.2</ele>
        <time>2024-04-17T12:41:51Z</time>
      </trkpt>
      <trkpt lat="43.26349" lon="0.11393">
        <ele>335</ele>
        <time>2024-04-17T12:41:52Z</time>
      </trkpt>
      <trkpt lat="43.26349" lon="0.11393">
        <ele>335</ele>
        <time>2024-04-17T12:41:53Z</time>
      </trkpt>
      <trkpt lat="43.26352" lon="0.11391">
        <ele>335</ele>
        <time>2024-04-17T12:41:54Z</time>
      </trkpt>
      <trkpt lat="43.26354" lon="0.11389">
        <ele>335</ele>
        <time>2024-04-17T12:41:55Z</time>
      </trkpt>
      <trkpt lat="43.26356" lon="0.11388">
        <ele>335</ele>
        <time>2024-04-17T12:41:56Z</time>
      </trkpt>
      <trkpt lat="43.26359" lon="0.11387">
        <ele>335</ele>
        <time>2024-04-17T12:41:57Z</time>
      </trkpt>
      <trkpt lat="43.26361" lon="0.11386">
        <ele>335</ele>
        <time>2024-04-17T12:41:58Z</time>
      </trkpt>
      <trkpt lat="43.26363" lon="0.11386">
        <ele>335</ele>
        <time>2024-04-17T12:41:59Z</time>
      </trkpt>
      <trkpt lat="43.26364" lon="0.11385">
        <ele>335</ele>
        <time>2024-04-17T12:42:00Z</time>
      </trkpt>
      <trkpt lat="43.26366" lon="0.11384">
        <ele>335</ele>
        <time>2024-04-17T12:42:01Z</time>
      </trkpt>
      <trkpt lat="43.26368" lon="0.11382">
        <ele>335</ele>
        <time>2024-04-17T12:42:02Z</time>
      </trkpt>
      <trkpt lat="43.2637" lon="0.11381">
        <ele>335</ele>
        <time>2024-04-17T12:42:03Z</time>
      </trkpt>
      <trkpt lat="43.26371" lon="0.11381">
        <ele>335</ele>
        <time>2024-04-17T12:42:04Z</time>
      </trkpt>
      <trkpt lat="43.26373" lon="0.11381">
        <ele>335</ele>
        <time>2024-04-17T12:42:05Z</time>
      </trkpt>
      <trkpt lat="43.26374" lon="0.1138">
        <ele>335</ele>
        <time>2024-04-17T12:42:06Z</time>
      </trkpt>
      <trkpt lat="43.26374" lon="0.1138">
        <ele>335</ele>
        <time>2024-04-17T12:42:07Z</time>
      </trkpt>
      <trkpt lat="43.26374" lon="0.11379">
        <ele>335</ele>
        <time>2024-04-17T12:42:08Z</time>
      </trkpt>
      <trkpt lat="43.26374" lon="0.11378">
        <ele>335</ele>
        <time>2024-04-17T12:42:09Z</time>
      </trkpt>
      <trkpt lat="43.26375" lon="0.11377">
        <ele>334.8</ele>
        <time>2024-04-17T12:42:10Z</time>
      </trkpt>
      <trkpt lat="43.26375" lon="0.11377">
        <ele>334.8</ele>
        <time>2024-04-17T12:42:11Z</time>
      </trkpt>
      <trkpt lat="43.26375" lon="0.11377">
        <ele>334.6</ele>
        <time>2024-04-17T12:42:12Z</time>
      </trkpt>
      <trkpt lat="43.26375" lon="0.11377">
        <ele>334.6</ele>
        <time>2024-04-17T12:42:13Z</time>
      </trkpt>
      <trkpt lat="43.26376" lon="0.11377">
        <ele>334.6</ele>
        <time>2024-04-17T12:42:14Z</time>
      </trkpt>
      <trkpt lat="43.26377" lon="0.11377">
        <ele>334.6</ele>
        <time>2024-04-17T12:42:15Z</time>
      </trkpt>
      <trkpt lat="43.26379" lon="0.11378">
        <ele>334.6</ele>
        <time>2024-04-17T12:42:16Z</time>
      </trkpt>
      <trkpt lat="43.2638" lon="0.11378">
        <ele>334.4</ele>
        <time>2024-04-17T12:42:17Z</time>
      </trkpt>
      <trkpt lat="43.26381" lon="0.11377">
        <ele>334.4</ele>
        <time>2024-04-17T12:42:18Z</time>
      </trkpt>
      <trkpt lat="43.26382" lon="0.11376">
        <ele>334.4</ele>
        <time>2024-04-17T12:42:19Z</time>
      </trkpt>
      <trkpt lat="43.26383" lon="0.11373">
        <ele>334.4</ele>
        <time>2024-04-17T12:42:20Z</time>
      </trkpt>
      <trkpt lat="43.26383" lon="0.1137">
        <ele>334.2</ele>
        <time>2024-04-17T12:42:21Z</time>
      </trkpt>
      <trkpt lat="43.26384" lon="0.11368">
        <ele>334.2</ele>
        <time>2024-04-17T12:42:22Z</time>
      </trkpt>
      <trkpt lat="43.26385" lon="0.11367">
        <ele>334.2</ele>
        <time>2024-04-17T12:42:23Z</time>
      </trkpt>
      <trkpt lat="43.26386" lon="0.11365">
        <ele>334</ele>
        <time>2024-04-17T12:42:24Z</time>
      </trkpt>
      <trkpt lat="43.26387" lon="0.11364">
        <ele>334</ele>
        <time>2024-04-17T12:42:25Z</time>
      </trkpt>
      <trkpt lat="43.26388" lon="0.11363">
        <ele>334</ele>
        <time>2024-04-17T12:42:26Z</time>
      </trkpt>
      <trkpt lat="43.26389" lon="0.11361">
        <ele>334</ele>
        <time>2024-04-17T12:42:27Z</time>
      </trkpt>
      <trkpt lat="43.2639" lon="0.1136">
        <ele>334</ele>
        <time>2024-04-17T12:42:28Z</time>
      </trkpt>
      <trkpt lat="43.26392" lon="0.11357">
        <ele>334</ele>
        <time>2024-04-17T12:42:29Z</time>
      </trkpt>
      <trkpt lat="43.26394" lon="0.11355">
        <ele>334</ele>
        <time>2024-04-17T12:42:30Z</time>
      </trkpt>
      <trkpt lat="43.26395" lon="0.11353">
        <ele>334</ele>
        <time>2024-04-17T12:42:31Z</time>
      </trkpt>
      <trkpt lat="43.26396" lon="0.11351">
        <ele>334</ele>
        <time>2024-04-17T12:42:32Z</time>
      </trkpt>
      <trkpt lat="43.26397" lon="0.11349">
        <ele>334</ele>
        <time>2024-04-17T12:42:33Z</time>
      </trkpt>
      <trkpt lat="43.26399" lon="0.11347">
        <ele>334</ele>
        <time>2024-04-17T12:42:34Z</time>
      </trkpt>
      <trkpt lat="43.264" lon="0.11346">
        <ele>334</ele>
        <time>2024-04-17T12:42:35Z</time>
      </trkpt>
      <trkpt lat="43.26402" lon="0.11343">
        <ele>334</ele>
        <time>2024-04-17T12:42:36Z</time>
      </trkpt>
      <trkpt lat="43.26403" lon="0.1134">
        <ele>334</ele>
        <time>2024-04-17T12:42:37Z</time>
      </trkpt>
      <trkpt lat="43.26404" lon="0.11339">
        <ele>334</ele>
        <time>2024-04-17T12:42:38Z</time>
      </trkpt>
      <trkpt lat="43.26405" lon="0.11337">
        <ele>333.8</ele>
        <time>2024-04-17T12:42:39Z</time>
      </trkpt>
      <trkpt lat="43.26407" lon="0.11335">
        <ele>333.8</ele>
        <time>2024-04-17T12:42:40Z</time>
      </trkpt>
      <trkpt lat="43.26408" lon="0.11331">
        <ele>333.8</ele>
        <time>2024-04-17T12:42:41Z</time>
      </trkpt>
      <trkpt lat="43.26409" lon="0.11327">
        <ele>333.8</ele>
        <time>2024-04-17T12:42:42Z</time>
      </trkpt>
      <trkpt lat="43.2641" lon="0.11323">
        <ele>334</ele>
        <time>2024-04-17T12:42:43Z</time>
      </trkpt>
      <trkpt lat="43.26411" lon="0.1132">
        <ele>334</ele>
        <time>2024-04-17T12:42:44Z</time>
      </trkpt>
      <trkpt lat="43.26412" lon="0.11318">
        <ele>334</ele>
        <time>2024-04-17T12:42:45Z</time>
      </trkpt>
      <trkpt lat="43.26414" lon="0.11314">
        <ele>334.2</ele>
        <time>2024-04-17T12:42:46Z</time>
      </trkpt>
      <trkpt lat="43.26414" lon="0.11313">
        <ele>334.2</ele>
        <time>2024-04-17T12:42:47Z</time>
      </trkpt>
      <trkpt lat="43.26415" lon="0.11311">
        <ele>334.2</ele>
        <time>2024-04-17T12:42:48Z</time>
      </trkpt>
      <trkpt lat="43.26415" lon="0.11308">
        <ele>334.2</ele>
        <time>2024-04-17T12:42:49Z</time>
      </trkpt>
      <trkpt lat="43.26415" lon="0.11305">
        <ele>334.2</ele>
        <time>2024-04-17T12:42:50Z</time>
      </trkpt>
      <trkpt lat="43.26416" lon="0.11302">
        <ele>334.2</ele>
        <time>2024-04-17T12:42:51Z</time>
      </trkpt>
      <trkpt lat="43.26416" lon="0.113">
        <ele>334.2</ele>
        <time>2024-04-17T12:42:52Z</time>
      </trkpt>
      <trkpt lat="43.26417" lon="0.11297">
        <ele>334.2</ele>
        <time>2024-04-17T12:42:53Z</time>
      </trkpt>
      <trkpt lat="43.26417" lon="0.11294">
        <ele>334.2</ele>
        <time>2024-04-17T12:42:54Z</time>
      </trkpt>
      <trkpt lat="43.26417" lon="0.11292">
        <ele>334.2</ele>
        <time>2024-04-17T12:42:55Z</time>
      </trkpt>
      <trkpt lat="43.26417" lon="0.11289">
        <ele>334.4</ele>
        <time>2024-04-17T12:42:56Z</time>
      </trkpt>
      <trkpt lat="43.26418" lon="0.11287">
        <ele>334.4</ele>
        <time>2024-04-17T12:42:57Z</time>
      </trkpt>
      <trkpt lat="43.26418" lon="0.11285">
        <ele>334.6</ele>
        <time>2024-04-17T12:42:58Z</time>
      </trkpt>
      <trkpt lat="43.26418" lon="0.11283">
        <ele>334.6</ele>
        <time>2024-04-17T12:42:59Z</time>
      </trkpt>
      <trkpt lat="43.26417" lon="0.11281">
        <ele>334.8</ele>
        <time>2024-04-17T12:43:00Z</time>
      </trkpt>
      <trkpt lat="43.26417" lon="0.11279">
        <ele>335</ele>
        <time>2024-04-17T12:43:01Z</time>
      </trkpt>
      <trkpt lat="43.26416" lon="0.11277">
        <ele>335.2</ele>
        <time>2024-04-17T12:43:02Z</time>
      </trkpt>
      <trkpt lat="43.26416" lon="0.11275">
        <ele>335.4</ele>
        <time>2024-04-17T12:43:03Z</time>
      </trkpt>
      <trkpt lat="43.26415" lon="0.11273">
        <ele>335.6</ele>
        <time>2024-04-17T12:43:04Z</time>
      </trkpt>
      <trkpt lat="43.26415" lon="0.11272">
        <ele>335.6</ele>
        <time>2024-04-17T12:43:05Z</time>
      </trkpt>
      <trkpt lat="43.26415" lon="0.1127">
        <ele>335.6</ele>
        <time>2024-04-17T12:43:06Z</time>
      </trkpt>
      <trkpt lat="43.26415" lon="0.11267">
        <ele>335.8</ele>
        <time>2024-04-17T12:43:07Z</time>
      </trkpt>
      <trkpt lat="43.26416" lon="0.11265">
        <ele>335.8</ele>
        <time>2024-04-17T12:43:08Z</time>
      </trkpt>
      <trkpt lat="43.26416" lon="0.11264">
        <ele>336</ele>
        <time>2024-04-17T12:43:09Z</time>
      </trkpt>
      <trkpt lat="43.26416" lon="0.11264">
        <ele>336</ele>
        <time>2024-04-17T12:43:10Z</time>
      </trkpt>
      <trkpt lat="43.26416" lon="0.11264">
        <ele>336.2</ele>
        <time>2024-04-17T12:43:11Z</time>
      </trkpt>
      <trkpt lat="43.26416" lon="0.11264">
        <ele>336.2</ele>
        <time>2024-04-17T12:43:12Z</time>
      </trkpt>
      <trkpt lat="43.26416" lon="0.11264">
        <ele>336.2</ele>
        <time>2024-04-17T12:43:13Z</time>
      </trkpt>
      <trkpt lat="43.26416" lon="0.11264">
        <ele>336.2</ele>
        <time>2024-04-17T12:43:14Z</time>
      </trkpt>
      <trkpt lat="43.26416" lon="0.11264">
        <ele>336</ele>
        <time>2024-04-17T12:43:15Z</time>
      </trkpt>
      <trkpt lat="43.26416" lon="0.11264">
        <ele>336</ele>
        <time>2024-04-17T12:43:16Z</time>
      </trkpt>
      <trkpt lat="43.26417" lon="0.11263">
        <ele>336</ele>
        <time>2024-04-17T12:43:17Z</time>
      </trkpt>
      <trkpt lat="43.26419" lon="0.11259">
        <ele>336</ele>
        <time>2024-04-17T12:43:18Z</time>
      </trkpt>
      <trkpt lat="43.26422" lon="0.11256">
        <ele>336</ele>
        <time>2024-04-17T12:43:19Z</time>
      </trkpt>
      <trkpt lat="43.26424" lon="0.11253">
        <ele>336</ele>
        <time>2024-04-17T12:43:20Z</time>
      </trkpt>
      <trkpt lat="43.26426" lon="0.11251">
        <ele>335.8</ele>
        <time>2024-04-17T12:43:21Z</time>
      </trkpt>
      <trkpt lat="43.2643" lon="0.11252">
        <ele>335.8</ele>
        <time>2024-04-17T12:43:22Z</time>
      </trkpt>
      <trkpt lat="43.26435" lon="0.11253">
        <ele>335.2</ele>
        <time>2024-04-17T12:43:23Z</time>
      </trkpt>
      <trkpt lat="43.26439" lon="0.11255">
        <ele>334.6</ele>
        <time>2024-04-17T12:43:24Z</time>
      </trkpt>
      <trkpt lat="43.26442" lon="0.11256">
        <ele>334</ele>
        <time>2024-04-17T12:43:25Z</time>
      </trkpt>
      <trkpt lat="43.26445" lon="0.11258">
        <ele>333.8</ele>
        <time>2024-04-17T12:43:26Z</time>
      </trkpt>
      <trkpt lat="43.26448" lon="0.1126">
        <ele>333.4</ele>
        <time>2024-04-17T12:43:27Z</time>
      </trkpt>
      <trkpt lat="43.2645" lon="0.11261">
        <ele>333.4</ele>
        <time>2024-04-17T12:43:28Z</time>
      </trkpt>
      <trkpt lat="43.26454" lon="0.11263">
        <ele>333.2</ele>
        <time>2024-04-17T12:43:29Z</time>
      </trkpt>
      <trkpt lat="43.26458" lon="0.11265">
        <ele>332.8</ele>
        <time>2024-04-17T12:43:30Z</time>
      </trkpt>
      <trkpt lat="43.26462" lon="0.11267">
        <ele>332.6</ele>
        <time>2024-04-17T12:43:31Z</time>
      </trkpt>
      <trkpt lat="43.26467" lon="0.11268">
        <ele>332.2</ele>
        <time>2024-04-17T12:43:32Z</time>
      </trkpt>
      <trkpt lat="43.2647" lon="0.11269">
        <ele>332.2</ele>
        <time>2024-04-17T12:43:33Z</time>
      </trkpt>
      <trkpt lat="43.26473" lon="0.1127">
        <ele>331.8</ele>
        <time>2024-04-17T12:43:34Z</time>
      </trkpt>
      <trkpt lat="43.26476" lon="0.11271">
        <ele>331.6</ele>
        <time>2024-04-17T12:43:35Z</time>
      </trkpt>
      <trkpt lat="43.26479" lon="0.11272">
        <ele>331.4</ele>
        <time>2024-04-17T12:43:36Z</time>
      </trkpt>
      <trkpt lat="43.26481" lon="0.11271">
        <ele>331.2</ele>
        <time>2024-04-17T12:43:37Z</time>
      </trkpt>
      <trkpt lat="43.26484" lon="0.11272">
        <ele>331</ele>
        <time>2024-04-17T12:43:38Z</time>
      </trkpt>
      <trkpt lat="43.26488" lon="0.11273">
        <ele>330.8</ele>
        <time>2024-04-17T12:43:39Z</time>
      </trkpt>
      <trkpt lat="43.2649" lon="0.11273">
        <ele>330.6</ele>
        <time>2024-04-17T12:43:40Z</time>
      </trkpt>
      <trkpt lat="43.26493" lon="0.11273">
        <ele>330.2</ele>
        <time>2024-04-17T12:43:41Z</time>
      </trkpt>
      <trkpt lat="43.26497" lon="0.11274">
        <ele>330</ele>
        <time>2024-04-17T12:43:42Z</time>
      </trkpt>
      <trkpt lat="43.26501" lon="0.11277">
        <ele>329.4</ele>
        <time>2024-04-17T12:43:43Z</time>
      </trkpt>
      <trkpt lat="43.26503" lon="0.1128">
        <ele>329</ele>
        <time>2024-04-17T12:43:44Z</time>
      </trkpt>
      <trkpt lat="43.26506" lon="0.11283">
        <ele>328.2</ele>
        <time>2024-04-17T12:43:45Z</time>
      </trkpt>
      <trkpt lat="43.2651" lon="0.11286">
        <ele>328</ele>
        <time>2024-04-17T12:43:46Z</time>
      </trkpt>
      <trkpt lat="43.26514" lon="0.11288">
        <ele>327.4</ele>
        <time>2024-04-17T12:43:47Z</time>
      </trkpt>
      <trkpt lat="43.26517" lon="0.11289">
        <ele>327</ele>
        <time>2024-04-17T12:43:48Z</time>
      </trkpt>
      <trkpt lat="43.26521" lon="0.11292">
        <ele>326.6</ele>
        <time>2024-04-17T12:43:49Z</time>
      </trkpt>
      <trkpt lat="43.26524" lon="0.11296">
        <ele>325.8</ele>
        <time>2024-04-17T12:43:50Z</time>
      </trkpt>
      <trkpt lat="43.26526" lon="0.11297">
        <ele>325.4</ele>
        <time>2024-04-17T12:43:51Z</time>
      </trkpt>
      <trkpt lat="43.26528" lon="0.11296">
        <ele>325</ele>
        <time>2024-04-17T12:43:52Z</time>
      </trkpt>
      <trkpt lat="43.2653" lon="0.11296">
        <ele>324.6</ele>
        <time>2024-04-17T12:43:53Z</time>
      </trkpt>
      <trkpt lat="43.26531" lon="0.11296">
        <ele>324.4</ele>
        <time>2024-04-17T12:43:54Z</time>
      </trkpt>
      <trkpt lat="43.26535" lon="0.11296">
        <ele>324.2</ele>
        <time>2024-04-17T12:43:55Z</time>
      </trkpt>
      <trkpt lat="43.26538" lon="0.11294">
        <ele>324.2</ele>
        <time>2024-04-17T12:43:56Z</time>
      </trkpt>
      <trkpt lat="43.26541" lon="0.11294">
        <ele>324.2</ele>
        <time>2024-04-17T12:43:57Z</time>
      </trkpt>
      <trkpt lat="43.26543" lon="0.11291">
        <ele>324.2</ele>
        <time>2024-04-17T12:43:58Z</time>
      </trkpt>
      <trkpt lat="43.26545" lon="0.11288">
        <ele>324.2</ele>
        <time>2024-04-17T12:43:59Z</time>
      </trkpt>
      <trkpt lat="43.26547" lon="0.11284">
        <ele>324.2</ele>
        <time>2024-04-17T12:44:00Z</time>
      </trkpt>
      <trkpt lat="43.26549" lon="0.11282">
        <ele>324.2</ele>
        <time>2024-04-17T12:44:01Z</time>
      </trkpt>
      <trkpt lat="43.26551" lon="0.11281">
        <ele>324.2</ele>
        <time>2024-04-17T12:44:02Z</time>
      </trkpt>
      <trkpt lat="43.26552" lon="0.11282">
        <ele>324.4</ele>
        <time>2024-04-17T12:44:03Z</time>
      </trkpt>
      <trkpt lat="43.26554" lon="0.11281">
        <ele>324.4</ele>
        <time>2024-04-17T12:44:04Z</time>
      </trkpt>
      <trkpt lat="43.26557" lon="0.11281">
        <ele>324.4</ele>
        <time>2024-04-17T12:44:05Z</time>
      </trkpt>
      <trkpt lat="43.26559" lon="0.11281">
        <ele>324.4</ele>
        <time>2024-04-17T12:44:06Z</time>
      </trkpt>
      <trkpt lat="43.26561" lon="0.11281">
        <ele>324.6</ele>
        <time>2024-04-17T12:44:07Z</time>
      </trkpt>
      <trkpt lat="43.26562" lon="0.11282">
        <ele>324.6</ele>
        <time>2024-04-17T12:44:08Z</time>
      </trkpt>
      <trkpt lat="43.26564" lon="0.11284">
        <ele>324.8</ele>
        <time>2024-04-17T12:44:09Z</time>
      </trkpt>
      <trkpt lat="43.26565" lon="0.11285">
        <ele>324.8</ele>
        <time>2024-04-17T12:44:10Z</time>
      </trkpt>
      <trkpt lat="43.26566" lon="0.11286">
        <ele>324.8</ele>
        <time>2024-04-17T12:44:11Z</time>
      </trkpt>
      <trkpt lat="43.26567" lon="0.11287">
        <ele>325.2</ele>
        <time>2024-04-17T12:44:12Z</time>
      </trkpt>
      <trkpt lat="43.26568" lon="0.11287">
        <ele>325.2</ele>
        <time>2024-04-17T12:44:13Z</time>
      </trkpt>
      <trkpt lat="43.26568" lon="0.11287">
        <ele>325.4</ele>
        <time>2024-04-17T12:44:14Z</time>
      </trkpt>
      <trkpt lat="43.2657" lon="0.11287">
        <ele>325.4</ele>
        <time>2024-04-17T12:44:15Z</time>
      </trkpt>
      <trkpt lat="43.26572" lon="0.11287">
        <ele>325.8</ele>
        <time>2024-04-17T12:44:16Z</time>
      </trkpt>
      <trkpt lat="43.26574" lon="0.11287">
        <ele>326</ele>
        <time>2024-04-17T12:44:17Z</time>
      </trkpt>
      <trkpt lat="43.26575" lon="0.11287">
        <ele>326.2</ele>
        <time>2024-04-17T12:44:18Z</time>
      </trkpt>
      <trkpt lat="43.26576" lon="0.11285">
        <ele>326.2</ele>
        <time>2024-04-17T12:44:19Z</time>
      </trkpt>
      <trkpt lat="43.26578" lon="0.11284">
        <ele>326.2</ele>
        <time>2024-04-17T12:44:20Z</time>
      </trkpt>
      <trkpt lat="43.26579" lon="0.11282">
        <ele>326.2</ele>
        <time>2024-04-17T12:44:21Z</time>
      </trkpt>
      <trkpt lat="43.2658" lon="0.11279">
        <ele>326.2</ele>
        <time>2024-04-17T12:44:22Z</time>
      </trkpt>
      <trkpt lat="43.26581" lon="0.11277">
        <ele>326.2</ele>
        <time>2024-04-17T12:44:23Z</time>
      </trkpt>
      <trkpt lat="43.26583" lon="0.11275">
        <ele>326</ele>
        <time>2024-04-17T12:44:24Z</time>
      </trkpt>
      <trkpt lat="43.26584" lon="0.11274">
        <ele>325.8</ele>
        <time>2024-04-17T12:44:25Z</time>
      </trkpt>
      <trkpt lat="43.26586" lon="0.11274">
        <ele>325.2</ele>
        <time>2024-04-17T12:44:26Z</time>
      </trkpt>
      <trkpt lat="43.26589" lon="0.11274">
        <ele>325</ele>
        <time>2024-04-17T12:44:27Z</time>
      </trkpt>
      <trkpt lat="43.26592" lon="0.11274">
        <ele>324.6</ele>
        <time>2024-04-17T12:44:28Z</time>
      </trkpt>
      <trkpt lat="43.26594" lon="0.11274">
        <ele>324.2</ele>
        <time>2024-04-17T12:44:29Z</time>
      </trkpt>
      <trkpt lat="43.26597" lon="0.11275">
        <ele>324.2</ele>
        <time>2024-04-17T12:44:30Z</time>
      </trkpt>
      <trkpt lat="43.26599" lon="0.11275">
        <ele>324</ele>
        <time>2024-04-17T12:44:31Z</time>
      </trkpt>
      <trkpt lat="43.26602" lon="0.11275">
        <ele>323.8</ele>
        <time>2024-04-17T12:44:32Z</time>
      </trkpt>
      <trkpt lat="43.26606" lon="0.11275">
        <ele>323.8</ele>
        <time>2024-04-17T12:44:33Z</time>
      </trkpt>
      <trkpt lat="43.26609" lon="0.11275">
        <ele>323.6</ele>
        <time>2024-04-17T12:44:34Z</time>
      </trkpt>
      <trkpt lat="43.26612" lon="0.11274">
        <ele>323.6</ele>
        <time>2024-04-17T12:44:35Z</time>
      </trkpt>
      <trkpt lat="43.26615" lon="0.11274">
        <ele>323.4</ele>
        <time>2024-04-17T12:44:36Z</time>
      </trkpt>
      <trkpt lat="43.26618" lon="0.11274">
        <ele>323.4</ele>
        <time>2024-04-17T12:44:37Z</time>
      </trkpt>
      <trkpt lat="43.26621" lon="0.11273">
        <ele>323.2</ele>
        <time>2024-04-17T12:44:38Z</time>
      </trkpt>
      <trkpt lat="43.26627" lon="0.11274">
        <ele>323</ele>
        <time>2024-04-17T12:44:39Z</time>
      </trkpt>
      <trkpt lat="43.26632" lon="0.11275">
        <ele>322.8</ele>
        <time>2024-04-17T12:44:40Z</time>
      </trkpt>
      <trkpt lat="43.26634" lon="0.11276">
        <ele>322.8</ele>
        <time>2024-04-17T12:44:41Z</time>
      </trkpt>
      <trkpt lat="43.26637" lon="0.11278">
        <ele>322.4</ele>
        <time>2024-04-17T12:44:42Z</time>
      </trkpt>
      <trkpt lat="43.2664" lon="0.11279">
        <ele>322.4</ele>
        <time>2024-04-17T12:44:43Z</time>
      </trkpt>
      <trkpt lat="43.26643" lon="0.1128">
        <ele>322</ele>
        <time>2024-04-17T12:44:44Z</time>
      </trkpt>
      <trkpt lat="43.26647" lon="0.11283">
        <ele>321.8</ele>
        <time>2024-04-17T12:44:45Z</time>
      </trkpt>
      <trkpt lat="43.26649" lon="0.11284">
        <ele>321.6</ele>
        <time>2024-04-17T12:44:46Z</time>
      </trkpt>
      <trkpt lat="43.2665" lon="0.11284">
        <ele>321.4</ele>
        <time>2024-04-17T12:44:47Z</time>
      </trkpt>
      <trkpt lat="43.26652" lon="0.11286">
        <ele>321.2</ele>
        <time>2024-04-17T12:44:48Z</time>
      </trkpt>
      <trkpt lat="43.26653" lon="0.11287">
        <ele>321.2</ele>
        <time>2024-04-17T12:44:49Z</time>
      </trkpt>
      <trkpt lat="43.26654" lon="0.11288">
        <ele>321.2</ele>
        <time>2024-04-17T12:44:50Z</time>
      </trkpt>
      <trkpt lat="43.26655" lon="0.1129">
        <ele>321.2</ele>
        <time>2024-04-17T12:44:51Z</time>
      </trkpt>
      <trkpt lat="43.26658" lon="0.11293">
        <ele>321.2</ele>
        <time>2024-04-17T12:44:52Z</time>
      </trkpt>
      <trkpt lat="43.2666" lon="0.11294">
        <ele>321.2</ele>
        <time>2024-04-17T12:44:53Z</time>
      </trkpt>
      <trkpt lat="43.2666" lon="0.11295">
        <ele>321.2</ele>
        <time>2024-04-17T12:44:54Z</time>
      </trkpt>
      <trkpt lat="43.2666" lon="0.11295">
        <ele>321.2</ele>
        <time>2024-04-17T12:44:55Z</time>
      </trkpt>
      <trkpt lat="43.2666" lon="0.11295">
        <ele>321.4</ele>
        <time>2024-04-17T12:44:56Z</time>
      </trkpt>
      <trkpt lat="43.2666" lon="0.11295">
        <ele>321.6</ele>
        <time>2024-04-17T12:44:57Z</time>
      </trkpt>
      <trkpt lat="43.2666" lon="0.11295">
        <ele>321.6</ele>
        <time>2024-04-17T12:44:58Z</time>
      </trkpt>
      <trkpt lat="43.2666" lon="0.11295">
        <ele>321.6</ele>
        <time>2024-04-17T12:44:59Z</time>
      </trkpt>
      <trkpt lat="43.2666" lon="0.11295">
        <ele>321.8</ele>
        <time>2024-04-17T12:45:00Z</time>
      </trkpt>
      <trkpt lat="43.26661" lon="0.11295">
        <ele>322</ele>
        <time>2024-04-17T12:45:01Z</time>
      </trkpt>
      <trkpt lat="43.26661" lon="0.11295">
        <ele>322</ele>
        <time>2024-04-17T12:45:02Z</time>
      </trkpt>
      <trkpt lat="43.26661" lon="0.11295">
        <ele>322</ele>
        <time>2024-04-17T12:45:03Z</time>
      </trkpt>
      <trkpt lat="43.26661" lon="0.11295">
        <ele>322</ele>
        <time>2024-04-17T12:45:04Z</time>
      </trkpt>
      <trkpt lat="43.26661" lon="0.11295">
        <ele>322.2</ele>
        <time>2024-04-17T12:45:05Z</time>
      </trkpt>
      <trkpt lat="43.26661" lon="0.11295">
        <ele>322.2</ele>
        <time>2024-04-17T12:45:06Z</time>
      </trkpt>
      <trkpt lat="43.26661" lon="0.11295">
        <ele>322.4</ele>
        <time>2024-04-17T12:45:07Z</time>
      </trkpt>
      <trkpt lat="43.26661" lon="0.11295">
        <ele>322.4</ele>
        <time>2024-04-17T12:45:08Z</time>
      </trkpt>
      <trkpt lat="43.26661" lon="0.11295">
        <ele>322.6</ele>
        <time>2024-04-17T12:45:09Z</time>
      </trkpt>
      <trkpt lat="43.26661" lon="0.11295">
        <ele>322.6</ele>
        <time>2024-04-17T12:45:10Z</time>
      </trkpt>
      <trkpt lat="43.26663" lon="0.11296">
        <ele>322.6</ele>
        <time>2024-04-17T12:45:11Z</time>
      </trkpt>
      <trkpt lat="43.26664" lon="0.11296">
        <ele>322.6</ele>
        <time>2024-04-17T12:45:12Z</time>
      </trkpt>
      <trkpt lat="43.26666" lon="0.11298">
        <ele>322.8</ele>
        <time>2024-04-17T12:45:13Z</time>
      </trkpt>
      <trkpt lat="43.26667" lon="0.113">
        <ele>322.8</ele>
        <time>2024-04-17T12:45:14Z</time>
      </trkpt>
      <trkpt lat="43.26668" lon="0.11301">
        <ele>322.8</ele>
        <time>2024-04-17T12:45:15Z</time>
      </trkpt>
      <trkpt lat="43.26669" lon="0.11303">
        <ele>322.8</ele>
        <time>2024-04-17T12:45:16Z</time>
      </trkpt>
      <trkpt lat="43.2667" lon="0.11305">
        <ele>323</ele>
        <time>2024-04-17T12:45:17Z</time>
      </trkpt>
      <trkpt lat="43.2667" lon="0.11306">
        <ele>323</ele>
        <time>2024-04-17T12:45:18Z</time>
      </trkpt>
      <trkpt lat="43.26671" lon="0.11307">
        <ele>323.2</ele>
        <time>2024-04-17T12:45:19Z</time>
      </trkpt>
      <trkpt lat="43.26671" lon="0.11308">
        <ele>323.4</ele>
        <time>2024-04-17T12:45:20Z</time>
      </trkpt>
      <trkpt lat="43.26672" lon="0.11308">
        <ele>323.8</ele>
        <time>2024-04-17T12:45:21Z</time>
      </trkpt>
      <trkpt lat="43.26673" lon="0.11309">
        <ele>324</ele>
        <time>2024-04-17T12:45:22Z</time>
      </trkpt>
      <trkpt lat="43.26675" lon="0.11312">
        <ele>324.2</ele>
        <time>2024-04-17T12:45:23Z</time>
      </trkpt>
      <trkpt lat="43.26676" lon="0.11313">
        <ele>324.2</ele>
        <time>2024-04-17T12:45:24Z</time>
      </trkpt>
      <trkpt lat="43.26678" lon="0.11313">
        <ele>324.2</ele>
        <time>2024-04-17T12:45:25Z</time>
      </trkpt>
      <trkpt lat="43.26679" lon="0.11314">
        <ele>324.4</ele>
        <time>2024-04-17T12:45:26Z</time>
      </trkpt>
      <trkpt lat="43.26682" lon="0.11316">
        <ele>324.4</ele>
        <time>2024-04-17T12:45:27Z</time>
      </trkpt>
      <trkpt lat="43.26684" lon="0.11317">
        <ele>324.4</ele>
        <time>2024-04-17T12:45:28Z</time>
      </trkpt>
      <trkpt lat="43.26684" lon="0.11318">
        <ele>324.4</ele>
        <time>2024-04-17T12:45:29Z</time>
      </trkpt>
      <trkpt lat="43.26684" lon="0.11318">
        <ele>324.4</ele>
        <time>2024-04-17T12:45:30Z</time>
      </trkpt>
      <trkpt lat="43.26686" lon="0.11318">
        <ele>324.4</ele>
        <time>2024-04-17T12:45:31Z</time>
      </trkpt>
      <trkpt lat="43.26688" lon="0.1132">
        <ele>324.4</ele>
        <time>2024-04-17T12:45:32Z</time>
      </trkpt>
      <trkpt lat="43.2669" lon="0.11321">
        <ele>324.2</ele>
        <time>2024-04-17T12:45:33Z</time>
      </trkpt>
      <trkpt lat="43.2669" lon="0.11321">
        <ele>324.2</ele>
        <time>2024-04-17T12:45:34Z</time>
      </trkpt>
      <trkpt lat="43.2669" lon="0.11321">
        <ele>324.2</ele>
        <time>2024-04-17T12:45:35Z</time>
      </trkpt>
      <trkpt lat="43.2669" lon="0.11321">
        <ele>324</ele>
        <time>2024-04-17T12:45:36Z</time>
      </trkpt>
      <trkpt lat="43.2669" lon="0.1132">
        <ele>324</ele>
        <time>2024-04-17T12:45:37Z</time>
      </trkpt>
      <trkpt lat="43.2669" lon="0.1132">
        <ele>324</ele>
        <time>2024-04-17T12:45:38Z</time>
      </trkpt>
      <trkpt lat="43.26693" lon="0.11321">
        <ele>324</ele>
        <time>2024-04-17T12:45:39Z</time>
      </trkpt>
      <trkpt lat="43.26695" lon="0.11322">
        <ele>323.8</ele>
        <time>2024-04-17T12:45:40Z</time>
      </trkpt>
      <trkpt lat="43.26695" lon="0.11322">
        <ele>323.8</ele>
        <time>2024-04-17T12:45:41Z</time>
      </trkpt>
      <trkpt lat="43.26696" lon="0.11322">
        <ele>323.6</ele>
        <time>2024-04-17T12:45:42Z</time>
      </trkpt>
      <trkpt lat="43.26697" lon="0.11323">
        <ele>323.4</ele>
        <time>2024-04-17T12:45:43Z</time>
      </trkpt>
      <trkpt lat="43.26699" lon="0.11324">
        <ele>323.2</ele>
        <time>2024-04-17T12:45:44Z</time>
      </trkpt>
      <trkpt lat="43.26701" lon="0.11325">
        <ele>323.2</ele>
        <time>2024-04-17T12:45:45Z</time>
      </trkpt>
      <trkpt lat="43.26702" lon="0.11325">
        <ele>323.2</ele>
        <time>2024-04-17T12:45:46Z</time>
      </trkpt>
      <trkpt lat="43.26703" lon="0.11326">
        <ele>323</ele>
        <time>2024-04-17T12:45:47Z</time>
      </trkpt>
      <trkpt lat="43.26703" lon="0.11326">
        <ele>323</ele>
        <time>2024-04-17T12:45:48Z</time>
      </trkpt>
      <trkpt lat="43.26703" lon="0.11327">
        <ele>323</ele>
        <time>2024-04-17T12:45:49Z</time>
      </trkpt>
      <trkpt lat="43.26703" lon="0.11327">
        <ele>323</ele>
        <time>2024-04-17T12:45:50Z</time>
      </trkpt>
      <trkpt lat="43.26703" lon="0.11327">
        <ele>323</ele>
        <time>2024-04-17T12:45:51Z</time>
      </trkpt>
      <trkpt lat="43.26704" lon="0.11328">
        <ele>323</ele>
        <time>2024-04-17T12:45:52Z</time>
      </trkpt>
      <trkpt lat="43.26705" lon="0.11328">
        <ele>323.2</ele>
        <time>2024-04-17T12:45:53Z</time>
      </trkpt>
      <trkpt lat="43.26706" lon="0.11328">
        <ele>323.2</ele>
        <time>2024-04-17T12:45:54Z</time>
      </trkpt>
      <trkpt lat="43.26707" lon="0.11329">
        <ele>323.2</ele>
        <time>2024-04-17T12:45:55Z</time>
      </trkpt>
      <trkpt lat="43.26709" lon="0.1133">
        <ele>323.2</ele>
        <time>2024-04-17T12:45:56Z</time>
      </trkpt>
      <trkpt lat="43.2671" lon="0.1133">
        <ele>323.4</ele>
        <time>2024-04-17T12:45:57Z</time>
      </trkpt>
      <trkpt lat="43.26711" lon="0.11331">
        <ele>323.4</ele>
        <time>2024-04-17T12:45:58Z</time>
      </trkpt>
      <trkpt lat="43.26713" lon="0.11332">
        <ele>323.4</ele>
        <time>2024-04-17T12:45:59Z</time>
      </trkpt>
      <trkpt lat="43.26715" lon="0.11333">
        <ele>323.6</ele>
        <time>2024-04-17T12:46:00Z</time>
      </trkpt>
      <trkpt lat="43.26717" lon="0.11334">
        <ele>323.6</ele>
        <time>2024-04-17T12:46:01Z</time>
      </trkpt>
      <trkpt lat="43.26719" lon="0.11335">
        <ele>323.8</ele>
        <time>2024-04-17T12:46:02Z</time>
      </trkpt>
      <trkpt lat="43.26721" lon="0.11336">
        <ele>323.8</ele>
        <time>2024-04-17T12:46:03Z</time>
      </trkpt>
      <trkpt lat="43.26722" lon="0.11337">
        <ele>324</ele>
        <time>2024-04-17T12:46:04Z</time>
      </trkpt>
      <trkpt lat="43.26724" lon="0.11337">
        <ele>324.2</ele>
        <time>2024-04-17T12:46:05Z</time>
      </trkpt>
      <trkpt lat="43.26724" lon="0.11338">
        <ele>324.4</ele>
        <time>2024-04-17T12:46:06Z</time>
      </trkpt>
      <trkpt lat="43.26725" lon="0.11339">
        <ele>324.6</ele>
        <time>2024-04-17T12:46:07Z</time>
      </trkpt>
      <trkpt lat="43.26726" lon="0.1134">
        <ele>324.6</ele>
        <time>2024-04-17T12:46:08Z</time>
      </trkpt>
      <trkpt lat="43.26727" lon="0.11341">
        <ele>325</ele>
        <time>2024-04-17T12:46:09Z</time>
      </trkpt>
      <trkpt lat="43.26728" lon="0.11341">
        <ele>325</ele>
        <time>2024-04-17T12:46:10Z</time>
      </trkpt>
      <trkpt lat="43.26731" lon="0.11341">
        <ele>325.2</ele>
        <time>2024-04-17T12:46:11Z</time>
      </trkpt>
      <trkpt lat="43.26733" lon="0.11341">
        <ele>325.2</ele>
        <time>2024-04-17T12:46:12Z</time>
      </trkpt>
      <trkpt lat="43.26735" lon="0.11341">
        <ele>325.4</ele>
        <time>2024-04-17T12:46:13Z</time>
      </trkpt>
      <trkpt lat="43.26739" lon="0.11342">
        <ele>325.4</ele>
        <time>2024-04-17T12:46:14Z</time>
      </trkpt>
      <trkpt lat="43.26742" lon="0.11342">
        <ele>325.6</ele>
        <time>2024-04-17T12:46:15Z</time>
      </trkpt>
      <trkpt lat="43.26744" lon="0.11342">
        <ele>325.6</ele>
        <time>2024-04-17T12:46:16Z</time>
      </trkpt>
      <trkpt lat="43.26746" lon="0.11343">
        <ele>325.6</ele>
        <time>2024-04-17T12:46:17Z</time>
      </trkpt>
      <trkpt lat="43.26746" lon="0.11345">
        <ele>325.6</ele>
        <time>2024-04-17T12:46:18Z</time>
      </trkpt>
      <trkpt lat="43.26748" lon="0.11344">
        <ele>325.6</ele>
        <time>2024-04-17T12:46:19Z</time>
      </trkpt>
      <trkpt lat="43.26748" lon="0.11345">
        <ele>325.6</ele>
        <time>2024-04-17T12:46:20Z</time>
      </trkpt>
      <trkpt lat="43.2675" lon="0.11346">
        <ele>325.6</ele>
        <time>2024-04-17T12:46:21Z</time>
      </trkpt>
      <trkpt lat="43.26753" lon="0.11347">
        <ele>325.6</ele>
        <time>2024-04-17T12:46:22Z</time>
      </trkpt>
      <trkpt lat="43.26754" lon="0.11348">
        <ele>325.6</ele>
        <time>2024-04-17T12:46:23Z</time>
      </trkpt>
      <trkpt lat="43.26755" lon="0.11349">
        <ele>325.6</ele>
        <time>2024-04-17T12:46:24Z</time>
      </trkpt>
      <trkpt lat="43.26757" lon="0.1135">
        <ele>325.6</ele>
        <time>2024-04-17T12:46:25Z</time>
      </trkpt>
      <trkpt lat="43.2676" lon="0.1135">
        <ele>325.6</ele>
        <time>2024-04-17T12:46:26Z</time>
      </trkpt>
      <trkpt lat="43.26762" lon="0.11351">
        <ele>325.6</ele>
        <time>2024-04-17T12:46:27Z</time>
      </trkpt>
      <trkpt lat="43.26765" lon="0.11352">
        <ele>325.6</ele>
        <time>2024-04-17T12:46:28Z</time>
      </trkpt>
      <trkpt lat="43.26768" lon="0.11353">
        <ele>325.6</ele>
        <time>2024-04-17T12:46:29Z</time>
      </trkpt>
      <trkpt lat="43.26771" lon="0.11354">
        <ele>325.6</ele>
        <time>2024-04-17T12:46:30Z</time>
      </trkpt>
      <trkpt lat="43.26773" lon="0.11355">
        <ele>325.6</ele>
        <time>2024-04-17T12:46:31Z</time>
      </trkpt>
      <trkpt lat="43.26775" lon="0.11356">
        <ele>325.6</ele>
        <time>2024-04-17T12:46:32Z</time>
      </trkpt>
      <trkpt lat="43.26776" lon="0.11357">
        <ele>325.4</ele>
        <time>2024-04-17T12:46:33Z</time>
      </trkpt>
      <trkpt lat="43.26777" lon="0.11358">
        <ele>325.2</ele>
        <time>2024-04-17T12:46:34Z</time>
      </trkpt>
      <trkpt lat="43.26778" lon="0.11358">
        <ele>325.2</ele>
        <time>2024-04-17T12:46:35Z</time>
      </trkpt>
      <trkpt lat="43.26778" lon="0.11358">
        <ele>325</ele>
        <time>2024-04-17T12:46:36Z</time>
      </trkpt>
      <trkpt lat="43.26778" lon="0.11358">
        <ele>324.8</ele>
        <time>2024-04-17T12:46:37Z</time>
      </trkpt>
      <trkpt lat="43.26778" lon="0.11358">
        <ele>324.6</ele>
        <time>2024-04-17T12:46:38Z</time>
      </trkpt>
      <trkpt lat="43.26778" lon="0.11358">
        <ele>324.6</ele>
        <time>2024-04-17T12:46:39Z</time>
      </trkpt>
      <trkpt lat="43.26778" lon="0.11358">
        <ele>324.4</ele>
        <time>2024-04-17T12:46:40Z</time>
      </trkpt>
      <trkpt lat="43.26778" lon="0.11358">
        <ele>324.4</ele>
        <time>2024-04-17T12:46:41Z</time>
      </trkpt>
      <trkpt lat="43.26778" lon="0.11357">
        <ele>324.4</ele>
        <time>2024-04-17T12:46:42Z</time>
      </trkpt>
      <trkpt lat="43.26779" lon="0.11358">
        <ele>324.4</ele>
        <time>2024-04-17T12:46:43Z</time>
      </trkpt>
      <trkpt lat="43.26779" lon="0.11358">
        <ele>324.2</ele>
        <time>2024-04-17T12:46:44Z</time>
      </trkpt>
      <trkpt lat="43.2678" lon="0.11358">
        <ele>324.2</ele>
        <time>2024-04-17T12:46:45Z</time>
      </trkpt>
      <trkpt lat="43.26782" lon="0.11359">
        <ele>324.4</ele>
        <time>2024-04-17T12:46:46Z</time>
      </trkpt>
      <trkpt lat="43.26782" lon="0.11359">
        <ele>324.2</ele>
        <time>2024-04-17T12:46:47Z</time>
      </trkpt>
      <trkpt lat="43.26782" lon="0.11359">
        <ele>324.2</ele>
        <time>2024-04-17T12:46:48Z</time>
      </trkpt>
      <trkpt lat="43.26782" lon="0.11359">
        <ele>324.2</ele>
        <time>2024-04-17T12:46:49Z</time>
      </trkpt>
      <trkpt lat="43.26782" lon="0.11359">
        <ele>324</ele>
        <time>2024-04-17T12:46:50Z</time>
      </trkpt>
      <trkpt lat="43.26782" lon="0.11359">
        <ele>324</ele>
        <time>2024-04-17T12:46:51Z</time>
      </trkpt>
      <trkpt lat="43.26782" lon="0.11359">
        <ele>324</ele>
        <time>2024-04-17T12:46:52Z</time>
      </trkpt>
      <trkpt lat="43.26782" lon="0.11359">
        <ele>324</ele>
        <time>2024-04-17T12:46:53Z</time>
      </trkpt>
      <trkpt lat="43.26782" lon="0.11359">
        <ele>323.8</ele>
        <time>2024-04-17T12:46:54Z</time>
      </trkpt>
      <trkpt lat="43.26782" lon="0.11359">
        <ele>323.8</ele>
        <time>2024-04-17T12:46:55Z</time>
      </trkpt>
      <trkpt lat="43.26783" lon="0.1136">
        <ele>323.8</ele>
        <time>2024-04-17T12:46:56Z</time>
      </trkpt>
      <trkpt lat="43.26785" lon="0.11361">
        <ele>323.6</ele>
        <time>2024-04-17T12:46:57Z</time>
      </trkpt>
      <trkpt lat="43.26787" lon="0.11362">
        <ele>323.6</ele>
        <time>2024-04-17T12:46:58Z</time>
      </trkpt>
      <trkpt lat="43.26789" lon="0.11363">
        <ele>323.6</ele>
        <time>2024-04-17T12:46:59Z</time>
      </trkpt>
      <trkpt lat="43.26791" lon="0.11364">
        <ele>323.6</ele>
        <time>2024-04-17T12:47:00Z</time>
      </trkpt>
      <trkpt lat="43.26792" lon="0.11365">
        <ele>323.4</ele>
        <time>2024-04-17T12:47:01Z</time>
      </trkpt>
      <trkpt lat="43.26794" lon="0.11366">
        <ele>323.4</ele>
        <time>2024-04-17T12:47:02Z</time>
      </trkpt>
      <trkpt lat="43.26796" lon="0.11367">
        <ele>323.4</ele>
        <time>2024-04-17T12:47:03Z</time>
      </trkpt>
      <trkpt lat="43.26798" lon="0.11368">
        <ele>323.2</ele>
        <time>2024-04-17T12:47:04Z</time>
      </trkpt>
      <trkpt lat="43.26801" lon="0.11369">
        <ele>323.2</ele>
        <time>2024-04-17T12:47:05Z</time>
      </trkpt>
      <trkpt lat="43.26803" lon="0.1137">
        <ele>322.8</ele>
        <time>2024-04-17T12:47:06Z</time>
      </trkpt>
      <trkpt lat="43.26804" lon="0.11372">
        <ele>322.6</ele>
        <time>2024-04-17T12:47:07Z</time>
      </trkpt>
      <trkpt lat="43.26808" lon="0.11374">
        <ele>322</ele>
        <time>2024-04-17T12:47:08Z</time>
      </trkpt>
      <trkpt lat="43.26811" lon="0.11376">
        <ele>321.6</ele>
        <time>2024-04-17T12:47:09Z</time>
      </trkpt>
      <trkpt lat="43.26814" lon="0.11378">
        <ele>321.2</ele>
        <time>2024-04-17T12:47:10Z</time>
      </trkpt>
      <trkpt lat="43.26817" lon="0.11379">
        <ele>321</ele>
        <time>2024-04-17T12:47:11Z</time>
      </trkpt>
      <trkpt lat="43.2682" lon="0.11381">
        <ele>320.8</ele>
        <time>2024-04-17T12:47:12Z</time>
      </trkpt>
      <trkpt lat="43.26823" lon="0.11383">
        <ele>320.4</ele>
        <time>2024-04-17T12:47:13Z</time>
      </trkpt>
      <trkpt lat="43.26826" lon="0.11385">
        <ele>320.2</ele>
        <time>2024-04-17T12:47:14Z</time>
      </trkpt>
      <trkpt lat="43.26828" lon="0.11387">
        <ele>319.8</ele>
        <time>2024-04-17T12:47:15Z</time>
      </trkpt>
      <trkpt lat="43.26828" lon="0.11387">
        <ele>319.6</ele>
        <time>2024-04-17T12:47:16Z</time>
      </trkpt>
      <trkpt lat="43.26829" lon="0.11387">
        <ele>319.2</ele>
        <time>2024-04-17T12:47:17Z</time>
      </trkpt>
      <trkpt lat="43.2683" lon="0.11388">
        <ele>319</ele>
        <time>2024-04-17T12:47:18Z</time>
      </trkpt>
      <trkpt lat="43.26831" lon="0.11389">
        <ele>319</ele>
        <time>2024-04-17T12:47:19Z</time>
      </trkpt>
      <trkpt lat="43.26832" lon="0.1139">
        <ele>319</ele>
        <time>2024-04-17T12:47:20Z</time>
      </trkpt>
      <trkpt lat="43.26832" lon="0.11391">
        <ele>319</ele>
        <time>2024-04-17T12:47:21Z</time>
      </trkpt>
      <trkpt lat="43.26832" lon="0.11391">
        <ele>319</ele>
        <time>2024-04-17T12:47:22Z</time>
      </trkpt>
      <trkpt lat="43.26832" lon="0.11391">
        <ele>319</ele>
        <time>2024-04-17T12:47:23Z</time>
      </trkpt>
      <trkpt lat="43.26832" lon="0.11391">
        <ele>319.2</ele>
        <time>2024-04-17T12:47:24Z</time>
      </trkpt>
      <trkpt lat="43.26832" lon="0.11392">
        <ele>319.2</ele>
        <time>2024-04-17T12:47:25Z</time>
      </trkpt>
      <trkpt lat="43.26833" lon="0.11392">
        <ele>319.2</ele>
        <time>2024-04-17T12:47:26Z</time>
      </trkpt>
      <trkpt lat="43.26833" lon="0.11392">
        <ele>319.4</ele>
        <time>2024-04-17T12:47:27Z</time>
      </trkpt>
      <trkpt lat="43.26833" lon="0.11392">
        <ele>319.6</ele>
        <time>2024-04-17T12:47:28Z</time>
      </trkpt>
      <trkpt lat="43.26833" lon="0.11392">
        <ele>320</ele>
        <time>2024-04-17T12:47:29Z</time>
      </trkpt>
      <trkpt lat="43.26833" lon="0.11393">
        <ele>320</ele>
        <time>2024-04-17T12:47:30Z</time>
      </trkpt>
      <trkpt lat="43.26833" lon="0.11393">
        <ele>320.2</ele>
        <time>2024-04-17T12:47:31Z</time>
      </trkpt>
      <trkpt lat="43.26833" lon="0.11393">
        <ele>320.2</ele>
        <time>2024-04-17T12:47:32Z</time>
      </trkpt>
      <trkpt lat="43.26832" lon="0.11393">
        <ele>320.4</ele>
        <time>2024-04-17T12:47:33Z</time>
      </trkpt>
      <trkpt lat="43.26832" lon="0.11393">
        <ele>320.4</ele>
        <time>2024-04-17T12:47:34Z</time>
      </trkpt>
      <trkpt lat="43.26832" lon="0.11393">
        <ele>320.4</ele>
        <time>2024-04-17T12:47:35Z</time>
      </trkpt>
      <trkpt lat="43.26832" lon="0.11393">
        <ele>320.4</ele>
        <time>2024-04-17T12:47:36Z</time>
      </trkpt>
      <trkpt lat="43.26832" lon="0.11393">
        <ele>320.6</ele>
        <time>2024-04-17T12:47:37Z</time>
      </trkpt>
      <trkpt lat="43.26832" lon="0.11393">
        <ele>320.8</ele>
        <time>2024-04-17T12:47:38Z</time>
      </trkpt>
      <trkpt lat="43.26832" lon="0.11393">
        <ele>320.8</ele>
        <time>2024-04-17T12:47:39Z</time>
      </trkpt>
      <trkpt lat="43.26832" lon="0.11393">
        <ele>321</ele>
        <time>2024-04-17T12:47:40Z</time>
      </trkpt>
      <trkpt lat="43.26832" lon="0.11393">
        <ele>321.2</ele>
        <time>2024-04-17T12:47:41Z</time>
      </trkpt>
      <trkpt lat="43.26833" lon="0.11394">
        <ele>321.4</ele>
        <time>2024-04-17T12:47:42Z</time>
      </trkpt>
      <trkpt lat="43.26834" lon="0.11396">
        <ele>321.4</ele>
        <time>2024-04-17T12:47:43Z</time>
      </trkpt>
      <trkpt lat="43.26834" lon="0.11398">
        <ele>321.6</ele>
        <time>2024-04-17T12:47:44Z</time>
      </trkpt>
      <trkpt lat="43.26835" lon="0.114">
        <ele>321.8</ele>
        <time>2024-04-17T12:47:45Z</time>
      </trkpt>
      <trkpt lat="43.26836" lon="0.11402">
        <ele>322</ele>
        <time>2024-04-17T12:47:46Z</time>
      </trkpt>
      <trkpt lat="43.26836" lon="0.11404">
        <ele>322.2</ele>
        <time>2024-04-17T12:47:47Z</time>
      </trkpt>
      <trkpt lat="43.26837" lon="0.11404">
        <ele>322.2</ele>
        <time>2024-04-17T12:47:48Z</time>
      </trkpt>
      <trkpt lat="43.26837" lon="0.11405">
        <ele>322.4</ele>
        <time>2024-04-17T12:47:49Z</time>
      </trkpt>
      <trkpt lat="43.26837" lon="0.11406">
        <ele>322.6</ele>
        <time>2024-04-17T12:47:50Z</time>
      </trkpt>
      <trkpt lat="43.26837" lon="0.11406">
        <ele>322.8</ele>
        <time>2024-04-17T12:47:51Z</time>
      </trkpt>
      <trkpt lat="43.26837" lon="0.11406">
        <ele>323</ele>
        <time>2024-04-17T12:47:52Z</time>
      </trkpt>
      <trkpt lat="43.26837" lon="0.11406">
        <ele>323.2</ele>
        <time>2024-04-17T12:47:53Z</time>
      </trkpt>
      <trkpt lat="43.26837" lon="0.11406">
        <ele>323.4</ele>
        <time>2024-04-17T12:47:54Z</time>
      </trkpt>
      <trkpt lat="43.26837" lon="0.11406">
        <ele>323.6</ele>
        <time>2024-04-17T12:47:55Z</time>
      </trkpt>
      <trkpt lat="43.26837" lon="0.11406">
        <ele>323.8</ele>
        <time>2024-04-17T12:47:56Z</time>
      </trkpt>
      <trkpt lat="43.26839" lon="0.11408">
        <ele>323.8</ele>
        <time>2024-04-17T12:47:57Z</time>
      </trkpt>
      <trkpt lat="43.2684" lon="0.11409">
        <ele>324</ele>
        <time>2024-04-17T12:47:58Z</time>
      </trkpt>
      <trkpt lat="43.26841" lon="0.11409">
        <ele>324</ele>
        <time>2024-04-17T12:47:59Z</time>
      </trkpt>
      <trkpt lat="43.26841" lon="0.11409">
        <ele>324.2</ele>
        <time>2024-04-17T12:48:00Z</time>
      </trkpt>
      <trkpt lat="43.26841" lon="0.11409">
        <ele>324.2</ele>
        <time>2024-04-17T12:48:01Z</time>
      </trkpt>
      <trkpt lat="43.26841" lon="0.11409">
        <ele>324.4</ele>
        <time>2024-04-17T12:48:02Z</time>
      </trkpt>
      <trkpt lat="43.26843" lon="0.11409">
        <ele>324.4</ele>
        <time>2024-04-17T12:48:03Z</time>
      </trkpt>
      <trkpt lat="43.26846" lon="0.11408">
        <ele>324.4</ele>
        <time>2024-04-17T12:48:04Z</time>
      </trkpt>
      <trkpt lat="43.26849" lon="0.11408">
        <ele>324.4</ele>
        <time>2024-04-17T12:48:05Z</time>
      </trkpt>
      <trkpt lat="43.26853" lon="0.1141">
        <ele>324.4</ele>
        <time>2024-04-17T12:48:06Z</time>
      </trkpt>
      <trkpt lat="43.26857" lon="0.11411">
        <ele>324.2</ele>
        <time>2024-04-17T12:48:07Z</time>
      </trkpt>
      <trkpt lat="43.26861" lon="0.11412">
        <ele>324.2</ele>
        <time>2024-04-17T12:48:08Z</time>
      </trkpt>
      <trkpt lat="43.26865" lon="0.11414">
        <ele>324.2</ele>
        <time>2024-04-17T12:48:09Z</time>
      </trkpt>
      <trkpt lat="43.26869" lon="0.11416">
        <ele>324</ele>
        <time>2024-04-17T12:48:10Z</time>
      </trkpt>
      <trkpt lat="43.26873" lon="0.11417">
        <ele>323.6</ele>
        <time>2024-04-17T12:48:11Z</time>
      </trkpt>
      <trkpt lat="43.26877" lon="0.11418">
        <ele>323.2</ele>
        <time>2024-04-17T12:48:12Z</time>
      </trkpt>
      <trkpt lat="43.26881" lon="0.1142">
        <ele>323.2</ele>
        <time>2024-04-17T12:48:13Z</time>
      </trkpt>
      <trkpt lat="43.26885" lon="0.11422">
        <ele>322.8</ele>
        <time>2024-04-17T12:48:14Z</time>
      </trkpt>
      <trkpt lat="43.26889" lon="0.11424">
        <ele>322.8</ele>
        <time>2024-04-17T12:48:15Z</time>
      </trkpt>
      <trkpt lat="43.26893" lon="0.11425">
        <ele>322.6</ele>
        <time>2024-04-17T12:48:16Z</time>
      </trkpt>
      <trkpt lat="43.26898" lon="0.11426">
        <ele>322.6</ele>
        <time>2024-04-17T12:48:17Z</time>
      </trkpt>
      <trkpt lat="43.26903" lon="0.11427">
        <ele>322.2</ele>
        <time>2024-04-17T12:48:18Z</time>
      </trkpt>
      <trkpt lat="43.26909" lon="0.11429">
        <ele>321.8</ele>
        <time>2024-04-17T12:48:19Z</time>
      </trkpt>
      <trkpt lat="43.26915" lon="0.1143">
        <ele>321.2</ele>
        <time>2024-04-17T12:48:20Z</time>
      </trkpt>
      <trkpt lat="43.2692" lon="0.11432">
        <ele>320.8</ele>
        <time>2024-04-17T12:48:21Z</time>
      </trkpt>
      <trkpt lat="43.26924" lon="0.11434">
        <ele>320.4</ele>
        <time>2024-04-17T12:48:22Z</time>
      </trkpt>
      <trkpt lat="43.26929" lon="0.11435">
        <ele>320</ele>
        <time>2024-04-17T12:48:23Z</time>
      </trkpt>
      <trkpt lat="43.26934" lon="0.11437">
        <ele>319.8</ele>
        <time>2024-04-17T12:48:24Z</time>
      </trkpt>
      <trkpt lat="43.2694" lon="0.11439">
        <ele>319.4</ele>
        <time>2024-04-17T12:48:25Z</time>
      </trkpt>
      <trkpt lat="43.26945" lon="0.11441">
        <ele>319.2</ele>
        <time>2024-04-17T12:48:26Z</time>
      </trkpt>
      <trkpt lat="43.26951" lon="0.11443">
        <ele>319</ele>
        <time>2024-04-17T12:48:27Z</time>
      </trkpt>
      <trkpt lat="43.26957" lon="0.11444">
        <ele>318.8</ele>
        <time>2024-04-17T12:48:28Z</time>
      </trkpt>
      <trkpt lat="43.26962" lon="0.11447">
        <ele>318.6</ele>
        <time>2024-04-17T12:48:29Z</time>
      </trkpt>
      <trkpt lat="43.26969" lon="0.11449">
        <ele>317.8</ele>
        <time>2024-04-17T12:48:30Z</time>
      </trkpt>
      <trkpt lat="43.26975" lon="0.11449">
        <ele>317.4</ele>
        <time>2024-04-17T12:48:31Z</time>
      </trkpt>
      <trkpt lat="43.26982" lon="0.1145">
        <ele>317</ele>
        <time>2024-04-17T12:48:32Z</time>
      </trkpt>
      <trkpt lat="43.26988" lon="0.11453">
        <ele>317</ele>
        <time>2024-04-17T12:48:33Z</time>
      </trkpt>
      <trkpt lat="43.26995" lon="0.11455">
        <ele>316.6</ele>
        <time>2024-04-17T12:48:34Z</time>
      </trkpt>
      <trkpt lat="43.27" lon="0.11457">
        <ele>316.4</ele>
        <time>2024-04-17T12:48:35Z</time>
      </trkpt>
      <trkpt lat="43.27004" lon="0.1146">
        <ele>316.2</ele>
        <time>2024-04-17T12:48:36Z</time>
      </trkpt>
      <trkpt lat="43.2701" lon="0.11464">
        <ele>315.6</ele>
        <time>2024-04-17T12:48:37Z</time>
      </trkpt>
      <trkpt lat="43.27014" lon="0.11468">
        <ele>315.2</ele>
        <time>2024-04-17T12:48:38Z</time>
      </trkpt>
      <trkpt lat="43.27018" lon="0.11471">
        <ele>314.6</ele>
        <time>2024-04-17T12:48:39Z</time>
      </trkpt>
      <trkpt lat="43.27022" lon="0.11475">
        <ele>314.4</ele>
        <time>2024-04-17T12:48:40Z</time>
      </trkpt>
      <trkpt lat="43.27026" lon="0.11479">
        <ele>313.8</ele>
        <time>2024-04-17T12:48:41Z</time>
      </trkpt>
      <trkpt lat="43.2703" lon="0.11484">
        <ele>313.4</ele>
        <time>2024-04-17T12:48:42Z</time>
      </trkpt>
      <trkpt lat="43.27034" lon="0.11488">
        <ele>312.6</ele>
        <time>2024-04-17T12:48:43Z</time>
      </trkpt>
      <trkpt lat="43.27036" lon="0.11491">
        <ele>311.8</ele>
        <time>2024-04-17T12:48:44Z</time>
      </trkpt>
      <trkpt lat="43.27038" lon="0.11493">
        <ele>311.6</ele>
        <time>2024-04-17T12:48:45Z</time>
      </trkpt>
      <trkpt lat="43.27041" lon="0.11495">
        <ele>311.2</ele>
        <time>2024-04-17T12:48:46Z</time>
      </trkpt>
      <trkpt lat="43.27045" lon="0.11499">
        <ele>311.2</ele>
        <time>2024-04-17T12:48:47Z</time>
      </trkpt>
      <trkpt lat="43.2705" lon="0.11503">
        <ele>310.8</ele>
        <time>2024-04-17T12:48:48Z</time>
      </trkpt>
      <trkpt lat="43.27052" lon="0.11508">
        <ele>310.8</ele>
        <time>2024-04-17T12:48:49Z</time>
      </trkpt>
      <trkpt lat="43.27056" lon="0.11512">
        <ele>310.6</ele>
        <time>2024-04-17T12:48:50Z</time>
      </trkpt>
      <trkpt lat="43.27061" lon="0.11516">
        <ele>310.6</ele>
        <time>2024-04-17T12:48:51Z</time>
      </trkpt>
      <trkpt lat="43.27064" lon="0.1152">
        <ele>310.4</ele>
        <time>2024-04-17T12:48:52Z</time>
      </trkpt>
      <trkpt lat="43.27067" lon="0.11525">
        <ele>310.4</ele>
        <time>2024-04-17T12:48:53Z</time>
      </trkpt>
      <trkpt lat="43.27069" lon="0.11531">
        <ele>310</ele>
        <time>2024-04-17T12:48:54Z</time>
      </trkpt>
      <trkpt lat="43.27073" lon="0.11537">
        <ele>309.4</ele>
        <time>2024-04-17T12:48:55Z</time>
      </trkpt>
      <trkpt lat="43.27077" lon="0.11543">
        <ele>309</ele>
        <time>2024-04-17T12:48:56Z</time>
      </trkpt>
      <trkpt lat="43.27079" lon="0.11548">
        <ele>308.6</ele>
        <time>2024-04-17T12:48:57Z</time>
      </trkpt>
      <trkpt lat="43.2708" lon="0.11552">
        <ele>308.4</ele>
        <time>2024-04-17T12:48:58Z</time>
      </trkpt>
      <trkpt lat="43.27082" lon="0.11554">
        <ele>308</ele>
        <time>2024-04-17T12:48:59Z</time>
      </trkpt>
      <trkpt lat="43.27084" lon="0.11555">
        <ele>307.8</ele>
        <time>2024-04-17T12:49:00Z</time>
      </trkpt>
      <trkpt lat="43.27085" lon="0.11554">
        <ele>307.8</ele>
        <time>2024-04-17T12:49:01Z</time>
      </trkpt>
      <trkpt lat="43.27086" lon="0.11554">
        <ele>307.6</ele>
        <time>2024-04-17T12:49:02Z</time>
      </trkpt>
      <trkpt lat="43.27087" lon="0.11552">
        <ele>307.6</ele>
        <time>2024-04-17T12:49:03Z</time>
      </trkpt>
      <trkpt lat="43.27088" lon="0.11549">
        <ele>307.4</ele>
        <time>2024-04-17T12:49:04Z</time>
      </trkpt>
      <trkpt lat="43.27089" lon="0.11546">
        <ele>307.2</ele>
        <time>2024-04-17T12:49:05Z</time>
      </trkpt>
      <trkpt lat="43.2709" lon="0.11541">
        <ele>307</ele>
        <time>2024-04-17T12:49:06Z</time>
      </trkpt>
      <trkpt lat="43.27091" lon="0.11539">
        <ele>307</ele>
        <time>2024-04-17T12:49:07Z</time>
      </trkpt>
      <trkpt lat="43.27091" lon="0.11537">
        <ele>306.6</ele>
        <time>2024-04-17T12:49:08Z</time>
      </trkpt>
      <trkpt lat="43.27091" lon="0.11536">
        <ele>306</ele>
        <time>2024-04-17T12:49:09Z</time>
      </trkpt>
      <trkpt lat="43.27091" lon="0.11536">
        <ele>305.6</ele>
        <time>2024-04-17T12:49:10Z</time>
      </trkpt>
      <trkpt lat="43.27091" lon="0.11536">
        <ele>304.6</ele>
        <time>2024-04-17T12:49:11Z</time>
      </trkpt>
      <trkpt lat="43.27091" lon="0.11536">
        <ele>304.2</ele>
        <time>2024-04-17T12:49:12Z</time>
      </trkpt>
      <trkpt lat="43.27091" lon="0.11536">
        <ele>303.6</ele>
        <time>2024-04-17T12:49:13Z</time>
      </trkpt>
      <trkpt lat="43.27091" lon="0.11536">
        <ele>303.4</ele>
        <time>2024-04-17T12:49:14Z</time>
      </trkpt>
      <trkpt lat="43.27091" lon="0.11536">
        <ele>303.2</ele>
        <time>2024-04-17T12:49:15Z</time>
      </trkpt>
      <trkpt lat="43.27091" lon="0.11536">
        <ele>303</ele>
        <time>2024-04-17T12:49:16Z</time>
      </trkpt>
      <trkpt lat="43.27091" lon="0.11536">
        <ele>303</ele>
        <time>2024-04-17T12:49:17Z</time>
      </trkpt>
      <trkpt lat="43.27091" lon="0.11536">
        <ele>302.8</ele>
        <time>2024-04-17T12:49:18Z</time>
      </trkpt>
      <trkpt lat="43.27091" lon="0.11536">
        <ele>302.8</ele>
        <time>2024-04-17T12:49:19Z</time>
      </trkpt>
      <trkpt lat="43.27091" lon="0.11536">
        <ele>302.8</ele>
        <time>2024-04-17T12:49:20Z</time>
      </trkpt>
      <trkpt lat="43.27091" lon="0.11536">
        <ele>302.8</ele>
        <time>2024-04-17T12:49:21Z</time>
      </trkpt>
      <trkpt lat="43.27091" lon="0.11536">
        <ele>302.8</ele>
        <time>2024-04-17T12:49:22Z</time>
      </trkpt>
      <trkpt lat="43.27091" lon="0.11536">
        <ele>302.8</ele>
        <time>2024-04-17T12:49:23Z</time>
      </trkpt>
      <trkpt lat="43.27091" lon="0.11536">
        <ele>302.8</ele>
        <time>2024-04-17T12:49:24Z</time>
      </trkpt>
      <trkpt lat="43.27091" lon="0.11536">
        <ele>302.8</ele>
        <time>2024-04-17T12:49:25Z</time>
      </trkpt>
      <trkpt lat="43.27091" lon="0.11536">
        <ele>302.8</ele>
        <time>2024-04-17T12:49:26Z</time>
      </trkpt>
      <trkpt lat="43.27091" lon="0.11536">
        <ele>302.8</ele>
        <time>2024-04-17T12:49:27Z</time>
      </trkpt>
      <trkpt lat="43.27091" lon="0.11536">
        <ele>302.8</ele>
        <time>2024-04-17T12:49:28Z</time>
      </trkpt>
      <trkpt lat="43.27091" lon="0.11536">
        <ele>302.8</ele>
        <time>2024-04-17T12:49:29Z</time>
      </trkpt>
      <trkpt lat="43.27093" lon="0.11533">
        <ele>302.8</ele>
        <time>2024-04-17T12:49:30Z</time>
      </trkpt>
      <trkpt lat="43.27096" lon="0.1153">
        <ele>302.8</ele>
        <time>2024-04-17T12:49:31Z</time>
      </trkpt>
      <trkpt lat="43.27098" lon="0.11527">
        <ele>302.6</ele>
        <time>2024-04-17T12:49:32Z</time>
      </trkpt>
      <trkpt lat="43.271" lon="0.11522">
        <ele>302.4</ele>
        <time>2024-04-17T12:49:33Z</time>
      </trkpt>
      <trkpt lat="43.27103" lon="0.11517">
        <ele>301.8</ele>
        <time>2024-04-17T12:49:34Z</time>
      </trkpt>
      <trkpt lat="43.27106" lon="0.11512">
        <ele>301.6</ele>
        <time>2024-04-17T12:49:35Z</time>
      </trkpt>
      <trkpt lat="43.27108" lon="0.11507">
        <ele>301</ele>
        <time>2024-04-17T12:49:36Z</time>
      </trkpt>
      <trkpt lat="43.2711" lon="0.11501">
        <ele>300.6</ele>
        <time>2024-04-17T12:49:37Z</time>
      </trkpt>
      <trkpt lat="43.27112" lon="0.11497">
        <ele>299.2</ele>
        <time>2024-04-17T12:49:38Z</time>
      </trkpt>
      <trkpt lat="43.27113" lon="0.11492">
        <ele>298.2</ele>
        <time>2024-04-17T12:49:39Z</time>
      </trkpt>
      <trkpt lat="43.27115" lon="0.11488">
        <ele>296.8</ele>
        <time>2024-04-17T12:49:40Z</time>
      </trkpt>
      <trkpt lat="43.27116" lon="0.11484">
        <ele>295.8</ele>
        <time>2024-04-17T12:49:41Z</time>
      </trkpt>
      <trkpt lat="43.27118" lon="0.11482">
        <ele>295.4</ele>
        <time>2024-04-17T12:49:42Z</time>
      </trkpt>
      <trkpt lat="43.2712" lon="0.1148">
        <ele>293.8</ele>
        <time>2024-04-17T12:49:43Z</time>
      </trkpt>
      <trkpt lat="43.27122" lon="0.1148">
        <ele>293.2</ele>
        <time>2024-04-17T12:49:44Z</time>
      </trkpt>
      <trkpt lat="43.27124" lon="0.11478">
        <ele>292.6</ele>
        <time>2024-04-17T12:49:45Z</time>
      </trkpt>
      <trkpt lat="43.27125" lon="0.11476">
        <ele>292.4</ele>
        <time>2024-04-17T12:49:46Z</time>
      </trkpt>
      <trkpt lat="43.27128" lon="0.11473">
        <ele>291.4</ele>
        <time>2024-04-17T12:49:47Z</time>
      </trkpt>
      <trkpt lat="43.2713" lon="0.11472">
        <ele>291.2</ele>
        <time>2024-04-17T12:49:48Z</time>
      </trkpt>
      <trkpt lat="43.27133" lon="0.11472">
        <ele>290.8</ele>
        <time>2024-04-17T12:49:49Z</time>
      </trkpt>
      <trkpt lat="43.27135" lon="0.11473">
        <ele>290</ele>
        <time>2024-04-17T12:49:50Z</time>
      </trkpt>
      <trkpt lat="43.27137" lon="0.11474">
        <ele>289.8</ele>
        <time>2024-04-17T12:49:51Z</time>
      </trkpt>
      <trkpt lat="43.27139" lon="0.11475">
        <ele>289.2</ele>
        <time>2024-04-17T12:49:52Z</time>
      </trkpt>
      <trkpt lat="43.27142" lon="0.11475">
        <ele>289</ele>
        <time>2024-04-17T12:49:53Z</time>
      </trkpt>
      <trkpt lat="43.27144" lon="0.11477">
        <ele>288.8</ele>
        <time>2024-04-17T12:49:54Z</time>
      </trkpt>
      <trkpt lat="43.27146" lon="0.11481">
        <ele>288.8</ele>
        <time>2024-04-17T12:49:55Z</time>
      </trkpt>
      <trkpt lat="43.27149" lon="0.11485">
        <ele>288.6</ele>
        <time>2024-04-17T12:49:56Z</time>
      </trkpt>
      <trkpt lat="43.27152" lon="0.11488">
        <ele>288.6</ele>
        <time>2024-04-17T12:49:57Z</time>
      </trkpt>
      <trkpt lat="43.27156" lon="0.11491">
        <ele>288.4</ele>
        <time>2024-04-17T12:49:58Z</time>
      </trkpt>
      <trkpt lat="43.27158" lon="0.11494">
        <ele>288.4</ele>
        <time>2024-04-17T12:49:59Z</time>
      </trkpt>
      <trkpt lat="43.27162" lon="0.11497">
        <ele>288.4</ele>
        <time>2024-04-17T12:50:00Z</time>
      </trkpt>
      <trkpt lat="43.27165" lon="0.11502">
        <ele>288.4</ele>
        <time>2024-04-17T12:50:01Z</time>
      </trkpt>
      <trkpt lat="43.27168" lon="0.11507">
        <ele>288.4</ele>
        <time>2024-04-17T12:50:02Z</time>
      </trkpt>
      <trkpt lat="43.2717" lon="0.11511">
        <ele>288.2</ele>
        <time>2024-04-17T12:50:03Z</time>
      </trkpt>
      <trkpt lat="43.27171" lon="0.11515">
        <ele>288.2</ele>
        <time>2024-04-17T12:50:04Z</time>
      </trkpt>
      <trkpt lat="43.27173" lon="0.11518">
        <ele>288</ele>
        <time>2024-04-17T12:50:05Z</time>
      </trkpt>
      <trkpt lat="43.27174" lon="0.11521">
        <ele>288</ele>
        <time>2024-04-17T12:50:06Z</time>
      </trkpt>
      <trkpt lat="43.27177" lon="0.11524">
        <ele>287.8</ele>
        <time>2024-04-17T12:50:07Z</time>
      </trkpt>
      <trkpt lat="43.27178" lon="0.11527">
        <ele>287.8</ele>
        <time>2024-04-17T12:50:08Z</time>
      </trkpt>
      <trkpt lat="43.27179" lon="0.11528">
        <ele>287.8</ele>
        <time>2024-04-17T12:50:09Z</time>
      </trkpt>
      <trkpt lat="43.2718" lon="0.1153">
        <ele>287.6</ele>
        <time>2024-04-17T12:50:10Z</time>
      </trkpt>
      <trkpt lat="43.27182" lon="0.11533">
        <ele>287.6</ele>
        <time>2024-04-17T12:50:11Z</time>
      </trkpt>
      <trkpt lat="43.27183" lon="0.11535">
        <ele>287.6</ele>
        <time>2024-04-17T12:50:12Z</time>
      </trkpt>
      <trkpt lat="43.27185" lon="0.11537">
        <ele>287.6</ele>
        <time>2024-04-17T12:50:13Z</time>
      </trkpt>
      <trkpt lat="43.27187" lon="0.1154">
        <ele>287.6</ele>
        <time>2024-04-17T12:50:14Z</time>
      </trkpt>
      <trkpt lat="43.27189" lon="0.11542">
        <ele>287.6</ele>
        <time>2024-04-17T12:50:15Z</time>
      </trkpt>
      <trkpt lat="43.27191" lon="0.11545">
        <ele>287.6</ele>
        <time>2024-04-17T12:50:16Z</time>
      </trkpt>
      <trkpt lat="43.27194" lon="0.11548">
        <ele>287.6</ele>
        <time>2024-04-17T12:50:17Z</time>
      </trkpt>
      <trkpt lat="43.27196" lon="0.11552">
        <ele>287.6</ele>
        <time>2024-04-17T12:50:18Z</time>
      </trkpt>
      <trkpt lat="43.27198" lon="0.11556">
        <ele>287.6</ele>
        <time>2024-04-17T12:50:19Z</time>
      </trkpt>
      <trkpt lat="43.27201" lon="0.1156">
        <ele>287.6</ele>
        <time>2024-04-17T12:50:20Z</time>
      </trkpt>
      <trkpt lat="43.27203" lon="0.11563">
        <ele>287.6</ele>
        <time>2024-04-17T12:50:21Z</time>
      </trkpt>
      <trkpt lat="43.27206" lon="0.11567">
        <ele>287.8</ele>
        <time>2024-04-17T12:50:22Z</time>
      </trkpt>
      <trkpt lat="43.27208" lon="0.1157">
        <ele>287.8</ele>
        <time>2024-04-17T12:50:23Z</time>
      </trkpt>
      <trkpt lat="43.27211" lon="0.11573">
        <ele>287.8</ele>
        <time>2024-04-17T12:50:24Z</time>
      </trkpt>
      <trkpt lat="43.27213" lon="0.11576">
        <ele>288</ele>
        <time>2024-04-17T12:50:25Z</time>
      </trkpt>
      <trkpt lat="43.27215" lon="0.11579">
        <ele>288</ele>
        <time>2024-04-17T12:50:26Z</time>
      </trkpt>
      <trkpt lat="43.27217" lon="0.11581">
        <ele>288</ele>
        <time>2024-04-17T12:50:27Z</time>
      </trkpt>
      <trkpt lat="43.27219" lon="0.11584">
        <ele>288</ele>
        <time>2024-04-17T12:50:28Z</time>
      </trkpt>
      <trkpt lat="43.27222" lon="0.11587">
        <ele>288.2</ele>
        <time>2024-04-17T12:50:29Z</time>
      </trkpt>
      <trkpt lat="43.27224" lon="0.11591">
        <ele>288.2</ele>
        <time>2024-04-17T12:50:30Z</time>
      </trkpt>
      <trkpt lat="43.27226" lon="0.11593">
        <ele>288.2</ele>
        <time>2024-04-17T12:50:31Z</time>
      </trkpt>
      <trkpt lat="43.27228" lon="0.11596">
        <ele>288.4</ele>
        <time>2024-04-17T12:50:32Z</time>
      </trkpt>
      <trkpt lat="43.2723" lon="0.11599">
        <ele>288.6</ele>
        <time>2024-04-17T12:50:33Z</time>
      </trkpt>
      <trkpt lat="43.27233" lon="0.11602">
        <ele>288.6</ele>
        <time>2024-04-17T12:50:34Z</time>
      </trkpt>
      <trkpt lat="43.27235" lon="0.11605">
        <ele>288.8</ele>
        <time>2024-04-17T12:50:35Z</time>
      </trkpt>
      <trkpt lat="43.27237" lon="0.11607">
        <ele>288.8</ele>
        <time>2024-04-17T12:50:36Z</time>
      </trkpt>
      <trkpt lat="43.27239" lon="0.1161">
        <ele>289.2</ele>
        <time>2024-04-17T12:50:37Z</time>
      </trkpt>
      <trkpt lat="43.2724" lon="0.11613">
        <ele>289.6</ele>
        <time>2024-04-17T12:50:38Z</time>
      </trkpt>
      <trkpt lat="43.27242" lon="0.11614">
        <ele>289.6</ele>
        <time>2024-04-17T12:50:39Z</time>
      </trkpt>
      <trkpt lat="43.27243" lon="0.11616">
        <ele>289.8</ele>
        <time>2024-04-17T12:50:40Z</time>
      </trkpt>
      <trkpt lat="43.27245" lon="0.11619">
        <ele>289.8</ele>
        <time>2024-04-17T12:50:41Z</time>
      </trkpt>
      <trkpt lat="43.27247" lon="0.11622">
        <ele>289.8</ele>
        <time>2024-04-17T12:50:42Z</time>
      </trkpt>
      <trkpt lat="43.27248" lon="0.11625">
        <ele>290</ele>
        <time>2024-04-17T12:50:43Z</time>
      </trkpt>
      <trkpt lat="43.27249" lon="0.11627">
        <ele>290</ele>
        <time>2024-04-17T12:50:44Z</time>
      </trkpt>
      <trkpt lat="43.27251" lon="0.1163">
        <ele>290.2</ele>
        <time>2024-04-17T12:50:45Z</time>
      </trkpt>
      <trkpt lat="43.27252" lon="0.11633">
        <ele>290.6</ele>
        <time>2024-04-17T12:50:46Z</time>
      </trkpt>
      <trkpt lat="43.27254" lon="0.11635">
        <ele>290.8</ele>
        <time>2024-04-17T12:50:47Z</time>
      </trkpt>
      <trkpt lat="43.27255" lon="0.11638">
        <ele>291</ele>
        <time>2024-04-17T12:50:48Z</time>
      </trkpt>
      <trkpt lat="43.27257" lon="0.11642">
        <ele>291.2</ele>
        <time>2024-04-17T12:50:49Z</time>
      </trkpt>
      <trkpt lat="43.27259" lon="0.11645">
        <ele>291.2</ele>
        <time>2024-04-17T12:50:50Z</time>
      </trkpt>
      <trkpt lat="43.27261" lon="0.11647">
        <ele>291.4</ele>
        <time>2024-04-17T12:50:51Z</time>
      </trkpt>
      <trkpt lat="43.27263" lon="0.1165">
        <ele>291.4</ele>
        <time>2024-04-17T12:50:52Z</time>
      </trkpt>
      <trkpt lat="43.27265" lon="0.11652">
        <ele>291.6</ele>
        <time>2024-04-17T12:50:53Z</time>
      </trkpt>
      <trkpt lat="43.27267" lon="0.11655">
        <ele>291.8</ele>
        <time>2024-04-17T12:50:54Z</time>
      </trkpt>
      <trkpt lat="43.27269" lon="0.11657">
        <ele>291.8</ele>
        <time>2024-04-17T12:50:55Z</time>
      </trkpt>
      <trkpt lat="43.27271" lon="0.1166">
        <ele>292</ele>
        <time>2024-04-17T12:50:56Z</time>
      </trkpt>
      <trkpt lat="43.27272" lon="0.11662">
        <ele>292</ele>
        <time>2024-04-17T12:50:57Z</time>
      </trkpt>
      <trkpt lat="43.27274" lon="0.11663">
        <ele>292.2</ele>
        <time>2024-04-17T12:50:58Z</time>
      </trkpt>
      <trkpt lat="43.27277" lon="0.11666">
        <ele>292.2</ele>
        <time>2024-04-17T12:50:59Z</time>
      </trkpt>
      <trkpt lat="43.27279" lon="0.11668">
        <ele>292.2</ele>
        <time>2024-04-17T12:51:00Z</time>
      </trkpt>
      <trkpt lat="43.2728" lon="0.1167">
        <ele>292.4</ele>
        <time>2024-04-17T12:51:01Z</time>
      </trkpt>
      <trkpt lat="43.27281" lon="0.11672">
        <ele>292.6</ele>
        <time>2024-04-17T12:51:02Z</time>
      </trkpt>
      <trkpt lat="43.27282" lon="0.11674">
        <ele>292.6</ele>
        <time>2024-04-17T12:51:03Z</time>
      </trkpt>
      <trkpt lat="43.27282" lon="0.11676">
        <ele>292.8</ele>
        <time>2024-04-17T12:51:04Z</time>
      </trkpt>
      <trkpt lat="43.27283" lon="0.11679">
        <ele>293</ele>
        <time>2024-04-17T12:51:05Z</time>
      </trkpt>
      <trkpt lat="43.27284" lon="0.11681">
        <ele>293</ele>
        <time>2024-04-17T12:51:06Z</time>
      </trkpt>
      <trkpt lat="43.27285" lon="0.11684">
        <ele>293</ele>
        <time>2024-04-17T12:51:07Z</time>
      </trkpt>
      <trkpt lat="43.27286" lon="0.11687">
        <ele>293.2</ele>
        <time>2024-04-17T12:51:08Z</time>
      </trkpt>
      <trkpt lat="43.27286" lon="0.11689">
        <ele>293.2</ele>
        <time>2024-04-17T12:51:09Z</time>
      </trkpt>
      <trkpt lat="43.27287" lon="0.11691">
        <ele>293.4</ele>
        <time>2024-04-17T12:51:10Z</time>
      </trkpt>
      <trkpt lat="43.27287" lon="0.11693">
        <ele>293.6</ele>
        <time>2024-04-17T12:51:11Z</time>
      </trkpt>
      <trkpt lat="43.27288" lon="0.11695">
        <ele>293.8</ele>
        <time>2024-04-17T12:51:12Z</time>
      </trkpt>
      <trkpt lat="43.27289" lon="0.11697">
        <ele>293.8</ele>
        <time>2024-04-17T12:51:13Z</time>
      </trkpt>
      <trkpt lat="43.27289" lon="0.11699">
        <ele>294</ele>
        <time>2024-04-17T12:51:14Z</time>
      </trkpt>
      <trkpt lat="43.27291" lon="0.11701">
        <ele>294.2</ele>
        <time>2024-04-17T12:51:15Z</time>
      </trkpt>
      <trkpt lat="43.27292" lon="0.11704">
        <ele>294.4</ele>
        <time>2024-04-17T12:51:16Z</time>
      </trkpt>
      <trkpt lat="43.27294" lon="0.11707">
        <ele>294.4</ele>
        <time>2024-04-17T12:51:17Z</time>
      </trkpt>
      <trkpt lat="43.27295" lon="0.11709">
        <ele>294.6</ele>
        <time>2024-04-17T12:51:18Z</time>
      </trkpt>
      <trkpt lat="43.27296" lon="0.11711">
        <ele>294.8</ele>
        <time>2024-04-17T12:51:19Z</time>
      </trkpt>
      <trkpt lat="43.27297" lon="0.11713">
        <ele>295</ele>
        <time>2024-04-17T12:51:20Z</time>
      </trkpt>
      <trkpt lat="43.27298" lon="0.11715">
        <ele>295</ele>
        <time>2024-04-17T12:51:21Z</time>
      </trkpt>
      <trkpt lat="43.27299" lon="0.11717">
        <ele>295.2</ele>
        <time>2024-04-17T12:51:22Z</time>
      </trkpt>
      <trkpt lat="43.273" lon="0.11719">
        <ele>295.4</ele>
        <time>2024-04-17T12:51:23Z</time>
      </trkpt>
      <trkpt lat="43.27301" lon="0.11721">
        <ele>295.4</ele>
        <time>2024-04-17T12:51:24Z</time>
      </trkpt>
      <trkpt lat="43.27302" lon="0.11723">
        <ele>295.6</ele>
        <time>2024-04-17T12:51:25Z</time>
      </trkpt>
      <trkpt lat="43.27303" lon="0.11725">
        <ele>295.6</ele>
        <time>2024-04-17T12:51:26Z</time>
      </trkpt>
      <trkpt lat="43.27304" lon="0.11727">
        <ele>295.8</ele>
        <time>2024-04-17T12:51:27Z</time>
      </trkpt>
      <trkpt lat="43.27305" lon="0.11728">
        <ele>296</ele>
        <time>2024-04-17T12:51:28Z</time>
      </trkpt>
      <trkpt lat="43.27305" lon="0.1173">
        <ele>296</ele>
        <time>2024-04-17T12:51:29Z</time>
      </trkpt>
      <trkpt lat="43.27305" lon="0.11732">
        <ele>296.4</ele>
        <time>2024-04-17T12:51:30Z</time>
      </trkpt>
      <trkpt lat="43.27306" lon="0.11734">
        <ele>296.4</ele>
        <time>2024-04-17T12:51:31Z</time>
      </trkpt>
      <trkpt lat="43.27306" lon="0.11736">
        <ele>296.6</ele>
        <time>2024-04-17T12:51:32Z</time>
      </trkpt>
      <trkpt lat="43.27306" lon="0.11738">
        <ele>296.8</ele>
        <time>2024-04-17T12:51:33Z</time>
      </trkpt>
      <trkpt lat="43.27307" lon="0.1174">
        <ele>297</ele>
        <time>2024-04-17T12:51:34Z</time>
      </trkpt>
      <trkpt lat="43.27307" lon="0.11742">
        <ele>297.2</ele>
        <time>2024-04-17T12:51:35Z</time>
      </trkpt>
      <trkpt lat="43.27307" lon="0.11744">
        <ele>297.2</ele>
        <time>2024-04-17T12:51:36Z</time>
      </trkpt>
      <trkpt lat="43.27308" lon="0.11747">
        <ele>297.4</ele>
        <time>2024-04-17T12:51:37Z</time>
      </trkpt>
      <trkpt lat="43.27308" lon="0.11749">
        <ele>297.6</ele>
        <time>2024-04-17T12:51:38Z</time>
      </trkpt>
      <trkpt lat="43.27308" lon="0.11751">
        <ele>297.8</ele>
        <time>2024-04-17T12:51:39Z</time>
      </trkpt>
      <trkpt lat="43.27309" lon="0.11752">
        <ele>297.8</ele>
        <time>2024-04-17T12:51:40Z</time>
      </trkpt>
      <trkpt lat="43.27309" lon="0.11753">
        <ele>298</ele>
        <time>2024-04-17T12:51:41Z</time>
      </trkpt>
      <trkpt lat="43.27309" lon="0.11755">
        <ele>298.2</ele>
        <time>2024-04-17T12:51:42Z</time>
      </trkpt>
      <trkpt lat="43.2731" lon="0.11757">
        <ele>298.2</ele>
        <time>2024-04-17T12:51:43Z</time>
      </trkpt>
      <trkpt lat="43.2731" lon="0.1176">
        <ele>298.4</ele>
        <time>2024-04-17T12:51:44Z</time>
      </trkpt>
      <trkpt lat="43.27311" lon="0.11762">
        <ele>298.8</ele>
        <time>2024-04-17T12:51:45Z</time>
      </trkpt>
      <trkpt lat="43.27311" lon="0.11764">
        <ele>298.8</ele>
        <time>2024-04-17T12:51:46Z</time>
      </trkpt>
      <trkpt lat="43.27312" lon="0.11767">
        <ele>299</ele>
        <time>2024-04-17T12:51:47Z</time>
      </trkpt>
      <trkpt lat="43.27312" lon="0.11769">
        <ele>299.4</ele>
        <time>2024-04-17T12:51:48Z</time>
      </trkpt>
      <trkpt lat="43.27313" lon="0.11773">
        <ele>299.4</ele>
        <time>2024-04-17T12:51:49Z</time>
      </trkpt>
      <trkpt lat="43.27313" lon="0.11776">
        <ele>299.6</ele>
        <time>2024-04-17T12:51:50Z</time>
      </trkpt>
      <trkpt lat="43.27314" lon="0.11779">
        <ele>299.6</ele>
        <time>2024-04-17T12:51:51Z</time>
      </trkpt>
      <trkpt lat="43.27314" lon="0.11782">
        <ele>299.8</ele>
        <time>2024-04-17T12:51:52Z</time>
      </trkpt>
      <trkpt lat="43.27314" lon="0.11784">
        <ele>300.2</ele>
        <time>2024-04-17T12:51:53Z</time>
      </trkpt>
      <trkpt lat="43.27314" lon="0.11787">
        <ele>300.2</ele>
        <time>2024-04-17T12:51:54Z</time>
      </trkpt>
      <trkpt lat="43.27314" lon="0.1179">
        <ele>300.4</ele>
        <time>2024-04-17T12:51:55Z</time>
      </trkpt>
      <trkpt lat="43.27314" lon="0.11792">
        <ele>300.6</ele>
        <time>2024-04-17T12:51:56Z</time>
      </trkpt>
      <trkpt lat="43.27315" lon="0.11795">
        <ele>300.8</ele>
        <time>2024-04-17T12:51:57Z</time>
      </trkpt>
      <trkpt lat="43.27314" lon="0.11797">
        <ele>300.8</ele>
        <time>2024-04-17T12:51:58Z</time>
      </trkpt>
      <trkpt lat="43.27314" lon="0.118">
        <ele>301</ele>
        <time>2024-04-17T12:51:59Z</time>
      </trkpt>
      <trkpt lat="43.27314" lon="0.11802">
        <ele>301.4</ele>
        <time>2024-04-17T12:52:00Z</time>
      </trkpt>
      <trkpt lat="43.27315" lon="0.11805">
        <ele>301.4</ele>
        <time>2024-04-17T12:52:01Z</time>
      </trkpt>
      <trkpt lat="43.27315" lon="0.11809">
        <ele>301.8</ele>
        <time>2024-04-17T12:52:02Z</time>
      </trkpt>
      <trkpt lat="43.27316" lon="0.11812">
        <ele>301.8</ele>
        <time>2024-04-17T12:52:03Z</time>
      </trkpt>
      <trkpt lat="43.27316" lon="0.11815">
        <ele>302</ele>
        <time>2024-04-17T12:52:04Z</time>
      </trkpt>
      <trkpt lat="43.27317" lon="0.11818">
        <ele>302.2</ele>
        <time>2024-04-17T12:52:05Z</time>
      </trkpt>
      <trkpt lat="43.27317" lon="0.11821">
        <ele>302.2</ele>
        <time>2024-04-17T12:52:06Z</time>
      </trkpt>
      <trkpt lat="43.27318" lon="0.11824">
        <ele>302.2</ele>
        <time>2024-04-17T12:52:07Z</time>
      </trkpt>
      <trkpt lat="43.27319" lon="0.11828">
        <ele>302.2</ele>
        <time>2024-04-17T12:52:08Z</time>
      </trkpt>
      <trkpt lat="43.2732" lon="0.11831">
        <ele>302.2</ele>
        <time>2024-04-17T12:52:09Z</time>
      </trkpt>
      <trkpt lat="43.2732" lon="0.11834">
        <ele>302.2</ele>
        <time>2024-04-17T12:52:10Z</time>
      </trkpt>
      <trkpt lat="43.27321" lon="0.11837">
        <ele>302.4</ele>
        <time>2024-04-17T12:52:11Z</time>
      </trkpt>
      <trkpt lat="43.27322" lon="0.1184">
        <ele>302.4</ele>
        <time>2024-04-17T12:52:12Z</time>
      </trkpt>
      <trkpt lat="43.27323" lon="0.11842">
        <ele>302.4</ele>
        <time>2024-04-17T12:52:13Z</time>
      </trkpt>
      <trkpt lat="43.27324" lon="0.11845">
        <ele>302.4</ele>
        <time>2024-04-17T12:52:14Z</time>
      </trkpt>
      <trkpt lat="43.27325" lon="0.11846">
        <ele>302.6</ele>
        <time>2024-04-17T12:52:15Z</time>
      </trkpt>
      <trkpt lat="43.27326" lon="0.11848">
        <ele>302.6</ele>
        <time>2024-04-17T12:52:16Z</time>
      </trkpt>
      <trkpt lat="43.27327" lon="0.1185">
        <ele>302.8</ele>
        <time>2024-04-17T12:52:17Z</time>
      </trkpt>
      <trkpt lat="43.27329" lon="0.11853">
        <ele>302.8</ele>
        <time>2024-04-17T12:52:18Z</time>
      </trkpt>
      <trkpt lat="43.27331" lon="0.11856">
        <ele>302.8</ele>
        <time>2024-04-17T12:52:19Z</time>
      </trkpt>
      <trkpt lat="43.27333" lon="0.1186">
        <ele>302.8</ele>
        <time>2024-04-17T12:52:20Z</time>
      </trkpt>
      <trkpt lat="43.27335" lon="0.11863">
        <ele>302.8</ele>
        <time>2024-04-17T12:52:21Z</time>
      </trkpt>
      <trkpt lat="43.27338" lon="0.11867">
        <ele>302.8</ele>
        <time>2024-04-17T12:52:22Z</time>
      </trkpt>
      <trkpt lat="43.2734" lon="0.11871">
        <ele>302.8</ele>
        <time>2024-04-17T12:52:23Z</time>
      </trkpt>
      <trkpt lat="43.27342" lon="0.11875">
        <ele>302.8</ele>
        <time>2024-04-17T12:52:24Z</time>
      </trkpt>
      <trkpt lat="43.27343" lon="0.1188">
        <ele>302.6</ele>
        <time>2024-04-17T12:52:25Z</time>
      </trkpt>
      <trkpt lat="43.27344" lon="0.11884">
        <ele>302.6</ele>
        <time>2024-04-17T12:52:26Z</time>
      </trkpt>
      <trkpt lat="43.27343" lon="0.11888">
        <ele>302.4</ele>
        <time>2024-04-17T12:52:27Z</time>
      </trkpt>
      <trkpt lat="43.27342" lon="0.11891">
        <ele>302.2</ele>
        <time>2024-04-17T12:52:28Z</time>
      </trkpt>
      <trkpt lat="43.2734" lon="0.11893">
        <ele>302.2</ele>
        <time>2024-04-17T12:52:29Z</time>
      </trkpt>
      <trkpt lat="43.27337" lon="0.11893">
        <ele>302</ele>
        <time>2024-04-17T12:52:30Z</time>
      </trkpt>
      <trkpt lat="43.27335" lon="0.11893">
        <ele>302</ele>
        <time>2024-04-17T12:52:31Z</time>
      </trkpt>
      <trkpt lat="43.27332" lon="0.11892">
        <ele>302</ele>
        <time>2024-04-17T12:52:32Z</time>
      </trkpt>
      <trkpt lat="43.27329" lon="0.11892">
        <ele>302</ele>
        <time>2024-04-17T12:52:33Z</time>
      </trkpt>
      <trkpt lat="43.27326" lon="0.11891">
        <ele>302</ele>
        <time>2024-04-17T12:52:34Z</time>
      </trkpt>
      <trkpt lat="43.27324" lon="0.1189">
        <ele>302</ele>
        <time>2024-04-17T12:52:35Z</time>
      </trkpt>
      <trkpt lat="43.27321" lon="0.1189">
        <ele>302.2</ele>
        <time>2024-04-17T12:52:36Z</time>
      </trkpt>
      <trkpt lat="43.27319" lon="0.11889">
        <ele>302.2</ele>
        <time>2024-04-17T12:52:37Z</time>
      </trkpt>
      <trkpt lat="43.27316" lon="0.11888">
        <ele>302.2</ele>
        <time>2024-04-17T12:52:38Z</time>
      </trkpt>
      <trkpt lat="43.27313" lon="0.11888">
        <ele>302.4</ele>
        <time>2024-04-17T12:52:39Z</time>
      </trkpt>
      <trkpt lat="43.27311" lon="0.11887">
        <ele>302.6</ele>
        <time>2024-04-17T12:52:40Z</time>
      </trkpt>
      <trkpt lat="43.27308" lon="0.11887">
        <ele>302.8</ele>
        <time>2024-04-17T12:52:41Z</time>
      </trkpt>
      <trkpt lat="43.27306" lon="0.11886">
        <ele>303</ele>
        <time>2024-04-17T12:52:42Z</time>
      </trkpt>
      <trkpt lat="43.27303" lon="0.11886">
        <ele>303.2</ele>
        <time>2024-04-17T12:52:43Z</time>
      </trkpt>
      <trkpt lat="43.273" lon="0.11885">
        <ele>303.2</ele>
        <time>2024-04-17T12:52:44Z</time>
      </trkpt>
      <trkpt lat="43.27297" lon="0.11884">
        <ele>303.4</ele>
        <time>2024-04-17T12:52:45Z</time>
      </trkpt>
      <trkpt lat="43.27294" lon="0.11884">
        <ele>303.4</ele>
        <time>2024-04-17T12:52:46Z</time>
      </trkpt>
      <trkpt lat="43.27292" lon="0.11884">
        <ele>303.6</ele>
        <time>2024-04-17T12:52:47Z</time>
      </trkpt>
      <trkpt lat="43.27289" lon="0.11884">
        <ele>303.6</ele>
        <time>2024-04-17T12:52:48Z</time>
      </trkpt>
      <trkpt lat="43.27286" lon="0.11883">
        <ele>303.8</ele>
        <time>2024-04-17T12:52:49Z</time>
      </trkpt>
      <trkpt lat="43.27283" lon="0.11883">
        <ele>303.8</ele>
        <time>2024-04-17T12:52:50Z</time>
      </trkpt>
      <trkpt lat="43.2728" lon="0.11883">
        <ele>304</ele>
        <time>2024-04-17T12:52:51Z</time>
      </trkpt>
      <trkpt lat="43.27277" lon="0.11883">
        <ele>304</ele>
        <time>2024-04-17T12:52:52Z</time>
      </trkpt>
      <trkpt lat="43.27274" lon="0.11882">
        <ele>304.2</ele>
        <time>2024-04-17T12:52:53Z</time>
      </trkpt>
      <trkpt lat="43.27271" lon="0.11882">
        <ele>304.4</ele>
        <time>2024-04-17T12:52:54Z</time>
      </trkpt>
      <trkpt lat="43.27268" lon="0.11882">
        <ele>304.6</ele>
        <time>2024-04-17T12:52:55Z</time>
      </trkpt>
      <trkpt lat="43.27266" lon="0.11881">
        <ele>304.8</ele>
        <time>2024-04-17T12:52:56Z</time>
      </trkpt>
      <trkpt lat="43.27263" lon="0.11881">
        <ele>304.8</ele>
        <time>2024-04-17T12:52:57Z</time>
      </trkpt>
      <trkpt lat="43.2726" lon="0.1188">
        <ele>304.8</ele>
        <time>2024-04-17T12:52:58Z</time>
      </trkpt>
      <trkpt lat="43.27257" lon="0.11879">
        <ele>305</ele>
        <time>2024-04-17T12:52:59Z</time>
      </trkpt>
      <trkpt lat="43.27254" lon="0.11879">
        <ele>305.2</ele>
        <time>2024-04-17T12:53:00Z</time>
      </trkpt>
      <trkpt lat="43.27252" lon="0.11879">
        <ele>305.4</ele>
        <time>2024-04-17T12:53:01Z</time>
      </trkpt>
      <trkpt lat="43.27249" lon="0.11879">
        <ele>305.4</ele>
        <time>2024-04-17T12:53:02Z</time>
      </trkpt>
      <trkpt lat="43.27246" lon="0.11878">
        <ele>305.4</ele>
        <time>2024-04-17T12:53:03Z</time>
      </trkpt>
      <trkpt lat="43.27244" lon="0.11877">
        <ele>305.6</ele>
        <time>2024-04-17T12:53:04Z</time>
      </trkpt>
      <trkpt lat="43.27241" lon="0.11876">
        <ele>305.6</ele>
        <time>2024-04-17T12:53:05Z</time>
      </trkpt>
      <trkpt lat="43.27238" lon="0.11876">
        <ele>305.8</ele>
        <time>2024-04-17T12:53:06Z</time>
      </trkpt>
      <trkpt lat="43.27235" lon="0.11875">
        <ele>305.8</ele>
        <time>2024-04-17T12:53:07Z</time>
      </trkpt>
      <trkpt lat="43.27232" lon="0.11874">
        <ele>305.8</ele>
        <time>2024-04-17T12:53:08Z</time>
      </trkpt>
      <trkpt lat="43.27229" lon="0.11874">
        <ele>306</ele>
        <time>2024-04-17T12:53:09Z</time>
      </trkpt>
      <trkpt lat="43.27226" lon="0.11873">
        <ele>306</ele>
        <time>2024-04-17T12:53:10Z</time>
      </trkpt>
      <trkpt lat="43.27223" lon="0.11873">
        <ele>306</ele>
        <time>2024-04-17T12:53:11Z</time>
      </trkpt>
      <trkpt lat="43.2722" lon="0.11872">
        <ele>306.2</ele>
        <time>2024-04-17T12:53:12Z</time>
      </trkpt>
      <trkpt lat="43.27217" lon="0.11871">
        <ele>306.2</ele>
        <time>2024-04-17T12:53:13Z</time>
      </trkpt>
      <trkpt lat="43.27214" lon="0.11871">
        <ele>306.2</ele>
        <time>2024-04-17T12:53:14Z</time>
      </trkpt>
      <trkpt lat="43.27212" lon="0.1187">
        <ele>306.4</ele>
        <time>2024-04-17T12:53:15Z</time>
      </trkpt>
      <trkpt lat="43.27209" lon="0.1187">
        <ele>306.6</ele>
        <time>2024-04-17T12:53:16Z</time>
      </trkpt>
      <trkpt lat="43.27206" lon="0.1187">
        <ele>306.6</ele>
        <time>2024-04-17T12:53:17Z</time>
      </trkpt>
      <trkpt lat="43.27203" lon="0.11869">
        <ele>306.8</ele>
        <time>2024-04-17T12:53:18Z</time>
      </trkpt>
      <trkpt lat="43.27201" lon="0.11868">
        <ele>306.8</ele>
        <time>2024-04-17T12:53:19Z</time>
      </trkpt>
      <trkpt lat="43.27198" lon="0.11867">
        <ele>307</ele>
        <time>2024-04-17T12:53:20Z</time>
      </trkpt>
      <trkpt lat="43.27195" lon="0.11866">
        <ele>307.2</ele>
        <time>2024-04-17T12:53:21Z</time>
      </trkpt>
      <trkpt lat="43.27192" lon="0.11864">
        <ele>307.2</ele>
        <time>2024-04-17T12:53:22Z</time>
      </trkpt>
      <trkpt lat="43.27189" lon="0.11864">
        <ele>307.4</ele>
        <time>2024-04-17T12:53:23Z</time>
      </trkpt>
      <trkpt lat="43.27186" lon="0.11863">
        <ele>307.4</ele>
        <time>2024-04-17T12:53:24Z</time>
      </trkpt>
      <trkpt lat="43.27183" lon="0.11861">
        <ele>307.4</ele>
        <time>2024-04-17T12:53:25Z</time>
      </trkpt>
      <trkpt lat="43.2718" lon="0.1186">
        <ele>307.4</ele>
        <time>2024-04-17T12:53:26Z</time>
      </trkpt>
      <trkpt lat="43.27176" lon="0.11858">
        <ele>307.6</ele>
        <time>2024-04-17T12:53:27Z</time>
      </trkpt>
      <trkpt lat="43.27173" lon="0.11857">
        <ele>307.6</ele>
        <time>2024-04-17T12:53:28Z</time>
      </trkpt>
      <trkpt lat="43.2717" lon="0.11855">
        <ele>307.6</ele>
        <time>2024-04-17T12:53:29Z</time>
      </trkpt>
      <trkpt lat="43.27167" lon="0.11854">
        <ele>307.6</ele>
        <time>2024-04-17T12:53:30Z</time>
      </trkpt>
      <trkpt lat="43.27164" lon="0.11852">
        <ele>307.8</ele>
        <time>2024-04-17T12:53:31Z</time>
      </trkpt>
      <trkpt lat="43.27161" lon="0.1185">
        <ele>307.8</ele>
        <time>2024-04-17T12:53:32Z</time>
      </trkpt>
      <trkpt lat="43.27158" lon="0.11849">
        <ele>307.8</ele>
        <time>2024-04-17T12:53:33Z</time>
      </trkpt>
      <trkpt lat="43.27156" lon="0.11847">
        <ele>308</ele>
        <time>2024-04-17T12:53:34Z</time>
      </trkpt>
      <trkpt lat="43.27153" lon="0.11846">
        <ele>308</ele>
        <time>2024-04-17T12:53:35Z</time>
      </trkpt>
      <trkpt lat="43.2715" lon="0.11844">
        <ele>308.2</ele>
        <time>2024-04-17T12:53:36Z</time>
      </trkpt>
      <trkpt lat="43.27147" lon="0.11842">
        <ele>308.4</ele>
        <time>2024-04-17T12:53:37Z</time>
      </trkpt>
      <trkpt lat="43.27145" lon="0.1184">
        <ele>308.4</ele>
        <time>2024-04-17T12:53:38Z</time>
      </trkpt>
      <trkpt lat="43.27142" lon="0.11838">
        <ele>308.6</ele>
        <time>2024-04-17T12:53:39Z</time>
      </trkpt>
      <trkpt lat="43.27139" lon="0.11837">
        <ele>308.6</ele>
        <time>2024-04-17T12:53:40Z</time>
      </trkpt>
      <trkpt lat="43.27136" lon="0.11835">
        <ele>308.6</ele>
        <time>2024-04-17T12:53:41Z</time>
      </trkpt>
      <trkpt lat="43.27132" lon="0.11833">
        <ele>308.6</ele>
        <time>2024-04-17T12:53:42Z</time>
      </trkpt>
      <trkpt lat="43.27129" lon="0.11831">
        <ele>308.6</ele>
        <time>2024-04-17T12:53:43Z</time>
      </trkpt>
      <trkpt lat="43.27125" lon="0.1183">
        <ele>308.6</ele>
        <time>2024-04-17T12:53:44Z</time>
      </trkpt>
      <trkpt lat="43.27122" lon="0.11828">
        <ele>308.8</ele>
        <time>2024-04-17T12:53:45Z</time>
      </trkpt>
      <trkpt lat="43.27118" lon="0.11826">
        <ele>308.8</ele>
        <time>2024-04-17T12:53:46Z</time>
      </trkpt>
      <trkpt lat="43.27115" lon="0.11825">
        <ele>308.6</ele>
        <time>2024-04-17T12:53:47Z</time>
      </trkpt>
      <trkpt lat="43.27111" lon="0.11823">
        <ele>308.4</ele>
        <time>2024-04-17T12:53:48Z</time>
      </trkpt>
      <trkpt lat="43.27108" lon="0.11821">
        <ele>308.4</ele>
        <time>2024-04-17T12:53:49Z</time>
      </trkpt>
      <trkpt lat="43.27104" lon="0.11819">
        <ele>308.4</ele>
        <time>2024-04-17T12:53:50Z</time>
      </trkpt>
      <trkpt lat="43.27101" lon="0.11817">
        <ele>308.6</ele>
        <time>2024-04-17T12:53:51Z</time>
      </trkpt>
      <trkpt lat="43.27097" lon="0.11816">
        <ele>308.4</ele>
        <time>2024-04-17T12:53:52Z</time>
      </trkpt>
      <trkpt lat="43.27094" lon="0.11814">
        <ele>308.4</ele>
        <time>2024-04-17T12:53:53Z</time>
      </trkpt>
      <trkpt lat="43.27091" lon="0.11812">
        <ele>308.2</ele>
        <time>2024-04-17T12:53:54Z</time>
      </trkpt>
      <trkpt lat="43.27087" lon="0.1181">
        <ele>308</ele>
        <time>2024-04-17T12:53:55Z</time>
      </trkpt>
      <trkpt lat="43.27083" lon="0.11808">
        <ele>307.8</ele>
        <time>2024-04-17T12:53:56Z</time>
      </trkpt>
      <trkpt lat="43.2708" lon="0.11807">
        <ele>307.8</ele>
        <time>2024-04-17T12:53:57Z</time>
      </trkpt>
      <trkpt lat="43.27076" lon="0.11805">
        <ele>307.8</ele>
        <time>2024-04-17T12:53:58Z</time>
      </trkpt>
      <trkpt lat="43.27072" lon="0.11803">
        <ele>307.8</ele>
        <time>2024-04-17T12:53:59Z</time>
      </trkpt>
      <trkpt lat="43.27068" lon="0.11802">
        <ele>307.6</ele>
        <time>2024-04-17T12:54:00Z</time>
      </trkpt>
      <trkpt lat="43.27064" lon="0.118">
        <ele>307.6</ele>
        <time>2024-04-17T12:54:01Z</time>
      </trkpt>
      <trkpt lat="43.2706" lon="0.11798">
        <ele>307.6</ele>
        <time>2024-04-17T12:54:02Z</time>
      </trkpt>
      <trkpt lat="43.27055" lon="0.11796">
        <ele>307.4</ele>
        <time>2024-04-17T12:54:03Z</time>
      </trkpt>
      <trkpt lat="43.27051" lon="0.11794">
        <ele>307.4</ele>
        <time>2024-04-17T12:54:04Z</time>
      </trkpt>
      <trkpt lat="43.27047" lon="0.11792">
        <ele>307.2</ele>
        <time>2024-04-17T12:54:05Z</time>
      </trkpt>
      <trkpt lat="43.27043" lon="0.1179">
        <ele>307.2</ele>
        <time>2024-04-17T12:54:06Z</time>
      </trkpt>
      <trkpt lat="43.27038" lon="0.11787">
        <ele>306.8</ele>
        <time>2024-04-17T12:54:07Z</time>
      </trkpt>
      <trkpt lat="43.27034" lon="0.11785">
        <ele>306.6</ele>
        <time>2024-04-17T12:54:08Z</time>
      </trkpt>
      <trkpt lat="43.2703" lon="0.11783">
        <ele>306.6</ele>
        <time>2024-04-17T12:54:09Z</time>
      </trkpt>
      <trkpt lat="43.27026" lon="0.11781">
        <ele>306.4</ele>
        <time>2024-04-17T12:54:10Z</time>
      </trkpt>
      <trkpt lat="43.27022" lon="0.11779">
        <ele>306.4</ele>
        <time>2024-04-17T12:54:11Z</time>
      </trkpt>
      <trkpt lat="43.27019" lon="0.11778">
        <ele>306.4</ele>
        <time>2024-04-17T12:54:12Z</time>
      </trkpt>
      <trkpt lat="43.27015" lon="0.11776">
        <ele>306.4</ele>
        <time>2024-04-17T12:54:13Z</time>
      </trkpt>
      <trkpt lat="43.27011" lon="0.11775">
        <ele>306.2</ele>
        <time>2024-04-17T12:54:14Z</time>
      </trkpt>
      <trkpt lat="43.27007" lon="0.11773">
        <ele>306.2</ele>
        <time>2024-04-17T12:54:15Z</time>
      </trkpt>
      <trkpt lat="43.27003" lon="0.11771">
        <ele>306.2</ele>
        <time>2024-04-17T12:54:16Z</time>
      </trkpt>
      <trkpt lat="43.26999" lon="0.1177">
        <ele>306.2</ele>
        <time>2024-04-17T12:54:17Z</time>
      </trkpt>
      <trkpt lat="43.26995" lon="0.11768">
        <ele>306.2</ele>
        <time>2024-04-17T12:54:18Z</time>
      </trkpt>
      <trkpt lat="43.26991" lon="0.11766">
        <ele>306.2</ele>
        <time>2024-04-17T12:54:19Z</time>
      </trkpt>
      <trkpt lat="43.26987" lon="0.11764">
        <ele>306.4</ele>
        <time>2024-04-17T12:54:20Z</time>
      </trkpt>
      <trkpt lat="43.26984" lon="0.11762">
        <ele>306.4</ele>
        <time>2024-04-17T12:54:21Z</time>
      </trkpt>
      <trkpt lat="43.2698" lon="0.1176">
        <ele>306.4</ele>
        <time>2024-04-17T12:54:22Z</time>
      </trkpt>
      <trkpt lat="43.26976" lon="0.11759">
        <ele>306.4</ele>
        <time>2024-04-17T12:54:23Z</time>
      </trkpt>
      <trkpt lat="43.26973" lon="0.11757">
        <ele>306.4</ele>
        <time>2024-04-17T12:54:24Z</time>
      </trkpt>
      <trkpt lat="43.26969" lon="0.11755">
        <ele>306.6</ele>
        <time>2024-04-17T12:54:25Z</time>
      </trkpt>
      <trkpt lat="43.26966" lon="0.11754">
        <ele>306.8</ele>
        <time>2024-04-17T12:54:26Z</time>
      </trkpt>
      <trkpt lat="43.26963" lon="0.11752">
        <ele>306.8</ele>
        <time>2024-04-17T12:54:27Z</time>
      </trkpt>
      <trkpt lat="43.26961" lon="0.11751">
        <ele>307</ele>
        <time>2024-04-17T12:54:28Z</time>
      </trkpt>
      <trkpt lat="43.26958" lon="0.11749">
        <ele>307</ele>
        <time>2024-04-17T12:54:29Z</time>
      </trkpt>
      <trkpt lat="43.26955" lon="0.11747">
        <ele>307.2</ele>
        <time>2024-04-17T12:54:30Z</time>
      </trkpt>
      <trkpt lat="43.26952" lon="0.11745">
        <ele>307.2</ele>
        <time>2024-04-17T12:54:31Z</time>
      </trkpt>
      <trkpt lat="43.26948" lon="0.11744">
        <ele>307.4</ele>
        <time>2024-04-17T12:54:32Z</time>
      </trkpt>
      <trkpt lat="43.26945" lon="0.11742">
        <ele>307.4</ele>
        <time>2024-04-17T12:54:33Z</time>
      </trkpt>
      <trkpt lat="43.26942" lon="0.11741">
        <ele>307.6</ele>
        <time>2024-04-17T12:54:34Z</time>
      </trkpt>
      <trkpt lat="43.26938" lon="0.11739">
        <ele>307.6</ele>
        <time>2024-04-17T12:54:35Z</time>
      </trkpt>
      <trkpt lat="43.26935" lon="0.11738">
        <ele>307.8</ele>
        <time>2024-04-17T12:54:36Z</time>
      </trkpt>
      <trkpt lat="43.26932" lon="0.11737">
        <ele>307.8</ele>
        <time>2024-04-17T12:54:37Z</time>
      </trkpt>
      <trkpt lat="43.26929" lon="0.11735">
        <ele>308</ele>
        <time>2024-04-17T12:54:38Z</time>
      </trkpt>
      <trkpt lat="43.26926" lon="0.11734">
        <ele>308</ele>
        <time>2024-04-17T12:54:39Z</time>
      </trkpt>
      <trkpt lat="43.26923" lon="0.11732">
        <ele>308</ele>
        <time>2024-04-17T12:54:40Z</time>
      </trkpt>
      <trkpt lat="43.26919" lon="0.1173">
        <ele>308.2</ele>
        <time>2024-04-17T12:54:41Z</time>
      </trkpt>
      <trkpt lat="43.26916" lon="0.11729">
        <ele>308.2</ele>
        <time>2024-04-17T12:54:42Z</time>
      </trkpt>
      <trkpt lat="43.26913" lon="0.11727">
        <ele>308.4</ele>
        <time>2024-04-17T12:54:43Z</time>
      </trkpt>
      <trkpt lat="43.2691" lon="0.11725">
        <ele>308.4</ele>
        <time>2024-04-17T12:54:44Z</time>
      </trkpt>
      <trkpt lat="43.26906" lon="0.11724">
        <ele>308.4</ele>
        <time>2024-04-17T12:54:45Z</time>
      </trkpt>
      <trkpt lat="43.26903" lon="0.11722">
        <ele>308.6</ele>
        <time>2024-04-17T12:54:46Z</time>
      </trkpt>
      <trkpt lat="43.269" lon="0.11721">
        <ele>308.6</ele>
        <time>2024-04-17T12:54:47Z</time>
      </trkpt>
      <trkpt lat="43.26896" lon="0.11719">
        <ele>308.6</ele>
        <time>2024-04-17T12:54:48Z</time>
      </trkpt>
      <trkpt lat="43.26893" lon="0.11717">
        <ele>308.6</ele>
        <time>2024-04-17T12:54:49Z</time>
      </trkpt>
      <trkpt lat="43.2689" lon="0.11715">
        <ele>308.8</ele>
        <time>2024-04-17T12:54:50Z</time>
      </trkpt>
      <trkpt lat="43.26887" lon="0.11713">
        <ele>308.8</ele>
        <time>2024-04-17T12:54:51Z</time>
      </trkpt>
      <trkpt lat="43.26883" lon="0.11711">
        <ele>309</ele>
        <time>2024-04-17T12:54:52Z</time>
      </trkpt>
      <trkpt lat="43.2688" lon="0.11709">
        <ele>309</ele>
        <time>2024-04-17T12:54:53Z</time>
      </trkpt>
      <trkpt lat="43.26876" lon="0.11707">
        <ele>309.2</ele>
        <time>2024-04-17T12:54:54Z</time>
      </trkpt>
      <trkpt lat="43.26873" lon="0.11706">
        <ele>309.2</ele>
        <time>2024-04-17T12:54:55Z</time>
      </trkpt>
      <trkpt lat="43.26869" lon="0.11704">
        <ele>309.4</ele>
        <time>2024-04-17T12:54:56Z</time>
      </trkpt>
      <trkpt lat="43.26865" lon="0.11703">
        <ele>309.4</ele>
        <time>2024-04-17T12:54:57Z</time>
      </trkpt>
      <trkpt lat="43.26862" lon="0.11701">
        <ele>309.6</ele>
        <time>2024-04-17T12:54:58Z</time>
      </trkpt>
      <trkpt lat="43.26859" lon="0.117">
        <ele>310</ele>
        <time>2024-04-17T12:54:59Z</time>
      </trkpt>
      <trkpt lat="43.26855" lon="0.11698">
        <ele>310</ele>
        <time>2024-04-17T12:55:00Z</time>
      </trkpt>
      <trkpt lat="43.26852" lon="0.11696">
        <ele>310</ele>
        <time>2024-04-17T12:55:01Z</time>
      </trkpt>
      <trkpt lat="43.26848" lon="0.11695">
        <ele>310.2</ele>
        <time>2024-04-17T12:55:02Z</time>
      </trkpt>
      <trkpt lat="43.26845" lon="0.11693">
        <ele>310.2</ele>
        <time>2024-04-17T12:55:03Z</time>
      </trkpt>
      <trkpt lat="43.26842" lon="0.11692">
        <ele>310.2</ele>
        <time>2024-04-17T12:55:04Z</time>
      </trkpt>
      <trkpt lat="43.26839" lon="0.1169">
        <ele>310.2</ele>
        <time>2024-04-17T12:55:05Z</time>
      </trkpt>
      <trkpt lat="43.26835" lon="0.11689">
        <ele>310.2</ele>
        <time>2024-04-17T12:55:06Z</time>
      </trkpt>
      <trkpt lat="43.26832" lon="0.11688">
        <ele>310.2</ele>
        <time>2024-04-17T12:55:07Z</time>
      </trkpt>
      <trkpt lat="43.26829" lon="0.11687">
        <ele>310.2</ele>
        <time>2024-04-17T12:55:08Z</time>
      </trkpt>
      <trkpt lat="43.26826" lon="0.11685">
        <ele>310.2</ele>
        <time>2024-04-17T12:55:09Z</time>
      </trkpt>
      <trkpt lat="43.26823" lon="0.11684">
        <ele>310.2</ele>
        <time>2024-04-17T12:55:10Z</time>
      </trkpt>
      <trkpt lat="43.2682" lon="0.11683">
        <ele>310.2</ele>
        <time>2024-04-17T12:55:11Z</time>
      </trkpt>
      <trkpt lat="43.26816" lon="0.11682">
        <ele>310.2</ele>
        <time>2024-04-17T12:55:12Z</time>
      </trkpt>
      <trkpt lat="43.26813" lon="0.11681">
        <ele>310.4</ele>
        <time>2024-04-17T12:55:13Z</time>
      </trkpt>
      <trkpt lat="43.2681" lon="0.11679">
        <ele>310.4</ele>
        <time>2024-04-17T12:55:14Z</time>
      </trkpt>
      <trkpt lat="43.26806" lon="0.11678">
        <ele>310.6</ele>
        <time>2024-04-17T12:55:15Z</time>
      </trkpt>
      <trkpt lat="43.26803" lon="0.11678">
        <ele>310.6</ele>
        <time>2024-04-17T12:55:16Z</time>
      </trkpt>
      <trkpt lat="43.26799" lon="0.11677">
        <ele>311</ele>
        <time>2024-04-17T12:55:17Z</time>
      </trkpt>
      <trkpt lat="43.26796" lon="0.11677">
        <ele>311.2</ele>
        <time>2024-04-17T12:55:18Z</time>
      </trkpt>
      <trkpt lat="43.26793" lon="0.11676">
        <ele>311.2</ele>
        <time>2024-04-17T12:55:19Z</time>
      </trkpt>
      <trkpt lat="43.2679" lon="0.11675">
        <ele>311.4</ele>
        <time>2024-04-17T12:55:20Z</time>
      </trkpt>
      <trkpt lat="43.26786" lon="0.11674">
        <ele>311.6</ele>
        <time>2024-04-17T12:55:21Z</time>
      </trkpt>
      <trkpt lat="43.26783" lon="0.11673">
        <ele>311.8</ele>
        <time>2024-04-17T12:55:22Z</time>
      </trkpt>
      <trkpt lat="43.2678" lon="0.11672">
        <ele>311.8</ele>
        <time>2024-04-17T12:55:23Z</time>
      </trkpt>
      <trkpt lat="43.26777" lon="0.11671">
        <ele>312</ele>
        <time>2024-04-17T12:55:24Z</time>
      </trkpt>
      <trkpt lat="43.26774" lon="0.1167">
        <ele>312</ele>
        <time>2024-04-17T12:55:25Z</time>
      </trkpt>
      <trkpt lat="43.26771" lon="0.11669">
        <ele>312.2</ele>
        <time>2024-04-17T12:55:26Z</time>
      </trkpt>
      <trkpt lat="43.26768" lon="0.11668">
        <ele>312.4</ele>
        <time>2024-04-17T12:55:27Z</time>
      </trkpt>
      <trkpt lat="43.26765" lon="0.11667">
        <ele>312.4</ele>
        <time>2024-04-17T12:55:28Z</time>
      </trkpt>
      <trkpt lat="43.26762" lon="0.11667">
        <ele>312.4</ele>
        <time>2024-04-17T12:55:29Z</time>
      </trkpt>
      <trkpt lat="43.26759" lon="0.11666">
        <ele>312.6</ele>
        <time>2024-04-17T12:55:30Z</time>
      </trkpt>
      <trkpt lat="43.26757" lon="0.11665">
        <ele>312.6</ele>
        <time>2024-04-17T12:55:31Z</time>
      </trkpt>
      <trkpt lat="43.26754" lon="0.11664">
        <ele>312.6</ele>
        <time>2024-04-17T12:55:32Z</time>
      </trkpt>
      <trkpt lat="43.26752" lon="0.11664">
        <ele>312.8</ele>
        <time>2024-04-17T12:55:33Z</time>
      </trkpt>
      <trkpt lat="43.2675" lon="0.11663">
        <ele>312.8</ele>
        <time>2024-04-17T12:55:34Z</time>
      </trkpt>
      <trkpt lat="43.26747" lon="0.11662">
        <ele>313</ele>
        <time>2024-04-17T12:55:35Z</time>
      </trkpt>
      <trkpt lat="43.26745" lon="0.11661">
        <ele>313.2</ele>
        <time>2024-04-17T12:55:36Z</time>
      </trkpt>
      <trkpt lat="43.26742" lon="0.1166">
        <ele>313.2</ele>
        <time>2024-04-17T12:55:37Z</time>
      </trkpt>
      <trkpt lat="43.2674" lon="0.11659">
        <ele>313.6</ele>
        <time>2024-04-17T12:55:38Z</time>
      </trkpt>
      <trkpt lat="43.26737" lon="0.11659">
        <ele>313.6</ele>
        <time>2024-04-17T12:55:39Z</time>
      </trkpt>
      <trkpt lat="43.26734" lon="0.11658">
        <ele>313.8</ele>
        <time>2024-04-17T12:55:40Z</time>
      </trkpt>
      <trkpt lat="43.26732" lon="0.11657">
        <ele>314</ele>
        <time>2024-04-17T12:55:41Z</time>
      </trkpt>
      <trkpt lat="43.26729" lon="0.11656">
        <ele>314.2</ele>
        <time>2024-04-17T12:55:42Z</time>
      </trkpt>
      <trkpt lat="43.26727" lon="0.11655">
        <ele>314.4</ele>
        <time>2024-04-17T12:55:43Z</time>
      </trkpt>
      <trkpt lat="43.26724" lon="0.11654">
        <ele>314.4</ele>
        <time>2024-04-17T12:55:44Z</time>
      </trkpt>
      <trkpt lat="43.26721" lon="0.11653">
        <ele>314.6</ele>
        <time>2024-04-17T12:55:45Z</time>
      </trkpt>
      <trkpt lat="43.26718" lon="0.11652">
        <ele>314.8</ele>
        <time>2024-04-17T12:55:46Z</time>
      </trkpt>
      <trkpt lat="43.26716" lon="0.11651">
        <ele>315</ele>
        <time>2024-04-17T12:55:47Z</time>
      </trkpt>
      <trkpt lat="43.26713" lon="0.11649">
        <ele>315</ele>
        <time>2024-04-17T12:55:48Z</time>
      </trkpt>
      <trkpt lat="43.26711" lon="0.11648">
        <ele>315.2</ele>
        <time>2024-04-17T12:55:49Z</time>
      </trkpt>
      <trkpt lat="43.26709" lon="0.11646">
        <ele>315.4</ele>
        <time>2024-04-17T12:55:50Z</time>
      </trkpt>
      <trkpt lat="43.26706" lon="0.11645">
        <ele>315.6</ele>
        <time>2024-04-17T12:55:51Z</time>
      </trkpt>
      <trkpt lat="43.26703" lon="0.11644">
        <ele>315.6</ele>
        <time>2024-04-17T12:55:52Z</time>
      </trkpt>
      <trkpt lat="43.267" lon="0.11643">
        <ele>315.8</ele>
        <time>2024-04-17T12:55:53Z</time>
      </trkpt>
      <trkpt lat="43.26697" lon="0.11642">
        <ele>316</ele>
        <time>2024-04-17T12:55:54Z</time>
      </trkpt>
      <trkpt lat="43.26694" lon="0.11641">
        <ele>316</ele>
        <time>2024-04-17T12:55:55Z</time>
      </trkpt>
      <trkpt lat="43.26691" lon="0.11641">
        <ele>316</ele>
        <time>2024-04-17T12:55:56Z</time>
      </trkpt>
      <trkpt lat="43.26688" lon="0.1164">
        <ele>316</ele>
        <time>2024-04-17T12:55:57Z</time>
      </trkpt>
      <trkpt lat="43.26686" lon="0.11639">
        <ele>316.2</ele>
        <time>2024-04-17T12:55:58Z</time>
      </trkpt>
      <trkpt lat="43.26683" lon="0.11638">
        <ele>316.4</ele>
        <time>2024-04-17T12:55:59Z</time>
      </trkpt>
      <trkpt lat="43.26679" lon="0.11638">
        <ele>316.4</ele>
        <time>2024-04-17T12:56:00Z</time>
      </trkpt>
      <trkpt lat="43.26676" lon="0.11638">
        <ele>316.6</ele>
        <time>2024-04-17T12:56:01Z</time>
      </trkpt>
      <trkpt lat="43.26673" lon="0.11638">
        <ele>316.8</ele>
        <time>2024-04-17T12:56:02Z</time>
      </trkpt>
      <trkpt lat="43.2667" lon="0.11637">
        <ele>317</ele>
        <time>2024-04-17T12:56:03Z</time>
      </trkpt>
      <trkpt lat="43.26667" lon="0.11637">
        <ele>317</ele>
        <time>2024-04-17T12:56:04Z</time>
      </trkpt>
      <trkpt lat="43.26664" lon="0.11636">
        <ele>317.2</ele>
        <time>2024-04-17T12:56:05Z</time>
      </trkpt>
      <trkpt lat="43.26661" lon="0.11635">
        <ele>317.2</ele>
        <time>2024-04-17T12:56:06Z</time>
      </trkpt>
      <trkpt lat="43.26658" lon="0.11634">
        <ele>317.4</ele>
        <time>2024-04-17T12:56:07Z</time>
      </trkpt>
      <trkpt lat="43.26656" lon="0.11633">
        <ele>317.4</ele>
        <time>2024-04-17T12:56:08Z</time>
      </trkpt>
      <trkpt lat="43.26653" lon="0.11632">
        <ele>317.4</ele>
        <time>2024-04-17T12:56:09Z</time>
      </trkpt>
      <trkpt lat="43.2665" lon="0.11632">
        <ele>317.4</ele>
        <time>2024-04-17T12:56:10Z</time>
      </trkpt>
      <trkpt lat="43.26647" lon="0.11631">
        <ele>317.4</ele>
        <time>2024-04-17T12:56:11Z</time>
      </trkpt>
      <trkpt lat="43.26644" lon="0.1163">
        <ele>317.4</ele>
        <time>2024-04-17T12:56:12Z</time>
      </trkpt>
      <trkpt lat="43.2664" lon="0.11629">
        <ele>317.4</ele>
        <time>2024-04-17T12:56:13Z</time>
      </trkpt>
      <trkpt lat="43.26637" lon="0.11628">
        <ele>317.6</ele>
        <time>2024-04-17T12:56:14Z</time>
      </trkpt>
      <trkpt lat="43.26634" lon="0.11627">
        <ele>317.6</ele>
        <time>2024-04-17T12:56:15Z</time>
      </trkpt>
      <trkpt lat="43.2663" lon="0.11626">
        <ele>317.6</ele>
        <time>2024-04-17T12:56:16Z</time>
      </trkpt>
      <trkpt lat="43.26627" lon="0.11626">
        <ele>317.8</ele>
        <time>2024-04-17T12:56:17Z</time>
      </trkpt>
      <trkpt lat="43.26624" lon="0.11625">
        <ele>317.8</ele>
        <time>2024-04-17T12:56:18Z</time>
      </trkpt>
      <trkpt lat="43.2662" lon="0.11624">
        <ele>318.2</ele>
        <time>2024-04-17T12:56:19Z</time>
      </trkpt>
      <trkpt lat="43.26617" lon="0.11623">
        <ele>318.4</ele>
        <time>2024-04-17T12:56:20Z</time>
      </trkpt>
      <trkpt lat="43.26614" lon="0.11622">
        <ele>318.4</ele>
        <time>2024-04-17T12:56:21Z</time>
      </trkpt>
      <trkpt lat="43.26611" lon="0.11621">
        <ele>318.6</ele>
        <time>2024-04-17T12:56:22Z</time>
      </trkpt>
      <trkpt lat="43.26607" lon="0.1162">
        <ele>318.6</ele>
        <time>2024-04-17T12:56:23Z</time>
      </trkpt>
      <trkpt lat="43.26604" lon="0.11619">
        <ele>318.6</ele>
        <time>2024-04-17T12:56:24Z</time>
      </trkpt>
      <trkpt lat="43.26601" lon="0.11618">
        <ele>318.6</ele>
        <time>2024-04-17T12:56:25Z</time>
      </trkpt>
      <trkpt lat="43.26597" lon="0.11617">
        <ele>318.8</ele>
        <time>2024-04-17T12:56:26Z</time>
      </trkpt>
      <trkpt lat="43.26594" lon="0.11616">
        <ele>318.8</ele>
        <time>2024-04-17T12:56:27Z</time>
      </trkpt>
      <trkpt lat="43.2659" lon="0.11615">
        <ele>318.8</ele>
        <time>2024-04-17T12:56:28Z</time>
      </trkpt>
      <trkpt lat="43.26587" lon="0.11614">
        <ele>318.8</ele>
        <time>2024-04-17T12:56:29Z</time>
      </trkpt>
      <trkpt lat="43.26584" lon="0.11613">
        <ele>319</ele>
        <time>2024-04-17T12:56:30Z</time>
      </trkpt>
      <trkpt lat="43.2658" lon="0.11612">
        <ele>319</ele>
        <time>2024-04-17T12:56:31Z</time>
      </trkpt>
      <trkpt lat="43.26577" lon="0.11611">
        <ele>319</ele>
        <time>2024-04-17T12:56:32Z</time>
      </trkpt>
      <trkpt lat="43.26573" lon="0.1161">
        <ele>319.2</ele>
        <time>2024-04-17T12:56:33Z</time>
      </trkpt>
      <trkpt lat="43.26569" lon="0.11609">
        <ele>319.2</ele>
        <time>2024-04-17T12:56:34Z</time>
      </trkpt>
      <trkpt lat="43.26566" lon="0.11608">
        <ele>319.2</ele>
        <time>2024-04-17T12:56:35Z</time>
      </trkpt>
      <trkpt lat="43.26562" lon="0.11607">
        <ele>319.2</ele>
        <time>2024-04-17T12:56:36Z</time>
      </trkpt>
      <trkpt lat="43.26558" lon="0.11606">
        <ele>319.2</ele>
        <time>2024-04-17T12:56:37Z</time>
      </trkpt>
      <trkpt lat="43.26554" lon="0.11604">
        <ele>319.2</ele>
        <time>2024-04-17T12:56:38Z</time>
      </trkpt>
      <trkpt lat="43.26551" lon="0.11603">
        <ele>319.2</ele>
        <time>2024-04-17T12:56:39Z</time>
      </trkpt>
      <trkpt lat="43.26547" lon="0.11601">
        <ele>319.2</ele>
        <time>2024-04-17T12:56:40Z</time>
      </trkpt>
      <trkpt lat="43.26543" lon="0.116">
        <ele>319</ele>
        <time>2024-04-17T12:56:41Z</time>
      </trkpt>
      <trkpt lat="43.26539" lon="0.11598">
        <ele>318.8</ele>
        <time>2024-04-17T12:56:42Z</time>
      </trkpt>
      <trkpt lat="43.26535" lon="0.11595">
        <ele>318.8</ele>
        <time>2024-04-17T12:56:43Z</time>
      </trkpt>
      <trkpt lat="43.26531" lon="0.11593">
        <ele>318.8</ele>
        <time>2024-04-17T12:56:44Z</time>
      </trkpt>
      <trkpt lat="43.26527" lon="0.11591">
        <ele>318.6</ele>
        <time>2024-04-17T12:56:45Z</time>
      </trkpt>
      <trkpt lat="43.26522" lon="0.11588">
        <ele>318.6</ele>
        <time>2024-04-17T12:56:46Z</time>
      </trkpt>
      <trkpt lat="43.26518" lon="0.11586">
        <ele>318.4</ele>
        <time>2024-04-17T12:56:47Z</time>
      </trkpt>
      <trkpt lat="43.26515" lon="0.11584">
        <ele>318.2</ele>
        <time>2024-04-17T12:56:48Z</time>
      </trkpt>
      <trkpt lat="43.26511" lon="0.11582">
        <ele>318.2</ele>
        <time>2024-04-17T12:56:49Z</time>
      </trkpt>
      <trkpt lat="43.26507" lon="0.1158">
        <ele>318.2</ele>
        <time>2024-04-17T12:56:50Z</time>
      </trkpt>
      <trkpt lat="43.26502" lon="0.11578">
        <ele>318</ele>
        <time>2024-04-17T12:56:51Z</time>
      </trkpt>
      <trkpt lat="43.26498" lon="0.11574">
        <ele>318</ele>
        <time>2024-04-17T12:56:52Z</time>
      </trkpt>
      <trkpt lat="43.26494" lon="0.11571">
        <ele>317.8</ele>
        <time>2024-04-17T12:56:53Z</time>
      </trkpt>
      <trkpt lat="43.26489" lon="0.11568">
        <ele>317.8</ele>
        <time>2024-04-17T12:56:54Z</time>
      </trkpt>
      <trkpt lat="43.26485" lon="0.11565">
        <ele>317.8</ele>
        <time>2024-04-17T12:56:55Z</time>
      </trkpt>
      <trkpt lat="43.2648" lon="0.11563">
        <ele>317.8</ele>
        <time>2024-04-17T12:56:56Z</time>
      </trkpt>
      <trkpt lat="43.26475" lon="0.11561">
        <ele>317.6</ele>
        <time>2024-04-17T12:56:57Z</time>
      </trkpt>
      <trkpt lat="43.26471" lon="0.11559">
        <ele>317.6</ele>
        <time>2024-04-17T12:56:58Z</time>
      </trkpt>
      <trkpt lat="43.26466" lon="0.11557">
        <ele>317.6</ele>
        <time>2024-04-17T12:56:59Z</time>
      </trkpt>
      <trkpt lat="43.26462" lon="0.11555">
        <ele>317.6</ele>
        <time>2024-04-17T12:57:00Z</time>
      </trkpt>
      <trkpt lat="43.26458" lon="0.11553">
        <ele>317.6</ele>
        <time>2024-04-17T12:57:01Z</time>
      </trkpt>
      <trkpt lat="43.26454" lon="0.11551">
        <ele>317.6</ele>
        <time>2024-04-17T12:57:02Z</time>
      </trkpt>
      <trkpt lat="43.2645" lon="0.11549">
        <ele>317.6</ele>
        <time>2024-04-17T12:57:03Z</time>
      </trkpt>
      <trkpt lat="43.26446" lon="0.11548">
        <ele>317.6</ele>
        <time>2024-04-17T12:57:04Z</time>
      </trkpt>
      <trkpt lat="43.26442" lon="0.11546">
        <ele>317.6</ele>
        <time>2024-04-17T12:57:05Z</time>
      </trkpt>
      <trkpt lat="43.26438" lon="0.11544">
        <ele>317.6</ele>
        <time>2024-04-17T12:57:06Z</time>
      </trkpt>
      <trkpt lat="43.26434" lon="0.11543">
        <ele>317.6</ele>
        <time>2024-04-17T12:57:07Z</time>
      </trkpt>
      <trkpt lat="43.2643" lon="0.11541">
        <ele>317.6</ele>
        <time>2024-04-17T12:57:08Z</time>
      </trkpt>
      <trkpt lat="43.26425" lon="0.11539">
        <ele>317.6</ele>
        <time>2024-04-17T12:57:09Z</time>
      </trkpt>
      <trkpt lat="43.26421" lon="0.11538">
        <ele>317.6</ele>
        <time>2024-04-17T12:57:10Z</time>
      </trkpt>
      <trkpt lat="43.26418" lon="0.11536">
        <ele>317.6</ele>
        <time>2024-04-17T12:57:11Z</time>
      </trkpt>
      <trkpt lat="43.26414" lon="0.11535">
        <ele>318</ele>
        <time>2024-04-17T12:57:12Z</time>
      </trkpt>
      <trkpt lat="43.26411" lon="0.11533">
        <ele>318</ele>
        <time>2024-04-17T12:57:13Z</time>
      </trkpt>
      <trkpt lat="43.26407" lon="0.11532">
        <ele>318.4</ele>
        <time>2024-04-17T12:57:14Z</time>
      </trkpt>
      <trkpt lat="43.26404" lon="0.11531">
        <ele>318.4</ele>
        <time>2024-04-17T12:57:15Z</time>
      </trkpt>
      <trkpt lat="43.26402" lon="0.1153">
        <ele>318.6</ele>
        <time>2024-04-17T12:57:16Z</time>
      </trkpt>
      <trkpt lat="43.26399" lon="0.11528">
        <ele>318.8</ele>
        <time>2024-04-17T12:57:17Z</time>
      </trkpt>
      <trkpt lat="43.26396" lon="0.11527">
        <ele>319</ele>
        <time>2024-04-17T12:57:18Z</time>
      </trkpt>
      <trkpt lat="43.26393" lon="0.11526">
        <ele>319.2</ele>
        <time>2024-04-17T12:57:19Z</time>
      </trkpt>
      <trkpt lat="43.26391" lon="0.11525">
        <ele>319.4</ele>
        <time>2024-04-17T12:57:20Z</time>
      </trkpt>
      <trkpt lat="43.26388" lon="0.11524">
        <ele>319.8</ele>
        <time>2024-04-17T12:57:21Z</time>
      </trkpt>
      <trkpt lat="43.26385" lon="0.11523">
        <ele>319.8</ele>
        <time>2024-04-17T12:57:22Z</time>
      </trkpt>
      <trkpt lat="43.26382" lon="0.11522">
        <ele>320.4</ele>
        <time>2024-04-17T12:57:23Z</time>
      </trkpt>
      <trkpt lat="43.26379" lon="0.11522">
        <ele>320.6</ele>
        <time>2024-04-17T12:57:24Z</time>
      </trkpt>
      <trkpt lat="43.26376" lon="0.11521">
        <ele>320.8</ele>
        <time>2024-04-17T12:57:25Z</time>
      </trkpt>
      <trkpt lat="43.26373" lon="0.11519">
        <ele>320.8</ele>
        <time>2024-04-17T12:57:26Z</time>
      </trkpt>
      <trkpt lat="43.26371" lon="0.11518">
        <ele>320.8</ele>
        <time>2024-04-17T12:57:27Z</time>
      </trkpt>
      <trkpt lat="43.26368" lon="0.11517">
        <ele>320.8</ele>
        <time>2024-04-17T12:57:28Z</time>
      </trkpt>
      <trkpt lat="43.26365" lon="0.11517">
        <ele>321</ele>
        <time>2024-04-17T12:57:29Z</time>
      </trkpt>
      <trkpt lat="43.26362" lon="0.11516">
        <ele>321</ele>
        <time>2024-04-17T12:57:30Z</time>
      </trkpt>
      <trkpt lat="43.26359" lon="0.11516">
        <ele>321</ele>
        <time>2024-04-17T12:57:31Z</time>
      </trkpt>
      <trkpt lat="43.26356" lon="0.11515">
        <ele>321.4</ele>
        <time>2024-04-17T12:57:32Z</time>
      </trkpt>
      <trkpt lat="43.26354" lon="0.11514">
        <ele>321.4</ele>
        <time>2024-04-17T12:57:33Z</time>
      </trkpt>
      <trkpt lat="43.26351" lon="0.11514">
        <ele>321.8</ele>
        <time>2024-04-17T12:57:34Z</time>
      </trkpt>
      <trkpt lat="43.26349" lon="0.11513">
        <ele>322</ele>
        <time>2024-04-17T12:57:35Z</time>
      </trkpt>
      <trkpt lat="43.26346" lon="0.11512">
        <ele>322.4</ele>
        <time>2024-04-17T12:57:36Z</time>
      </trkpt>
      <trkpt lat="43.26343" lon="0.11511">
        <ele>322.8</ele>
        <time>2024-04-17T12:57:37Z</time>
      </trkpt>
      <trkpt lat="43.2634" lon="0.11511">
        <ele>322.8</ele>
        <time>2024-04-17T12:57:38Z</time>
      </trkpt>
      <trkpt lat="43.26338" lon="0.1151">
        <ele>323.2</ele>
        <time>2024-04-17T12:57:39Z</time>
      </trkpt>
      <trkpt lat="43.26335" lon="0.11509">
        <ele>323.4</ele>
        <time>2024-04-17T12:57:40Z</time>
      </trkpt>
      <trkpt lat="43.26332" lon="0.11508">
        <ele>323.6</ele>
        <time>2024-04-17T12:57:41Z</time>
      </trkpt>
      <trkpt lat="43.26329" lon="0.11507">
        <ele>323.6</ele>
        <time>2024-04-17T12:57:42Z</time>
      </trkpt>
      <trkpt lat="43.26327" lon="0.11507">
        <ele>323.6</ele>
        <time>2024-04-17T12:57:43Z</time>
      </trkpt>
      <trkpt lat="43.26324" lon="0.11506">
        <ele>323.8</ele>
        <time>2024-04-17T12:57:44Z</time>
      </trkpt>
      <trkpt lat="43.26322" lon="0.11505">
        <ele>324</ele>
        <time>2024-04-17T12:57:45Z</time>
      </trkpt>
      <trkpt lat="43.26319" lon="0.11504">
        <ele>324</ele>
        <time>2024-04-17T12:57:46Z</time>
      </trkpt>
      <trkpt lat="43.26317" lon="0.11504">
        <ele>324.2</ele>
        <time>2024-04-17T12:57:47Z</time>
      </trkpt>
      <trkpt lat="43.26314" lon="0.11503">
        <ele>324.4</ele>
        <time>2024-04-17T12:57:48Z</time>
      </trkpt>
      <trkpt lat="43.26312" lon="0.11502">
        <ele>324.6</ele>
        <time>2024-04-17T12:57:49Z</time>
      </trkpt>
      <trkpt lat="43.2631" lon="0.11502">
        <ele>324.8</ele>
        <time>2024-04-17T12:57:50Z</time>
      </trkpt>
      <trkpt lat="43.26307" lon="0.11501">
        <ele>324.8</ele>
        <time>2024-04-17T12:57:51Z</time>
      </trkpt>
      <trkpt lat="43.26304" lon="0.11501">
        <ele>325</ele>
        <time>2024-04-17T12:57:52Z</time>
      </trkpt>
      <trkpt lat="43.26301" lon="0.115">
        <ele>325</ele>
        <time>2024-04-17T12:57:53Z</time>
      </trkpt>
      <trkpt lat="43.26298" lon="0.115">
        <ele>325</ele>
        <time>2024-04-17T12:57:54Z</time>
      </trkpt>
      <trkpt lat="43.26295" lon="0.11499">
        <ele>325.2</ele>
        <time>2024-04-17T12:57:55Z</time>
      </trkpt>
      <trkpt lat="43.26292" lon="0.11499">
        <ele>325.2</ele>
        <time>2024-04-17T12:57:56Z</time>
      </trkpt>
      <trkpt lat="43.26289" lon="0.11498">
        <ele>325.4</ele>
        <time>2024-04-17T12:57:57Z</time>
      </trkpt>
      <trkpt lat="43.26286" lon="0.11497">
        <ele>325.6</ele>
        <time>2024-04-17T12:57:58Z</time>
      </trkpt>
      <trkpt lat="43.26283" lon="0.11497">
        <ele>325.8</ele>
        <time>2024-04-17T12:57:59Z</time>
      </trkpt>
      <trkpt lat="43.26279" lon="0.11496">
        <ele>325.8</ele>
        <time>2024-04-17T12:58:00Z</time>
      </trkpt>
      <trkpt lat="43.26276" lon="0.11495">
        <ele>326</ele>
        <time>2024-04-17T12:58:01Z</time>
      </trkpt>
      <trkpt lat="43.26273" lon="0.11495">
        <ele>326.2</ele>
        <time>2024-04-17T12:58:02Z</time>
      </trkpt>
      <trkpt lat="43.26269" lon="0.11495">
        <ele>326.2</ele>
        <time>2024-04-17T12:58:03Z</time>
      </trkpt>
      <trkpt lat="43.26266" lon="0.11494">
        <ele>326.4</ele>
        <time>2024-04-17T12:58:04Z</time>
      </trkpt>
      <trkpt lat="43.26262" lon="0.11494">
        <ele>326.6</ele>
        <time>2024-04-17T12:58:05Z</time>
      </trkpt>
      <trkpt lat="43.26259" lon="0.11495">
        <ele>326.8</ele>
        <time>2024-04-17T12:58:06Z</time>
      </trkpt>
      <trkpt lat="43.26255" lon="0.11494">
        <ele>326.8</ele>
        <time>2024-04-17T12:58:07Z</time>
      </trkpt>
      <trkpt lat="43.26252" lon="0.11494">
        <ele>327</ele>
        <time>2024-04-17T12:58:08Z</time>
      </trkpt>
      <trkpt lat="43.26248" lon="0.11493">
        <ele>327</ele>
        <time>2024-04-17T12:58:09Z</time>
      </trkpt>
      <trkpt lat="43.26244" lon="0.11493">
        <ele>327</ele>
        <time>2024-04-17T12:58:10Z</time>
      </trkpt>
      <trkpt lat="43.2624" lon="0.11492">
        <ele>327</ele>
        <time>2024-04-17T12:58:11Z</time>
      </trkpt>
      <trkpt lat="43.26237" lon="0.11491">
        <ele>327.2</ele>
        <time>2024-04-17T12:58:12Z</time>
      </trkpt>
      <trkpt lat="43.26233" lon="0.11491">
        <ele>327.2</ele>
        <time>2024-04-17T12:58:13Z</time>
      </trkpt>
      <trkpt lat="43.2623" lon="0.1149">
        <ele>327.2</ele>
        <time>2024-04-17T12:58:14Z</time>
      </trkpt>
      <trkpt lat="43.26227" lon="0.1149">
        <ele>327.2</ele>
        <time>2024-04-17T12:58:15Z</time>
      </trkpt>
      <trkpt lat="43.26223" lon="0.1149">
        <ele>327.2</ele>
        <time>2024-04-17T12:58:16Z</time>
      </trkpt>
      <trkpt lat="43.2622" lon="0.1149">
        <ele>327.4</ele>
        <time>2024-04-17T12:58:17Z</time>
      </trkpt>
      <trkpt lat="43.26217" lon="0.11489">
        <ele>327.4</ele>
        <time>2024-04-17T12:58:18Z</time>
      </trkpt>
      <trkpt lat="43.26214" lon="0.1149">
        <ele>327.6</ele>
        <time>2024-04-17T12:58:19Z</time>
      </trkpt>
      <trkpt lat="43.26211" lon="0.1149">
        <ele>327.8</ele>
        <time>2024-04-17T12:58:20Z</time>
      </trkpt>
      <trkpt lat="43.26208" lon="0.1149">
        <ele>327.8</ele>
        <time>2024-04-17T12:58:21Z</time>
      </trkpt>
      <trkpt lat="43.26205" lon="0.1149">
        <ele>328.2</ele>
        <time>2024-04-17T12:58:22Z</time>
      </trkpt>
      <trkpt lat="43.26202" lon="0.1149">
        <ele>328.2</ele>
        <time>2024-04-17T12:58:23Z</time>
      </trkpt>
      <trkpt lat="43.26198" lon="0.11489">
        <ele>328.4</ele>
        <time>2024-04-17T12:58:24Z</time>
      </trkpt>
      <trkpt lat="43.26195" lon="0.11489">
        <ele>328.6</ele>
        <time>2024-04-17T12:58:25Z</time>
      </trkpt>
      <trkpt lat="43.26192" lon="0.11488">
        <ele>328.8</ele>
        <time>2024-04-17T12:58:26Z</time>
      </trkpt>
      <trkpt lat="43.26189" lon="0.11488">
        <ele>329</ele>
        <time>2024-04-17T12:58:27Z</time>
      </trkpt>
      <trkpt lat="43.26186" lon="0.11487">
        <ele>329</ele>
        <time>2024-04-17T12:58:28Z</time>
      </trkpt>
      <trkpt lat="43.26183" lon="0.11486">
        <ele>329.2</ele>
        <time>2024-04-17T12:58:29Z</time>
      </trkpt>
      <trkpt lat="43.2618" lon="0.11485">
        <ele>329.2</ele>
        <time>2024-04-17T12:58:30Z</time>
      </trkpt>
      <trkpt lat="43.26176" lon="0.11485">
        <ele>329.2</ele>
        <time>2024-04-17T12:58:31Z</time>
      </trkpt>
      <trkpt lat="43.26173" lon="0.11484">
        <ele>329.2</ele>
        <time>2024-04-17T12:58:32Z</time>
      </trkpt>
      <trkpt lat="43.2617" lon="0.11483">
        <ele>329.2</ele>
        <time>2024-04-17T12:58:33Z</time>
      </trkpt>
      <trkpt lat="43.26166" lon="0.11482">
        <ele>329.4</ele>
        <time>2024-04-17T12:58:34Z</time>
      </trkpt>
      <trkpt lat="43.26163" lon="0.11481">
        <ele>329.6</ele>
        <time>2024-04-17T12:58:35Z</time>
      </trkpt>
      <trkpt lat="43.2616" lon="0.1148">
        <ele>329.8</ele>
        <time>2024-04-17T12:58:36Z</time>
      </trkpt>
      <trkpt lat="43.26156" lon="0.11479">
        <ele>329.8</ele>
        <time>2024-04-17T12:58:37Z</time>
      </trkpt>
      <trkpt lat="43.26153" lon="0.11479">
        <ele>330</ele>
        <time>2024-04-17T12:58:38Z</time>
      </trkpt>
      <trkpt lat="43.2615" lon="0.11478">
        <ele>330</ele>
        <time>2024-04-17T12:58:39Z</time>
      </trkpt>
      <trkpt lat="43.26147" lon="0.11476">
        <ele>330</ele>
        <time>2024-04-17T12:58:40Z</time>
      </trkpt>
      <trkpt lat="43.26144" lon="0.11475">
        <ele>330.2</ele>
        <time>2024-04-17T12:58:41Z</time>
      </trkpt>
      <trkpt lat="43.26141" lon="0.11473">
        <ele>330.2</ele>
        <time>2024-04-17T12:58:42Z</time>
      </trkpt>
      <trkpt lat="43.26137" lon="0.11471">
        <ele>330.2</ele>
        <time>2024-04-17T12:58:43Z</time>
      </trkpt>
      <trkpt lat="43.26133" lon="0.1147">
        <ele>330.2</ele>
        <time>2024-04-17T12:58:44Z</time>
      </trkpt>
      <trkpt lat="43.26129" lon="0.11468">
        <ele>330.2</ele>
        <time>2024-04-17T12:58:45Z</time>
      </trkpt>
      <trkpt lat="43.26126" lon="0.11465">
        <ele>330.2</ele>
        <time>2024-04-17T12:58:46Z</time>
      </trkpt>
      <trkpt lat="43.26122" lon="0.11464">
        <ele>330.2</ele>
        <time>2024-04-17T12:58:47Z</time>
      </trkpt>
      <trkpt lat="43.26118" lon="0.11462">
        <ele>330.2</ele>
        <time>2024-04-17T12:58:48Z</time>
      </trkpt>
      <trkpt lat="43.26114" lon="0.1146">
        <ele>330.2</ele>
        <time>2024-04-17T12:58:49Z</time>
      </trkpt>
      <trkpt lat="43.26111" lon="0.11458">
        <ele>330.2</ele>
        <time>2024-04-17T12:58:50Z</time>
      </trkpt>
      <trkpt lat="43.26106" lon="0.11456">
        <ele>330.2</ele>
        <time>2024-04-17T12:58:51Z</time>
      </trkpt>
      <trkpt lat="43.26101" lon="0.11453">
        <ele>330</ele>
        <time>2024-04-17T12:58:52Z</time>
      </trkpt>
      <trkpt lat="43.26096" lon="0.1145">
        <ele>329.8</ele>
        <time>2024-04-17T12:58:53Z</time>
      </trkpt>
      <trkpt lat="43.26091" lon="0.11447">
        <ele>329.2</ele>
        <time>2024-04-17T12:58:54Z</time>
      </trkpt>
      <trkpt lat="43.26085" lon="0.11444">
        <ele>329</ele>
        <time>2024-04-17T12:58:55Z</time>
      </trkpt>
      <trkpt lat="43.26079" lon="0.11441">
        <ele>328.8</ele>
        <time>2024-04-17T12:58:56Z</time>
      </trkpt>
      <trkpt lat="43.26073" lon="0.11438">
        <ele>328.8</ele>
        <time>2024-04-17T12:58:57Z</time>
      </trkpt>
      <trkpt lat="43.26067" lon="0.11436">
        <ele>328.6</ele>
        <time>2024-04-17T12:58:58Z</time>
      </trkpt>
      <trkpt lat="43.2606" lon="0.11434">
        <ele>328.4</ele>
        <time>2024-04-17T12:58:59Z</time>
      </trkpt>
      <trkpt lat="43.26054" lon="0.11432">
        <ele>328.2</ele>
        <time>2024-04-17T12:59:00Z</time>
      </trkpt>
      <trkpt lat="43.26049" lon="0.1143">
        <ele>327.6</ele>
        <time>2024-04-17T12:59:01Z</time>
      </trkpt>
      <trkpt lat="43.26043" lon="0.11429">
        <ele>327.4</ele>
        <time>2024-04-17T12:59:02Z</time>
      </trkpt>
      <trkpt lat="43.26037" lon="0.11429">
        <ele>327.2</ele>
        <time>2024-04-17T12:59:03Z</time>
      </trkpt>
      <trkpt lat="43.26032" lon="0.1143">
        <ele>327</ele>
        <time>2024-04-17T12:59:04Z</time>
      </trkpt>
      <trkpt lat="43.26028" lon="0.1143">
        <ele>326.8</ele>
        <time>2024-04-17T12:59:05Z</time>
      </trkpt>
      <trkpt lat="43.26023" lon="0.11431">
        <ele>326.8</ele>
        <time>2024-04-17T12:59:06Z</time>
      </trkpt>
      <trkpt lat="43.26019" lon="0.11433">
        <ele>326.6</ele>
        <time>2024-04-17T12:59:07Z</time>
      </trkpt>
      <trkpt lat="43.26015" lon="0.11435">
        <ele>326.6</ele>
        <time>2024-04-17T12:59:08Z</time>
      </trkpt>
      <trkpt lat="43.26011" lon="0.11437">
        <ele>326.4</ele>
        <time>2024-04-17T12:59:09Z</time>
      </trkpt>
      <trkpt lat="43.26007" lon="0.11439">
        <ele>326.4</ele>
        <time>2024-04-17T12:59:10Z</time>
      </trkpt>
      <trkpt lat="43.26002" lon="0.1144">
        <ele>326.4</ele>
        <time>2024-04-17T12:59:11Z</time>
      </trkpt>
      <trkpt lat="43.25998" lon="0.11441">
        <ele>326.4</ele>
        <time>2024-04-17T12:59:12Z</time>
      </trkpt>
      <trkpt lat="43.25993" lon="0.11443">
        <ele>326.4</ele>
        <time>2024-04-17T12:59:13Z</time>
      </trkpt>
      <trkpt lat="43.25989" lon="0.11443">
        <ele>326.4</ele>
        <time>2024-04-17T12:59:14Z</time>
      </trkpt>
      <trkpt lat="43.25985" lon="0.11443">
        <ele>326.6</ele>
        <time>2024-04-17T12:59:15Z</time>
      </trkpt>
      <trkpt lat="43.25981" lon="0.11444">
        <ele>326.8</ele>
        <time>2024-04-17T12:59:16Z</time>
      </trkpt>
      <trkpt lat="43.25978" lon="0.11445">
        <ele>326.8</ele>
        <time>2024-04-17T12:59:17Z</time>
      </trkpt>
      <trkpt lat="43.25974" lon="0.11446">
        <ele>326.8</ele>
        <time>2024-04-17T12:59:18Z</time>
      </trkpt>
      <trkpt lat="43.2597" lon="0.11446">
        <ele>327</ele>
        <time>2024-04-17T12:59:19Z</time>
      </trkpt>
      <trkpt lat="43.25967" lon="0.11447">
        <ele>327.2</ele>
        <time>2024-04-17T12:59:20Z</time>
      </trkpt>
      <trkpt lat="43.25964" lon="0.11448">
        <ele>327.2</ele>
        <time>2024-04-17T12:59:21Z</time>
      </trkpt>
      <trkpt lat="43.2596" lon="0.11449">
        <ele>327.4</ele>
        <time>2024-04-17T12:59:22Z</time>
      </trkpt>
      <trkpt lat="43.25957" lon="0.1145">
        <ele>327.4</ele>
        <time>2024-04-17T12:59:23Z</time>
      </trkpt>
      <trkpt lat="43.25954" lon="0.11452">
        <ele>327.8</ele>
        <time>2024-04-17T12:59:24Z</time>
      </trkpt>
      <trkpt lat="43.25951" lon="0.11453">
        <ele>327.8</ele>
        <time>2024-04-17T12:59:25Z</time>
      </trkpt>
      <trkpt lat="43.25948" lon="0.11454">
        <ele>328</ele>
        <time>2024-04-17T12:59:26Z</time>
      </trkpt>
      <trkpt lat="43.25945" lon="0.11455">
        <ele>328.2</ele>
        <time>2024-04-17T12:59:27Z</time>
      </trkpt>
      <trkpt lat="43.25941" lon="0.11456">
        <ele>328.4</ele>
        <time>2024-04-17T12:59:28Z</time>
      </trkpt>
      <trkpt lat="43.25938" lon="0.11457">
        <ele>328.6</ele>
        <time>2024-04-17T12:59:29Z</time>
      </trkpt>
      <trkpt lat="43.25935" lon="0.11458">
        <ele>328.8</ele>
        <time>2024-04-17T12:59:30Z</time>
      </trkpt>
      <trkpt lat="43.25932" lon="0.11459">
        <ele>328.8</ele>
        <time>2024-04-17T12:59:31Z</time>
      </trkpt>
      <trkpt lat="43.25929" lon="0.11459">
        <ele>329.2</ele>
        <time>2024-04-17T12:59:32Z</time>
      </trkpt>
      <trkpt lat="43.25925" lon="0.1146">
        <ele>329.8</ele>
        <time>2024-04-17T12:59:33Z</time>
      </trkpt>
      <trkpt lat="43.25922" lon="0.11461">
        <ele>330</ele>
        <time>2024-04-17T12:59:34Z</time>
      </trkpt>
      <trkpt lat="43.25919" lon="0.11462">
        <ele>330.4</ele>
        <time>2024-04-17T12:59:35Z</time>
      </trkpt>
      <trkpt lat="43.25916" lon="0.11463">
        <ele>330.6</ele>
        <time>2024-04-17T12:59:36Z</time>
      </trkpt>
      <trkpt lat="43.25913" lon="0.11463">
        <ele>330.8</ele>
        <time>2024-04-17T12:59:37Z</time>
      </trkpt>
      <trkpt lat="43.2591" lon="0.11464">
        <ele>330.8</ele>
        <time>2024-04-17T12:59:38Z</time>
      </trkpt>
      <trkpt lat="43.25907" lon="0.11465">
        <ele>331</ele>
        <time>2024-04-17T12:59:39Z</time>
      </trkpt>
      <trkpt lat="43.25904" lon="0.11465">
        <ele>331.2</ele>
        <time>2024-04-17T12:59:40Z</time>
      </trkpt>
      <trkpt lat="43.25901" lon="0.11466">
        <ele>331.4</ele>
        <time>2024-04-17T12:59:41Z</time>
      </trkpt>
      <trkpt lat="43.25899" lon="0.11466">
        <ele>331.4</ele>
        <time>2024-04-17T12:59:42Z</time>
      </trkpt>
      <trkpt lat="43.25896" lon="0.11467">
        <ele>331.4</ele>
        <time>2024-04-17T12:59:43Z</time>
      </trkpt>
      <trkpt lat="43.25892" lon="0.11467">
        <ele>331.6</ele>
        <time>2024-04-17T12:59:44Z</time>
      </trkpt>
      <trkpt lat="43.25889" lon="0.11468">
        <ele>331.6</ele>
        <time>2024-04-17T12:59:45Z</time>
      </trkpt>
      <trkpt lat="43.25886" lon="0.11469">
        <ele>331.8</ele>
        <time>2024-04-17T12:59:46Z</time>
      </trkpt>
      <trkpt lat="43.25883" lon="0.1147">
        <ele>331.8</ele>
        <time>2024-04-17T12:59:47Z</time>
      </trkpt>
      <trkpt lat="43.2588" lon="0.11471">
        <ele>332</ele>
        <time>2024-04-17T12:59:48Z</time>
      </trkpt>
      <trkpt lat="43.25877" lon="0.11471">
        <ele>332</ele>
        <time>2024-04-17T12:59:49Z</time>
      </trkpt>
      <trkpt lat="43.25874" lon="0.11472">
        <ele>332.2</ele>
        <time>2024-04-17T12:59:50Z</time>
      </trkpt>
      <trkpt lat="43.25871" lon="0.11472">
        <ele>332.2</ele>
        <time>2024-04-17T12:59:51Z</time>
      </trkpt>
      <trkpt lat="43.25868" lon="0.11473">
        <ele>332.4</ele>
        <time>2024-04-17T12:59:52Z</time>
      </trkpt>
      <trkpt lat="43.25866" lon="0.11474">
        <ele>332.4</ele>
        <time>2024-04-17T12:59:53Z</time>
      </trkpt>
      <trkpt lat="43.25863" lon="0.11474">
        <ele>332.4</ele>
        <time>2024-04-17T12:59:54Z</time>
      </trkpt>
      <trkpt lat="43.2586" lon="0.11475">
        <ele>332.6</ele>
        <time>2024-04-17T12:59:55Z</time>
      </trkpt>
      <trkpt lat="43.25857" lon="0.11476">
        <ele>332.6</ele>
        <time>2024-04-17T12:59:56Z</time>
      </trkpt>
      <trkpt lat="43.25854" lon="0.11476">
        <ele>332.6</ele>
        <time>2024-04-17T12:59:57Z</time>
      </trkpt>
      <trkpt lat="43.25851" lon="0.11477">
        <ele>332.8</ele>
        <time>2024-04-17T12:59:58Z</time>
      </trkpt>
      <trkpt lat="43.25848" lon="0.11477">
        <ele>333</ele>
        <time>2024-04-17T12:59:59Z</time>
      </trkpt>
      <trkpt lat="43.25845" lon="0.11478">
        <ele>333.2</ele>
        <time>2024-04-17T13:00:00Z</time>
      </trkpt>
      <trkpt lat="43.25841" lon="0.11478">
        <ele>333.2</ele>
        <time>2024-04-17T13:00:01Z</time>
      </trkpt>
      <trkpt lat="43.25838" lon="0.11479">
        <ele>333.2</ele>
        <time>2024-04-17T13:00:02Z</time>
      </trkpt>
      <trkpt lat="43.25834" lon="0.1148">
        <ele>333.2</ele>
        <time>2024-04-17T13:00:03Z</time>
      </trkpt>
      <trkpt lat="43.25831" lon="0.11481">
        <ele>333.4</ele>
        <time>2024-04-17T13:00:04Z</time>
      </trkpt>
      <trkpt lat="43.25827" lon="0.11481">
        <ele>333.4</ele>
        <time>2024-04-17T13:00:05Z</time>
      </trkpt>
      <trkpt lat="43.25823" lon="0.11482">
        <ele>333.4</ele>
        <time>2024-04-17T13:00:06Z</time>
      </trkpt>
      <trkpt lat="43.25818" lon="0.11483">
        <ele>333.4</ele>
        <time>2024-04-17T13:00:07Z</time>
      </trkpt>
      <trkpt lat="43.25814" lon="0.11484">
        <ele>333.4</ele>
        <time>2024-04-17T13:00:08Z</time>
      </trkpt>
      <trkpt lat="43.25809" lon="0.11485">
        <ele>333.2</ele>
        <time>2024-04-17T13:00:09Z</time>
      </trkpt>
      <trkpt lat="43.25805" lon="0.11486">
        <ele>333.2</ele>
        <time>2024-04-17T13:00:10Z</time>
      </trkpt>
      <trkpt lat="43.258" lon="0.11488">
        <ele>333</ele>
        <time>2024-04-17T13:00:11Z</time>
      </trkpt>
      <trkpt lat="43.25795" lon="0.11491">
        <ele>333</ele>
        <time>2024-04-17T13:00:12Z</time>
      </trkpt>
      <trkpt lat="43.2579" lon="0.11493">
        <ele>332.8</ele>
        <time>2024-04-17T13:00:13Z</time>
      </trkpt>
      <trkpt lat="43.25786" lon="0.11496">
        <ele>332.6</ele>
        <time>2024-04-17T13:00:14Z</time>
      </trkpt>
      <trkpt lat="43.25781" lon="0.11499">
        <ele>332.6</ele>
        <time>2024-04-17T13:00:15Z</time>
      </trkpt>
      <trkpt lat="43.25776" lon="0.11501">
        <ele>332.4</ele>
        <time>2024-04-17T13:00:16Z</time>
      </trkpt>
      <trkpt lat="43.25772" lon="0.11504">
        <ele>332.2</ele>
        <time>2024-04-17T13:00:17Z</time>
      </trkpt>
      <trkpt lat="43.25767" lon="0.11507">
        <ele>332.2</ele>
        <time>2024-04-17T13:00:18Z</time>
      </trkpt>
      <trkpt lat="43.25763" lon="0.11509">
        <ele>332</ele>
        <time>2024-04-17T13:00:19Z</time>
      </trkpt>
      <trkpt lat="43.25759" lon="0.11512">
        <ele>332</ele>
        <time>2024-04-17T13:00:20Z</time>
      </trkpt>
      <trkpt lat="43.25755" lon="0.11514">
        <ele>331.8</ele>
        <time>2024-04-17T13:00:21Z</time>
      </trkpt>
      <trkpt lat="43.25751" lon="0.11517">
        <ele>331.8</ele>
        <time>2024-04-17T13:00:22Z</time>
      </trkpt>
      <trkpt lat="43.25747" lon="0.1152">
        <ele>331.6</ele>
        <time>2024-04-17T13:00:23Z</time>
      </trkpt>
      <trkpt lat="43.25743" lon="0.11523">
        <ele>331.6</ele>
        <time>2024-04-17T13:00:24Z</time>
      </trkpt>
      <trkpt lat="43.25739" lon="0.11526">
        <ele>331.4</ele>
        <time>2024-04-17T13:00:25Z</time>
      </trkpt>
      <trkpt lat="43.25735" lon="0.11529">
        <ele>331.4</ele>
        <time>2024-04-17T13:00:26Z</time>
      </trkpt>
      <trkpt lat="43.25731" lon="0.11532">
        <ele>331.4</ele>
        <time>2024-04-17T13:00:27Z</time>
      </trkpt>
      <trkpt lat="43.25727" lon="0.11535">
        <ele>331.4</ele>
        <time>2024-04-17T13:00:28Z</time>
      </trkpt>
      <trkpt lat="43.25722" lon="0.11538">
        <ele>331.4</ele>
        <time>2024-04-17T13:00:29Z</time>
      </trkpt>
      <trkpt lat="43.25718" lon="0.11541">
        <ele>331.4</ele>
        <time>2024-04-17T13:00:30Z</time>
      </trkpt>
      <trkpt lat="43.25713" lon="0.11544">
        <ele>331.4</ele>
        <time>2024-04-17T13:00:31Z</time>
      </trkpt>
      <trkpt lat="43.25708" lon="0.11547">
        <ele>331.4</ele>
        <time>2024-04-17T13:00:32Z</time>
      </trkpt>
      <trkpt lat="43.25704" lon="0.1155">
        <ele>331.4</ele>
        <time>2024-04-17T13:00:33Z</time>
      </trkpt>
      <trkpt lat="43.25699" lon="0.11554">
        <ele>331.4</ele>
        <time>2024-04-17T13:00:34Z</time>
      </trkpt>
      <trkpt lat="43.25695" lon="0.11557">
        <ele>331.4</ele>
        <time>2024-04-17T13:00:35Z</time>
      </trkpt>
      <trkpt lat="43.25691" lon="0.11559">
        <ele>331.2</ele>
        <time>2024-04-17T13:00:36Z</time>
      </trkpt>
      <trkpt lat="43.25687" lon="0.11562">
        <ele>331.2</ele>
        <time>2024-04-17T13:00:37Z</time>
      </trkpt>
      <trkpt lat="43.25682" lon="0.11565">
        <ele>331.2</ele>
        <time>2024-04-17T13:00:38Z</time>
      </trkpt>
      <trkpt lat="43.25678" lon="0.11568">
        <ele>331.2</ele>
        <time>2024-04-17T13:00:39Z</time>
      </trkpt>
      <trkpt lat="43.25673" lon="0.1157">
        <ele>331</ele>
        <time>2024-04-17T13:00:40Z</time>
      </trkpt>
      <trkpt lat="43.25669" lon="0.11573">
        <ele>331</ele>
        <time>2024-04-17T13:00:41Z</time>
      </trkpt>
      <trkpt lat="43.25664" lon="0.11575">
        <ele>331</ele>
        <time>2024-04-17T13:00:42Z</time>
      </trkpt>
      <trkpt lat="43.2566" lon="0.11576">
        <ele>331</ele>
        <time>2024-04-17T13:00:43Z</time>
      </trkpt>
      <trkpt lat="43.25655" lon="0.11578">
        <ele>331</ele>
        <time>2024-04-17T13:00:44Z</time>
      </trkpt>
      <trkpt lat="43.25651" lon="0.11579">
        <ele>331</ele>
        <time>2024-04-17T13:00:45Z</time>
      </trkpt>
      <trkpt lat="43.25647" lon="0.11581">
        <ele>331</ele>
        <time>2024-04-17T13:00:46Z</time>
      </trkpt>
      <trkpt lat="43.25643" lon="0.11582">
        <ele>331</ele>
        <time>2024-04-17T13:00:47Z</time>
      </trkpt>
      <trkpt lat="43.25639" lon="0.11584">
        <ele>331</ele>
        <time>2024-04-17T13:00:48Z</time>
      </trkpt>
      <trkpt lat="43.25635" lon="0.11586">
        <ele>331</ele>
        <time>2024-04-17T13:00:49Z</time>
      </trkpt>
      <trkpt lat="43.25631" lon="0.11589">
        <ele>331</ele>
        <time>2024-04-17T13:00:50Z</time>
      </trkpt>
      <trkpt lat="43.25628" lon="0.11592">
        <ele>331</ele>
        <time>2024-04-17T13:00:51Z</time>
      </trkpt>
      <trkpt lat="43.25624" lon="0.11595">
        <ele>331</ele>
        <time>2024-04-17T13:00:52Z</time>
      </trkpt>
      <trkpt lat="43.2562" lon="0.11598">
        <ele>331</ele>
        <time>2024-04-17T13:00:53Z</time>
      </trkpt>
      <trkpt lat="43.25616" lon="0.11601">
        <ele>330.8</ele>
        <time>2024-04-17T13:00:54Z</time>
      </trkpt>
      <trkpt lat="43.25611" lon="0.11603">
        <ele>330.6</ele>
        <time>2024-04-17T13:00:55Z</time>
      </trkpt>
      <trkpt lat="43.25606" lon="0.11605">
        <ele>330.6</ele>
        <time>2024-04-17T13:00:56Z</time>
      </trkpt>
      <trkpt lat="43.25601" lon="0.11607">
        <ele>330.4</ele>
        <time>2024-04-17T13:00:57Z</time>
      </trkpt>
      <trkpt lat="43.25596" lon="0.11609">
        <ele>330.4</ele>
        <time>2024-04-17T13:00:58Z</time>
      </trkpt>
      <trkpt lat="43.25591" lon="0.1161">
        <ele>330.2</ele>
        <time>2024-04-17T13:00:59Z</time>
      </trkpt>
      <trkpt lat="43.25587" lon="0.11612">
        <ele>330.2</ele>
        <time>2024-04-17T13:01:00Z</time>
      </trkpt>
      <trkpt lat="43.25582" lon="0.11613">
        <ele>329.8</ele>
        <time>2024-04-17T13:01:01Z</time>
      </trkpt>
      <trkpt lat="43.25577" lon="0.11615">
        <ele>329.4</ele>
        <time>2024-04-17T13:01:02Z</time>
      </trkpt>
      <trkpt lat="43.25571" lon="0.11617">
        <ele>329.4</ele>
        <time>2024-04-17T13:01:03Z</time>
      </trkpt>
      <trkpt lat="43.25566" lon="0.11619">
        <ele>329.2</ele>
        <time>2024-04-17T13:01:04Z</time>
      </trkpt>
      <trkpt lat="43.2556" lon="0.11621">
        <ele>328.8</ele>
        <time>2024-04-17T13:01:05Z</time>
      </trkpt>
      <trkpt lat="43.25555" lon="0.11623">
        <ele>328.4</ele>
        <time>2024-04-17T13:01:06Z</time>
      </trkpt>
      <trkpt lat="43.25549" lon="0.11624">
        <ele>328.4</ele>
        <time>2024-04-17T13:01:07Z</time>
      </trkpt>
      <trkpt lat="43.25543" lon="0.11625">
        <ele>328.2</ele>
        <time>2024-04-17T13:01:08Z</time>
      </trkpt>
      <trkpt lat="43.25537" lon="0.11626">
        <ele>328.2</ele>
        <time>2024-04-17T13:01:09Z</time>
      </trkpt>
      <trkpt lat="43.25531" lon="0.11627">
        <ele>328</ele>
        <time>2024-04-17T13:01:10Z</time>
      </trkpt>
      <trkpt lat="43.25526" lon="0.11627">
        <ele>327.8</ele>
        <time>2024-04-17T13:01:11Z</time>
      </trkpt>
      <trkpt lat="43.2552" lon="0.11628">
        <ele>327.8</ele>
        <time>2024-04-17T13:01:12Z</time>
      </trkpt>
      <trkpt lat="43.25515" lon="0.11628">
        <ele>327.4</ele>
        <time>2024-04-17T13:01:13Z</time>
      </trkpt>
      <trkpt lat="43.2551" lon="0.11629">
        <ele>327.2</ele>
        <time>2024-04-17T13:01:14Z</time>
      </trkpt>
      <trkpt lat="43.25505" lon="0.11629">
        <ele>327.2</ele>
        <time>2024-04-17T13:01:15Z</time>
      </trkpt>
      <trkpt lat="43.255" lon="0.11629">
        <ele>327</ele>
        <time>2024-04-17T13:01:16Z</time>
      </trkpt>
      <trkpt lat="43.25496" lon="0.1163">
        <ele>327</ele>
        <time>2024-04-17T13:01:17Z</time>
      </trkpt>
      <trkpt lat="43.25491" lon="0.11631">
        <ele>327</ele>
        <time>2024-04-17T13:01:18Z</time>
      </trkpt>
      <trkpt lat="43.25486" lon="0.11631">
        <ele>327</ele>
        <time>2024-04-17T13:01:19Z</time>
      </trkpt>
      <trkpt lat="43.25482" lon="0.11632">
        <ele>327</ele>
        <time>2024-04-17T13:01:20Z</time>
      </trkpt>
      <trkpt lat="43.25477" lon="0.11633">
        <ele>327</ele>
        <time>2024-04-17T13:01:21Z</time>
      </trkpt>
      <trkpt lat="43.25473" lon="0.11634">
        <ele>327</ele>
        <time>2024-04-17T13:01:22Z</time>
      </trkpt>
      <trkpt lat="43.25467" lon="0.11636">
        <ele>326.8</ele>
        <time>2024-04-17T13:01:23Z</time>
      </trkpt>
      <trkpt lat="43.25462" lon="0.11637">
        <ele>326.8</ele>
        <time>2024-04-17T13:01:24Z</time>
      </trkpt>
      <trkpt lat="43.25456" lon="0.11638">
        <ele>326.8</ele>
        <time>2024-04-17T13:01:25Z</time>
      </trkpt>
      <trkpt lat="43.2545" lon="0.11639">
        <ele>326.6</ele>
        <time>2024-04-17T13:01:26Z</time>
      </trkpt>
      <trkpt lat="43.25444" lon="0.11641">
        <ele>326.6</ele>
        <time>2024-04-17T13:01:27Z</time>
      </trkpt>
      <trkpt lat="43.25438" lon="0.11644">
        <ele>326.6</ele>
        <time>2024-04-17T13:01:28Z</time>
      </trkpt>
      <trkpt lat="43.25431" lon="0.11647">
        <ele>326.4</ele>
        <time>2024-04-17T13:01:29Z</time>
      </trkpt>
      <trkpt lat="43.25425" lon="0.1165">
        <ele>326.4</ele>
        <time>2024-04-17T13:01:30Z</time>
      </trkpt>
      <trkpt lat="43.25419" lon="0.11654">
        <ele>326</ele>
        <time>2024-04-17T13:01:31Z</time>
      </trkpt>
      <trkpt lat="43.25413" lon="0.11659">
        <ele>326</ele>
        <time>2024-04-17T13:01:32Z</time>
      </trkpt>
      <trkpt lat="43.25407" lon="0.11665">
        <ele>325.2</ele>
        <time>2024-04-17T13:01:33Z</time>
      </trkpt>
      <trkpt lat="43.25401" lon="0.1167">
        <ele>325</ele>
        <time>2024-04-17T13:01:34Z</time>
      </trkpt>
      <trkpt lat="43.25394" lon="0.11675">
        <ele>324.6</ele>
        <time>2024-04-17T13:01:35Z</time>
      </trkpt>
      <trkpt lat="43.25388" lon="0.1168">
        <ele>324</ele>
        <time>2024-04-17T13:01:36Z</time>
      </trkpt>
      <trkpt lat="43.25382" lon="0.11684">
        <ele>323.6</ele>
        <time>2024-04-17T13:01:37Z</time>
      </trkpt>
      <trkpt lat="43.25376" lon="0.11687">
        <ele>323.4</ele>
        <time>2024-04-17T13:01:38Z</time>
      </trkpt>
      <trkpt lat="43.25371" lon="0.11691">
        <ele>323.4</ele>
        <time>2024-04-17T13:01:39Z</time>
      </trkpt>
      <trkpt lat="43.25365" lon="0.11693">
        <ele>323.2</ele>
        <time>2024-04-17T13:01:40Z</time>
      </trkpt>
      <trkpt lat="43.2536" lon="0.11697">
        <ele>323.2</ele>
        <time>2024-04-17T13:01:41Z</time>
      </trkpt>
      <trkpt lat="43.25355" lon="0.117">
        <ele>323.2</ele>
        <time>2024-04-17T13:01:42Z</time>
      </trkpt>
      <trkpt lat="43.25351" lon="0.11704">
        <ele>323</ele>
        <time>2024-04-17T13:01:43Z</time>
      </trkpt>
      <trkpt lat="43.25346" lon="0.11707">
        <ele>323</ele>
        <time>2024-04-17T13:01:44Z</time>
      </trkpt>
      <trkpt lat="43.25341" lon="0.1171">
        <ele>323</ele>
        <time>2024-04-17T13:01:45Z</time>
      </trkpt>
      <trkpt lat="43.25337" lon="0.11713">
        <ele>323</ele>
        <time>2024-04-17T13:01:46Z</time>
      </trkpt>
      <trkpt lat="43.25333" lon="0.11716">
        <ele>323.2</ele>
        <time>2024-04-17T13:01:47Z</time>
      </trkpt>
      <trkpt lat="43.2533" lon="0.11719">
        <ele>323.2</ele>
        <time>2024-04-17T13:01:48Z</time>
      </trkpt>
      <trkpt lat="43.25326" lon="0.11722">
        <ele>323.4</ele>
        <time>2024-04-17T13:01:49Z</time>
      </trkpt>
      <trkpt lat="43.25322" lon="0.11725">
        <ele>323.6</ele>
        <time>2024-04-17T13:01:50Z</time>
      </trkpt>
      <trkpt lat="43.25319" lon="0.11727">
        <ele>324</ele>
        <time>2024-04-17T13:01:51Z</time>
      </trkpt>
      <trkpt lat="43.25315" lon="0.1173">
        <ele>324.4</ele>
        <time>2024-04-17T13:01:52Z</time>
      </trkpt>
      <trkpt lat="43.25312" lon="0.11732">
        <ele>324.4</ele>
        <time>2024-04-17T13:01:53Z</time>
      </trkpt>
      <trkpt lat="43.25309" lon="0.11734">
        <ele>324.8</ele>
        <time>2024-04-17T13:01:54Z</time>
      </trkpt>
      <trkpt lat="43.25306" lon="0.11737">
        <ele>325</ele>
        <time>2024-04-17T13:01:55Z</time>
      </trkpt>
      <trkpt lat="43.25304" lon="0.11739">
        <ele>325.4</ele>
        <time>2024-04-17T13:01:56Z</time>
      </trkpt>
      <trkpt lat="43.25301" lon="0.11741">
        <ele>325.6</ele>
        <time>2024-04-17T13:01:57Z</time>
      </trkpt>
      <trkpt lat="43.25298" lon="0.11744">
        <ele>325.8</ele>
        <time>2024-04-17T13:01:58Z</time>
      </trkpt>
      <trkpt lat="43.25295" lon="0.11746">
        <ele>326.2</ele>
        <time>2024-04-17T13:01:59Z</time>
      </trkpt>
      <trkpt lat="43.25292" lon="0.11748">
        <ele>326.4</ele>
        <time>2024-04-17T13:02:00Z</time>
      </trkpt>
      <trkpt lat="43.25288" lon="0.1175">
        <ele>326.8</ele>
        <time>2024-04-17T13:02:01Z</time>
      </trkpt>
      <trkpt lat="43.25284" lon="0.11752">
        <ele>326.8</ele>
        <time>2024-04-17T13:02:02Z</time>
      </trkpt>
      <trkpt lat="43.2528" lon="0.11755">
        <ele>327</ele>
        <time>2024-04-17T13:02:03Z</time>
      </trkpt>
      <trkpt lat="43.25277" lon="0.11756">
        <ele>327</ele>
        <time>2024-04-17T13:02:04Z</time>
      </trkpt>
      <trkpt lat="43.25273" lon="0.11757">
        <ele>327.2</ele>
        <time>2024-04-17T13:02:05Z</time>
      </trkpt>
      <trkpt lat="43.25269" lon="0.11758">
        <ele>327.2</ele>
        <time>2024-04-17T13:02:06Z</time>
      </trkpt>
      <trkpt lat="43.25266" lon="0.11759">
        <ele>327.2</ele>
        <time>2024-04-17T13:02:07Z</time>
      </trkpt>
      <trkpt lat="43.25262" lon="0.11761">
        <ele>327.4</ele>
        <time>2024-04-17T13:02:08Z</time>
      </trkpt>
      <trkpt lat="43.25258" lon="0.11763">
        <ele>327.4</ele>
        <time>2024-04-17T13:02:09Z</time>
      </trkpt>
      <trkpt lat="43.25254" lon="0.11764">
        <ele>327.6</ele>
        <time>2024-04-17T13:02:10Z</time>
      </trkpt>
      <trkpt lat="43.2525" lon="0.11765">
        <ele>327.8</ele>
        <time>2024-04-17T13:02:11Z</time>
      </trkpt>
      <trkpt lat="43.25246" lon="0.11767">
        <ele>327.8</ele>
        <time>2024-04-17T13:02:12Z</time>
      </trkpt>
      <trkpt lat="43.25242" lon="0.11768">
        <ele>328</ele>
        <time>2024-04-17T13:02:13Z</time>
      </trkpt>
      <trkpt lat="43.25238" lon="0.11768">
        <ele>328</ele>
        <time>2024-04-17T13:02:14Z</time>
      </trkpt>
      <trkpt lat="43.25234" lon="0.11769">
        <ele>328.2</ele>
        <time>2024-04-17T13:02:15Z</time>
      </trkpt>
      <trkpt lat="43.2523" lon="0.1177">
        <ele>328.4</ele>
        <time>2024-04-17T13:02:16Z</time>
      </trkpt>
      <trkpt lat="43.25226" lon="0.11771">
        <ele>328.6</ele>
        <time>2024-04-17T13:02:17Z</time>
      </trkpt>
      <trkpt lat="43.25223" lon="0.11772">
        <ele>328.6</ele>
        <time>2024-04-17T13:02:18Z</time>
      </trkpt>
      <trkpt lat="43.25219" lon="0.11772">
        <ele>328.6</ele>
        <time>2024-04-17T13:02:19Z</time>
      </trkpt>
      <trkpt lat="43.25216" lon="0.11773">
        <ele>328.6</ele>
        <time>2024-04-17T13:02:20Z</time>
      </trkpt>
      <trkpt lat="43.25212" lon="0.11774">
        <ele>328.6</ele>
        <time>2024-04-17T13:02:21Z</time>
      </trkpt>
      <trkpt lat="43.25209" lon="0.11774">
        <ele>328.6</ele>
        <time>2024-04-17T13:02:22Z</time>
      </trkpt>
      <trkpt lat="43.25205" lon="0.11774">
        <ele>328.8</ele>
        <time>2024-04-17T13:02:23Z</time>
      </trkpt>
      <trkpt lat="43.25201" lon="0.11775">
        <ele>328.8</ele>
        <time>2024-04-17T13:02:24Z</time>
      </trkpt>
      <trkpt lat="43.25197" lon="0.11776">
        <ele>329</ele>
        <time>2024-04-17T13:02:25Z</time>
      </trkpt>
      <trkpt lat="43.25194" lon="0.11776">
        <ele>329</ele>
        <time>2024-04-17T13:02:26Z</time>
      </trkpt>
      <trkpt lat="43.2519" lon="0.11777">
        <ele>329</ele>
        <time>2024-04-17T13:02:27Z</time>
      </trkpt>
      <trkpt lat="43.25186" lon="0.11778">
        <ele>329</ele>
        <time>2024-04-17T13:02:28Z</time>
      </trkpt>
      <trkpt lat="43.25183" lon="0.11779">
        <ele>329.2</ele>
        <time>2024-04-17T13:02:29Z</time>
      </trkpt>
      <trkpt lat="43.25179" lon="0.1178">
        <ele>329.4</ele>
        <time>2024-04-17T13:02:30Z</time>
      </trkpt>
      <trkpt lat="43.25176" lon="0.1178">
        <ele>329.4</ele>
        <time>2024-04-17T13:02:31Z</time>
      </trkpt>
      <trkpt lat="43.25172" lon="0.11781">
        <ele>329.8</ele>
        <time>2024-04-17T13:02:32Z</time>
      </trkpt>
      <trkpt lat="43.25169" lon="0.11781">
        <ele>330</ele>
        <time>2024-04-17T13:02:33Z</time>
      </trkpt>
      <trkpt lat="43.25165" lon="0.11781">
        <ele>330</ele>
        <time>2024-04-17T13:02:34Z</time>
      </trkpt>
      <trkpt lat="43.25161" lon="0.11782">
        <ele>330</ele>
        <time>2024-04-17T13:02:35Z</time>
      </trkpt>
      <trkpt lat="43.25158" lon="0.11782">
        <ele>330.2</ele>
        <time>2024-04-17T13:02:36Z</time>
      </trkpt>
      <trkpt lat="43.25154" lon="0.11782">
        <ele>330.2</ele>
        <time>2024-04-17T13:02:37Z</time>
      </trkpt>
      <trkpt lat="43.25151" lon="0.11783">
        <ele>330.2</ele>
        <time>2024-04-17T13:02:38Z</time>
      </trkpt>
      <trkpt lat="43.25147" lon="0.11784">
        <ele>330.2</ele>
        <time>2024-04-17T13:02:39Z</time>
      </trkpt>
      <trkpt lat="43.25143" lon="0.11785">
        <ele>330.2</ele>
        <time>2024-04-17T13:02:40Z</time>
      </trkpt>
      <trkpt lat="43.2514" lon="0.11787">
        <ele>330.2</ele>
        <time>2024-04-17T13:02:41Z</time>
      </trkpt>
      <trkpt lat="43.25136" lon="0.11788">
        <ele>330.2</ele>
        <time>2024-04-17T13:02:42Z</time>
      </trkpt>
      <trkpt lat="43.25133" lon="0.1179">
        <ele>330.2</ele>
        <time>2024-04-17T13:02:43Z</time>
      </trkpt>
      <trkpt lat="43.25131" lon="0.11794">
        <ele>330.4</ele>
        <time>2024-04-17T13:02:44Z</time>
      </trkpt>
      <trkpt lat="43.2513" lon="0.11799">
        <ele>330.4</ele>
        <time>2024-04-17T13:02:45Z</time>
      </trkpt>
      <trkpt lat="43.2513" lon="0.11805">
        <ele>330.4</ele>
        <time>2024-04-17T13:02:46Z</time>
      </trkpt>
      <trkpt lat="43.2513" lon="0.11812">
        <ele>330.4</ele>
        <time>2024-04-17T13:02:47Z</time>
      </trkpt>
      <trkpt lat="43.25132" lon="0.11819">
        <ele>330.4</ele>
        <time>2024-04-17T13:02:48Z</time>
      </trkpt>
      <trkpt lat="43.25134" lon="0.11826">
        <ele>330.4</ele>
        <time>2024-04-17T13:02:49Z</time>
      </trkpt>
      <trkpt lat="43.25136" lon="0.11834">
        <ele>330.2</ele>
        <time>2024-04-17T13:02:50Z</time>
      </trkpt>
      <trkpt lat="43.25139" lon="0.11842">
        <ele>330</ele>
        <time>2024-04-17T13:02:51Z</time>
      </trkpt>
      <trkpt lat="43.25141" lon="0.11851">
        <ele>330</ele>
        <time>2024-04-17T13:02:52Z</time>
      </trkpt>
      <trkpt lat="43.25144" lon="0.1186">
        <ele>329.6</ele>
        <time>2024-04-17T13:02:53Z</time>
      </trkpt>
      <trkpt lat="43.25146" lon="0.11868">
        <ele>329.4</ele>
        <time>2024-04-17T13:02:54Z</time>
      </trkpt>
      <trkpt lat="43.25148" lon="0.11877">
        <ele>328.8</ele>
        <time>2024-04-17T13:02:55Z</time>
      </trkpt>
      <trkpt lat="43.2515" lon="0.11885">
        <ele>328.4</ele>
        <time>2024-04-17T13:02:56Z</time>
      </trkpt>
      <trkpt lat="43.25153" lon="0.11892">
        <ele>328</ele>
        <time>2024-04-17T13:02:57Z</time>
      </trkpt>
      <trkpt lat="43.25155" lon="0.119">
        <ele>327.6</ele>
        <time>2024-04-17T13:02:58Z</time>
      </trkpt>
      <trkpt lat="43.25157" lon="0.11907">
        <ele>327.4</ele>
        <time>2024-04-17T13:02:59Z</time>
      </trkpt>
      <trkpt lat="43.25157" lon="0.11913">
        <ele>327</ele>
        <time>2024-04-17T13:03:00Z</time>
      </trkpt>
      <trkpt lat="43.25156" lon="0.11921">
        <ele>326.4</ele>
        <time>2024-04-17T13:03:01Z</time>
      </trkpt>
      <trkpt lat="43.25154" lon="0.11928">
        <ele>326</ele>
        <time>2024-04-17T13:03:02Z</time>
      </trkpt>
      <trkpt lat="43.2515" lon="0.11932">
        <ele>325.8</ele>
        <time>2024-04-17T13:03:03Z</time>
      </trkpt>
      <trkpt lat="43.25146" lon="0.11935">
        <ele>325.4</ele>
        <time>2024-04-17T13:03:04Z</time>
      </trkpt>
      <trkpt lat="43.25141" lon="0.11937">
        <ele>325.4</ele>
        <time>2024-04-17T13:03:05Z</time>
      </trkpt>
      <trkpt lat="43.25136" lon="0.11939">
        <ele>325.2</ele>
        <time>2024-04-17T13:03:06Z</time>
      </trkpt>
      <trkpt lat="43.25132" lon="0.11941">
        <ele>325.2</ele>
        <time>2024-04-17T13:03:07Z</time>
      </trkpt>
      <trkpt lat="43.25127" lon="0.11943">
        <ele>325.2</ele>
        <time>2024-04-17T13:03:08Z</time>
      </trkpt>
      <trkpt lat="43.25123" lon="0.11945">
        <ele>325</ele>
        <time>2024-04-17T13:03:09Z</time>
      </trkpt>
      <trkpt lat="43.25119" lon="0.11947">
        <ele>325</ele>
        <time>2024-04-17T13:03:10Z</time>
      </trkpt>
      <trkpt lat="43.25114" lon="0.11949">
        <ele>325</ele>
        <time>2024-04-17T13:03:11Z</time>
      </trkpt>
      <trkpt lat="43.2511" lon="0.1195">
        <ele>325.2</ele>
        <time>2024-04-17T13:03:12Z</time>
      </trkpt>
      <trkpt lat="43.25106" lon="0.11952">
        <ele>325.2</ele>
        <time>2024-04-17T13:03:13Z</time>
      </trkpt>
      <trkpt lat="43.25102" lon="0.11953">
        <ele>325.4</ele>
        <time>2024-04-17T13:03:14Z</time>
      </trkpt>
      <trkpt lat="43.25098" lon="0.11955">
        <ele>325.6</ele>
        <time>2024-04-17T13:03:15Z</time>
      </trkpt>
      <trkpt lat="43.25094" lon="0.11957">
        <ele>325.6</ele>
        <time>2024-04-17T13:03:16Z</time>
      </trkpt>
      <trkpt lat="43.2509" lon="0.11959">
        <ele>325.8</ele>
        <time>2024-04-17T13:03:17Z</time>
      </trkpt>
      <trkpt lat="43.25085" lon="0.11961">
        <ele>326</ele>
        <time>2024-04-17T13:03:18Z</time>
      </trkpt>
      <trkpt lat="43.25081" lon="0.11963">
        <ele>326</ele>
        <time>2024-04-17T13:03:19Z</time>
      </trkpt>
      <trkpt lat="43.25077" lon="0.11965">
        <ele>326.2</ele>
        <time>2024-04-17T13:03:20Z</time>
      </trkpt>
      <trkpt lat="43.25072" lon="0.11967">
        <ele>326.4</ele>
        <time>2024-04-17T13:03:21Z</time>
      </trkpt>
      <trkpt lat="43.25068" lon="0.11968">
        <ele>326.4</ele>
        <time>2024-04-17T13:03:22Z</time>
      </trkpt>
      <trkpt lat="43.25064" lon="0.1197">
        <ele>326.4</ele>
        <time>2024-04-17T13:03:23Z</time>
      </trkpt>
      <trkpt lat="43.2506" lon="0.11972">
        <ele>326.4</ele>
        <time>2024-04-17T13:03:24Z</time>
      </trkpt>
      <trkpt lat="43.25056" lon="0.11974">
        <ele>326.4</ele>
        <time>2024-04-17T13:03:25Z</time>
      </trkpt>
      <trkpt lat="43.25052" lon="0.11976">
        <ele>326.4</ele>
        <time>2024-04-17T13:03:26Z</time>
      </trkpt>
      <trkpt lat="43.25048" lon="0.11978">
        <ele>326.4</ele>
        <time>2024-04-17T13:03:27Z</time>
      </trkpt>
      <trkpt lat="43.25044" lon="0.1198">
        <ele>326.6</ele>
        <time>2024-04-17T13:03:28Z</time>
      </trkpt>
      <trkpt lat="43.2504" lon="0.11982">
        <ele>326.6</ele>
        <time>2024-04-17T13:03:29Z</time>
      </trkpt>
      <trkpt lat="43.25036" lon="0.11984">
        <ele>326.6</ele>
        <time>2024-04-17T13:03:30Z</time>
      </trkpt>
      <trkpt lat="43.25032" lon="0.11985">
        <ele>326.6</ele>
        <time>2024-04-17T13:03:31Z</time>
      </trkpt>
      <trkpt lat="43.25028" lon="0.11987">
        <ele>326.6</ele>
        <time>2024-04-17T13:03:32Z</time>
      </trkpt>
      <trkpt lat="43.25024" lon="0.11989">
        <ele>326.6</ele>
        <time>2024-04-17T13:03:33Z</time>
      </trkpt>
      <trkpt lat="43.2502" lon="0.11992">
        <ele>326.6</ele>
        <time>2024-04-17T13:03:34Z</time>
      </trkpt>
      <trkpt lat="43.25016" lon="0.11993">
        <ele>326.6</ele>
        <time>2024-04-17T13:03:35Z</time>
      </trkpt>
      <trkpt lat="43.25012" lon="0.11995">
        <ele>326.6</ele>
        <time>2024-04-17T13:03:36Z</time>
      </trkpt>
      <trkpt lat="43.25008" lon="0.11997">
        <ele>326.6</ele>
        <time>2024-04-17T13:03:37Z</time>
      </trkpt>
      <trkpt lat="43.25003" lon="0.11999">
        <ele>326.6</ele>
        <time>2024-04-17T13:03:38Z</time>
      </trkpt>
      <trkpt lat="43.25" lon="0.12001">
        <ele>326.6</ele>
        <time>2024-04-17T13:03:39Z</time>
      </trkpt>
      <trkpt lat="43.24996" lon="0.12003">
        <ele>326.6</ele>
        <time>2024-04-17T13:03:40Z</time>
      </trkpt>
      <trkpt lat="43.24992" lon="0.12005">
        <ele>326.8</ele>
        <time>2024-04-17T13:03:41Z</time>
      </trkpt>
      <trkpt lat="43.24988" lon="0.12007">
        <ele>326.8</ele>
        <time>2024-04-17T13:03:42Z</time>
      </trkpt>
      <trkpt lat="43.24984" lon="0.12009">
        <ele>326.8</ele>
        <time>2024-04-17T13:03:43Z</time>
      </trkpt>
      <trkpt lat="43.2498" lon="0.12012">
        <ele>327</ele>
        <time>2024-04-17T13:03:44Z</time>
      </trkpt>
      <trkpt lat="43.24976" lon="0.12014">
        <ele>327</ele>
        <time>2024-04-17T13:03:45Z</time>
      </trkpt>
      <trkpt lat="43.24971" lon="0.12016">
        <ele>327</ele>
        <time>2024-04-17T13:03:46Z</time>
      </trkpt>
      <trkpt lat="43.24967" lon="0.12018">
        <ele>327.2</ele>
        <time>2024-04-17T13:03:47Z</time>
      </trkpt>
      <trkpt lat="43.24964" lon="0.1202">
        <ele>327.2</ele>
        <time>2024-04-17T13:03:48Z</time>
      </trkpt>
      <trkpt lat="43.24959" lon="0.12022">
        <ele>327.4</ele>
        <time>2024-04-17T13:03:49Z</time>
      </trkpt>
      <trkpt lat="43.24955" lon="0.12024">
        <ele>327.4</ele>
        <time>2024-04-17T13:03:50Z</time>
      </trkpt>
      <trkpt lat="43.24951" lon="0.12026">
        <ele>327.4</ele>
        <time>2024-04-17T13:03:51Z</time>
      </trkpt>
      <trkpt lat="43.24947" lon="0.12028">
        <ele>327.4</ele>
        <time>2024-04-17T13:03:52Z</time>
      </trkpt>
      <trkpt lat="43.24943" lon="0.1203">
        <ele>327.6</ele>
        <time>2024-04-17T13:03:53Z</time>
      </trkpt>
      <trkpt lat="43.24939" lon="0.12032">
        <ele>327.6</ele>
        <time>2024-04-17T13:03:54Z</time>
      </trkpt>
      <trkpt lat="43.24935" lon="0.12034">
        <ele>327.6</ele>
        <time>2024-04-17T13:03:55Z</time>
      </trkpt>
      <trkpt lat="43.24931" lon="0.12037">
        <ele>327.6</ele>
        <time>2024-04-17T13:03:56Z</time>
      </trkpt>
      <trkpt lat="43.24927" lon="0.12039">
        <ele>327.8</ele>
        <time>2024-04-17T13:03:57Z</time>
      </trkpt>
      <trkpt lat="43.24922" lon="0.12041">
        <ele>327.8</ele>
        <time>2024-04-17T13:03:58Z</time>
      </trkpt>
      <trkpt lat="43.24918" lon="0.12043">
        <ele>327.8</ele>
        <time>2024-04-17T13:03:59Z</time>
      </trkpt>
      <trkpt lat="43.24914" lon="0.12045">
        <ele>327.8</ele>
        <time>2024-04-17T13:04:00Z</time>
      </trkpt>
      <trkpt lat="43.2491" lon="0.12047">
        <ele>327.8</ele>
        <time>2024-04-17T13:04:01Z</time>
      </trkpt>
      <trkpt lat="43.24906" lon="0.1205">
        <ele>327.8</ele>
        <time>2024-04-17T13:04:02Z</time>
      </trkpt>
      <trkpt lat="43.24902" lon="0.12052">
        <ele>327.8</ele>
        <time>2024-04-17T13:04:03Z</time>
      </trkpt>
      <trkpt lat="43.24899" lon="0.12054">
        <ele>328</ele>
        <time>2024-04-17T13:04:04Z</time>
      </trkpt>
      <trkpt lat="43.24895" lon="0.12055">
        <ele>328</ele>
        <time>2024-04-17T13:04:05Z</time>
      </trkpt>
      <trkpt lat="43.24891" lon="0.12057">
        <ele>328</ele>
        <time>2024-04-17T13:04:06Z</time>
      </trkpt>
      <trkpt lat="43.24887" lon="0.12059">
        <ele>328</ele>
        <time>2024-04-17T13:04:07Z</time>
      </trkpt>
      <trkpt lat="43.24884" lon="0.12061">
        <ele>328</ele>
        <time>2024-04-17T13:04:08Z</time>
      </trkpt>
      <trkpt lat="43.2488" lon="0.12063">
        <ele>328.2</ele>
        <time>2024-04-17T13:04:09Z</time>
      </trkpt>
      <trkpt lat="43.24877" lon="0.12065">
        <ele>328.4</ele>
        <time>2024-04-17T13:04:10Z</time>
      </trkpt>
      <trkpt lat="43.24873" lon="0.12066">
        <ele>328.6</ele>
        <time>2024-04-17T13:04:11Z</time>
      </trkpt>
      <trkpt lat="43.24869" lon="0.12068">
        <ele>328.6</ele>
        <time>2024-04-17T13:04:12Z</time>
      </trkpt>
      <trkpt lat="43.24866" lon="0.1207">
        <ele>328.6</ele>
        <time>2024-04-17T13:04:13Z</time>
      </trkpt>
      <trkpt lat="43.24862" lon="0.12072">
        <ele>328.8</ele>
        <time>2024-04-17T13:04:14Z</time>
      </trkpt>
      <trkpt lat="43.24858" lon="0.12075">
        <ele>328.8</ele>
        <time>2024-04-17T13:04:15Z</time>
      </trkpt>
      <trkpt lat="43.24854" lon="0.12077">
        <ele>328.8</ele>
        <time>2024-04-17T13:04:16Z</time>
      </trkpt>
      <trkpt lat="43.2485" lon="0.12078">
        <ele>329</ele>
        <time>2024-04-17T13:04:17Z</time>
      </trkpt>
      <trkpt lat="43.24847" lon="0.1208">
        <ele>329</ele>
        <time>2024-04-17T13:04:18Z</time>
      </trkpt>
      <trkpt lat="43.24843" lon="0.12082">
        <ele>329</ele>
        <time>2024-04-17T13:04:19Z</time>
      </trkpt>
      <trkpt lat="43.24839" lon="0.12084">
        <ele>329.2</ele>
        <time>2024-04-17T13:04:20Z</time>
      </trkpt>
      <trkpt lat="43.24836" lon="0.12086">
        <ele>329.2</ele>
        <time>2024-04-17T13:04:21Z</time>
      </trkpt>
      <trkpt lat="43.24832" lon="0.12087">
        <ele>329.2</ele>
        <time>2024-04-17T13:04:22Z</time>
      </trkpt>
      <trkpt lat="43.24828" lon="0.12089">
        <ele>329.4</ele>
        <time>2024-04-17T13:04:23Z</time>
      </trkpt>
      <trkpt lat="43.24824" lon="0.12091">
        <ele>329.6</ele>
        <time>2024-04-17T13:04:24Z</time>
      </trkpt>
      <trkpt lat="43.24821" lon="0.12093">
        <ele>329.8</ele>
        <time>2024-04-17T13:04:25Z</time>
      </trkpt>
      <trkpt lat="43.24817" lon="0.12096">
        <ele>330</ele>
        <time>2024-04-17T13:04:26Z</time>
      </trkpt>
      <trkpt lat="43.24813" lon="0.12097">
        <ele>330</ele>
        <time>2024-04-17T13:04:27Z</time>
      </trkpt>
      <trkpt lat="43.2481" lon="0.12099">
        <ele>330.2</ele>
        <time>2024-04-17T13:04:28Z</time>
      </trkpt>
      <trkpt lat="43.24806" lon="0.12101">
        <ele>330.2</ele>
        <time>2024-04-17T13:04:29Z</time>
      </trkpt>
      <trkpt lat="43.24803" lon="0.12102">
        <ele>330.2</ele>
        <time>2024-04-17T13:04:30Z</time>
      </trkpt>
      <trkpt lat="43.248" lon="0.12103">
        <ele>330.4</ele>
        <time>2024-04-17T13:04:31Z</time>
      </trkpt>
      <trkpt lat="43.24796" lon="0.12104">
        <ele>330.4</ele>
        <time>2024-04-17T13:04:32Z</time>
      </trkpt>
      <trkpt lat="43.24793" lon="0.12103">
        <ele>330.8</ele>
        <time>2024-04-17T13:04:33Z</time>
      </trkpt>
      <trkpt lat="43.2479" lon="0.12101">
        <ele>330.8</ele>
        <time>2024-04-17T13:04:34Z</time>
      </trkpt>
      <trkpt lat="43.24787" lon="0.12098">
        <ele>330.8</ele>
        <time>2024-04-17T13:04:35Z</time>
      </trkpt>
      <trkpt lat="43.24785" lon="0.12094">
        <ele>331</ele>
        <time>2024-04-17T13:04:36Z</time>
      </trkpt>
      <trkpt lat="43.24783" lon="0.12091">
        <ele>331.2</ele>
        <time>2024-04-17T13:04:37Z</time>
      </trkpt>
      <trkpt lat="43.24781" lon="0.12087">
        <ele>331.4</ele>
        <time>2024-04-17T13:04:38Z</time>
      </trkpt>
      <trkpt lat="43.24779" lon="0.12082">
        <ele>331.6</ele>
        <time>2024-04-17T13:04:39Z</time>
      </trkpt>
      <trkpt lat="43.24778" lon="0.12078">
        <ele>331.8</ele>
        <time>2024-04-17T13:04:40Z</time>
      </trkpt>
      <trkpt lat="43.24776" lon="0.12074">
        <ele>331.8</ele>
        <time>2024-04-17T13:04:41Z</time>
      </trkpt>
      <trkpt lat="43.24774" lon="0.12071">
        <ele>331.8</ele>
        <time>2024-04-17T13:04:42Z</time>
      </trkpt>
      <trkpt lat="43.24771" lon="0.12069">
        <ele>332</ele>
        <time>2024-04-17T13:04:43Z</time>
      </trkpt>
      <trkpt lat="43.24768" lon="0.12068">
        <ele>332</ele>
        <time>2024-04-17T13:04:44Z</time>
      </trkpt>
      <trkpt lat="43.24765" lon="0.12069">
        <ele>332.2</ele>
        <time>2024-04-17T13:04:45Z</time>
      </trkpt>
      <trkpt lat="43.24761" lon="0.1207">
        <ele>332.2</ele>
        <time>2024-04-17T13:04:46Z</time>
      </trkpt>
      <trkpt lat="43.24757" lon="0.12072">
        <ele>332.4</ele>
        <time>2024-04-17T13:04:47Z</time>
      </trkpt>
      <trkpt lat="43.24754" lon="0.12074">
        <ele>332.4</ele>
        <time>2024-04-17T13:04:48Z</time>
      </trkpt>
      <trkpt lat="43.2475" lon="0.12076">
        <ele>332.6</ele>
        <time>2024-04-17T13:04:49Z</time>
      </trkpt>
      <trkpt lat="43.24746" lon="0.12078">
        <ele>332.6</ele>
        <time>2024-04-17T13:04:50Z</time>
      </trkpt>
      <trkpt lat="43.24742" lon="0.1208">
        <ele>332.8</ele>
        <time>2024-04-17T13:04:51Z</time>
      </trkpt>
      <trkpt lat="43.24738" lon="0.12083">
        <ele>332.8</ele>
        <time>2024-04-17T13:04:52Z</time>
      </trkpt>
      <trkpt lat="43.24734" lon="0.12085">
        <ele>332.8</ele>
        <time>2024-04-17T13:04:53Z</time>
      </trkpt>
      <trkpt lat="43.2473" lon="0.12087">
        <ele>332.8</ele>
        <time>2024-04-17T13:04:54Z</time>
      </trkpt>
      <trkpt lat="43.24726" lon="0.12089">
        <ele>332.8</ele>
        <time>2024-04-17T13:04:55Z</time>
      </trkpt>
      <trkpt lat="43.24723" lon="0.1209">
        <ele>332.6</ele>
        <time>2024-04-17T13:04:56Z</time>
      </trkpt>
      <trkpt lat="43.24719" lon="0.12092">
        <ele>332.6</ele>
        <time>2024-04-17T13:04:57Z</time>
      </trkpt>
      <trkpt lat="43.24715" lon="0.12094">
        <ele>332.4</ele>
        <time>2024-04-17T13:04:58Z</time>
      </trkpt>
      <trkpt lat="43.24711" lon="0.12096">
        <ele>332.4</ele>
        <time>2024-04-17T13:04:59Z</time>
      </trkpt>
      <trkpt lat="43.24706" lon="0.12098">
        <ele>332.4</ele>
        <time>2024-04-17T13:05:00Z</time>
      </trkpt>
      <trkpt lat="43.24702" lon="0.121">
        <ele>332.4</ele>
        <time>2024-04-17T13:05:01Z</time>
      </trkpt>
      <trkpt lat="43.24698" lon="0.12102">
        <ele>332.4</ele>
        <time>2024-04-17T13:05:02Z</time>
      </trkpt>
      <trkpt lat="43.24694" lon="0.12104">
        <ele>332.4</ele>
        <time>2024-04-17T13:05:03Z</time>
      </trkpt>
      <trkpt lat="43.2469" lon="0.12105">
        <ele>332.4</ele>
        <time>2024-04-17T13:05:04Z</time>
      </trkpt>
      <trkpt lat="43.24686" lon="0.12107">
        <ele>332.4</ele>
        <time>2024-04-17T13:05:05Z</time>
      </trkpt>
      <trkpt lat="43.24682" lon="0.12108">
        <ele>332.4</ele>
        <time>2024-04-17T13:05:06Z</time>
      </trkpt>
      <trkpt lat="43.24679" lon="0.1211">
        <ele>332.6</ele>
        <time>2024-04-17T13:05:07Z</time>
      </trkpt>
      <trkpt lat="43.24675" lon="0.12111">
        <ele>332.6</ele>
        <time>2024-04-17T13:05:08Z</time>
      </trkpt>
      <trkpt lat="43.24671" lon="0.12113">
        <ele>332.8</ele>
        <time>2024-04-17T13:05:09Z</time>
      </trkpt>
      <trkpt lat="43.24667" lon="0.12114">
        <ele>333</ele>
        <time>2024-04-17T13:05:10Z</time>
      </trkpt>
      <trkpt lat="43.24664" lon="0.12115">
        <ele>333</ele>
        <time>2024-04-17T13:05:11Z</time>
      </trkpt>
      <trkpt lat="43.24661" lon="0.12117">
        <ele>333.2</ele>
        <time>2024-04-17T13:05:12Z</time>
      </trkpt>
      <trkpt lat="43.24657" lon="0.12119">
        <ele>333.2</ele>
        <time>2024-04-17T13:05:13Z</time>
      </trkpt>
      <trkpt lat="43.24653" lon="0.1212">
        <ele>333.2</ele>
        <time>2024-04-17T13:05:14Z</time>
      </trkpt>
      <trkpt lat="43.2465" lon="0.12121">
        <ele>333.2</ele>
        <time>2024-04-17T13:05:15Z</time>
      </trkpt>
      <trkpt lat="43.24646" lon="0.12123">
        <ele>333.4</ele>
        <time>2024-04-17T13:05:16Z</time>
      </trkpt>
      <trkpt lat="43.24642" lon="0.12124">
        <ele>333.6</ele>
        <time>2024-04-17T13:05:17Z</time>
      </trkpt>
      <trkpt lat="43.24638" lon="0.12126">
        <ele>333.6</ele>
        <time>2024-04-17T13:05:18Z</time>
      </trkpt>
      <trkpt lat="43.24634" lon="0.12127">
        <ele>333.8</ele>
        <time>2024-04-17T13:05:19Z</time>
      </trkpt>
      <trkpt lat="43.24631" lon="0.12129">
        <ele>333.8</ele>
        <time>2024-04-17T13:05:20Z</time>
      </trkpt>
      <trkpt lat="43.24627" lon="0.1213">
        <ele>333.8</ele>
        <time>2024-04-17T13:05:21Z</time>
      </trkpt>
      <trkpt lat="43.24623" lon="0.12131">
        <ele>333.8</ele>
        <time>2024-04-17T13:05:22Z</time>
      </trkpt>
      <trkpt lat="43.24619" lon="0.12133">
        <ele>333.8</ele>
        <time>2024-04-17T13:05:23Z</time>
      </trkpt>
      <trkpt lat="43.24615" lon="0.12134">
        <ele>333.8</ele>
        <time>2024-04-17T13:05:24Z</time>
      </trkpt>
      <trkpt lat="43.24612" lon="0.12135">
        <ele>334</ele>
        <time>2024-04-17T13:05:25Z</time>
      </trkpt>
      <trkpt lat="43.24608" lon="0.12137">
        <ele>334</ele>
        <time>2024-04-17T13:05:26Z</time>
      </trkpt>
      <trkpt lat="43.24605" lon="0.12138">
        <ele>334.2</ele>
        <time>2024-04-17T13:05:27Z</time>
      </trkpt>
      <trkpt lat="43.24601" lon="0.12139">
        <ele>334.2</ele>
        <time>2024-04-17T13:05:28Z</time>
      </trkpt>
      <trkpt lat="43.24598" lon="0.1214">
        <ele>334.2</ele>
        <time>2024-04-17T13:05:29Z</time>
      </trkpt>
      <trkpt lat="43.24595" lon="0.12141">
        <ele>334.4</ele>
        <time>2024-04-17T13:05:30Z</time>
      </trkpt>
      <trkpt lat="43.24591" lon="0.12142">
        <ele>334.4</ele>
        <time>2024-04-17T13:05:31Z</time>
      </trkpt>
      <trkpt lat="43.24588" lon="0.12144">
        <ele>334.6</ele>
        <time>2024-04-17T13:05:32Z</time>
      </trkpt>
      <trkpt lat="43.24584" lon="0.12145">
        <ele>334.6</ele>
        <time>2024-04-17T13:05:33Z</time>
      </trkpt>
      <trkpt lat="43.24581" lon="0.12145">
        <ele>334.8</ele>
        <time>2024-04-17T13:05:34Z</time>
      </trkpt>
      <trkpt lat="43.24577" lon="0.12146">
        <ele>335</ele>
        <time>2024-04-17T13:05:35Z</time>
      </trkpt>
      <trkpt lat="43.24573" lon="0.12147">
        <ele>335</ele>
        <time>2024-04-17T13:05:36Z</time>
      </trkpt>
      <trkpt lat="43.2457" lon="0.12148">
        <ele>335.2</ele>
        <time>2024-04-17T13:05:37Z</time>
      </trkpt>
      <trkpt lat="43.24566" lon="0.12149">
        <ele>335.2</ele>
        <time>2024-04-17T13:05:38Z</time>
      </trkpt>
      <trkpt lat="43.24562" lon="0.1215">
        <ele>335.4</ele>
        <time>2024-04-17T13:05:39Z</time>
      </trkpt>
      <trkpt lat="43.24559" lon="0.12151">
        <ele>335.4</ele>
        <time>2024-04-17T13:05:40Z</time>
      </trkpt>
      <trkpt lat="43.24555" lon="0.12152">
        <ele>335.6</ele>
        <time>2024-04-17T13:05:41Z</time>
      </trkpt>
      <trkpt lat="43.24552" lon="0.12153">
        <ele>335.8</ele>
        <time>2024-04-17T13:05:42Z</time>
      </trkpt>
      <trkpt lat="43.24548" lon="0.12153">
        <ele>335.8</ele>
        <time>2024-04-17T13:05:43Z</time>
      </trkpt>
      <trkpt lat="43.24544" lon="0.12154">
        <ele>336</ele>
        <time>2024-04-17T13:05:44Z</time>
      </trkpt>
      <trkpt lat="43.24541" lon="0.12155">
        <ele>336</ele>
        <time>2024-04-17T13:05:45Z</time>
      </trkpt>
      <trkpt lat="43.24537" lon="0.12156">
        <ele>336</ele>
        <time>2024-04-17T13:05:46Z</time>
      </trkpt>
      <trkpt lat="43.24533" lon="0.12157">
        <ele>336.2</ele>
        <time>2024-04-17T13:05:47Z</time>
      </trkpt>
      <trkpt lat="43.24529" lon="0.12158">
        <ele>336.2</ele>
        <time>2024-04-17T13:05:48Z</time>
      </trkpt>
      <trkpt lat="43.24525" lon="0.12158">
        <ele>336.2</ele>
        <time>2024-04-17T13:05:49Z</time>
      </trkpt>
      <trkpt lat="43.24522" lon="0.12159">
        <ele>336.4</ele>
        <time>2024-04-17T13:05:50Z</time>
      </trkpt>
      <trkpt lat="43.24518" lon="0.1216">
        <ele>336.4</ele>
        <time>2024-04-17T13:05:51Z</time>
      </trkpt>
      <trkpt lat="43.24514" lon="0.12161">
        <ele>336.4</ele>
        <time>2024-04-17T13:05:52Z</time>
      </trkpt>
      <trkpt lat="43.24511" lon="0.12162">
        <ele>336.6</ele>
        <time>2024-04-17T13:05:53Z</time>
      </trkpt>
      <trkpt lat="43.24507" lon="0.12163">
        <ele>336.8</ele>
        <time>2024-04-17T13:05:54Z</time>
      </trkpt>
      <trkpt lat="43.24504" lon="0.12164">
        <ele>336.8</ele>
        <time>2024-04-17T13:05:55Z</time>
      </trkpt>
      <trkpt lat="43.245" lon="0.12165">
        <ele>337</ele>
        <time>2024-04-17T13:05:56Z</time>
      </trkpt>
      <trkpt lat="43.24497" lon="0.12166">
        <ele>337</ele>
        <time>2024-04-17T13:05:57Z</time>
      </trkpt>
      <trkpt lat="43.24493" lon="0.12167">
        <ele>337.2</ele>
        <time>2024-04-17T13:05:58Z</time>
      </trkpt>
      <trkpt lat="43.2449" lon="0.12168">
        <ele>337.2</ele>
        <time>2024-04-17T13:05:59Z</time>
      </trkpt>
      <trkpt lat="43.24486" lon="0.12169">
        <ele>337.4</ele>
        <time>2024-04-17T13:06:00Z</time>
      </trkpt>
      <trkpt lat="43.24482" lon="0.1217">
        <ele>337.4</ele>
        <time>2024-04-17T13:06:01Z</time>
      </trkpt>
      <trkpt lat="43.24478" lon="0.12171">
        <ele>337.6</ele>
        <time>2024-04-17T13:06:02Z</time>
      </trkpt>
      <trkpt lat="43.24474" lon="0.12171">
        <ele>337.6</ele>
        <time>2024-04-17T13:06:03Z</time>
      </trkpt>
      <trkpt lat="43.24471" lon="0.12172">
        <ele>337.6</ele>
        <time>2024-04-17T13:06:04Z</time>
      </trkpt>
      <trkpt lat="43.24466" lon="0.12172">
        <ele>337.6</ele>
        <time>2024-04-17T13:06:05Z</time>
      </trkpt>
      <trkpt lat="43.24462" lon="0.12173">
        <ele>337.6</ele>
        <time>2024-04-17T13:06:06Z</time>
      </trkpt>
      <trkpt lat="43.24458" lon="0.12174">
        <ele>337.4</ele>
        <time>2024-04-17T13:06:07Z</time>
      </trkpt>
      <trkpt lat="43.24454" lon="0.12175">
        <ele>337.4</ele>
        <time>2024-04-17T13:06:08Z</time>
      </trkpt>
      <trkpt lat="43.24449" lon="0.12176">
        <ele>337.4</ele>
        <time>2024-04-17T13:06:09Z</time>
      </trkpt>
      <trkpt lat="43.24445" lon="0.12177">
        <ele>337.4</ele>
        <time>2024-04-17T13:06:10Z</time>
      </trkpt>
      <trkpt lat="43.2444" lon="0.12178">
        <ele>337.2</ele>
        <time>2024-04-17T13:06:11Z</time>
      </trkpt>
      <trkpt lat="43.24435" lon="0.12179">
        <ele>337</ele>
        <time>2024-04-17T13:06:12Z</time>
      </trkpt>
      <trkpt lat="43.2443" lon="0.12181">
        <ele>337</ele>
        <time>2024-04-17T13:06:13Z</time>
      </trkpt>
      <trkpt lat="43.24424" lon="0.12183">
        <ele>336.8</ele>
        <time>2024-04-17T13:06:14Z</time>
      </trkpt>
      <trkpt lat="43.2442" lon="0.12185">
        <ele>336.6</ele>
        <time>2024-04-17T13:06:15Z</time>
      </trkpt>
      <trkpt lat="43.24415" lon="0.12187">
        <ele>336.4</ele>
        <time>2024-04-17T13:06:16Z</time>
      </trkpt>
      <trkpt lat="43.2441" lon="0.12189">
        <ele>336.4</ele>
        <time>2024-04-17T13:06:17Z</time>
      </trkpt>
      <trkpt lat="43.24406" lon="0.12191">
        <ele>336</ele>
        <time>2024-04-17T13:06:18Z</time>
      </trkpt>
      <trkpt lat="43.24402" lon="0.12193">
        <ele>335.8</ele>
        <time>2024-04-17T13:06:19Z</time>
      </trkpt>
      <trkpt lat="43.24398" lon="0.12195">
        <ele>335.6</ele>
        <time>2024-04-17T13:06:20Z</time>
      </trkpt>
      <trkpt lat="43.24394" lon="0.12198">
        <ele>335.4</ele>
        <time>2024-04-17T13:06:21Z</time>
      </trkpt>
      <trkpt lat="43.2439" lon="0.122">
        <ele>335.4</ele>
        <time>2024-04-17T13:06:22Z</time>
      </trkpt>
      <trkpt lat="43.24387" lon="0.12203">
        <ele>335.4</ele>
        <time>2024-04-17T13:06:23Z</time>
      </trkpt>
      <trkpt lat="43.24384" lon="0.12205">
        <ele>335.4</ele>
        <time>2024-04-17T13:06:24Z</time>
      </trkpt>
      <trkpt lat="43.2438" lon="0.12208">
        <ele>335.4</ele>
        <time>2024-04-17T13:06:25Z</time>
      </trkpt>
      <trkpt lat="43.24377" lon="0.12211">
        <ele>335.4</ele>
        <time>2024-04-17T13:06:26Z</time>
      </trkpt>
      <trkpt lat="43.24374" lon="0.12214">
        <ele>335.4</ele>
        <time>2024-04-17T13:06:27Z</time>
      </trkpt>
      <trkpt lat="43.24371" lon="0.12216">
        <ele>335.4</ele>
        <time>2024-04-17T13:06:28Z</time>
      </trkpt>
      <trkpt lat="43.24367" lon="0.12219">
        <ele>335.6</ele>
        <time>2024-04-17T13:06:29Z</time>
      </trkpt>
      <trkpt lat="43.24364" lon="0.12222">
        <ele>335.6</ele>
        <time>2024-04-17T13:06:30Z</time>
      </trkpt>
      <trkpt lat="43.24361" lon="0.12224">
        <ele>335.6</ele>
        <time>2024-04-17T13:06:31Z</time>
      </trkpt>
      <trkpt lat="43.24359" lon="0.12226">
        <ele>335.8</ele>
        <time>2024-04-17T13:06:32Z</time>
      </trkpt>
      <trkpt lat="43.24356" lon="0.12228">
        <ele>336</ele>
        <time>2024-04-17T13:06:33Z</time>
      </trkpt>
      <trkpt lat="43.24354" lon="0.12229">
        <ele>336.2</ele>
        <time>2024-04-17T13:06:34Z</time>
      </trkpt>
      <trkpt lat="43.24352" lon="0.1223">
        <ele>336.4</ele>
        <time>2024-04-17T13:06:35Z</time>
      </trkpt>
      <trkpt lat="43.24351" lon="0.12231">
        <ele>336.8</ele>
        <time>2024-04-17T13:06:36Z</time>
      </trkpt>
      <trkpt lat="43.24351" lon="0.12231">
        <ele>336.8</ele>
        <time>2024-04-17T13:06:37Z</time>
      </trkpt>
      <trkpt lat="43.24351" lon="0.12231">
        <ele>337.2</ele>
        <time>2024-04-17T13:06:38Z</time>
      </trkpt>
      <trkpt lat="43.24351" lon="0.12231">
        <ele>337.6</ele>
        <time>2024-04-17T13:06:39Z</time>
      </trkpt>
      <trkpt lat="43.24351" lon="0.12231">
        <ele>337.6</ele>
        <time>2024-04-17T13:06:40Z</time>
      </trkpt>
      <trkpt lat="43.24351" lon="0.12231">
        <ele>337.8</ele>
        <time>2024-04-17T13:06:41Z</time>
      </trkpt>
      <trkpt lat="43.2435" lon="0.12232">
        <ele>338</ele>
        <time>2024-04-17T13:06:42Z</time>
      </trkpt>
      <trkpt lat="43.24349" lon="0.12233">
        <ele>338</ele>
        <time>2024-04-17T13:06:43Z</time>
      </trkpt>
      <trkpt lat="43.24347" lon="0.12235">
        <ele>338</ele>
        <time>2024-04-17T13:06:44Z</time>
      </trkpt>
      <trkpt lat="43.24345" lon="0.12236">
        <ele>338.2</ele>
        <time>2024-04-17T13:06:45Z</time>
      </trkpt>
      <trkpt lat="43.24342" lon="0.12238">
        <ele>338.2</ele>
        <time>2024-04-17T13:06:46Z</time>
      </trkpt>
      <trkpt lat="43.2434" lon="0.12239">
        <ele>338.2</ele>
        <time>2024-04-17T13:06:47Z</time>
      </trkpt>
      <trkpt lat="43.24337" lon="0.12241">
        <ele>338.2</ele>
        <time>2024-04-17T13:06:48Z</time>
      </trkpt>
      <trkpt lat="43.24334" lon="0.12243">
        <ele>338.2</ele>
        <time>2024-04-17T13:06:49Z</time>
      </trkpt>
      <trkpt lat="43.24331" lon="0.12244">
        <ele>338.2</ele>
        <time>2024-04-17T13:06:50Z</time>
      </trkpt>
      <trkpt lat="43.24328" lon="0.12245">
        <ele>338.2</ele>
        <time>2024-04-17T13:06:51Z</time>
      </trkpt>
      <trkpt lat="43.24325" lon="0.12247">
        <ele>338.4</ele>
        <time>2024-04-17T13:06:52Z</time>
      </trkpt>
      <trkpt lat="43.24322" lon="0.12248">
        <ele>338.4</ele>
        <time>2024-04-17T13:06:53Z</time>
      </trkpt>
      <trkpt lat="43.24319" lon="0.12249">
        <ele>338.4</ele>
        <time>2024-04-17T13:06:54Z</time>
      </trkpt>
      <trkpt lat="43.24317" lon="0.1225">
        <ele>338.6</ele>
        <time>2024-04-17T13:06:55Z</time>
      </trkpt>
      <trkpt lat="43.24314" lon="0.12251">
        <ele>338.6</ele>
        <time>2024-04-17T13:06:56Z</time>
      </trkpt>
      <trkpt lat="43.24311" lon="0.12252">
        <ele>338.8</ele>
        <time>2024-04-17T13:06:57Z</time>
      </trkpt>
      <trkpt lat="43.24309" lon="0.12253">
        <ele>338.8</ele>
        <time>2024-04-17T13:06:58Z</time>
      </trkpt>
      <trkpt lat="43.24306" lon="0.12254">
        <ele>339</ele>
        <time>2024-04-17T13:06:59Z</time>
      </trkpt>
      <trkpt lat="43.24303" lon="0.12255">
        <ele>339</ele>
        <time>2024-04-17T13:07:00Z</time>
      </trkpt>
      <trkpt lat="43.243" lon="0.12256">
        <ele>339.2</ele>
        <time>2024-04-17T13:07:01Z</time>
      </trkpt>
      <trkpt lat="43.24297" lon="0.12257">
        <ele>339.4</ele>
        <time>2024-04-17T13:07:02Z</time>
      </trkpt>
      <trkpt lat="43.24294" lon="0.12258">
        <ele>339.4</ele>
        <time>2024-04-17T13:07:03Z</time>
      </trkpt>
      <trkpt lat="43.24291" lon="0.1226">
        <ele>339.6</ele>
        <time>2024-04-17T13:07:04Z</time>
      </trkpt>
      <trkpt lat="43.24289" lon="0.12262">
        <ele>339.6</ele>
        <time>2024-04-17T13:07:05Z</time>
      </trkpt>
      <trkpt lat="43.24286" lon="0.12263">
        <ele>339.8</ele>
        <time>2024-04-17T13:07:06Z</time>
      </trkpt>
      <trkpt lat="43.24284" lon="0.12265">
        <ele>339.8</ele>
        <time>2024-04-17T13:07:07Z</time>
      </trkpt>
      <trkpt lat="43.24283" lon="0.12268">
        <ele>340</ele>
        <time>2024-04-17T13:07:08Z</time>
      </trkpt>
      <trkpt lat="43.24282" lon="0.1227">
        <ele>340</ele>
        <time>2024-04-17T13:07:09Z</time>
      </trkpt>
      <trkpt lat="43.24281" lon="0.12274">
        <ele>340.2</ele>
        <time>2024-04-17T13:07:10Z</time>
      </trkpt>
      <trkpt lat="43.24282" lon="0.12278">
        <ele>340.2</ele>
        <time>2024-04-17T13:07:11Z</time>
      </trkpt>
      <trkpt lat="43.24283" lon="0.12282">
        <ele>340.2</ele>
        <time>2024-04-17T13:07:12Z</time>
      </trkpt>
      <trkpt lat="43.24284" lon="0.12287">
        <ele>340.2</ele>
        <time>2024-04-17T13:07:13Z</time>
      </trkpt>
      <trkpt lat="43.24285" lon="0.12292">
        <ele>340.2</ele>
        <time>2024-04-17T13:07:14Z</time>
      </trkpt>
      <trkpt lat="43.24286" lon="0.12297">
        <ele>340.2</ele>
        <time>2024-04-17T13:07:15Z</time>
      </trkpt>
      <trkpt lat="43.24287" lon="0.12302">
        <ele>340.2</ele>
        <time>2024-04-17T13:07:16Z</time>
      </trkpt>
      <trkpt lat="43.24288" lon="0.12307">
        <ele>339.8</ele>
        <time>2024-04-17T13:07:17Z</time>
      </trkpt>
      <trkpt lat="43.24289" lon="0.12313">
        <ele>339.6</ele>
        <time>2024-04-17T13:07:18Z</time>
      </trkpt>
      <trkpt lat="43.24291" lon="0.12319">
        <ele>339</ele>
        <time>2024-04-17T13:07:19Z</time>
      </trkpt>
      <trkpt lat="43.24292" lon="0.12325">
        <ele>338.8</ele>
        <time>2024-04-17T13:07:20Z</time>
      </trkpt>
      <trkpt lat="43.24294" lon="0.12332">
        <ele>338.6</ele>
        <time>2024-04-17T13:07:21Z</time>
      </trkpt>
      <trkpt lat="43.24295" lon="0.12339">
        <ele>338.4</ele>
        <time>2024-04-17T13:07:22Z</time>
      </trkpt>
      <trkpt lat="43.24296" lon="0.12345">
        <ele>338.2</ele>
        <time>2024-04-17T13:07:23Z</time>
      </trkpt>
      <trkpt lat="43.24297" lon="0.12351">
        <ele>337.6</ele>
        <time>2024-04-17T13:07:24Z</time>
      </trkpt>
      <trkpt lat="43.24299" lon="0.12357">
        <ele>337.4</ele>
        <time>2024-04-17T13:07:25Z</time>
      </trkpt>
      <trkpt lat="43.243" lon="0.12364">
        <ele>336.8</ele>
        <time>2024-04-17T13:07:26Z</time>
      </trkpt>
      <trkpt lat="43.24301" lon="0.12372">
        <ele>336.6</ele>
        <time>2024-04-17T13:07:27Z</time>
      </trkpt>
      <trkpt lat="43.24303" lon="0.12379">
        <ele>336.4</ele>
        <time>2024-04-17T13:07:28Z</time>
      </trkpt>
      <trkpt lat="43.24304" lon="0.12386">
        <ele>336.2</ele>
        <time>2024-04-17T13:07:29Z</time>
      </trkpt>
      <trkpt lat="43.24305" lon="0.12393">
        <ele>336</ele>
        <time>2024-04-17T13:07:30Z</time>
      </trkpt>
      <trkpt lat="43.24307" lon="0.12401">
        <ele>335.8</ele>
        <time>2024-04-17T13:07:31Z</time>
      </trkpt>
      <trkpt lat="43.24308" lon="0.12408">
        <ele>335.8</ele>
        <time>2024-04-17T13:07:32Z</time>
      </trkpt>
      <trkpt lat="43.2431" lon="0.12415">
        <ele>335.4</ele>
        <time>2024-04-17T13:07:33Z</time>
      </trkpt>
      <trkpt lat="43.24311" lon="0.12422">
        <ele>335.2</ele>
        <time>2024-04-17T13:07:34Z</time>
      </trkpt>
      <trkpt lat="43.24312" lon="0.1243">
        <ele>334.8</ele>
        <time>2024-04-17T13:07:35Z</time>
      </trkpt>
      <trkpt lat="43.24314" lon="0.12437">
        <ele>334.6</ele>
        <time>2024-04-17T13:07:36Z</time>
      </trkpt>
      <trkpt lat="43.24315" lon="0.12445">
        <ele>334.4</ele>
        <time>2024-04-17T13:07:37Z</time>
      </trkpt>
      <trkpt lat="43.24317" lon="0.12453">
        <ele>334</ele>
        <time>2024-04-17T13:07:38Z</time>
      </trkpt>
      <trkpt lat="43.24318" lon="0.12461">
        <ele>334</ele>
        <time>2024-04-17T13:07:39Z</time>
      </trkpt>
      <trkpt lat="43.24319" lon="0.12469">
        <ele>333.6</ele>
        <time>2024-04-17T13:07:40Z</time>
      </trkpt>
      <trkpt lat="43.24321" lon="0.12478">
        <ele>333.4</ele>
        <time>2024-04-17T13:07:41Z</time>
      </trkpt>
      <trkpt lat="43.24322" lon="0.12487">
        <ele>333.2</ele>
        <time>2024-04-17T13:07:42Z</time>
      </trkpt>
      <trkpt lat="43.24323" lon="0.12496">
        <ele>333</ele>
        <time>2024-04-17T13:07:43Z</time>
      </trkpt>
      <trkpt lat="43.24324" lon="0.12505">
        <ele>333</ele>
        <time>2024-04-17T13:07:44Z</time>
      </trkpt>
      <trkpt lat="43.24325" lon="0.12514">
        <ele>332.8</ele>
        <time>2024-04-17T13:07:45Z</time>
      </trkpt>
      <trkpt lat="43.24326" lon="0.12523">
        <ele>332.6</ele>
        <time>2024-04-17T13:07:46Z</time>
      </trkpt>
      <trkpt lat="43.24327" lon="0.12531">
        <ele>332.4</ele>
        <time>2024-04-17T13:07:47Z</time>
      </trkpt>
      <trkpt lat="43.24328" lon="0.1254">
        <ele>332.2</ele>
        <time>2024-04-17T13:07:48Z</time>
      </trkpt>
      <trkpt lat="43.24329" lon="0.12549">
        <ele>332</ele>
        <time>2024-04-17T13:07:49Z</time>
      </trkpt>
      <trkpt lat="43.2433" lon="0.12558">
        <ele>331.8</ele>
        <time>2024-04-17T13:07:50Z</time>
      </trkpt>
      <trkpt lat="43.24331" lon="0.12568">
        <ele>331.8</ele>
        <time>2024-04-17T13:07:51Z</time>
      </trkpt>
      <trkpt lat="43.24332" lon="0.12577">
        <ele>331.6</ele>
        <time>2024-04-17T13:07:52Z</time>
      </trkpt>
      <trkpt lat="43.24333" lon="0.12585">
        <ele>331.6</ele>
        <time>2024-04-17T13:07:53Z</time>
      </trkpt>
      <trkpt lat="43.24334" lon="0.12594">
        <ele>331.4</ele>
        <time>2024-04-17T13:07:54Z</time>
      </trkpt>
      <trkpt lat="43.24335" lon="0.12602">
        <ele>331.4</ele>
        <time>2024-04-17T13:07:55Z</time>
      </trkpt>
      <trkpt lat="43.24336" lon="0.12611">
        <ele>331</ele>
        <time>2024-04-17T13:07:56Z</time>
      </trkpt>
      <trkpt lat="43.24337" lon="0.12619">
        <ele>330.6</ele>
        <time>2024-04-17T13:07:57Z</time>
      </trkpt>
      <trkpt lat="43.24338" lon="0.12627">
        <ele>330.4</ele>
        <time>2024-04-17T13:07:58Z</time>
      </trkpt>
      <trkpt lat="43.24339" lon="0.12634">
        <ele>330.4</ele>
        <time>2024-04-17T13:07:59Z</time>
      </trkpt>
      <trkpt lat="43.2434" lon="0.12642">
        <ele>330.2</ele>
        <time>2024-04-17T13:08:00Z</time>
      </trkpt>
      <trkpt lat="43.24341" lon="0.12649">
        <ele>330</ele>
        <time>2024-04-17T13:08:01Z</time>
      </trkpt>
      <trkpt lat="43.24341" lon="0.12655">
        <ele>330.2</ele>
        <time>2024-04-17T13:08:02Z</time>
      </trkpt>
      <trkpt lat="43.24342" lon="0.12662">
        <ele>330</ele>
        <time>2024-04-17T13:08:03Z</time>
      </trkpt>
      <trkpt lat="43.24343" lon="0.12669">
        <ele>330</ele>
        <time>2024-04-17T13:08:04Z</time>
      </trkpt>
      <trkpt lat="43.24345" lon="0.12676">
        <ele>329.8</ele>
        <time>2024-04-17T13:08:05Z</time>
      </trkpt>
      <trkpt lat="43.24346" lon="0.12683">
        <ele>329.4</ele>
        <time>2024-04-17T13:08:06Z</time>
      </trkpt>
      <trkpt lat="43.24348" lon="0.1269">
        <ele>329.2</ele>
        <time>2024-04-17T13:08:07Z</time>
      </trkpt>
      <trkpt lat="43.24349" lon="0.12698">
        <ele>329.4</ele>
        <time>2024-04-17T13:08:08Z</time>
      </trkpt>
      <trkpt lat="43.2435" lon="0.12706">
        <ele>329.4</ele>
        <time>2024-04-17T13:08:09Z</time>
      </trkpt>
      <trkpt lat="43.24352" lon="0.12714">
        <ele>329.2</ele>
        <time>2024-04-17T13:08:10Z</time>
      </trkpt>
      <trkpt lat="43.24353" lon="0.12722">
        <ele>329.2</ele>
        <time>2024-04-17T13:08:11Z</time>
      </trkpt>
      <trkpt lat="43.24355" lon="0.1273">
        <ele>328.6</ele>
        <time>2024-04-17T13:08:12Z</time>
      </trkpt>
      <trkpt lat="43.24357" lon="0.12739">
        <ele>328.4</ele>
        <time>2024-04-17T13:08:13Z</time>
      </trkpt>
      <trkpt lat="43.24359" lon="0.12747">
        <ele>328</ele>
        <time>2024-04-17T13:08:14Z</time>
      </trkpt>
      <trkpt lat="43.24361" lon="0.12756">
        <ele>327.8</ele>
        <time>2024-04-17T13:08:15Z</time>
      </trkpt>
      <trkpt lat="43.24363" lon="0.12765">
        <ele>327.4</ele>
        <time>2024-04-17T13:08:16Z</time>
      </trkpt>
      <trkpt lat="43.24366" lon="0.12774">
        <ele>327.2</ele>
        <time>2024-04-17T13:08:17Z</time>
      </trkpt>
      <trkpt lat="43.24369" lon="0.12784">
        <ele>326.8</ele>
        <time>2024-04-17T13:08:18Z</time>
      </trkpt>
      <trkpt lat="43.24372" lon="0.12795">
        <ele>326.4</ele>
        <time>2024-04-17T13:08:19Z</time>
      </trkpt>
      <trkpt lat="43.24375" lon="0.12806">
        <ele>326.2</ele>
        <time>2024-04-17T13:08:20Z</time>
      </trkpt>
      <trkpt lat="43.24378" lon="0.12818">
        <ele>325.8</ele>
        <time>2024-04-17T13:08:21Z</time>
      </trkpt>
      <trkpt lat="43.24381" lon="0.12829">
        <ele>325.2</ele>
        <time>2024-04-17T13:08:22Z</time>
      </trkpt>
      <trkpt lat="43.24385" lon="0.12841">
        <ele>323.8</ele>
        <time>2024-04-17T13:08:23Z</time>
      </trkpt>
      <trkpt lat="43.24388" lon="0.12853">
        <ele>323.2</ele>
        <time>2024-04-17T13:08:24Z</time>
      </trkpt>
      <trkpt lat="43.24392" lon="0.12865">
        <ele>322.2</ele>
        <time>2024-04-17T13:08:25Z</time>
      </trkpt>
      <trkpt lat="43.24396" lon="0.12876">
        <ele>321.6</ele>
        <time>2024-04-17T13:08:26Z</time>
      </trkpt>
      <trkpt lat="43.24399" lon="0.12887">
        <ele>321.2</ele>
        <time>2024-04-17T13:08:27Z</time>
      </trkpt>
      <trkpt lat="43.24403" lon="0.12897">
        <ele>320.6</ele>
        <time>2024-04-17T13:08:28Z</time>
      </trkpt>
      <trkpt lat="43.24406" lon="0.12908">
        <ele>320.6</ele>
        <time>2024-04-17T13:08:29Z</time>
      </trkpt>
      <trkpt lat="43.2441" lon="0.12919">
        <ele>320</ele>
        <time>2024-04-17T13:08:30Z</time>
      </trkpt>
      <trkpt lat="43.24413" lon="0.12929">
        <ele>319.6</ele>
        <time>2024-04-17T13:08:31Z</time>
      </trkpt>
      <trkpt lat="43.24417" lon="0.1294">
        <ele>318.8</ele>
        <time>2024-04-17T13:08:32Z</time>
      </trkpt>
      <trkpt lat="43.2442" lon="0.12949">
        <ele>318.4</ele>
        <time>2024-04-17T13:08:33Z</time>
      </trkpt>
      <trkpt lat="43.24423" lon="0.12958">
        <ele>318</ele>
        <time>2024-04-17T13:08:34Z</time>
      </trkpt>
      <trkpt lat="43.24427" lon="0.12968">
        <ele>317.6</ele>
        <time>2024-04-17T13:08:35Z</time>
      </trkpt>
      <trkpt lat="43.2443" lon="0.12976">
        <ele>317.4</ele>
        <time>2024-04-17T13:08:36Z</time>
      </trkpt>
      <trkpt lat="43.24433" lon="0.12985">
        <ele>317.2</ele>
        <time>2024-04-17T13:08:37Z</time>
      </trkpt>
      <trkpt lat="43.24437" lon="0.12993">
        <ele>317.2</ele>
        <time>2024-04-17T13:08:38Z</time>
      </trkpt>
      <trkpt lat="43.2444" lon="0.13002">
        <ele>317</ele>
        <time>2024-04-17T13:08:39Z</time>
      </trkpt>
      <trkpt lat="43.24443" lon="0.13009">
        <ele>316.8</ele>
        <time>2024-04-17T13:08:40Z</time>
      </trkpt>
      <trkpt lat="43.24446" lon="0.13016">
        <ele>316.6</ele>
        <time>2024-04-17T13:08:41Z</time>
      </trkpt>
      <trkpt lat="43.24449" lon="0.13023">
        <ele>316.4</ele>
        <time>2024-04-17T13:08:42Z</time>
      </trkpt>
      <trkpt lat="43.24452" lon="0.1303">
        <ele>315.8</ele>
        <time>2024-04-17T13:08:43Z</time>
      </trkpt>
      <trkpt lat="43.24455" lon="0.13037">
        <ele>315.4</ele>
        <time>2024-04-17T13:08:44Z</time>
      </trkpt>
      <trkpt lat="43.24457" lon="0.13044">
        <ele>315.2</ele>
        <time>2024-04-17T13:08:45Z</time>
      </trkpt>
      <trkpt lat="43.2446" lon="0.13051">
        <ele>315</ele>
        <time>2024-04-17T13:08:46Z</time>
      </trkpt>
      <trkpt lat="43.24463" lon="0.13057">
        <ele>315</ele>
        <time>2024-04-17T13:08:47Z</time>
      </trkpt>
      <trkpt lat="43.24465" lon="0.13062">
        <ele>314.8</ele>
        <time>2024-04-17T13:08:48Z</time>
      </trkpt>
      <trkpt lat="43.24467" lon="0.13068">
        <ele>314.8</ele>
        <time>2024-04-17T13:08:49Z</time>
      </trkpt>
      <trkpt lat="43.24469" lon="0.13073">
        <ele>314.8</ele>
        <time>2024-04-17T13:08:50Z</time>
      </trkpt>
      <trkpt lat="43.24471" lon="0.13079">
        <ele>314.8</ele>
        <time>2024-04-17T13:08:51Z</time>
      </trkpt>
      <trkpt lat="43.24473" lon="0.13084">
        <ele>314.6</ele>
        <time>2024-04-17T13:08:52Z</time>
      </trkpt>
      <trkpt lat="43.24475" lon="0.13089">
        <ele>314.6</ele>
        <time>2024-04-17T13:08:53Z</time>
      </trkpt>
      <trkpt lat="43.24477" lon="0.13095">
        <ele>314.4</ele>
        <time>2024-04-17T13:08:54Z</time>
      </trkpt>
      <trkpt lat="43.24479" lon="0.13099">
        <ele>314.4</ele>
        <time>2024-04-17T13:08:55Z</time>
      </trkpt>
      <trkpt lat="43.2448" lon="0.13103">
        <ele>314.2</ele>
        <time>2024-04-17T13:08:56Z</time>
      </trkpt>
      <trkpt lat="43.24482" lon="0.13106">
        <ele>313.8</ele>
        <time>2024-04-17T13:08:57Z</time>
      </trkpt>
      <trkpt lat="43.24483" lon="0.13109">
        <ele>313.6</ele>
        <time>2024-04-17T13:08:58Z</time>
      </trkpt>
      <trkpt lat="43.24483" lon="0.1311">
        <ele>313.2</ele>
        <time>2024-04-17T13:08:59Z</time>
      </trkpt>
      <trkpt lat="43.24483" lon="0.13111">
        <ele>313</ele>
        <time>2024-04-17T13:09:00Z</time>
      </trkpt>
      <trkpt lat="43.24483" lon="0.13113">
        <ele>313</ele>
        <time>2024-04-17T13:09:01Z</time>
      </trkpt>
      <trkpt lat="43.24483" lon="0.13115">
        <ele>312.8</ele>
        <time>2024-04-17T13:09:02Z</time>
      </trkpt>
      <trkpt lat="43.24484" lon="0.13116">
        <ele>312.6</ele>
        <time>2024-04-17T13:09:03Z</time>
      </trkpt>
      <trkpt lat="43.24484" lon="0.13118">
        <ele>312.6</ele>
        <time>2024-04-17T13:09:04Z</time>
      </trkpt>
      <trkpt lat="43.24484" lon="0.13119">
        <ele>312.6</ele>
        <time>2024-04-17T13:09:05Z</time>
      </trkpt>
      <trkpt lat="43.24484" lon="0.13122">
        <ele>312.4</ele>
        <time>2024-04-17T13:09:06Z</time>
      </trkpt>
      <trkpt lat="43.24484" lon="0.13124">
        <ele>312.4</ele>
        <time>2024-04-17T13:09:07Z</time>
      </trkpt>
      <trkpt lat="43.24484" lon="0.13125">
        <ele>312.2</ele>
        <time>2024-04-17T13:09:08Z</time>
      </trkpt>
      <trkpt lat="43.24483" lon="0.13126">
        <ele>312.2</ele>
        <time>2024-04-17T13:09:09Z</time>
      </trkpt>
      <trkpt lat="43.24482" lon="0.13127">
        <ele>312</ele>
        <time>2024-04-17T13:09:10Z</time>
      </trkpt>
      <trkpt lat="43.24482" lon="0.13128">
        <ele>312</ele>
        <time>2024-04-17T13:09:11Z</time>
      </trkpt>
      <trkpt lat="43.24482" lon="0.13128">
        <ele>312</ele>
        <time>2024-04-17T13:09:12Z</time>
      </trkpt>
      <trkpt lat="43.24482" lon="0.13129">
        <ele>312</ele>
        <time>2024-04-17T13:09:13Z</time>
      </trkpt>
      <trkpt lat="43.24481" lon="0.1313">
        <ele>312</ele>
        <time>2024-04-17T13:09:14Z</time>
      </trkpt>
      <trkpt lat="43.24481" lon="0.13132">
        <ele>312</ele>
        <time>2024-04-17T13:09:15Z</time>
      </trkpt>
      <trkpt lat="43.2448" lon="0.13133">
        <ele>312</ele>
        <time>2024-04-17T13:09:16Z</time>
      </trkpt>
      <trkpt lat="43.2448" lon="0.13134">
        <ele>312</ele>
        <time>2024-04-17T13:09:17Z</time>
      </trkpt>
      <trkpt lat="43.2448" lon="0.13135">
        <ele>312</ele>
        <time>2024-04-17T13:09:18Z</time>
      </trkpt>
      <trkpt lat="43.24479" lon="0.13136">
        <ele>312</ele>
        <time>2024-04-17T13:09:19Z</time>
      </trkpt>
      <trkpt lat="43.24479" lon="0.13136">
        <ele>312</ele>
        <time>2024-04-17T13:09:20Z</time>
      </trkpt>
      <trkpt lat="43.24479" lon="0.13137">
        <ele>312</ele>
        <time>2024-04-17T13:09:21Z</time>
      </trkpt>
      <trkpt lat="43.2448" lon="0.13137">
        <ele>312.2</ele>
        <time>2024-04-17T13:09:22Z</time>
      </trkpt>
      <trkpt lat="43.2448" lon="0.13137">
        <ele>312.2</ele>
        <time>2024-04-17T13:09:23Z</time>
      </trkpt>
      <trkpt lat="43.24479" lon="0.13138">
        <ele>312.4</ele>
        <time>2024-04-17T13:09:24Z</time>
      </trkpt>
      <trkpt lat="43.24478" lon="0.13139">
        <ele>313</ele>
        <time>2024-04-17T13:09:25Z</time>
      </trkpt>
      <trkpt lat="43.24478" lon="0.13141">
        <ele>313.2</ele>
        <time>2024-04-17T13:09:26Z</time>
      </trkpt>
      <trkpt lat="43.24478" lon="0.13141">
        <ele>313.4</ele>
        <time>2024-04-17T13:09:27Z</time>
      </trkpt>
      <trkpt lat="43.24478" lon="0.13141">
        <ele>313.4</ele>
        <time>2024-04-17T13:09:28Z</time>
      </trkpt>
      <trkpt lat="43.24478" lon="0.13141">
        <ele>313.4</ele>
        <time>2024-04-17T13:09:29Z</time>
      </trkpt>
      <trkpt lat="43.24478" lon="0.13141">
        <ele>313.4</ele>
        <time>2024-04-17T13:09:30Z</time>
      </trkpt>
      <trkpt lat="43.24478" lon="0.13141">
        <ele>313.4</ele>
        <time>2024-04-17T13:09:31Z</time>
      </trkpt>
      <trkpt lat="43.24478" lon="0.13141">
        <ele>313.2</ele>
        <time>2024-04-17T13:09:32Z</time>
      </trkpt>
      <trkpt lat="43.24478" lon="0.13141">
        <ele>313</ele>
        <time>2024-04-17T13:09:33Z</time>
      </trkpt>
      <trkpt lat="43.24478" lon="0.13141">
        <ele>312.8</ele>
        <time>2024-04-17T13:09:34Z</time>
      </trkpt>
      <trkpt lat="43.24478" lon="0.13141">
        <ele>312.8</ele>
        <time>2024-04-17T13:09:35Z</time>
      </trkpt>
      <trkpt lat="43.24478" lon="0.13141">
        <ele>312.8</ele>
        <time>2024-04-17T13:09:36Z</time>
      </trkpt>
      <trkpt lat="43.24478" lon="0.13141">
        <ele>312.6</ele>
        <time>2024-04-17T13:09:37Z</time>
      </trkpt>
      <trkpt lat="43.24478" lon="0.13141">
        <ele>312.6</ele>
        <time>2024-04-17T13:09:38Z</time>
      </trkpt>
      <trkpt lat="43.24478" lon="0.13141">
        <ele>312.6</ele>
        <time>2024-04-17T13:09:39Z</time>
      </trkpt>
      <trkpt lat="43.24478" lon="0.13141">
        <ele>312.4</ele>
        <time>2024-04-17T13:09:40Z</time>
      </trkpt>
      <trkpt lat="43.24478" lon="0.13141">
        <ele>312.4</ele>
        <time>2024-04-17T13:09:41Z</time>
      </trkpt>
      <trkpt lat="43.24478" lon="0.13141">
        <ele>312.4</ele>
        <time>2024-04-17T13:09:42Z</time>
      </trkpt>
      <trkpt lat="43.24478" lon="0.13141">
        <ele>312.4</ele>
        <time>2024-04-17T13:09:43Z</time>
      </trkpt>
      <trkpt lat="43.24478" lon="0.13141">
        <ele>312.4</ele>
        <time>2024-04-17T13:09:44Z</time>
      </trkpt>
      <trkpt lat="43.24478" lon="0.13141">
        <ele>312.4</ele>
        <time>2024-04-17T13:09:45Z</time>
      </trkpt>
      <trkpt lat="43.24478" lon="0.13141">
        <ele>312.4</ele>
        <time>2024-04-17T13:09:46Z</time>
      </trkpt>
      <trkpt lat="43.24478" lon="0.13141">
        <ele>312.4</ele>
        <time>2024-04-17T13:09:47Z</time>
      </trkpt>
      <trkpt lat="43.24478" lon="0.13141">
        <ele>312.4</ele>
        <time>2024-04-17T13:09:48Z</time>
      </trkpt>
      <trkpt lat="43.24478" lon="0.13141">
        <ele>312.4</ele>
        <time>2024-04-17T13:09:49Z</time>
      </trkpt>
      <trkpt lat="43.24478" lon="0.13141">
        <ele>312.4</ele>
        <time>2024-04-17T13:09:50Z</time>
      </trkpt>
      <trkpt lat="43.24478" lon="0.13141">
        <ele>312.4</ele>
        <time>2024-04-17T13:09:51Z</time>
      </trkpt>
      <trkpt lat="43.24478" lon="0.13141">
        <ele>312.4</ele>
        <time>2024-04-17T13:09:52Z</time>
      </trkpt>
      <trkpt lat="43.24478" lon="0.13141">
        <ele>312.4</ele>
        <time>2024-04-17T13:09:53Z</time>
      </trkpt>
      <trkpt lat="43.24478" lon="0.13141">
        <ele>312.4</ele>
        <time>2024-04-17T13:09:54Z</time>
      </trkpt>
      <trkpt lat="43.24478" lon="0.13141">
        <ele>312.4</ele>
        <time>2024-04-17T13:09:55Z</time>
      </trkpt>
      <trkpt lat="43.24478" lon="0.13141">
        <ele>312.4</ele>
        <time>2024-04-17T13:09:56Z</time>
      </trkpt>
      <trkpt lat="43.24478" lon="0.13141">
        <ele>312.4</ele>
        <time>2024-04-17T13:09:57Z</time>
      </trkpt>
      <trkpt lat="43.24478" lon="0.13141">
        <ele>312.4</ele>
        <time>2024-04-17T13:09:58Z</time>
      </trkpt>
      <trkpt lat="43.24478" lon="0.13141">
        <ele>312.4</ele>
        <time>2024-04-17T13:09:59Z</time>
      </trkpt>
      <trkpt lat="43.24478" lon="0.13141">
        <ele>312.4</ele>
        <time>2024-04-17T13:10:00Z</time>
      </trkpt>
      <trkpt lat="43.24478" lon="0.13141">
        <ele>312.4</ele>
        <time>2024-04-17T13:10:01Z</time>
      </trkpt>
      <trkpt lat="43.24478" lon="0.13141">
        <ele>312.2</ele>
        <time>2024-04-17T13:10:02Z</time>
      </trkpt>
      <trkpt lat="43.24478" lon="0.13141">
        <ele>312.2</ele>
        <time>2024-04-17T13:10:03Z</time>
      </trkpt>
      <trkpt lat="43.24478" lon="0.13141">
        <ele>312.2</ele>
        <time>2024-04-17T13:10:04Z</time>
      </trkpt>
      <trkpt lat="43.24478" lon="0.13141">
        <ele>312.2</ele>
        <time>2024-04-17T13:10:05Z</time>
      </trkpt>
      <trkpt lat="43.24478" lon="0.13141">
        <ele>312.2</ele>
        <time>2024-04-17T13:10:06Z</time>
      </trkpt>
      <trkpt lat="43.24478" lon="0.13141">
        <ele>312.2</ele>
        <time>2024-04-17T13:10:07Z</time>
      </trkpt>
      <trkpt lat="43.24478" lon="0.13141">
        <ele>312.2</ele>
        <time>2024-04-17T13:10:08Z</time>
      </trkpt>
      <trkpt lat="43.24478" lon="0.13141">
        <ele>312.2</ele>
        <time>2024-04-17T13:10:09Z</time>
      </trkpt>
      <trkpt lat="43.24478" lon="0.13141">
        <ele>312.2</ele>
        <time>2024-04-17T13:10:10Z</time>
      </trkpt>
      <trkpt lat="43.24478" lon="0.13141">
        <ele>312.2</ele>
        <time>2024-04-17T13:10:11Z</time>
      </trkpt>
      <trkpt lat="43.24478" lon="0.13141">
        <ele>312.2</ele>
        <time>2024-04-17T13:10:12Z</time>
      </trkpt>
      <trkpt lat="43.24478" lon="0.13141">
        <ele>312.2</ele>
        <time>2024-04-17T13:10:13Z</time>
      </trkpt>
      <trkpt lat="43.24478" lon="0.13141">
        <ele>312.2</ele>
        <time>2024-04-17T13:10:14Z</time>
      </trkpt>
      <trkpt lat="43.24478" lon="0.13141">
        <ele>312.2</ele>
        <time>2024-04-17T13:10:15Z</time>
      </trkpt>
      <trkpt lat="43.24478" lon="0.13141">
        <ele>312.2</ele>
        <time>2024-04-17T13:10:16Z</time>
      </trkpt>
      <trkpt lat="43.24478" lon="0.13141">
        <ele>312.2</ele>
        <time>2024-04-17T13:10:17Z</time>
      </trkpt>
      <trkpt lat="43.24478" lon="0.13141">
        <ele>312</ele>
        <time>2024-04-17T13:10:18Z</time>
      </trkpt>
      <trkpt lat="43.24478" lon="0.13141">
        <ele>312</ele>
        <time>2024-04-17T13:10:19Z</time>
      </trkpt>
      <trkpt lat="43.24478" lon="0.13141">
        <ele>312</ele>
        <time>2024-04-17T13:10:20Z</time>
      </trkpt>
      <trkpt lat="43.24478" lon="0.13141">
        <ele>312</ele>
        <time>2024-04-17T13:10:21Z</time>
      </trkpt>
      <trkpt lat="43.24478" lon="0.13141">
        <ele>312</ele>
        <time>2024-04-17T13:10:22Z</time>
      </trkpt>
      <trkpt lat="43.24478" lon="0.13141">
        <ele>312</ele>
        <time>2024-04-17T13:10:23Z</time>
      </trkpt>
      <trkpt lat="43.24478" lon="0.13141">
        <ele>312</ele>
        <time>2024-04-17T13:10:24Z</time>
      </trkpt>
      <trkpt lat="43.24478" lon="0.13141">
        <ele>312</ele>
        <time>2024-04-17T13:10:25Z</time>
      </trkpt>
      <trkpt lat="43.24478" lon="0.13141">
        <ele>312</ele>
        <time>2024-04-17T13:10:26Z</time>
      </trkpt>
      <trkpt lat="43.24478" lon="0.13141">
        <ele>312</ele>
        <time>2024-04-17T13:10:27Z</time>
      </trkpt>
      <trkpt lat="43.24478" lon="0.13141">
        <ele>312</ele>
        <time>2024-04-17T13:10:28Z</time>
      </trkpt>
      <trkpt lat="43.24478" lon="0.13141">
        <ele>312</ele>
        <time>2024-04-17T13:10:29Z</time>
      </trkpt>
      <trkpt lat="43.24478" lon="0.13141">
        <ele>312</ele>
        <time>2024-04-17T13:10:30Z</time>
      </trkpt>
      <trkpt lat="43.24478" lon="0.13141">
        <ele>312</ele>
        <time>2024-04-17T13:10:31Z</time>
      </trkpt>
      <trkpt lat="43.24478" lon="0.13141">
        <ele>312</ele>
        <time>2024-04-17T13:10:32Z</time>
      </trkpt>
      <trkpt lat="43.24478" lon="0.13141">
        <ele>312</ele>
        <time>2024-04-17T13:10:33Z</time>
      </trkpt>
      <trkpt lat="43.24478" lon="0.13141">
        <ele>312</ele>
        <time>2024-04-17T13:10:34Z</time>
      </trkpt>
      <trkpt lat="43.24478" lon="0.13141">
        <ele>312</ele>
        <time>2024-04-17T13:10:35Z</time>
      </trkpt>
      <trkpt lat="43.24478" lon="0.13141">
        <ele>312</ele>
        <time>2024-04-17T13:10:36Z</time>
      </trkpt>
      <trkpt lat="43.24478" lon="0.13141">
        <ele>312</ele>
        <time>2024-04-17T13:10:37Z</time>
      </trkpt>
      <trkpt lat="43.24478" lon="0.13141">
        <ele>312</ele>
        <time>2024-04-17T13:10:38Z</time>
      </trkpt>
      <trkpt lat="43.24478" lon="0.13141">
        <ele>312</ele>
        <time>2024-04-17T13:10:39Z</time>
      </trkpt>
      <trkpt lat="43.24478" lon="0.13141">
        <ele>312</ele>
        <time>2024-04-17T13:10:40Z</time>
      </trkpt>
      <trkpt lat="43.24478" lon="0.13141">
        <ele>312.2</ele>
        <time>2024-04-17T13:10:41Z</time>
      </trkpt>
      <trkpt lat="43.24478" lon="0.13143">
        <ele>312.2</ele>
        <time>2024-04-17T13:10:42Z</time>
      </trkpt>
      <trkpt lat="43.24477" lon="0.13144">
        <ele>312.4</ele>
        <time>2024-04-17T13:10:43Z</time>
      </trkpt>
      <trkpt lat="43.24477" lon="0.13146">
        <ele>312.4</ele>
        <time>2024-04-17T13:10:44Z</time>
      </trkpt>
      <trkpt lat="43.24477" lon="0.13146">
        <ele>312.4</ele>
        <time>2024-04-17T13:10:45Z</time>
      </trkpt>
      <trkpt lat="43.24477" lon="0.13146">
        <ele>312.4</ele>
        <time>2024-04-17T13:10:46Z</time>
      </trkpt>
      <trkpt lat="43.24477" lon="0.13146">
        <ele>312.6</ele>
        <time>2024-04-17T13:10:47Z</time>
      </trkpt>
      <trkpt lat="43.24477" lon="0.13146">
        <ele>312.6</ele>
        <time>2024-04-17T13:10:48Z</time>
      </trkpt>
      <trkpt lat="43.24477" lon="0.13146">
        <ele>312.6</ele>
        <time>2024-04-17T13:10:49Z</time>
      </trkpt>
      <trkpt lat="43.24477" lon="0.13146">
        <ele>312.6</ele>
        <time>2024-04-17T13:10:50Z</time>
      </trkpt>
      <trkpt lat="43.24477" lon="0.13146">
        <ele>312.6</ele>
        <time>2024-04-17T13:10:51Z</time>
      </trkpt>
      <trkpt lat="43.24477" lon="0.13146">
        <ele>312.6</ele>
        <time>2024-04-17T13:10:52Z</time>
      </trkpt>
      <trkpt lat="43.24477" lon="0.13146">
        <ele>312.6</ele>
        <time>2024-04-17T13:10:53Z</time>
      </trkpt>
      <trkpt lat="43.24477" lon="0.13146">
        <ele>312.6</ele>
        <time>2024-04-17T13:10:54Z</time>
      </trkpt>
      <trkpt lat="43.24477" lon="0.13146">
        <ele>312.8</ele>
        <time>2024-04-17T13:10:55Z</time>
      </trkpt>
      <trkpt lat="43.24477" lon="0.13146">
        <ele>312.8</ele>
        <time>2024-04-17T13:10:56Z</time>
      </trkpt>
      <trkpt lat="43.24477" lon="0.13146">
        <ele>312.8</ele>
        <time>2024-04-17T13:10:57Z</time>
      </trkpt>
      <trkpt lat="43.24477" lon="0.13146">
        <ele>312.8</ele>
        <time>2024-04-17T13:10:58Z</time>
      </trkpt>
      <trkpt lat="43.24476" lon="0.13147">
        <ele>312.8</ele>
        <time>2024-04-17T13:10:59Z</time>
      </trkpt>
      <trkpt lat="43.24476" lon="0.13147">
        <ele>312.8</ele>
        <time>2024-04-17T13:11:00Z</time>
      </trkpt>
      <trkpt lat="43.24476" lon="0.13147">
        <ele>312.8</ele>
        <time>2024-04-17T13:11:01Z</time>
      </trkpt>
      <trkpt lat="43.24476" lon="0.13147">
        <ele>312.8</ele>
        <time>2024-04-17T13:11:02Z</time>
      </trkpt>
      <trkpt lat="43.24476" lon="0.13147">
        <ele>312.8</ele>
        <time>2024-04-17T13:11:03Z</time>
      </trkpt>
      <trkpt lat="43.24476" lon="0.13147">
        <ele>312.8</ele>
        <time>2024-04-17T13:11:04Z</time>
      </trkpt>
      <trkpt lat="43.24476" lon="0.13147">
        <ele>312.8</ele>
        <time>2024-04-17T13:11:05Z</time>
      </trkpt>
      <trkpt lat="43.24476" lon="0.13147">
        <ele>312.8</ele>
        <time>2024-04-17T13:11:06Z</time>
      </trkpt>
      <trkpt lat="43.24476" lon="0.13147">
        <ele>312.8</ele>
        <time>2024-04-17T13:11:07Z</time>
      </trkpt>
      <trkpt lat="43.24476" lon="0.13147">
        <ele>312.8</ele>
        <time>2024-04-17T13:11:08Z</time>
      </trkpt>
      <trkpt lat="43.24476" lon="0.13147">
        <ele>312.8</ele>
        <time>2024-04-17T13:11:09Z</time>
      </trkpt>
      <trkpt lat="43.24476" lon="0.13147">
        <ele>312.8</ele>
        <time>2024-04-17T13:11:10Z</time>
      </trkpt>
      <trkpt lat="43.24476" lon="0.13147">
        <ele>312.8</ele>
        <time>2024-04-17T13:11:11Z</time>
      </trkpt>
      <trkpt lat="43.24476" lon="0.13147">
        <ele>313</ele>
        <time>2024-04-17T13:11:12Z</time>
      </trkpt>
      <trkpt lat="43.24476" lon="0.13147">
        <ele>313</ele>
        <time>2024-04-17T13:11:13Z</time>
      </trkpt>
      <trkpt lat="43.24476" lon="0.13147">
        <ele>313</ele>
        <time>2024-04-17T13:11:14Z</time>
      </trkpt>
      <trkpt lat="43.24476" lon="0.13147">
        <ele>313</ele>
        <time>2024-04-17T13:11:15Z</time>
      </trkpt>
      <trkpt lat="43.24476" lon="0.13147">
        <ele>313</ele>
        <time>2024-04-17T13:11:16Z</time>
      </trkpt>
      <trkpt lat="43.24476" lon="0.13147">
        <ele>313</ele>
        <time>2024-04-17T13:11:17Z</time>
      </trkpt>
      <trkpt lat="43.24476" lon="0.13147">
        <ele>313</ele>
        <time>2024-04-17T13:11:18Z</time>
      </trkpt>
      <trkpt lat="43.24476" lon="0.13147">
        <ele>313</ele>
        <time>2024-04-17T13:11:19Z</time>
      </trkpt>
      <trkpt lat="43.24476" lon="0.13147">
        <ele>313</ele>
        <time>2024-04-17T13:11:20Z</time>
      </trkpt>
      <trkpt lat="43.24476" lon="0.13147">
        <ele>313</ele>
        <time>2024-04-17T13:11:21Z</time>
      </trkpt>
      <trkpt lat="43.24476" lon="0.13147">
        <ele>313</ele>
        <time>2024-04-17T13:11:22Z</time>
      </trkpt>
      <trkpt lat="43.24476" lon="0.13147">
        <ele>313</ele>
        <time>2024-04-17T13:11:23Z</time>
      </trkpt>
      <trkpt lat="43.24476" lon="0.13147">
        <ele>313</ele>
        <time>2024-04-17T13:11:24Z</time>
      </trkpt>
      <trkpt lat="43.24476" lon="0.13147">
        <ele>313</ele>
        <time>2024-04-17T13:11:25Z</time>
      </trkpt>
      <trkpt lat="43.24476" lon="0.13147">
        <ele>313</ele>
        <time>2024-04-17T13:11:26Z</time>
      </trkpt>
      <trkpt lat="43.24476" lon="0.13147">
        <ele>313</ele>
        <time>2024-04-17T13:11:27Z</time>
      </trkpt>
      <trkpt lat="43.24476" lon="0.13147">
        <ele>313</ele>
        <time>2024-04-17T13:11:28Z</time>
      </trkpt>
      <trkpt lat="43.24476" lon="0.13147">
        <ele>313</ele>
        <time>2024-04-17T13:11:29Z</time>
      </trkpt>
      <trkpt lat="43.24476" lon="0.13147">
        <ele>313</ele>
        <time>2024-04-17T13:11:30Z</time>
      </trkpt>
      <trkpt lat="43.24476" lon="0.13147">
        <ele>313</ele>
        <time>2024-04-17T13:11:31Z</time>
      </trkpt>
      <trkpt lat="43.24476" lon="0.13147">
        <ele>313</ele>
        <time>2024-04-17T13:11:32Z</time>
      </trkpt>
      <trkpt lat="43.24476" lon="0.13147">
        <ele>313</ele>
        <time>2024-04-17T13:11:33Z</time>
      </trkpt>
      <trkpt lat="43.24476" lon="0.13147">
        <ele>313</ele>
        <time>2024-04-17T13:11:34Z</time>
      </trkpt>
      <trkpt lat="43.24476" lon="0.13147">
        <ele>313</ele>
        <time>2024-04-17T13:11:35Z</time>
      </trkpt>
      <trkpt lat="43.24476" lon="0.13147">
        <ele>313</ele>
        <time>2024-04-17T13:11:36Z</time>
      </trkpt>
      <trkpt lat="43.24476" lon="0.13147">
        <ele>313.2</ele>
        <time>2024-04-17T13:11:37Z</time>
      </trkpt>
      <trkpt lat="43.24476" lon="0.13147">
        <ele>313.2</ele>
        <time>2024-04-17T13:11:38Z</time>
      </trkpt>
      <trkpt lat="43.24476" lon="0.13147">
        <ele>313.2</ele>
        <time>2024-04-17T13:11:39Z</time>
      </trkpt>
      <trkpt lat="43.24476" lon="0.13147">
        <ele>313.2</ele>
        <time>2024-04-17T13:11:40Z</time>
      </trkpt>
      <trkpt lat="43.24476" lon="0.13147">
        <ele>313.2</ele>
        <time>2024-04-17T13:11:41Z</time>
      </trkpt>
      <trkpt lat="43.24476" lon="0.13147">
        <ele>313.2</ele>
        <time>2024-04-17T13:11:42Z</time>
      </trkpt>
      <trkpt lat="43.24476" lon="0.13147">
        <ele>313.2</ele>
        <time>2024-04-17T13:11:43Z</time>
      </trkpt>
      <trkpt lat="43.24476" lon="0.13147">
        <ele>313.2</ele>
        <time>2024-04-17T13:11:44Z</time>
      </trkpt>
      <trkpt lat="43.24476" lon="0.13147">
        <ele>313.2</ele>
        <time>2024-04-17T13:11:45Z</time>
      </trkpt>
      <trkpt lat="43.24476" lon="0.13147">
        <ele>313.2</ele>
        <time>2024-04-17T13:11:46Z</time>
      </trkpt>
      <trkpt lat="43.24476" lon="0.13147">
        <ele>313.2</ele>
        <time>2024-04-17T13:11:47Z</time>
      </trkpt>
      <trkpt lat="43.24476" lon="0.13147">
        <ele>313</ele>
        <time>2024-04-17T13:11:48Z</time>
      </trkpt>
      <trkpt lat="43.24476" lon="0.13147">
        <ele>313</ele>
        <time>2024-04-17T13:11:49Z</time>
      </trkpt>
      <trkpt lat="43.24476" lon="0.13147">
        <ele>313</ele>
        <time>2024-04-17T13:11:50Z</time>
      </trkpt>
      <trkpt lat="43.24476" lon="0.13147">
        <ele>313</ele>
        <time>2024-04-17T13:11:51Z</time>
      </trkpt>
      <trkpt lat="43.24476" lon="0.13147">
        <ele>313</ele>
        <time>2024-04-17T13:11:52Z</time>
      </trkpt>
      <trkpt lat="43.24476" lon="0.13147">
        <ele>313.2</ele>
        <time>2024-04-17T13:11:53Z</time>
      </trkpt>
      <trkpt lat="43.24476" lon="0.13147">
        <ele>313.2</ele>
        <time>2024-04-17T13:11:54Z</time>
      </trkpt>
      <trkpt lat="43.24476" lon="0.13147">
        <ele>313.2</ele>
        <time>2024-04-17T13:11:55Z</time>
      </trkpt>
      <trkpt lat="43.24476" lon="0.13147">
        <ele>313.2</ele>
        <time>2024-04-17T13:11:56Z</time>
      </trkpt>
      <trkpt lat="43.24476" lon="0.13147">
        <ele>313.2</ele>
        <time>2024-04-17T13:11:57Z</time>
      </trkpt>
      <trkpt lat="43.24476" lon="0.13147">
        <ele>313.2</ele>
        <time>2024-04-17T13:11:58Z</time>
      </trkpt>
      <trkpt lat="43.24476" lon="0.13147">
        <ele>313.2</ele>
        <time>2024-04-17T13:11:59Z</time>
      </trkpt>
      <trkpt lat="43.24476" lon="0.13147">
        <ele>313.2</ele>
        <time>2024-04-17T13:12:00Z</time>
      </trkpt>
      <trkpt lat="43.24476" lon="0.13147">
        <ele>313.2</ele>
        <time>2024-04-17T13:12:01Z</time>
      </trkpt>
      <trkpt lat="43.24476" lon="0.13147">
        <ele>313.2</ele>
        <time>2024-04-17T13:12:02Z</time>
      </trkpt>
      <trkpt lat="43.24476" lon="0.13147">
        <ele>313.2</ele>
        <time>2024-04-17T13:12:03Z</time>
      </trkpt>
      <trkpt lat="43.24476" lon="0.13147">
        <ele>313.2</ele>
        <time>2024-04-17T13:12:04Z</time>
      </trkpt>
      <trkpt lat="43.24476" lon="0.13147">
        <ele>313.2</ele>
        <time>2024-04-17T13:12:05Z</time>
      </trkpt>
      <trkpt lat="43.24476" lon="0.13147">
        <ele>313.2</ele>
        <time>2024-04-17T13:12:06Z</time>
      </trkpt>
      <trkpt lat="43.24476" lon="0.13147">
        <ele>313.2</ele>
        <time>2024-04-17T13:12:07Z</time>
      </trkpt>
      <trkpt lat="43.24476" lon="0.13147">
        <ele>313.2</ele>
        <time>2024-04-17T13:12:08Z</time>
      </trkpt>
      <trkpt lat="43.24476" lon="0.13147">
        <ele>313.2</ele>
        <time>2024-04-17T13:12:09Z</time>
      </trkpt>
      <trkpt lat="43.24476" lon="0.13147">
        <ele>313.2</ele>
        <time>2024-04-17T13:12:10Z</time>
      </trkpt>
      <trkpt lat="43.24476" lon="0.13147">
        <ele>313.2</ele>
        <time>2024-04-17T13:12:11Z</time>
      </trkpt>
      <trkpt lat="43.24476" lon="0.13147">
        <ele>313.2</ele>
        <time>2024-04-17T13:12:12Z</time>
      </trkpt>
      <trkpt lat="43.24476" lon="0.13147">
        <ele>313</ele>
        <time>2024-04-17T13:12:13Z</time>
      </trkpt>
      <trkpt lat="43.24476" lon="0.13147">
        <ele>313.2</ele>
        <time>2024-04-17T13:12:14Z</time>
      </trkpt>
      <trkpt lat="43.24476" lon="0.13147">
        <ele>313</ele>
        <time>2024-04-17T13:12:15Z</time>
      </trkpt>
      <trkpt lat="43.24476" lon="0.13147">
        <ele>313</ele>
        <time>2024-04-17T13:12:16Z</time>
      </trkpt>
      <trkpt lat="43.24476" lon="0.13147">
        <ele>313</ele>
        <time>2024-04-17T13:12:17Z</time>
      </trkpt>
      <trkpt lat="43.24476" lon="0.13147">
        <ele>313</ele>
        <time>2024-04-17T13:12:18Z</time>
      </trkpt>
      <trkpt lat="43.24476" lon="0.13147">
        <ele>313</ele>
        <time>2024-04-17T13:12:19Z</time>
      </trkpt>
      <trkpt lat="43.24476" lon="0.13147">
        <ele>313</ele>
        <time>2024-04-17T13:12:20Z</time>
      </trkpt>
      <trkpt lat="43.24476" lon="0.13147">
        <ele>313</ele>
        <time>2024-04-17T13:12:21Z</time>
      </trkpt>
      <trkpt lat="43.24476" lon="0.13147">
        <ele>313.2</ele>
        <time>2024-04-17T13:12:22Z</time>
      </trkpt>
      <trkpt lat="43.24476" lon="0.13147">
        <ele>313.2</ele>
        <time>2024-04-17T13:12:23Z</time>
      </trkpt>
      <trkpt lat="43.24476" lon="0.13147">
        <ele>313.2</ele>
        <time>2024-04-17T13:12:24Z</time>
      </trkpt>
      <trkpt lat="43.24476" lon="0.13147">
        <ele>313.2</ele>
        <time>2024-04-17T13:12:25Z</time>
      </trkpt>
      <trkpt lat="43.24476" lon="0.13147">
        <ele>313.2</ele>
        <time>2024-04-17T13:12:26Z</time>
      </trkpt>
      <trkpt lat="43.24476" lon="0.13147">
        <ele>313.2</ele>
        <time>2024-04-17T13:12:27Z</time>
      </trkpt>
      <trkpt lat="43.24476" lon="0.13147">
        <ele>313.4</ele>
        <time>2024-04-17T13:12:28Z</time>
      </trkpt>
      <trkpt lat="43.24476" lon="0.13147">
        <ele>313.4</ele>
        <time>2024-04-17T13:12:29Z</time>
      </trkpt>
      <trkpt lat="43.24476" lon="0.13147">
        <ele>313.4</ele>
        <time>2024-04-17T13:12:30Z</time>
      </trkpt>
      <trkpt lat="43.24476" lon="0.13147">
        <ele>313.4</ele>
        <time>2024-04-17T13:12:31Z</time>
      </trkpt>
      <trkpt lat="43.24476" lon="0.13147">
        <ele>313.4</ele>
        <time>2024-04-17T13:12:32Z</time>
      </trkpt>
      <trkpt lat="43.24476" lon="0.13147">
        <ele>313.4</ele>
        <time>2024-04-17T13:12:33Z</time>
      </trkpt>
      <trkpt lat="43.24476" lon="0.13147">
        <ele>313.4</ele>
        <time>2024-04-17T13:12:34Z</time>
      </trkpt>
      <trkpt lat="43.24476" lon="0.13147">
        <ele>313.4</ele>
        <time>2024-04-17T13:12:35Z</time>
      </trkpt>
      <trkpt lat="43.24476" lon="0.13147">
        <ele>313.4</ele>
        <time>2024-04-17T13:12:36Z</time>
      </trkpt>
      <trkpt lat="43.24476" lon="0.13147">
        <ele>313.4</ele>
        <time>2024-04-17T13:12:37Z</time>
      </trkpt>
      <trkpt lat="43.24476" lon="0.13147">
        <ele>313.4</ele>
        <time>2024-04-17T13:12:38Z</time>
      </trkpt>
      <trkpt lat="43.24476" lon="0.13147">
        <ele>313.4</ele>
        <time>2024-04-17T13:12:39Z</time>
      </trkpt>
      <trkpt lat="43.24476" lon="0.13147">
        <ele>313.4</ele>
        <time>2024-04-17T13:12:40Z</time>
      </trkpt>
      <trkpt lat="43.24476" lon="0.13147">
        <ele>313.4</ele>
        <time>2024-04-17T13:12:41Z</time>
      </trkpt>
      <trkpt lat="43.24476" lon="0.13147">
        <ele>313.6</ele>
        <time>2024-04-17T13:12:42Z</time>
      </trkpt>
      <trkpt lat="43.24476" lon="0.13147">
        <ele>313.6</ele>
        <time>2024-04-17T13:12:43Z</time>
      </trkpt>
      <trkpt lat="43.24476" lon="0.13148">
        <ele>313.6</ele>
        <time>2024-04-17T13:12:44Z</time>
      </trkpt>
      <trkpt lat="43.24476" lon="0.13148">
        <ele>313.6</ele>
        <time>2024-04-17T13:12:45Z</time>
      </trkpt>
      <trkpt lat="43.24476" lon="0.13148">
        <ele>313.6</ele>
        <time>2024-04-17T13:12:46Z</time>
      </trkpt>
      <trkpt lat="43.24476" lon="0.13148">
        <ele>313.6</ele>
        <time>2024-04-17T13:12:47Z</time>
      </trkpt>
      <trkpt lat="43.24476" lon="0.13148">
        <ele>313.6</ele>
        <time>2024-04-17T13:12:48Z</time>
      </trkpt>
      <trkpt lat="43.24476" lon="0.13148">
        <ele>313.6</ele>
        <time>2024-04-17T13:12:49Z</time>
      </trkpt>
      <trkpt lat="43.24476" lon="0.13148">
        <ele>313.6</ele>
        <time>2024-04-17T13:12:50Z</time>
      </trkpt>
      <trkpt lat="43.24476" lon="0.13148">
        <ele>313.6</ele>
        <time>2024-04-17T13:12:51Z</time>
      </trkpt>
      <trkpt lat="43.24476" lon="0.13148">
        <ele>313.6</ele>
        <time>2024-04-17T13:12:52Z</time>
      </trkpt>
      <trkpt lat="43.24476" lon="0.13148">
        <ele>313.6</ele>
        <time>2024-04-17T13:12:53Z</time>
      </trkpt>
      <trkpt lat="43.24476" lon="0.13148">
        <ele>313.6</ele>
        <time>2024-04-17T13:12:54Z</time>
      </trkpt>
      <trkpt lat="43.24476" lon="0.13148">
        <ele>313.6</ele>
        <time>2024-04-17T13:12:55Z</time>
      </trkpt>
      <trkpt lat="43.24476" lon="0.13148">
        <ele>313.6</ele>
        <time>2024-04-17T13:12:56Z</time>
      </trkpt>
      <trkpt lat="43.24476" lon="0.13148">
        <ele>313.6</ele>
        <time>2024-04-17T13:12:57Z</time>
      </trkpt>
      <trkpt lat="43.24476" lon="0.13148">
        <ele>313.6</ele>
        <time>2024-04-17T13:12:58Z</time>
      </trkpt>
      <trkpt lat="43.24476" lon="0.13148">
        <ele>313.6</ele>
        <time>2024-04-17T13:12:59Z</time>
      </trkpt>
      <trkpt lat="43.24476" lon="0.13148">
        <ele>313.6</ele>
        <time>2024-04-17T13:13:00Z</time>
      </trkpt>
      <trkpt lat="43.24476" lon="0.13148">
        <ele>313.6</ele>
        <time>2024-04-17T13:13:01Z</time>
      </trkpt>
      <trkpt lat="43.24476" lon="0.13148">
        <ele>313.6</ele>
        <time>2024-04-17T13:13:02Z</time>
      </trkpt>
      <trkpt lat="43.24476" lon="0.13148">
        <ele>313.6</ele>
        <time>2024-04-17T13:13:03Z</time>
      </trkpt>
      <trkpt lat="43.24476" lon="0.13148">
        <ele>313.6</ele>
        <time>2024-04-17T13:13:04Z</time>
      </trkpt>
      <trkpt lat="43.24476" lon="0.13148">
        <ele>313.6</ele>
        <time>2024-04-17T13:13:05Z</time>
      </trkpt>
      <trkpt lat="43.24476" lon="0.13148">
        <ele>313.6</ele>
        <time>2024-04-17T13:13:06Z</time>
      </trkpt>
      <trkpt lat="43.24476" lon="0.13148">
        <ele>313.6</ele>
        <time>2024-04-17T13:13:07Z</time>
      </trkpt>
      <trkpt lat="43.24476" lon="0.13148">
        <ele>313.6</ele>
        <time>2024-04-17T13:13:08Z</time>
      </trkpt>
      <trkpt lat="43.24476" lon="0.13148">
        <ele>313.6</ele>
        <time>2024-04-17T13:13:09Z</time>
      </trkpt>
      <trkpt lat="43.24476" lon="0.13148">
        <ele>313.6</ele>
        <time>2024-04-17T13:13:10Z</time>
      </trkpt>
      <trkpt lat="43.24476" lon="0.13148">
        <ele>313.6</ele>
        <time>2024-04-17T13:13:11Z</time>
      </trkpt>
      <trkpt lat="43.24476" lon="0.13148">
        <ele>313.6</ele>
        <time>2024-04-17T13:13:12Z</time>
      </trkpt>
      <trkpt lat="43.24476" lon="0.13148">
        <ele>313.6</ele>
        <time>2024-04-17T13:13:13Z</time>
      </trkpt>
      <trkpt lat="43.24476" lon="0.13148">
        <ele>313.6</ele>
        <time>2024-04-17T13:13:14Z</time>
      </trkpt>
      <trkpt lat="43.24476" lon="0.13148">
        <ele>313.6</ele>
        <time>2024-04-17T13:13:15Z</time>
      </trkpt>
      <trkpt lat="43.24476" lon="0.13148">
        <ele>313.6</ele>
        <time>2024-04-17T13:13:16Z</time>
      </trkpt>
      <trkpt lat="43.24476" lon="0.13148">
        <ele>313.6</ele>
        <time>2024-04-17T13:13:17Z</time>
      </trkpt>
      <trkpt lat="43.24476" lon="0.13148">
        <ele>313.6</ele>
        <time>2024-04-17T13:13:18Z</time>
      </trkpt>
      <trkpt lat="43.24476" lon="0.13148">
        <ele>313.6</ele>
        <time>2024-04-17T13:13:19Z</time>
      </trkpt>
      <trkpt lat="43.24476" lon="0.13148">
        <ele>313.6</ele>
        <time>2024-04-17T13:13:20Z</time>
      </trkpt>
      <trkpt lat="43.24476" lon="0.13148">
        <ele>313.8</ele>
        <time>2024-04-17T13:13:21Z</time>
      </trkpt>
      <trkpt lat="43.24476" lon="0.13148">
        <ele>313.8</ele>
        <time>2024-04-17T13:13:22Z</time>
      </trkpt>
      <trkpt lat="43.24476" lon="0.13148">
        <ele>313.8</ele>
        <time>2024-04-17T13:13:23Z</time>
      </trkpt>
      <trkpt lat="43.24476" lon="0.13148">
        <ele>313.8</ele>
        <time>2024-04-17T13:13:24Z</time>
      </trkpt>
      <trkpt lat="43.24476" lon="0.13148">
        <ele>313.8</ele>
        <time>2024-04-17T13:13:25Z</time>
      </trkpt>
      <trkpt lat="43.24476" lon="0.13148">
        <ele>313.8</ele>
        <time>2024-04-17T13:13:26Z</time>
      </trkpt>
      <trkpt lat="43.24476" lon="0.13148">
        <ele>313.8</ele>
        <time>2024-04-17T13:13:27Z</time>
      </trkpt>
      <trkpt lat="43.24476" lon="0.13148">
        <ele>313.6</ele>
        <time>2024-04-17T13:13:28Z</time>
      </trkpt>
      <trkpt lat="43.24476" lon="0.13148">
        <ele>313.6</ele>
        <time>2024-04-17T13:13:29Z</time>
      </trkpt>
      <trkpt lat="43.24476" lon="0.13148">
        <ele>313.6</ele>
        <time>2024-04-17T13:13:30Z</time>
      </trkpt>
      <trkpt lat="43.24476" lon="0.13148">
        <ele>313.6</ele>
        <time>2024-04-17T13:13:31Z</time>
      </trkpt>
      <trkpt lat="43.24476" lon="0.13148">
        <ele>313.6</ele>
        <time>2024-04-17T13:13:32Z</time>
      </trkpt>
      <trkpt lat="43.24476" lon="0.13148">
        <ele>313.6</ele>
        <time>2024-04-17T13:13:33Z</time>
      </trkpt>
      <trkpt lat="43.24476" lon="0.13148">
        <ele>313.6</ele>
        <time>2024-04-17T13:13:34Z</time>
      </trkpt>
      <trkpt lat="43.24476" lon="0.13148">
        <ele>313.6</ele>
        <time>2024-04-17T13:13:35Z</time>
      </trkpt>
      <trkpt lat="43.24476" lon="0.13148">
        <ele>313.6</ele>
        <time>2024-04-17T13:13:36Z</time>
      </trkpt>
      <trkpt lat="43.24476" lon="0.13148">
        <ele>313.6</ele>
        <time>2024-04-17T13:13:37Z</time>
      </trkpt>
      <trkpt lat="43.24476" lon="0.13148">
        <ele>313.6</ele>
        <time>2024-04-17T13:13:38Z</time>
      </trkpt>
      <trkpt lat="43.24476" lon="0.13148">
        <ele>313.6</ele>
        <time>2024-04-17T13:13:39Z</time>
      </trkpt>
      <trkpt lat="43.24476" lon="0.13148">
        <ele>313.6</ele>
        <time>2024-04-17T13:13:40Z</time>
      </trkpt>
      <trkpt lat="43.24476" lon="0.13148">
        <ele>313.6</ele>
        <time>2024-04-17T13:13:41Z</time>
      </trkpt>
      <trkpt lat="43.24476" lon="0.13148">
        <ele>313.6</ele>
        <time>2024-04-17T13:13:42Z</time>
      </trkpt>
      <trkpt lat="43.24476" lon="0.13148">
        <ele>313.6</ele>
        <time>2024-04-17T13:13:43Z</time>
      </trkpt>
      <trkpt lat="43.24476" lon="0.13148">
        <ele>313.8</ele>
        <time>2024-04-17T13:13:44Z</time>
      </trkpt>
      <trkpt lat="43.24476" lon="0.13148">
        <ele>313.8</ele>
        <time>2024-04-17T13:13:45Z</time>
      </trkpt>
      <trkpt lat="43.24476" lon="0.13148">
        <ele>313.8</ele>
        <time>2024-04-17T13:13:46Z</time>
      </trkpt>
      <trkpt lat="43.24476" lon="0.13148">
        <ele>313.8</ele>
        <time>2024-04-17T13:13:47Z</time>
      </trkpt>
      <trkpt lat="43.24476" lon="0.13148">
        <ele>313.6</ele>
        <time>2024-04-17T13:13:48Z</time>
      </trkpt>
      <trkpt lat="43.24476" lon="0.13148">
        <ele>313.6</ele>
        <time>2024-04-17T13:13:49Z</time>
      </trkpt>
      <trkpt lat="43.24476" lon="0.13148">
        <ele>313.6</ele>
        <time>2024-04-17T13:13:50Z</time>
      </trkpt>
      <trkpt lat="43.24476" lon="0.13148">
        <ele>313.6</ele>
        <time>2024-04-17T13:13:51Z</time>
      </trkpt>
      <trkpt lat="43.24476" lon="0.13148">
        <ele>313.6</ele>
        <time>2024-04-17T13:13:52Z</time>
      </trkpt>
      <trkpt lat="43.24476" lon="0.13148">
        <ele>313.6</ele>
        <time>2024-04-17T13:13:53Z</time>
      </trkpt>
      <trkpt lat="43.24476" lon="0.13148">
        <ele>313.6</ele>
        <time>2024-04-17T13:13:54Z</time>
      </trkpt>
      <trkpt lat="43.24476" lon="0.13148">
        <ele>313.6</ele>
        <time>2024-04-17T13:13:55Z</time>
      </trkpt>
      <trkpt lat="43.24476" lon="0.13148">
        <ele>313.6</ele>
        <time>2024-04-17T13:13:56Z</time>
      </trkpt>
      <trkpt lat="43.24476" lon="0.13148">
        <ele>313.6</ele>
        <time>2024-04-17T13:13:57Z</time>
      </trkpt>
      <trkpt lat="43.24476" lon="0.13148">
        <ele>313.6</ele>
        <time>2024-04-17T13:13:58Z</time>
      </trkpt>
      <trkpt lat="43.24476" lon="0.13148">
        <ele>313.8</ele>
        <time>2024-04-17T13:13:59Z</time>
      </trkpt>
      <trkpt lat="43.24476" lon="0.13148">
        <ele>313.8</ele>
        <time>2024-04-17T13:14:00Z</time>
      </trkpt>
      <trkpt lat="43.24476" lon="0.13148">
        <ele>313.8</ele>
        <time>2024-04-17T13:14:01Z</time>
      </trkpt>
      <trkpt lat="43.24476" lon="0.13148">
        <ele>313.8</ele>
        <time>2024-04-17T13:14:02Z</time>
      </trkpt>
      <trkpt lat="43.24476" lon="0.13148">
        <ele>313.8</ele>
        <time>2024-04-17T13:14:03Z</time>
      </trkpt>
      <trkpt lat="43.24476" lon="0.13148">
        <ele>313.8</ele>
        <time>2024-04-17T13:14:04Z</time>
      </trkpt>
      <trkpt lat="43.24476" lon="0.13148">
        <ele>313.8</ele>
        <time>2024-04-17T13:14:05Z</time>
      </trkpt>
      <trkpt lat="43.24476" lon="0.13148">
        <ele>313.8</ele>
        <time>2024-04-17T13:14:06Z</time>
      </trkpt>
      <trkpt lat="43.24476" lon="0.13148">
        <ele>313.8</ele>
        <time>2024-04-17T13:14:07Z</time>
      </trkpt>
      <trkpt lat="43.24476" lon="0.13148">
        <ele>313.6</ele>
        <time>2024-04-17T13:14:08Z</time>
      </trkpt>
      <trkpt lat="43.24476" lon="0.13148">
        <ele>313.4</ele>
        <time>2024-04-17T13:14:09Z</time>
      </trkpt>
      <trkpt lat="43.24476" lon="0.13148">
        <ele>313.4</ele>
        <time>2024-04-17T13:14:10Z</time>
      </trkpt>
      <trkpt lat="43.24476" lon="0.13148">
        <ele>313.4</ele>
        <time>2024-04-17T13:14:11Z</time>
      </trkpt>
      <trkpt lat="43.24476" lon="0.13148">
        <ele>313.4</ele>
        <time>2024-04-17T13:14:12Z</time>
      </trkpt>
      <trkpt lat="43.24476" lon="0.13148">
        <ele>313.4</ele>
        <time>2024-04-17T13:14:13Z</time>
      </trkpt>
      <trkpt lat="43.24476" lon="0.13148">
        <ele>313.4</ele>
        <time>2024-04-17T13:14:14Z</time>
      </trkpt>
      <trkpt lat="43.24476" lon="0.13148">
        <ele>313.4</ele>
        <time>2024-04-17T13:14:15Z</time>
      </trkpt>
      <trkpt lat="43.24476" lon="0.13148">
        <ele>313.4</ele>
        <time>2024-04-17T13:14:16Z</time>
      </trkpt>
      <trkpt lat="43.24476" lon="0.13148">
        <ele>313.4</ele>
        <time>2024-04-17T13:14:17Z</time>
      </trkpt>
      <trkpt lat="43.24476" lon="0.13148">
        <ele>313.4</ele>
        <time>2024-04-17T13:14:18Z</time>
      </trkpt>
      <trkpt lat="43.24476" lon="0.13148">
        <ele>313.4</ele>
        <time>2024-04-17T13:14:19Z</time>
      </trkpt>
      <trkpt lat="43.24476" lon="0.13148">
        <ele>313.4</ele>
        <time>2024-04-17T13:14:20Z</time>
      </trkpt>
      <trkpt lat="43.24476" lon="0.13148">
        <ele>313.4</ele>
        <time>2024-04-17T13:14:21Z</time>
      </trkpt>
      <trkpt lat="43.24476" lon="0.13148">
        <ele>313.4</ele>
        <time>2024-04-17T13:14:22Z</time>
      </trkpt>
      <trkpt lat="43.24476" lon="0.13148">
        <ele>313.6</ele>
        <time>2024-04-17T13:14:23Z</time>
      </trkpt>
      <trkpt lat="43.24476" lon="0.13148">
        <ele>313.6</ele>
        <time>2024-04-17T13:14:24Z</time>
      </trkpt>
      <trkpt lat="43.24476" lon="0.13148">
        <ele>313.6</ele>
        <time>2024-04-17T13:14:25Z</time>
      </trkpt>
      <trkpt lat="43.24476" lon="0.13148">
        <ele>313.6</ele>
        <time>2024-04-17T13:14:26Z</time>
      </trkpt>
      <trkpt lat="43.24476" lon="0.13148">
        <ele>313.8</ele>
        <time>2024-04-17T13:14:27Z</time>
      </trkpt>
      <trkpt lat="43.24476" lon="0.13148">
        <ele>313.8</ele>
        <time>2024-04-17T13:14:28Z</time>
      </trkpt>
      <trkpt lat="43.24476" lon="0.13148">
        <ele>313.8</ele>
        <time>2024-04-17T13:14:29Z</time>
      </trkpt>
      <trkpt lat="43.24476" lon="0.13149">
        <ele>313.6</ele>
        <time>2024-04-17T13:14:30Z</time>
      </trkpt>
      <trkpt lat="43.24474" lon="0.13151">
        <ele>313.6</ele>
        <time>2024-04-17T13:14:31Z</time>
      </trkpt>
      <trkpt lat="43.24472" lon="0.13153">
        <ele>313.6</ele>
        <time>2024-04-17T13:14:32Z</time>
      </trkpt>
      <trkpt lat="43.24469" lon="0.13155">
        <ele>313.6</ele>
        <time>2024-04-17T13:14:33Z</time>
      </trkpt>
      <trkpt lat="43.24466" lon="0.13157">
        <ele>313.8</ele>
        <time>2024-04-17T13:14:34Z</time>
      </trkpt>
      <trkpt lat="43.24464" lon="0.13159">
        <ele>313.8</ele>
        <time>2024-04-17T13:14:35Z</time>
      </trkpt>
      <trkpt lat="43.24461" lon="0.13161">
        <ele>313.8</ele>
        <time>2024-04-17T13:14:36Z</time>
      </trkpt>
      <trkpt lat="43.24459" lon="0.13162">
        <ele>313.6</ele>
        <time>2024-04-17T13:14:37Z</time>
      </trkpt>
      <trkpt lat="43.24458" lon="0.13165">
        <ele>313.6</ele>
        <time>2024-04-17T13:14:38Z</time>
      </trkpt>
      <trkpt lat="43.24455" lon="0.13168">
        <ele>313.8</ele>
        <time>2024-04-17T13:14:39Z</time>
      </trkpt>
      <trkpt lat="43.24453" lon="0.1317">
        <ele>313.8</ele>
        <time>2024-04-17T13:14:40Z</time>
      </trkpt>
      <trkpt lat="43.24451" lon="0.13172">
        <ele>313.8</ele>
        <time>2024-04-17T13:14:41Z</time>
      </trkpt>
      <trkpt lat="43.24448" lon="0.13174">
        <ele>313.6</ele>
        <time>2024-04-17T13:14:42Z</time>
      </trkpt>
      <trkpt lat="43.24445" lon="0.13176">
        <ele>313.6</ele>
        <time>2024-04-17T13:14:43Z</time>
      </trkpt>
      <trkpt lat="43.24443" lon="0.13178">
        <ele>313.6</ele>
        <time>2024-04-17T13:14:44Z</time>
      </trkpt>
      <trkpt lat="43.24441" lon="0.1318">
        <ele>313.8</ele>
        <time>2024-04-17T13:14:45Z</time>
      </trkpt>
      <trkpt lat="43.24439" lon="0.13182">
        <ele>313.8</ele>
        <time>2024-04-17T13:14:46Z</time>
      </trkpt>
      <trkpt lat="43.24437" lon="0.13185">
        <ele>313.8</ele>
        <time>2024-04-17T13:14:47Z</time>
      </trkpt>
      <trkpt lat="43.24434" lon="0.13187">
        <ele>313.8</ele>
        <time>2024-04-17T13:14:48Z</time>
      </trkpt>
      <trkpt lat="43.24432" lon="0.13189">
        <ele>314</ele>
        <time>2024-04-17T13:14:49Z</time>
      </trkpt>
      <trkpt lat="43.2443" lon="0.13192">
        <ele>314</ele>
        <time>2024-04-17T13:14:50Z</time>
      </trkpt>
      <trkpt lat="43.24429" lon="0.13194">
        <ele>314</ele>
        <time>2024-04-17T13:14:51Z</time>
      </trkpt>
      <trkpt lat="43.24427" lon="0.13197">
        <ele>314.2</ele>
        <time>2024-04-17T13:14:52Z</time>
      </trkpt>
      <trkpt lat="43.24426" lon="0.132">
        <ele>314.2</ele>
        <time>2024-04-17T13:14:53Z</time>
      </trkpt>
      <trkpt lat="43.24423" lon="0.13203">
        <ele>314.2</ele>
        <time>2024-04-17T13:14:54Z</time>
      </trkpt>
      <trkpt lat="43.2442" lon="0.13208">
        <ele>314.4</ele>
        <time>2024-04-17T13:14:55Z</time>
      </trkpt>
      <trkpt lat="43.24418" lon="0.13212">
        <ele>314.4</ele>
        <time>2024-04-17T13:14:56Z</time>
      </trkpt>
      <trkpt lat="43.24415" lon="0.13216">
        <ele>314.6</ele>
        <time>2024-04-17T13:14:57Z</time>
      </trkpt>
      <trkpt lat="43.24413" lon="0.13219">
        <ele>314.6</ele>
        <time>2024-04-17T13:14:58Z</time>
      </trkpt>
      <trkpt lat="43.24412" lon="0.13222">
        <ele>314.6</ele>
        <time>2024-04-17T13:14:59Z</time>
      </trkpt>
      <trkpt lat="43.24411" lon="0.13225">
        <ele>314.6</ele>
        <time>2024-04-17T13:15:00Z</time>
      </trkpt>
      <trkpt lat="43.24411" lon="0.13229">
        <ele>314.8</ele>
        <time>2024-04-17T13:15:01Z</time>
      </trkpt>
      <trkpt lat="43.24411" lon="0.13233">
        <ele>315</ele>
        <time>2024-04-17T13:15:02Z</time>
      </trkpt>
      <trkpt lat="43.2441" lon="0.13236">
        <ele>315</ele>
        <time>2024-04-17T13:15:03Z</time>
      </trkpt>
      <trkpt lat="43.2441" lon="0.13239">
        <ele>315.4</ele>
        <time>2024-04-17T13:15:04Z</time>
      </trkpt>
      <trkpt lat="43.2441" lon="0.13239">
        <ele>315.4</ele>
        <time>2024-04-17T13:15:05Z</time>
      </trkpt>
      <trkpt lat="43.2441" lon="0.13241">
        <ele>315.6</ele>
        <time>2024-04-17T13:15:06Z</time>
      </trkpt>
      <trkpt lat="43.24409" lon="0.13243">
        <ele>315.6</ele>
        <time>2024-04-17T13:15:07Z</time>
      </trkpt>
      <trkpt lat="43.24408" lon="0.13244">
        <ele>315.8</ele>
        <time>2024-04-17T13:15:08Z</time>
      </trkpt>
      <trkpt lat="43.24406" lon="0.13244">
        <ele>315.8</ele>
        <time>2024-04-17T13:15:09Z</time>
      </trkpt>
      <trkpt lat="43.24405" lon="0.13244">
        <ele>315.8</ele>
        <time>2024-04-17T13:15:10Z</time>
      </trkpt>
      <trkpt lat="43.24403" lon="0.13246">
        <ele>315.8</ele>
        <time>2024-04-17T13:15:11Z</time>
      </trkpt>
      <trkpt lat="43.24401" lon="0.13247">
        <ele>315.8</ele>
        <time>2024-04-17T13:15:12Z</time>
      </trkpt>
      <trkpt lat="43.24399" lon="0.13249">
        <ele>316</ele>
        <time>2024-04-17T13:15:13Z</time>
      </trkpt>
      <trkpt lat="43.24397" lon="0.1325">
        <ele>316</ele>
        <time>2024-04-17T13:15:14Z</time>
      </trkpt>
      <trkpt lat="43.24395" lon="0.13253">
        <ele>316.2</ele>
        <time>2024-04-17T13:15:15Z</time>
      </trkpt>
      <trkpt lat="43.24393" lon="0.13255">
        <ele>316.4</ele>
        <time>2024-04-17T13:15:16Z</time>
      </trkpt>
      <trkpt lat="43.24391" lon="0.13258">
        <ele>316.6</ele>
        <time>2024-04-17T13:15:17Z</time>
      </trkpt>
      <trkpt lat="43.2439" lon="0.13261">
        <ele>316.8</ele>
        <time>2024-04-17T13:15:18Z</time>
      </trkpt>
      <trkpt lat="43.24389" lon="0.13265">
        <ele>316.8</ele>
        <time>2024-04-17T13:15:19Z</time>
      </trkpt>
      <trkpt lat="43.24389" lon="0.13269">
        <ele>317</ele>
        <time>2024-04-17T13:15:20Z</time>
      </trkpt>
      <trkpt lat="43.2439" lon="0.13273">
        <ele>317</ele>
        <time>2024-04-17T13:15:21Z</time>
      </trkpt>
      <trkpt lat="43.2439" lon="0.13275">
        <ele>317</ele>
        <time>2024-04-17T13:15:22Z</time>
      </trkpt>
      <trkpt lat="43.24389" lon="0.13279">
        <ele>317.2</ele>
        <time>2024-04-17T13:15:23Z</time>
      </trkpt>
      <trkpt lat="43.24389" lon="0.13282">
        <ele>317.2</ele>
        <time>2024-04-17T13:15:24Z</time>
      </trkpt>
      <trkpt lat="43.24389" lon="0.13285">
        <ele>317.4</ele>
        <time>2024-04-17T13:15:25Z</time>
      </trkpt>
      <trkpt lat="43.24388" lon="0.13289">
        <ele>317.4</ele>
        <time>2024-04-17T13:15:26Z</time>
      </trkpt>
      <trkpt lat="43.24388" lon="0.13294">
        <ele>317.4</ele>
        <time>2024-04-17T13:15:27Z</time>
      </trkpt>
      <trkpt lat="43.24389" lon="0.13299">
        <ele>317.4</ele>
        <time>2024-04-17T13:15:28Z</time>
      </trkpt>
      <trkpt lat="43.24389" lon="0.13304">
        <ele>317.4</ele>
        <time>2024-04-17T13:15:29Z</time>
      </trkpt>
      <trkpt lat="43.24389" lon="0.13306">
        <ele>317.4</ele>
        <time>2024-04-17T13:15:30Z</time>
      </trkpt>
      <trkpt lat="43.24389" lon="0.13308">
        <ele>317.6</ele>
        <time>2024-04-17T13:15:31Z</time>
      </trkpt>
      <trkpt lat="43.24388" lon="0.13309">
        <ele>317.8</ele>
        <time>2024-04-17T13:15:32Z</time>
      </trkpt>
      <trkpt lat="43.24388" lon="0.13309">
        <ele>317.8</ele>
        <time>2024-04-17T13:15:33Z</time>
      </trkpt>
      <trkpt lat="43.2439" lon="0.13312">
        <ele>318</ele>
        <time>2024-04-17T13:15:34Z</time>
      </trkpt>
      <trkpt lat="43.2439" lon="0.13315">
        <ele>318</ele>
        <time>2024-04-17T13:15:35Z</time>
      </trkpt>
      <trkpt lat="43.2439" lon="0.13316">
        <ele>318.2</ele>
        <time>2024-04-17T13:15:36Z</time>
      </trkpt>
      <trkpt lat="43.24391" lon="0.13318">
        <ele>318.2</ele>
        <time>2024-04-17T13:15:37Z</time>
      </trkpt>
      <trkpt lat="43.24392" lon="0.13321">
        <ele>318.2</ele>
        <time>2024-04-17T13:15:38Z</time>
      </trkpt>
      <trkpt lat="43.24392" lon="0.13325">
        <ele>318.2</ele>
        <time>2024-04-17T13:15:39Z</time>
      </trkpt>
      <trkpt lat="43.24393" lon="0.13329">
        <ele>318.2</ele>
        <time>2024-04-17T13:15:40Z</time>
      </trkpt>
      <trkpt lat="43.24395" lon="0.13333">
        <ele>318.2</ele>
        <time>2024-04-17T13:15:41Z</time>
      </trkpt>
      <trkpt lat="43.24397" lon="0.13336">
        <ele>318.4</ele>
        <time>2024-04-17T13:15:42Z</time>
      </trkpt>
      <trkpt lat="43.24399" lon="0.13339">
        <ele>318.4</ele>
        <time>2024-04-17T13:15:43Z</time>
      </trkpt>
      <trkpt lat="43.24401" lon="0.13341">
        <ele>318.6</ele>
        <time>2024-04-17T13:15:44Z</time>
      </trkpt>
      <trkpt lat="43.24403" lon="0.13345">
        <ele>318.6</ele>
        <time>2024-04-17T13:15:45Z</time>
      </trkpt>
      <trkpt lat="43.24404" lon="0.13349">
        <ele>318.6</ele>
        <time>2024-04-17T13:15:46Z</time>
      </trkpt>
      <trkpt lat="43.24406" lon="0.13353">
        <ele>318.8</ele>
        <time>2024-04-17T13:15:47Z</time>
      </trkpt>
      <trkpt lat="43.24407" lon="0.13356">
        <ele>318.8</ele>
        <time>2024-04-17T13:15:48Z</time>
      </trkpt>
      <trkpt lat="43.24407" lon="0.13358">
        <ele>319</ele>
        <time>2024-04-17T13:15:49Z</time>
      </trkpt>
      <trkpt lat="43.24408" lon="0.13361">
        <ele>318.8</ele>
        <time>2024-04-17T13:15:50Z</time>
      </trkpt>
      <trkpt lat="43.24407" lon="0.13364">
        <ele>318.8</ele>
        <time>2024-04-17T13:15:51Z</time>
      </trkpt>
      <trkpt lat="43.24407" lon="0.13367">
        <ele>319</ele>
        <time>2024-04-17T13:15:52Z</time>
      </trkpt>
      <trkpt lat="43.24408" lon="0.1337">
        <ele>319.2</ele>
        <time>2024-04-17T13:15:53Z</time>
      </trkpt>
      <trkpt lat="43.2441" lon="0.13375">
        <ele>319.2</ele>
        <time>2024-04-17T13:15:54Z</time>
      </trkpt>
      <trkpt lat="43.24412" lon="0.13378">
        <ele>319.4</ele>
        <time>2024-04-17T13:15:55Z</time>
      </trkpt>
      <trkpt lat="43.24414" lon="0.13382">
        <ele>319.4</ele>
        <time>2024-04-17T13:15:56Z</time>
      </trkpt>
      <trkpt lat="43.24417" lon="0.13385">
        <ele>319.4</ele>
        <time>2024-04-17T13:15:57Z</time>
      </trkpt>
      <trkpt lat="43.24418" lon="0.13387">
        <ele>319.4</ele>
        <time>2024-04-17T13:15:58Z</time>
      </trkpt>
      <trkpt lat="43.24419" lon="0.13389">
        <ele>319.6</ele>
        <time>2024-04-17T13:15:59Z</time>
      </trkpt>
      <trkpt lat="43.24419" lon="0.13391">
        <ele>319.6</ele>
        <time>2024-04-17T13:16:00Z</time>
      </trkpt>
      <trkpt lat="43.2442" lon="0.13394">
        <ele>319.6</ele>
        <time>2024-04-17T13:16:01Z</time>
      </trkpt>
      <trkpt lat="43.24422" lon="0.13395">
        <ele>319.8</ele>
        <time>2024-04-17T13:16:02Z</time>
      </trkpt>
      <trkpt lat="43.24422" lon="0.13396">
        <ele>319.8</ele>
        <time>2024-04-17T13:16:03Z</time>
      </trkpt>
      <trkpt lat="43.24422" lon="0.13397">
        <ele>319.8</ele>
        <time>2024-04-17T13:16:04Z</time>
      </trkpt>
      <trkpt lat="43.24422" lon="0.13399">
        <ele>319.8</ele>
        <time>2024-04-17T13:16:05Z</time>
      </trkpt>
      <trkpt lat="43.24422" lon="0.134">
        <ele>320</ele>
        <time>2024-04-17T13:16:06Z</time>
      </trkpt>
      <trkpt lat="43.24421" lon="0.13401">
        <ele>320</ele>
        <time>2024-04-17T13:16:07Z</time>
      </trkpt>
      <trkpt lat="43.24421" lon="0.13402">
        <ele>320.2</ele>
        <time>2024-04-17T13:16:08Z</time>
      </trkpt>
      <trkpt lat="43.24422" lon="0.13404">
        <ele>320.2</ele>
        <time>2024-04-17T13:16:09Z</time>
      </trkpt>
      <trkpt lat="43.24422" lon="0.13405">
        <ele>320.4</ele>
        <time>2024-04-17T13:16:10Z</time>
      </trkpt>
      <trkpt lat="43.24422" lon="0.13407">
        <ele>320.6</ele>
        <time>2024-04-17T13:16:11Z</time>
      </trkpt>
      <trkpt lat="43.24423" lon="0.13409">
        <ele>320.8</ele>
        <time>2024-04-17T13:16:12Z</time>
      </trkpt>
      <trkpt lat="43.24424" lon="0.13411">
        <ele>320.8</ele>
        <time>2024-04-17T13:16:13Z</time>
      </trkpt>
      <trkpt lat="43.24424" lon="0.13414">
        <ele>321</ele>
        <time>2024-04-17T13:16:14Z</time>
      </trkpt>
      <trkpt lat="43.24424" lon="0.13414">
        <ele>321</ele>
        <time>2024-04-17T13:16:15Z</time>
      </trkpt>
      <trkpt lat="43.24424" lon="0.13414">
        <ele>321.2</ele>
        <time>2024-04-17T13:16:16Z</time>
      </trkpt>
      <trkpt lat="43.24424" lon="0.13414">
        <ele>321.2</ele>
        <time>2024-04-17T13:16:17Z</time>
      </trkpt>
      <trkpt lat="43.24424" lon="0.13415">
        <ele>321.4</ele>
        <time>2024-04-17T13:16:18Z</time>
      </trkpt>
      <trkpt lat="43.24424" lon="0.13415">
        <ele>321.8</ele>
        <time>2024-04-17T13:16:19Z</time>
      </trkpt>
      <trkpt lat="43.24424" lon="0.13415">
        <ele>322</ele>
        <time>2024-04-17T13:16:20Z</time>
      </trkpt>
      <trkpt lat="43.24424" lon="0.13415">
        <ele>322.2</ele>
        <time>2024-04-17T13:16:21Z</time>
      </trkpt>
      <trkpt lat="43.24424" lon="0.13415">
        <ele>322.2</ele>
        <time>2024-04-17T13:16:22Z</time>
      </trkpt>
      <trkpt lat="43.24424" lon="0.13415">
        <ele>322.4</ele>
        <time>2024-04-17T13:16:23Z</time>
      </trkpt>
      <trkpt lat="43.24424" lon="0.13415">
        <ele>322.6</ele>
        <time>2024-04-17T13:16:24Z</time>
      </trkpt>
      <trkpt lat="43.24424" lon="0.13415">
        <ele>322.6</ele>
        <time>2024-04-17T13:16:25Z</time>
      </trkpt>
      <trkpt lat="43.24424" lon="0.13415">
        <ele>323</ele>
        <time>2024-04-17T13:16:26Z</time>
      </trkpt>
      <trkpt lat="43.24424" lon="0.13415">
        <ele>323</ele>
        <time>2024-04-17T13:16:27Z</time>
      </trkpt>
      <trkpt lat="43.24424" lon="0.13415">
        <ele>323.4</ele>
        <time>2024-04-17T13:16:28Z</time>
      </trkpt>
      <trkpt lat="43.24424" lon="0.13415">
        <ele>323.6</ele>
        <time>2024-04-17T13:16:29Z</time>
      </trkpt>
      <trkpt lat="43.24424" lon="0.13415">
        <ele>324</ele>
        <time>2024-04-17T13:16:30Z</time>
      </trkpt>
      <trkpt lat="43.24424" lon="0.13415">
        <ele>324.2</ele>
        <time>2024-04-17T13:16:31Z</time>
      </trkpt>
      <trkpt lat="43.24424" lon="0.13415">
        <ele>324.2</ele>
        <time>2024-04-17T13:16:32Z</time>
      </trkpt>
      <trkpt lat="43.24424" lon="0.13415">
        <ele>324.4</ele>
        <time>2024-04-17T13:16:33Z</time>
      </trkpt>
      <trkpt lat="43.24424" lon="0.13415">
        <ele>324.4</ele>
        <time>2024-04-17T13:16:34Z</time>
      </trkpt>
      <trkpt lat="43.24424" lon="0.13415">
        <ele>324.6</ele>
        <time>2024-04-17T13:16:35Z</time>
      </trkpt>
      <trkpt lat="43.24424" lon="0.13415">
        <ele>324.8</ele>
        <time>2024-04-17T13:16:36Z</time>
      </trkpt>
      <trkpt lat="43.24424" lon="0.13415">
        <ele>324.8</ele>
        <time>2024-04-17T13:16:37Z</time>
      </trkpt>
      <trkpt lat="43.24424" lon="0.13415">
        <ele>324.8</ele>
        <time>2024-04-17T13:16:38Z</time>
      </trkpt>
      <trkpt lat="43.24424" lon="0.13415">
        <ele>324.8</ele>
        <time>2024-04-17T13:16:39Z</time>
      </trkpt>
      <trkpt lat="43.24425" lon="0.13416">
        <ele>325</ele>
        <time>2024-04-17T13:16:40Z</time>
      </trkpt>
      <trkpt lat="43.24425" lon="0.13417">
        <ele>325</ele>
        <time>2024-04-17T13:16:41Z</time>
      </trkpt>
      <trkpt lat="43.24425" lon="0.13418">
        <ele>325.2</ele>
        <time>2024-04-17T13:16:42Z</time>
      </trkpt>
      <trkpt lat="43.24426" lon="0.1342">
        <ele>325.2</ele>
        <time>2024-04-17T13:16:43Z</time>
      </trkpt>
      <trkpt lat="43.24426" lon="0.13421">
        <ele>325.2</ele>
        <time>2024-04-17T13:16:44Z</time>
      </trkpt>
      <trkpt lat="43.24426" lon="0.13422">
        <ele>325.2</ele>
        <time>2024-04-17T13:16:45Z</time>
      </trkpt>
      <trkpt lat="43.24427" lon="0.13423">
        <ele>325</ele>
        <time>2024-04-17T13:16:46Z</time>
      </trkpt>
      <trkpt lat="43.24427" lon="0.13424">
        <ele>325</ele>
        <time>2024-04-17T13:16:47Z</time>
      </trkpt>
      <trkpt lat="43.24428" lon="0.13425">
        <ele>325</ele>
        <time>2024-04-17T13:16:48Z</time>
      </trkpt>
      <trkpt lat="43.24428" lon="0.13427">
        <ele>325</ele>
        <time>2024-04-17T13:16:49Z</time>
      </trkpt>
      <trkpt lat="43.24428" lon="0.13427">
        <ele>325</ele>
        <time>2024-04-17T13:16:50Z</time>
      </trkpt>
      <trkpt lat="43.24428" lon="0.13427">
        <ele>325</ele>
        <time>2024-04-17T13:16:51Z</time>
      </trkpt>
      <trkpt lat="43.24428" lon="0.13427">
        <ele>325</ele>
        <time>2024-04-17T13:16:52Z</time>
      </trkpt>
      <trkpt lat="43.24428" lon="0.13427">
        <ele>325</ele>
        <time>2024-04-17T13:16:53Z</time>
      </trkpt>
      <trkpt lat="43.24428" lon="0.13427">
        <ele>325</ele>
        <time>2024-04-17T13:16:54Z</time>
      </trkpt>
      <trkpt lat="43.24428" lon="0.13427">
        <ele>324.8</ele>
        <time>2024-04-17T13:16:55Z</time>
      </trkpt>
      <trkpt lat="43.24428" lon="0.13427">
        <ele>324.8</ele>
        <time>2024-04-17T13:16:56Z</time>
      </trkpt>
      <trkpt lat="43.24428" lon="0.13427">
        <ele>324.8</ele>
        <time>2024-04-17T13:16:57Z</time>
      </trkpt>
      <trkpt lat="43.24428" lon="0.13427">
        <ele>324.8</ele>
        <time>2024-04-17T13:16:58Z</time>
      </trkpt>
      <trkpt lat="43.24428" lon="0.13427">
        <ele>324.8</ele>
        <time>2024-04-17T13:16:59Z</time>
      </trkpt>
      <trkpt lat="43.24428" lon="0.13427">
        <ele>325</ele>
        <time>2024-04-17T13:17:00Z</time>
      </trkpt>
      <trkpt lat="43.24428" lon="0.13427">
        <ele>325</ele>
        <time>2024-04-17T13:17:01Z</time>
      </trkpt>
      <trkpt lat="43.24428" lon="0.13427">
        <ele>325</ele>
        <time>2024-04-17T13:17:02Z</time>
      </trkpt>
      <trkpt lat="43.24428" lon="0.13429">
        <ele>325</ele>
        <time>2024-04-17T13:17:03Z</time>
      </trkpt>
      <trkpt lat="43.24428" lon="0.13432">
        <ele>325.2</ele>
        <time>2024-04-17T13:17:04Z</time>
      </trkpt>
      <trkpt lat="43.24428" lon="0.13432">
        <ele>325.2</ele>
        <time>2024-04-17T13:17:05Z</time>
      </trkpt>
      <trkpt lat="43.24428" lon="0.13432">
        <ele>325.2</ele>
        <time>2024-04-17T13:17:06Z</time>
      </trkpt>
      <trkpt lat="43.24428" lon="0.13432">
        <ele>325.2</ele>
        <time>2024-04-17T13:17:07Z</time>
      </trkpt>
      <trkpt lat="43.24428" lon="0.13432">
        <ele>325.4</ele>
        <time>2024-04-17T13:17:08Z</time>
      </trkpt>
      <trkpt lat="43.24428" lon="0.13432">
        <ele>325.6</ele>
        <time>2024-04-17T13:17:09Z</time>
      </trkpt>
      <trkpt lat="43.24428" lon="0.13432">
        <ele>325.6</ele>
        <time>2024-04-17T13:17:10Z</time>
      </trkpt>
      <trkpt lat="43.24428" lon="0.13433">
        <ele>325.8</ele>
        <time>2024-04-17T13:17:11Z</time>
      </trkpt>
      <trkpt lat="43.24428" lon="0.13435">
        <ele>326</ele>
        <time>2024-04-17T13:17:12Z</time>
      </trkpt>
      <trkpt lat="43.24428" lon="0.13437">
        <ele>326</ele>
        <time>2024-04-17T13:17:13Z</time>
      </trkpt>
      <trkpt lat="43.24428" lon="0.13438">
        <ele>326.2</ele>
        <time>2024-04-17T13:17:14Z</time>
      </trkpt>
      <trkpt lat="43.24427" lon="0.1344">
        <ele>326.4</ele>
        <time>2024-04-17T13:17:15Z</time>
      </trkpt>
      <trkpt lat="43.24427" lon="0.13443">
        <ele>326.6</ele>
        <time>2024-04-17T13:17:16Z</time>
      </trkpt>
      <trkpt lat="43.24426" lon="0.13445">
        <ele>326.8</ele>
        <time>2024-04-17T13:17:17Z</time>
      </trkpt>
      <trkpt lat="43.24426" lon="0.13447">
        <ele>327</ele>
        <time>2024-04-17T13:17:18Z</time>
      </trkpt>
      <trkpt lat="43.24424" lon="0.13449">
        <ele>327.2</ele>
        <time>2024-04-17T13:17:19Z</time>
      </trkpt>
      <trkpt lat="43.24424" lon="0.1345">
        <ele>327.4</ele>
        <time>2024-04-17T13:17:20Z</time>
      </trkpt>
      <trkpt lat="43.24424" lon="0.13453">
        <ele>327.4</ele>
        <time>2024-04-17T13:17:21Z</time>
      </trkpt>
      <trkpt lat="43.24424" lon="0.13453">
        <ele>327.6</ele>
        <time>2024-04-17T13:17:22Z</time>
      </trkpt>
      <trkpt lat="43.24424" lon="0.13455">
        <ele>327.8</ele>
        <time>2024-04-17T13:17:23Z</time>
      </trkpt>
      <trkpt lat="43.24424" lon="0.13455">
        <ele>327.8</ele>
        <time>2024-04-17T13:17:24Z</time>
      </trkpt>
      <trkpt lat="43.24424" lon="0.13455">
        <ele>328.2</ele>
        <time>2024-04-17T13:17:25Z</time>
      </trkpt>
      <trkpt lat="43.24424" lon="0.13459">
        <ele>328.2</ele>
        <time>2024-04-17T13:17:26Z</time>
      </trkpt>
      <trkpt lat="43.24424" lon="0.1346">
        <ele>328.4</ele>
        <time>2024-04-17T13:17:27Z</time>
      </trkpt>
      <trkpt lat="43.24424" lon="0.1346">
        <ele>328.6</ele>
        <time>2024-04-17T13:17:28Z</time>
      </trkpt>
      <trkpt lat="43.24424" lon="0.1346">
        <ele>328.8</ele>
        <time>2024-04-17T13:17:29Z</time>
      </trkpt>
      <trkpt lat="43.24424" lon="0.13461">
        <ele>329</ele>
        <time>2024-04-17T13:17:30Z</time>
      </trkpt>
      <trkpt lat="43.24424" lon="0.13462">
        <ele>329</ele>
        <time>2024-04-17T13:17:31Z</time>
      </trkpt>
      <trkpt lat="43.24424" lon="0.13463">
        <ele>329.2</ele>
        <time>2024-04-17T13:17:32Z</time>
      </trkpt>
      <trkpt lat="43.24423" lon="0.13463">
        <ele>329.4</ele>
        <time>2024-04-17T13:17:33Z</time>
      </trkpt>
      <trkpt lat="43.24423" lon="0.13463">
        <ele>329.6</ele>
        <time>2024-04-17T13:17:34Z</time>
      </trkpt>
      <trkpt lat="43.24423" lon="0.13463">
        <ele>329.8</ele>
        <time>2024-04-17T13:17:35Z</time>
      </trkpt>
      <trkpt lat="43.24424" lon="0.13466">
        <ele>329.8</ele>
        <time>2024-04-17T13:17:36Z</time>
      </trkpt>
      <trkpt lat="43.24423" lon="0.13466">
        <ele>330</ele>
        <time>2024-04-17T13:17:37Z</time>
      </trkpt>
      <trkpt lat="43.24423" lon="0.13469">
        <ele>330</ele>
        <time>2024-04-17T13:17:38Z</time>
      </trkpt>
      <trkpt lat="43.24422" lon="0.13473">
        <ele>330.2</ele>
        <time>2024-04-17T13:17:39Z</time>
      </trkpt>
      <trkpt lat="43.24422" lon="0.13476">
        <ele>330.4</ele>
        <time>2024-04-17T13:17:40Z</time>
      </trkpt>
      <trkpt lat="43.24421" lon="0.13476">
        <ele>330.6</ele>
        <time>2024-04-17T13:17:41Z</time>
      </trkpt>
      <trkpt lat="43.2442" lon="0.13478">
        <ele>330.6</ele>
        <time>2024-04-17T13:17:42Z</time>
      </trkpt>
      <trkpt lat="43.24419" lon="0.1348">
        <ele>330.8</ele>
        <time>2024-04-17T13:17:43Z</time>
      </trkpt>
      <trkpt lat="43.24418" lon="0.13481">
        <ele>330.8</ele>
        <time>2024-04-17T13:17:44Z</time>
      </trkpt>
      <trkpt lat="43.24417" lon="0.13483">
        <ele>330.8</ele>
        <time>2024-04-17T13:17:45Z</time>
      </trkpt>
      <trkpt lat="43.24416" lon="0.13483">
        <ele>331</ele>
        <time>2024-04-17T13:17:46Z</time>
      </trkpt>
      <trkpt lat="43.24416" lon="0.13485">
        <ele>331</ele>
        <time>2024-04-17T13:17:47Z</time>
      </trkpt>
      <trkpt lat="43.24415" lon="0.13486">
        <ele>331.2</ele>
        <time>2024-04-17T13:17:48Z</time>
      </trkpt>
      <trkpt lat="43.24414" lon="0.13488">
        <ele>331.2</ele>
        <time>2024-04-17T13:17:49Z</time>
      </trkpt>
      <trkpt lat="43.24411" lon="0.13491">
        <ele>331.4</ele>
        <time>2024-04-17T13:17:50Z</time>
      </trkpt>
      <trkpt lat="43.24408" lon="0.13493">
        <ele>331.6</ele>
        <time>2024-04-17T13:17:51Z</time>
      </trkpt>
      <trkpt lat="43.24406" lon="0.13497">
        <ele>331.6</ele>
        <time>2024-04-17T13:17:52Z</time>
      </trkpt>
      <trkpt lat="43.24405" lon="0.135">
        <ele>332</ele>
        <time>2024-04-17T13:17:53Z</time>
      </trkpt>
      <trkpt lat="43.24406" lon="0.13502">
        <ele>332</ele>
        <time>2024-04-17T13:17:54Z</time>
      </trkpt>
      <trkpt lat="43.24406" lon="0.13503">
        <ele>332.2</ele>
        <time>2024-04-17T13:17:55Z</time>
      </trkpt>
      <trkpt lat="43.24406" lon="0.13505">
        <ele>332.2</ele>
        <time>2024-04-17T13:17:56Z</time>
      </trkpt>
      <trkpt lat="43.24407" lon="0.13506">
        <ele>332.4</ele>
        <time>2024-04-17T13:17:57Z</time>
      </trkpt>
      <trkpt lat="43.24407" lon="0.13509">
        <ele>332.6</ele>
        <time>2024-04-17T13:17:58Z</time>
      </trkpt>
      <trkpt lat="43.24407" lon="0.13512">
        <ele>332.8</ele>
        <time>2024-04-17T13:17:59Z</time>
      </trkpt>
      <trkpt lat="43.24407" lon="0.13514">
        <ele>332.8</ele>
        <time>2024-04-17T13:18:00Z</time>
      </trkpt>
      <trkpt lat="43.24406" lon="0.13516">
        <ele>333</ele>
        <time>2024-04-17T13:18:01Z</time>
      </trkpt>
      <trkpt lat="43.24405" lon="0.1352">
        <ele>333.2</ele>
        <time>2024-04-17T13:18:02Z</time>
      </trkpt>
      <trkpt lat="43.24404" lon="0.13521">
        <ele>333.2</ele>
        <time>2024-04-17T13:18:03Z</time>
      </trkpt>
      <trkpt lat="43.24403" lon="0.13523">
        <ele>333.4</ele>
        <time>2024-04-17T13:18:04Z</time>
      </trkpt>
      <trkpt lat="43.24403" lon="0.13525">
        <ele>333.4</ele>
        <time>2024-04-17T13:18:05Z</time>
      </trkpt>
      <trkpt lat="43.24403" lon="0.13529">
        <ele>333.6</ele>
        <time>2024-04-17T13:18:06Z</time>
      </trkpt>
      <trkpt lat="43.24405" lon="0.13532">
        <ele>333.8</ele>
        <time>2024-04-17T13:18:07Z</time>
      </trkpt>
      <trkpt lat="43.24405" lon="0.13533">
        <ele>333.8</ele>
        <time>2024-04-17T13:18:08Z</time>
      </trkpt>
      <trkpt lat="43.24406" lon="0.13534">
        <ele>334</ele>
        <time>2024-04-17T13:18:09Z</time>
      </trkpt>
      <trkpt lat="43.24404" lon="0.13536">
        <ele>334.2</ele>
        <time>2024-04-17T13:18:10Z</time>
      </trkpt>
      <trkpt lat="43.24402" lon="0.13536">
        <ele>334.2</ele>
        <time>2024-04-17T13:18:11Z</time>
      </trkpt>
      <trkpt lat="43.244" lon="0.13537">
        <ele>334.4</ele>
        <time>2024-04-17T13:18:12Z</time>
      </trkpt>
      <trkpt lat="43.24399" lon="0.13537">
        <ele>334.4</ele>
        <time>2024-04-17T13:18:13Z</time>
      </trkpt>
      <trkpt lat="43.24398" lon="0.13538">
        <ele>334.6</ele>
        <time>2024-04-17T13:18:14Z</time>
      </trkpt>
      <trkpt lat="43.24398" lon="0.13539">
        <ele>334.6</ele>
        <time>2024-04-17T13:18:15Z</time>
      </trkpt>
      <trkpt lat="43.24397" lon="0.13541">
        <ele>335</ele>
        <time>2024-04-17T13:18:16Z</time>
      </trkpt>
      <trkpt lat="43.24396" lon="0.13542">
        <ele>335.2</ele>
        <time>2024-04-17T13:18:17Z</time>
      </trkpt>
      <trkpt lat="43.24395" lon="0.13544">
        <ele>335.4</ele>
        <time>2024-04-17T13:18:18Z</time>
      </trkpt>
      <trkpt lat="43.24393" lon="0.13545">
        <ele>335.6</ele>
        <time>2024-04-17T13:18:19Z</time>
      </trkpt>
      <trkpt lat="43.24392" lon="0.13546">
        <ele>335.8</ele>
        <time>2024-04-17T13:18:20Z</time>
      </trkpt>
      <trkpt lat="43.24391" lon="0.13547">
        <ele>336</ele>
        <time>2024-04-17T13:18:21Z</time>
      </trkpt>
      <trkpt lat="43.2439" lon="0.13547">
        <ele>336.2</ele>
        <time>2024-04-17T13:18:22Z</time>
      </trkpt>
      <trkpt lat="43.24389" lon="0.13547">
        <ele>336.4</ele>
        <time>2024-04-17T13:18:23Z</time>
      </trkpt>
      <trkpt lat="43.24387" lon="0.13548">
        <ele>336.4</ele>
        <time>2024-04-17T13:18:24Z</time>
      </trkpt>
      <trkpt lat="43.24386" lon="0.13549">
        <ele>336.6</ele>
        <time>2024-04-17T13:18:25Z</time>
      </trkpt>
      <trkpt lat="43.24386" lon="0.1355">
        <ele>336.6</ele>
        <time>2024-04-17T13:18:26Z</time>
      </trkpt>
      <trkpt lat="43.24386" lon="0.1355">
        <ele>336.8</ele>
        <time>2024-04-17T13:18:27Z</time>
      </trkpt>
      <trkpt lat="43.24386" lon="0.1355">
        <ele>337</ele>
        <time>2024-04-17T13:18:28Z</time>
      </trkpt>
      <trkpt lat="43.24385" lon="0.1355">
        <ele>337.2</ele>
        <time>2024-04-17T13:18:29Z</time>
      </trkpt>
      <trkpt lat="43.24385" lon="0.13551">
        <ele>337.4</ele>
        <time>2024-04-17T13:18:30Z</time>
      </trkpt>
      <trkpt lat="43.24385" lon="0.13552">
        <ele>337.4</ele>
        <time>2024-04-17T13:18:31Z</time>
      </trkpt>
      <trkpt lat="43.24385" lon="0.13553">
        <ele>337.6</ele>
        <time>2024-04-17T13:18:32Z</time>
      </trkpt>
      <trkpt lat="43.24385" lon="0.13554">
        <ele>337.6</ele>
        <time>2024-04-17T13:18:33Z</time>
      </trkpt>
      <trkpt lat="43.24385" lon="0.13555">
        <ele>337.8</ele>
        <time>2024-04-17T13:18:34Z</time>
      </trkpt>
      <trkpt lat="43.24384" lon="0.13557">
        <ele>337.8</ele>
        <time>2024-04-17T13:18:35Z</time>
      </trkpt>
      <trkpt lat="43.24384" lon="0.13559">
        <ele>338</ele>
        <time>2024-04-17T13:18:36Z</time>
      </trkpt>
      <trkpt lat="43.24383" lon="0.13561">
        <ele>338</ele>
        <time>2024-04-17T13:18:37Z</time>
      </trkpt>
      <trkpt lat="43.24382" lon="0.13563">
        <ele>338.2</ele>
        <time>2024-04-17T13:18:38Z</time>
      </trkpt>
      <trkpt lat="43.24381" lon="0.13564">
        <ele>338.4</ele>
        <time>2024-04-17T13:18:39Z</time>
      </trkpt>
      <trkpt lat="43.24381" lon="0.13565">
        <ele>338.6</ele>
        <time>2024-04-17T13:18:40Z</time>
      </trkpt>
      <trkpt lat="43.2438" lon="0.13566">
        <ele>338.6</ele>
        <time>2024-04-17T13:18:41Z</time>
      </trkpt>
      <trkpt lat="43.2438" lon="0.13568">
        <ele>338.8</ele>
        <time>2024-04-17T13:18:42Z</time>
      </trkpt>
      <trkpt lat="43.24379" lon="0.13569">
        <ele>339</ele>
        <time>2024-04-17T13:18:43Z</time>
      </trkpt>
      <trkpt lat="43.24379" lon="0.1357">
        <ele>339.2</ele>
        <time>2024-04-17T13:18:44Z</time>
      </trkpt>
      <trkpt lat="43.24378" lon="0.13572">
        <ele>339.4</ele>
        <time>2024-04-17T13:18:45Z</time>
      </trkpt>
      <trkpt lat="43.24377" lon="0.13573">
        <ele>339.4</ele>
        <time>2024-04-17T13:18:46Z</time>
      </trkpt>
      <trkpt lat="43.24377" lon="0.13575">
        <ele>339.6</ele>
        <time>2024-04-17T13:18:47Z</time>
      </trkpt>
      <trkpt lat="43.24376" lon="0.13575">
        <ele>339.8</ele>
        <time>2024-04-17T13:18:48Z</time>
      </trkpt>
      <trkpt lat="43.24376" lon="0.13576">
        <ele>339.8</ele>
        <time>2024-04-17T13:18:49Z</time>
      </trkpt>
      <trkpt lat="43.24375" lon="0.13576">
        <ele>340</ele>
        <time>2024-04-17T13:18:50Z</time>
      </trkpt>
      <trkpt lat="43.24375" lon="0.13577">
        <ele>340</ele>
        <time>2024-04-17T13:18:51Z</time>
      </trkpt>
      <trkpt lat="43.24374" lon="0.13578">
        <ele>340</ele>
        <time>2024-04-17T13:18:52Z</time>
      </trkpt>
      <trkpt lat="43.24374" lon="0.13578">
        <ele>340.2</ele>
        <time>2024-04-17T13:18:53Z</time>
      </trkpt>
      <trkpt lat="43.24374" lon="0.13578">
        <ele>340.2</ele>
        <time>2024-04-17T13:18:54Z</time>
      </trkpt>
      <trkpt lat="43.24373" lon="0.13578">
        <ele>340.4</ele>
        <time>2024-04-17T13:18:55Z</time>
      </trkpt>
      <trkpt lat="43.24372" lon="0.13579">
        <ele>340.4</ele>
        <time>2024-04-17T13:18:56Z</time>
      </trkpt>
      <trkpt lat="43.24371" lon="0.1358">
        <ele>340.6</ele>
        <time>2024-04-17T13:18:57Z</time>
      </trkpt>
      <trkpt lat="43.24369" lon="0.13581">
        <ele>340.4</ele>
        <time>2024-04-17T13:18:58Z</time>
      </trkpt>
      <trkpt lat="43.24367" lon="0.13582">
        <ele>340.6</ele>
        <time>2024-04-17T13:18:59Z</time>
      </trkpt>
      <trkpt lat="43.24366" lon="0.13583">
        <ele>340.4</ele>
        <time>2024-04-17T13:19:00Z</time>
      </trkpt>
      <trkpt lat="43.24364" lon="0.13585">
        <ele>340.6</ele>
        <time>2024-04-17T13:19:01Z</time>
      </trkpt>
      <trkpt lat="43.24362" lon="0.13586">
        <ele>340.6</ele>
        <time>2024-04-17T13:19:02Z</time>
      </trkpt>
      <trkpt lat="43.24361" lon="0.13587">
        <ele>340.6</ele>
        <time>2024-04-17T13:19:03Z</time>
      </trkpt>
      <trkpt lat="43.24359" lon="0.13588">
        <ele>340.8</ele>
        <time>2024-04-17T13:19:04Z</time>
      </trkpt>
      <trkpt lat="43.24357" lon="0.13589">
        <ele>341</ele>
        <time>2024-04-17T13:19:05Z</time>
      </trkpt>
      <trkpt lat="43.24355" lon="0.1359">
        <ele>341</ele>
        <time>2024-04-17T13:19:06Z</time>
      </trkpt>
      <trkpt lat="43.24353" lon="0.13591">
        <ele>341.2</ele>
        <time>2024-04-17T13:19:07Z</time>
      </trkpt>
      <trkpt lat="43.24351" lon="0.13591">
        <ele>341.2</ele>
        <time>2024-04-17T13:19:08Z</time>
      </trkpt>
      <trkpt lat="43.2435" lon="0.13592">
        <ele>341.4</ele>
        <time>2024-04-17T13:19:09Z</time>
      </trkpt>
      <trkpt lat="43.24348" lon="0.13592">
        <ele>341.4</ele>
        <time>2024-04-17T13:19:10Z</time>
      </trkpt>
      <trkpt lat="43.24347" lon="0.13594">
        <ele>341.6</ele>
        <time>2024-04-17T13:19:11Z</time>
      </trkpt>
      <trkpt lat="43.24345" lon="0.13595">
        <ele>341.8</ele>
        <time>2024-04-17T13:19:12Z</time>
      </trkpt>
      <trkpt lat="43.24343" lon="0.13596">
        <ele>341.8</ele>
        <time>2024-04-17T13:19:13Z</time>
      </trkpt>
      <trkpt lat="43.24341" lon="0.13598">
        <ele>342</ele>
        <time>2024-04-17T13:19:14Z</time>
      </trkpt>
      <trkpt lat="43.2434" lon="0.13599">
        <ele>342.2</ele>
        <time>2024-04-17T13:19:15Z</time>
      </trkpt>
      <trkpt lat="43.24339" lon="0.136">
        <ele>342.2</ele>
        <time>2024-04-17T13:19:16Z</time>
      </trkpt>
      <trkpt lat="43.24339" lon="0.13601">
        <ele>342.4</ele>
        <time>2024-04-17T13:19:17Z</time>
      </trkpt>
      <trkpt lat="43.24338" lon="0.13602">
        <ele>342.6</ele>
        <time>2024-04-17T13:19:18Z</time>
      </trkpt>
      <trkpt lat="43.24338" lon="0.13604">
        <ele>342.6</ele>
        <time>2024-04-17T13:19:19Z</time>
      </trkpt>
      <trkpt lat="43.24338" lon="0.13606">
        <ele>343</ele>
        <time>2024-04-17T13:19:20Z</time>
      </trkpt>
      <trkpt lat="43.24337" lon="0.13608">
        <ele>343</ele>
        <time>2024-04-17T13:19:21Z</time>
      </trkpt>
      <trkpt lat="43.24335" lon="0.13609">
        <ele>343.2</ele>
        <time>2024-04-17T13:19:22Z</time>
      </trkpt>
      <trkpt lat="43.24334" lon="0.1361">
        <ele>343.2</ele>
        <time>2024-04-17T13:19:23Z</time>
      </trkpt>
      <trkpt lat="43.24333" lon="0.13612">
        <ele>343.6</ele>
        <time>2024-04-17T13:19:24Z</time>
      </trkpt>
      <trkpt lat="43.24332" lon="0.13613">
        <ele>343.8</ele>
        <time>2024-04-17T13:19:25Z</time>
      </trkpt>
      <trkpt lat="43.24331" lon="0.13614">
        <ele>344</ele>
        <time>2024-04-17T13:19:26Z</time>
      </trkpt>
      <trkpt lat="43.24331" lon="0.13616">
        <ele>344</ele>
        <time>2024-04-17T13:19:27Z</time>
      </trkpt>
      <trkpt lat="43.2433" lon="0.13618">
        <ele>344.2</ele>
        <time>2024-04-17T13:19:28Z</time>
      </trkpt>
      <trkpt lat="43.24329" lon="0.13622">
        <ele>344.4</ele>
        <time>2024-04-17T13:19:29Z</time>
      </trkpt>
      <trkpt lat="43.24328" lon="0.13624">
        <ele>344.4</ele>
        <time>2024-04-17T13:19:30Z</time>
      </trkpt>
      <trkpt lat="43.24327" lon="0.13625">
        <ele>344.8</ele>
        <time>2024-04-17T13:19:31Z</time>
      </trkpt>
      <trkpt lat="43.24324" lon="0.13627">
        <ele>345</ele>
        <time>2024-04-17T13:19:32Z</time>
      </trkpt>
      <trkpt lat="43.24323" lon="0.13628">
        <ele>345.2</ele>
        <time>2024-04-17T13:19:33Z</time>
      </trkpt>
      <trkpt lat="43.24321" lon="0.13631">
        <ele>345.2</ele>
        <time>2024-04-17T13:19:34Z</time>
      </trkpt>
      <trkpt lat="43.2432" lon="0.13633">
        <ele>345.4</ele>
        <time>2024-04-17T13:19:35Z</time>
      </trkpt>
      <trkpt lat="43.2432" lon="0.13634">
        <ele>345.6</ele>
        <time>2024-04-17T13:19:36Z</time>
      </trkpt>
      <trkpt lat="43.24319" lon="0.13635">
        <ele>345.6</ele>
        <time>2024-04-17T13:19:37Z</time>
      </trkpt>
      <trkpt lat="43.24318" lon="0.13635">
        <ele>345.6</ele>
        <time>2024-04-17T13:19:38Z</time>
      </trkpt>
      <trkpt lat="43.24317" lon="0.13635">
        <ele>345.6</ele>
        <time>2024-04-17T13:19:39Z</time>
      </trkpt>
      <trkpt lat="43.24315" lon="0.13634">
        <ele>345.6</ele>
        <time>2024-04-17T13:19:40Z</time>
      </trkpt>
      <trkpt lat="43.24313" lon="0.13635">
        <ele>345.6</ele>
        <time>2024-04-17T13:19:41Z</time>
      </trkpt>
      <trkpt lat="43.24311" lon="0.13635">
        <ele>345.6</ele>
        <time>2024-04-17T13:19:42Z</time>
      </trkpt>
      <trkpt lat="43.24308" lon="0.13635">
        <ele>345.6</ele>
        <time>2024-04-17T13:19:43Z</time>
      </trkpt>
      <trkpt lat="43.24306" lon="0.13635">
        <ele>345.6</ele>
        <time>2024-04-17T13:19:44Z</time>
      </trkpt>
      <trkpt lat="43.24303" lon="0.13635">
        <ele>345.4</ele>
        <time>2024-04-17T13:19:45Z</time>
      </trkpt>
      <trkpt lat="43.243" lon="0.13634">
        <ele>345.4</ele>
        <time>2024-04-17T13:19:46Z</time>
      </trkpt>
      <trkpt lat="43.24296" lon="0.13634">
        <ele>345.4</ele>
        <time>2024-04-17T13:19:47Z</time>
      </trkpt>
      <trkpt lat="43.24293" lon="0.13634">
        <ele>345.4</ele>
        <time>2024-04-17T13:19:48Z</time>
      </trkpt>
      <trkpt lat="43.24291" lon="0.13634">
        <ele>345.4</ele>
        <time>2024-04-17T13:19:49Z</time>
      </trkpt>
      <trkpt lat="43.24289" lon="0.13634">
        <ele>345.2</ele>
        <time>2024-04-17T13:19:50Z</time>
      </trkpt>
      <trkpt lat="43.24286" lon="0.13635">
        <ele>345.2</ele>
        <time>2024-04-17T13:19:51Z</time>
      </trkpt>
      <trkpt lat="43.24283" lon="0.13635">
        <ele>345</ele>
        <time>2024-04-17T13:19:52Z</time>
      </trkpt>
      <trkpt lat="43.24281" lon="0.13635">
        <ele>345</ele>
        <time>2024-04-17T13:19:53Z</time>
      </trkpt>
      <trkpt lat="43.24278" lon="0.13636">
        <ele>344.8</ele>
        <time>2024-04-17T13:19:54Z</time>
      </trkpt>
      <trkpt lat="43.24275" lon="0.13636">
        <ele>344.8</ele>
        <time>2024-04-17T13:19:55Z</time>
      </trkpt>
      <trkpt lat="43.24272" lon="0.13636">
        <ele>344.8</ele>
        <time>2024-04-17T13:19:56Z</time>
      </trkpt>
      <trkpt lat="43.24269" lon="0.13637">
        <ele>344.6</ele>
        <time>2024-04-17T13:19:57Z</time>
      </trkpt>
      <trkpt lat="43.24265" lon="0.13637">
        <ele>344.6</ele>
        <time>2024-04-17T13:19:58Z</time>
      </trkpt>
      <trkpt lat="43.24261" lon="0.13637">
        <ele>344.4</ele>
        <time>2024-04-17T13:19:59Z</time>
      </trkpt>
      <trkpt lat="43.24257" lon="0.13638">
        <ele>344.2</ele>
        <time>2024-04-17T13:20:00Z</time>
      </trkpt>
      <trkpt lat="43.24253" lon="0.13639">
        <ele>344.2</ele>
        <time>2024-04-17T13:20:01Z</time>
      </trkpt>
      <trkpt lat="43.24248" lon="0.13639">
        <ele>344</ele>
        <time>2024-04-17T13:20:02Z</time>
      </trkpt>
      <trkpt lat="43.24246" lon="0.1364">
        <ele>343.8</ele>
        <time>2024-04-17T13:20:03Z</time>
      </trkpt>
      <trkpt lat="43.24245" lon="0.13641">
        <ele>343.8</ele>
        <time>2024-04-17T13:20:04Z</time>
      </trkpt>
      <trkpt lat="43.24245" lon="0.13641">
        <ele>343.4</ele>
        <time>2024-04-17T13:20:05Z</time>
      </trkpt>
      <trkpt lat="43.24245" lon="0.13641">
        <ele>343.2</ele>
        <time>2024-04-17T13:20:06Z</time>
      </trkpt>
      <trkpt lat="43.24244" lon="0.13641">
        <ele>343</ele>
        <time>2024-04-17T13:20:07Z</time>
      </trkpt>
      <trkpt lat="43.24244" lon="0.13641">
        <ele>343</ele>
        <time>2024-04-17T13:20:08Z</time>
      </trkpt>
      <trkpt lat="43.24244" lon="0.13641">
        <ele>343</ele>
        <time>2024-04-17T13:20:09Z</time>
      </trkpt>
      <trkpt lat="43.24244" lon="0.13641">
        <ele>343</ele>
        <time>2024-04-17T13:20:10Z</time>
      </trkpt>
      <trkpt lat="43.24244" lon="0.13641">
        <ele>343</ele>
        <time>2024-04-17T13:20:11Z</time>
      </trkpt>
      <trkpt lat="43.24244" lon="0.13641">
        <ele>343</ele>
        <time>2024-04-17T13:20:12Z</time>
      </trkpt>
      <trkpt lat="43.24244" lon="0.13641">
        <ele>343</ele>
        <time>2024-04-17T13:20:13Z</time>
      </trkpt>
      <trkpt lat="43.24244" lon="0.13641">
        <ele>343</ele>
        <time>2024-04-17T13:20:14Z</time>
      </trkpt>
      <trkpt lat="43.24243" lon="0.13644">
        <ele>343</ele>
        <time>2024-04-17T13:20:15Z</time>
      </trkpt>
      <trkpt lat="43.24243" lon="0.13645">
        <ele>343</ele>
        <time>2024-04-17T13:20:16Z</time>
      </trkpt>
      <trkpt lat="43.24243" lon="0.13645">
        <ele>343</ele>
        <time>2024-04-17T13:20:17Z</time>
      </trkpt>
      <trkpt lat="43.24243" lon="0.13645">
        <ele>343</ele>
        <time>2024-04-17T13:20:18Z</time>
      </trkpt>
      <trkpt lat="43.24243" lon="0.13645">
        <ele>343</ele>
        <time>2024-04-17T13:20:19Z</time>
      </trkpt>
      <trkpt lat="43.24243" lon="0.13645">
        <ele>343</ele>
        <time>2024-04-17T13:20:20Z</time>
      </trkpt>
      <trkpt lat="43.24243" lon="0.13645">
        <ele>343</ele>
        <time>2024-04-17T13:20:21Z</time>
      </trkpt>
      <trkpt lat="43.24243" lon="0.13645">
        <ele>343</ele>
        <time>2024-04-17T13:20:22Z</time>
      </trkpt>
      <trkpt lat="43.24243" lon="0.13645">
        <ele>343</ele>
        <time>2024-04-17T13:20:23Z</time>
      </trkpt>
      <trkpt lat="43.24243" lon="0.13645">
        <ele>343</ele>
        <time>2024-04-17T13:20:24Z</time>
      </trkpt>
      <trkpt lat="43.24243" lon="0.13645">
        <ele>343</ele>
        <time>2024-04-17T13:20:25Z</time>
      </trkpt>
      <trkpt lat="43.24243" lon="0.13645">
        <ele>343</ele>
        <time>2024-04-17T13:20:26Z</time>
      </trkpt>
      <trkpt lat="43.24243" lon="0.13645">
        <ele>343</ele>
        <time>2024-04-17T13:20:27Z</time>
      </trkpt>
      <trkpt lat="43.24243" lon="0.13645">
        <ele>343</ele>
        <time>2024-04-17T13:20:28Z</time>
      </trkpt>
      <trkpt lat="43.24243" lon="0.13645">
        <ele>343</ele>
        <time>2024-04-17T13:20:29Z</time>
      </trkpt>
      <trkpt lat="43.24242" lon="0.13645">
        <ele>343</ele>
        <time>2024-04-17T13:20:30Z</time>
      </trkpt>
      <trkpt lat="43.2424" lon="0.13645">
        <ele>342.8</ele>
        <time>2024-04-17T13:20:31Z</time>
      </trkpt>
      <trkpt lat="43.24238" lon="0.13645">
        <ele>342.8</ele>
        <time>2024-04-17T13:20:32Z</time>
      </trkpt>
      <trkpt lat="43.24236" lon="0.13644">
        <ele>342.6</ele>
        <time>2024-04-17T13:20:33Z</time>
      </trkpt>
      <trkpt lat="43.24234" lon="0.13644">
        <ele>342.6</ele>
        <time>2024-04-17T13:20:34Z</time>
      </trkpt>
      <trkpt lat="43.24232" lon="0.13644">
        <ele>342.6</ele>
        <time>2024-04-17T13:20:35Z</time>
      </trkpt>
      <trkpt lat="43.24228" lon="0.13644">
        <ele>342.6</ele>
        <time>2024-04-17T13:20:36Z</time>
      </trkpt>
      <trkpt lat="43.24225" lon="0.13644">
        <ele>342.4</ele>
        <time>2024-04-17T13:20:37Z</time>
      </trkpt>
      <trkpt lat="43.24221" lon="0.13644">
        <ele>342.2</ele>
        <time>2024-04-17T13:20:38Z</time>
      </trkpt>
      <trkpt lat="43.24216" lon="0.13643">
        <ele>342</ele>
        <time>2024-04-17T13:20:39Z</time>
      </trkpt>
      <trkpt lat="43.24212" lon="0.13643">
        <ele>342</ele>
        <time>2024-04-17T13:20:40Z</time>
      </trkpt>
      <trkpt lat="43.24207" lon="0.13644">
        <ele>341.6</ele>
        <time>2024-04-17T13:20:41Z</time>
      </trkpt>
      <trkpt lat="43.24202" lon="0.13646">
        <ele>341.2</ele>
        <time>2024-04-17T13:20:42Z</time>
      </trkpt>
      <trkpt lat="43.24199" lon="0.13648">
        <ele>340.8</ele>
        <time>2024-04-17T13:20:43Z</time>
      </trkpt>
      <trkpt lat="43.24195" lon="0.13649">
        <ele>340.4</ele>
        <time>2024-04-17T13:20:44Z</time>
      </trkpt>
      <trkpt lat="43.24191" lon="0.13651">
        <ele>340.2</ele>
        <time>2024-04-17T13:20:45Z</time>
      </trkpt>
      <trkpt lat="43.24186" lon="0.13651">
        <ele>340</ele>
        <time>2024-04-17T13:20:46Z</time>
      </trkpt>
      <trkpt lat="43.24181" lon="0.13651">
        <ele>340</ele>
        <time>2024-04-17T13:20:47Z</time>
      </trkpt>
      <trkpt lat="43.24176" lon="0.13651">
        <ele>339.4</ele>
        <time>2024-04-17T13:20:48Z</time>
      </trkpt>
      <trkpt lat="43.24169" lon="0.13652">
        <ele>339.2</ele>
        <time>2024-04-17T13:20:49Z</time>
      </trkpt>
      <trkpt lat="43.24162" lon="0.13655">
        <ele>339</ele>
        <time>2024-04-17T13:20:50Z</time>
      </trkpt>
      <trkpt lat="43.24154" lon="0.13658">
        <ele>338.6</ele>
        <time>2024-04-17T13:20:51Z</time>
      </trkpt>
      <trkpt lat="43.24148" lon="0.13662">
        <ele>338.4</ele>
        <time>2024-04-17T13:20:52Z</time>
      </trkpt>
      <trkpt lat="43.24143" lon="0.13664">
        <ele>338</ele>
        <time>2024-04-17T13:20:53Z</time>
      </trkpt>
      <trkpt lat="43.24139" lon="0.13664">
        <ele>338</ele>
        <time>2024-04-17T13:20:54Z</time>
      </trkpt>
      <trkpt lat="43.24136" lon="0.13664">
        <ele>337.6</ele>
        <time>2024-04-17T13:20:55Z</time>
      </trkpt>
      <trkpt lat="43.24133" lon="0.13663">
        <ele>337.6</ele>
        <time>2024-04-17T13:20:56Z</time>
      </trkpt>
      <trkpt lat="43.2413" lon="0.13662">
        <ele>337.4</ele>
        <time>2024-04-17T13:20:57Z</time>
      </trkpt>
      <trkpt lat="43.24125" lon="0.13661">
        <ele>337.4</ele>
        <time>2024-04-17T13:20:58Z</time>
      </trkpt>
      <trkpt lat="43.24123" lon="0.1366">
        <ele>337.4</ele>
        <time>2024-04-17T13:20:59Z</time>
      </trkpt>
      <trkpt lat="43.24121" lon="0.1366">
        <ele>337.2</ele>
        <time>2024-04-17T13:21:00Z</time>
      </trkpt>
      <trkpt lat="43.24117" lon="0.13659">
        <ele>337.2</ele>
        <time>2024-04-17T13:21:01Z</time>
      </trkpt>
      <trkpt lat="43.24113" lon="0.13659">
        <ele>337.4</ele>
        <time>2024-04-17T13:21:02Z</time>
      </trkpt>
      <trkpt lat="43.2411" lon="0.13659">
        <ele>337.2</ele>
        <time>2024-04-17T13:21:03Z</time>
      </trkpt>
      <trkpt lat="43.24106" lon="0.1366">
        <ele>337.2</ele>
        <time>2024-04-17T13:21:04Z</time>
      </trkpt>
      <trkpt lat="43.24103" lon="0.1366">
        <ele>337.4</ele>
        <time>2024-04-17T13:21:05Z</time>
      </trkpt>
      <trkpt lat="43.241" lon="0.1366">
        <ele>337.4</ele>
        <time>2024-04-17T13:21:06Z</time>
      </trkpt>
      <trkpt lat="43.24099" lon="0.1366">
        <ele>337.4</ele>
        <time>2024-04-17T13:21:07Z</time>
      </trkpt>
      <trkpt lat="43.24097" lon="0.13661">
        <ele>337.4</ele>
        <time>2024-04-17T13:21:08Z</time>
      </trkpt>
      <trkpt lat="43.24094" lon="0.13662">
        <ele>337.4</ele>
        <time>2024-04-17T13:21:09Z</time>
      </trkpt>
      <trkpt lat="43.24092" lon="0.13662">
        <ele>337.4</ele>
        <time>2024-04-17T13:21:10Z</time>
      </trkpt>
      <trkpt lat="43.2409" lon="0.13663">
        <ele>337.6</ele>
        <time>2024-04-17T13:21:11Z</time>
      </trkpt>
      <trkpt lat="43.24088" lon="0.13663">
        <ele>337.6</ele>
        <time>2024-04-17T13:21:12Z</time>
      </trkpt>
      <trkpt lat="43.24086" lon="0.13664">
        <ele>337.8</ele>
        <time>2024-04-17T13:21:13Z</time>
      </trkpt>
      <trkpt lat="43.24085" lon="0.13664">
        <ele>338.2</ele>
        <time>2024-04-17T13:21:14Z</time>
      </trkpt>
      <trkpt lat="43.24082" lon="0.13665">
        <ele>338.4</ele>
        <time>2024-04-17T13:21:15Z</time>
      </trkpt>
      <trkpt lat="43.2408" lon="0.13665">
        <ele>338.6</ele>
        <time>2024-04-17T13:21:16Z</time>
      </trkpt>
      <trkpt lat="43.24078" lon="0.13666">
        <ele>338.8</ele>
        <time>2024-04-17T13:21:17Z</time>
      </trkpt>
      <trkpt lat="43.24076" lon="0.13665">
        <ele>339.2</ele>
        <time>2024-04-17T13:21:18Z</time>
      </trkpt>
      <trkpt lat="43.24074" lon="0.13665">
        <ele>339.4</ele>
        <time>2024-04-17T13:21:19Z</time>
      </trkpt>
      <trkpt lat="43.24072" lon="0.13665">
        <ele>339.4</ele>
        <time>2024-04-17T13:21:20Z</time>
      </trkpt>
      <trkpt lat="43.24069" lon="0.13665">
        <ele>339.6</ele>
        <time>2024-04-17T13:21:21Z</time>
      </trkpt>
      <trkpt lat="43.24066" lon="0.13666">
        <ele>339.6</ele>
        <time>2024-04-17T13:21:22Z</time>
      </trkpt>
      <trkpt lat="43.24062" lon="0.13667">
        <ele>339.6</ele>
        <time>2024-04-17T13:21:23Z</time>
      </trkpt>
      <trkpt lat="43.24059" lon="0.13668">
        <ele>339.6</ele>
        <time>2024-04-17T13:21:24Z</time>
      </trkpt>
      <trkpt lat="43.24055" lon="0.1367">
        <ele>339.6</ele>
        <time>2024-04-17T13:21:25Z</time>
      </trkpt>
      <trkpt lat="43.2405" lon="0.13672">
        <ele>339.6</ele>
        <time>2024-04-17T13:21:26Z</time>
      </trkpt>
      <trkpt lat="43.24046" lon="0.13674">
        <ele>339.4</ele>
        <time>2024-04-17T13:21:27Z</time>
      </trkpt>
      <trkpt lat="43.24041" lon="0.13676">
        <ele>339.4</ele>
        <time>2024-04-17T13:21:28Z</time>
      </trkpt>
      <trkpt lat="43.24037" lon="0.13679">
        <ele>339</ele>
        <time>2024-04-17T13:21:29Z</time>
      </trkpt>
      <trkpt lat="43.24032" lon="0.1368">
        <ele>338.6</ele>
        <time>2024-04-17T13:21:30Z</time>
      </trkpt>
      <trkpt lat="43.24027" lon="0.13681">
        <ele>338.4</ele>
        <time>2024-04-17T13:21:31Z</time>
      </trkpt>
      <trkpt lat="43.24023" lon="0.13682">
        <ele>338.4</ele>
        <time>2024-04-17T13:21:32Z</time>
      </trkpt>
      <trkpt lat="43.24019" lon="0.13684">
        <ele>338.2</ele>
        <time>2024-04-17T13:21:33Z</time>
      </trkpt>
      <trkpt lat="43.24015" lon="0.13686">
        <ele>338.2</ele>
        <time>2024-04-17T13:21:34Z</time>
      </trkpt>
      <trkpt lat="43.24013" lon="0.1369">
        <ele>338.2</ele>
        <time>2024-04-17T13:21:35Z</time>
      </trkpt>
      <trkpt lat="43.24012" lon="0.13694">
        <ele>338.2</ele>
        <time>2024-04-17T13:21:36Z</time>
      </trkpt>
      <trkpt lat="43.24009" lon="0.13697">
        <ele>338.2</ele>
        <time>2024-04-17T13:21:37Z</time>
      </trkpt>
      <trkpt lat="43.24006" lon="0.13699">
        <ele>338.2</ele>
        <time>2024-04-17T13:21:38Z</time>
      </trkpt>
      <trkpt lat="43.24004" lon="0.13702">
        <ele>338.2</ele>
        <time>2024-04-17T13:21:39Z</time>
      </trkpt>
      <trkpt lat="43.24001" lon="0.13704">
        <ele>338.2</ele>
        <time>2024-04-17T13:21:40Z</time>
      </trkpt>
      <trkpt lat="43.23999" lon="0.13706">
        <ele>338.4</ele>
        <time>2024-04-17T13:21:41Z</time>
      </trkpt>
      <trkpt lat="43.23997" lon="0.13711">
        <ele>338.4</ele>
        <time>2024-04-17T13:21:42Z</time>
      </trkpt>
      <trkpt lat="43.23996" lon="0.13714">
        <ele>338.6</ele>
        <time>2024-04-17T13:21:43Z</time>
      </trkpt>
      <trkpt lat="43.23995" lon="0.13718">
        <ele>338.6</ele>
        <time>2024-04-17T13:21:44Z</time>
      </trkpt>
      <trkpt lat="43.23995" lon="0.13722">
        <ele>338.8</ele>
        <time>2024-04-17T13:21:45Z</time>
      </trkpt>
      <trkpt lat="43.23994" lon="0.13726">
        <ele>339</ele>
        <time>2024-04-17T13:21:46Z</time>
      </trkpt>
      <trkpt lat="43.23994" lon="0.13728">
        <ele>339</ele>
        <time>2024-04-17T13:21:47Z</time>
      </trkpt>
      <trkpt lat="43.23994" lon="0.13729">
        <ele>339.4</ele>
        <time>2024-04-17T13:21:48Z</time>
      </trkpt>
      <trkpt lat="43.23994" lon="0.13733">
        <ele>339.4</ele>
        <time>2024-04-17T13:21:49Z</time>
      </trkpt>
      <trkpt lat="43.23993" lon="0.13736">
        <ele>339.6</ele>
        <time>2024-04-17T13:21:50Z</time>
      </trkpt>
      <trkpt lat="43.23992" lon="0.13739">
        <ele>339.6</ele>
        <time>2024-04-17T13:21:51Z</time>
      </trkpt>
      <trkpt lat="43.23992" lon="0.13743">
        <ele>339.6</ele>
        <time>2024-04-17T13:21:52Z</time>
      </trkpt>
      <trkpt lat="43.23992" lon="0.13745">
        <ele>339.8</ele>
        <time>2024-04-17T13:21:53Z</time>
      </trkpt>
      <trkpt lat="43.23992" lon="0.13748">
        <ele>339.8</ele>
        <time>2024-04-17T13:21:54Z</time>
      </trkpt>
      <trkpt lat="43.23991" lon="0.1375">
        <ele>339.8</ele>
        <time>2024-04-17T13:21:55Z</time>
      </trkpt>
      <trkpt lat="43.23991" lon="0.13753">
        <ele>340</ele>
        <time>2024-04-17T13:21:56Z</time>
      </trkpt>
      <trkpt lat="43.23991" lon="0.13756">
        <ele>340.2</ele>
        <time>2024-04-17T13:21:57Z</time>
      </trkpt>
      <trkpt lat="43.23989" lon="0.13758">
        <ele>340.4</ele>
        <time>2024-04-17T13:21:58Z</time>
      </trkpt>
      <trkpt lat="43.23988" lon="0.13759">
        <ele>340.6</ele>
        <time>2024-04-17T13:21:59Z</time>
      </trkpt>
      <trkpt lat="43.23986" lon="0.13761">
        <ele>340.8</ele>
        <time>2024-04-17T13:22:00Z</time>
      </trkpt>
      <trkpt lat="43.23985" lon="0.13764">
        <ele>340.8</ele>
        <time>2024-04-17T13:22:01Z</time>
      </trkpt>
      <trkpt lat="43.23984" lon="0.13766">
        <ele>341</ele>
        <time>2024-04-17T13:22:02Z</time>
      </trkpt>
      <trkpt lat="43.23984" lon="0.13768">
        <ele>341.2</ele>
        <time>2024-04-17T13:22:03Z</time>
      </trkpt>
      <trkpt lat="43.23984" lon="0.1377">
        <ele>341.2</ele>
        <time>2024-04-17T13:22:04Z</time>
      </trkpt>
      <trkpt lat="43.23984" lon="0.13772">
        <ele>341.4</ele>
        <time>2024-04-17T13:22:05Z</time>
      </trkpt>
      <trkpt lat="43.23983" lon="0.13774">
        <ele>341.4</ele>
        <time>2024-04-17T13:22:06Z</time>
      </trkpt>
      <trkpt lat="43.23983" lon="0.13776">
        <ele>341.4</ele>
        <time>2024-04-17T13:22:07Z</time>
      </trkpt>
      <trkpt lat="43.23982" lon="0.13777">
        <ele>341.6</ele>
        <time>2024-04-17T13:22:08Z</time>
      </trkpt>
      <trkpt lat="43.23982" lon="0.13779">
        <ele>341.8</ele>
        <time>2024-04-17T13:22:09Z</time>
      </trkpt>
      <trkpt lat="43.23981" lon="0.1378">
        <ele>342</ele>
        <time>2024-04-17T13:22:10Z</time>
      </trkpt>
      <trkpt lat="43.23981" lon="0.13781">
        <ele>342</ele>
        <time>2024-04-17T13:22:11Z</time>
      </trkpt>
      <trkpt lat="43.2398" lon="0.13782">
        <ele>342.2</ele>
        <time>2024-04-17T13:22:12Z</time>
      </trkpt>
      <trkpt lat="43.23979" lon="0.13783">
        <ele>342.4</ele>
        <time>2024-04-17T13:22:13Z</time>
      </trkpt>
      <trkpt lat="43.23978" lon="0.13784">
        <ele>342.6</ele>
        <time>2024-04-17T13:22:14Z</time>
      </trkpt>
      <trkpt lat="43.23978" lon="0.13785">
        <ele>342.8</ele>
        <time>2024-04-17T13:22:15Z</time>
      </trkpt>
      <trkpt lat="43.23977" lon="0.13786">
        <ele>343</ele>
        <time>2024-04-17T13:22:16Z</time>
      </trkpt>
      <trkpt lat="43.23976" lon="0.13787">
        <ele>343.2</ele>
        <time>2024-04-17T13:22:17Z</time>
      </trkpt>
      <trkpt lat="43.23975" lon="0.13789">
        <ele>343.4</ele>
        <time>2024-04-17T13:22:18Z</time>
      </trkpt>
      <trkpt lat="43.23974" lon="0.1379">
        <ele>343.6</ele>
        <time>2024-04-17T13:22:19Z</time>
      </trkpt>
      <trkpt lat="43.23973" lon="0.13791">
        <ele>343.8</ele>
        <time>2024-04-17T13:22:20Z</time>
      </trkpt>
      <trkpt lat="43.23972" lon="0.13793">
        <ele>344</ele>
        <time>2024-04-17T13:22:21Z</time>
      </trkpt>
      <trkpt lat="43.23972" lon="0.13795">
        <ele>344.2</ele>
        <time>2024-04-17T13:22:22Z</time>
      </trkpt>
      <trkpt lat="43.23971" lon="0.13796">
        <ele>344.4</ele>
        <time>2024-04-17T13:22:23Z</time>
      </trkpt>
      <trkpt lat="43.23971" lon="0.13797">
        <ele>344.6</ele>
        <time>2024-04-17T13:22:24Z</time>
      </trkpt>
      <trkpt lat="43.23971" lon="0.138">
        <ele>344.6</ele>
        <time>2024-04-17T13:22:25Z</time>
      </trkpt>
      <trkpt lat="43.23972" lon="0.13802">
        <ele>344.8</ele>
        <time>2024-04-17T13:22:26Z</time>
      </trkpt>
      <trkpt lat="43.23971" lon="0.13804">
        <ele>345</ele>
        <time>2024-04-17T13:22:27Z</time>
      </trkpt>
      <trkpt lat="43.23971" lon="0.13807">
        <ele>345</ele>
        <time>2024-04-17T13:22:28Z</time>
      </trkpt>
      <trkpt lat="43.23971" lon="0.13809">
        <ele>345.2</ele>
        <time>2024-04-17T13:22:29Z</time>
      </trkpt>
      <trkpt lat="43.23971" lon="0.13811">
        <ele>345.4</ele>
        <time>2024-04-17T13:22:30Z</time>
      </trkpt>
      <trkpt lat="43.23971" lon="0.13813">
        <ele>345.4</ele>
        <time>2024-04-17T13:22:31Z</time>
      </trkpt>
      <trkpt lat="43.2397" lon="0.13815">
        <ele>345.6</ele>
        <time>2024-04-17T13:22:32Z</time>
      </trkpt>
      <trkpt lat="43.2397" lon="0.13818">
        <ele>345.8</ele>
        <time>2024-04-17T13:22:33Z</time>
      </trkpt>
      <trkpt lat="43.23969" lon="0.1382">
        <ele>346</ele>
        <time>2024-04-17T13:22:34Z</time>
      </trkpt>
      <trkpt lat="43.23968" lon="0.13822">
        <ele>346.2</ele>
        <time>2024-04-17T13:22:35Z</time>
      </trkpt>
      <trkpt lat="43.23968" lon="0.13824">
        <ele>346.6</ele>
        <time>2024-04-17T13:22:36Z</time>
      </trkpt>
      <trkpt lat="43.23967" lon="0.13825">
        <ele>346.6</ele>
        <time>2024-04-17T13:22:37Z</time>
      </trkpt>
      <trkpt lat="43.23965" lon="0.13826">
        <ele>346.8</ele>
        <time>2024-04-17T13:22:38Z</time>
      </trkpt>
      <trkpt lat="43.23964" lon="0.13827">
        <ele>346.8</ele>
        <time>2024-04-17T13:22:39Z</time>
      </trkpt>
      <trkpt lat="43.23963" lon="0.13829">
        <ele>347</ele>
        <time>2024-04-17T13:22:40Z</time>
      </trkpt>
      <trkpt lat="43.23963" lon="0.1383">
        <ele>347</ele>
        <time>2024-04-17T13:22:41Z</time>
      </trkpt>
      <trkpt lat="43.23962" lon="0.13831">
        <ele>347.2</ele>
        <time>2024-04-17T13:22:42Z</time>
      </trkpt>
      <trkpt lat="43.23961" lon="0.13832">
        <ele>347.4</ele>
        <time>2024-04-17T13:22:43Z</time>
      </trkpt>
      <trkpt lat="43.23961" lon="0.13834">
        <ele>347.4</ele>
        <time>2024-04-17T13:22:44Z</time>
      </trkpt>
      <trkpt lat="43.2396" lon="0.13836">
        <ele>347.8</ele>
        <time>2024-04-17T13:22:45Z</time>
      </trkpt>
      <trkpt lat="43.23959" lon="0.13839">
        <ele>347.8</ele>
        <time>2024-04-17T13:22:46Z</time>
      </trkpt>
      <trkpt lat="43.23957" lon="0.1384">
        <ele>348</ele>
        <time>2024-04-17T13:22:47Z</time>
      </trkpt>
      <trkpt lat="43.23956" lon="0.13842">
        <ele>348</ele>
        <time>2024-04-17T13:22:48Z</time>
      </trkpt>
      <trkpt lat="43.23955" lon="0.13844">
        <ele>348.2</ele>
        <time>2024-04-17T13:22:49Z</time>
      </trkpt>
      <trkpt lat="43.23955" lon="0.13845">
        <ele>348.2</ele>
        <time>2024-04-17T13:22:50Z</time>
      </trkpt>
      <trkpt lat="43.23954" lon="0.13848">
        <ele>348.4</ele>
        <time>2024-04-17T13:22:51Z</time>
      </trkpt>
      <trkpt lat="43.23954" lon="0.13849">
        <ele>348.6</ele>
        <time>2024-04-17T13:22:52Z</time>
      </trkpt>
      <trkpt lat="43.23953" lon="0.13851">
        <ele>348.6</ele>
        <time>2024-04-17T13:22:53Z</time>
      </trkpt>
      <trkpt lat="43.23953" lon="0.13853">
        <ele>348.8</ele>
        <time>2024-04-17T13:22:54Z</time>
      </trkpt>
      <trkpt lat="43.23953" lon="0.13856">
        <ele>349</ele>
        <time>2024-04-17T13:22:55Z</time>
      </trkpt>
      <trkpt lat="43.23953" lon="0.13858">
        <ele>349</ele>
        <time>2024-04-17T13:22:56Z</time>
      </trkpt>
      <trkpt lat="43.23952" lon="0.1386">
        <ele>349</ele>
        <time>2024-04-17T13:22:57Z</time>
      </trkpt>
      <trkpt lat="43.23952" lon="0.13862">
        <ele>349.2</ele>
        <time>2024-04-17T13:22:58Z</time>
      </trkpt>
      <trkpt lat="43.23952" lon="0.13864">
        <ele>349.2</ele>
        <time>2024-04-17T13:22:59Z</time>
      </trkpt>
      <trkpt lat="43.23951" lon="0.13865">
        <ele>349.4</ele>
        <time>2024-04-17T13:23:00Z</time>
      </trkpt>
      <trkpt lat="43.2395" lon="0.13866">
        <ele>349.4</ele>
        <time>2024-04-17T13:23:01Z</time>
      </trkpt>
      <trkpt lat="43.23949" lon="0.13867">
        <ele>349.6</ele>
        <time>2024-04-17T13:23:02Z</time>
      </trkpt>
      <trkpt lat="43.23948" lon="0.13868">
        <ele>349.8</ele>
        <time>2024-04-17T13:23:03Z</time>
      </trkpt>
      <trkpt lat="43.23947" lon="0.13869">
        <ele>349.8</ele>
        <time>2024-04-17T13:23:04Z</time>
      </trkpt>
      <trkpt lat="43.23945" lon="0.13869">
        <ele>350</ele>
        <time>2024-04-17T13:23:05Z</time>
      </trkpt>
      <trkpt lat="43.23944" lon="0.13869">
        <ele>350.2</ele>
        <time>2024-04-17T13:23:06Z</time>
      </trkpt>
      <trkpt lat="43.23942" lon="0.1387">
        <ele>350.2</ele>
        <time>2024-04-17T13:23:07Z</time>
      </trkpt>
      <trkpt lat="43.23941" lon="0.13871">
        <ele>350.4</ele>
        <time>2024-04-17T13:23:08Z</time>
      </trkpt>
      <trkpt lat="43.2394" lon="0.13872">
        <ele>350.6</ele>
        <time>2024-04-17T13:23:09Z</time>
      </trkpt>
      <trkpt lat="43.23939" lon="0.13872">
        <ele>350.6</ele>
        <time>2024-04-17T13:23:10Z</time>
      </trkpt>
      <trkpt lat="43.23938" lon="0.13874">
        <ele>350.6</ele>
        <time>2024-04-17T13:23:11Z</time>
      </trkpt>
      <trkpt lat="43.23936" lon="0.13875">
        <ele>350.8</ele>
        <time>2024-04-17T13:23:12Z</time>
      </trkpt>
      <trkpt lat="43.23935" lon="0.13877">
        <ele>351</ele>
        <time>2024-04-17T13:23:13Z</time>
      </trkpt>
      <trkpt lat="43.23934" lon="0.13878">
        <ele>351.4</ele>
        <time>2024-04-17T13:23:14Z</time>
      </trkpt>
      <trkpt lat="43.23933" lon="0.13879">
        <ele>351.6</ele>
        <time>2024-04-17T13:23:15Z</time>
      </trkpt>
      <trkpt lat="43.23932" lon="0.1388">
        <ele>351.8</ele>
        <time>2024-04-17T13:23:16Z</time>
      </trkpt>
      <trkpt lat="43.23931" lon="0.13882">
        <ele>352</ele>
        <time>2024-04-17T13:23:17Z</time>
      </trkpt>
      <trkpt lat="43.2393" lon="0.13883">
        <ele>352.2</ele>
        <time>2024-04-17T13:23:18Z</time>
      </trkpt>
      <trkpt lat="43.23929" lon="0.13884">
        <ele>352.2</ele>
        <time>2024-04-17T13:23:19Z</time>
      </trkpt>
      <trkpt lat="43.23928" lon="0.13885">
        <ele>352.2</ele>
        <time>2024-04-17T13:23:20Z</time>
      </trkpt>
      <trkpt lat="43.23926" lon="0.13886">
        <ele>352.2</ele>
        <time>2024-04-17T13:23:21Z</time>
      </trkpt>
      <trkpt lat="43.23924" lon="0.13888">
        <ele>352.2</ele>
        <time>2024-04-17T13:23:22Z</time>
      </trkpt>
      <trkpt lat="43.23923" lon="0.1389">
        <ele>352.4</ele>
        <time>2024-04-17T13:23:23Z</time>
      </trkpt>
      <trkpt lat="43.23921" lon="0.13891">
        <ele>352.4</ele>
        <time>2024-04-17T13:23:24Z</time>
      </trkpt>
      <trkpt lat="43.2392" lon="0.13892">
        <ele>352.6</ele>
        <time>2024-04-17T13:23:25Z</time>
      </trkpt>
      <trkpt lat="43.23919" lon="0.13894">
        <ele>352.6</ele>
        <time>2024-04-17T13:23:26Z</time>
      </trkpt>
      <trkpt lat="43.23918" lon="0.13895">
        <ele>352.8</ele>
        <time>2024-04-17T13:23:27Z</time>
      </trkpt>
      <trkpt lat="43.23917" lon="0.13897">
        <ele>352.8</ele>
        <time>2024-04-17T13:23:28Z</time>
      </trkpt>
      <trkpt lat="43.23916" lon="0.13899">
        <ele>352.8</ele>
        <time>2024-04-17T13:23:29Z</time>
      </trkpt>
      <trkpt lat="43.23915" lon="0.13901">
        <ele>353</ele>
        <time>2024-04-17T13:23:30Z</time>
      </trkpt>
      <trkpt lat="43.23915" lon="0.13903">
        <ele>353.2</ele>
        <time>2024-04-17T13:23:31Z</time>
      </trkpt>
      <trkpt lat="43.23914" lon="0.13905">
        <ele>353.2</ele>
        <time>2024-04-17T13:23:32Z</time>
      </trkpt>
      <trkpt lat="43.23914" lon="0.13907">
        <ele>353.2</ele>
        <time>2024-04-17T13:23:33Z</time>
      </trkpt>
      <trkpt lat="43.23913" lon="0.13908">
        <ele>353.2</ele>
        <time>2024-04-17T13:23:34Z</time>
      </trkpt>
      <trkpt lat="43.23912" lon="0.13909">
        <ele>353.4</ele>
        <time>2024-04-17T13:23:35Z</time>
      </trkpt>
      <trkpt lat="43.23911" lon="0.13909">
        <ele>353.4</ele>
        <time>2024-04-17T13:23:36Z</time>
      </trkpt>
      <trkpt lat="43.23911" lon="0.1391">
        <ele>353.6</ele>
        <time>2024-04-17T13:23:37Z</time>
      </trkpt>
      <trkpt lat="43.23911" lon="0.1391">
        <ele>353.8</ele>
        <time>2024-04-17T13:23:38Z</time>
      </trkpt>
      <trkpt lat="43.23911" lon="0.1391">
        <ele>354</ele>
        <time>2024-04-17T13:23:39Z</time>
      </trkpt>
      <trkpt lat="43.23911" lon="0.1391">
        <ele>354.2</ele>
        <time>2024-04-17T13:23:40Z</time>
      </trkpt>
      <trkpt lat="43.23911" lon="0.1391">
        <ele>354.2</ele>
        <time>2024-04-17T13:23:41Z</time>
      </trkpt>
      <trkpt lat="43.23911" lon="0.1391">
        <ele>354.2</ele>
        <time>2024-04-17T13:23:42Z</time>
      </trkpt>
      <trkpt lat="43.23911" lon="0.1391">
        <ele>354.4</ele>
        <time>2024-04-17T13:23:43Z</time>
      </trkpt>
      <trkpt lat="43.23911" lon="0.1391">
        <ele>354.4</ele>
        <time>2024-04-17T13:23:44Z</time>
      </trkpt>
      <trkpt lat="43.23911" lon="0.1391">
        <ele>354.4</ele>
        <time>2024-04-17T13:23:45Z</time>
      </trkpt>
      <trkpt lat="43.23911" lon="0.1391">
        <ele>354.4</ele>
        <time>2024-04-17T13:23:46Z</time>
      </trkpt>
      <trkpt lat="43.23911" lon="0.1391">
        <ele>354.4</ele>
        <time>2024-04-17T13:23:47Z</time>
      </trkpt>
      <trkpt lat="43.23911" lon="0.1391">
        <ele>354.4</ele>
        <time>2024-04-17T13:23:48Z</time>
      </trkpt>
      <trkpt lat="43.23911" lon="0.1391">
        <ele>354.6</ele>
        <time>2024-04-17T13:23:49Z</time>
      </trkpt>
      <trkpt lat="43.23911" lon="0.1391">
        <ele>354.6</ele>
        <time>2024-04-17T13:23:50Z</time>
      </trkpt>
      <trkpt lat="43.23911" lon="0.1391">
        <ele>354.6</ele>
        <time>2024-04-17T13:23:51Z</time>
      </trkpt>
      <trkpt lat="43.23911" lon="0.1391">
        <ele>354.6</ele>
        <time>2024-04-17T13:23:52Z</time>
      </trkpt>
      <trkpt lat="43.23911" lon="0.1391">
        <ele>354.6</ele>
        <time>2024-04-17T13:23:53Z</time>
      </trkpt>
      <trkpt lat="43.23911" lon="0.1391">
        <ele>354.6</ele>
        <time>2024-04-17T13:23:54Z</time>
      </trkpt>
      <trkpt lat="43.23911" lon="0.1391">
        <ele>354.6</ele>
        <time>2024-04-17T13:23:55Z</time>
      </trkpt>
      <trkpt lat="43.23911" lon="0.1391">
        <ele>354.6</ele>
        <time>2024-04-17T13:23:56Z</time>
      </trkpt>
      <trkpt lat="43.23911" lon="0.1391">
        <ele>354.6</ele>
        <time>2024-04-17T13:23:57Z</time>
      </trkpt>
      <trkpt lat="43.23911" lon="0.1391">
        <ele>354.6</ele>
        <time>2024-04-17T13:23:58Z</time>
      </trkpt>
      <trkpt lat="43.23911" lon="0.1391">
        <ele>354.6</ele>
        <time>2024-04-17T13:23:59Z</time>
      </trkpt>
      <trkpt lat="43.23911" lon="0.1391">
        <ele>354.6</ele>
        <time>2024-04-17T13:24:00Z</time>
      </trkpt>
      <trkpt lat="43.23911" lon="0.1391">
        <ele>354.6</ele>
        <time>2024-04-17T13:24:01Z</time>
      </trkpt>
      <trkpt lat="43.23911" lon="0.1391">
        <ele>354.6</ele>
        <time>2024-04-17T13:24:02Z</time>
      </trkpt>
      <trkpt lat="43.23911" lon="0.1391">
        <ele>354.6</ele>
        <time>2024-04-17T13:24:03Z</time>
      </trkpt>
      <trkpt lat="43.23911" lon="0.1391">
        <ele>354.6</ele>
        <time>2024-04-17T13:24:04Z</time>
      </trkpt>
      <trkpt lat="43.23911" lon="0.1391">
        <ele>354.8</ele>
        <time>2024-04-17T13:24:05Z</time>
      </trkpt>
      <trkpt lat="43.2391" lon="0.1391">
        <ele>354.8</ele>
        <time>2024-04-17T13:24:06Z</time>
      </trkpt>
      <trkpt lat="43.23909" lon="0.13911">
        <ele>354.8</ele>
        <time>2024-04-17T13:24:07Z</time>
      </trkpt>
      <trkpt lat="43.23908" lon="0.13911">
        <ele>354.8</ele>
        <time>2024-04-17T13:24:08Z</time>
      </trkpt>
      <trkpt lat="43.23907" lon="0.13912">
        <ele>354.8</ele>
        <time>2024-04-17T13:24:09Z</time>
      </trkpt>
      <trkpt lat="43.23907" lon="0.13914">
        <ele>354.8</ele>
        <time>2024-04-17T13:24:10Z</time>
      </trkpt>
      <trkpt lat="43.23906" lon="0.13915">
        <ele>355</ele>
        <time>2024-04-17T13:24:11Z</time>
      </trkpt>
      <trkpt lat="43.23905" lon="0.13917">
        <ele>355</ele>
        <time>2024-04-17T13:24:12Z</time>
      </trkpt>
      <trkpt lat="43.23904" lon="0.13918">
        <ele>355</ele>
        <time>2024-04-17T13:24:13Z</time>
      </trkpt>
      <trkpt lat="43.23903" lon="0.1392">
        <ele>355.2</ele>
        <time>2024-04-17T13:24:14Z</time>
      </trkpt>
      <trkpt lat="43.23903" lon="0.13921">
        <ele>355.2</ele>
        <time>2024-04-17T13:24:15Z</time>
      </trkpt>
      <trkpt lat="43.23902" lon="0.13923">
        <ele>355.4</ele>
        <time>2024-04-17T13:24:16Z</time>
      </trkpt>
      <trkpt lat="43.23901" lon="0.13924">
        <ele>355.6</ele>
        <time>2024-04-17T13:24:17Z</time>
      </trkpt>
      <trkpt lat="43.239" lon="0.13927">
        <ele>355.8</ele>
        <time>2024-04-17T13:24:18Z</time>
      </trkpt>
      <trkpt lat="43.23899" lon="0.13928">
        <ele>356</ele>
        <time>2024-04-17T13:24:19Z</time>
      </trkpt>
      <trkpt lat="43.23898" lon="0.1393">
        <ele>356</ele>
        <time>2024-04-17T13:24:20Z</time>
      </trkpt>
      <trkpt lat="43.23898" lon="0.13932">
        <ele>356.2</ele>
        <time>2024-04-17T13:24:21Z</time>
      </trkpt>
      <trkpt lat="43.23897" lon="0.13934">
        <ele>356.4</ele>
        <time>2024-04-17T13:24:22Z</time>
      </trkpt>
      <trkpt lat="43.23897" lon="0.13935">
        <ele>356.6</ele>
        <time>2024-04-17T13:24:23Z</time>
      </trkpt>
      <trkpt lat="43.23896" lon="0.13936">
        <ele>356.8</ele>
        <time>2024-04-17T13:24:24Z</time>
      </trkpt>
      <trkpt lat="43.23895" lon="0.13938">
        <ele>357</ele>
        <time>2024-04-17T13:24:25Z</time>
      </trkpt>
      <trkpt lat="43.23894" lon="0.13939">
        <ele>357.2</ele>
        <time>2024-04-17T13:24:26Z</time>
      </trkpt>
      <trkpt lat="43.23893" lon="0.13941">
        <ele>357.2</ele>
        <time>2024-04-17T13:24:27Z</time>
      </trkpt>
      <trkpt lat="43.23892" lon="0.13944">
        <ele>357.4</ele>
        <time>2024-04-17T13:24:28Z</time>
      </trkpt>
      <trkpt lat="43.23892" lon="0.13946">
        <ele>357.6</ele>
        <time>2024-04-17T13:24:29Z</time>
      </trkpt>
      <trkpt lat="43.23891" lon="0.13947">
        <ele>357.8</ele>
        <time>2024-04-17T13:24:30Z</time>
      </trkpt>
      <trkpt lat="43.2389" lon="0.13949">
        <ele>358</ele>
        <time>2024-04-17T13:24:31Z</time>
      </trkpt>
      <trkpt lat="43.2389" lon="0.13951">
        <ele>358.2</ele>
        <time>2024-04-17T13:24:32Z</time>
      </trkpt>
      <trkpt lat="43.2389" lon="0.13953">
        <ele>358.2</ele>
        <time>2024-04-17T13:24:33Z</time>
      </trkpt>
      <trkpt lat="43.23889" lon="0.13955">
        <ele>358.4</ele>
        <time>2024-04-17T13:24:34Z</time>
      </trkpt>
      <trkpt lat="43.23888" lon="0.13958">
        <ele>358.6</ele>
        <time>2024-04-17T13:24:35Z</time>
      </trkpt>
      <trkpt lat="43.23888" lon="0.1396">
        <ele>359</ele>
        <time>2024-04-17T13:24:36Z</time>
      </trkpt>
      <trkpt lat="43.23888" lon="0.13961">
        <ele>359.2</ele>
        <time>2024-04-17T13:24:37Z</time>
      </trkpt>
      <trkpt lat="43.23889" lon="0.13963">
        <ele>359.2</ele>
        <time>2024-04-17T13:24:38Z</time>
      </trkpt>
      <trkpt lat="43.23889" lon="0.13966">
        <ele>359.4</ele>
        <time>2024-04-17T13:24:39Z</time>
      </trkpt>
      <trkpt lat="43.23889" lon="0.13967">
        <ele>359.4</ele>
        <time>2024-04-17T13:24:40Z</time>
      </trkpt>
      <trkpt lat="43.23889" lon="0.13969">
        <ele>359.6</ele>
        <time>2024-04-17T13:24:41Z</time>
      </trkpt>
      <trkpt lat="43.23889" lon="0.13971">
        <ele>359.6</ele>
        <time>2024-04-17T13:24:42Z</time>
      </trkpt>
      <trkpt lat="43.23889" lon="0.13973">
        <ele>359.8</ele>
        <time>2024-04-17T13:24:43Z</time>
      </trkpt>
      <trkpt lat="43.23889" lon="0.13976">
        <ele>359.8</ele>
        <time>2024-04-17T13:24:44Z</time>
      </trkpt>
      <trkpt lat="43.23888" lon="0.13977">
        <ele>360.2</ele>
        <time>2024-04-17T13:24:45Z</time>
      </trkpt>
      <trkpt lat="43.23888" lon="0.13978">
        <ele>360.4</ele>
        <time>2024-04-17T13:24:46Z</time>
      </trkpt>
      <trkpt lat="43.23889" lon="0.1398">
        <ele>360.6</ele>
        <time>2024-04-17T13:24:47Z</time>
      </trkpt>
      <trkpt lat="43.2389" lon="0.13983">
        <ele>360.6</ele>
        <time>2024-04-17T13:24:48Z</time>
      </trkpt>
      <trkpt lat="43.2389" lon="0.13985">
        <ele>360.8</ele>
        <time>2024-04-17T13:24:49Z</time>
      </trkpt>
      <trkpt lat="43.23891" lon="0.13987">
        <ele>361</ele>
        <time>2024-04-17T13:24:50Z</time>
      </trkpt>
      <trkpt lat="43.23892" lon="0.13989">
        <ele>361</ele>
        <time>2024-04-17T13:24:51Z</time>
      </trkpt>
      <trkpt lat="43.23893" lon="0.13991">
        <ele>361.2</ele>
        <time>2024-04-17T13:24:52Z</time>
      </trkpt>
      <trkpt lat="43.23894" lon="0.13993">
        <ele>361.4</ele>
        <time>2024-04-17T13:24:53Z</time>
      </trkpt>
      <trkpt lat="43.23895" lon="0.13994">
        <ele>361.4</ele>
        <time>2024-04-17T13:24:54Z</time>
      </trkpt>
      <trkpt lat="43.23895" lon="0.13996">
        <ele>361.6</ele>
        <time>2024-04-17T13:24:55Z</time>
      </trkpt>
      <trkpt lat="43.23895" lon="0.13997">
        <ele>361.6</ele>
        <time>2024-04-17T13:24:56Z</time>
      </trkpt>
      <trkpt lat="43.23896" lon="0.13999">
        <ele>361.8</ele>
        <time>2024-04-17T13:24:57Z</time>
      </trkpt>
      <trkpt lat="43.23897" lon="0.14001">
        <ele>361.8</ele>
        <time>2024-04-17T13:24:58Z</time>
      </trkpt>
      <trkpt lat="43.23898" lon="0.14002">
        <ele>362</ele>
        <time>2024-04-17T13:24:59Z</time>
      </trkpt>
      <trkpt lat="43.23899" lon="0.14004">
        <ele>362.2</ele>
        <time>2024-04-17T13:25:00Z</time>
      </trkpt>
      <trkpt lat="43.239" lon="0.14007">
        <ele>362.4</ele>
        <time>2024-04-17T13:25:01Z</time>
      </trkpt>
      <trkpt lat="43.239" lon="0.14008">
        <ele>362.6</ele>
        <time>2024-04-17T13:25:02Z</time>
      </trkpt>
      <trkpt lat="43.239" lon="0.14009">
        <ele>362.6</ele>
        <time>2024-04-17T13:25:03Z</time>
      </trkpt>
      <trkpt lat="43.23901" lon="0.14011">
        <ele>362.8</ele>
        <time>2024-04-17T13:25:04Z</time>
      </trkpt>
      <trkpt lat="43.23902" lon="0.14012">
        <ele>362.8</ele>
        <time>2024-04-17T13:25:05Z</time>
      </trkpt>
      <trkpt lat="43.23903" lon="0.14013">
        <ele>363</ele>
        <time>2024-04-17T13:25:06Z</time>
      </trkpt>
      <trkpt lat="43.23904" lon="0.14014">
        <ele>363.2</ele>
        <time>2024-04-17T13:25:07Z</time>
      </trkpt>
      <trkpt lat="43.23905" lon="0.14015">
        <ele>363.4</ele>
        <time>2024-04-17T13:25:08Z</time>
      </trkpt>
      <trkpt lat="43.23906" lon="0.14016">
        <ele>363.6</ele>
        <time>2024-04-17T13:25:09Z</time>
      </trkpt>
      <trkpt lat="43.23907" lon="0.14017">
        <ele>363.8</ele>
        <time>2024-04-17T13:25:10Z</time>
      </trkpt>
      <trkpt lat="43.23909" lon="0.14018">
        <ele>364</ele>
        <time>2024-04-17T13:25:11Z</time>
      </trkpt>
      <trkpt lat="43.2391" lon="0.14019">
        <ele>364</ele>
        <time>2024-04-17T13:25:12Z</time>
      </trkpt>
      <trkpt lat="43.23911" lon="0.14019">
        <ele>364.2</ele>
        <time>2024-04-17T13:25:13Z</time>
      </trkpt>
      <trkpt lat="43.23912" lon="0.1402">
        <ele>364.4</ele>
        <time>2024-04-17T13:25:14Z</time>
      </trkpt>
      <trkpt lat="43.23913" lon="0.1402">
        <ele>364.4</ele>
        <time>2024-04-17T13:25:15Z</time>
      </trkpt>
      <trkpt lat="43.23915" lon="0.14021">
        <ele>364.6</ele>
        <time>2024-04-17T13:25:16Z</time>
      </trkpt>
      <trkpt lat="43.23916" lon="0.14021">
        <ele>364.8</ele>
        <time>2024-04-17T13:25:17Z</time>
      </trkpt>
      <trkpt lat="43.23917" lon="0.14022">
        <ele>365.2</ele>
        <time>2024-04-17T13:25:18Z</time>
      </trkpt>
      <trkpt lat="43.23918" lon="0.14022">
        <ele>365.2</ele>
        <time>2024-04-17T13:25:19Z</time>
      </trkpt>
      <trkpt lat="43.2392" lon="0.14024">
        <ele>365.2</ele>
        <time>2024-04-17T13:25:20Z</time>
      </trkpt>
      <trkpt lat="43.23921" lon="0.14024">
        <ele>365.4</ele>
        <time>2024-04-17T13:25:21Z</time>
      </trkpt>
      <trkpt lat="43.23922" lon="0.14025">
        <ele>365.6</ele>
        <time>2024-04-17T13:25:22Z</time>
      </trkpt>
      <trkpt lat="43.23924" lon="0.14026">
        <ele>365.8</ele>
        <time>2024-04-17T13:25:23Z</time>
      </trkpt>
      <trkpt lat="43.23925" lon="0.14027">
        <ele>366</ele>
        <time>2024-04-17T13:25:24Z</time>
      </trkpt>
      <trkpt lat="43.23926" lon="0.14027">
        <ele>366.2</ele>
        <time>2024-04-17T13:25:25Z</time>
      </trkpt>
      <trkpt lat="43.23928" lon="0.14028">
        <ele>366.2</ele>
        <time>2024-04-17T13:25:26Z</time>
      </trkpt>
      <trkpt lat="43.23929" lon="0.1403">
        <ele>366.4</ele>
        <time>2024-04-17T13:25:27Z</time>
      </trkpt>
      <trkpt lat="43.23931" lon="0.1403">
        <ele>366.4</ele>
        <time>2024-04-17T13:25:28Z</time>
      </trkpt>
      <trkpt lat="43.23932" lon="0.1403">
        <ele>366.6</ele>
        <time>2024-04-17T13:25:29Z</time>
      </trkpt>
      <trkpt lat="43.23933" lon="0.14031">
        <ele>366.6</ele>
        <time>2024-04-17T13:25:30Z</time>
      </trkpt>
      <trkpt lat="43.23933" lon="0.14033">
        <ele>366.8</ele>
        <time>2024-04-17T13:25:31Z</time>
      </trkpt>
      <trkpt lat="43.23934" lon="0.14035">
        <ele>367</ele>
        <time>2024-04-17T13:25:32Z</time>
      </trkpt>
      <trkpt lat="43.23936" lon="0.14037">
        <ele>367.2</ele>
        <time>2024-04-17T13:25:33Z</time>
      </trkpt>
      <trkpt lat="43.23937" lon="0.14038">
        <ele>367.2</ele>
        <time>2024-04-17T13:25:34Z</time>
      </trkpt>
      <trkpt lat="43.23938" lon="0.14039">
        <ele>367.4</ele>
        <time>2024-04-17T13:25:35Z</time>
      </trkpt>
      <trkpt lat="43.23939" lon="0.1404">
        <ele>367.4</ele>
        <time>2024-04-17T13:25:36Z</time>
      </trkpt>
      <trkpt lat="43.2394" lon="0.14042">
        <ele>367.6</ele>
        <time>2024-04-17T13:25:37Z</time>
      </trkpt>
      <trkpt lat="43.2394" lon="0.14043">
        <ele>367.8</ele>
        <time>2024-04-17T13:25:38Z</time>
      </trkpt>
      <trkpt lat="43.23941" lon="0.14045">
        <ele>367.8</ele>
        <time>2024-04-17T13:25:39Z</time>
      </trkpt>
      <trkpt lat="43.23942" lon="0.14046">
        <ele>368</ele>
        <time>2024-04-17T13:25:40Z</time>
      </trkpt>
      <trkpt lat="43.23942" lon="0.14047">
        <ele>368</ele>
        <time>2024-04-17T13:25:41Z</time>
      </trkpt>
      <trkpt lat="43.23943" lon="0.14048">
        <ele>368</ele>
        <time>2024-04-17T13:25:42Z</time>
      </trkpt>
      <trkpt lat="43.23945" lon="0.1405">
        <ele>368.2</ele>
        <time>2024-04-17T13:25:43Z</time>
      </trkpt>
      <trkpt lat="43.23946" lon="0.14051">
        <ele>368.2</ele>
        <time>2024-04-17T13:25:44Z</time>
      </trkpt>
      <trkpt lat="43.23947" lon="0.14052">
        <ele>368.6</ele>
        <time>2024-04-17T13:25:45Z</time>
      </trkpt>
      <trkpt lat="43.23948" lon="0.14053">
        <ele>368.6</ele>
        <time>2024-04-17T13:25:46Z</time>
      </trkpt>
      <trkpt lat="43.2395" lon="0.14054">
        <ele>368.8</ele>
        <time>2024-04-17T13:25:47Z</time>
      </trkpt>
      <trkpt lat="43.23952" lon="0.14055">
        <ele>369</ele>
        <time>2024-04-17T13:25:48Z</time>
      </trkpt>
      <trkpt lat="43.23954" lon="0.14055">
        <ele>369.2</ele>
        <time>2024-04-17T13:25:49Z</time>
      </trkpt>
      <trkpt lat="43.23955" lon="0.14056">
        <ele>369.4</ele>
        <time>2024-04-17T13:25:50Z</time>
      </trkpt>
      <trkpt lat="43.23956" lon="0.14057">
        <ele>369.6</ele>
        <time>2024-04-17T13:25:51Z</time>
      </trkpt>
      <trkpt lat="43.23957" lon="0.14058">
        <ele>369.6</ele>
        <time>2024-04-17T13:25:52Z</time>
      </trkpt>
      <trkpt lat="43.23959" lon="0.14059">
        <ele>369.8</ele>
        <time>2024-04-17T13:25:53Z</time>
      </trkpt>
      <trkpt lat="43.2396" lon="0.1406">
        <ele>370</ele>
        <time>2024-04-17T13:25:54Z</time>
      </trkpt>
      <trkpt lat="43.23961" lon="0.1406">
        <ele>370</ele>
        <time>2024-04-17T13:25:55Z</time>
      </trkpt>
      <trkpt lat="43.23963" lon="0.14059">
        <ele>370.2</ele>
        <time>2024-04-17T13:25:56Z</time>
      </trkpt>
      <trkpt lat="43.23964" lon="0.14059">
        <ele>370.4</ele>
        <time>2024-04-17T13:25:57Z</time>
      </trkpt>
      <trkpt lat="43.23965" lon="0.14059">
        <ele>370.6</ele>
        <time>2024-04-17T13:25:58Z</time>
      </trkpt>
      <trkpt lat="43.23966" lon="0.1406">
        <ele>370.8</ele>
        <time>2024-04-17T13:25:59Z</time>
      </trkpt>
      <trkpt lat="43.23967" lon="0.1406">
        <ele>371</ele>
        <time>2024-04-17T13:26:00Z</time>
      </trkpt>
      <trkpt lat="43.23968" lon="0.14061">
        <ele>371.2</ele>
        <time>2024-04-17T13:26:01Z</time>
      </trkpt>
      <trkpt lat="43.23969" lon="0.14061">
        <ele>371.4</ele>
        <time>2024-04-17T13:26:02Z</time>
      </trkpt>
      <trkpt lat="43.2397" lon="0.14062">
        <ele>371.6</ele>
        <time>2024-04-17T13:26:03Z</time>
      </trkpt>
      <trkpt lat="43.23971" lon="0.14062">
        <ele>371.6</ele>
        <time>2024-04-17T13:26:04Z</time>
      </trkpt>
      <trkpt lat="43.23972" lon="0.14062">
        <ele>371.8</ele>
        <time>2024-04-17T13:26:05Z</time>
      </trkpt>
      <trkpt lat="43.23973" lon="0.14063">
        <ele>372</ele>
        <time>2024-04-17T13:26:06Z</time>
      </trkpt>
      <trkpt lat="43.23975" lon="0.14064">
        <ele>372</ele>
        <time>2024-04-17T13:26:07Z</time>
      </trkpt>
      <trkpt lat="43.23976" lon="0.14065">
        <ele>372.2</ele>
        <time>2024-04-17T13:26:08Z</time>
      </trkpt>
      <trkpt lat="43.23978" lon="0.14065">
        <ele>372.2</ele>
        <time>2024-04-17T13:26:09Z</time>
      </trkpt>
      <trkpt lat="43.23978" lon="0.14066">
        <ele>372.2</ele>
        <time>2024-04-17T13:26:10Z</time>
      </trkpt>
      <trkpt lat="43.23979" lon="0.14067">
        <ele>372.4</ele>
        <time>2024-04-17T13:26:11Z</time>
      </trkpt>
      <trkpt lat="43.23979" lon="0.14068">
        <ele>372.4</ele>
        <time>2024-04-17T13:26:12Z</time>
      </trkpt>
      <trkpt lat="43.2398" lon="0.14069">
        <ele>372.6</ele>
        <time>2024-04-17T13:26:13Z</time>
      </trkpt>
      <trkpt lat="43.23981" lon="0.14071">
        <ele>372.8</ele>
        <time>2024-04-17T13:26:14Z</time>
      </trkpt>
      <trkpt lat="43.23982" lon="0.14072">
        <ele>373</ele>
        <time>2024-04-17T13:26:15Z</time>
      </trkpt>
      <trkpt lat="43.23983" lon="0.14074">
        <ele>373</ele>
        <time>2024-04-17T13:26:16Z</time>
      </trkpt>
      <trkpt lat="43.23985" lon="0.14076">
        <ele>372.8</ele>
        <time>2024-04-17T13:26:17Z</time>
      </trkpt>
      <trkpt lat="43.23985" lon="0.14077">
        <ele>373</ele>
        <time>2024-04-17T13:26:18Z</time>
      </trkpt>
      <trkpt lat="43.23986" lon="0.14078">
        <ele>373</ele>
        <time>2024-04-17T13:26:19Z</time>
      </trkpt>
      <trkpt lat="43.23987" lon="0.1408">
        <ele>373</ele>
        <time>2024-04-17T13:26:20Z</time>
      </trkpt>
      <trkpt lat="43.23988" lon="0.14081">
        <ele>373.2</ele>
        <time>2024-04-17T13:26:21Z</time>
      </trkpt>
      <trkpt lat="43.23989" lon="0.14083">
        <ele>373.4</ele>
        <time>2024-04-17T13:26:22Z</time>
      </trkpt>
      <trkpt lat="43.2399" lon="0.14084">
        <ele>373.4</ele>
        <time>2024-04-17T13:26:23Z</time>
      </trkpt>
      <trkpt lat="43.2399" lon="0.14085">
        <ele>373.4</ele>
        <time>2024-04-17T13:26:24Z</time>
      </trkpt>
      <trkpt lat="43.23991" lon="0.14086">
        <ele>373.4</ele>
        <time>2024-04-17T13:26:25Z</time>
      </trkpt>
      <trkpt lat="43.23992" lon="0.14088">
        <ele>373.6</ele>
        <time>2024-04-17T13:26:26Z</time>
      </trkpt>
      <trkpt lat="43.23993" lon="0.14089">
        <ele>373.6</ele>
        <time>2024-04-17T13:26:27Z</time>
      </trkpt>
      <trkpt lat="43.23993" lon="0.1409">
        <ele>373.8</ele>
        <time>2024-04-17T13:26:28Z</time>
      </trkpt>
      <trkpt lat="43.23994" lon="0.14092">
        <ele>373.8</ele>
        <time>2024-04-17T13:26:29Z</time>
      </trkpt>
      <trkpt lat="43.23994" lon="0.14092">
        <ele>374</ele>
        <time>2024-04-17T13:26:30Z</time>
      </trkpt>
      <trkpt lat="43.23995" lon="0.14093">
        <ele>374.2</ele>
        <time>2024-04-17T13:26:31Z</time>
      </trkpt>
      <trkpt lat="43.23996" lon="0.14095">
        <ele>374.4</ele>
        <time>2024-04-17T13:26:32Z</time>
      </trkpt>
      <trkpt lat="43.23996" lon="0.14096">
        <ele>374.4</ele>
        <time>2024-04-17T13:26:33Z</time>
      </trkpt>
      <trkpt lat="43.23997" lon="0.14097">
        <ele>374.6</ele>
        <time>2024-04-17T13:26:34Z</time>
      </trkpt>
      <trkpt lat="43.23997" lon="0.14099">
        <ele>374.6</ele>
        <time>2024-04-17T13:26:35Z</time>
      </trkpt>
      <trkpt lat="43.23998" lon="0.14101">
        <ele>374.6</ele>
        <time>2024-04-17T13:26:36Z</time>
      </trkpt>
      <trkpt lat="43.23999" lon="0.14103">
        <ele>374.8</ele>
        <time>2024-04-17T13:26:37Z</time>
      </trkpt>
      <trkpt lat="43.24" lon="0.14104">
        <ele>375</ele>
        <time>2024-04-17T13:26:38Z</time>
      </trkpt>
      <trkpt lat="43.24" lon="0.14105">
        <ele>375.2</ele>
        <time>2024-04-17T13:26:39Z</time>
      </trkpt>
      <trkpt lat="43.24001" lon="0.14108">
        <ele>375.4</ele>
        <time>2024-04-17T13:26:40Z</time>
      </trkpt>
      <trkpt lat="43.24002" lon="0.1411">
        <ele>375.4</ele>
        <time>2024-04-17T13:26:41Z</time>
      </trkpt>
      <trkpt lat="43.24003" lon="0.14112">
        <ele>375.6</ele>
        <time>2024-04-17T13:26:42Z</time>
      </trkpt>
      <trkpt lat="43.24004" lon="0.14114">
        <ele>375.6</ele>
        <time>2024-04-17T13:26:43Z</time>
      </trkpt>
      <trkpt lat="43.24005" lon="0.14115">
        <ele>375.8</ele>
        <time>2024-04-17T13:26:44Z</time>
      </trkpt>
      <trkpt lat="43.24006" lon="0.14116">
        <ele>375.8</ele>
        <time>2024-04-17T13:26:45Z</time>
      </trkpt>
      <trkpt lat="43.24007" lon="0.14117">
        <ele>376</ele>
        <time>2024-04-17T13:26:46Z</time>
      </trkpt>
      <trkpt lat="43.24007" lon="0.14118">
        <ele>376</ele>
        <time>2024-04-17T13:26:47Z</time>
      </trkpt>
      <trkpt lat="43.24007" lon="0.1412">
        <ele>376</ele>
        <time>2024-04-17T13:26:48Z</time>
      </trkpt>
      <trkpt lat="43.24007" lon="0.14121">
        <ele>376.2</ele>
        <time>2024-04-17T13:26:49Z</time>
      </trkpt>
      <trkpt lat="43.24008" lon="0.14122">
        <ele>376.4</ele>
        <time>2024-04-17T13:26:50Z</time>
      </trkpt>
      <trkpt lat="43.24008" lon="0.14124">
        <ele>376.6</ele>
        <time>2024-04-17T13:26:51Z</time>
      </trkpt>
      <trkpt lat="43.24009" lon="0.14126">
        <ele>376.6</ele>
        <time>2024-04-17T13:26:52Z</time>
      </trkpt>
      <trkpt lat="43.2401" lon="0.14129">
        <ele>376.8</ele>
        <time>2024-04-17T13:26:53Z</time>
      </trkpt>
      <trkpt lat="43.24012" lon="0.14131">
        <ele>376.8</ele>
        <time>2024-04-17T13:26:54Z</time>
      </trkpt>
      <trkpt lat="43.24013" lon="0.14132">
        <ele>377</ele>
        <time>2024-04-17T13:26:55Z</time>
      </trkpt>
      <trkpt lat="43.24014" lon="0.14134">
        <ele>377.2</ele>
        <time>2024-04-17T13:26:56Z</time>
      </trkpt>
      <trkpt lat="43.24015" lon="0.14135">
        <ele>377.2</ele>
        <time>2024-04-17T13:26:57Z</time>
      </trkpt>
      <trkpt lat="43.24016" lon="0.14137">
        <ele>377.4</ele>
        <time>2024-04-17T13:26:58Z</time>
      </trkpt>
      <trkpt lat="43.24016" lon="0.14138">
        <ele>377.4</ele>
        <time>2024-04-17T13:26:59Z</time>
      </trkpt>
      <trkpt lat="43.24017" lon="0.1414">
        <ele>377.4</ele>
        <time>2024-04-17T13:27:00Z</time>
      </trkpt>
      <trkpt lat="43.24018" lon="0.14141">
        <ele>377.6</ele>
        <time>2024-04-17T13:27:01Z</time>
      </trkpt>
      <trkpt lat="43.24019" lon="0.14143">
        <ele>377.6</ele>
        <time>2024-04-17T13:27:02Z</time>
      </trkpt>
      <trkpt lat="43.2402" lon="0.14144">
        <ele>378</ele>
        <time>2024-04-17T13:27:03Z</time>
      </trkpt>
      <trkpt lat="43.2402" lon="0.14146">
        <ele>378.2</ele>
        <time>2024-04-17T13:27:04Z</time>
      </trkpt>
      <trkpt lat="43.24021" lon="0.14147">
        <ele>378.2</ele>
        <time>2024-04-17T13:27:05Z</time>
      </trkpt>
      <trkpt lat="43.24022" lon="0.14149">
        <ele>378.4</ele>
        <time>2024-04-17T13:27:06Z</time>
      </trkpt>
      <trkpt lat="43.24023" lon="0.14151">
        <ele>378.6</ele>
        <time>2024-04-17T13:27:07Z</time>
      </trkpt>
      <trkpt lat="43.24024" lon="0.14153">
        <ele>378.6</ele>
        <time>2024-04-17T13:27:08Z</time>
      </trkpt>
      <trkpt lat="43.24026" lon="0.14155">
        <ele>378.8</ele>
        <time>2024-04-17T13:27:09Z</time>
      </trkpt>
      <trkpt lat="43.24027" lon="0.14156">
        <ele>379</ele>
        <time>2024-04-17T13:27:10Z</time>
      </trkpt>
      <trkpt lat="43.24028" lon="0.14158">
        <ele>378.8</ele>
        <time>2024-04-17T13:27:11Z</time>
      </trkpt>
      <trkpt lat="43.24029" lon="0.14159">
        <ele>379</ele>
        <time>2024-04-17T13:27:12Z</time>
      </trkpt>
      <trkpt lat="43.24029" lon="0.14159">
        <ele>379.2</ele>
        <time>2024-04-17T13:27:13Z</time>
      </trkpt>
      <trkpt lat="43.24029" lon="0.1416">
        <ele>379.4</ele>
        <time>2024-04-17T13:27:14Z</time>
      </trkpt>
      <trkpt lat="43.24029" lon="0.14161">
        <ele>379.6</ele>
        <time>2024-04-17T13:27:15Z</time>
      </trkpt>
      <trkpt lat="43.2403" lon="0.14164">
        <ele>379.8</ele>
        <time>2024-04-17T13:27:16Z</time>
      </trkpt>
      <trkpt lat="43.2403" lon="0.14166">
        <ele>379.8</ele>
        <time>2024-04-17T13:27:17Z</time>
      </trkpt>
      <trkpt lat="43.2403" lon="0.14169">
        <ele>380</ele>
        <time>2024-04-17T13:27:18Z</time>
      </trkpt>
      <trkpt lat="43.24029" lon="0.14172">
        <ele>380.2</ele>
        <time>2024-04-17T13:27:19Z</time>
      </trkpt>
      <trkpt lat="43.2403" lon="0.14174">
        <ele>380.2</ele>
        <time>2024-04-17T13:27:20Z</time>
      </trkpt>
      <trkpt lat="43.24031" lon="0.14175">
        <ele>380.2</ele>
        <time>2024-04-17T13:27:21Z</time>
      </trkpt>
      <trkpt lat="43.24032" lon="0.14177">
        <ele>380.4</ele>
        <time>2024-04-17T13:27:22Z</time>
      </trkpt>
      <trkpt lat="43.24032" lon="0.14177">
        <ele>380.6</ele>
        <time>2024-04-17T13:27:23Z</time>
      </trkpt>
      <trkpt lat="43.24032" lon="0.14181">
        <ele>380.6</ele>
        <time>2024-04-17T13:27:24Z</time>
      </trkpt>
      <trkpt lat="43.24033" lon="0.14182">
        <ele>380.6</ele>
        <time>2024-04-17T13:27:25Z</time>
      </trkpt>
      <trkpt lat="43.24032" lon="0.14183">
        <ele>380.8</ele>
        <time>2024-04-17T13:27:26Z</time>
      </trkpt>
      <trkpt lat="43.24032" lon="0.14185">
        <ele>380.8</ele>
        <time>2024-04-17T13:27:27Z</time>
      </trkpt>
      <trkpt lat="43.24031" lon="0.14187">
        <ele>381</ele>
        <time>2024-04-17T13:27:28Z</time>
      </trkpt>
      <trkpt lat="43.24031" lon="0.14187">
        <ele>381</ele>
        <time>2024-04-17T13:27:29Z</time>
      </trkpt>
      <trkpt lat="43.24031" lon="0.14188">
        <ele>381.2</ele>
        <time>2024-04-17T13:27:30Z</time>
      </trkpt>
      <trkpt lat="43.2403" lon="0.14189">
        <ele>381.2</ele>
        <time>2024-04-17T13:27:31Z</time>
      </trkpt>
      <trkpt lat="43.24029" lon="0.1419">
        <ele>381.4</ele>
        <time>2024-04-17T13:27:32Z</time>
      </trkpt>
      <trkpt lat="43.24028" lon="0.14192">
        <ele>381.6</ele>
        <time>2024-04-17T13:27:33Z</time>
      </trkpt>
      <trkpt lat="43.24027" lon="0.14193">
        <ele>381.6</ele>
        <time>2024-04-17T13:27:34Z</time>
      </trkpt>
      <trkpt lat="43.24026" lon="0.14195">
        <ele>381.8</ele>
        <time>2024-04-17T13:27:35Z</time>
      </trkpt>
      <trkpt lat="43.24025" lon="0.14197">
        <ele>381.8</ele>
        <time>2024-04-17T13:27:36Z</time>
      </trkpt>
      <trkpt lat="43.24024" lon="0.14198">
        <ele>382</ele>
        <time>2024-04-17T13:27:37Z</time>
      </trkpt>
      <trkpt lat="43.24023" lon="0.14199">
        <ele>382.2</ele>
        <time>2024-04-17T13:27:38Z</time>
      </trkpt>
      <trkpt lat="43.24022" lon="0.142">
        <ele>382.2</ele>
        <time>2024-04-17T13:27:39Z</time>
      </trkpt>
      <trkpt lat="43.24022" lon="0.14201">
        <ele>382.4</ele>
        <time>2024-04-17T13:27:40Z</time>
      </trkpt>
      <trkpt lat="43.24022" lon="0.14202">
        <ele>382.6</ele>
        <time>2024-04-17T13:27:41Z</time>
      </trkpt>
      <trkpt lat="43.24022" lon="0.14202">
        <ele>382.6</ele>
        <time>2024-04-17T13:27:42Z</time>
      </trkpt>
      <trkpt lat="43.24021" lon="0.14204">
        <ele>382.8</ele>
        <time>2024-04-17T13:27:43Z</time>
      </trkpt>
      <trkpt lat="43.2402" lon="0.14206">
        <ele>382.8</ele>
        <time>2024-04-17T13:27:44Z</time>
      </trkpt>
      <trkpt lat="43.24019" lon="0.14208">
        <ele>383</ele>
        <time>2024-04-17T13:27:45Z</time>
      </trkpt>
      <trkpt lat="43.24017" lon="0.14209">
        <ele>383.2</ele>
        <time>2024-04-17T13:27:46Z</time>
      </trkpt>
      <trkpt lat="43.24017" lon="0.1421">
        <ele>383.2</ele>
        <time>2024-04-17T13:27:47Z</time>
      </trkpt>
      <trkpt lat="43.24017" lon="0.14211">
        <ele>383.4</ele>
        <time>2024-04-17T13:27:48Z</time>
      </trkpt>
      <trkpt lat="43.24015" lon="0.14212">
        <ele>383.4</ele>
        <time>2024-04-17T13:27:49Z</time>
      </trkpt>
      <trkpt lat="43.24013" lon="0.14213">
        <ele>383.6</ele>
        <time>2024-04-17T13:27:50Z</time>
      </trkpt>
      <trkpt lat="43.24012" lon="0.14216">
        <ele>383.8</ele>
        <time>2024-04-17T13:27:51Z</time>
      </trkpt>
      <trkpt lat="43.24011" lon="0.14219">
        <ele>384</ele>
        <time>2024-04-17T13:27:52Z</time>
      </trkpt>
      <trkpt lat="43.2401" lon="0.14221">
        <ele>384.2</ele>
        <time>2024-04-17T13:27:53Z</time>
      </trkpt>
      <trkpt lat="43.24009" lon="0.14222">
        <ele>384.2</ele>
        <time>2024-04-17T13:27:54Z</time>
      </trkpt>
      <trkpt lat="43.24008" lon="0.14226">
        <ele>384.4</ele>
        <time>2024-04-17T13:27:55Z</time>
      </trkpt>
      <trkpt lat="43.24008" lon="0.14226">
        <ele>384.4</ele>
        <time>2024-04-17T13:27:56Z</time>
      </trkpt>
      <trkpt lat="43.24008" lon="0.14229">
        <ele>384.6</ele>
        <time>2024-04-17T13:27:57Z</time>
      </trkpt>
      <trkpt lat="43.24008" lon="0.14234">
        <ele>384.6</ele>
        <time>2024-04-17T13:27:58Z</time>
      </trkpt>
      <trkpt lat="43.24008" lon="0.14239">
        <ele>384.8</ele>
        <time>2024-04-17T13:27:59Z</time>
      </trkpt>
      <trkpt lat="43.24008" lon="0.14243">
        <ele>384.8</ele>
        <time>2024-04-17T13:28:00Z</time>
      </trkpt>
      <trkpt lat="43.24008" lon="0.14245">
        <ele>384.8</ele>
        <time>2024-04-17T13:28:01Z</time>
      </trkpt>
      <trkpt lat="43.24007" lon="0.14249">
        <ele>385</ele>
        <time>2024-04-17T13:28:02Z</time>
      </trkpt>
      <trkpt lat="43.24007" lon="0.14254">
        <ele>385</ele>
        <time>2024-04-17T13:28:03Z</time>
      </trkpt>
      <trkpt lat="43.24006" lon="0.14255">
        <ele>385.2</ele>
        <time>2024-04-17T13:28:04Z</time>
      </trkpt>
      <trkpt lat="43.24006" lon="0.14257">
        <ele>385.2</ele>
        <time>2024-04-17T13:28:05Z</time>
      </trkpt>
      <trkpt lat="43.24005" lon="0.14258">
        <ele>385.4</ele>
        <time>2024-04-17T13:28:06Z</time>
      </trkpt>
      <trkpt lat="43.24005" lon="0.14258">
        <ele>385.4</ele>
        <time>2024-04-17T13:28:07Z</time>
      </trkpt>
      <trkpt lat="43.24005" lon="0.1426">
        <ele>385.6</ele>
        <time>2024-04-17T13:28:08Z</time>
      </trkpt>
      <trkpt lat="43.24004" lon="0.14262">
        <ele>385.8</ele>
        <time>2024-04-17T13:28:09Z</time>
      </trkpt>
      <trkpt lat="43.24003" lon="0.14264">
        <ele>385.8</ele>
        <time>2024-04-17T13:28:10Z</time>
      </trkpt>
      <trkpt lat="43.24002" lon="0.14265">
        <ele>386</ele>
        <time>2024-04-17T13:28:11Z</time>
      </trkpt>
      <trkpt lat="43.24" lon="0.14267">
        <ele>386</ele>
        <time>2024-04-17T13:28:12Z</time>
      </trkpt>
      <trkpt lat="43.23999" lon="0.14269">
        <ele>386.2</ele>
        <time>2024-04-17T13:28:13Z</time>
      </trkpt>
      <trkpt lat="43.23998" lon="0.14272">
        <ele>386.4</ele>
        <time>2024-04-17T13:28:14Z</time>
      </trkpt>
      <trkpt lat="43.23998" lon="0.14272">
        <ele>386.6</ele>
        <time>2024-04-17T13:28:15Z</time>
      </trkpt>
      <trkpt lat="43.23997" lon="0.14275">
        <ele>386.8</ele>
        <time>2024-04-17T13:28:16Z</time>
      </trkpt>
      <trkpt lat="43.23997" lon="0.14278">
        <ele>386.8</ele>
        <time>2024-04-17T13:28:17Z</time>
      </trkpt>
      <trkpt lat="43.23997" lon="0.14282">
        <ele>387</ele>
        <time>2024-04-17T13:28:18Z</time>
      </trkpt>
      <trkpt lat="43.23996" lon="0.14284">
        <ele>387</ele>
        <time>2024-04-17T13:28:19Z</time>
      </trkpt>
      <trkpt lat="43.23995" lon="0.14285">
        <ele>387.2</ele>
        <time>2024-04-17T13:28:20Z</time>
      </trkpt>
      <trkpt lat="43.23995" lon="0.14285">
        <ele>387.4</ele>
        <time>2024-04-17T13:28:21Z</time>
      </trkpt>
      <trkpt lat="43.23994" lon="0.14287">
        <ele>387.6</ele>
        <time>2024-04-17T13:28:22Z</time>
      </trkpt>
      <trkpt lat="43.23993" lon="0.14288">
        <ele>387.6</ele>
        <time>2024-04-17T13:28:23Z</time>
      </trkpt>
      <trkpt lat="43.23992" lon="0.14289">
        <ele>387.8</ele>
        <time>2024-04-17T13:28:24Z</time>
      </trkpt>
      <trkpt lat="43.23992" lon="0.14289">
        <ele>388</ele>
        <time>2024-04-17T13:28:25Z</time>
      </trkpt>
      <trkpt lat="43.23991" lon="0.1429">
        <ele>388</ele>
        <time>2024-04-17T13:28:26Z</time>
      </trkpt>
      <trkpt lat="43.2399" lon="0.14291">
        <ele>388.2</ele>
        <time>2024-04-17T13:28:27Z</time>
      </trkpt>
      <trkpt lat="43.23989" lon="0.14292">
        <ele>388.2</ele>
        <time>2024-04-17T13:28:28Z</time>
      </trkpt>
      <trkpt lat="43.23988" lon="0.14292">
        <ele>388.4</ele>
        <time>2024-04-17T13:28:29Z</time>
      </trkpt>
      <trkpt lat="43.23987" lon="0.14293">
        <ele>388.4</ele>
        <time>2024-04-17T13:28:30Z</time>
      </trkpt>
      <trkpt lat="43.23986" lon="0.14294">
        <ele>388.6</ele>
        <time>2024-04-17T13:28:31Z</time>
      </trkpt>
      <trkpt lat="43.23984" lon="0.14295">
        <ele>388.6</ele>
        <time>2024-04-17T13:28:32Z</time>
      </trkpt>
      <trkpt lat="43.23983" lon="0.14296">
        <ele>388.6</ele>
        <time>2024-04-17T13:28:33Z</time>
      </trkpt>
      <trkpt lat="43.23982" lon="0.14297">
        <ele>389</ele>
        <time>2024-04-17T13:28:34Z</time>
      </trkpt>
      <trkpt lat="43.23981" lon="0.14297">
        <ele>389</ele>
        <time>2024-04-17T13:28:35Z</time>
      </trkpt>
      <trkpt lat="43.23979" lon="0.14298">
        <ele>389.2</ele>
        <time>2024-04-17T13:28:36Z</time>
      </trkpt>
      <trkpt lat="43.23978" lon="0.14299">
        <ele>389.2</ele>
        <time>2024-04-17T13:28:37Z</time>
      </trkpt>
      <trkpt lat="43.23977" lon="0.143">
        <ele>389.6</ele>
        <time>2024-04-17T13:28:38Z</time>
      </trkpt>
      <trkpt lat="43.23976" lon="0.14301">
        <ele>389.8</ele>
        <time>2024-04-17T13:28:39Z</time>
      </trkpt>
      <trkpt lat="43.23975" lon="0.14303">
        <ele>390</ele>
        <time>2024-04-17T13:28:40Z</time>
      </trkpt>
      <trkpt lat="43.23974" lon="0.14304">
        <ele>390</ele>
        <time>2024-04-17T13:28:41Z</time>
      </trkpt>
      <trkpt lat="43.23974" lon="0.14305">
        <ele>390.4</ele>
        <time>2024-04-17T13:28:42Z</time>
      </trkpt>
      <trkpt lat="43.23973" lon="0.14305">
        <ele>390.6</ele>
        <time>2024-04-17T13:28:43Z</time>
      </trkpt>
      <trkpt lat="43.23973" lon="0.14307">
        <ele>390.6</ele>
        <time>2024-04-17T13:28:44Z</time>
      </trkpt>
      <trkpt lat="43.23971" lon="0.14308">
        <ele>390.6</ele>
        <time>2024-04-17T13:28:45Z</time>
      </trkpt>
      <trkpt lat="43.2397" lon="0.1431">
        <ele>391</ele>
        <time>2024-04-17T13:28:46Z</time>
      </trkpt>
      <trkpt lat="43.23969" lon="0.14311">
        <ele>391.2</ele>
        <time>2024-04-17T13:28:47Z</time>
      </trkpt>
      <trkpt lat="43.23968" lon="0.14313">
        <ele>391.2</ele>
        <time>2024-04-17T13:28:48Z</time>
      </trkpt>
      <trkpt lat="43.23968" lon="0.14316">
        <ele>391.2</ele>
        <time>2024-04-17T13:28:49Z</time>
      </trkpt>
      <trkpt lat="43.23966" lon="0.14318">
        <ele>391.6</ele>
        <time>2024-04-17T13:28:50Z</time>
      </trkpt>
      <trkpt lat="43.23965" lon="0.1432">
        <ele>391.8</ele>
        <time>2024-04-17T13:28:51Z</time>
      </trkpt>
      <trkpt lat="43.23964" lon="0.14322">
        <ele>391.8</ele>
        <time>2024-04-17T13:28:52Z</time>
      </trkpt>
      <trkpt lat="43.23963" lon="0.14324">
        <ele>391.8</ele>
        <time>2024-04-17T13:28:53Z</time>
      </trkpt>
      <trkpt lat="43.23962" lon="0.14325">
        <ele>392.2</ele>
        <time>2024-04-17T13:28:54Z</time>
      </trkpt>
      <trkpt lat="43.23961" lon="0.14326">
        <ele>392.4</ele>
        <time>2024-04-17T13:28:55Z</time>
      </trkpt>
      <trkpt lat="43.2396" lon="0.14328">
        <ele>392.6</ele>
        <time>2024-04-17T13:28:56Z</time>
      </trkpt>
      <trkpt lat="43.23959" lon="0.1433">
        <ele>392.6</ele>
        <time>2024-04-17T13:28:57Z</time>
      </trkpt>
      <trkpt lat="43.23958" lon="0.14332">
        <ele>392.6</ele>
        <time>2024-04-17T13:28:58Z</time>
      </trkpt>
      <trkpt lat="43.23956" lon="0.14334">
        <ele>393</ele>
        <time>2024-04-17T13:28:59Z</time>
      </trkpt>
      <trkpt lat="43.23956" lon="0.14337">
        <ele>393</ele>
        <time>2024-04-17T13:29:00Z</time>
      </trkpt>
      <trkpt lat="43.23955" lon="0.14339">
        <ele>393.2</ele>
        <time>2024-04-17T13:29:01Z</time>
      </trkpt>
      <trkpt lat="43.23955" lon="0.14341">
        <ele>393.2</ele>
        <time>2024-04-17T13:29:02Z</time>
      </trkpt>
      <trkpt lat="43.23954" lon="0.14343">
        <ele>393.2</ele>
        <time>2024-04-17T13:29:03Z</time>
      </trkpt>
      <trkpt lat="43.23954" lon="0.14345">
        <ele>393.6</ele>
        <time>2024-04-17T13:29:04Z</time>
      </trkpt>
      <trkpt lat="43.23954" lon="0.14347">
        <ele>393.6</ele>
        <time>2024-04-17T13:29:05Z</time>
      </trkpt>
      <trkpt lat="43.23953" lon="0.1435">
        <ele>393.8</ele>
        <time>2024-04-17T13:29:06Z</time>
      </trkpt>
      <trkpt lat="43.23953" lon="0.14352">
        <ele>393.8</ele>
        <time>2024-04-17T13:29:07Z</time>
      </trkpt>
      <trkpt lat="43.23952" lon="0.14352">
        <ele>393.8</ele>
        <time>2024-04-17T13:29:08Z</time>
      </trkpt>
      <trkpt lat="43.23953" lon="0.14354">
        <ele>393.8</ele>
        <time>2024-04-17T13:29:09Z</time>
      </trkpt>
      <trkpt lat="43.23953" lon="0.14357">
        <ele>393.8</ele>
        <time>2024-04-17T13:29:10Z</time>
      </trkpt>
      <trkpt lat="43.23955" lon="0.14361">
        <ele>393.8</ele>
        <time>2024-04-17T13:29:11Z</time>
      </trkpt>
      <trkpt lat="43.23955" lon="0.14364">
        <ele>394.2</ele>
        <time>2024-04-17T13:29:12Z</time>
      </trkpt>
      <trkpt lat="43.23955" lon="0.14367">
        <ele>394.4</ele>
        <time>2024-04-17T13:29:13Z</time>
      </trkpt>
      <trkpt lat="43.23955" lon="0.14368">
        <ele>394.4</ele>
        <time>2024-04-17T13:29:14Z</time>
      </trkpt>
      <trkpt lat="43.23955" lon="0.1437">
        <ele>394.8</ele>
        <time>2024-04-17T13:29:15Z</time>
      </trkpt>
      <trkpt lat="43.23956" lon="0.14371">
        <ele>394.8</ele>
        <time>2024-04-17T13:29:16Z</time>
      </trkpt>
      <trkpt lat="43.23957" lon="0.14372">
        <ele>395</ele>
        <time>2024-04-17T13:29:17Z</time>
      </trkpt>
      <trkpt lat="43.23959" lon="0.14375">
        <ele>395.2</ele>
        <time>2024-04-17T13:29:18Z</time>
      </trkpt>
      <trkpt lat="43.23961" lon="0.14378">
        <ele>395.2</ele>
        <time>2024-04-17T13:29:19Z</time>
      </trkpt>
      <trkpt lat="43.23962" lon="0.14379">
        <ele>395.2</ele>
        <time>2024-04-17T13:29:20Z</time>
      </trkpt>
      <trkpt lat="43.23962" lon="0.14381">
        <ele>395.4</ele>
        <time>2024-04-17T13:29:21Z</time>
      </trkpt>
      <trkpt lat="43.23963" lon="0.14382">
        <ele>395.4</ele>
        <time>2024-04-17T13:29:22Z</time>
      </trkpt>
      <trkpt lat="43.23964" lon="0.14384">
        <ele>395.6</ele>
        <time>2024-04-17T13:29:23Z</time>
      </trkpt>
      <trkpt lat="43.23964" lon="0.14385">
        <ele>395.8</ele>
        <time>2024-04-17T13:29:24Z</time>
      </trkpt>
      <trkpt lat="43.23965" lon="0.14386">
        <ele>395.8</ele>
        <time>2024-04-17T13:29:25Z</time>
      </trkpt>
      <trkpt lat="43.23965" lon="0.14387">
        <ele>396.2</ele>
        <time>2024-04-17T13:29:26Z</time>
      </trkpt>
      <trkpt lat="43.23966" lon="0.14388">
        <ele>396.2</ele>
        <time>2024-04-17T13:29:27Z</time>
      </trkpt>
      <trkpt lat="43.23967" lon="0.14389">
        <ele>396.4</ele>
        <time>2024-04-17T13:29:28Z</time>
      </trkpt>
      <trkpt lat="43.23968" lon="0.1439">
        <ele>396.4</ele>
        <time>2024-04-17T13:29:29Z</time>
      </trkpt>
      <trkpt lat="43.23969" lon="0.14391">
        <ele>396.4</ele>
        <time>2024-04-17T13:29:30Z</time>
      </trkpt>
      <trkpt lat="43.23969" lon="0.14393">
        <ele>396.4</ele>
        <time>2024-04-17T13:29:31Z</time>
      </trkpt>
      <trkpt lat="43.2397" lon="0.14393">
        <ele>396.4</ele>
        <time>2024-04-17T13:29:32Z</time>
      </trkpt>
      <trkpt lat="43.23971" lon="0.14394">
        <ele>396.8</ele>
        <time>2024-04-17T13:29:33Z</time>
      </trkpt>
      <trkpt lat="43.23971" lon="0.14395">
        <ele>396.8</ele>
        <time>2024-04-17T13:29:34Z</time>
      </trkpt>
      <trkpt lat="43.23972" lon="0.14397">
        <ele>397</ele>
        <time>2024-04-17T13:29:35Z</time>
      </trkpt>
      <trkpt lat="43.23973" lon="0.14398">
        <ele>397</ele>
        <time>2024-04-17T13:29:36Z</time>
      </trkpt>
      <trkpt lat="43.23973" lon="0.14399">
        <ele>397.4</ele>
        <time>2024-04-17T13:29:37Z</time>
      </trkpt>
      <trkpt lat="43.23974" lon="0.14401">
        <ele>397.6</ele>
        <time>2024-04-17T13:29:38Z</time>
      </trkpt>
      <trkpt lat="43.23975" lon="0.14402">
        <ele>397.8</ele>
        <time>2024-04-17T13:29:39Z</time>
      </trkpt>
      <trkpt lat="43.23976" lon="0.14403">
        <ele>398</ele>
        <time>2024-04-17T13:29:40Z</time>
      </trkpt>
      <trkpt lat="43.23977" lon="0.14404">
        <ele>398</ele>
        <time>2024-04-17T13:29:41Z</time>
      </trkpt>
      <trkpt lat="43.23978" lon="0.14405">
        <ele>398.2</ele>
        <time>2024-04-17T13:29:42Z</time>
      </trkpt>
      <trkpt lat="43.23979" lon="0.14406">
        <ele>398.4</ele>
        <time>2024-04-17T13:29:43Z</time>
      </trkpt>
      <trkpt lat="43.2398" lon="0.14408">
        <ele>398.4</ele>
        <time>2024-04-17T13:29:44Z</time>
      </trkpt>
      <trkpt lat="43.23981" lon="0.14409">
        <ele>398.4</ele>
        <time>2024-04-17T13:29:45Z</time>
      </trkpt>
      <trkpt lat="43.23981" lon="0.14411">
        <ele>398.8</ele>
        <time>2024-04-17T13:29:46Z</time>
      </trkpt>
      <trkpt lat="43.23982" lon="0.14412">
        <ele>398.6</ele>
        <time>2024-04-17T13:29:47Z</time>
      </trkpt>
      <trkpt lat="43.23983" lon="0.14413">
        <ele>398.8</ele>
        <time>2024-04-17T13:29:48Z</time>
      </trkpt>
      <trkpt lat="43.23984" lon="0.14415">
        <ele>398.8</ele>
        <time>2024-04-17T13:29:49Z</time>
      </trkpt>
      <trkpt lat="43.23984" lon="0.14417">
        <ele>399</ele>
        <time>2024-04-17T13:29:50Z</time>
      </trkpt>
      <trkpt lat="43.23985" lon="0.14418">
        <ele>399</ele>
        <time>2024-04-17T13:29:51Z</time>
      </trkpt>
      <trkpt lat="43.23986" lon="0.14419">
        <ele>399</ele>
        <time>2024-04-17T13:29:52Z</time>
      </trkpt>
      <trkpt lat="43.23986" lon="0.14421">
        <ele>399.2</ele>
        <time>2024-04-17T13:29:53Z</time>
      </trkpt>
      <trkpt lat="43.23986" lon="0.14421">
        <ele>399.6</ele>
        <time>2024-04-17T13:29:54Z</time>
      </trkpt>
      <trkpt lat="43.23987" lon="0.14423">
        <ele>399.8</ele>
        <time>2024-04-17T13:29:55Z</time>
      </trkpt>
      <trkpt lat="43.23988" lon="0.14424">
        <ele>400</ele>
        <time>2024-04-17T13:29:56Z</time>
      </trkpt>
      <trkpt lat="43.23989" lon="0.14425">
        <ele>400</ele>
        <time>2024-04-17T13:29:57Z</time>
      </trkpt>
      <trkpt lat="43.2399" lon="0.14427">
        <ele>400.2</ele>
        <time>2024-04-17T13:29:58Z</time>
      </trkpt>
      <trkpt lat="43.23991" lon="0.14429">
        <ele>400.4</ele>
        <time>2024-04-17T13:29:59Z</time>
      </trkpt>
      <trkpt lat="43.23992" lon="0.14431">
        <ele>400.4</ele>
        <time>2024-04-17T13:30:00Z</time>
      </trkpt>
      <trkpt lat="43.23993" lon="0.14432">
        <ele>400.6</ele>
        <time>2024-04-17T13:30:01Z</time>
      </trkpt>
      <trkpt lat="43.23995" lon="0.14434">
        <ele>400.6</ele>
        <time>2024-04-17T13:30:02Z</time>
      </trkpt>
      <trkpt lat="43.23996" lon="0.14435">
        <ele>400.8</ele>
        <time>2024-04-17T13:30:03Z</time>
      </trkpt>
      <trkpt lat="43.23997" lon="0.14437">
        <ele>400.8</ele>
        <time>2024-04-17T13:30:04Z</time>
      </trkpt>
      <trkpt lat="43.23998" lon="0.14438">
        <ele>401</ele>
        <time>2024-04-17T13:30:05Z</time>
      </trkpt>
      <trkpt lat="43.24" lon="0.14439">
        <ele>401</ele>
        <time>2024-04-17T13:30:06Z</time>
      </trkpt>
      <trkpt lat="43.24001" lon="0.1444">
        <ele>401</ele>
        <time>2024-04-17T13:30:07Z</time>
      </trkpt>
      <trkpt lat="43.24003" lon="0.14442">
        <ele>401</ele>
        <time>2024-04-17T13:30:08Z</time>
      </trkpt>
      <trkpt lat="43.24004" lon="0.14444">
        <ele>401.2</ele>
        <time>2024-04-17T13:30:09Z</time>
      </trkpt>
      <trkpt lat="43.24006" lon="0.14445">
        <ele>401.2</ele>
        <time>2024-04-17T13:30:10Z</time>
      </trkpt>
      <trkpt lat="43.24007" lon="0.14447">
        <ele>401.4</ele>
        <time>2024-04-17T13:30:11Z</time>
      </trkpt>
      <trkpt lat="43.24008" lon="0.14448">
        <ele>401.6</ele>
        <time>2024-04-17T13:30:12Z</time>
      </trkpt>
      <trkpt lat="43.24009" lon="0.14451">
        <ele>401.6</ele>
        <time>2024-04-17T13:30:13Z</time>
      </trkpt>
      <trkpt lat="43.24011" lon="0.14453">
        <ele>401.6</ele>
        <time>2024-04-17T13:30:14Z</time>
      </trkpt>
      <trkpt lat="43.24013" lon="0.14454">
        <ele>401.8</ele>
        <time>2024-04-17T13:30:15Z</time>
      </trkpt>
      <trkpt lat="43.24014" lon="0.14456">
        <ele>402</ele>
        <time>2024-04-17T13:30:16Z</time>
      </trkpt>
      <trkpt lat="43.24015" lon="0.14457">
        <ele>402.2</ele>
        <time>2024-04-17T13:30:17Z</time>
      </trkpt>
      <trkpt lat="43.24016" lon="0.1446">
        <ele>402.2</ele>
        <time>2024-04-17T13:30:18Z</time>
      </trkpt>
      <trkpt lat="43.24017" lon="0.14461">
        <ele>402.4</ele>
        <time>2024-04-17T13:30:19Z</time>
      </trkpt>
      <trkpt lat="43.24018" lon="0.14462">
        <ele>402.4</ele>
        <time>2024-04-17T13:30:20Z</time>
      </trkpt>
      <trkpt lat="43.24019" lon="0.14464">
        <ele>402.6</ele>
        <time>2024-04-17T13:30:21Z</time>
      </trkpt>
      <trkpt lat="43.2402" lon="0.14464">
        <ele>402.6</ele>
        <time>2024-04-17T13:30:22Z</time>
      </trkpt>
      <trkpt lat="43.24022" lon="0.14465">
        <ele>402.6</ele>
        <time>2024-04-17T13:30:23Z</time>
      </trkpt>
      <trkpt lat="43.24023" lon="0.14467">
        <ele>402.8</ele>
        <time>2024-04-17T13:30:24Z</time>
      </trkpt>
      <trkpt lat="43.24024" lon="0.14467">
        <ele>403</ele>
        <time>2024-04-17T13:30:25Z</time>
      </trkpt>
      <trkpt lat="43.24025" lon="0.14469">
        <ele>403</ele>
        <time>2024-04-17T13:30:26Z</time>
      </trkpt>
      <trkpt lat="43.24027" lon="0.1447">
        <ele>403.2</ele>
        <time>2024-04-17T13:30:27Z</time>
      </trkpt>
      <trkpt lat="43.24028" lon="0.14472">
        <ele>403.2</ele>
        <time>2024-04-17T13:30:28Z</time>
      </trkpt>
      <trkpt lat="43.24029" lon="0.14473">
        <ele>403.2</ele>
        <time>2024-04-17T13:30:29Z</time>
      </trkpt>
      <trkpt lat="43.2403" lon="0.14475">
        <ele>403.4</ele>
        <time>2024-04-17T13:30:30Z</time>
      </trkpt>
      <trkpt lat="43.24032" lon="0.14477">
        <ele>403.4</ele>
        <time>2024-04-17T13:30:31Z</time>
      </trkpt>
      <trkpt lat="43.24033" lon="0.14479">
        <ele>403.4</ele>
        <time>2024-04-17T13:30:32Z</time>
      </trkpt>
      <trkpt lat="43.24034" lon="0.1448">
        <ele>403.6</ele>
        <time>2024-04-17T13:30:33Z</time>
      </trkpt>
      <trkpt lat="43.24035" lon="0.14481">
        <ele>403.6</ele>
        <time>2024-04-17T13:30:34Z</time>
      </trkpt>
      <trkpt lat="43.24036" lon="0.14482">
        <ele>403.8</ele>
        <time>2024-04-17T13:30:35Z</time>
      </trkpt>
      <trkpt lat="43.24036" lon="0.14484">
        <ele>403.8</ele>
        <time>2024-04-17T13:30:36Z</time>
      </trkpt>
      <trkpt lat="43.24037" lon="0.14486">
        <ele>404</ele>
        <time>2024-04-17T13:30:37Z</time>
      </trkpt>
      <trkpt lat="43.24037" lon="0.14488">
        <ele>404</ele>
        <time>2024-04-17T13:30:38Z</time>
      </trkpt>
      <trkpt lat="43.24038" lon="0.1449">
        <ele>404.4</ele>
        <time>2024-04-17T13:30:39Z</time>
      </trkpt>
      <trkpt lat="43.24039" lon="0.14493">
        <ele>404.4</ele>
        <time>2024-04-17T13:30:40Z</time>
      </trkpt>
      <trkpt lat="43.24039" lon="0.14494">
        <ele>404.6</ele>
        <time>2024-04-17T13:30:41Z</time>
      </trkpt>
      <trkpt lat="43.24039" lon="0.14495">
        <ele>404.8</ele>
        <time>2024-04-17T13:30:42Z</time>
      </trkpt>
      <trkpt lat="43.24039" lon="0.14495">
        <ele>404.8</ele>
        <time>2024-04-17T13:30:43Z</time>
      </trkpt>
      <trkpt lat="43.24039" lon="0.14495">
        <ele>404.8</ele>
        <time>2024-04-17T13:30:44Z</time>
      </trkpt>
      <trkpt lat="43.24039" lon="0.14495">
        <ele>405</ele>
        <time>2024-04-17T13:30:45Z</time>
      </trkpt>
      <trkpt lat="43.24039" lon="0.14496">
        <ele>405</ele>
        <time>2024-04-17T13:30:46Z</time>
      </trkpt>
      <trkpt lat="43.24039" lon="0.14496">
        <ele>405</ele>
        <time>2024-04-17T13:30:47Z</time>
      </trkpt>
      <trkpt lat="43.24039" lon="0.14495">
        <ele>405.2</ele>
        <time>2024-04-17T13:30:48Z</time>
      </trkpt>
      <trkpt lat="43.24039" lon="0.14495">
        <ele>405.2</ele>
        <time>2024-04-17T13:30:49Z</time>
      </trkpt>
      <trkpt lat="43.24039" lon="0.14495">
        <ele>405.2</ele>
        <time>2024-04-17T13:30:50Z</time>
      </trkpt>
      <trkpt lat="43.24039" lon="0.14495">
        <ele>405.4</ele>
        <time>2024-04-17T13:30:51Z</time>
      </trkpt>
      <trkpt lat="43.24039" lon="0.14495">
        <ele>405.4</ele>
        <time>2024-04-17T13:30:52Z</time>
      </trkpt>
      <trkpt lat="43.24039" lon="0.14495">
        <ele>405.2</ele>
        <time>2024-04-17T13:30:53Z</time>
      </trkpt>
      <trkpt lat="43.24039" lon="0.14495">
        <ele>405.4</ele>
        <time>2024-04-17T13:30:54Z</time>
      </trkpt>
      <trkpt lat="43.24039" lon="0.14495">
        <ele>405.4</ele>
        <time>2024-04-17T13:30:55Z</time>
      </trkpt>
      <trkpt lat="43.24039" lon="0.14495">
        <ele>405.4</ele>
        <time>2024-04-17T13:30:56Z</time>
      </trkpt>
      <trkpt lat="43.24039" lon="0.14495">
        <ele>405.4</ele>
        <time>2024-04-17T13:30:57Z</time>
      </trkpt>
      <trkpt lat="43.24039" lon="0.14495">
        <ele>405.4</ele>
        <time>2024-04-17T13:30:58Z</time>
      </trkpt>
      <trkpt lat="43.24039" lon="0.14495">
        <ele>405.4</ele>
        <time>2024-04-17T13:30:59Z</time>
      </trkpt>
      <trkpt lat="43.24039" lon="0.14495">
        <ele>405.4</ele>
        <time>2024-04-17T13:31:00Z</time>
      </trkpt>
      <trkpt lat="43.24039" lon="0.14495">
        <ele>405.4</ele>
        <time>2024-04-17T13:31:01Z</time>
      </trkpt>
      <trkpt lat="43.24039" lon="0.14495">
        <ele>405.4</ele>
        <time>2024-04-17T13:31:02Z</time>
      </trkpt>
      <trkpt lat="43.24039" lon="0.14495">
        <ele>405.4</ele>
        <time>2024-04-17T13:31:03Z</time>
      </trkpt>
      <trkpt lat="43.24039" lon="0.14495">
        <ele>405.4</ele>
        <time>2024-04-17T13:31:04Z</time>
      </trkpt>
      <trkpt lat="43.24039" lon="0.14495">
        <ele>405.4</ele>
        <time>2024-04-17T13:31:05Z</time>
      </trkpt>
      <trkpt lat="43.24039" lon="0.14495">
        <ele>405.4</ele>
        <time>2024-04-17T13:31:06Z</time>
      </trkpt>
      <trkpt lat="43.24039" lon="0.14495">
        <ele>405.4</ele>
        <time>2024-04-17T13:31:07Z</time>
      </trkpt>
      <trkpt lat="43.24039" lon="0.14495">
        <ele>405.4</ele>
        <time>2024-04-17T13:31:08Z</time>
      </trkpt>
      <trkpt lat="43.24039" lon="0.14495">
        <ele>405.4</ele>
        <time>2024-04-17T13:31:09Z</time>
      </trkpt>
      <trkpt lat="43.24039" lon="0.14495">
        <ele>405.4</ele>
        <time>2024-04-17T13:31:10Z</time>
      </trkpt>
      <trkpt lat="43.24039" lon="0.14495">
        <ele>405.4</ele>
        <time>2024-04-17T13:31:11Z</time>
      </trkpt>
      <trkpt lat="43.24039" lon="0.14495">
        <ele>405.4</ele>
        <time>2024-04-17T13:31:12Z</time>
      </trkpt>
      <trkpt lat="43.24039" lon="0.14495">
        <ele>405.4</ele>
        <time>2024-04-17T13:31:13Z</time>
      </trkpt>
      <trkpt lat="43.24039" lon="0.14495">
        <ele>405.4</ele>
        <time>2024-04-17T13:31:14Z</time>
      </trkpt>
      <trkpt lat="43.24039" lon="0.14495">
        <ele>405.4</ele>
        <time>2024-04-17T13:31:15Z</time>
      </trkpt>
      <trkpt lat="43.24039" lon="0.14495">
        <ele>405.4</ele>
        <time>2024-04-17T13:31:16Z</time>
      </trkpt>
      <trkpt lat="43.24039" lon="0.14495">
        <ele>405.4</ele>
        <time>2024-04-17T13:31:17Z</time>
      </trkpt>
      <trkpt lat="43.24039" lon="0.14495">
        <ele>405.4</ele>
        <time>2024-04-17T13:31:18Z</time>
      </trkpt>
      <trkpt lat="43.24039" lon="0.14495">
        <ele>405.4</ele>
        <time>2024-04-17T13:31:19Z</time>
      </trkpt>
      <trkpt lat="43.24039" lon="0.14495">
        <ele>405.4</ele>
        <time>2024-04-17T13:31:20Z</time>
      </trkpt>
      <trkpt lat="43.24039" lon="0.14495">
        <ele>405.4</ele>
        <time>2024-04-17T13:31:21Z</time>
      </trkpt>
      <trkpt lat="43.24039" lon="0.14495">
        <ele>405.4</ele>
        <time>2024-04-17T13:31:22Z</time>
      </trkpt>
      <trkpt lat="43.24039" lon="0.14495">
        <ele>405.4</ele>
        <time>2024-04-17T13:31:23Z</time>
      </trkpt>
      <trkpt lat="43.24039" lon="0.14495">
        <ele>405.4</ele>
        <time>2024-04-17T13:31:24Z</time>
      </trkpt>
      <trkpt lat="43.24039" lon="0.14495">
        <ele>405.4</ele>
        <time>2024-04-17T13:31:25Z</time>
      </trkpt>
      <trkpt lat="43.24039" lon="0.14495">
        <ele>405.4</ele>
        <time>2024-04-17T13:31:26Z</time>
      </trkpt>
      <trkpt lat="43.24039" lon="0.14495">
        <ele>405.4</ele>
        <time>2024-04-17T13:31:27Z</time>
      </trkpt>
      <trkpt lat="43.24039" lon="0.14495">
        <ele>405.4</ele>
        <time>2024-04-17T13:31:28Z</time>
      </trkpt>
      <trkpt lat="43.24039" lon="0.14495">
        <ele>405.4</ele>
        <time>2024-04-17T13:31:29Z</time>
      </trkpt>
      <trkpt lat="43.24039" lon="0.14495">
        <ele>405.4</ele>
        <time>2024-04-17T13:31:30Z</time>
      </trkpt>
      <trkpt lat="43.24039" lon="0.14495">
        <ele>405.4</ele>
        <time>2024-04-17T13:31:31Z</time>
      </trkpt>
      <trkpt lat="43.24039" lon="0.14495">
        <ele>405.4</ele>
        <time>2024-04-17T13:31:32Z</time>
      </trkpt>
      <trkpt lat="43.24039" lon="0.14495">
        <ele>405.4</ele>
        <time>2024-04-17T13:31:33Z</time>
      </trkpt>
      <trkpt lat="43.24039" lon="0.14495">
        <ele>405.4</ele>
        <time>2024-04-17T13:31:34Z</time>
      </trkpt>
      <trkpt lat="43.24039" lon="0.14495">
        <ele>405.4</ele>
        <time>2024-04-17T13:31:35Z</time>
      </trkpt>
      <trkpt lat="43.24039" lon="0.14495">
        <ele>405.4</ele>
        <time>2024-04-17T13:31:36Z</time>
      </trkpt>
      <trkpt lat="43.24039" lon="0.14495">
        <ele>405.4</ele>
        <time>2024-04-17T13:31:37Z</time>
      </trkpt>
      <trkpt lat="43.24039" lon="0.14495">
        <ele>405.2</ele>
        <time>2024-04-17T13:31:38Z</time>
      </trkpt>
      <trkpt lat="43.24039" lon="0.14495">
        <ele>405.2</ele>
        <time>2024-04-17T13:31:39Z</time>
      </trkpt>
      <trkpt lat="43.24039" lon="0.14495">
        <ele>405.2</ele>
        <time>2024-04-17T13:31:40Z</time>
      </trkpt>
      <trkpt lat="43.24039" lon="0.14495">
        <ele>405.2</ele>
        <time>2024-04-17T13:31:41Z</time>
      </trkpt>
      <trkpt lat="43.24039" lon="0.14495">
        <ele>405.2</ele>
        <time>2024-04-17T13:31:42Z</time>
      </trkpt>
      <trkpt lat="43.24039" lon="0.14495">
        <ele>405.2</ele>
        <time>2024-04-17T13:31:43Z</time>
      </trkpt>
      <trkpt lat="43.24039" lon="0.14495">
        <ele>405.2</ele>
        <time>2024-04-17T13:31:44Z</time>
      </trkpt>
      <trkpt lat="43.24039" lon="0.14495">
        <ele>405.2</ele>
        <time>2024-04-17T13:31:45Z</time>
      </trkpt>
      <trkpt lat="43.24039" lon="0.14495">
        <ele>405.2</ele>
        <time>2024-04-17T13:31:46Z</time>
      </trkpt>
      <trkpt lat="43.24039" lon="0.14495">
        <ele>405.2</ele>
        <time>2024-04-17T13:31:47Z</time>
      </trkpt>
      <trkpt lat="43.24039" lon="0.14495">
        <ele>405.2</ele>
        <time>2024-04-17T13:31:48Z</time>
      </trkpt>
      <trkpt lat="43.24039" lon="0.14495">
        <ele>405.2</ele>
        <time>2024-04-17T13:31:49Z</time>
      </trkpt>
      <trkpt lat="43.24039" lon="0.14495">
        <ele>405.2</ele>
        <time>2024-04-17T13:31:50Z</time>
      </trkpt>
      <trkpt lat="43.24039" lon="0.14495">
        <ele>405.2</ele>
        <time>2024-04-17T13:31:51Z</time>
      </trkpt>
      <trkpt lat="43.24039" lon="0.14495">
        <ele>405.4</ele>
        <time>2024-04-17T13:31:52Z</time>
      </trkpt>
      <trkpt lat="43.24039" lon="0.14495">
        <ele>405.4</ele>
        <time>2024-04-17T13:31:53Z</time>
      </trkpt>
      <trkpt lat="43.24039" lon="0.14495">
        <ele>405.4</ele>
        <time>2024-04-17T13:31:54Z</time>
      </trkpt>
      <trkpt lat="43.24039" lon="0.14495">
        <ele>405.4</ele>
        <time>2024-04-17T13:31:55Z</time>
      </trkpt>
      <trkpt lat="43.24039" lon="0.14495">
        <ele>405.4</ele>
        <time>2024-04-17T13:31:56Z</time>
      </trkpt>
      <trkpt lat="43.24039" lon="0.14495">
        <ele>405.4</ele>
        <time>2024-04-17T13:31:57Z</time>
      </trkpt>
      <trkpt lat="43.24039" lon="0.14495">
        <ele>405.4</ele>
        <time>2024-04-17T13:31:58Z</time>
      </trkpt>
      <trkpt lat="43.24039" lon="0.14495">
        <ele>405.4</ele>
        <time>2024-04-17T13:31:59Z</time>
      </trkpt>
      <trkpt lat="43.24039" lon="0.14495">
        <ele>405.4</ele>
        <time>2024-04-17T13:32:00Z</time>
      </trkpt>
      <trkpt lat="43.24039" lon="0.14495">
        <ele>405.4</ele>
        <time>2024-04-17T13:32:01Z</time>
      </trkpt>
      <trkpt lat="43.24039" lon="0.14495">
        <ele>405.4</ele>
        <time>2024-04-17T13:32:02Z</time>
      </trkpt>
      <trkpt lat="43.24039" lon="0.14495">
        <ele>405.4</ele>
        <time>2024-04-17T13:32:03Z</time>
      </trkpt>
      <trkpt lat="43.24039" lon="0.14495">
        <ele>405.4</ele>
        <time>2024-04-17T13:32:04Z</time>
      </trkpt>
      <trkpt lat="43.24039" lon="0.14495">
        <ele>405.4</ele>
        <time>2024-04-17T13:32:05Z</time>
      </trkpt>
      <trkpt lat="43.24039" lon="0.14495">
        <ele>405.4</ele>
        <time>2024-04-17T13:32:06Z</time>
      </trkpt>
      <trkpt lat="43.24039" lon="0.14495">
        <ele>405.4</ele>
        <time>2024-04-17T13:32:07Z</time>
      </trkpt>
      <trkpt lat="43.24039" lon="0.14495">
        <ele>405.4</ele>
        <time>2024-04-17T13:32:08Z</time>
      </trkpt>
      <trkpt lat="43.24039" lon="0.14495">
        <ele>405.4</ele>
        <time>2024-04-17T13:32:09Z</time>
      </trkpt>
      <trkpt lat="43.24039" lon="0.14495">
        <ele>405.4</ele>
        <time>2024-04-17T13:32:10Z</time>
      </trkpt>
      <trkpt lat="43.24039" lon="0.14495">
        <ele>405.4</ele>
        <time>2024-04-17T13:32:11Z</time>
      </trkpt>
      <trkpt lat="43.24039" lon="0.14495">
        <ele>405.4</ele>
        <time>2024-04-17T13:32:12Z</time>
      </trkpt>
      <trkpt lat="43.24039" lon="0.14495">
        <ele>405.4</ele>
        <time>2024-04-17T13:32:13Z</time>
      </trkpt>
      <trkpt lat="43.24039" lon="0.14495">
        <ele>405.4</ele>
        <time>2024-04-17T13:32:14Z</time>
      </trkpt>
      <trkpt lat="43.24039" lon="0.14495">
        <ele>405.4</ele>
        <time>2024-04-17T13:32:15Z</time>
      </trkpt>
      <trkpt lat="43.24039" lon="0.14495">
        <ele>405.4</ele>
        <time>2024-04-17T13:32:16Z</time>
      </trkpt>
      <trkpt lat="43.24039" lon="0.14495">
        <ele>405.4</ele>
        <time>2024-04-17T13:32:17Z</time>
      </trkpt>
      <trkpt lat="43.24039" lon="0.14495">
        <ele>405.4</ele>
        <time>2024-04-17T13:32:18Z</time>
      </trkpt>
      <trkpt lat="43.24039" lon="0.14495">
        <ele>405.4</ele>
        <time>2024-04-17T13:32:19Z</time>
      </trkpt>
      <trkpt lat="43.24039" lon="0.14495">
        <ele>405.2</ele>
        <time>2024-04-17T13:32:20Z</time>
      </trkpt>
      <trkpt lat="43.24039" lon="0.14495">
        <ele>405.2</ele>
        <time>2024-04-17T13:32:21Z</time>
      </trkpt>
      <trkpt lat="43.24039" lon="0.14495">
        <ele>405.2</ele>
        <time>2024-04-17T13:32:22Z</time>
      </trkpt>
      <trkpt lat="43.24039" lon="0.14495">
        <ele>405.2</ele>
        <time>2024-04-17T13:32:23Z</time>
      </trkpt>
      <trkpt lat="43.24039" lon="0.14495">
        <ele>405.2</ele>
        <time>2024-04-17T13:32:24Z</time>
      </trkpt>
      <trkpt lat="43.24039" lon="0.14495">
        <ele>405.2</ele>
        <time>2024-04-17T13:32:25Z</time>
      </trkpt>
      <trkpt lat="43.24039" lon="0.14495">
        <ele>405.2</ele>
        <time>2024-04-17T13:32:26Z</time>
      </trkpt>
      <trkpt lat="43.24039" lon="0.14495">
        <ele>405.2</ele>
        <time>2024-04-17T13:32:27Z</time>
      </trkpt>
      <trkpt lat="43.24039" lon="0.14495">
        <ele>405.2</ele>
        <time>2024-04-17T13:32:28Z</time>
      </trkpt>
      <trkpt lat="43.24039" lon="0.14495">
        <ele>405.2</ele>
        <time>2024-04-17T13:32:29Z</time>
      </trkpt>
      <trkpt lat="43.24039" lon="0.14495">
        <ele>405.2</ele>
        <time>2024-04-17T13:32:30Z</time>
      </trkpt>
      <trkpt lat="43.24039" lon="0.14495">
        <ele>405.2</ele>
        <time>2024-04-17T13:32:31Z</time>
      </trkpt>
      <trkpt lat="43.24039" lon="0.14495">
        <ele>405.2</ele>
        <time>2024-04-17T13:32:32Z</time>
      </trkpt>
      <trkpt lat="43.24039" lon="0.14495">
        <ele>405.2</ele>
        <time>2024-04-17T13:32:33Z</time>
      </trkpt>
      <trkpt lat="43.24039" lon="0.14495">
        <ele>405.2</ele>
        <time>2024-04-17T13:32:34Z</time>
      </trkpt>
      <trkpt lat="43.24039" lon="0.14495">
        <ele>405.2</ele>
        <time>2024-04-17T13:32:35Z</time>
      </trkpt>
      <trkpt lat="43.24039" lon="0.14495">
        <ele>405.2</ele>
        <time>2024-04-17T13:32:36Z</time>
      </trkpt>
      <trkpt lat="43.24039" lon="0.14495">
        <ele>405.2</ele>
        <time>2024-04-17T13:32:37Z</time>
      </trkpt>
      <trkpt lat="43.24039" lon="0.14495">
        <ele>405.2</ele>
        <time>2024-04-17T13:32:38Z</time>
      </trkpt>
      <trkpt lat="43.24039" lon="0.14495">
        <ele>405.2</ele>
        <time>2024-04-17T13:32:39Z</time>
      </trkpt>
      <trkpt lat="43.24039" lon="0.14495">
        <ele>405.2</ele>
        <time>2024-04-17T13:32:40Z</time>
      </trkpt>
      <trkpt lat="43.24039" lon="0.14495">
        <ele>405.4</ele>
        <time>2024-04-17T13:32:41Z</time>
      </trkpt>
      <trkpt lat="43.24039" lon="0.14495">
        <ele>405.4</ele>
        <time>2024-04-17T13:32:42Z</time>
      </trkpt>
      <trkpt lat="43.24039" lon="0.14495">
        <ele>405.4</ele>
        <time>2024-04-17T13:32:43Z</time>
      </trkpt>
      <trkpt lat="43.24039" lon="0.14495">
        <ele>405.4</ele>
        <time>2024-04-17T13:32:44Z</time>
      </trkpt>
      <trkpt lat="43.24039" lon="0.14495">
        <ele>405.4</ele>
        <time>2024-04-17T13:32:45Z</time>
      </trkpt>
      <trkpt lat="43.24039" lon="0.14495">
        <ele>405.4</ele>
        <time>2024-04-17T13:32:46Z</time>
      </trkpt>
      <trkpt lat="43.24039" lon="0.14495">
        <ele>405.4</ele>
        <time>2024-04-17T13:32:47Z</time>
      </trkpt>
      <trkpt lat="43.24039" lon="0.14495">
        <ele>405.4</ele>
        <time>2024-04-17T13:32:48Z</time>
      </trkpt>
      <trkpt lat="43.24039" lon="0.14495">
        <ele>405.4</ele>
        <time>2024-04-17T13:32:49Z</time>
      </trkpt>
      <trkpt lat="43.24039" lon="0.14495">
        <ele>405.4</ele>
        <time>2024-04-17T13:32:50Z</time>
      </trkpt>
      <trkpt lat="43.24039" lon="0.14495">
        <ele>405.4</ele>
        <time>2024-04-17T13:32:51Z</time>
      </trkpt>
      <trkpt lat="43.24039" lon="0.14495">
        <ele>405.4</ele>
        <time>2024-04-17T13:32:52Z</time>
      </trkpt>
      <trkpt lat="43.24039" lon="0.14495">
        <ele>405.4</ele>
        <time>2024-04-17T13:32:53Z</time>
      </trkpt>
      <trkpt lat="43.24039" lon="0.14495">
        <ele>405.4</ele>
        <time>2024-04-17T13:32:54Z</time>
      </trkpt>
      <trkpt lat="43.24039" lon="0.14495">
        <ele>405.4</ele>
        <time>2024-04-17T13:32:55Z</time>
      </trkpt>
      <trkpt lat="43.24039" lon="0.14495">
        <ele>405.4</ele>
        <time>2024-04-17T13:32:56Z</time>
      </trkpt>
      <trkpt lat="43.24039" lon="0.14495">
        <ele>405.4</ele>
        <time>2024-04-17T13:32:57Z</time>
      </trkpt>
      <trkpt lat="43.24039" lon="0.14495">
        <ele>405.4</ele>
        <time>2024-04-17T13:32:58Z</time>
      </trkpt>
      <trkpt lat="43.24039" lon="0.14495">
        <ele>405.4</ele>
        <time>2024-04-17T13:32:59Z</time>
      </trkpt>
      <trkpt lat="43.24039" lon="0.14495">
        <ele>405.4</ele>
        <time>2024-04-17T13:33:00Z</time>
      </trkpt>
      <trkpt lat="43.24039" lon="0.14495">
        <ele>405.6</ele>
        <time>2024-04-17T13:33:01Z</time>
      </trkpt>
      <trkpt lat="43.24039" lon="0.14495">
        <ele>405.6</ele>
        <time>2024-04-17T13:33:02Z</time>
      </trkpt>
      <trkpt lat="43.24039" lon="0.14495">
        <ele>405.6</ele>
        <time>2024-04-17T13:33:03Z</time>
      </trkpt>
      <trkpt lat="43.24039" lon="0.14495">
        <ele>405.6</ele>
        <time>2024-04-17T13:33:04Z</time>
      </trkpt>
      <trkpt lat="43.24039" lon="0.14495">
        <ele>405.6</ele>
        <time>2024-04-17T13:33:05Z</time>
      </trkpt>
      <trkpt lat="43.24039" lon="0.14495">
        <ele>405.6</ele>
        <time>2024-04-17T13:33:06Z</time>
      </trkpt>
      <trkpt lat="43.24039" lon="0.14495">
        <ele>405.6</ele>
        <time>2024-04-17T13:33:07Z</time>
      </trkpt>
      <trkpt lat="43.24039" lon="0.14495">
        <ele>405.6</ele>
        <time>2024-04-17T13:33:08Z</time>
      </trkpt>
      <trkpt lat="43.24039" lon="0.14495">
        <ele>405.6</ele>
        <time>2024-04-17T13:33:09Z</time>
      </trkpt>
      <trkpt lat="43.24039" lon="0.14495">
        <ele>405.6</ele>
        <time>2024-04-17T13:33:10Z</time>
      </trkpt>
      <trkpt lat="43.24039" lon="0.14495">
        <ele>405.6</ele>
        <time>2024-04-17T13:33:11Z</time>
      </trkpt>
      <trkpt lat="43.24039" lon="0.14495">
        <ele>405.6</ele>
        <time>2024-04-17T13:33:12Z</time>
      </trkpt>
      <trkpt lat="43.24039" lon="0.14495">
        <ele>405.4</ele>
        <time>2024-04-17T13:33:13Z</time>
      </trkpt>
      <trkpt lat="43.24039" lon="0.14495">
        <ele>405.4</ele>
        <time>2024-04-17T13:33:14Z</time>
      </trkpt>
      <trkpt lat="43.24039" lon="0.14495">
        <ele>405.4</ele>
        <time>2024-04-17T13:33:15Z</time>
      </trkpt>
      <trkpt lat="43.24039" lon="0.14495">
        <ele>405.4</ele>
        <time>2024-04-17T13:33:16Z</time>
      </trkpt>
      <trkpt lat="43.24039" lon="0.14495">
        <ele>405.4</ele>
        <time>2024-04-17T13:33:17Z</time>
      </trkpt>
      <trkpt lat="43.24039" lon="0.14495">
        <ele>405.4</ele>
        <time>2024-04-17T13:33:18Z</time>
      </trkpt>
      <trkpt lat="43.24039" lon="0.14495">
        <ele>405.4</ele>
        <time>2024-04-17T13:33:19Z</time>
      </trkpt>
      <trkpt lat="43.24039" lon="0.14495">
        <ele>405.2</ele>
        <time>2024-04-17T13:33:20Z</time>
      </trkpt>
      <trkpt lat="43.24039" lon="0.14495">
        <ele>405.4</ele>
        <time>2024-04-17T13:33:21Z</time>
      </trkpt>
      <trkpt lat="43.24039" lon="0.14495">
        <ele>405.4</ele>
        <time>2024-04-17T13:33:22Z</time>
      </trkpt>
      <trkpt lat="43.24039" lon="0.14495">
        <ele>405.4</ele>
        <time>2024-04-17T13:33:23Z</time>
      </trkpt>
      <trkpt lat="43.24039" lon="0.14495">
        <ele>405.4</ele>
        <time>2024-04-17T13:33:24Z</time>
      </trkpt>
      <trkpt lat="43.24039" lon="0.14495">
        <ele>405.4</ele>
        <time>2024-04-17T13:33:25Z</time>
      </trkpt>
      <trkpt lat="43.24039" lon="0.14495">
        <ele>405.4</ele>
        <time>2024-04-17T13:33:26Z</time>
      </trkpt>
      <trkpt lat="43.24039" lon="0.14495">
        <ele>405.4</ele>
        <time>2024-04-17T13:33:27Z</time>
      </trkpt>
      <trkpt lat="43.24039" lon="0.14495">
        <ele>405.4</ele>
        <time>2024-04-17T13:33:28Z</time>
      </trkpt>
      <trkpt lat="43.24039" lon="0.14495">
        <ele>405.4</ele>
        <time>2024-04-17T13:33:29Z</time>
      </trkpt>
      <trkpt lat="43.24039" lon="0.14495">
        <ele>405.4</ele>
        <time>2024-04-17T13:33:30Z</time>
      </trkpt>
      <trkpt lat="43.24039" lon="0.14495">
        <ele>405.4</ele>
        <time>2024-04-17T13:33:31Z</time>
      </trkpt>
      <trkpt lat="43.24039" lon="0.14495">
        <ele>405.4</ele>
        <time>2024-04-17T13:33:32Z</time>
      </trkpt>
      <trkpt lat="43.24039" lon="0.14495">
        <ele>405.4</ele>
        <time>2024-04-17T13:33:33Z</time>
      </trkpt>
      <trkpt lat="43.24039" lon="0.14495">
        <ele>405.4</ele>
        <time>2024-04-17T13:33:34Z</time>
      </trkpt>
      <trkpt lat="43.24039" lon="0.14495">
        <ele>405.4</ele>
        <time>2024-04-17T13:33:35Z</time>
      </trkpt>
      <trkpt lat="43.24039" lon="0.14495">
        <ele>405.4</ele>
        <time>2024-04-17T13:33:36Z</time>
      </trkpt>
      <trkpt lat="43.24039" lon="0.14495">
        <ele>405.4</ele>
        <time>2024-04-17T13:33:37Z</time>
      </trkpt>
      <trkpt lat="43.24039" lon="0.14495">
        <ele>405.4</ele>
        <time>2024-04-17T13:33:38Z</time>
      </trkpt>
      <trkpt lat="43.24039" lon="0.14495">
        <ele>405.4</ele>
        <time>2024-04-17T13:33:39Z</time>
      </trkpt>
      <trkpt lat="43.24039" lon="0.14495">
        <ele>405.4</ele>
        <time>2024-04-17T13:33:40Z</time>
      </trkpt>
      <trkpt lat="43.24039" lon="0.14495">
        <ele>405.4</ele>
        <time>2024-04-17T13:33:41Z</time>
      </trkpt>
      <trkpt lat="43.24039" lon="0.14495">
        <ele>405.4</ele>
        <time>2024-04-17T13:33:42Z</time>
      </trkpt>
      <trkpt lat="43.24039" lon="0.14495">
        <ele>405.4</ele>
        <time>2024-04-17T13:33:43Z</time>
      </trkpt>
      <trkpt lat="43.24039" lon="0.14495">
        <ele>405.4</ele>
        <time>2024-04-17T13:33:44Z</time>
      </trkpt>
      <trkpt lat="43.24039" lon="0.14495">
        <ele>405.4</ele>
        <time>2024-04-17T13:33:45Z</time>
      </trkpt>
      <trkpt lat="43.24039" lon="0.14495">
        <ele>405.4</ele>
        <time>2024-04-17T13:33:46Z</time>
      </trkpt>
      <trkpt lat="43.24039" lon="0.14495">
        <ele>405.4</ele>
        <time>2024-04-17T13:33:47Z</time>
      </trkpt>
      <trkpt lat="43.24039" lon="0.14495">
        <ele>405.4</ele>
        <time>2024-04-17T13:33:48Z</time>
      </trkpt>
      <trkpt lat="43.24039" lon="0.14495">
        <ele>405.4</ele>
        <time>2024-04-17T13:33:49Z</time>
      </trkpt>
      <trkpt lat="43.24039" lon="0.14495">
        <ele>405.4</ele>
        <time>2024-04-17T13:33:50Z</time>
      </trkpt>
      <trkpt lat="43.24039" lon="0.14495">
        <ele>405.4</ele>
        <time>2024-04-17T13:33:51Z</time>
      </trkpt>
      <trkpt lat="43.24039" lon="0.14495">
        <ele>405.4</ele>
        <time>2024-04-17T13:33:52Z</time>
      </trkpt>
      <trkpt lat="43.24039" lon="0.14495">
        <ele>405.4</ele>
        <time>2024-04-17T13:33:53Z</time>
      </trkpt>
      <trkpt lat="43.24039" lon="0.14495">
        <ele>405.4</ele>
        <time>2024-04-17T13:33:54Z</time>
      </trkpt>
      <trkpt lat="43.24039" lon="0.14495">
        <ele>405.4</ele>
        <time>2024-04-17T13:33:55Z</time>
      </trkpt>
      <trkpt lat="43.24039" lon="0.14495">
        <ele>405.4</ele>
        <time>2024-04-17T13:33:56Z</time>
      </trkpt>
      <trkpt lat="43.24039" lon="0.14495">
        <ele>405.4</ele>
        <time>2024-04-17T13:33:57Z</time>
      </trkpt>
      <trkpt lat="43.24039" lon="0.14495">
        <ele>405.4</ele>
        <time>2024-04-17T13:33:58Z</time>
      </trkpt>
      <trkpt lat="43.24039" lon="0.14495">
        <ele>405.4</ele>
        <time>2024-04-17T13:33:59Z</time>
      </trkpt>
      <trkpt lat="43.24039" lon="0.14495">
        <ele>405.4</ele>
        <time>2024-04-17T13:34:00Z</time>
      </trkpt>
      <trkpt lat="43.24039" lon="0.14495">
        <ele>405.4</ele>
        <time>2024-04-17T13:34:01Z</time>
      </trkpt>
      <trkpt lat="43.24039" lon="0.14495">
        <ele>405.2</ele>
        <time>2024-04-17T13:34:02Z</time>
      </trkpt>
      <trkpt lat="43.24039" lon="0.14495">
        <ele>405.4</ele>
        <time>2024-04-17T13:34:03Z</time>
      </trkpt>
      <trkpt lat="43.24039" lon="0.14495">
        <ele>405.4</ele>
        <time>2024-04-17T13:34:04Z</time>
      </trkpt>
      <trkpt lat="43.24039" lon="0.14495">
        <ele>405.4</ele>
        <time>2024-04-17T13:34:05Z</time>
      </trkpt>
      <trkpt lat="43.24039" lon="0.14495">
        <ele>405.4</ele>
        <time>2024-04-17T13:34:06Z</time>
      </trkpt>
      <trkpt lat="43.24039" lon="0.14495">
        <ele>405.4</ele>
        <time>2024-04-17T13:34:07Z</time>
      </trkpt>
      <trkpt lat="43.24039" lon="0.14495">
        <ele>405.4</ele>
        <time>2024-04-17T13:34:08Z</time>
      </trkpt>
      <trkpt lat="43.24039" lon="0.14495">
        <ele>405.4</ele>
        <time>2024-04-17T13:34:09Z</time>
      </trkpt>
      <trkpt lat="43.24039" lon="0.14495">
        <ele>405.4</ele>
        <time>2024-04-17T13:34:10Z</time>
      </trkpt>
      <trkpt lat="43.24039" lon="0.14495">
        <ele>405.4</ele>
        <time>2024-04-17T13:34:11Z</time>
      </trkpt>
      <trkpt lat="43.24039" lon="0.14495">
        <ele>405.4</ele>
        <time>2024-04-17T13:34:12Z</time>
      </trkpt>
      <trkpt lat="43.24039" lon="0.14495">
        <ele>405.4</ele>
        <time>2024-04-17T13:34:13Z</time>
      </trkpt>
      <trkpt lat="43.24039" lon="0.14495">
        <ele>405.4</ele>
        <time>2024-04-17T13:34:14Z</time>
      </trkpt>
      <trkpt lat="43.24039" lon="0.14495">
        <ele>405.4</ele>
        <time>2024-04-17T13:34:15Z</time>
      </trkpt>
      <trkpt lat="43.24039" lon="0.14495">
        <ele>405.4</ele>
        <time>2024-04-17T13:34:16Z</time>
      </trkpt>
      <trkpt lat="43.24039" lon="0.14495">
        <ele>405.4</ele>
        <time>2024-04-17T13:34:17Z</time>
      </trkpt>
      <trkpt lat="43.24039" lon="0.14495">
        <ele>405.4</ele>
        <time>2024-04-17T13:34:18Z</time>
      </trkpt>
      <trkpt lat="43.24039" lon="0.14495">
        <ele>405.4</ele>
        <time>2024-04-17T13:34:19Z</time>
      </trkpt>
      <trkpt lat="43.24039" lon="0.14495">
        <ele>405.4</ele>
        <time>2024-04-17T13:34:20Z</time>
      </trkpt>
      <trkpt lat="43.24039" lon="0.14495">
        <ele>405.4</ele>
        <time>2024-04-17T13:34:21Z</time>
      </trkpt>
      <trkpt lat="43.24039" lon="0.14495">
        <ele>405.2</ele>
        <time>2024-04-17T13:34:22Z</time>
      </trkpt>
      <trkpt lat="43.24039" lon="0.14495">
        <ele>405.2</ele>
        <time>2024-04-17T13:34:23Z</time>
      </trkpt>
      <trkpt lat="43.24039" lon="0.14495">
        <ele>405.2</ele>
        <time>2024-04-17T13:34:24Z</time>
      </trkpt>
      <trkpt lat="43.24039" lon="0.14495">
        <ele>405.2</ele>
        <time>2024-04-17T13:34:25Z</time>
      </trkpt>
      <trkpt lat="43.24039" lon="0.14495">
        <ele>405.2</ele>
        <time>2024-04-17T13:34:26Z</time>
      </trkpt>
      <trkpt lat="43.24039" lon="0.14495">
        <ele>405.2</ele>
        <time>2024-04-17T13:34:27Z</time>
      </trkpt>
      <trkpt lat="43.24039" lon="0.14495">
        <ele>405.2</ele>
        <time>2024-04-17T13:34:28Z</time>
      </trkpt>
      <trkpt lat="43.24039" lon="0.14495">
        <ele>405.2</ele>
        <time>2024-04-17T13:34:29Z</time>
      </trkpt>
      <trkpt lat="43.24039" lon="0.14495">
        <ele>405.2</ele>
        <time>2024-04-17T13:34:30Z</time>
      </trkpt>
      <trkpt lat="43.24039" lon="0.14495">
        <ele>405.2</ele>
        <time>2024-04-17T13:34:31Z</time>
      </trkpt>
      <trkpt lat="43.24039" lon="0.14495">
        <ele>405.2</ele>
        <time>2024-04-17T13:34:32Z</time>
      </trkpt>
      <trkpt lat="43.24039" lon="0.14495">
        <ele>405.2</ele>
        <time>2024-04-17T13:34:33Z</time>
      </trkpt>
      <trkpt lat="43.24039" lon="0.14495">
        <ele>405.2</ele>
        <time>2024-04-17T13:34:34Z</time>
      </trkpt>
      <trkpt lat="43.24039" lon="0.14495">
        <ele>405.2</ele>
        <time>2024-04-17T13:34:35Z</time>
      </trkpt>
      <trkpt lat="43.24039" lon="0.14495">
        <ele>405.4</ele>
        <time>2024-04-17T13:34:36Z</time>
      </trkpt>
      <trkpt lat="43.2404" lon="0.14497">
        <ele>405.4</ele>
        <time>2024-04-17T13:34:37Z</time>
      </trkpt>
      <trkpt lat="43.2404" lon="0.14499">
        <ele>405.4</ele>
        <time>2024-04-17T13:34:38Z</time>
      </trkpt>
      <trkpt lat="43.24041" lon="0.14501">
        <ele>405.4</ele>
        <time>2024-04-17T13:34:39Z</time>
      </trkpt>
      <trkpt lat="43.24042" lon="0.14502">
        <ele>405.4</ele>
        <time>2024-04-17T13:34:40Z</time>
      </trkpt>
      <trkpt lat="43.24042" lon="0.14504">
        <ele>405.6</ele>
        <time>2024-04-17T13:34:41Z</time>
      </trkpt>
      <trkpt lat="43.24043" lon="0.14506">
        <ele>405.6</ele>
        <time>2024-04-17T13:34:42Z</time>
      </trkpt>
      <trkpt lat="43.24043" lon="0.14508">
        <ele>405.8</ele>
        <time>2024-04-17T13:34:43Z</time>
      </trkpt>
      <trkpt lat="43.24043" lon="0.14509">
        <ele>405.8</ele>
        <time>2024-04-17T13:34:44Z</time>
      </trkpt>
      <trkpt lat="43.24045" lon="0.14514">
        <ele>406</ele>
        <time>2024-04-17T13:34:45Z</time>
      </trkpt>
      <trkpt lat="43.24045" lon="0.14514">
        <ele>406</ele>
        <time>2024-04-17T13:34:46Z</time>
      </trkpt>
      <trkpt lat="43.24046" lon="0.14517">
        <ele>406.2</ele>
        <time>2024-04-17T13:34:47Z</time>
      </trkpt>
      <trkpt lat="43.24046" lon="0.14519">
        <ele>406.4</ele>
        <time>2024-04-17T13:34:48Z</time>
      </trkpt>
      <trkpt lat="43.24047" lon="0.14521">
        <ele>406.4</ele>
        <time>2024-04-17T13:34:49Z</time>
      </trkpt>
      <trkpt lat="43.24047" lon="0.14523">
        <ele>406.4</ele>
        <time>2024-04-17T13:34:50Z</time>
      </trkpt>
      <trkpt lat="43.24047" lon="0.14526">
        <ele>406.4</ele>
        <time>2024-04-17T13:34:51Z</time>
      </trkpt>
      <trkpt lat="43.24048" lon="0.14528">
        <ele>406.6</ele>
        <time>2024-04-17T13:34:52Z</time>
      </trkpt>
      <trkpt lat="43.24048" lon="0.1453">
        <ele>406.6</ele>
        <time>2024-04-17T13:34:53Z</time>
      </trkpt>
      <trkpt lat="43.24049" lon="0.14532">
        <ele>406.8</ele>
        <time>2024-04-17T13:34:54Z</time>
      </trkpt>
      <trkpt lat="43.2405" lon="0.14534">
        <ele>406.8</ele>
        <time>2024-04-17T13:34:55Z</time>
      </trkpt>
      <trkpt lat="43.2405" lon="0.14537">
        <ele>407</ele>
        <time>2024-04-17T13:34:56Z</time>
      </trkpt>
      <trkpt lat="43.2405" lon="0.14539">
        <ele>407.2</ele>
        <time>2024-04-17T13:34:57Z</time>
      </trkpt>
      <trkpt lat="43.24051" lon="0.14541">
        <ele>407.2</ele>
        <time>2024-04-17T13:34:58Z</time>
      </trkpt>
      <trkpt lat="43.24051" lon="0.14543">
        <ele>407.4</ele>
        <time>2024-04-17T13:34:59Z</time>
      </trkpt>
      <trkpt lat="43.24051" lon="0.14545">
        <ele>407.4</ele>
        <time>2024-04-17T13:35:00Z</time>
      </trkpt>
      <trkpt lat="43.24051" lon="0.14547">
        <ele>407.6</ele>
        <time>2024-04-17T13:35:01Z</time>
      </trkpt>
      <trkpt lat="43.24052" lon="0.14549">
        <ele>407.6</ele>
        <time>2024-04-17T13:35:02Z</time>
      </trkpt>
      <trkpt lat="43.24052" lon="0.14551">
        <ele>407.8</ele>
        <time>2024-04-17T13:35:03Z</time>
      </trkpt>
      <trkpt lat="43.24052" lon="0.14557">
        <ele>408</ele>
        <time>2024-04-17T13:35:04Z</time>
      </trkpt>
      <trkpt lat="43.2405" lon="0.14557">
        <ele>408</ele>
        <time>2024-04-17T13:35:05Z</time>
      </trkpt>
      <trkpt lat="43.2405" lon="0.14559">
        <ele>408.2</ele>
        <time>2024-04-17T13:35:06Z</time>
      </trkpt>
      <trkpt lat="43.2405" lon="0.14559">
        <ele>408.4</ele>
        <time>2024-04-17T13:35:07Z</time>
      </trkpt>
      <trkpt lat="43.2405" lon="0.14561">
        <ele>408.4</ele>
        <time>2024-04-17T13:35:08Z</time>
      </trkpt>
      <trkpt lat="43.24051" lon="0.14565">
        <ele>408.6</ele>
        <time>2024-04-17T13:35:09Z</time>
      </trkpt>
      <trkpt lat="43.24051" lon="0.14566">
        <ele>408.8</ele>
        <time>2024-04-17T13:35:10Z</time>
      </trkpt>
      <trkpt lat="43.2405" lon="0.14568">
        <ele>408.8</ele>
        <time>2024-04-17T13:35:11Z</time>
      </trkpt>
      <trkpt lat="43.24051" lon="0.14571">
        <ele>409</ele>
        <time>2024-04-17T13:35:12Z</time>
      </trkpt>
      <trkpt lat="43.24051" lon="0.14572">
        <ele>409.2</ele>
        <time>2024-04-17T13:35:13Z</time>
      </trkpt>
      <trkpt lat="43.24051" lon="0.14572">
        <ele>409.2</ele>
        <time>2024-04-17T13:35:14Z</time>
      </trkpt>
      <trkpt lat="43.24051" lon="0.14576">
        <ele>409.4</ele>
        <time>2024-04-17T13:35:15Z</time>
      </trkpt>
      <trkpt lat="43.24051" lon="0.14578">
        <ele>409.4</ele>
        <time>2024-04-17T13:35:16Z</time>
      </trkpt>
      <trkpt lat="43.2405" lon="0.14579">
        <ele>409.6</ele>
        <time>2024-04-17T13:35:17Z</time>
      </trkpt>
      <trkpt lat="43.2405" lon="0.14579">
        <ele>409.6</ele>
        <time>2024-04-17T13:35:18Z</time>
      </trkpt>
      <trkpt lat="43.2405" lon="0.1458">
        <ele>409.8</ele>
        <time>2024-04-17T13:35:19Z</time>
      </trkpt>
      <trkpt lat="43.24049" lon="0.14581">
        <ele>409.8</ele>
        <time>2024-04-17T13:35:20Z</time>
      </trkpt>
      <trkpt lat="43.24049" lon="0.14582">
        <ele>410</ele>
        <time>2024-04-17T13:35:21Z</time>
      </trkpt>
      <trkpt lat="43.24047" lon="0.14582">
        <ele>410.2</ele>
        <time>2024-04-17T13:35:22Z</time>
      </trkpt>
      <trkpt lat="43.24046" lon="0.14586">
        <ele>410.2</ele>
        <time>2024-04-17T13:35:23Z</time>
      </trkpt>
      <trkpt lat="43.24046" lon="0.14589">
        <ele>410.4</ele>
        <time>2024-04-17T13:35:24Z</time>
      </trkpt>
      <trkpt lat="43.24045" lon="0.1459">
        <ele>410.6</ele>
        <time>2024-04-17T13:35:25Z</time>
      </trkpt>
      <trkpt lat="43.24045" lon="0.14592">
        <ele>410.8</ele>
        <time>2024-04-17T13:35:26Z</time>
      </trkpt>
      <trkpt lat="43.24044" lon="0.14594">
        <ele>410.8</ele>
        <time>2024-04-17T13:35:27Z</time>
      </trkpt>
      <trkpt lat="43.24044" lon="0.14594">
        <ele>411.2</ele>
        <time>2024-04-17T13:35:28Z</time>
      </trkpt>
      <trkpt lat="43.24043" lon="0.14598">
        <ele>411.2</ele>
        <time>2024-04-17T13:35:29Z</time>
      </trkpt>
      <trkpt lat="43.24043" lon="0.14598">
        <ele>411.4</ele>
        <time>2024-04-17T13:35:30Z</time>
      </trkpt>
      <trkpt lat="43.24041" lon="0.14603">
        <ele>411.6</ele>
        <time>2024-04-17T13:35:31Z</time>
      </trkpt>
      <trkpt lat="43.24041" lon="0.14605">
        <ele>411.6</ele>
        <time>2024-04-17T13:35:32Z</time>
      </trkpt>
      <trkpt lat="43.2404" lon="0.14607">
        <ele>411.8</ele>
        <time>2024-04-17T13:35:33Z</time>
      </trkpt>
      <trkpt lat="43.24039" lon="0.14608">
        <ele>412</ele>
        <time>2024-04-17T13:35:34Z</time>
      </trkpt>
      <trkpt lat="43.24038" lon="0.1461">
        <ele>412</ele>
        <time>2024-04-17T13:35:35Z</time>
      </trkpt>
      <trkpt lat="43.24038" lon="0.14612">
        <ele>412</ele>
        <time>2024-04-17T13:35:36Z</time>
      </trkpt>
      <trkpt lat="43.24037" lon="0.14614">
        <ele>412.2</ele>
        <time>2024-04-17T13:35:37Z</time>
      </trkpt>
      <trkpt lat="43.24037" lon="0.14615">
        <ele>412.4</ele>
        <time>2024-04-17T13:35:38Z</time>
      </trkpt>
      <trkpt lat="43.24036" lon="0.14617">
        <ele>412.4</ele>
        <time>2024-04-17T13:35:39Z</time>
      </trkpt>
      <trkpt lat="43.24035" lon="0.14619">
        <ele>412.6</ele>
        <time>2024-04-17T13:35:40Z</time>
      </trkpt>
      <trkpt lat="43.24035" lon="0.1462">
        <ele>412.6</ele>
        <time>2024-04-17T13:35:41Z</time>
      </trkpt>
      <trkpt lat="43.24035" lon="0.14622">
        <ele>412.6</ele>
        <time>2024-04-17T13:35:42Z</time>
      </trkpt>
      <trkpt lat="43.24035" lon="0.14623">
        <ele>412.6</ele>
        <time>2024-04-17T13:35:43Z</time>
      </trkpt>
      <trkpt lat="43.24034" lon="0.14625">
        <ele>412.8</ele>
        <time>2024-04-17T13:35:44Z</time>
      </trkpt>
      <trkpt lat="43.24034" lon="0.14626">
        <ele>413</ele>
        <time>2024-04-17T13:35:45Z</time>
      </trkpt>
      <trkpt lat="43.24033" lon="0.14628">
        <ele>413</ele>
        <time>2024-04-17T13:35:46Z</time>
      </trkpt>
      <trkpt lat="43.24033" lon="0.14629">
        <ele>413.2</ele>
        <time>2024-04-17T13:35:47Z</time>
      </trkpt>
      <trkpt lat="43.24033" lon="0.14629">
        <ele>413.2</ele>
        <time>2024-04-17T13:35:48Z</time>
      </trkpt>
      <trkpt lat="43.24033" lon="0.14634">
        <ele>413.4</ele>
        <time>2024-04-17T13:35:49Z</time>
      </trkpt>
      <trkpt lat="43.24033" lon="0.14637">
        <ele>413.6</ele>
        <time>2024-04-17T13:35:50Z</time>
      </trkpt>
      <trkpt lat="43.24033" lon="0.1464">
        <ele>413.8</ele>
        <time>2024-04-17T13:35:51Z</time>
      </trkpt>
      <trkpt lat="43.24033" lon="0.14644">
        <ele>413.8</ele>
        <time>2024-04-17T13:35:52Z</time>
      </trkpt>
      <trkpt lat="43.24033" lon="0.14646">
        <ele>414.2</ele>
        <time>2024-04-17T13:35:53Z</time>
      </trkpt>
      <trkpt lat="43.24033" lon="0.14648">
        <ele>414.2</ele>
        <time>2024-04-17T13:35:54Z</time>
      </trkpt>
      <trkpt lat="43.24033" lon="0.1465">
        <ele>414.4</ele>
        <time>2024-04-17T13:35:55Z</time>
      </trkpt>
      <trkpt lat="43.24033" lon="0.14652">
        <ele>414.6</ele>
        <time>2024-04-17T13:35:56Z</time>
      </trkpt>
      <trkpt lat="43.24033" lon="0.14653">
        <ele>414.6</ele>
        <time>2024-04-17T13:35:57Z</time>
      </trkpt>
      <trkpt lat="43.24033" lon="0.14655">
        <ele>414.8</ele>
        <time>2024-04-17T13:35:58Z</time>
      </trkpt>
      <trkpt lat="43.24033" lon="0.14658">
        <ele>414.8</ele>
        <time>2024-04-17T13:35:59Z</time>
      </trkpt>
      <trkpt lat="43.24033" lon="0.14658">
        <ele>415</ele>
        <time>2024-04-17T13:36:00Z</time>
      </trkpt>
      <trkpt lat="43.24032" lon="0.14662">
        <ele>415</ele>
        <time>2024-04-17T13:36:01Z</time>
      </trkpt>
      <trkpt lat="43.24032" lon="0.14664">
        <ele>415.2</ele>
        <time>2024-04-17T13:36:02Z</time>
      </trkpt>
      <trkpt lat="43.24032" lon="0.14666">
        <ele>415.4</ele>
        <time>2024-04-17T13:36:03Z</time>
      </trkpt>
      <trkpt lat="43.24031" lon="0.14668">
        <ele>415.4</ele>
        <time>2024-04-17T13:36:04Z</time>
      </trkpt>
      <trkpt lat="43.24031" lon="0.1467">
        <ele>415.6</ele>
        <time>2024-04-17T13:36:05Z</time>
      </trkpt>
      <trkpt lat="43.24031" lon="0.14671">
        <ele>415.8</ele>
        <time>2024-04-17T13:36:06Z</time>
      </trkpt>
      <trkpt lat="43.24031" lon="0.14674">
        <ele>415.8</ele>
        <time>2024-04-17T13:36:07Z</time>
      </trkpt>
      <trkpt lat="43.2403" lon="0.14676">
        <ele>416</ele>
        <time>2024-04-17T13:36:08Z</time>
      </trkpt>
      <trkpt lat="43.24029" lon="0.14676">
        <ele>416</ele>
        <time>2024-04-17T13:36:09Z</time>
      </trkpt>
      <trkpt lat="43.24029" lon="0.14678">
        <ele>416.2</ele>
        <time>2024-04-17T13:36:10Z</time>
      </trkpt>
      <trkpt lat="43.24029" lon="0.1468">
        <ele>416.2</ele>
        <time>2024-04-17T13:36:11Z</time>
      </trkpt>
      <trkpt lat="43.24028" lon="0.14683">
        <ele>416.4</ele>
        <time>2024-04-17T13:36:12Z</time>
      </trkpt>
      <trkpt lat="43.24028" lon="0.14687">
        <ele>416.6</ele>
        <time>2024-04-17T13:36:13Z</time>
      </trkpt>
      <trkpt lat="43.24029" lon="0.14691">
        <ele>416.8</ele>
        <time>2024-04-17T13:36:14Z</time>
      </trkpt>
      <trkpt lat="43.24028" lon="0.14694">
        <ele>416.8</ele>
        <time>2024-04-17T13:36:15Z</time>
      </trkpt>
      <trkpt lat="43.24027" lon="0.14698">
        <ele>417.2</ele>
        <time>2024-04-17T13:36:16Z</time>
      </trkpt>
      <trkpt lat="43.24027" lon="0.147">
        <ele>417.2</ele>
        <time>2024-04-17T13:36:17Z</time>
      </trkpt>
      <trkpt lat="43.24027" lon="0.14702">
        <ele>417.4</ele>
        <time>2024-04-17T13:36:18Z</time>
      </trkpt>
      <trkpt lat="43.24027" lon="0.14705">
        <ele>417.6</ele>
        <time>2024-04-17T13:36:19Z</time>
      </trkpt>
      <trkpt lat="43.24027" lon="0.14707">
        <ele>417.6</ele>
        <time>2024-04-17T13:36:20Z</time>
      </trkpt>
      <trkpt lat="43.24026" lon="0.14712">
        <ele>417.8</ele>
        <time>2024-04-17T13:36:21Z</time>
      </trkpt>
      <trkpt lat="43.24026" lon="0.14717">
        <ele>417.8</ele>
        <time>2024-04-17T13:36:22Z</time>
      </trkpt>
      <trkpt lat="43.24026" lon="0.1472">
        <ele>418</ele>
        <time>2024-04-17T13:36:23Z</time>
      </trkpt>
      <trkpt lat="43.24025" lon="0.14723">
        <ele>418</ele>
        <time>2024-04-17T13:36:24Z</time>
      </trkpt>
      <trkpt lat="43.24024" lon="0.14728">
        <ele>418.2</ele>
        <time>2024-04-17T13:36:25Z</time>
      </trkpt>
      <trkpt lat="43.24024" lon="0.1473">
        <ele>418.2</ele>
        <time>2024-04-17T13:36:26Z</time>
      </trkpt>
      <trkpt lat="43.24024" lon="0.14733">
        <ele>418.2</ele>
        <time>2024-04-17T13:36:27Z</time>
      </trkpt>
      <trkpt lat="43.24023" lon="0.14735">
        <ele>418.4</ele>
        <time>2024-04-17T13:36:28Z</time>
      </trkpt>
      <trkpt lat="43.24023" lon="0.14738">
        <ele>418.4</ele>
        <time>2024-04-17T13:36:29Z</time>
      </trkpt>
      <trkpt lat="43.24022" lon="0.14741">
        <ele>418.6</ele>
        <time>2024-04-17T13:36:30Z</time>
      </trkpt>
      <trkpt lat="43.24022" lon="0.14745">
        <ele>418.6</ele>
        <time>2024-04-17T13:36:31Z</time>
      </trkpt>
      <trkpt lat="43.24023" lon="0.14747">
        <ele>418.6</ele>
        <time>2024-04-17T13:36:32Z</time>
      </trkpt>
      <trkpt lat="43.24023" lon="0.14751">
        <ele>418.8</ele>
        <time>2024-04-17T13:36:33Z</time>
      </trkpt>
      <trkpt lat="43.24023" lon="0.14755">
        <ele>419</ele>
        <time>2024-04-17T13:36:34Z</time>
      </trkpt>
      <trkpt lat="43.24024" lon="0.14759">
        <ele>419.2</ele>
        <time>2024-04-17T13:36:35Z</time>
      </trkpt>
      <trkpt lat="43.24025" lon="0.14763">
        <ele>419.4</ele>
        <time>2024-04-17T13:36:36Z</time>
      </trkpt>
      <trkpt lat="43.24027" lon="0.14769">
        <ele>419.6</ele>
        <time>2024-04-17T13:36:37Z</time>
      </trkpt>
      <trkpt lat="43.24028" lon="0.14773">
        <ele>419.8</ele>
        <time>2024-04-17T13:36:38Z</time>
      </trkpt>
      <trkpt lat="43.24028" lon="0.14777">
        <ele>419.8</ele>
        <time>2024-04-17T13:36:39Z</time>
      </trkpt>
      <trkpt lat="43.24028" lon="0.14782">
        <ele>419.8</ele>
        <time>2024-04-17T13:36:40Z</time>
      </trkpt>
      <trkpt lat="43.24028" lon="0.14787">
        <ele>420</ele>
        <time>2024-04-17T13:36:41Z</time>
      </trkpt>
      <trkpt lat="43.24027" lon="0.14792">
        <ele>420</ele>
        <time>2024-04-17T13:36:42Z</time>
      </trkpt>
      <trkpt lat="43.24029" lon="0.14797">
        <ele>420</ele>
        <time>2024-04-17T13:36:43Z</time>
      </trkpt>
      <trkpt lat="43.24031" lon="0.14802">
        <ele>420</ele>
        <time>2024-04-17T13:36:44Z</time>
      </trkpt>
      <trkpt lat="43.24032" lon="0.14807">
        <ele>420.2</ele>
        <time>2024-04-17T13:36:45Z</time>
      </trkpt>
      <trkpt lat="43.24034" lon="0.14812">
        <ele>420.2</ele>
        <time>2024-04-17T13:36:46Z</time>
      </trkpt>
      <trkpt lat="43.24034" lon="0.14815">
        <ele>420.2</ele>
        <time>2024-04-17T13:36:47Z</time>
      </trkpt>
      <trkpt lat="43.24035" lon="0.14818">
        <ele>420.2</ele>
        <time>2024-04-17T13:36:48Z</time>
      </trkpt>
      <trkpt lat="43.24036" lon="0.14821">
        <ele>420.2</ele>
        <time>2024-04-17T13:36:49Z</time>
      </trkpt>
      <trkpt lat="43.24037" lon="0.14824">
        <ele>420.2</ele>
        <time>2024-04-17T13:36:50Z</time>
      </trkpt>
      <trkpt lat="43.24037" lon="0.14827">
        <ele>420.2</ele>
        <time>2024-04-17T13:36:51Z</time>
      </trkpt>
      <trkpt lat="43.24038" lon="0.14831">
        <ele>420.2</ele>
        <time>2024-04-17T13:36:52Z</time>
      </trkpt>
      <trkpt lat="43.2404" lon="0.14835">
        <ele>420.4</ele>
        <time>2024-04-17T13:36:53Z</time>
      </trkpt>
      <trkpt lat="43.24042" lon="0.14839">
        <ele>420.4</ele>
        <time>2024-04-17T13:36:54Z</time>
      </trkpt>
      <trkpt lat="43.24043" lon="0.14843">
        <ele>420.4</ele>
        <time>2024-04-17T13:36:55Z</time>
      </trkpt>
      <trkpt lat="43.24045" lon="0.14846">
        <ele>420.6</ele>
        <time>2024-04-17T13:36:56Z</time>
      </trkpt>
      <trkpt lat="43.24046" lon="0.1485">
        <ele>420.6</ele>
        <time>2024-04-17T13:36:57Z</time>
      </trkpt>
      <trkpt lat="43.24049" lon="0.14854">
        <ele>420.6</ele>
        <time>2024-04-17T13:36:58Z</time>
      </trkpt>
      <trkpt lat="43.24051" lon="0.14858">
        <ele>420.8</ele>
        <time>2024-04-17T13:36:59Z</time>
      </trkpt>
      <trkpt lat="43.24054" lon="0.14862">
        <ele>420.6</ele>
        <time>2024-04-17T13:37:00Z</time>
      </trkpt>
      <trkpt lat="43.24056" lon="0.14865">
        <ele>420.6</ele>
        <time>2024-04-17T13:37:01Z</time>
      </trkpt>
      <trkpt lat="43.24059" lon="0.14868">
        <ele>420.8</ele>
        <time>2024-04-17T13:37:02Z</time>
      </trkpt>
      <trkpt lat="43.24061" lon="0.14872">
        <ele>420.8</ele>
        <time>2024-04-17T13:37:03Z</time>
      </trkpt>
      <trkpt lat="43.24063" lon="0.14874">
        <ele>420.8</ele>
        <time>2024-04-17T13:37:04Z</time>
      </trkpt>
      <trkpt lat="43.24065" lon="0.14875">
        <ele>420.8</ele>
        <time>2024-04-17T13:37:05Z</time>
      </trkpt>
      <trkpt lat="43.24066" lon="0.14877">
        <ele>420.8</ele>
        <time>2024-04-17T13:37:06Z</time>
      </trkpt>
      <trkpt lat="43.24067" lon="0.14878">
        <ele>421</ele>
        <time>2024-04-17T13:37:07Z</time>
      </trkpt>
      <trkpt lat="43.24067" lon="0.14878">
        <ele>421</ele>
        <time>2024-04-17T13:37:08Z</time>
      </trkpt>
      <trkpt lat="43.24067" lon="0.14879">
        <ele>421</ele>
        <time>2024-04-17T13:37:09Z</time>
      </trkpt>
      <trkpt lat="43.24067" lon="0.14879">
        <ele>421</ele>
        <time>2024-04-17T13:37:10Z</time>
      </trkpt>
      <trkpt lat="43.24067" lon="0.14879">
        <ele>421</ele>
        <time>2024-04-17T13:37:11Z</time>
      </trkpt>
      <trkpt lat="43.24067" lon="0.14879">
        <ele>421</ele>
        <time>2024-04-17T13:37:12Z</time>
      </trkpt>
      <trkpt lat="43.24067" lon="0.14879">
        <ele>421</ele>
        <time>2024-04-17T13:37:13Z</time>
      </trkpt>
      <trkpt lat="43.24067" lon="0.14879">
        <ele>421</ele>
        <time>2024-04-17T13:37:14Z</time>
      </trkpt>
      <trkpt lat="43.24067" lon="0.14879">
        <ele>421</ele>
        <time>2024-04-17T13:37:15Z</time>
      </trkpt>
      <trkpt lat="43.24067" lon="0.1488">
        <ele>421</ele>
        <time>2024-04-17T13:37:16Z</time>
      </trkpt>
      <trkpt lat="43.24067" lon="0.1488">
        <ele>421.2</ele>
        <time>2024-04-17T13:37:17Z</time>
      </trkpt>
      <trkpt lat="43.24066" lon="0.14881">
        <ele>421.2</ele>
        <time>2024-04-17T13:37:18Z</time>
      </trkpt>
      <trkpt lat="43.24066" lon="0.14881">
        <ele>421.2</ele>
        <time>2024-04-17T13:37:19Z</time>
      </trkpt>
      <trkpt lat="43.24066" lon="0.14881">
        <ele>421.2</ele>
        <time>2024-04-17T13:37:20Z</time>
      </trkpt>
      <trkpt lat="43.24066" lon="0.14881">
        <ele>421.2</ele>
        <time>2024-04-17T13:37:21Z</time>
      </trkpt>
      <trkpt lat="43.24066" lon="0.14881">
        <ele>421.2</ele>
        <time>2024-04-17T13:37:22Z</time>
      </trkpt>
      <trkpt lat="43.24066" lon="0.14881">
        <ele>421.2</ele>
        <time>2024-04-17T13:37:23Z</time>
      </trkpt>
      <trkpt lat="43.24066" lon="0.14881">
        <ele>421.2</ele>
        <time>2024-04-17T13:37:24Z</time>
      </trkpt>
      <trkpt lat="43.24066" lon="0.14881">
        <ele>421.2</ele>
        <time>2024-04-17T13:37:25Z</time>
      </trkpt>
      <trkpt lat="43.24066" lon="0.14881">
        <ele>421.2</ele>
        <time>2024-04-17T13:37:26Z</time>
      </trkpt>
      <trkpt lat="43.24066" lon="0.14881">
        <ele>421.4</ele>
        <time>2024-04-17T13:37:27Z</time>
      </trkpt>
      <trkpt lat="43.24066" lon="0.14881">
        <ele>421.4</ele>
        <time>2024-04-17T13:37:28Z</time>
      </trkpt>
      <trkpt lat="43.24066" lon="0.14881">
        <ele>421.4</ele>
        <time>2024-04-17T13:37:29Z</time>
      </trkpt>
      <trkpt lat="43.24066" lon="0.14881">
        <ele>421.6</ele>
        <time>2024-04-17T13:37:30Z</time>
      </trkpt>
      <trkpt lat="43.24066" lon="0.14882">
        <ele>421.6</ele>
        <time>2024-04-17T13:37:31Z</time>
      </trkpt>
      <trkpt lat="43.24066" lon="0.14882">
        <ele>421.8</ele>
        <time>2024-04-17T13:37:32Z</time>
      </trkpt>
      <trkpt lat="43.24066" lon="0.14882">
        <ele>421.8</ele>
        <time>2024-04-17T13:37:33Z</time>
      </trkpt>
      <trkpt lat="43.24066" lon="0.14882">
        <ele>422</ele>
        <time>2024-04-17T13:37:34Z</time>
      </trkpt>
      <trkpt lat="43.24066" lon="0.14882">
        <ele>422</ele>
        <time>2024-04-17T13:37:35Z</time>
      </trkpt>
      <trkpt lat="43.24066" lon="0.14882">
        <ele>422.2</ele>
        <time>2024-04-17T13:37:36Z</time>
      </trkpt>
      <trkpt lat="43.24066" lon="0.14882">
        <ele>422.2</ele>
        <time>2024-04-17T13:37:37Z</time>
      </trkpt>
      <trkpt lat="43.24066" lon="0.14882">
        <ele>422.4</ele>
        <time>2024-04-17T13:37:38Z</time>
      </trkpt>
      <trkpt lat="43.24066" lon="0.14882">
        <ele>422.4</ele>
        <time>2024-04-17T13:37:39Z</time>
      </trkpt>
      <trkpt lat="43.24066" lon="0.14883">
        <ele>422.4</ele>
        <time>2024-04-17T13:37:40Z</time>
      </trkpt>
      <trkpt lat="43.24064" lon="0.14883">
        <ele>422.4</ele>
        <time>2024-04-17T13:37:41Z</time>
      </trkpt>
      <trkpt lat="43.24063" lon="0.14883">
        <ele>422.6</ele>
        <time>2024-04-17T13:37:42Z</time>
      </trkpt>
      <trkpt lat="43.24061" lon="0.14883">
        <ele>422.6</ele>
        <time>2024-04-17T13:37:43Z</time>
      </trkpt>
      <trkpt lat="43.24059" lon="0.14883">
        <ele>422.6</ele>
        <time>2024-04-17T13:37:44Z</time>
      </trkpt>
      <trkpt lat="43.24057" lon="0.14883">
        <ele>422.6</ele>
        <time>2024-04-17T13:37:45Z</time>
      </trkpt>
      <trkpt lat="43.24056" lon="0.14884">
        <ele>422.6</ele>
        <time>2024-04-17T13:37:46Z</time>
      </trkpt>
      <trkpt lat="43.24053" lon="0.14884">
        <ele>422.8</ele>
        <time>2024-04-17T13:37:47Z</time>
      </trkpt>
      <trkpt lat="43.24051" lon="0.14884">
        <ele>422.8</ele>
        <time>2024-04-17T13:37:48Z</time>
      </trkpt>
      <trkpt lat="43.24049" lon="0.14884">
        <ele>422.8</ele>
        <time>2024-04-17T13:37:49Z</time>
      </trkpt>
      <trkpt lat="43.24046" lon="0.14883">
        <ele>423</ele>
        <time>2024-04-17T13:37:50Z</time>
      </trkpt>
      <trkpt lat="43.24045" lon="0.14883">
        <ele>423.2</ele>
        <time>2024-04-17T13:37:51Z</time>
      </trkpt>
      <trkpt lat="43.24043" lon="0.14882">
        <ele>423.2</ele>
        <time>2024-04-17T13:37:52Z</time>
      </trkpt>
      <trkpt lat="43.24042" lon="0.14882">
        <ele>423.4</ele>
        <time>2024-04-17T13:37:53Z</time>
      </trkpt>
      <trkpt lat="43.24041" lon="0.14882">
        <ele>423.6</ele>
        <time>2024-04-17T13:37:54Z</time>
      </trkpt>
      <trkpt lat="43.2404" lon="0.14882">
        <ele>423.6</ele>
        <time>2024-04-17T13:37:55Z</time>
      </trkpt>
      <trkpt lat="43.24038" lon="0.14882">
        <ele>423.8</ele>
        <time>2024-04-17T13:37:56Z</time>
      </trkpt>
      <trkpt lat="43.24037" lon="0.14882">
        <ele>423.8</ele>
        <time>2024-04-17T13:37:57Z</time>
      </trkpt>
      <trkpt lat="43.24035" lon="0.14882">
        <ele>424</ele>
        <time>2024-04-17T13:37:58Z</time>
      </trkpt>
      <trkpt lat="43.24032" lon="0.14883">
        <ele>424.2</ele>
        <time>2024-04-17T13:37:59Z</time>
      </trkpt>
      <trkpt lat="43.2403" lon="0.14883">
        <ele>424.2</ele>
        <time>2024-04-17T13:38:00Z</time>
      </trkpt>
      <trkpt lat="43.24027" lon="0.14882">
        <ele>424.4</ele>
        <time>2024-04-17T13:38:01Z</time>
      </trkpt>
      <trkpt lat="43.24025" lon="0.14881">
        <ele>424.4</ele>
        <time>2024-04-17T13:38:02Z</time>
      </trkpt>
      <trkpt lat="43.24024" lon="0.14882">
        <ele>424.6</ele>
        <time>2024-04-17T13:38:03Z</time>
      </trkpt>
      <trkpt lat="43.24022" lon="0.14884">
        <ele>424.8</ele>
        <time>2024-04-17T13:38:04Z</time>
      </trkpt>
      <trkpt lat="43.2402" lon="0.14885">
        <ele>424.8</ele>
        <time>2024-04-17T13:38:05Z</time>
      </trkpt>
      <trkpt lat="43.24019" lon="0.14885">
        <ele>425</ele>
        <time>2024-04-17T13:38:06Z</time>
      </trkpt>
      <trkpt lat="43.24017" lon="0.14885">
        <ele>425</ele>
        <time>2024-04-17T13:38:07Z</time>
      </trkpt>
      <trkpt lat="43.24015" lon="0.14886">
        <ele>425.4</ele>
        <time>2024-04-17T13:38:08Z</time>
      </trkpt>
      <trkpt lat="43.24013" lon="0.14888">
        <ele>425.6</ele>
        <time>2024-04-17T13:38:09Z</time>
      </trkpt>
      <trkpt lat="43.24012" lon="0.1489">
        <ele>425.8</ele>
        <time>2024-04-17T13:38:10Z</time>
      </trkpt>
      <trkpt lat="43.2401" lon="0.14892">
        <ele>426</ele>
        <time>2024-04-17T13:38:11Z</time>
      </trkpt>
      <trkpt lat="43.24008" lon="0.14894">
        <ele>426</ele>
        <time>2024-04-17T13:38:12Z</time>
      </trkpt>
      <trkpt lat="43.24008" lon="0.14895">
        <ele>426.2</ele>
        <time>2024-04-17T13:38:13Z</time>
      </trkpt>
      <trkpt lat="43.24006" lon="0.14896">
        <ele>426.2</ele>
        <time>2024-04-17T13:38:14Z</time>
      </trkpt>
      <trkpt lat="43.24005" lon="0.14897">
        <ele>426.4</ele>
        <time>2024-04-17T13:38:15Z</time>
      </trkpt>
      <trkpt lat="43.24003" lon="0.14898">
        <ele>426.2</ele>
        <time>2024-04-17T13:38:16Z</time>
      </trkpt>
      <trkpt lat="43.24001" lon="0.14899">
        <ele>426.2</ele>
        <time>2024-04-17T13:38:17Z</time>
      </trkpt>
      <trkpt lat="43.23999" lon="0.149">
        <ele>426.2</ele>
        <time>2024-04-17T13:38:18Z</time>
      </trkpt>
      <trkpt lat="43.23996" lon="0.14901">
        <ele>426.2</ele>
        <time>2024-04-17T13:38:19Z</time>
      </trkpt>
      <trkpt lat="43.23994" lon="0.14902">
        <ele>426</ele>
        <time>2024-04-17T13:38:20Z</time>
      </trkpt>
      <trkpt lat="43.23991" lon="0.14903">
        <ele>426</ele>
        <time>2024-04-17T13:38:21Z</time>
      </trkpt>
      <trkpt lat="43.23989" lon="0.14904">
        <ele>425.8</ele>
        <time>2024-04-17T13:38:22Z</time>
      </trkpt>
      <trkpt lat="43.23986" lon="0.14905">
        <ele>425.8</ele>
        <time>2024-04-17T13:38:23Z</time>
      </trkpt>
      <trkpt lat="43.23984" lon="0.14907">
        <ele>425.6</ele>
        <time>2024-04-17T13:38:24Z</time>
      </trkpt>
      <trkpt lat="43.23981" lon="0.14908">
        <ele>425.6</ele>
        <time>2024-04-17T13:38:25Z</time>
      </trkpt>
      <trkpt lat="43.23978" lon="0.1491">
        <ele>425.4</ele>
        <time>2024-04-17T13:38:26Z</time>
      </trkpt>
      <trkpt lat="43.23975" lon="0.1491">
        <ele>425.4</ele>
        <time>2024-04-17T13:38:27Z</time>
      </trkpt>
      <trkpt lat="43.23972" lon="0.14911">
        <ele>425.4</ele>
        <time>2024-04-17T13:38:28Z</time>
      </trkpt>
      <trkpt lat="43.23969" lon="0.14913">
        <ele>425.4</ele>
        <time>2024-04-17T13:38:29Z</time>
      </trkpt>
      <trkpt lat="43.23965" lon="0.14915">
        <ele>425.4</ele>
        <time>2024-04-17T13:38:30Z</time>
      </trkpt>
      <trkpt lat="43.23963" lon="0.14917">
        <ele>425.4</ele>
        <time>2024-04-17T13:38:31Z</time>
      </trkpt>
      <trkpt lat="43.2396" lon="0.14918">
        <ele>425.2</ele>
        <time>2024-04-17T13:38:32Z</time>
      </trkpt>
      <trkpt lat="43.23956" lon="0.1492">
        <ele>425.2</ele>
        <time>2024-04-17T13:38:33Z</time>
      </trkpt>
      <trkpt lat="43.23952" lon="0.14921">
        <ele>425.2</ele>
        <time>2024-04-17T13:38:34Z</time>
      </trkpt>
      <trkpt lat="43.23948" lon="0.14922">
        <ele>425.2</ele>
        <time>2024-04-17T13:38:35Z</time>
      </trkpt>
      <trkpt lat="43.23945" lon="0.14923">
        <ele>425.2</ele>
        <time>2024-04-17T13:38:36Z</time>
      </trkpt>
      <trkpt lat="43.23941" lon="0.14924">
        <ele>425</ele>
        <time>2024-04-17T13:38:37Z</time>
      </trkpt>
      <trkpt lat="43.23938" lon="0.14925">
        <ele>425</ele>
        <time>2024-04-17T13:38:38Z</time>
      </trkpt>
      <trkpt lat="43.23935" lon="0.14926">
        <ele>425</ele>
        <time>2024-04-17T13:38:39Z</time>
      </trkpt>
      <trkpt lat="43.23933" lon="0.14926">
        <ele>425</ele>
        <time>2024-04-17T13:38:40Z</time>
      </trkpt>
      <trkpt lat="43.2393" lon="0.14926">
        <ele>425</ele>
        <time>2024-04-17T13:38:41Z</time>
      </trkpt>
      <trkpt lat="43.23927" lon="0.14927">
        <ele>425</ele>
        <time>2024-04-17T13:38:42Z</time>
      </trkpt>
      <trkpt lat="43.23924" lon="0.14928">
        <ele>425</ele>
        <time>2024-04-17T13:38:43Z</time>
      </trkpt>
      <trkpt lat="43.23921" lon="0.14929">
        <ele>425</ele>
        <time>2024-04-17T13:38:44Z</time>
      </trkpt>
      <trkpt lat="43.23919" lon="0.14932">
        <ele>425</ele>
        <time>2024-04-17T13:38:45Z</time>
      </trkpt>
      <trkpt lat="43.23915" lon="0.14935">
        <ele>425</ele>
        <time>2024-04-17T13:38:46Z</time>
      </trkpt>
      <trkpt lat="43.23911" lon="0.1494">
        <ele>425</ele>
        <time>2024-04-17T13:38:47Z</time>
      </trkpt>
      <trkpt lat="43.23908" lon="0.14944">
        <ele>425</ele>
        <time>2024-04-17T13:38:48Z</time>
      </trkpt>
      <trkpt lat="43.23904" lon="0.14949">
        <ele>425</ele>
        <time>2024-04-17T13:38:49Z</time>
      </trkpt>
      <trkpt lat="43.239" lon="0.14955">
        <ele>425</ele>
        <time>2024-04-17T13:38:50Z</time>
      </trkpt>
      <trkpt lat="43.23897" lon="0.1496">
        <ele>424.8</ele>
        <time>2024-04-17T13:38:51Z</time>
      </trkpt>
      <trkpt lat="43.23895" lon="0.14964">
        <ele>424.6</ele>
        <time>2024-04-17T13:38:52Z</time>
      </trkpt>
      <trkpt lat="43.23889" lon="0.14974">
        <ele>424.4</ele>
        <time>2024-04-17T13:38:53Z</time>
      </trkpt>
      <trkpt lat="43.23886" lon="0.1498">
        <ele>424.2</ele>
        <time>2024-04-17T13:38:54Z</time>
      </trkpt>
      <trkpt lat="43.23884" lon="0.14985">
        <ele>423.8</ele>
        <time>2024-04-17T13:38:55Z</time>
      </trkpt>
      <trkpt lat="43.23881" lon="0.14992">
        <ele>423.4</ele>
        <time>2024-04-17T13:38:56Z</time>
      </trkpt>
      <trkpt lat="43.23879" lon="0.14999">
        <ele>423</ele>
        <time>2024-04-17T13:38:57Z</time>
      </trkpt>
      <trkpt lat="43.23875" lon="0.15005">
        <ele>422.2</ele>
        <time>2024-04-17T13:38:58Z</time>
      </trkpt>
      <trkpt lat="43.23872" lon="0.15012">
        <ele>422</ele>
        <time>2024-04-17T13:38:59Z</time>
      </trkpt>
      <trkpt lat="43.2387" lon="0.15017">
        <ele>421.6</ele>
        <time>2024-04-17T13:39:00Z</time>
      </trkpt>
      <trkpt lat="43.23868" lon="0.15022">
        <ele>421.2</ele>
        <time>2024-04-17T13:39:01Z</time>
      </trkpt>
      <trkpt lat="43.23864" lon="0.15032">
        <ele>420.6</ele>
        <time>2024-04-17T13:39:02Z</time>
      </trkpt>
      <trkpt lat="43.23862" lon="0.15035">
        <ele>420.2</ele>
        <time>2024-04-17T13:39:03Z</time>
      </trkpt>
      <trkpt lat="43.23861" lon="0.15037">
        <ele>419.8</ele>
        <time>2024-04-17T13:39:04Z</time>
      </trkpt>
      <trkpt lat="43.23861" lon="0.15038">
        <ele>419.4</ele>
        <time>2024-04-17T13:39:05Z</time>
      </trkpt>
      <trkpt lat="43.23859" lon="0.15039">
        <ele>419.2</ele>
        <time>2024-04-17T13:39:06Z</time>
      </trkpt>
      <trkpt lat="43.23856" lon="0.15039">
        <ele>418.8</ele>
        <time>2024-04-17T13:39:07Z</time>
      </trkpt>
      <trkpt lat="43.23853" lon="0.15038">
        <ele>418.8</ele>
        <time>2024-04-17T13:39:08Z</time>
      </trkpt>
      <trkpt lat="43.23849" lon="0.15037">
        <ele>418.2</ele>
        <time>2024-04-17T13:39:09Z</time>
      </trkpt>
      <trkpt lat="43.23845" lon="0.15036">
        <ele>418</ele>
        <time>2024-04-17T13:39:10Z</time>
      </trkpt>
      <trkpt lat="43.23841" lon="0.15037">
        <ele>417.2</ele>
        <time>2024-04-17T13:39:11Z</time>
      </trkpt>
      <trkpt lat="43.23837" lon="0.15037">
        <ele>416.8</ele>
        <time>2024-04-17T13:39:12Z</time>
      </trkpt>
      <trkpt lat="43.23832" lon="0.15037">
        <ele>416.6</ele>
        <time>2024-04-17T13:39:13Z</time>
      </trkpt>
      <trkpt lat="43.23829" lon="0.15039">
        <ele>416</ele>
        <time>2024-04-17T13:39:14Z</time>
      </trkpt>
      <trkpt lat="43.23827" lon="0.15039">
        <ele>415.8</ele>
        <time>2024-04-17T13:39:15Z</time>
      </trkpt>
      <trkpt lat="43.23826" lon="0.15039">
        <ele>415.4</ele>
        <time>2024-04-17T13:39:16Z</time>
      </trkpt>
      <trkpt lat="43.23824" lon="0.15037">
        <ele>415.2</ele>
        <time>2024-04-17T13:39:17Z</time>
      </trkpt>
      <trkpt lat="43.23823" lon="0.15035">
        <ele>414.4</ele>
        <time>2024-04-17T13:39:18Z</time>
      </trkpt>
      <trkpt lat="43.23822" lon="0.15033">
        <ele>414</ele>
        <time>2024-04-17T13:39:19Z</time>
      </trkpt>
      <trkpt lat="43.23821" lon="0.15031">
        <ele>413.6</ele>
        <time>2024-04-17T13:39:20Z</time>
      </trkpt>
      <trkpt lat="43.23819" lon="0.15027">
        <ele>413.4</ele>
        <time>2024-04-17T13:39:21Z</time>
      </trkpt>
      <trkpt lat="43.23817" lon="0.15024">
        <ele>413.2</ele>
        <time>2024-04-17T13:39:22Z</time>
      </trkpt>
      <trkpt lat="43.23816" lon="0.15022">
        <ele>413</ele>
        <time>2024-04-17T13:39:23Z</time>
      </trkpt>
      <trkpt lat="43.23814" lon="0.15019">
        <ele>413</ele>
        <time>2024-04-17T13:39:24Z</time>
      </trkpt>
      <trkpt lat="43.23812" lon="0.15018">
        <ele>413</ele>
        <time>2024-04-17T13:39:25Z</time>
      </trkpt>
      <trkpt lat="43.2381" lon="0.15016">
        <ele>412.8</ele>
        <time>2024-04-17T13:39:26Z</time>
      </trkpt>
      <trkpt lat="43.23806" lon="0.15013">
        <ele>412.8</ele>
        <time>2024-04-17T13:39:27Z</time>
      </trkpt>
      <trkpt lat="43.23801" lon="0.1501">
        <ele>412.6</ele>
        <time>2024-04-17T13:39:28Z</time>
      </trkpt>
      <trkpt lat="43.23796" lon="0.15006">
        <ele>412.6</ele>
        <time>2024-04-17T13:39:29Z</time>
      </trkpt>
      <trkpt lat="43.2379" lon="0.15003">
        <ele>412.4</ele>
        <time>2024-04-17T13:39:30Z</time>
      </trkpt>
      <trkpt lat="43.23783" lon="0.14998">
        <ele>412.4</ele>
        <time>2024-04-17T13:39:31Z</time>
      </trkpt>
      <trkpt lat="43.23776" lon="0.14992">
        <ele>412</ele>
        <time>2024-04-17T13:39:32Z</time>
      </trkpt>
      <trkpt lat="43.23769" lon="0.14987">
        <ele>411.8</ele>
        <time>2024-04-17T13:39:33Z</time>
      </trkpt>
      <trkpt lat="43.23762" lon="0.14982">
        <ele>411.2</ele>
        <time>2024-04-17T13:39:34Z</time>
      </trkpt>
      <trkpt lat="43.23756" lon="0.1498">
        <ele>411</ele>
        <time>2024-04-17T13:39:35Z</time>
      </trkpt>
      <trkpt lat="43.23751" lon="0.14979">
        <ele>410</ele>
        <time>2024-04-17T13:39:36Z</time>
      </trkpt>
      <trkpt lat="43.23745" lon="0.14981">
        <ele>408.8</ele>
        <time>2024-04-17T13:39:37Z</time>
      </trkpt>
      <trkpt lat="43.23739" lon="0.14984">
        <ele>408.4</ele>
        <time>2024-04-17T13:39:38Z</time>
      </trkpt>
      <trkpt lat="43.23734" lon="0.14986">
        <ele>407</ele>
        <time>2024-04-17T13:39:39Z</time>
      </trkpt>
      <trkpt lat="43.23729" lon="0.14988">
        <ele>406.6</ele>
        <time>2024-04-17T13:39:40Z</time>
      </trkpt>
      <trkpt lat="43.23725" lon="0.14989">
        <ele>406.2</ele>
        <time>2024-04-17T13:39:41Z</time>
      </trkpt>
      <trkpt lat="43.23722" lon="0.14989">
        <ele>405.8</ele>
        <time>2024-04-17T13:39:42Z</time>
      </trkpt>
      <trkpt lat="43.23719" lon="0.14986">
        <ele>405</ele>
        <time>2024-04-17T13:39:43Z</time>
      </trkpt>
      <trkpt lat="43.23719" lon="0.14983">
        <ele>404.2</ele>
        <time>2024-04-17T13:39:44Z</time>
      </trkpt>
      <trkpt lat="43.23719" lon="0.14981">
        <ele>403.8</ele>
        <time>2024-04-17T13:39:45Z</time>
      </trkpt>
      <trkpt lat="43.23721" lon="0.14978">
        <ele>403.4</ele>
        <time>2024-04-17T13:39:46Z</time>
      </trkpt>
      <trkpt lat="43.23721" lon="0.14975">
        <ele>403.2</ele>
        <time>2024-04-17T13:39:47Z</time>
      </trkpt>
      <trkpt lat="43.23722" lon="0.1497">
        <ele>403</ele>
        <time>2024-04-17T13:39:48Z</time>
      </trkpt>
      <trkpt lat="43.23724" lon="0.14966">
        <ele>403</ele>
        <time>2024-04-17T13:39:49Z</time>
      </trkpt>
      <trkpt lat="43.23725" lon="0.14962">
        <ele>402.6</ele>
        <time>2024-04-17T13:39:50Z</time>
      </trkpt>
      <trkpt lat="43.23727" lon="0.14957">
        <ele>402.4</ele>
        <time>2024-04-17T13:39:51Z</time>
      </trkpt>
      <trkpt lat="43.23729" lon="0.14953">
        <ele>402.2</ele>
        <time>2024-04-17T13:39:52Z</time>
      </trkpt>
      <trkpt lat="43.2373" lon="0.14948">
        <ele>402.2</ele>
        <time>2024-04-17T13:39:53Z</time>
      </trkpt>
      <trkpt lat="43.23732" lon="0.14945">
        <ele>402</ele>
        <time>2024-04-17T13:39:54Z</time>
      </trkpt>
      <trkpt lat="43.23732" lon="0.14943">
        <ele>402</ele>
        <time>2024-04-17T13:39:55Z</time>
      </trkpt>
      <trkpt lat="43.23734" lon="0.1494">
        <ele>402</ele>
        <time>2024-04-17T13:39:56Z</time>
      </trkpt>
      <trkpt lat="43.23735" lon="0.14936">
        <ele>401.8</ele>
        <time>2024-04-17T13:39:57Z</time>
      </trkpt>
      <trkpt lat="43.23736" lon="0.14932">
        <ele>401.8</ele>
        <time>2024-04-17T13:39:58Z</time>
      </trkpt>
      <trkpt lat="43.23736" lon="0.14925">
        <ele>401.6</ele>
        <time>2024-04-17T13:39:59Z</time>
      </trkpt>
      <trkpt lat="43.23738" lon="0.14918">
        <ele>401.6</ele>
        <time>2024-04-17T13:40:00Z</time>
      </trkpt>
      <trkpt lat="43.23738" lon="0.14913">
        <ele>401.6</ele>
        <time>2024-04-17T13:40:01Z</time>
      </trkpt>
      <trkpt lat="43.23739" lon="0.14908">
        <ele>401.6</ele>
        <time>2024-04-17T13:40:02Z</time>
      </trkpt>
      <trkpt lat="43.23739" lon="0.14901">
        <ele>401.4</ele>
        <time>2024-04-17T13:40:03Z</time>
      </trkpt>
      <trkpt lat="43.2374" lon="0.14896">
        <ele>401.4</ele>
        <time>2024-04-17T13:40:04Z</time>
      </trkpt>
      <trkpt lat="43.2374" lon="0.1489">
        <ele>401.4</ele>
        <time>2024-04-17T13:40:05Z</time>
      </trkpt>
      <trkpt lat="43.2374" lon="0.14885">
        <ele>401.4</ele>
        <time>2024-04-17T13:40:06Z</time>
      </trkpt>
      <trkpt lat="43.2374" lon="0.14879">
        <ele>401.4</ele>
        <time>2024-04-17T13:40:07Z</time>
      </trkpt>
      <trkpt lat="43.2374" lon="0.14873">
        <ele>401.2</ele>
        <time>2024-04-17T13:40:08Z</time>
      </trkpt>
      <trkpt lat="43.23739" lon="0.14867">
        <ele>401.2</ele>
        <time>2024-04-17T13:40:09Z</time>
      </trkpt>
      <trkpt lat="43.23738" lon="0.14859">
        <ele>401.2</ele>
        <time>2024-04-17T13:40:10Z</time>
      </trkpt>
      <trkpt lat="43.23736" lon="0.14849">
        <ele>401.2</ele>
        <time>2024-04-17T13:40:11Z</time>
      </trkpt>
      <trkpt lat="43.23734" lon="0.14841">
        <ele>401.2</ele>
        <time>2024-04-17T13:40:12Z</time>
      </trkpt>
      <trkpt lat="43.23733" lon="0.14834">
        <ele>401</ele>
        <time>2024-04-17T13:40:13Z</time>
      </trkpt>
      <trkpt lat="43.23731" lon="0.14829">
        <ele>401</ele>
        <time>2024-04-17T13:40:14Z</time>
      </trkpt>
      <trkpt lat="43.23729" lon="0.14826">
        <ele>400.8</ele>
        <time>2024-04-17T13:40:15Z</time>
      </trkpt>
      <trkpt lat="43.23727" lon="0.14823">
        <ele>400.8</ele>
        <time>2024-04-17T13:40:16Z</time>
      </trkpt>
      <trkpt lat="43.23723" lon="0.14819">
        <ele>400.4</ele>
        <time>2024-04-17T13:40:17Z</time>
      </trkpt>
      <trkpt lat="43.23718" lon="0.14817">
        <ele>400.2</ele>
        <time>2024-04-17T13:40:18Z</time>
      </trkpt>
      <trkpt lat="43.23714" lon="0.14816">
        <ele>400</ele>
        <time>2024-04-17T13:40:19Z</time>
      </trkpt>
      <trkpt lat="43.2371" lon="0.14815">
        <ele>400</ele>
        <time>2024-04-17T13:40:20Z</time>
      </trkpt>
      <trkpt lat="43.23705" lon="0.14813">
        <ele>400</ele>
        <time>2024-04-17T13:40:21Z</time>
      </trkpt>
      <trkpt lat="43.237" lon="0.1481">
        <ele>399.8</ele>
        <time>2024-04-17T13:40:22Z</time>
      </trkpt>
      <trkpt lat="43.23695" lon="0.14807">
        <ele>399.6</ele>
        <time>2024-04-17T13:40:23Z</time>
      </trkpt>
      <trkpt lat="43.23691" lon="0.14806">
        <ele>399.4</ele>
        <time>2024-04-17T13:40:24Z</time>
      </trkpt>
      <trkpt lat="43.23685" lon="0.14807">
        <ele>399.4</ele>
        <time>2024-04-17T13:40:25Z</time>
      </trkpt>
      <trkpt lat="43.2368" lon="0.14808">
        <ele>399.4</ele>
        <time>2024-04-17T13:40:26Z</time>
      </trkpt>
      <trkpt lat="43.23677" lon="0.14808">
        <ele>399.2</ele>
        <time>2024-04-17T13:40:27Z</time>
      </trkpt>
      <trkpt lat="43.23674" lon="0.14806">
        <ele>399.2</ele>
        <time>2024-04-17T13:40:28Z</time>
      </trkpt>
      <trkpt lat="43.2367" lon="0.14807">
        <ele>399.2</ele>
        <time>2024-04-17T13:40:29Z</time>
      </trkpt>
      <trkpt lat="43.23666" lon="0.14808">
        <ele>399.2</ele>
        <time>2024-04-17T13:40:30Z</time>
      </trkpt>
      <trkpt lat="43.23663" lon="0.14808">
        <ele>399.4</ele>
        <time>2024-04-17T13:40:31Z</time>
      </trkpt>
      <trkpt lat="43.2366" lon="0.14809">
        <ele>399.4</ele>
        <time>2024-04-17T13:40:32Z</time>
      </trkpt>
      <trkpt lat="43.23656" lon="0.14809">
        <ele>399.6</ele>
        <time>2024-04-17T13:40:33Z</time>
      </trkpt>
      <trkpt lat="43.23652" lon="0.14809">
        <ele>399.8</ele>
        <time>2024-04-17T13:40:34Z</time>
      </trkpt>
      <trkpt lat="43.23649" lon="0.14809">
        <ele>400</ele>
        <time>2024-04-17T13:40:35Z</time>
      </trkpt>
      <trkpt lat="43.23646" lon="0.1481">
        <ele>400</ele>
        <time>2024-04-17T13:40:36Z</time>
      </trkpt>
      <trkpt lat="43.23643" lon="0.1481">
        <ele>400</ele>
        <time>2024-04-17T13:40:37Z</time>
      </trkpt>
      <trkpt lat="43.23639" lon="0.1481">
        <ele>400.2</ele>
        <time>2024-04-17T13:40:38Z</time>
      </trkpt>
      <trkpt lat="43.23634" lon="0.1481">
        <ele>400.2</ele>
        <time>2024-04-17T13:40:39Z</time>
      </trkpt>
      <trkpt lat="43.23629" lon="0.1481">
        <ele>400.2</ele>
        <time>2024-04-17T13:40:40Z</time>
      </trkpt>
      <trkpt lat="43.23625" lon="0.1481">
        <ele>400.2</ele>
        <time>2024-04-17T13:40:41Z</time>
      </trkpt>
      <trkpt lat="43.2362" lon="0.14811">
        <ele>400.2</ele>
        <time>2024-04-17T13:40:42Z</time>
      </trkpt>
      <trkpt lat="43.23615" lon="0.14811">
        <ele>400</ele>
        <time>2024-04-17T13:40:43Z</time>
      </trkpt>
      <trkpt lat="43.23611" lon="0.14811">
        <ele>400</ele>
        <time>2024-04-17T13:40:44Z</time>
      </trkpt>
      <trkpt lat="43.23607" lon="0.14812">
        <ele>399.8</ele>
        <time>2024-04-17T13:40:45Z</time>
      </trkpt>
      <trkpt lat="43.23603" lon="0.14812">
        <ele>399.8</ele>
        <time>2024-04-17T13:40:46Z</time>
      </trkpt>
      <trkpt lat="43.236" lon="0.14814">
        <ele>399.6</ele>
        <time>2024-04-17T13:40:47Z</time>
      </trkpt>
      <trkpt lat="43.23596" lon="0.14815">
        <ele>399.4</ele>
        <time>2024-04-17T13:40:48Z</time>
      </trkpt>
      <trkpt lat="43.23591" lon="0.14815">
        <ele>399.6</ele>
        <time>2024-04-17T13:40:49Z</time>
      </trkpt>
      <trkpt lat="43.23587" lon="0.14816">
        <ele>399.6</ele>
        <time>2024-04-17T13:40:50Z</time>
      </trkpt>
      <trkpt lat="43.23583" lon="0.14818">
        <ele>399.6</ele>
        <time>2024-04-17T13:40:51Z</time>
      </trkpt>
      <trkpt lat="43.2358" lon="0.14819">
        <ele>399.6</ele>
        <time>2024-04-17T13:40:52Z</time>
      </trkpt>
      <trkpt lat="43.23577" lon="0.1482">
        <ele>399.6</ele>
        <time>2024-04-17T13:40:53Z</time>
      </trkpt>
      <trkpt lat="43.23574" lon="0.14821">
        <ele>399.6</ele>
        <time>2024-04-17T13:40:54Z</time>
      </trkpt>
      <trkpt lat="43.2357" lon="0.14822">
        <ele>399.6</ele>
        <time>2024-04-17T13:40:55Z</time>
      </trkpt>
      <trkpt lat="43.23566" lon="0.14823">
        <ele>399.6</ele>
        <time>2024-04-17T13:40:56Z</time>
      </trkpt>
      <trkpt lat="43.23562" lon="0.14824">
        <ele>399.6</ele>
        <time>2024-04-17T13:40:57Z</time>
      </trkpt>
      <trkpt lat="43.23558" lon="0.14824">
        <ele>399.6</ele>
        <time>2024-04-17T13:40:58Z</time>
      </trkpt>
      <trkpt lat="43.23554" lon="0.14825">
        <ele>399.8</ele>
        <time>2024-04-17T13:40:59Z</time>
      </trkpt>
      <trkpt lat="43.23551" lon="0.14824">
        <ele>399.8</ele>
        <time>2024-04-17T13:41:00Z</time>
      </trkpt>
      <trkpt lat="43.23548" lon="0.14824">
        <ele>399.8</ele>
        <time>2024-04-17T13:41:01Z</time>
      </trkpt>
      <trkpt lat="43.23544" lon="0.14824">
        <ele>399.8</ele>
        <time>2024-04-17T13:41:02Z</time>
      </trkpt>
      <trkpt lat="43.23542" lon="0.14823">
        <ele>399.8</ele>
        <time>2024-04-17T13:41:03Z</time>
      </trkpt>
      <trkpt lat="43.2354" lon="0.14822">
        <ele>399.8</ele>
        <time>2024-04-17T13:41:04Z</time>
      </trkpt>
      <trkpt lat="43.23538" lon="0.14821">
        <ele>399.8</ele>
        <time>2024-04-17T13:41:05Z</time>
      </trkpt>
      <trkpt lat="43.23535" lon="0.14819">
        <ele>399.8</ele>
        <time>2024-04-17T13:41:06Z</time>
      </trkpt>
      <trkpt lat="43.23533" lon="0.14817">
        <ele>399.8</ele>
        <time>2024-04-17T13:41:07Z</time>
      </trkpt>
      <trkpt lat="43.2353" lon="0.14816">
        <ele>399.8</ele>
        <time>2024-04-17T13:41:08Z</time>
      </trkpt>
      <trkpt lat="43.23527" lon="0.14815">
        <ele>399.8</ele>
        <time>2024-04-17T13:41:09Z</time>
      </trkpt>
      <trkpt lat="43.23525" lon="0.14814">
        <ele>399.8</ele>
        <time>2024-04-17T13:41:10Z</time>
      </trkpt>
      <trkpt lat="43.23522" lon="0.14814">
        <ele>399.8</ele>
        <time>2024-04-17T13:41:11Z</time>
      </trkpt>
      <trkpt lat="43.23519" lon="0.14812">
        <ele>399.8</ele>
        <time>2024-04-17T13:41:12Z</time>
      </trkpt>
      <trkpt lat="43.23516" lon="0.14811">
        <ele>399.8</ele>
        <time>2024-04-17T13:41:13Z</time>
      </trkpt>
      <trkpt lat="43.23512" lon="0.1481">
        <ele>399.8</ele>
        <time>2024-04-17T13:41:14Z</time>
      </trkpt>
      <trkpt lat="43.23509" lon="0.14809">
        <ele>400</ele>
        <time>2024-04-17T13:41:15Z</time>
      </trkpt>
      <trkpt lat="43.23506" lon="0.14809">
        <ele>400.2</ele>
        <time>2024-04-17T13:41:16Z</time>
      </trkpt>
      <trkpt lat="43.23503" lon="0.14809">
        <ele>400.4</ele>
        <time>2024-04-17T13:41:17Z</time>
      </trkpt>
      <trkpt lat="43.23501" lon="0.14809">
        <ele>400.4</ele>
        <time>2024-04-17T13:41:18Z</time>
      </trkpt>
      <trkpt lat="43.23499" lon="0.14809">
        <ele>400.6</ele>
        <time>2024-04-17T13:41:19Z</time>
      </trkpt>
      <trkpt lat="43.23497" lon="0.14809">
        <ele>400.6</ele>
        <time>2024-04-17T13:41:20Z</time>
      </trkpt>
      <trkpt lat="43.23494" lon="0.14809">
        <ele>400.8</ele>
        <time>2024-04-17T13:41:21Z</time>
      </trkpt>
      <trkpt lat="43.23491" lon="0.14808">
        <ele>401</ele>
        <time>2024-04-17T13:41:22Z</time>
      </trkpt>
      <trkpt lat="43.23488" lon="0.14808">
        <ele>401</ele>
        <time>2024-04-17T13:41:23Z</time>
      </trkpt>
      <trkpt lat="43.23486" lon="0.14808">
        <ele>401.2</ele>
        <time>2024-04-17T13:41:24Z</time>
      </trkpt>
      <trkpt lat="43.23483" lon="0.14807">
        <ele>401.2</ele>
        <time>2024-04-17T13:41:25Z</time>
      </trkpt>
      <trkpt lat="43.23481" lon="0.14807">
        <ele>401.2</ele>
        <time>2024-04-17T13:41:26Z</time>
      </trkpt>
      <trkpt lat="43.23478" lon="0.14807">
        <ele>401.4</ele>
        <time>2024-04-17T13:41:27Z</time>
      </trkpt>
      <trkpt lat="43.23477" lon="0.14806">
        <ele>401.6</ele>
        <time>2024-04-17T13:41:28Z</time>
      </trkpt>
      <trkpt lat="43.23475" lon="0.14804">
        <ele>401.8</ele>
        <time>2024-04-17T13:41:29Z</time>
      </trkpt>
      <trkpt lat="43.23473" lon="0.14803">
        <ele>402</ele>
        <time>2024-04-17T13:41:30Z</time>
      </trkpt>
      <trkpt lat="43.23472" lon="0.14802">
        <ele>402.2</ele>
        <time>2024-04-17T13:41:31Z</time>
      </trkpt>
      <trkpt lat="43.23469" lon="0.14801">
        <ele>402.4</ele>
        <time>2024-04-17T13:41:32Z</time>
      </trkpt>
      <trkpt lat="43.23467" lon="0.14799">
        <ele>402.6</ele>
        <time>2024-04-17T13:41:33Z</time>
      </trkpt>
      <trkpt lat="43.23465" lon="0.14798">
        <ele>402.6</ele>
        <time>2024-04-17T13:41:34Z</time>
      </trkpt>
      <trkpt lat="43.23464" lon="0.14797">
        <ele>403</ele>
        <time>2024-04-17T13:41:35Z</time>
      </trkpt>
      <trkpt lat="43.23462" lon="0.14796">
        <ele>403</ele>
        <time>2024-04-17T13:41:36Z</time>
      </trkpt>
      <trkpt lat="43.23461" lon="0.14796">
        <ele>403.4</ele>
        <time>2024-04-17T13:41:37Z</time>
      </trkpt>
      <trkpt lat="43.2346" lon="0.14795">
        <ele>403.6</ele>
        <time>2024-04-17T13:41:38Z</time>
      </trkpt>
      <trkpt lat="43.23459" lon="0.14794">
        <ele>403.8</ele>
        <time>2024-04-17T13:41:39Z</time>
      </trkpt>
      <trkpt lat="43.23458" lon="0.14793">
        <ele>404.2</ele>
        <time>2024-04-17T13:41:40Z</time>
      </trkpt>
      <trkpt lat="43.23457" lon="0.14791">
        <ele>404.4</ele>
        <time>2024-04-17T13:41:41Z</time>
      </trkpt>
      <trkpt lat="43.23456" lon="0.14789">
        <ele>404.8</ele>
        <time>2024-04-17T13:41:42Z</time>
      </trkpt>
      <trkpt lat="43.23454" lon="0.14788">
        <ele>405</ele>
        <time>2024-04-17T13:41:43Z</time>
      </trkpt>
      <trkpt lat="43.23453" lon="0.14786">
        <ele>405.2</ele>
        <time>2024-04-17T13:41:44Z</time>
      </trkpt>
      <trkpt lat="43.23452" lon="0.14784">
        <ele>405.2</ele>
        <time>2024-04-17T13:41:45Z</time>
      </trkpt>
      <trkpt lat="43.23451" lon="0.14782">
        <ele>405.4</ele>
        <time>2024-04-17T13:41:46Z</time>
      </trkpt>
      <trkpt lat="43.2345" lon="0.1478">
        <ele>405.6</ele>
        <time>2024-04-17T13:41:47Z</time>
      </trkpt>
      <trkpt lat="43.23449" lon="0.14777">
        <ele>405.8</ele>
        <time>2024-04-17T13:41:48Z</time>
      </trkpt>
      <trkpt lat="43.23448" lon="0.14775">
        <ele>406</ele>
        <time>2024-04-17T13:41:49Z</time>
      </trkpt>
      <trkpt lat="43.23447" lon="0.14773">
        <ele>406</ele>
        <time>2024-04-17T13:41:50Z</time>
      </trkpt>
      <trkpt lat="43.23447" lon="0.14771">
        <ele>406.2</ele>
        <time>2024-04-17T13:41:51Z</time>
      </trkpt>
      <trkpt lat="43.23446" lon="0.14769">
        <ele>406.4</ele>
        <time>2024-04-17T13:41:52Z</time>
      </trkpt>
      <trkpt lat="43.23444" lon="0.14767">
        <ele>406.8</ele>
        <time>2024-04-17T13:41:53Z</time>
      </trkpt>
      <trkpt lat="43.23443" lon="0.14765">
        <ele>406.8</ele>
        <time>2024-04-17T13:41:54Z</time>
      </trkpt>
      <trkpt lat="43.23442" lon="0.14763">
        <ele>407.4</ele>
        <time>2024-04-17T13:41:55Z</time>
      </trkpt>
      <trkpt lat="43.23442" lon="0.14761">
        <ele>407.6</ele>
        <time>2024-04-17T13:41:56Z</time>
      </trkpt>
      <trkpt lat="43.2344" lon="0.14759">
        <ele>407.8</ele>
        <time>2024-04-17T13:41:57Z</time>
      </trkpt>
      <trkpt lat="43.23439" lon="0.14756">
        <ele>407.8</ele>
        <time>2024-04-17T13:41:58Z</time>
      </trkpt>
      <trkpt lat="43.23438" lon="0.14753">
        <ele>408</ele>
        <time>2024-04-17T13:41:59Z</time>
      </trkpt>
      <trkpt lat="43.23437" lon="0.1475">
        <ele>408</ele>
        <time>2024-04-17T13:42:00Z</time>
      </trkpt>
      <trkpt lat="43.23436" lon="0.14748">
        <ele>408.2</ele>
        <time>2024-04-17T13:42:01Z</time>
      </trkpt>
      <trkpt lat="43.23435" lon="0.14746">
        <ele>408.4</ele>
        <time>2024-04-17T13:42:02Z</time>
      </trkpt>
      <trkpt lat="43.23433" lon="0.14743">
        <ele>408.8</ele>
        <time>2024-04-17T13:42:03Z</time>
      </trkpt>
      <trkpt lat="43.23433" lon="0.14741">
        <ele>408.8</ele>
        <time>2024-04-17T13:42:04Z</time>
      </trkpt>
      <trkpt lat="43.23432" lon="0.14738">
        <ele>409</ele>
        <time>2024-04-17T13:42:05Z</time>
      </trkpt>
      <trkpt lat="43.23432" lon="0.14735">
        <ele>409</ele>
        <time>2024-04-17T13:42:06Z</time>
      </trkpt>
      <trkpt lat="43.2343" lon="0.14731">
        <ele>409.2</ele>
        <time>2024-04-17T13:42:07Z</time>
      </trkpt>
      <trkpt lat="43.2343" lon="0.14729">
        <ele>409.4</ele>
        <time>2024-04-17T13:42:08Z</time>
      </trkpt>
      <trkpt lat="43.2343" lon="0.14727">
        <ele>409.4</ele>
        <time>2024-04-17T13:42:09Z</time>
      </trkpt>
      <trkpt lat="43.23428" lon="0.14726">
        <ele>409.4</ele>
        <time>2024-04-17T13:42:10Z</time>
      </trkpt>
      <trkpt lat="43.23425" lon="0.14722">
        <ele>409.4</ele>
        <time>2024-04-17T13:42:11Z</time>
      </trkpt>
      <trkpt lat="43.23423" lon="0.14719">
        <ele>409.4</ele>
        <time>2024-04-17T13:42:12Z</time>
      </trkpt>
      <trkpt lat="43.23422" lon="0.14716">
        <ele>409.4</ele>
        <time>2024-04-17T13:42:13Z</time>
      </trkpt>
      <trkpt lat="43.2342" lon="0.14712">
        <ele>409.4</ele>
        <time>2024-04-17T13:42:14Z</time>
      </trkpt>
      <trkpt lat="43.23419" lon="0.14708">
        <ele>409.4</ele>
        <time>2024-04-17T13:42:15Z</time>
      </trkpt>
      <trkpt lat="43.23417" lon="0.14704">
        <ele>409.4</ele>
        <time>2024-04-17T13:42:16Z</time>
      </trkpt>
      <trkpt lat="43.23414" lon="0.14703">
        <ele>409.4</ele>
        <time>2024-04-17T13:42:17Z</time>
      </trkpt>
      <trkpt lat="43.23412" lon="0.14702">
        <ele>409.2</ele>
        <time>2024-04-17T13:42:18Z</time>
      </trkpt>
      <trkpt lat="43.23409" lon="0.147">
        <ele>409.2</ele>
        <time>2024-04-17T13:42:19Z</time>
      </trkpt>
      <trkpt lat="43.23407" lon="0.14697">
        <ele>409.2</ele>
        <time>2024-04-17T13:42:20Z</time>
      </trkpt>
      <trkpt lat="43.23405" lon="0.14694">
        <ele>409.2</ele>
        <time>2024-04-17T13:42:21Z</time>
      </trkpt>
      <trkpt lat="43.23402" lon="0.14692">
        <ele>409.2</ele>
        <time>2024-04-17T13:42:22Z</time>
      </trkpt>
      <trkpt lat="43.23399" lon="0.14689">
        <ele>409.2</ele>
        <time>2024-04-17T13:42:23Z</time>
      </trkpt>
      <trkpt lat="43.23397" lon="0.14688">
        <ele>409</ele>
        <time>2024-04-17T13:42:24Z</time>
      </trkpt>
      <trkpt lat="43.23395" lon="0.14687">
        <ele>409</ele>
        <time>2024-04-17T13:42:25Z</time>
      </trkpt>
      <trkpt lat="43.23394" lon="0.14685">
        <ele>409</ele>
        <time>2024-04-17T13:42:26Z</time>
      </trkpt>
      <trkpt lat="43.23392" lon="0.14683">
        <ele>409</ele>
        <time>2024-04-17T13:42:27Z</time>
      </trkpt>
      <trkpt lat="43.2339" lon="0.14681">
        <ele>409</ele>
        <time>2024-04-17T13:42:28Z</time>
      </trkpt>
      <trkpt lat="43.23388" lon="0.14679">
        <ele>409</ele>
        <time>2024-04-17T13:42:29Z</time>
      </trkpt>
      <trkpt lat="43.23386" lon="0.14678">
        <ele>409</ele>
        <time>2024-04-17T13:42:30Z</time>
      </trkpt>
      <trkpt lat="43.23384" lon="0.14677">
        <ele>409</ele>
        <time>2024-04-17T13:42:31Z</time>
      </trkpt>
      <trkpt lat="43.23382" lon="0.14675">
        <ele>409</ele>
        <time>2024-04-17T13:42:32Z</time>
      </trkpt>
      <trkpt lat="43.2338" lon="0.14675">
        <ele>409</ele>
        <time>2024-04-17T13:42:33Z</time>
      </trkpt>
      <trkpt lat="43.23378" lon="0.14674">
        <ele>409</ele>
        <time>2024-04-17T13:42:34Z</time>
      </trkpt>
      <trkpt lat="43.23377" lon="0.14674">
        <ele>409</ele>
        <time>2024-04-17T13:42:35Z</time>
      </trkpt>
      <trkpt lat="43.23375" lon="0.14673">
        <ele>409</ele>
        <time>2024-04-17T13:42:36Z</time>
      </trkpt>
      <trkpt lat="43.23374" lon="0.14674">
        <ele>409</ele>
        <time>2024-04-17T13:42:37Z</time>
      </trkpt>
      <trkpt lat="43.23373" lon="0.14675">
        <ele>409</ele>
        <time>2024-04-17T13:42:38Z</time>
      </trkpt>
      <trkpt lat="43.23372" lon="0.14677">
        <ele>409</ele>
        <time>2024-04-17T13:42:39Z</time>
      </trkpt>
      <trkpt lat="43.23371" lon="0.14679">
        <ele>409</ele>
        <time>2024-04-17T13:42:40Z</time>
      </trkpt>
      <trkpt lat="43.2337" lon="0.14681">
        <ele>409</ele>
        <time>2024-04-17T13:42:41Z</time>
      </trkpt>
      <trkpt lat="43.2337" lon="0.14682">
        <ele>409</ele>
        <time>2024-04-17T13:42:42Z</time>
      </trkpt>
      <trkpt lat="43.2337" lon="0.14683">
        <ele>408.8</ele>
        <time>2024-04-17T13:42:43Z</time>
      </trkpt>
      <trkpt lat="43.2337" lon="0.14683">
        <ele>408.8</ele>
        <time>2024-04-17T13:42:44Z</time>
      </trkpt>
      <trkpt lat="43.2337" lon="0.14684">
        <ele>408.6</ele>
        <time>2024-04-17T13:42:45Z</time>
      </trkpt>
      <trkpt lat="43.23369" lon="0.14686">
        <ele>408.6</ele>
        <time>2024-04-17T13:42:46Z</time>
      </trkpt>
      <trkpt lat="43.23368" lon="0.14687">
        <ele>408.4</ele>
        <time>2024-04-17T13:42:47Z</time>
      </trkpt>
      <trkpt lat="43.23368" lon="0.14687">
        <ele>408.2</ele>
        <time>2024-04-17T13:42:48Z</time>
      </trkpt>
      <trkpt lat="43.23368" lon="0.14687">
        <ele>408.2</ele>
        <time>2024-04-17T13:42:49Z</time>
      </trkpt>
      <trkpt lat="43.23368" lon="0.14687">
        <ele>407.8</ele>
        <time>2024-04-17T13:42:50Z</time>
      </trkpt>
      <trkpt lat="43.23368" lon="0.14687">
        <ele>407.8</ele>
        <time>2024-04-17T13:42:51Z</time>
      </trkpt>
      <trkpt lat="43.23368" lon="0.14687">
        <ele>407.6</ele>
        <time>2024-04-17T13:42:52Z</time>
      </trkpt>
      <trkpt lat="43.23367" lon="0.14688">
        <ele>407.4</ele>
        <time>2024-04-17T13:42:53Z</time>
      </trkpt>
      <trkpt lat="43.23366" lon="0.14688">
        <ele>407.4</ele>
        <time>2024-04-17T13:42:54Z</time>
      </trkpt>
      <trkpt lat="43.23366" lon="0.1469">
        <ele>407.4</ele>
        <time>2024-04-17T13:42:55Z</time>
      </trkpt>
      <trkpt lat="43.23364" lon="0.14691">
        <ele>407.4</ele>
        <time>2024-04-17T13:42:56Z</time>
      </trkpt>
      <trkpt lat="43.23363" lon="0.14694">
        <ele>407.4</ele>
        <time>2024-04-17T13:42:57Z</time>
      </trkpt>
      <trkpt lat="43.23363" lon="0.14698">
        <ele>407.4</ele>
        <time>2024-04-17T13:42:58Z</time>
      </trkpt>
      <trkpt lat="43.23362" lon="0.14701">
        <ele>407.4</ele>
        <time>2024-04-17T13:42:59Z</time>
      </trkpt>
      <trkpt lat="43.23361" lon="0.14704">
        <ele>407.2</ele>
        <time>2024-04-17T13:43:00Z</time>
      </trkpt>
      <trkpt lat="43.2336" lon="0.14708">
        <ele>407.2</ele>
        <time>2024-04-17T13:43:01Z</time>
      </trkpt>
      <trkpt lat="43.23359" lon="0.14713">
        <ele>407</ele>
        <time>2024-04-17T13:43:02Z</time>
      </trkpt>
      <trkpt lat="43.23358" lon="0.14717">
        <ele>407</ele>
        <time>2024-04-17T13:43:03Z</time>
      </trkpt>
      <trkpt lat="43.23357" lon="0.1472">
        <ele>406.8</ele>
        <time>2024-04-17T13:43:04Z</time>
      </trkpt>
      <trkpt lat="43.23357" lon="0.14725">
        <ele>406.8</ele>
        <time>2024-04-17T13:43:05Z</time>
      </trkpt>
      <trkpt lat="43.23356" lon="0.14729">
        <ele>406.4</ele>
        <time>2024-04-17T13:43:06Z</time>
      </trkpt>
      <trkpt lat="43.23355" lon="0.14734">
        <ele>406.2</ele>
        <time>2024-04-17T13:43:07Z</time>
      </trkpt>
      <trkpt lat="43.23354" lon="0.1474">
        <ele>405.6</ele>
        <time>2024-04-17T13:43:08Z</time>
      </trkpt>
      <trkpt lat="43.23353" lon="0.14746">
        <ele>404.8</ele>
        <time>2024-04-17T13:43:09Z</time>
      </trkpt>
      <trkpt lat="43.23351" lon="0.14752">
        <ele>404.4</ele>
        <time>2024-04-17T13:43:10Z</time>
      </trkpt>
      <trkpt lat="43.2335" lon="0.14759">
        <ele>403.6</ele>
        <time>2024-04-17T13:43:11Z</time>
      </trkpt>
      <trkpt lat="43.23348" lon="0.14764">
        <ele>403</ele>
        <time>2024-04-17T13:43:12Z</time>
      </trkpt>
      <trkpt lat="43.23346" lon="0.1477">
        <ele>402.2</ele>
        <time>2024-04-17T13:43:13Z</time>
      </trkpt>
      <trkpt lat="43.23344" lon="0.14775">
        <ele>401.8</ele>
        <time>2024-04-17T13:43:14Z</time>
      </trkpt>
      <trkpt lat="43.23342" lon="0.14781">
        <ele>401.4</ele>
        <time>2024-04-17T13:43:15Z</time>
      </trkpt>
      <trkpt lat="43.2334" lon="0.14787">
        <ele>400.4</ele>
        <time>2024-04-17T13:43:16Z</time>
      </trkpt>
      <trkpt lat="43.23338" lon="0.14791">
        <ele>398.2</ele>
        <time>2024-04-17T13:43:17Z</time>
      </trkpt>
      <trkpt lat="43.23337" lon="0.14795">
        <ele>397</ele>
        <time>2024-04-17T13:43:18Z</time>
      </trkpt>
      <trkpt lat="43.23336" lon="0.14798">
        <ele>396.6</ele>
        <time>2024-04-17T13:43:19Z</time>
      </trkpt>
      <trkpt lat="43.23335" lon="0.14802">
        <ele>395.8</ele>
        <time>2024-04-17T13:43:20Z</time>
      </trkpt>
      <trkpt lat="43.23335" lon="0.14806">
        <ele>395.8</ele>
        <time>2024-04-17T13:43:21Z</time>
      </trkpt>
      <trkpt lat="43.23335" lon="0.14811">
        <ele>395.2</ele>
        <time>2024-04-17T13:43:22Z</time>
      </trkpt>
      <trkpt lat="43.23335" lon="0.14816">
        <ele>395</ele>
        <time>2024-04-17T13:43:23Z</time>
      </trkpt>
      <trkpt lat="43.23335" lon="0.14822">
        <ele>394.6</ele>
        <time>2024-04-17T13:43:24Z</time>
      </trkpt>
      <trkpt lat="43.23336" lon="0.14828">
        <ele>394.4</ele>
        <time>2024-04-17T13:43:25Z</time>
      </trkpt>
      <trkpt lat="43.23336" lon="0.14835">
        <ele>394.2</ele>
        <time>2024-04-17T13:43:26Z</time>
      </trkpt>
      <trkpt lat="43.23336" lon="0.14842">
        <ele>394</ele>
        <time>2024-04-17T13:43:27Z</time>
      </trkpt>
      <trkpt lat="43.23336" lon="0.1485">
        <ele>393.8</ele>
        <time>2024-04-17T13:43:28Z</time>
      </trkpt>
      <trkpt lat="43.23337" lon="0.14859">
        <ele>393.6</ele>
        <time>2024-04-17T13:43:29Z</time>
      </trkpt>
      <trkpt lat="43.23337" lon="0.14868">
        <ele>393.6</ele>
        <time>2024-04-17T13:43:30Z</time>
      </trkpt>
      <trkpt lat="43.23338" lon="0.14877">
        <ele>392.2</ele>
        <time>2024-04-17T13:43:31Z</time>
      </trkpt>
      <trkpt lat="43.23338" lon="0.14884">
        <ele>391.6</ele>
        <time>2024-04-17T13:43:32Z</time>
      </trkpt>
      <trkpt lat="43.23338" lon="0.14893">
        <ele>390.6</ele>
        <time>2024-04-17T13:43:33Z</time>
      </trkpt>
      <trkpt lat="43.23338" lon="0.14901">
        <ele>389.6</ele>
        <time>2024-04-17T13:43:34Z</time>
      </trkpt>
      <trkpt lat="43.23337" lon="0.14907">
        <ele>389.2</ele>
        <time>2024-04-17T13:43:35Z</time>
      </trkpt>
      <trkpt lat="43.23337" lon="0.14912">
        <ele>388.4</ele>
        <time>2024-04-17T13:43:36Z</time>
      </trkpt>
      <trkpt lat="43.23336" lon="0.14915">
        <ele>388</ele>
        <time>2024-04-17T13:43:37Z</time>
      </trkpt>
      <trkpt lat="43.23336" lon="0.14918">
        <ele>387.4</ele>
        <time>2024-04-17T13:43:38Z</time>
      </trkpt>
      <trkpt lat="43.23335" lon="0.1492">
        <ele>387.2</ele>
        <time>2024-04-17T13:43:39Z</time>
      </trkpt>
      <trkpt lat="43.23335" lon="0.14923">
        <ele>386.6</ele>
        <time>2024-04-17T13:43:40Z</time>
      </trkpt>
      <trkpt lat="43.23334" lon="0.14925">
        <ele>386.2</ele>
        <time>2024-04-17T13:43:41Z</time>
      </trkpt>
      <trkpt lat="43.23333" lon="0.14928">
        <ele>386.2</ele>
        <time>2024-04-17T13:43:42Z</time>
      </trkpt>
      <trkpt lat="43.23333" lon="0.14934">
        <ele>385.8</ele>
        <time>2024-04-17T13:43:43Z</time>
      </trkpt>
      <trkpt lat="43.23332" lon="0.14939">
        <ele>385.8</ele>
        <time>2024-04-17T13:43:44Z</time>
      </trkpt>
      <trkpt lat="43.23332" lon="0.14944">
        <ele>385.6</ele>
        <time>2024-04-17T13:43:45Z</time>
      </trkpt>
      <trkpt lat="43.23332" lon="0.1495">
        <ele>385.6</ele>
        <time>2024-04-17T13:43:46Z</time>
      </trkpt>
      <trkpt lat="43.23332" lon="0.14957">
        <ele>385.4</ele>
        <time>2024-04-17T13:43:47Z</time>
      </trkpt>
      <trkpt lat="43.23334" lon="0.14963">
        <ele>385.2</ele>
        <time>2024-04-17T13:43:48Z</time>
      </trkpt>
      <trkpt lat="43.23335" lon="0.14968">
        <ele>385.2</ele>
        <time>2024-04-17T13:43:49Z</time>
      </trkpt>
      <trkpt lat="43.23336" lon="0.14973">
        <ele>385</ele>
        <time>2024-04-17T13:43:50Z</time>
      </trkpt>
      <trkpt lat="43.23336" lon="0.14977">
        <ele>384.8</ele>
        <time>2024-04-17T13:43:51Z</time>
      </trkpt>
      <trkpt lat="43.23335" lon="0.14982">
        <ele>384.6</ele>
        <time>2024-04-17T13:43:52Z</time>
      </trkpt>
      <trkpt lat="43.23335" lon="0.14987">
        <ele>384.6</ele>
        <time>2024-04-17T13:43:53Z</time>
      </trkpt>
      <trkpt lat="43.23335" lon="0.14994">
        <ele>384.6</ele>
        <time>2024-04-17T13:43:54Z</time>
      </trkpt>
      <trkpt lat="43.23337" lon="0.15001">
        <ele>384.4</ele>
        <time>2024-04-17T13:43:55Z</time>
      </trkpt>
      <trkpt lat="43.23338" lon="0.15007">
        <ele>384.2</ele>
        <time>2024-04-17T13:43:56Z</time>
      </trkpt>
      <trkpt lat="43.23339" lon="0.15013">
        <ele>384.2</ele>
        <time>2024-04-17T13:43:57Z</time>
      </trkpt>
      <trkpt lat="43.23339" lon="0.15019">
        <ele>384</ele>
        <time>2024-04-17T13:43:58Z</time>
      </trkpt>
      <trkpt lat="43.2334" lon="0.15026">
        <ele>384</ele>
        <time>2024-04-17T13:43:59Z</time>
      </trkpt>
      <trkpt lat="43.23341" lon="0.15035">
        <ele>384</ele>
        <time>2024-04-17T13:44:00Z</time>
      </trkpt>
      <trkpt lat="43.23342" lon="0.15043">
        <ele>383.8</ele>
        <time>2024-04-17T13:44:01Z</time>
      </trkpt>
      <trkpt lat="43.23343" lon="0.15052">
        <ele>383.6</ele>
        <time>2024-04-17T13:44:02Z</time>
      </trkpt>
      <trkpt lat="43.23344" lon="0.15061">
        <ele>383.4</ele>
        <time>2024-04-17T13:44:03Z</time>
      </trkpt>
      <trkpt lat="43.23345" lon="0.15069">
        <ele>383.2</ele>
        <time>2024-04-17T13:44:04Z</time>
      </trkpt>
      <trkpt lat="43.23345" lon="0.15077">
        <ele>382.4</ele>
        <time>2024-04-17T13:44:05Z</time>
      </trkpt>
      <trkpt lat="43.23346" lon="0.15084">
        <ele>381.4</ele>
        <time>2024-04-17T13:44:06Z</time>
      </trkpt>
      <trkpt lat="43.23346" lon="0.1509">
        <ele>381</ele>
        <time>2024-04-17T13:44:07Z</time>
      </trkpt>
      <trkpt lat="43.23348" lon="0.15097">
        <ele>380.4</ele>
        <time>2024-04-17T13:44:08Z</time>
      </trkpt>
      <trkpt lat="43.23349" lon="0.15104">
        <ele>380.2</ele>
        <time>2024-04-17T13:44:09Z</time>
      </trkpt>
      <trkpt lat="43.23351" lon="0.15112">
        <ele>379.8</ele>
        <time>2024-04-17T13:44:10Z</time>
      </trkpt>
      <trkpt lat="43.23354" lon="0.15119">
        <ele>379.6</ele>
        <time>2024-04-17T13:44:11Z</time>
      </trkpt>
      <trkpt lat="43.23357" lon="0.15126">
        <ele>379.2</ele>
        <time>2024-04-17T13:44:12Z</time>
      </trkpt>
      <trkpt lat="43.23359" lon="0.15134">
        <ele>378.8</ele>
        <time>2024-04-17T13:44:13Z</time>
      </trkpt>
      <trkpt lat="43.23362" lon="0.15142">
        <ele>378.2</ele>
        <time>2024-04-17T13:44:14Z</time>
      </trkpt>
      <trkpt lat="43.23364" lon="0.1515">
        <ele>378</ele>
        <time>2024-04-17T13:44:15Z</time>
      </trkpt>
      <trkpt lat="43.23365" lon="0.15159">
        <ele>377.8</ele>
        <time>2024-04-17T13:44:16Z</time>
      </trkpt>
      <trkpt lat="43.23365" lon="0.15168">
        <ele>377.4</ele>
        <time>2024-04-17T13:44:17Z</time>
      </trkpt>
      <trkpt lat="43.23365" lon="0.15177">
        <ele>377.2</ele>
        <time>2024-04-17T13:44:18Z</time>
      </trkpt>
      <trkpt lat="43.23364" lon="0.15185">
        <ele>376.8</ele>
        <time>2024-04-17T13:44:19Z</time>
      </trkpt>
      <trkpt lat="43.23363" lon="0.15192">
        <ele>376.6</ele>
        <time>2024-04-17T13:44:20Z</time>
      </trkpt>
      <trkpt lat="43.23362" lon="0.15199">
        <ele>376</ele>
        <time>2024-04-17T13:44:21Z</time>
      </trkpt>
      <trkpt lat="43.23361" lon="0.15205">
        <ele>374.8</ele>
        <time>2024-04-17T13:44:22Z</time>
      </trkpt>
      <trkpt lat="43.23359" lon="0.1521">
        <ele>374.6</ele>
        <time>2024-04-17T13:44:23Z</time>
      </trkpt>
      <trkpt lat="43.23357" lon="0.15216">
        <ele>374</ele>
        <time>2024-04-17T13:44:24Z</time>
      </trkpt>
      <trkpt lat="43.23356" lon="0.15221">
        <ele>373.6</ele>
        <time>2024-04-17T13:44:25Z</time>
      </trkpt>
      <trkpt lat="43.23354" lon="0.15225">
        <ele>373</ele>
        <time>2024-04-17T13:44:26Z</time>
      </trkpt>
      <trkpt lat="43.23353" lon="0.1523">
        <ele>373</ele>
        <time>2024-04-17T13:44:27Z</time>
      </trkpt>
      <trkpt lat="43.23352" lon="0.15234">
        <ele>373</ele>
        <time>2024-04-17T13:44:28Z</time>
      </trkpt>
      <trkpt lat="43.23351" lon="0.15238">
        <ele>372.8</ele>
        <time>2024-04-17T13:44:29Z</time>
      </trkpt>
      <trkpt lat="43.2335" lon="0.15242">
        <ele>372.8</ele>
        <time>2024-04-17T13:44:30Z</time>
      </trkpt>
      <trkpt lat="43.23349" lon="0.15247">
        <ele>373</ele>
        <time>2024-04-17T13:44:31Z</time>
      </trkpt>
      <trkpt lat="43.23348" lon="0.15253">
        <ele>373.2</ele>
        <time>2024-04-17T13:44:32Z</time>
      </trkpt>
      <trkpt lat="43.23347" lon="0.1526">
        <ele>373</ele>
        <time>2024-04-17T13:44:33Z</time>
      </trkpt>
      <trkpt lat="43.23345" lon="0.15267">
        <ele>373</ele>
        <time>2024-04-17T13:44:34Z</time>
      </trkpt>
      <trkpt lat="43.23343" lon="0.15274">
        <ele>373</ele>
        <time>2024-04-17T13:44:35Z</time>
      </trkpt>
      <trkpt lat="43.23341" lon="0.15282">
        <ele>373</ele>
        <time>2024-04-17T13:44:36Z</time>
      </trkpt>
      <trkpt lat="43.23339" lon="0.15288">
        <ele>373</ele>
        <time>2024-04-17T13:44:37Z</time>
      </trkpt>
      <trkpt lat="43.23338" lon="0.15294">
        <ele>373</ele>
        <time>2024-04-17T13:44:38Z</time>
      </trkpt>
      <trkpt lat="43.23336" lon="0.15299">
        <ele>372.6</ele>
        <time>2024-04-17T13:44:39Z</time>
      </trkpt>
      <trkpt lat="43.23335" lon="0.15303">
        <ele>372.6</ele>
        <time>2024-04-17T13:44:40Z</time>
      </trkpt>
      <trkpt lat="43.23333" lon="0.15308">
        <ele>371.8</ele>
        <time>2024-04-17T13:44:41Z</time>
      </trkpt>
      <trkpt lat="43.23332" lon="0.15312">
        <ele>371.2</ele>
        <time>2024-04-17T13:44:42Z</time>
      </trkpt>
      <trkpt lat="43.23331" lon="0.15316">
        <ele>371</ele>
        <time>2024-04-17T13:44:43Z</time>
      </trkpt>
      <trkpt lat="43.2333" lon="0.15319">
        <ele>370.8</ele>
        <time>2024-04-17T13:44:44Z</time>
      </trkpt>
      <trkpt lat="43.23329" lon="0.15322">
        <ele>370.6</ele>
        <time>2024-04-17T13:44:45Z</time>
      </trkpt>
      <trkpt lat="43.23328" lon="0.15324">
        <ele>370.2</ele>
        <time>2024-04-17T13:44:46Z</time>
      </trkpt>
      <trkpt lat="43.23327" lon="0.15327">
        <ele>370</ele>
        <time>2024-04-17T13:44:47Z</time>
      </trkpt>
      <trkpt lat="43.23327" lon="0.15331">
        <ele>370</ele>
        <time>2024-04-17T13:44:48Z</time>
      </trkpt>
      <trkpt lat="43.23328" lon="0.15334">
        <ele>369.8</ele>
        <time>2024-04-17T13:44:49Z</time>
      </trkpt>
      <trkpt lat="43.23328" lon="0.15336">
        <ele>369.8</ele>
        <time>2024-04-17T13:44:50Z</time>
      </trkpt>
      <trkpt lat="43.23328" lon="0.15339">
        <ele>369.8</ele>
        <time>2024-04-17T13:44:51Z</time>
      </trkpt>
      <trkpt lat="43.23329" lon="0.15341">
        <ele>369.8</ele>
        <time>2024-04-17T13:44:52Z</time>
      </trkpt>
      <trkpt lat="43.2333" lon="0.15344">
        <ele>369.8</ele>
        <time>2024-04-17T13:44:53Z</time>
      </trkpt>
      <trkpt lat="43.2333" lon="0.15348">
        <ele>369.8</ele>
        <time>2024-04-17T13:44:54Z</time>
      </trkpt>
      <trkpt lat="43.2333" lon="0.15352">
        <ele>369.8</ele>
        <time>2024-04-17T13:44:55Z</time>
      </trkpt>
      <trkpt lat="43.2333" lon="0.15356">
        <ele>369.8</ele>
        <time>2024-04-17T13:44:56Z</time>
      </trkpt>
      <trkpt lat="43.2333" lon="0.15361">
        <ele>369.8</ele>
        <time>2024-04-17T13:44:57Z</time>
      </trkpt>
      <trkpt lat="43.23329" lon="0.15365">
        <ele>369.8</ele>
        <time>2024-04-17T13:44:58Z</time>
      </trkpt>
      <trkpt lat="43.23328" lon="0.15369">
        <ele>369.8</ele>
        <time>2024-04-17T13:44:59Z</time>
      </trkpt>
      <trkpt lat="43.23328" lon="0.15374">
        <ele>369.6</ele>
        <time>2024-04-17T13:45:00Z</time>
      </trkpt>
      <trkpt lat="43.23327" lon="0.15379">
        <ele>369.6</ele>
        <time>2024-04-17T13:45:01Z</time>
      </trkpt>
      <trkpt lat="43.23325" lon="0.15385">
        <ele>369.6</ele>
        <time>2024-04-17T13:45:02Z</time>
      </trkpt>
      <trkpt lat="43.23324" lon="0.1539">
        <ele>369.6</ele>
        <time>2024-04-17T13:45:03Z</time>
      </trkpt>
      <trkpt lat="43.23323" lon="0.15396">
        <ele>369.4</ele>
        <time>2024-04-17T13:45:04Z</time>
      </trkpt>
      <trkpt lat="43.23322" lon="0.15402">
        <ele>369.4</ele>
        <time>2024-04-17T13:45:05Z</time>
      </trkpt>
      <trkpt lat="43.23321" lon="0.15408">
        <ele>369.4</ele>
        <time>2024-04-17T13:45:06Z</time>
      </trkpt>
      <trkpt lat="43.2332" lon="0.15413">
        <ele>369.2</ele>
        <time>2024-04-17T13:45:07Z</time>
      </trkpt>
      <trkpt lat="43.2332" lon="0.15418">
        <ele>369</ele>
        <time>2024-04-17T13:45:08Z</time>
      </trkpt>
      <trkpt lat="43.23318" lon="0.15423">
        <ele>368.8</ele>
        <time>2024-04-17T13:45:09Z</time>
      </trkpt>
      <trkpt lat="43.23317" lon="0.15429">
        <ele>368.6</ele>
        <time>2024-04-17T13:45:10Z</time>
      </trkpt>
      <trkpt lat="43.23317" lon="0.15435">
        <ele>368.2</ele>
        <time>2024-04-17T13:45:11Z</time>
      </trkpt>
      <trkpt lat="43.23316" lon="0.1544">
        <ele>368</ele>
        <time>2024-04-17T13:45:12Z</time>
      </trkpt>
      <trkpt lat="43.23315" lon="0.15445">
        <ele>367.8</ele>
        <time>2024-04-17T13:45:13Z</time>
      </trkpt>
      <trkpt lat="43.23315" lon="0.1545">
        <ele>367.6</ele>
        <time>2024-04-17T13:45:14Z</time>
      </trkpt>
      <trkpt lat="43.23315" lon="0.15456">
        <ele>367.4</ele>
        <time>2024-04-17T13:45:15Z</time>
      </trkpt>
      <trkpt lat="43.23314" lon="0.15463">
        <ele>367.2</ele>
        <time>2024-04-17T13:45:16Z</time>
      </trkpt>
      <trkpt lat="43.23313" lon="0.1547">
        <ele>367.2</ele>
        <time>2024-04-17T13:45:17Z</time>
      </trkpt>
      <trkpt lat="43.23313" lon="0.15478">
        <ele>366.8</ele>
        <time>2024-04-17T13:45:18Z</time>
      </trkpt>
      <trkpt lat="43.23313" lon="0.15486">
        <ele>366.2</ele>
        <time>2024-04-17T13:45:19Z</time>
      </trkpt>
      <trkpt lat="43.23313" lon="0.15493">
        <ele>365.8</ele>
        <time>2024-04-17T13:45:20Z</time>
      </trkpt>
      <trkpt lat="43.23313" lon="0.15501">
        <ele>365.4</ele>
        <time>2024-04-17T13:45:21Z</time>
      </trkpt>
      <trkpt lat="43.23314" lon="0.15509">
        <ele>365.2</ele>
        <time>2024-04-17T13:45:22Z</time>
      </trkpt>
      <trkpt lat="43.23314" lon="0.15517">
        <ele>365</ele>
        <time>2024-04-17T13:45:23Z</time>
      </trkpt>
      <trkpt lat="43.23313" lon="0.15525">
        <ele>365</ele>
        <time>2024-04-17T13:45:24Z</time>
      </trkpt>
      <trkpt lat="43.23312" lon="0.15532">
        <ele>364.8</ele>
        <time>2024-04-17T13:45:25Z</time>
      </trkpt>
      <trkpt lat="43.23311" lon="0.15538">
        <ele>364.6</ele>
        <time>2024-04-17T13:45:26Z</time>
      </trkpt>
      <trkpt lat="43.2331" lon="0.15544">
        <ele>364.4</ele>
        <time>2024-04-17T13:45:27Z</time>
      </trkpt>
      <trkpt lat="43.23308" lon="0.1555">
        <ele>364.2</ele>
        <time>2024-04-17T13:45:28Z</time>
      </trkpt>
      <trkpt lat="43.23307" lon="0.15556">
        <ele>364</ele>
        <time>2024-04-17T13:45:29Z</time>
      </trkpt>
      <trkpt lat="43.23305" lon="0.15561">
        <ele>364</ele>
        <time>2024-04-17T13:45:30Z</time>
      </trkpt>
      <trkpt lat="43.23304" lon="0.15565">
        <ele>364</ele>
        <time>2024-04-17T13:45:31Z</time>
      </trkpt>
      <trkpt lat="43.23303" lon="0.1557">
        <ele>363.8</ele>
        <time>2024-04-17T13:45:32Z</time>
      </trkpt>
      <trkpt lat="43.23302" lon="0.15575">
        <ele>363.8</ele>
        <time>2024-04-17T13:45:33Z</time>
      </trkpt>
      <trkpt lat="43.233" lon="0.15579">
        <ele>363.8</ele>
        <time>2024-04-17T13:45:34Z</time>
      </trkpt>
      <trkpt lat="43.23299" lon="0.15584">
        <ele>363.8</ele>
        <time>2024-04-17T13:45:35Z</time>
      </trkpt>
      <trkpt lat="43.23297" lon="0.15588">
        <ele>363.8</ele>
        <time>2024-04-17T13:45:36Z</time>
      </trkpt>
      <trkpt lat="43.23295" lon="0.15592">
        <ele>363.6</ele>
        <time>2024-04-17T13:45:37Z</time>
      </trkpt>
      <trkpt lat="43.23293" lon="0.15597">
        <ele>363.6</ele>
        <time>2024-04-17T13:45:38Z</time>
      </trkpt>
      <trkpt lat="43.23291" lon="0.15602">
        <ele>363.4</ele>
        <time>2024-04-17T13:45:39Z</time>
      </trkpt>
      <trkpt lat="43.2329" lon="0.15607">
        <ele>363.4</ele>
        <time>2024-04-17T13:45:40Z</time>
      </trkpt>
      <trkpt lat="43.23288" lon="0.15612">
        <ele>363.4</ele>
        <time>2024-04-17T13:45:41Z</time>
      </trkpt>
      <trkpt lat="43.23286" lon="0.15617">
        <ele>363.4</ele>
        <time>2024-04-17T13:45:42Z</time>
      </trkpt>
      <trkpt lat="43.23284" lon="0.15622">
        <ele>363.4</ele>
        <time>2024-04-17T13:45:43Z</time>
      </trkpt>
      <trkpt lat="43.23282" lon="0.15628">
        <ele>363.4</ele>
        <time>2024-04-17T13:45:44Z</time>
      </trkpt>
      <trkpt lat="43.2328" lon="0.15633">
        <ele>363.4</ele>
        <time>2024-04-17T13:45:45Z</time>
      </trkpt>
      <trkpt lat="43.23278" lon="0.15639">
        <ele>363.2</ele>
        <time>2024-04-17T13:45:46Z</time>
      </trkpt>
      <trkpt lat="43.23277" lon="0.15645">
        <ele>363.2</ele>
        <time>2024-04-17T13:45:47Z</time>
      </trkpt>
      <trkpt lat="43.23275" lon="0.1565">
        <ele>363.2</ele>
        <time>2024-04-17T13:45:48Z</time>
      </trkpt>
      <trkpt lat="43.23273" lon="0.15657">
        <ele>363.2</ele>
        <time>2024-04-17T13:45:49Z</time>
      </trkpt>
      <trkpt lat="43.23272" lon="0.15664">
        <ele>363.2</ele>
        <time>2024-04-17T13:45:50Z</time>
      </trkpt>
      <trkpt lat="43.2327" lon="0.15671">
        <ele>363</ele>
        <time>2024-04-17T13:45:51Z</time>
      </trkpt>
      <trkpt lat="43.23268" lon="0.15678">
        <ele>362.8</ele>
        <time>2024-04-17T13:45:52Z</time>
      </trkpt>
      <trkpt lat="43.23266" lon="0.15685">
        <ele>362.6</ele>
        <time>2024-04-17T13:45:53Z</time>
      </trkpt>
      <trkpt lat="43.23264" lon="0.15693">
        <ele>362.6</ele>
        <time>2024-04-17T13:45:54Z</time>
      </trkpt>
      <trkpt lat="43.23262" lon="0.157">
        <ele>362.4</ele>
        <time>2024-04-17T13:45:55Z</time>
      </trkpt>
      <trkpt lat="43.23261" lon="0.15708">
        <ele>362.2</ele>
        <time>2024-04-17T13:45:56Z</time>
      </trkpt>
      <trkpt lat="43.23259" lon="0.15715">
        <ele>361.6</ele>
        <time>2024-04-17T13:45:57Z</time>
      </trkpt>
      <trkpt lat="43.23258" lon="0.15722">
        <ele>361.4</ele>
        <time>2024-04-17T13:45:58Z</time>
      </trkpt>
      <trkpt lat="43.23257" lon="0.15729">
        <ele>361</ele>
        <time>2024-04-17T13:45:59Z</time>
      </trkpt>
      <trkpt lat="43.23255" lon="0.15736">
        <ele>360.8</ele>
        <time>2024-04-17T13:46:00Z</time>
      </trkpt>
      <trkpt lat="43.23253" lon="0.15745">
        <ele>360.6</ele>
        <time>2024-04-17T13:46:01Z</time>
      </trkpt>
      <trkpt lat="43.23251" lon="0.15753">
        <ele>360.4</ele>
        <time>2024-04-17T13:46:02Z</time>
      </trkpt>
      <trkpt lat="43.23249" lon="0.15761">
        <ele>360.2</ele>
        <time>2024-04-17T13:46:03Z</time>
      </trkpt>
      <trkpt lat="43.23247" lon="0.15769">
        <ele>360</ele>
        <time>2024-04-17T13:46:04Z</time>
      </trkpt>
      <trkpt lat="43.23244" lon="0.15777">
        <ele>359.8</ele>
        <time>2024-04-17T13:46:05Z</time>
      </trkpt>
      <trkpt lat="43.23242" lon="0.15787">
        <ele>358.8</ele>
        <time>2024-04-17T13:46:06Z</time>
      </trkpt>
      <trkpt lat="43.2324" lon="0.15796">
        <ele>358.4</ele>
        <time>2024-04-17T13:46:07Z</time>
      </trkpt>
      <trkpt lat="43.23238" lon="0.15805">
        <ele>358.2</ele>
        <time>2024-04-17T13:46:08Z</time>
      </trkpt>
      <trkpt lat="43.23235" lon="0.15815">
        <ele>357.4</ele>
        <time>2024-04-17T13:46:09Z</time>
      </trkpt>
      <trkpt lat="43.23233" lon="0.15823">
        <ele>357</ele>
        <time>2024-04-17T13:46:10Z</time>
      </trkpt>
      <trkpt lat="43.2323" lon="0.15832">
        <ele>356.2</ele>
        <time>2024-04-17T13:46:11Z</time>
      </trkpt>
      <trkpt lat="43.23227" lon="0.15842">
        <ele>356</ele>
        <time>2024-04-17T13:46:12Z</time>
      </trkpt>
      <trkpt lat="43.23225" lon="0.15851">
        <ele>355.6</ele>
        <time>2024-04-17T13:46:13Z</time>
      </trkpt>
      <trkpt lat="43.23223" lon="0.1586">
        <ele>355.6</ele>
        <time>2024-04-17T13:46:14Z</time>
      </trkpt>
      <trkpt lat="43.2322" lon="0.15869">
        <ele>355</ele>
        <time>2024-04-17T13:46:15Z</time>
      </trkpt>
      <trkpt lat="43.23218" lon="0.15878">
        <ele>354.4</ele>
        <time>2024-04-17T13:46:16Z</time>
      </trkpt>
      <trkpt lat="43.23216" lon="0.15886">
        <ele>354.2</ele>
        <time>2024-04-17T13:46:17Z</time>
      </trkpt>
      <trkpt lat="43.23214" lon="0.15894">
        <ele>354</ele>
        <time>2024-04-17T13:46:18Z</time>
      </trkpt>
      <trkpt lat="43.23211" lon="0.15902">
        <ele>354</ele>
        <time>2024-04-17T13:46:19Z</time>
      </trkpt>
      <trkpt lat="43.23209" lon="0.1591">
        <ele>353.8</ele>
        <time>2024-04-17T13:46:20Z</time>
      </trkpt>
      <trkpt lat="43.23206" lon="0.15918">
        <ele>353.6</ele>
        <time>2024-04-17T13:46:21Z</time>
      </trkpt>
      <trkpt lat="43.23204" lon="0.15924">
        <ele>353</ele>
        <time>2024-04-17T13:46:22Z</time>
      </trkpt>
      <trkpt lat="43.23203" lon="0.15929">
        <ele>352.8</ele>
        <time>2024-04-17T13:46:23Z</time>
      </trkpt>
      <trkpt lat="43.23201" lon="0.15934">
        <ele>352.4</ele>
        <time>2024-04-17T13:46:24Z</time>
      </trkpt>
      <trkpt lat="43.232" lon="0.15938">
        <ele>352</ele>
        <time>2024-04-17T13:46:25Z</time>
      </trkpt>
      <trkpt lat="43.23198" lon="0.15941">
        <ele>351.8</ele>
        <time>2024-04-17T13:46:26Z</time>
      </trkpt>
      <trkpt lat="43.23197" lon="0.15944">
        <ele>351.4</ele>
        <time>2024-04-17T13:46:27Z</time>
      </trkpt>
      <trkpt lat="43.23196" lon="0.15946">
        <ele>351.2</ele>
        <time>2024-04-17T13:46:28Z</time>
      </trkpt>
      <trkpt lat="43.23195" lon="0.15947">
        <ele>350.6</ele>
        <time>2024-04-17T13:46:29Z</time>
      </trkpt>
      <trkpt lat="43.23194" lon="0.1595">
        <ele>350.4</ele>
        <time>2024-04-17T13:46:30Z</time>
      </trkpt>
      <trkpt lat="43.23192" lon="0.15951">
        <ele>350</ele>
        <time>2024-04-17T13:46:31Z</time>
      </trkpt>
      <trkpt lat="43.23192" lon="0.15953">
        <ele>350</ele>
        <time>2024-04-17T13:46:32Z</time>
      </trkpt>
      <trkpt lat="43.23191" lon="0.15956">
        <ele>349.8</ele>
        <time>2024-04-17T13:46:33Z</time>
      </trkpt>
      <trkpt lat="43.23191" lon="0.15959">
        <ele>349.8</ele>
        <time>2024-04-17T13:46:34Z</time>
      </trkpt>
      <trkpt lat="43.2319" lon="0.15961">
        <ele>349.6</ele>
        <time>2024-04-17T13:46:35Z</time>
      </trkpt>
      <trkpt lat="43.23189" lon="0.15964">
        <ele>349.6</ele>
        <time>2024-04-17T13:46:36Z</time>
      </trkpt>
      <trkpt lat="43.23188" lon="0.15967">
        <ele>349.4</ele>
        <time>2024-04-17T13:46:37Z</time>
      </trkpt>
      <trkpt lat="43.23186" lon="0.1597">
        <ele>349.4</ele>
        <time>2024-04-17T13:46:38Z</time>
      </trkpt>
      <trkpt lat="43.23185" lon="0.15973">
        <ele>349.4</ele>
        <time>2024-04-17T13:46:39Z</time>
      </trkpt>
      <trkpt lat="43.23184" lon="0.15977">
        <ele>349</ele>
        <time>2024-04-17T13:46:40Z</time>
      </trkpt>
      <trkpt lat="43.23183" lon="0.1598">
        <ele>348.8</ele>
        <time>2024-04-17T13:46:41Z</time>
      </trkpt>
      <trkpt lat="43.23181" lon="0.15984">
        <ele>349</ele>
        <time>2024-04-17T13:46:42Z</time>
      </trkpt>
      <trkpt lat="43.2318" lon="0.15987">
        <ele>348.6</ele>
        <time>2024-04-17T13:46:43Z</time>
      </trkpt>
      <trkpt lat="43.23178" lon="0.15991">
        <ele>348.4</ele>
        <time>2024-04-17T13:46:44Z</time>
      </trkpt>
      <trkpt lat="43.23177" lon="0.15996">
        <ele>348.2</ele>
        <time>2024-04-17T13:46:45Z</time>
      </trkpt>
      <trkpt lat="43.23176" lon="0.16001">
        <ele>348</ele>
        <time>2024-04-17T13:46:46Z</time>
      </trkpt>
      <trkpt lat="43.23174" lon="0.16004">
        <ele>347.6</ele>
        <time>2024-04-17T13:46:47Z</time>
      </trkpt>
      <trkpt lat="43.23172" lon="0.16007">
        <ele>347.4</ele>
        <time>2024-04-17T13:46:48Z</time>
      </trkpt>
      <trkpt lat="43.2317" lon="0.16009">
        <ele>347.4</ele>
        <time>2024-04-17T13:46:49Z</time>
      </trkpt>
      <trkpt lat="43.23169" lon="0.16012">
        <ele>347.2</ele>
        <time>2024-04-17T13:46:50Z</time>
      </trkpt>
      <trkpt lat="43.23167" lon="0.16015">
        <ele>347.2</ele>
        <time>2024-04-17T13:46:51Z</time>
      </trkpt>
      <trkpt lat="43.23166" lon="0.16018">
        <ele>347.2</ele>
        <time>2024-04-17T13:46:52Z</time>
      </trkpt>
      <trkpt lat="43.23165" lon="0.16021">
        <ele>347.2</ele>
        <time>2024-04-17T13:46:53Z</time>
      </trkpt>
      <trkpt lat="43.23163" lon="0.16024">
        <ele>347</ele>
        <time>2024-04-17T13:46:54Z</time>
      </trkpt>
      <trkpt lat="43.23162" lon="0.16027">
        <ele>347</ele>
        <time>2024-04-17T13:46:55Z</time>
      </trkpt>
      <trkpt lat="43.2316" lon="0.1603">
        <ele>347</ele>
        <time>2024-04-17T13:46:56Z</time>
      </trkpt>
      <trkpt lat="43.23158" lon="0.16033">
        <ele>347</ele>
        <time>2024-04-17T13:46:57Z</time>
      </trkpt>
      <trkpt lat="43.23156" lon="0.16037">
        <ele>347</ele>
        <time>2024-04-17T13:46:58Z</time>
      </trkpt>
      <trkpt lat="43.23154" lon="0.1604">
        <ele>346.6</ele>
        <time>2024-04-17T13:46:59Z</time>
      </trkpt>
      <trkpt lat="43.23153" lon="0.16043">
        <ele>346.8</ele>
        <time>2024-04-17T13:47:00Z</time>
      </trkpt>
      <trkpt lat="43.23151" lon="0.16046">
        <ele>346.6</ele>
        <time>2024-04-17T13:47:01Z</time>
      </trkpt>
      <trkpt lat="43.23151" lon="0.16048">
        <ele>346.8</ele>
        <time>2024-04-17T13:47:02Z</time>
      </trkpt>
      <trkpt lat="43.2315" lon="0.1605">
        <ele>346.8</ele>
        <time>2024-04-17T13:47:03Z</time>
      </trkpt>
      <trkpt lat="43.23148" lon="0.16053">
        <ele>346.6</ele>
        <time>2024-04-17T13:47:04Z</time>
      </trkpt>
      <trkpt lat="43.23147" lon="0.16056">
        <ele>346.6</ele>
        <time>2024-04-17T13:47:05Z</time>
      </trkpt>
      <trkpt lat="43.23145" lon="0.16059">
        <ele>346.6</ele>
        <time>2024-04-17T13:47:06Z</time>
      </trkpt>
      <trkpt lat="43.23143" lon="0.16061">
        <ele>346.6</ele>
        <time>2024-04-17T13:47:07Z</time>
      </trkpt>
      <trkpt lat="43.23141" lon="0.16064">
        <ele>346.6</ele>
        <time>2024-04-17T13:47:08Z</time>
      </trkpt>
      <trkpt lat="43.23138" lon="0.16067">
        <ele>346.6</ele>
        <time>2024-04-17T13:47:09Z</time>
      </trkpt>
      <trkpt lat="43.23135" lon="0.16073">
        <ele>346.6</ele>
        <time>2024-04-17T13:47:10Z</time>
      </trkpt>
      <trkpt lat="43.23132" lon="0.16077">
        <ele>346.6</ele>
        <time>2024-04-17T13:47:11Z</time>
      </trkpt>
      <trkpt lat="43.2313" lon="0.1608">
        <ele>346.4</ele>
        <time>2024-04-17T13:47:12Z</time>
      </trkpt>
      <trkpt lat="43.23128" lon="0.16084">
        <ele>346.4</ele>
        <time>2024-04-17T13:47:13Z</time>
      </trkpt>
      <trkpt lat="43.23126" lon="0.16087">
        <ele>346.2</ele>
        <time>2024-04-17T13:47:14Z</time>
      </trkpt>
      <trkpt lat="43.23123" lon="0.1609">
        <ele>345.8</ele>
        <time>2024-04-17T13:47:15Z</time>
      </trkpt>
      <trkpt lat="43.23121" lon="0.16092">
        <ele>345.6</ele>
        <time>2024-04-17T13:47:16Z</time>
      </trkpt>
      <trkpt lat="43.23118" lon="0.16095">
        <ele>345.4</ele>
        <time>2024-04-17T13:47:17Z</time>
      </trkpt>
      <trkpt lat="43.23114" lon="0.16098">
        <ele>345.2</ele>
        <time>2024-04-17T13:47:18Z</time>
      </trkpt>
      <trkpt lat="43.2311" lon="0.16102">
        <ele>345</ele>
        <time>2024-04-17T13:47:19Z</time>
      </trkpt>
      <trkpt lat="43.23106" lon="0.16103">
        <ele>344.8</ele>
        <time>2024-04-17T13:47:20Z</time>
      </trkpt>
      <trkpt lat="43.23103" lon="0.16106">
        <ele>344.6</ele>
        <time>2024-04-17T13:47:21Z</time>
      </trkpt>
      <trkpt lat="43.23099" lon="0.16109">
        <ele>344.2</ele>
        <time>2024-04-17T13:47:22Z</time>
      </trkpt>
      <trkpt lat="43.23095" lon="0.16111">
        <ele>344.2</ele>
        <time>2024-04-17T13:47:23Z</time>
      </trkpt>
      <trkpt lat="43.23091" lon="0.16114">
        <ele>344</ele>
        <time>2024-04-17T13:47:24Z</time>
      </trkpt>
      <trkpt lat="43.23086" lon="0.1612">
        <ele>343.8</ele>
        <time>2024-04-17T13:47:25Z</time>
      </trkpt>
      <trkpt lat="43.23083" lon="0.16127">
        <ele>343.6</ele>
        <time>2024-04-17T13:47:26Z</time>
      </trkpt>
      <trkpt lat="43.2308" lon="0.16132">
        <ele>343.4</ele>
        <time>2024-04-17T13:47:27Z</time>
      </trkpt>
      <trkpt lat="43.23079" lon="0.16137">
        <ele>343.2</ele>
        <time>2024-04-17T13:47:28Z</time>
      </trkpt>
      <trkpt lat="43.23076" lon="0.16142">
        <ele>343</ele>
        <time>2024-04-17T13:47:29Z</time>
      </trkpt>
      <trkpt lat="43.23073" lon="0.16148">
        <ele>342.8</ele>
        <time>2024-04-17T13:47:30Z</time>
      </trkpt>
      <trkpt lat="43.2307" lon="0.16151">
        <ele>342.6</ele>
        <time>2024-04-17T13:47:31Z</time>
      </trkpt>
      <trkpt lat="43.23068" lon="0.16155">
        <ele>342.6</ele>
        <time>2024-04-17T13:47:32Z</time>
      </trkpt>
      <trkpt lat="43.23067" lon="0.16158">
        <ele>342.4</ele>
        <time>2024-04-17T13:47:33Z</time>
      </trkpt>
      <trkpt lat="43.23066" lon="0.16162">
        <ele>342.2</ele>
        <time>2024-04-17T13:47:34Z</time>
      </trkpt>
      <trkpt lat="43.23065" lon="0.16166">
        <ele>342</ele>
        <time>2024-04-17T13:47:35Z</time>
      </trkpt>
      <trkpt lat="43.23063" lon="0.16171">
        <ele>341.8</ele>
        <time>2024-04-17T13:47:36Z</time>
      </trkpt>
      <trkpt lat="43.23061" lon="0.16176">
        <ele>341.8</ele>
        <time>2024-04-17T13:47:37Z</time>
      </trkpt>
      <trkpt lat="43.2306" lon="0.16182">
        <ele>341.6</ele>
        <time>2024-04-17T13:47:38Z</time>
      </trkpt>
      <trkpt lat="43.23058" lon="0.16188">
        <ele>341.6</ele>
        <time>2024-04-17T13:47:39Z</time>
      </trkpt>
      <trkpt lat="43.23057" lon="0.16194">
        <ele>341.4</ele>
        <time>2024-04-17T13:47:40Z</time>
      </trkpt>
      <trkpt lat="43.23056" lon="0.162">
        <ele>341.4</ele>
        <time>2024-04-17T13:47:41Z</time>
      </trkpt>
      <trkpt lat="43.23054" lon="0.16205">
        <ele>341.4</ele>
        <time>2024-04-17T13:47:42Z</time>
      </trkpt>
      <trkpt lat="43.23052" lon="0.16211">
        <ele>341.4</ele>
        <time>2024-04-17T13:47:43Z</time>
      </trkpt>
      <trkpt lat="43.23051" lon="0.16216">
        <ele>341.4</ele>
        <time>2024-04-17T13:47:44Z</time>
      </trkpt>
      <trkpt lat="43.23049" lon="0.16222">
        <ele>341.4</ele>
        <time>2024-04-17T13:47:45Z</time>
      </trkpt>
      <trkpt lat="43.23047" lon="0.16227">
        <ele>341.2</ele>
        <time>2024-04-17T13:47:46Z</time>
      </trkpt>
      <trkpt lat="43.23045" lon="0.16233">
        <ele>341</ele>
        <time>2024-04-17T13:47:47Z</time>
      </trkpt>
      <trkpt lat="43.23042" lon="0.16238">
        <ele>341</ele>
        <time>2024-04-17T13:47:48Z</time>
      </trkpt>
      <trkpt lat="43.2304" lon="0.16244">
        <ele>340.8</ele>
        <time>2024-04-17T13:47:49Z</time>
      </trkpt>
      <trkpt lat="43.23038" lon="0.16249">
        <ele>340.6</ele>
        <time>2024-04-17T13:47:50Z</time>
      </trkpt>
      <trkpt lat="43.23035" lon="0.16254">
        <ele>340.2</ele>
        <time>2024-04-17T13:47:51Z</time>
      </trkpt>
      <trkpt lat="43.23032" lon="0.1626">
        <ele>340</ele>
        <time>2024-04-17T13:47:52Z</time>
      </trkpt>
      <trkpt lat="43.2303" lon="0.16265">
        <ele>339.8</ele>
        <time>2024-04-17T13:47:53Z</time>
      </trkpt>
      <trkpt lat="43.23027" lon="0.1627">
        <ele>339.8</ele>
        <time>2024-04-17T13:47:54Z</time>
      </trkpt>
      <trkpt lat="43.23024" lon="0.16274">
        <ele>339.6</ele>
        <time>2024-04-17T13:47:55Z</time>
      </trkpt>
      <trkpt lat="43.23022" lon="0.16278">
        <ele>339.6</ele>
        <time>2024-04-17T13:47:56Z</time>
      </trkpt>
      <trkpt lat="43.2302" lon="0.16283">
        <ele>339.6</ele>
        <time>2024-04-17T13:47:57Z</time>
      </trkpt>
      <trkpt lat="43.23018" lon="0.16286">
        <ele>339.4</ele>
        <time>2024-04-17T13:47:58Z</time>
      </trkpt>
      <trkpt lat="43.23016" lon="0.16291">
        <ele>339.4</ele>
        <time>2024-04-17T13:47:59Z</time>
      </trkpt>
      <trkpt lat="43.23014" lon="0.16297">
        <ele>339.2</ele>
        <time>2024-04-17T13:48:00Z</time>
      </trkpt>
      <trkpt lat="43.23012" lon="0.16303">
        <ele>339</ele>
        <time>2024-04-17T13:48:01Z</time>
      </trkpt>
      <trkpt lat="43.2301" lon="0.16308">
        <ele>338.8</ele>
        <time>2024-04-17T13:48:02Z</time>
      </trkpt>
      <trkpt lat="43.23008" lon="0.16314">
        <ele>338.6</ele>
        <time>2024-04-17T13:48:03Z</time>
      </trkpt>
      <trkpt lat="43.23006" lon="0.1632">
        <ele>338.4</ele>
        <time>2024-04-17T13:48:04Z</time>
      </trkpt>
      <trkpt lat="43.23004" lon="0.16326">
        <ele>338.4</ele>
        <time>2024-04-17T13:48:05Z</time>
      </trkpt>
      <trkpt lat="43.23002" lon="0.16332">
        <ele>338.2</ele>
        <time>2024-04-17T13:48:06Z</time>
      </trkpt>
      <trkpt lat="43.22999" lon="0.16337">
        <ele>338.2</ele>
        <time>2024-04-17T13:48:07Z</time>
      </trkpt>
      <trkpt lat="43.22996" lon="0.16341">
        <ele>338.2</ele>
        <time>2024-04-17T13:48:08Z</time>
      </trkpt>
      <trkpt lat="43.22994" lon="0.16345">
        <ele>338.2</ele>
        <time>2024-04-17T13:48:09Z</time>
      </trkpt>
      <trkpt lat="43.22991" lon="0.16349">
        <ele>338</ele>
        <time>2024-04-17T13:48:10Z</time>
      </trkpt>
      <trkpt lat="43.22989" lon="0.16353">
        <ele>337.8</ele>
        <time>2024-04-17T13:48:11Z</time>
      </trkpt>
      <trkpt lat="43.22986" lon="0.16358">
        <ele>337.8</ele>
        <time>2024-04-17T13:48:12Z</time>
      </trkpt>
      <trkpt lat="43.22984" lon="0.16364">
        <ele>337.8</ele>
        <time>2024-04-17T13:48:13Z</time>
      </trkpt>
      <trkpt lat="43.22982" lon="0.16369">
        <ele>337.6</ele>
        <time>2024-04-17T13:48:14Z</time>
      </trkpt>
      <trkpt lat="43.2298" lon="0.16374">
        <ele>337.6</ele>
        <time>2024-04-17T13:48:15Z</time>
      </trkpt>
      <trkpt lat="43.22978" lon="0.16378">
        <ele>337.4</ele>
        <time>2024-04-17T13:48:16Z</time>
      </trkpt>
      <trkpt lat="43.22976" lon="0.16384">
        <ele>337.4</ele>
        <time>2024-04-17T13:48:17Z</time>
      </trkpt>
      <trkpt lat="43.22974" lon="0.16389">
        <ele>337.4</ele>
        <time>2024-04-17T13:48:18Z</time>
      </trkpt>
      <trkpt lat="43.22972" lon="0.16394">
        <ele>337.2</ele>
        <time>2024-04-17T13:48:19Z</time>
      </trkpt>
      <trkpt lat="43.22969" lon="0.16401">
        <ele>337</ele>
        <time>2024-04-17T13:48:20Z</time>
      </trkpt>
      <trkpt lat="43.22967" lon="0.16406">
        <ele>337</ele>
        <time>2024-04-17T13:48:21Z</time>
      </trkpt>
      <trkpt lat="43.22965" lon="0.16411">
        <ele>336.8</ele>
        <time>2024-04-17T13:48:22Z</time>
      </trkpt>
      <trkpt lat="43.22963" lon="0.16417">
        <ele>336.8</ele>
        <time>2024-04-17T13:48:23Z</time>
      </trkpt>
      <trkpt lat="43.22961" lon="0.16423">
        <ele>336.8</ele>
        <time>2024-04-17T13:48:24Z</time>
      </trkpt>
      <trkpt lat="43.22958" lon="0.1643">
        <ele>336.6</ele>
        <time>2024-04-17T13:48:25Z</time>
      </trkpt>
      <trkpt lat="43.22956" lon="0.16436">
        <ele>336.6</ele>
        <time>2024-04-17T13:48:26Z</time>
      </trkpt>
      <trkpt lat="43.22954" lon="0.16444">
        <ele>336.4</ele>
        <time>2024-04-17T13:48:27Z</time>
      </trkpt>
      <trkpt lat="43.22953" lon="0.16451">
        <ele>336.2</ele>
        <time>2024-04-17T13:48:28Z</time>
      </trkpt>
      <trkpt lat="43.22951" lon="0.16458">
        <ele>336</ele>
        <time>2024-04-17T13:48:29Z</time>
      </trkpt>
      <trkpt lat="43.22949" lon="0.16464">
        <ele>335.8</ele>
        <time>2024-04-17T13:48:30Z</time>
      </trkpt>
      <trkpt lat="43.22947" lon="0.1647">
        <ele>335.8</ele>
        <time>2024-04-17T13:48:31Z</time>
      </trkpt>
      <trkpt lat="43.22946" lon="0.16476">
        <ele>335.6</ele>
        <time>2024-04-17T13:48:32Z</time>
      </trkpt>
      <trkpt lat="43.22945" lon="0.16481">
        <ele>335.6</ele>
        <time>2024-04-17T13:48:33Z</time>
      </trkpt>
      <trkpt lat="43.22943" lon="0.16487">
        <ele>335.2</ele>
        <time>2024-04-17T13:48:34Z</time>
      </trkpt>
      <trkpt lat="43.22941" lon="0.16492">
        <ele>335.2</ele>
        <time>2024-04-17T13:48:35Z</time>
      </trkpt>
      <trkpt lat="43.22939" lon="0.16497">
        <ele>335</ele>
        <time>2024-04-17T13:48:36Z</time>
      </trkpt>
      <trkpt lat="43.22937" lon="0.16504">
        <ele>334.8</ele>
        <time>2024-04-17T13:48:37Z</time>
      </trkpt>
      <trkpt lat="43.22935" lon="0.16512">
        <ele>334.8</ele>
        <time>2024-04-17T13:48:38Z</time>
      </trkpt>
      <trkpt lat="43.22934" lon="0.16519">
        <ele>334.6</ele>
        <time>2024-04-17T13:48:39Z</time>
      </trkpt>
      <trkpt lat="43.22932" lon="0.16526">
        <ele>334.6</ele>
        <time>2024-04-17T13:48:40Z</time>
      </trkpt>
      <trkpt lat="43.2293" lon="0.16532">
        <ele>334.4</ele>
        <time>2024-04-17T13:48:41Z</time>
      </trkpt>
      <trkpt lat="43.22928" lon="0.16538">
        <ele>334.2</ele>
        <time>2024-04-17T13:48:42Z</time>
      </trkpt>
      <trkpt lat="43.22926" lon="0.16543">
        <ele>334</ele>
        <time>2024-04-17T13:48:43Z</time>
      </trkpt>
      <trkpt lat="43.22924" lon="0.16551">
        <ele>333.8</ele>
        <time>2024-04-17T13:48:44Z</time>
      </trkpt>
      <trkpt lat="43.22922" lon="0.16556">
        <ele>333.8</ele>
        <time>2024-04-17T13:48:45Z</time>
      </trkpt>
      <trkpt lat="43.2292" lon="0.16561">
        <ele>333.8</ele>
        <time>2024-04-17T13:48:46Z</time>
      </trkpt>
      <trkpt lat="43.22917" lon="0.16567">
        <ele>333.6</ele>
        <time>2024-04-17T13:48:47Z</time>
      </trkpt>
      <trkpt lat="43.22915" lon="0.16575">
        <ele>333.6</ele>
        <time>2024-04-17T13:48:48Z</time>
      </trkpt>
      <trkpt lat="43.22913" lon="0.16581">
        <ele>333.6</ele>
        <time>2024-04-17T13:48:49Z</time>
      </trkpt>
      <trkpt lat="43.22911" lon="0.16588">
        <ele>333.6</ele>
        <time>2024-04-17T13:48:50Z</time>
      </trkpt>
      <trkpt lat="43.2291" lon="0.16595">
        <ele>333.4</ele>
        <time>2024-04-17T13:48:51Z</time>
      </trkpt>
      <trkpt lat="43.22908" lon="0.16602">
        <ele>333.2</ele>
        <time>2024-04-17T13:48:52Z</time>
      </trkpt>
      <trkpt lat="43.22907" lon="0.16607">
        <ele>332.6</ele>
        <time>2024-04-17T13:48:53Z</time>
      </trkpt>
      <trkpt lat="43.22905" lon="0.16612">
        <ele>332.6</ele>
        <time>2024-04-17T13:48:54Z</time>
      </trkpt>
      <trkpt lat="43.22903" lon="0.16617">
        <ele>332.4</ele>
        <time>2024-04-17T13:48:55Z</time>
      </trkpt>
      <trkpt lat="43.22901" lon="0.16621">
        <ele>332.2</ele>
        <time>2024-04-17T13:48:56Z</time>
      </trkpt>
      <trkpt lat="43.22899" lon="0.16626">
        <ele>332</ele>
        <time>2024-04-17T13:48:57Z</time>
      </trkpt>
      <trkpt lat="43.22897" lon="0.1663">
        <ele>332</ele>
        <time>2024-04-17T13:48:58Z</time>
      </trkpt>
      <trkpt lat="43.22894" lon="0.16635">
        <ele>331.8</ele>
        <time>2024-04-17T13:48:59Z</time>
      </trkpt>
      <trkpt lat="43.22891" lon="0.1664">
        <ele>331.6</ele>
        <time>2024-04-17T13:49:00Z</time>
      </trkpt>
      <trkpt lat="43.22888" lon="0.16644">
        <ele>331.4</ele>
        <time>2024-04-17T13:49:01Z</time>
      </trkpt>
      <trkpt lat="43.22885" lon="0.1665">
        <ele>331.2</ele>
        <time>2024-04-17T13:49:02Z</time>
      </trkpt>
      <trkpt lat="43.22881" lon="0.16655">
        <ele>331</ele>
        <time>2024-04-17T13:49:03Z</time>
      </trkpt>
      <trkpt lat="43.22878" lon="0.16661">
        <ele>330.8</ele>
        <time>2024-04-17T13:49:04Z</time>
      </trkpt>
      <trkpt lat="43.22875" lon="0.16666">
        <ele>330.8</ele>
        <time>2024-04-17T13:49:05Z</time>
      </trkpt>
      <trkpt lat="43.22871" lon="0.16671">
        <ele>330.6</ele>
        <time>2024-04-17T13:49:06Z</time>
      </trkpt>
      <trkpt lat="43.22869" lon="0.16676">
        <ele>330.6</ele>
        <time>2024-04-17T13:49:07Z</time>
      </trkpt>
      <trkpt lat="43.22866" lon="0.1668">
        <ele>330.4</ele>
        <time>2024-04-17T13:49:08Z</time>
      </trkpt>
      <trkpt lat="43.22862" lon="0.16685">
        <ele>330.4</ele>
        <time>2024-04-17T13:49:09Z</time>
      </trkpt>
      <trkpt lat="43.22859" lon="0.16688">
        <ele>330.2</ele>
        <time>2024-04-17T13:49:10Z</time>
      </trkpt>
      <trkpt lat="43.22856" lon="0.16692">
        <ele>330.2</ele>
        <time>2024-04-17T13:49:11Z</time>
      </trkpt>
      <trkpt lat="43.22852" lon="0.16695">
        <ele>330.2</ele>
        <time>2024-04-17T13:49:12Z</time>
      </trkpt>
      <trkpt lat="43.22849" lon="0.16699">
        <ele>330.2</ele>
        <time>2024-04-17T13:49:13Z</time>
      </trkpt>
      <trkpt lat="43.22846" lon="0.16701">
        <ele>330.2</ele>
        <time>2024-04-17T13:49:14Z</time>
      </trkpt>
      <trkpt lat="43.22844" lon="0.16704">
        <ele>330.2</ele>
        <time>2024-04-17T13:49:15Z</time>
      </trkpt>
      <trkpt lat="43.22842" lon="0.16707">
        <ele>330.2</ele>
        <time>2024-04-17T13:49:16Z</time>
      </trkpt>
      <trkpt lat="43.2284" lon="0.1671">
        <ele>330.2</ele>
        <time>2024-04-17T13:49:17Z</time>
      </trkpt>
      <trkpt lat="43.22838" lon="0.16714">
        <ele>330.4</ele>
        <time>2024-04-17T13:49:18Z</time>
      </trkpt>
      <trkpt lat="43.22836" lon="0.16718">
        <ele>330.4</ele>
        <time>2024-04-17T13:49:19Z</time>
      </trkpt>
      <trkpt lat="43.22835" lon="0.16723">
        <ele>330.4</ele>
        <time>2024-04-17T13:49:20Z</time>
      </trkpt>
      <trkpt lat="43.22834" lon="0.16728">
        <ele>330.6</ele>
        <time>2024-04-17T13:49:21Z</time>
      </trkpt>
      <trkpt lat="43.22833" lon="0.16733">
        <ele>331</ele>
        <time>2024-04-17T13:49:22Z</time>
      </trkpt>
      <trkpt lat="43.22833" lon="0.16738">
        <ele>331.2</ele>
        <time>2024-04-17T13:49:23Z</time>
      </trkpt>
      <trkpt lat="43.22833" lon="0.16743">
        <ele>331.2</ele>
        <time>2024-04-17T13:49:24Z</time>
      </trkpt>
      <trkpt lat="43.22833" lon="0.16748">
        <ele>331.4</ele>
        <time>2024-04-17T13:49:25Z</time>
      </trkpt>
      <trkpt lat="43.22832" lon="0.16753">
        <ele>331.4</ele>
        <time>2024-04-17T13:49:26Z</time>
      </trkpt>
      <trkpt lat="43.22832" lon="0.16759">
        <ele>331.4</ele>
        <time>2024-04-17T13:49:27Z</time>
      </trkpt>
      <trkpt lat="43.22832" lon="0.16765">
        <ele>331.4</ele>
        <time>2024-04-17T13:49:28Z</time>
      </trkpt>
      <trkpt lat="43.22831" lon="0.1677">
        <ele>331.4</ele>
        <time>2024-04-17T13:49:29Z</time>
      </trkpt>
      <trkpt lat="43.2283" lon="0.16775">
        <ele>331.4</ele>
        <time>2024-04-17T13:49:30Z</time>
      </trkpt>
      <trkpt lat="43.22829" lon="0.1678">
        <ele>331.4</ele>
        <time>2024-04-17T13:49:31Z</time>
      </trkpt>
      <trkpt lat="43.22827" lon="0.16785">
        <ele>331.2</ele>
        <time>2024-04-17T13:49:32Z</time>
      </trkpt>
      <trkpt lat="43.22825" lon="0.16789">
        <ele>331</ele>
        <time>2024-04-17T13:49:33Z</time>
      </trkpt>
      <trkpt lat="43.22823" lon="0.16794">
        <ele>330.8</ele>
        <time>2024-04-17T13:49:34Z</time>
      </trkpt>
      <trkpt lat="43.22821" lon="0.16797">
        <ele>330.6</ele>
        <time>2024-04-17T13:49:35Z</time>
      </trkpt>
      <trkpt lat="43.2282" lon="0.16801">
        <ele>330.4</ele>
        <time>2024-04-17T13:49:36Z</time>
      </trkpt>
      <trkpt lat="43.22819" lon="0.16805">
        <ele>330.4</ele>
        <time>2024-04-17T13:49:37Z</time>
      </trkpt>
      <trkpt lat="43.22818" lon="0.16808">
        <ele>330.4</ele>
        <time>2024-04-17T13:49:38Z</time>
      </trkpt>
      <trkpt lat="43.22818" lon="0.16811">
        <ele>330.2</ele>
        <time>2024-04-17T13:49:39Z</time>
      </trkpt>
      <trkpt lat="43.22819" lon="0.16814">
        <ele>330.2</ele>
        <time>2024-04-17T13:49:40Z</time>
      </trkpt>
      <trkpt lat="43.2282" lon="0.16816">
        <ele>330.2</ele>
        <time>2024-04-17T13:49:41Z</time>
      </trkpt>
      <trkpt lat="43.22822" lon="0.16819">
        <ele>330.2</ele>
        <time>2024-04-17T13:49:42Z</time>
      </trkpt>
      <trkpt lat="43.22824" lon="0.16822">
        <ele>330.2</ele>
        <time>2024-04-17T13:49:43Z</time>
      </trkpt>
      <trkpt lat="43.22826" lon="0.16827">
        <ele>330</ele>
        <time>2024-04-17T13:49:44Z</time>
      </trkpt>
      <trkpt lat="43.22826" lon="0.16833">
        <ele>330</ele>
        <time>2024-04-17T13:49:45Z</time>
      </trkpt>
      <trkpt lat="43.22824" lon="0.1684">
        <ele>330</ele>
        <time>2024-04-17T13:49:46Z</time>
      </trkpt>
      <trkpt lat="43.22822" lon="0.16847">
        <ele>330</ele>
        <time>2024-04-17T13:49:47Z</time>
      </trkpt>
      <trkpt lat="43.22819" lon="0.16854">
        <ele>330</ele>
        <time>2024-04-17T13:49:48Z</time>
      </trkpt>
      <trkpt lat="43.22814" lon="0.16861">
        <ele>329.6</ele>
        <time>2024-04-17T13:49:49Z</time>
      </trkpt>
      <trkpt lat="43.2281" lon="0.16867">
        <ele>329.2</ele>
        <time>2024-04-17T13:49:50Z</time>
      </trkpt>
      <trkpt lat="43.22805" lon="0.16874">
        <ele>329</ele>
        <time>2024-04-17T13:49:51Z</time>
      </trkpt>
      <trkpt lat="43.22801" lon="0.1688">
        <ele>328.8</ele>
        <time>2024-04-17T13:49:52Z</time>
      </trkpt>
      <trkpt lat="43.22797" lon="0.16885">
        <ele>328.2</ele>
        <time>2024-04-17T13:49:53Z</time>
      </trkpt>
      <trkpt lat="43.22793" lon="0.1689">
        <ele>328</ele>
        <time>2024-04-17T13:49:54Z</time>
      </trkpt>
      <trkpt lat="43.22789" lon="0.16896">
        <ele>327.8</ele>
        <time>2024-04-17T13:49:55Z</time>
      </trkpt>
      <trkpt lat="43.22787" lon="0.16901">
        <ele>327.8</ele>
        <time>2024-04-17T13:49:56Z</time>
      </trkpt>
      <trkpt lat="43.22786" lon="0.16906">
        <ele>327.6</ele>
        <time>2024-04-17T13:49:57Z</time>
      </trkpt>
      <trkpt lat="43.22784" lon="0.16909">
        <ele>327.6</ele>
        <time>2024-04-17T13:49:58Z</time>
      </trkpt>
      <trkpt lat="43.22784" lon="0.16912">
        <ele>327.6</ele>
        <time>2024-04-17T13:49:59Z</time>
      </trkpt>
      <trkpt lat="43.22783" lon="0.16915">
        <ele>327.6</ele>
        <time>2024-04-17T13:50:00Z</time>
      </trkpt>
      <trkpt lat="43.22782" lon="0.16917">
        <ele>327.6</ele>
        <time>2024-04-17T13:50:01Z</time>
      </trkpt>
      <trkpt lat="43.22781" lon="0.1692">
        <ele>327.6</ele>
        <time>2024-04-17T13:50:02Z</time>
      </trkpt>
      <trkpt lat="43.2278" lon="0.16924">
        <ele>327.8</ele>
        <time>2024-04-17T13:50:03Z</time>
      </trkpt>
      <trkpt lat="43.22779" lon="0.16928">
        <ele>327.8</ele>
        <time>2024-04-17T13:50:04Z</time>
      </trkpt>
      <trkpt lat="43.22779" lon="0.16934">
        <ele>327.8</ele>
        <time>2024-04-17T13:50:05Z</time>
      </trkpt>
      <trkpt lat="43.2278" lon="0.1694">
        <ele>327.8</ele>
        <time>2024-04-17T13:50:06Z</time>
      </trkpt>
      <trkpt lat="43.22781" lon="0.16947">
        <ele>327.8</ele>
        <time>2024-04-17T13:50:07Z</time>
      </trkpt>
      <trkpt lat="43.22781" lon="0.16954">
        <ele>327.8</ele>
        <time>2024-04-17T13:50:08Z</time>
      </trkpt>
      <trkpt lat="43.22782" lon="0.16961">
        <ele>327.8</ele>
        <time>2024-04-17T13:50:09Z</time>
      </trkpt>
      <trkpt lat="43.22784" lon="0.16968">
        <ele>327.6</ele>
        <time>2024-04-17T13:50:10Z</time>
      </trkpt>
      <trkpt lat="43.22785" lon="0.16976">
        <ele>327.6</ele>
        <time>2024-04-17T13:50:11Z</time>
      </trkpt>
      <trkpt lat="43.22785" lon="0.16984">
        <ele>327.6</ele>
        <time>2024-04-17T13:50:12Z</time>
      </trkpt>
      <trkpt lat="43.22786" lon="0.16992">
        <ele>327.2</ele>
        <time>2024-04-17T13:50:13Z</time>
      </trkpt>
      <trkpt lat="43.22787" lon="0.16999">
        <ele>327</ele>
        <time>2024-04-17T13:50:14Z</time>
      </trkpt>
      <trkpt lat="43.22787" lon="0.17007">
        <ele>326.6</ele>
        <time>2024-04-17T13:50:15Z</time>
      </trkpt>
      <trkpt lat="43.22788" lon="0.17015">
        <ele>326.4</ele>
        <time>2024-04-17T13:50:16Z</time>
      </trkpt>
      <trkpt lat="43.22789" lon="0.17023">
        <ele>326</ele>
        <time>2024-04-17T13:50:17Z</time>
      </trkpt>
      <trkpt lat="43.2279" lon="0.17031">
        <ele>325.8</ele>
        <time>2024-04-17T13:50:18Z</time>
      </trkpt>
      <trkpt lat="43.22791" lon="0.17039">
        <ele>325.6</ele>
        <time>2024-04-17T13:50:19Z</time>
      </trkpt>
      <trkpt lat="43.22791" lon="0.17048">
        <ele>325.4</ele>
        <time>2024-04-17T13:50:20Z</time>
      </trkpt>
      <trkpt lat="43.22792" lon="0.17056">
        <ele>325.2</ele>
        <time>2024-04-17T13:50:21Z</time>
      </trkpt>
      <trkpt lat="43.22793" lon="0.17064">
        <ele>324.8</ele>
        <time>2024-04-17T13:50:22Z</time>
      </trkpt>
      <trkpt lat="43.22794" lon="0.17073">
        <ele>324.6</ele>
        <time>2024-04-17T13:50:23Z</time>
      </trkpt>
      <trkpt lat="43.22795" lon="0.17081">
        <ele>324.2</ele>
        <time>2024-04-17T13:50:24Z</time>
      </trkpt>
      <trkpt lat="43.22796" lon="0.1709">
        <ele>324.2</ele>
        <time>2024-04-17T13:50:25Z</time>
      </trkpt>
      <trkpt lat="43.22796" lon="0.17099">
        <ele>324</ele>
        <time>2024-04-17T13:50:26Z</time>
      </trkpt>
      <trkpt lat="43.22797" lon="0.17108">
        <ele>323.8</ele>
        <time>2024-04-17T13:50:27Z</time>
      </trkpt>
      <trkpt lat="43.22798" lon="0.17117">
        <ele>323.6</ele>
        <time>2024-04-17T13:50:28Z</time>
      </trkpt>
      <trkpt lat="43.22799" lon="0.17125">
        <ele>323.4</ele>
        <time>2024-04-17T13:50:29Z</time>
      </trkpt>
      <trkpt lat="43.228" lon="0.17134">
        <ele>323.2</ele>
        <time>2024-04-17T13:50:30Z</time>
      </trkpt>
      <trkpt lat="43.22801" lon="0.17143">
        <ele>323</ele>
        <time>2024-04-17T13:50:31Z</time>
      </trkpt>
      <trkpt lat="43.22802" lon="0.17151">
        <ele>323</ele>
        <time>2024-04-17T13:50:32Z</time>
      </trkpt>
      <trkpt lat="43.22803" lon="0.1716">
        <ele>322.6</ele>
        <time>2024-04-17T13:50:33Z</time>
      </trkpt>
      <trkpt lat="43.22803" lon="0.17167">
        <ele>322.4</ele>
        <time>2024-04-17T13:50:34Z</time>
      </trkpt>
      <trkpt lat="43.22804" lon="0.17178">
        <ele>322.2</ele>
        <time>2024-04-17T13:50:35Z</time>
      </trkpt>
      <trkpt lat="43.22805" lon="0.17187">
        <ele>322</ele>
        <time>2024-04-17T13:50:36Z</time>
      </trkpt>
      <trkpt lat="43.22806" lon="0.17196">
        <ele>321.8</ele>
        <time>2024-04-17T13:50:37Z</time>
      </trkpt>
      <trkpt lat="43.22807" lon="0.17205">
        <ele>321.4</ele>
        <time>2024-04-17T13:50:38Z</time>
      </trkpt>
      <trkpt lat="43.22808" lon="0.17214">
        <ele>321.2</ele>
        <time>2024-04-17T13:50:39Z</time>
      </trkpt>
      <trkpt lat="43.22809" lon="0.17223">
        <ele>320.8</ele>
        <time>2024-04-17T13:50:40Z</time>
      </trkpt>
      <trkpt lat="43.2281" lon="0.17232">
        <ele>320.6</ele>
        <time>2024-04-17T13:50:41Z</time>
      </trkpt>
      <trkpt lat="43.22811" lon="0.17241">
        <ele>320.4</ele>
        <time>2024-04-17T13:50:42Z</time>
      </trkpt>
      <trkpt lat="43.22811" lon="0.1725">
        <ele>320.2</ele>
        <time>2024-04-17T13:50:43Z</time>
      </trkpt>
      <trkpt lat="43.22812" lon="0.17259">
        <ele>320</ele>
        <time>2024-04-17T13:50:44Z</time>
      </trkpt>
      <trkpt lat="43.22813" lon="0.17267">
        <ele>319.8</ele>
        <time>2024-04-17T13:50:45Z</time>
      </trkpt>
      <trkpt lat="43.22814" lon="0.17276">
        <ele>319.8</ele>
        <time>2024-04-17T13:50:46Z</time>
      </trkpt>
      <trkpt lat="43.22815" lon="0.17284">
        <ele>319.2</ele>
        <time>2024-04-17T13:50:47Z</time>
      </trkpt>
      <trkpt lat="43.22816" lon="0.17292">
        <ele>319.2</ele>
        <time>2024-04-17T13:50:48Z</time>
      </trkpt>
      <trkpt lat="43.22817" lon="0.17299">
        <ele>319.2</ele>
        <time>2024-04-17T13:50:49Z</time>
      </trkpt>
      <trkpt lat="43.22818" lon="0.17307">
        <ele>319</ele>
        <time>2024-04-17T13:50:50Z</time>
      </trkpt>
      <trkpt lat="43.22818" lon="0.17315">
        <ele>318.8</ele>
        <time>2024-04-17T13:50:51Z</time>
      </trkpt>
      <trkpt lat="43.22819" lon="0.17323">
        <ele>318.6</ele>
        <time>2024-04-17T13:50:52Z</time>
      </trkpt>
      <trkpt lat="43.2282" lon="0.17332">
        <ele>318.4</ele>
        <time>2024-04-17T13:50:53Z</time>
      </trkpt>
      <trkpt lat="43.22821" lon="0.17341">
        <ele>318.2</ele>
        <time>2024-04-17T13:50:54Z</time>
      </trkpt>
      <trkpt lat="43.22822" lon="0.1735">
        <ele>318.2</ele>
        <time>2024-04-17T13:50:55Z</time>
      </trkpt>
      <trkpt lat="43.22823" lon="0.17359">
        <ele>317.8</ele>
        <time>2024-04-17T13:50:56Z</time>
      </trkpt>
      <trkpt lat="43.22824" lon="0.17368">
        <ele>317.6</ele>
        <time>2024-04-17T13:50:57Z</time>
      </trkpt>
      <trkpt lat="43.22825" lon="0.17378">
        <ele>317.6</ele>
        <time>2024-04-17T13:50:58Z</time>
      </trkpt>
      <trkpt lat="43.22825" lon="0.17387">
        <ele>317.4</ele>
        <time>2024-04-17T13:50:59Z</time>
      </trkpt>
      <trkpt lat="43.22826" lon="0.17396">
        <ele>317.4</ele>
        <time>2024-04-17T13:51:00Z</time>
      </trkpt>
      <trkpt lat="43.22827" lon="0.17405">
        <ele>317.2</ele>
        <time>2024-04-17T13:51:01Z</time>
      </trkpt>
      <trkpt lat="43.22828" lon="0.17415">
        <ele>317</ele>
        <time>2024-04-17T13:51:02Z</time>
      </trkpt>
      <trkpt lat="43.22829" lon="0.17424">
        <ele>316.6</ele>
        <time>2024-04-17T13:51:03Z</time>
      </trkpt>
      <trkpt lat="43.2283" lon="0.17433">
        <ele>316.6</ele>
        <time>2024-04-17T13:51:04Z</time>
      </trkpt>
      <trkpt lat="43.22831" lon="0.17443">
        <ele>316.4</ele>
        <time>2024-04-17T13:51:05Z</time>
      </trkpt>
      <trkpt lat="43.22832" lon="0.17452">
        <ele>316.2</ele>
        <time>2024-04-17T13:51:06Z</time>
      </trkpt>
      <trkpt lat="43.22833" lon="0.17461">
        <ele>315.8</ele>
        <time>2024-04-17T13:51:07Z</time>
      </trkpt>
      <trkpt lat="43.22833" lon="0.1747">
        <ele>315.6</ele>
        <time>2024-04-17T13:51:08Z</time>
      </trkpt>
      <trkpt lat="43.22833" lon="0.17478">
        <ele>315.2</ele>
        <time>2024-04-17T13:51:09Z</time>
      </trkpt>
      <trkpt lat="43.2283" lon="0.17486">
        <ele>314.8</ele>
        <time>2024-04-17T13:51:10Z</time>
      </trkpt>
      <trkpt lat="43.22827" lon="0.17493">
        <ele>314.8</ele>
        <time>2024-04-17T13:51:11Z</time>
      </trkpt>
      <trkpt lat="43.22823" lon="0.175">
        <ele>314.6</ele>
        <time>2024-04-17T13:51:12Z</time>
      </trkpt>
      <trkpt lat="43.2282" lon="0.17507">
        <ele>314.4</ele>
        <time>2024-04-17T13:51:13Z</time>
      </trkpt>
      <trkpt lat="43.22817" lon="0.17515">
        <ele>314</ele>
        <time>2024-04-17T13:51:14Z</time>
      </trkpt>
      <trkpt lat="43.22815" lon="0.17522">
        <ele>313.8</ele>
        <time>2024-04-17T13:51:15Z</time>
      </trkpt>
      <trkpt lat="43.22814" lon="0.1753">
        <ele>313.6</ele>
        <time>2024-04-17T13:51:16Z</time>
      </trkpt>
      <trkpt lat="43.22813" lon="0.17539">
        <ele>313.4</ele>
        <time>2024-04-17T13:51:17Z</time>
      </trkpt>
      <trkpt lat="43.22812" lon="0.17547">
        <ele>313</ele>
        <time>2024-04-17T13:51:18Z</time>
      </trkpt>
      <trkpt lat="43.22811" lon="0.17555">
        <ele>313</ele>
        <time>2024-04-17T13:51:19Z</time>
      </trkpt>
      <trkpt lat="43.2281" lon="0.17564">
        <ele>313</ele>
        <time>2024-04-17T13:51:20Z</time>
      </trkpt>
      <trkpt lat="43.2281" lon="0.17572">
        <ele>312.8</ele>
        <time>2024-04-17T13:51:21Z</time>
      </trkpt>
      <trkpt lat="43.22809" lon="0.1758">
        <ele>312.8</ele>
        <time>2024-04-17T13:51:22Z</time>
      </trkpt>
      <trkpt lat="43.22808" lon="0.17587">
        <ele>312.6</ele>
        <time>2024-04-17T13:51:23Z</time>
      </trkpt>
      <trkpt lat="43.22807" lon="0.17594">
        <ele>312.6</ele>
        <time>2024-04-17T13:51:24Z</time>
      </trkpt>
      <trkpt lat="43.22806" lon="0.17601">
        <ele>312.4</ele>
        <time>2024-04-17T13:51:25Z</time>
      </trkpt>
      <trkpt lat="43.22806" lon="0.17608">
        <ele>312.4</ele>
        <time>2024-04-17T13:51:26Z</time>
      </trkpt>
      <trkpt lat="43.22805" lon="0.17615">
        <ele>312.4</ele>
        <time>2024-04-17T13:51:27Z</time>
      </trkpt>
      <trkpt lat="43.22804" lon="0.1762">
        <ele>312</ele>
        <time>2024-04-17T13:51:28Z</time>
      </trkpt>
      <trkpt lat="43.22803" lon="0.17625">
        <ele>312</ele>
        <time>2024-04-17T13:51:29Z</time>
      </trkpt>
      <trkpt lat="43.22802" lon="0.17635">
        <ele>311.8</ele>
        <time>2024-04-17T13:51:30Z</time>
      </trkpt>
      <trkpt lat="43.22801" lon="0.17643">
        <ele>311.6</ele>
        <time>2024-04-17T13:51:31Z</time>
      </trkpt>
      <trkpt lat="43.228" lon="0.17651">
        <ele>311.4</ele>
        <time>2024-04-17T13:51:32Z</time>
      </trkpt>
      <trkpt lat="43.22799" lon="0.17659">
        <ele>311.4</ele>
        <time>2024-04-17T13:51:33Z</time>
      </trkpt>
      <trkpt lat="43.22798" lon="0.17667">
        <ele>311.4</ele>
        <time>2024-04-17T13:51:34Z</time>
      </trkpt>
      <trkpt lat="43.22797" lon="0.17676">
        <ele>311.2</ele>
        <time>2024-04-17T13:51:35Z</time>
      </trkpt>
      <trkpt lat="43.22796" lon="0.17684">
        <ele>311.2</ele>
        <time>2024-04-17T13:51:36Z</time>
      </trkpt>
      <trkpt lat="43.22795" lon="0.17693">
        <ele>311</ele>
        <time>2024-04-17T13:51:37Z</time>
      </trkpt>
      <trkpt lat="43.22794" lon="0.17702">
        <ele>310.8</ele>
        <time>2024-04-17T13:51:38Z</time>
      </trkpt>
      <trkpt lat="43.22793" lon="0.17711">
        <ele>310.2</ele>
        <time>2024-04-17T13:51:39Z</time>
      </trkpt>
      <trkpt lat="43.22792" lon="0.17719">
        <ele>310</ele>
        <time>2024-04-17T13:51:40Z</time>
      </trkpt>
      <trkpt lat="43.22791" lon="0.17727">
        <ele>309.8</ele>
        <time>2024-04-17T13:51:41Z</time>
      </trkpt>
      <trkpt lat="43.2279" lon="0.17735">
        <ele>309.8</ele>
        <time>2024-04-17T13:51:42Z</time>
      </trkpt>
      <trkpt lat="43.22789" lon="0.17743">
        <ele>309.6</ele>
        <time>2024-04-17T13:51:43Z</time>
      </trkpt>
      <trkpt lat="43.22788" lon="0.17752">
        <ele>309.4</ele>
        <time>2024-04-17T13:51:44Z</time>
      </trkpt>
      <trkpt lat="43.22787" lon="0.1776">
        <ele>309.2</ele>
        <time>2024-04-17T13:51:45Z</time>
      </trkpt>
      <trkpt lat="43.22785" lon="0.17768">
        <ele>309</ele>
        <time>2024-04-17T13:51:46Z</time>
      </trkpt>
      <trkpt lat="43.22784" lon="0.17776">
        <ele>308.8</ele>
        <time>2024-04-17T13:51:47Z</time>
      </trkpt>
      <trkpt lat="43.22783" lon="0.17784">
        <ele>308.6</ele>
        <time>2024-04-17T13:51:48Z</time>
      </trkpt>
      <trkpt lat="43.22782" lon="0.17793">
        <ele>308.4</ele>
        <time>2024-04-17T13:51:49Z</time>
      </trkpt>
      <trkpt lat="43.22781" lon="0.17801">
        <ele>308</ele>
        <time>2024-04-17T13:51:50Z</time>
      </trkpt>
      <trkpt lat="43.2278" lon="0.1781">
        <ele>307.8</ele>
        <time>2024-04-17T13:51:51Z</time>
      </trkpt>
      <trkpt lat="43.22779" lon="0.17819">
        <ele>307.8</ele>
        <time>2024-04-17T13:51:52Z</time>
      </trkpt>
      <trkpt lat="43.22778" lon="0.17827">
        <ele>307.6</ele>
        <time>2024-04-17T13:51:53Z</time>
      </trkpt>
      <trkpt lat="43.22778" lon="0.17836">
        <ele>307.4</ele>
        <time>2024-04-17T13:51:54Z</time>
      </trkpt>
      <trkpt lat="43.22778" lon="0.17844">
        <ele>307.2</ele>
        <time>2024-04-17T13:51:55Z</time>
      </trkpt>
      <trkpt lat="43.22778" lon="0.17853">
        <ele>307</ele>
        <time>2024-04-17T13:51:56Z</time>
      </trkpt>
      <trkpt lat="43.22778" lon="0.17861">
        <ele>306.8</ele>
        <time>2024-04-17T13:51:57Z</time>
      </trkpt>
      <trkpt lat="43.22779" lon="0.1787">
        <ele>306.8</ele>
        <time>2024-04-17T13:51:58Z</time>
      </trkpt>
      <trkpt lat="43.22779" lon="0.17878">
        <ele>306.4</ele>
        <time>2024-04-17T13:51:59Z</time>
      </trkpt>
      <trkpt lat="43.2278" lon="0.17887">
        <ele>306.2</ele>
        <time>2024-04-17T13:52:00Z</time>
      </trkpt>
      <trkpt lat="43.2278" lon="0.17895">
        <ele>306</ele>
        <time>2024-04-17T13:52:01Z</time>
      </trkpt>
      <trkpt lat="43.2278" lon="0.17903">
        <ele>306</ele>
        <time>2024-04-17T13:52:02Z</time>
      </trkpt>
      <trkpt lat="43.2278" lon="0.17911">
        <ele>305.8</ele>
        <time>2024-04-17T13:52:03Z</time>
      </trkpt>
      <trkpt lat="43.22781" lon="0.17919">
        <ele>305.6</ele>
        <time>2024-04-17T13:52:04Z</time>
      </trkpt>
      <trkpt lat="43.22781" lon="0.17927">
        <ele>305.6</ele>
        <time>2024-04-17T13:52:05Z</time>
      </trkpt>
      <trkpt lat="43.22781" lon="0.17935">
        <ele>305.4</ele>
        <time>2024-04-17T13:52:06Z</time>
      </trkpt>
      <trkpt lat="43.22782" lon="0.17943">
        <ele>305.4</ele>
        <time>2024-04-17T13:52:07Z</time>
      </trkpt>
      <trkpt lat="43.22782" lon="0.1795">
        <ele>305.2</ele>
        <time>2024-04-17T13:52:08Z</time>
      </trkpt>
      <trkpt lat="43.22782" lon="0.17958">
        <ele>305</ele>
        <time>2024-04-17T13:52:09Z</time>
      </trkpt>
      <trkpt lat="43.22782" lon="0.17966">
        <ele>305</ele>
        <time>2024-04-17T13:52:10Z</time>
      </trkpt>
      <trkpt lat="43.22782" lon="0.17974">
        <ele>305</ele>
        <time>2024-04-17T13:52:11Z</time>
      </trkpt>
      <trkpt lat="43.22782" lon="0.17982">
        <ele>305</ele>
        <time>2024-04-17T13:52:12Z</time>
      </trkpt>
      <trkpt lat="43.22782" lon="0.17989">
        <ele>304.8</ele>
        <time>2024-04-17T13:52:13Z</time>
      </trkpt>
      <trkpt lat="43.22783" lon="0.17996">
        <ele>304.8</ele>
        <time>2024-04-17T13:52:14Z</time>
      </trkpt>
      <trkpt lat="43.22783" lon="0.18003">
        <ele>304.6</ele>
        <time>2024-04-17T13:52:15Z</time>
      </trkpt>
      <trkpt lat="43.22785" lon="0.1801">
        <ele>304.6</ele>
        <time>2024-04-17T13:52:16Z</time>
      </trkpt>
      <trkpt lat="43.22786" lon="0.18017">
        <ele>304.4</ele>
        <time>2024-04-17T13:52:17Z</time>
      </trkpt>
      <trkpt lat="43.22788" lon="0.18023">
        <ele>304.2</ele>
        <time>2024-04-17T13:52:18Z</time>
      </trkpt>
      <trkpt lat="43.2279" lon="0.18029">
        <ele>304.2</ele>
        <time>2024-04-17T13:52:19Z</time>
      </trkpt>
      <trkpt lat="43.22791" lon="0.18035">
        <ele>304</ele>
        <time>2024-04-17T13:52:20Z</time>
      </trkpt>
      <trkpt lat="43.22793" lon="0.18041">
        <ele>304</ele>
        <time>2024-04-17T13:52:21Z</time>
      </trkpt>
      <trkpt lat="43.22795" lon="0.18047">
        <ele>304</ele>
        <time>2024-04-17T13:52:22Z</time>
      </trkpt>
      <trkpt lat="43.22797" lon="0.18053">
        <ele>303.8</ele>
        <time>2024-04-17T13:52:23Z</time>
      </trkpt>
      <trkpt lat="43.22799" lon="0.18058">
        <ele>303.8</ele>
        <time>2024-04-17T13:52:24Z</time>
      </trkpt>
      <trkpt lat="43.228" lon="0.18064">
        <ele>303.8</ele>
        <time>2024-04-17T13:52:25Z</time>
      </trkpt>
      <trkpt lat="43.22802" lon="0.1807">
        <ele>303.8</ele>
        <time>2024-04-17T13:52:26Z</time>
      </trkpt>
      <trkpt lat="43.22804" lon="0.18076">
        <ele>303.8</ele>
        <time>2024-04-17T13:52:27Z</time>
      </trkpt>
      <trkpt lat="43.22807" lon="0.18081">
        <ele>303.6</ele>
        <time>2024-04-17T13:52:28Z</time>
      </trkpt>
      <trkpt lat="43.22809" lon="0.18086">
        <ele>303.8</ele>
        <time>2024-04-17T13:52:29Z</time>
      </trkpt>
      <trkpt lat="43.22811" lon="0.18092">
        <ele>303.8</ele>
        <time>2024-04-17T13:52:30Z</time>
      </trkpt>
      <trkpt lat="43.22814" lon="0.18098">
        <ele>303.8</ele>
        <time>2024-04-17T13:52:31Z</time>
      </trkpt>
      <trkpt lat="43.22815" lon="0.18105">
        <ele>303.8</ele>
        <time>2024-04-17T13:52:32Z</time>
      </trkpt>
      <trkpt lat="43.22817" lon="0.18111">
        <ele>303.8</ele>
        <time>2024-04-17T13:52:33Z</time>
      </trkpt>
      <trkpt lat="43.22819" lon="0.18117">
        <ele>303.8</ele>
        <time>2024-04-17T13:52:34Z</time>
      </trkpt>
      <trkpt lat="43.22821" lon="0.18123">
        <ele>303.8</ele>
        <time>2024-04-17T13:52:35Z</time>
      </trkpt>
      <trkpt lat="43.22823" lon="0.1813">
        <ele>303.6</ele>
        <time>2024-04-17T13:52:36Z</time>
      </trkpt>
      <trkpt lat="43.22825" lon="0.18136">
        <ele>303.6</ele>
        <time>2024-04-17T13:52:37Z</time>
      </trkpt>
      <trkpt lat="43.22826" lon="0.18143">
        <ele>303.6</ele>
        <time>2024-04-17T13:52:38Z</time>
      </trkpt>
      <trkpt lat="43.22828" lon="0.18149">
        <ele>303.6</ele>
        <time>2024-04-17T13:52:39Z</time>
      </trkpt>
      <trkpt lat="43.22829" lon="0.18156">
        <ele>303.4</ele>
        <time>2024-04-17T13:52:40Z</time>
      </trkpt>
      <trkpt lat="43.22831" lon="0.18162">
        <ele>303.4</ele>
        <time>2024-04-17T13:52:41Z</time>
      </trkpt>
      <trkpt lat="43.22832" lon="0.18169">
        <ele>303.4</ele>
        <time>2024-04-17T13:52:42Z</time>
      </trkpt>
      <trkpt lat="43.22833" lon="0.18175">
        <ele>303.4</ele>
        <time>2024-04-17T13:52:43Z</time>
      </trkpt>
      <trkpt lat="43.22834" lon="0.18181">
        <ele>303.4</ele>
        <time>2024-04-17T13:52:44Z</time>
      </trkpt>
      <trkpt lat="43.22835" lon="0.18188">
        <ele>303.2</ele>
        <time>2024-04-17T13:52:45Z</time>
      </trkpt>
      <trkpt lat="43.22836" lon="0.18194">
        <ele>303.2</ele>
        <time>2024-04-17T13:52:46Z</time>
      </trkpt>
      <trkpt lat="43.22836" lon="0.18201">
        <ele>303</ele>
        <time>2024-04-17T13:52:47Z</time>
      </trkpt>
      <trkpt lat="43.22837" lon="0.18207">
        <ele>303</ele>
        <time>2024-04-17T13:52:48Z</time>
      </trkpt>
      <trkpt lat="43.22837" lon="0.18214">
        <ele>303</ele>
        <time>2024-04-17T13:52:49Z</time>
      </trkpt>
      <trkpt lat="43.22837" lon="0.18221">
        <ele>302.8</ele>
        <time>2024-04-17T13:52:50Z</time>
      </trkpt>
      <trkpt lat="43.22838" lon="0.18228">
        <ele>302.8</ele>
        <time>2024-04-17T13:52:51Z</time>
      </trkpt>
      <trkpt lat="43.22838" lon="0.18235">
        <ele>302.4</ele>
        <time>2024-04-17T13:52:52Z</time>
      </trkpt>
      <trkpt lat="43.22838" lon="0.18241">
        <ele>302.4</ele>
        <time>2024-04-17T13:52:53Z</time>
      </trkpt>
      <trkpt lat="43.22838" lon="0.18248">
        <ele>302.2</ele>
        <time>2024-04-17T13:52:54Z</time>
      </trkpt>
      <trkpt lat="43.22838" lon="0.18254">
        <ele>302.2</ele>
        <time>2024-04-17T13:52:55Z</time>
      </trkpt>
      <trkpt lat="43.22838" lon="0.18261">
        <ele>302.2</ele>
        <time>2024-04-17T13:52:56Z</time>
      </trkpt>
      <trkpt lat="43.22838" lon="0.18268">
        <ele>302.2</ele>
        <time>2024-04-17T13:52:57Z</time>
      </trkpt>
      <trkpt lat="43.22838" lon="0.18276">
        <ele>302.2</ele>
        <time>2024-04-17T13:52:58Z</time>
      </trkpt>
      <trkpt lat="43.22838" lon="0.18283">
        <ele>302.2</ele>
        <time>2024-04-17T13:52:59Z</time>
      </trkpt>
      <trkpt lat="43.22838" lon="0.1829">
        <ele>302</ele>
        <time>2024-04-17T13:53:00Z</time>
      </trkpt>
      <trkpt lat="43.22837" lon="0.18297">
        <ele>301.8</ele>
        <time>2024-04-17T13:53:01Z</time>
      </trkpt>
      <trkpt lat="43.22837" lon="0.18305">
        <ele>301.6</ele>
        <time>2024-04-17T13:53:02Z</time>
      </trkpt>
      <trkpt lat="43.22837" lon="0.18312">
        <ele>301.6</ele>
        <time>2024-04-17T13:53:03Z</time>
      </trkpt>
      <trkpt lat="43.22837" lon="0.18319">
        <ele>301.4</ele>
        <time>2024-04-17T13:53:04Z</time>
      </trkpt>
      <trkpt lat="43.22837" lon="0.18326">
        <ele>301</ele>
        <time>2024-04-17T13:53:05Z</time>
      </trkpt>
      <trkpt lat="43.22837" lon="0.18334">
        <ele>300.6</ele>
        <time>2024-04-17T13:53:06Z</time>
      </trkpt>
      <trkpt lat="43.22837" lon="0.18341">
        <ele>300.4</ele>
        <time>2024-04-17T13:53:07Z</time>
      </trkpt>
      <trkpt lat="43.22837" lon="0.18348">
        <ele>300.2</ele>
        <time>2024-04-17T13:53:08Z</time>
      </trkpt>
      <trkpt lat="43.22837" lon="0.18355">
        <ele>300.4</ele>
        <time>2024-04-17T13:53:09Z</time>
      </trkpt>
      <trkpt lat="43.22837" lon="0.18362">
        <ele>300.2</ele>
        <time>2024-04-17T13:53:10Z</time>
      </trkpt>
      <trkpt lat="43.22837" lon="0.18369">
        <ele>300</ele>
        <time>2024-04-17T13:53:11Z</time>
      </trkpt>
      <trkpt lat="43.22837" lon="0.18376">
        <ele>299.8</ele>
        <time>2024-04-17T13:53:12Z</time>
      </trkpt>
      <trkpt lat="43.22837" lon="0.18384">
        <ele>299.8</ele>
        <time>2024-04-17T13:53:13Z</time>
      </trkpt>
      <trkpt lat="43.22837" lon="0.18391">
        <ele>299.6</ele>
        <time>2024-04-17T13:53:14Z</time>
      </trkpt>
      <trkpt lat="43.22838" lon="0.18398">
        <ele>299.6</ele>
        <time>2024-04-17T13:53:15Z</time>
      </trkpt>
      <trkpt lat="43.22838" lon="0.18405">
        <ele>299.4</ele>
        <time>2024-04-17T13:53:16Z</time>
      </trkpt>
      <trkpt lat="43.22838" lon="0.18412">
        <ele>299.4</ele>
        <time>2024-04-17T13:53:17Z</time>
      </trkpt>
      <trkpt lat="43.22838" lon="0.18419">
        <ele>299.2</ele>
        <time>2024-04-17T13:53:18Z</time>
      </trkpt>
      <trkpt lat="43.22838" lon="0.18426">
        <ele>299</ele>
        <time>2024-04-17T13:53:19Z</time>
      </trkpt>
      <trkpt lat="43.22838" lon="0.18433">
        <ele>298.8</ele>
        <time>2024-04-17T13:53:20Z</time>
      </trkpt>
      <trkpt lat="43.22839" lon="0.18439">
        <ele>298.6</ele>
        <time>2024-04-17T13:53:21Z</time>
      </trkpt>
      <trkpt lat="43.22839" lon="0.18446">
        <ele>298.4</ele>
        <time>2024-04-17T13:53:22Z</time>
      </trkpt>
      <trkpt lat="43.22839" lon="0.18452">
        <ele>298.4</ele>
        <time>2024-04-17T13:53:23Z</time>
      </trkpt>
      <trkpt lat="43.22839" lon="0.18458">
        <ele>298.4</ele>
        <time>2024-04-17T13:53:24Z</time>
      </trkpt>
      <trkpt lat="43.22839" lon="0.18464">
        <ele>298.4</ele>
        <time>2024-04-17T13:53:25Z</time>
      </trkpt>
      <trkpt lat="43.22839" lon="0.18469">
        <ele>298.2</ele>
        <time>2024-04-17T13:53:26Z</time>
      </trkpt>
      <trkpt lat="43.22838" lon="0.18474">
        <ele>298.2</ele>
        <time>2024-04-17T13:53:27Z</time>
      </trkpt>
      <trkpt lat="43.22838" lon="0.18477">
        <ele>298</ele>
        <time>2024-04-17T13:53:28Z</time>
      </trkpt>
      <trkpt lat="43.22837" lon="0.1848">
        <ele>298</ele>
        <time>2024-04-17T13:53:29Z</time>
      </trkpt>
      <trkpt lat="43.22837" lon="0.18481">
        <ele>298</ele>
        <time>2024-04-17T13:53:30Z</time>
      </trkpt>
      <trkpt lat="43.22836" lon="0.18483">
        <ele>297.8</ele>
        <time>2024-04-17T13:53:31Z</time>
      </trkpt>
      <trkpt lat="43.22836" lon="0.18484">
        <ele>297.8</ele>
        <time>2024-04-17T13:53:32Z</time>
      </trkpt>
      <trkpt lat="43.22835" lon="0.18485">
        <ele>297.8</ele>
        <time>2024-04-17T13:53:33Z</time>
      </trkpt>
      <trkpt lat="43.22835" lon="0.18486">
        <ele>297.6</ele>
        <time>2024-04-17T13:53:34Z</time>
      </trkpt>
      <trkpt lat="43.22835" lon="0.18487">
        <ele>297.6</ele>
        <time>2024-04-17T13:53:35Z</time>
      </trkpt>
      <trkpt lat="43.22835" lon="0.18488">
        <ele>297.6</ele>
        <time>2024-04-17T13:53:36Z</time>
      </trkpt>
      <trkpt lat="43.22835" lon="0.18488">
        <ele>297.6</ele>
        <time>2024-04-17T13:53:37Z</time>
      </trkpt>
      <trkpt lat="43.22835" lon="0.18488">
        <ele>297.6</ele>
        <time>2024-04-17T13:53:38Z</time>
      </trkpt>
      <trkpt lat="43.22835" lon="0.18488">
        <ele>297.6</ele>
        <time>2024-04-17T13:53:39Z</time>
      </trkpt>
      <trkpt lat="43.22835" lon="0.18488">
        <ele>297.6</ele>
        <time>2024-04-17T13:53:40Z</time>
      </trkpt>
      <trkpt lat="43.22835" lon="0.18488">
        <ele>297.6</ele>
        <time>2024-04-17T13:53:41Z</time>
      </trkpt>
      <trkpt lat="43.22835" lon="0.18488">
        <ele>297.6</ele>
        <time>2024-04-17T13:53:42Z</time>
      </trkpt>
      <trkpt lat="43.22835" lon="0.18488">
        <ele>297.6</ele>
        <time>2024-04-17T13:53:43Z</time>
      </trkpt>
      <trkpt lat="43.22835" lon="0.18488">
        <ele>297.6</ele>
        <time>2024-04-17T13:53:44Z</time>
      </trkpt>
      <trkpt lat="43.22835" lon="0.18488">
        <ele>297.6</ele>
        <time>2024-04-17T13:53:45Z</time>
      </trkpt>
      <trkpt lat="43.22835" lon="0.18488">
        <ele>297.6</ele>
        <time>2024-04-17T13:53:46Z</time>
      </trkpt>
      <trkpt lat="43.22835" lon="0.18488">
        <ele>297.6</ele>
        <time>2024-04-17T13:53:47Z</time>
      </trkpt>
      <trkpt lat="43.22835" lon="0.18488">
        <ele>297.6</ele>
        <time>2024-04-17T13:53:48Z</time>
      </trkpt>
      <trkpt lat="43.22835" lon="0.18488">
        <ele>297.6</ele>
        <time>2024-04-17T13:53:49Z</time>
      </trkpt>
      <trkpt lat="43.22835" lon="0.18488">
        <ele>297.6</ele>
        <time>2024-04-17T13:53:50Z</time>
      </trkpt>
      <trkpt lat="43.22835" lon="0.18488">
        <ele>297.6</ele>
        <time>2024-04-17T13:53:51Z</time>
      </trkpt>
      <trkpt lat="43.22835" lon="0.18488">
        <ele>297.6</ele>
        <time>2024-04-17T13:53:52Z</time>
      </trkpt>
      <trkpt lat="43.22835" lon="0.18488">
        <ele>297.8</ele>
        <time>2024-04-17T13:53:53Z</time>
      </trkpt>
      <trkpt lat="43.22835" lon="0.18488">
        <ele>297.8</ele>
        <time>2024-04-17T13:53:54Z</time>
      </trkpt>
      <trkpt lat="43.22835" lon="0.18488">
        <ele>297.8</ele>
        <time>2024-04-17T13:53:55Z</time>
      </trkpt>
      <trkpt lat="43.22835" lon="0.18488">
        <ele>297.8</ele>
        <time>2024-04-17T13:53:56Z</time>
      </trkpt>
      <trkpt lat="43.22835" lon="0.18488">
        <ele>297.8</ele>
        <time>2024-04-17T13:53:57Z</time>
      </trkpt>
      <trkpt lat="43.22835" lon="0.18488">
        <ele>297.8</ele>
        <time>2024-04-17T13:53:58Z</time>
      </trkpt>
      <trkpt lat="43.22835" lon="0.18488">
        <ele>297.8</ele>
        <time>2024-04-17T13:53:59Z</time>
      </trkpt>
      <trkpt lat="43.22835" lon="0.18488">
        <ele>297.6</ele>
        <time>2024-04-17T13:54:00Z</time>
      </trkpt>
      <trkpt lat="43.22835" lon="0.18488">
        <ele>297.6</ele>
        <time>2024-04-17T13:54:01Z</time>
      </trkpt>
      <trkpt lat="43.22835" lon="0.18488">
        <ele>297.6</ele>
        <time>2024-04-17T13:54:02Z</time>
      </trkpt>
      <trkpt lat="43.22835" lon="0.18488">
        <ele>297.6</ele>
        <time>2024-04-17T13:54:03Z</time>
      </trkpt>
      <trkpt lat="43.22835" lon="0.18488">
        <ele>297.6</ele>
        <time>2024-04-17T13:54:04Z</time>
      </trkpt>
      <trkpt lat="43.22835" lon="0.18488">
        <ele>297.6</ele>
        <time>2024-04-17T13:54:05Z</time>
      </trkpt>
      <trkpt lat="43.22835" lon="0.18488">
        <ele>297.6</ele>
        <time>2024-04-17T13:54:06Z</time>
      </trkpt>
      <trkpt lat="43.22835" lon="0.18488">
        <ele>297.6</ele>
        <time>2024-04-17T13:54:07Z</time>
      </trkpt>
      <trkpt lat="43.22835" lon="0.18488">
        <ele>297.6</ele>
        <time>2024-04-17T13:54:08Z</time>
      </trkpt>
      <trkpt lat="43.22835" lon="0.18488">
        <ele>297.6</ele>
        <time>2024-04-17T13:54:09Z</time>
      </trkpt>
      <trkpt lat="43.22835" lon="0.18488">
        <ele>297.6</ele>
        <time>2024-04-17T13:54:10Z</time>
      </trkpt>
      <trkpt lat="43.22835" lon="0.18488">
        <ele>297.6</ele>
        <time>2024-04-17T13:54:11Z</time>
      </trkpt>
      <trkpt lat="43.22834" lon="0.18488">
        <ele>297.6</ele>
        <time>2024-04-17T13:54:12Z</time>
      </trkpt>
      <trkpt lat="43.22834" lon="0.18488">
        <ele>297.6</ele>
        <time>2024-04-17T13:54:13Z</time>
      </trkpt>
      <trkpt lat="43.22834" lon="0.18488">
        <ele>297.6</ele>
        <time>2024-04-17T13:54:14Z</time>
      </trkpt>
      <trkpt lat="43.22834" lon="0.18488">
        <ele>297.6</ele>
        <time>2024-04-17T13:54:15Z</time>
      </trkpt>
      <trkpt lat="43.22834" lon="0.18488">
        <ele>297.6</ele>
        <time>2024-04-17T13:54:16Z</time>
      </trkpt>
      <trkpt lat="43.22834" lon="0.18488">
        <ele>297.6</ele>
        <time>2024-04-17T13:54:17Z</time>
      </trkpt>
      <trkpt lat="43.22834" lon="0.18488">
        <ele>297.6</ele>
        <time>2024-04-17T13:54:18Z</time>
      </trkpt>
      <trkpt lat="43.22834" lon="0.18488">
        <ele>297.6</ele>
        <time>2024-04-17T13:54:19Z</time>
      </trkpt>
      <trkpt lat="43.22834" lon="0.18488">
        <ele>297.6</ele>
        <time>2024-04-17T13:54:20Z</time>
      </trkpt>
      <trkpt lat="43.22834" lon="0.18488">
        <ele>297.6</ele>
        <time>2024-04-17T13:54:21Z</time>
      </trkpt>
      <trkpt lat="43.22834" lon="0.18488">
        <ele>297.6</ele>
        <time>2024-04-17T13:54:22Z</time>
      </trkpt>
      <trkpt lat="43.22834" lon="0.18488">
        <ele>297.6</ele>
        <time>2024-04-17T13:54:23Z</time>
      </trkpt>
      <trkpt lat="43.22834" lon="0.18488">
        <ele>297.6</ele>
        <time>2024-04-17T13:54:24Z</time>
      </trkpt>
      <trkpt lat="43.22834" lon="0.18489">
        <ele>297.6</ele>
        <time>2024-04-17T13:54:25Z</time>
      </trkpt>
      <trkpt lat="43.22833" lon="0.1849">
        <ele>297.6</ele>
        <time>2024-04-17T13:54:26Z</time>
      </trkpt>
      <trkpt lat="43.22833" lon="0.1849">
        <ele>297.6</ele>
        <time>2024-04-17T13:54:27Z</time>
      </trkpt>
      <trkpt lat="43.22833" lon="0.18491">
        <ele>297.6</ele>
        <time>2024-04-17T13:54:28Z</time>
      </trkpt>
      <trkpt lat="43.22833" lon="0.18491">
        <ele>297.6</ele>
        <time>2024-04-17T13:54:29Z</time>
      </trkpt>
      <trkpt lat="43.22832" lon="0.18492">
        <ele>297.6</ele>
        <time>2024-04-17T13:54:30Z</time>
      </trkpt>
      <trkpt lat="43.22832" lon="0.18492">
        <ele>297.6</ele>
        <time>2024-04-17T13:54:31Z</time>
      </trkpt>
      <trkpt lat="43.22832" lon="0.18492">
        <ele>297.6</ele>
        <time>2024-04-17T13:54:32Z</time>
      </trkpt>
      <trkpt lat="43.22832" lon="0.18492">
        <ele>297.6</ele>
        <time>2024-04-17T13:54:33Z</time>
      </trkpt>
      <trkpt lat="43.22832" lon="0.18492">
        <ele>297.6</ele>
        <time>2024-04-17T13:54:34Z</time>
      </trkpt>
      <trkpt lat="43.22832" lon="0.18492">
        <ele>297.6</ele>
        <time>2024-04-17T13:54:35Z</time>
      </trkpt>
      <trkpt lat="43.22832" lon="0.18492">
        <ele>297.6</ele>
        <time>2024-04-17T13:54:36Z</time>
      </trkpt>
      <trkpt lat="43.22832" lon="0.18492">
        <ele>297.6</ele>
        <time>2024-04-17T13:54:37Z</time>
      </trkpt>
      <trkpt lat="43.22832" lon="0.18492">
        <ele>297.6</ele>
        <time>2024-04-17T13:54:38Z</time>
      </trkpt>
      <trkpt lat="43.22832" lon="0.18492">
        <ele>297.6</ele>
        <time>2024-04-17T13:54:39Z</time>
      </trkpt>
      <trkpt lat="43.22832" lon="0.18492">
        <ele>297.6</ele>
        <time>2024-04-17T13:54:40Z</time>
      </trkpt>
      <trkpt lat="43.22832" lon="0.18492">
        <ele>297.8</ele>
        <time>2024-04-17T13:54:41Z</time>
      </trkpt>
      <trkpt lat="43.22832" lon="0.18492">
        <ele>297.8</ele>
        <time>2024-04-17T13:54:42Z</time>
      </trkpt>
      <trkpt lat="43.22832" lon="0.18492">
        <ele>297.8</ele>
        <time>2024-04-17T13:54:43Z</time>
      </trkpt>
      <trkpt lat="43.22832" lon="0.18492">
        <ele>297.8</ele>
        <time>2024-04-17T13:54:44Z</time>
      </trkpt>
      <trkpt lat="43.22832" lon="0.18492">
        <ele>297.8</ele>
        <time>2024-04-17T13:54:45Z</time>
      </trkpt>
      <trkpt lat="43.22832" lon="0.18492">
        <ele>297.8</ele>
        <time>2024-04-17T13:54:46Z</time>
      </trkpt>
      <trkpt lat="43.22832" lon="0.18492">
        <ele>297.8</ele>
        <time>2024-04-17T13:54:47Z</time>
      </trkpt>
      <trkpt lat="43.22832" lon="0.18492">
        <ele>297.8</ele>
        <time>2024-04-17T13:54:48Z</time>
      </trkpt>
      <trkpt lat="43.22832" lon="0.18492">
        <ele>297.8</ele>
        <time>2024-04-17T13:54:49Z</time>
      </trkpt>
      <trkpt lat="43.22832" lon="0.18492">
        <ele>297.8</ele>
        <time>2024-04-17T13:54:50Z</time>
      </trkpt>
      <trkpt lat="43.22832" lon="0.18492">
        <ele>297.8</ele>
        <time>2024-04-17T13:54:51Z</time>
      </trkpt>
      <trkpt lat="43.22832" lon="0.18492">
        <ele>297.8</ele>
        <time>2024-04-17T13:54:52Z</time>
      </trkpt>
      <trkpt lat="43.22832" lon="0.18492">
        <ele>297.8</ele>
        <time>2024-04-17T13:54:53Z</time>
      </trkpt>
      <trkpt lat="43.22832" lon="0.18492">
        <ele>297.8</ele>
        <time>2024-04-17T13:54:54Z</time>
      </trkpt>
      <trkpt lat="43.22832" lon="0.18492">
        <ele>297.8</ele>
        <time>2024-04-17T13:54:55Z</time>
      </trkpt>
      <trkpt lat="43.22832" lon="0.18492">
        <ele>297.6</ele>
        <time>2024-04-17T13:54:56Z</time>
      </trkpt>
      <trkpt lat="43.22832" lon="0.18492">
        <ele>297.6</ele>
        <time>2024-04-17T13:54:57Z</time>
      </trkpt>
      <trkpt lat="43.22832" lon="0.18492">
        <ele>297.8</ele>
        <time>2024-04-17T13:54:58Z</time>
      </trkpt>
      <trkpt lat="43.22832" lon="0.18492">
        <ele>297.8</ele>
        <time>2024-04-17T13:54:59Z</time>
      </trkpt>
      <trkpt lat="43.22832" lon="0.18492">
        <ele>297.8</ele>
        <time>2024-04-17T13:55:00Z</time>
      </trkpt>
      <trkpt lat="43.22832" lon="0.18492">
        <ele>297.8</ele>
        <time>2024-04-17T13:55:01Z</time>
      </trkpt>
      <trkpt lat="43.22832" lon="0.18492">
        <ele>297.8</ele>
        <time>2024-04-17T13:55:02Z</time>
      </trkpt>
      <trkpt lat="43.22832" lon="0.18492">
        <ele>297.8</ele>
        <time>2024-04-17T13:55:03Z</time>
      </trkpt>
      <trkpt lat="43.22832" lon="0.18492">
        <ele>297.8</ele>
        <time>2024-04-17T13:55:04Z</time>
      </trkpt>
      <trkpt lat="43.22832" lon="0.18492">
        <ele>297.8</ele>
        <time>2024-04-17T13:55:05Z</time>
      </trkpt>
      <trkpt lat="43.22832" lon="0.18492">
        <ele>297.8</ele>
        <time>2024-04-17T13:55:06Z</time>
      </trkpt>
      <trkpt lat="43.22832" lon="0.18492">
        <ele>297.8</ele>
        <time>2024-04-17T13:55:07Z</time>
      </trkpt>
      <trkpt lat="43.22832" lon="0.18492">
        <ele>297.8</ele>
        <time>2024-04-17T13:55:08Z</time>
      </trkpt>
      <trkpt lat="43.22832" lon="0.18492">
        <ele>297.8</ele>
        <time>2024-04-17T13:55:09Z</time>
      </trkpt>
      <trkpt lat="43.22832" lon="0.18492">
        <ele>297.8</ele>
        <time>2024-04-17T13:55:10Z</time>
      </trkpt>
      <trkpt lat="43.22832" lon="0.18492">
        <ele>297.8</ele>
        <time>2024-04-17T13:55:11Z</time>
      </trkpt>
      <trkpt lat="43.22832" lon="0.18492">
        <ele>297.8</ele>
        <time>2024-04-17T13:55:12Z</time>
      </trkpt>
      <trkpt lat="43.22832" lon="0.18492">
        <ele>297.8</ele>
        <time>2024-04-17T13:55:13Z</time>
      </trkpt>
      <trkpt lat="43.22832" lon="0.18492">
        <ele>297.8</ele>
        <time>2024-04-17T13:55:14Z</time>
      </trkpt>
      <trkpt lat="43.22832" lon="0.18492">
        <ele>297.8</ele>
        <time>2024-04-17T13:55:15Z</time>
      </trkpt>
      <trkpt lat="43.22832" lon="0.18492">
        <ele>297.8</ele>
        <time>2024-04-17T13:55:16Z</time>
      </trkpt>
      <trkpt lat="43.22832" lon="0.18492">
        <ele>297.8</ele>
        <time>2024-04-17T13:55:17Z</time>
      </trkpt>
      <trkpt lat="43.22832" lon="0.18492">
        <ele>297.8</ele>
        <time>2024-04-17T13:55:18Z</time>
      </trkpt>
      <trkpt lat="43.22832" lon="0.18492">
        <ele>297.8</ele>
        <time>2024-04-17T13:55:19Z</time>
      </trkpt>
      <trkpt lat="43.22832" lon="0.18492">
        <ele>297.8</ele>
        <time>2024-04-17T13:55:20Z</time>
      </trkpt>
      <trkpt lat="43.22832" lon="0.18492">
        <ele>297.8</ele>
        <time>2024-04-17T13:55:21Z</time>
      </trkpt>
      <trkpt lat="43.22832" lon="0.18492">
        <ele>297.8</ele>
        <time>2024-04-17T13:55:22Z</time>
      </trkpt>
      <trkpt lat="43.22832" lon="0.18492">
        <ele>297.8</ele>
        <time>2024-04-17T13:55:23Z</time>
      </trkpt>
      <trkpt lat="43.22832" lon="0.18492">
        <ele>297.8</ele>
        <time>2024-04-17T13:55:24Z</time>
      </trkpt>
      <trkpt lat="43.22832" lon="0.18492">
        <ele>297.8</ele>
        <time>2024-04-17T13:55:25Z</time>
      </trkpt>
      <trkpt lat="43.22832" lon="0.18492">
        <ele>297.8</ele>
        <time>2024-04-17T13:55:26Z</time>
      </trkpt>
      <trkpt lat="43.22832" lon="0.18492">
        <ele>297.8</ele>
        <time>2024-04-17T13:55:27Z</time>
      </trkpt>
      <trkpt lat="43.22832" lon="0.18492">
        <ele>297.8</ele>
        <time>2024-04-17T13:55:28Z</time>
      </trkpt>
      <trkpt lat="43.22832" lon="0.18492">
        <ele>297.8</ele>
        <time>2024-04-17T13:55:29Z</time>
      </trkpt>
      <trkpt lat="43.22832" lon="0.18492">
        <ele>297.8</ele>
        <time>2024-04-17T13:55:30Z</time>
      </trkpt>
      <trkpt lat="43.22832" lon="0.18492">
        <ele>297.8</ele>
        <time>2024-04-17T13:55:31Z</time>
      </trkpt>
      <trkpt lat="43.22832" lon="0.18492">
        <ele>297.8</ele>
        <time>2024-04-17T13:55:32Z</time>
      </trkpt>
      <trkpt lat="43.22832" lon="0.18492">
        <ele>297.8</ele>
        <time>2024-04-17T13:55:33Z</time>
      </trkpt>
      <trkpt lat="43.22832" lon="0.18492">
        <ele>297.8</ele>
        <time>2024-04-17T13:55:34Z</time>
      </trkpt>
      <trkpt lat="43.22832" lon="0.18492">
        <ele>297.8</ele>
        <time>2024-04-17T13:55:35Z</time>
      </trkpt>
      <trkpt lat="43.22832" lon="0.18492">
        <ele>297.8</ele>
        <time>2024-04-17T13:55:36Z</time>
      </trkpt>
      <trkpt lat="43.22832" lon="0.18492">
        <ele>297.8</ele>
        <time>2024-04-17T13:55:37Z</time>
      </trkpt>
      <trkpt lat="43.22832" lon="0.18492">
        <ele>298</ele>
        <time>2024-04-17T13:55:38Z</time>
      </trkpt>
      <trkpt lat="43.22832" lon="0.18492">
        <ele>298.2</ele>
        <time>2024-04-17T13:55:39Z</time>
      </trkpt>
      <trkpt lat="43.22832" lon="0.18492">
        <ele>298.2</ele>
        <time>2024-04-17T13:55:40Z</time>
      </trkpt>
      <trkpt lat="43.22832" lon="0.18492">
        <ele>298.2</ele>
        <time>2024-04-17T13:55:41Z</time>
      </trkpt>
      <trkpt lat="43.22832" lon="0.18492">
        <ele>298.2</ele>
        <time>2024-04-17T13:55:42Z</time>
      </trkpt>
      <trkpt lat="43.22832" lon="0.18492">
        <ele>298</ele>
        <time>2024-04-17T13:55:43Z</time>
      </trkpt>
      <trkpt lat="43.22832" lon="0.18492">
        <ele>298</ele>
        <time>2024-04-17T13:55:44Z</time>
      </trkpt>
      <trkpt lat="43.22832" lon="0.18492">
        <ele>297.8</ele>
        <time>2024-04-17T13:55:45Z</time>
      </trkpt>
      <trkpt lat="43.22832" lon="0.18492">
        <ele>297.8</ele>
        <time>2024-04-17T13:55:46Z</time>
      </trkpt>
      <trkpt lat="43.22832" lon="0.18492">
        <ele>297.8</ele>
        <time>2024-04-17T13:55:47Z</time>
      </trkpt>
      <trkpt lat="43.22832" lon="0.18492">
        <ele>297.8</ele>
        <time>2024-04-17T13:55:48Z</time>
      </trkpt>
      <trkpt lat="43.22832" lon="0.18492">
        <ele>297.8</ele>
        <time>2024-04-17T13:55:49Z</time>
      </trkpt>
      <trkpt lat="43.22832" lon="0.18492">
        <ele>297.6</ele>
        <time>2024-04-17T13:55:50Z</time>
      </trkpt>
      <trkpt lat="43.22832" lon="0.18492">
        <ele>297.6</ele>
        <time>2024-04-17T13:55:51Z</time>
      </trkpt>
      <trkpt lat="43.22832" lon="0.18492">
        <ele>297.6</ele>
        <time>2024-04-17T13:55:52Z</time>
      </trkpt>
      <trkpt lat="43.22832" lon="0.18491">
        <ele>297.6</ele>
        <time>2024-04-17T13:55:53Z</time>
      </trkpt>
      <trkpt lat="43.22832" lon="0.18491">
        <ele>297.6</ele>
        <time>2024-04-17T13:55:54Z</time>
      </trkpt>
      <trkpt lat="43.22832" lon="0.18491">
        <ele>297.6</ele>
        <time>2024-04-17T13:55:55Z</time>
      </trkpt>
      <trkpt lat="43.22832" lon="0.18491">
        <ele>297.6</ele>
        <time>2024-04-17T13:55:56Z</time>
      </trkpt>
      <trkpt lat="43.22832" lon="0.18491">
        <ele>297.8</ele>
        <time>2024-04-17T13:55:57Z</time>
      </trkpt>
      <trkpt lat="43.22832" lon="0.18491">
        <ele>297.8</ele>
        <time>2024-04-17T13:55:58Z</time>
      </trkpt>
      <trkpt lat="43.22832" lon="0.18491">
        <ele>297.8</ele>
        <time>2024-04-17T13:55:59Z</time>
      </trkpt>
      <trkpt lat="43.22832" lon="0.18491">
        <ele>297.8</ele>
        <time>2024-04-17T13:56:00Z</time>
      </trkpt>
      <trkpt lat="43.22832" lon="0.18491">
        <ele>297.8</ele>
        <time>2024-04-17T13:56:01Z</time>
      </trkpt>
      <trkpt lat="43.22832" lon="0.18491">
        <ele>297.8</ele>
        <time>2024-04-17T13:56:02Z</time>
      </trkpt>
      <trkpt lat="43.22832" lon="0.18491">
        <ele>297.8</ele>
        <time>2024-04-17T13:56:03Z</time>
      </trkpt>
      <trkpt lat="43.22832" lon="0.18491">
        <ele>297.8</ele>
        <time>2024-04-17T13:56:04Z</time>
      </trkpt>
      <trkpt lat="43.22832" lon="0.18491">
        <ele>297.8</ele>
        <time>2024-04-17T13:56:05Z</time>
      </trkpt>
      <trkpt lat="43.22832" lon="0.18491">
        <ele>297.8</ele>
        <time>2024-04-17T13:56:06Z</time>
      </trkpt>
      <trkpt lat="43.22832" lon="0.18491">
        <ele>297.8</ele>
        <time>2024-04-17T13:56:07Z</time>
      </trkpt>
      <trkpt lat="43.22832" lon="0.18491">
        <ele>297.8</ele>
        <time>2024-04-17T13:56:08Z</time>
      </trkpt>
      <trkpt lat="43.22832" lon="0.18491">
        <ele>297.8</ele>
        <time>2024-04-17T13:56:09Z</time>
      </trkpt>
      <trkpt lat="43.22832" lon="0.18491">
        <ele>297.8</ele>
        <time>2024-04-17T13:56:10Z</time>
      </trkpt>
      <trkpt lat="43.22832" lon="0.18491">
        <ele>297.8</ele>
        <time>2024-04-17T13:56:11Z</time>
      </trkpt>
      <trkpt lat="43.22832" lon="0.18491">
        <ele>297.8</ele>
        <time>2024-04-17T13:56:12Z</time>
      </trkpt>
      <trkpt lat="43.22832" lon="0.18491">
        <ele>297.8</ele>
        <time>2024-04-17T13:56:13Z</time>
      </trkpt>
      <trkpt lat="43.22832" lon="0.18491">
        <ele>297.8</ele>
        <time>2024-04-17T13:56:14Z</time>
      </trkpt>
      <trkpt lat="43.22832" lon="0.18491">
        <ele>297.8</ele>
        <time>2024-04-17T13:56:15Z</time>
      </trkpt>
      <trkpt lat="43.22832" lon="0.18491">
        <ele>297.8</ele>
        <time>2024-04-17T13:56:16Z</time>
      </trkpt>
      <trkpt lat="43.22832" lon="0.18491">
        <ele>297.8</ele>
        <time>2024-04-17T13:56:17Z</time>
      </trkpt>
      <trkpt lat="43.22832" lon="0.18491">
        <ele>297.8</ele>
        <time>2024-04-17T13:56:18Z</time>
      </trkpt>
      <trkpt lat="43.22832" lon="0.18491">
        <ele>297.8</ele>
        <time>2024-04-17T13:56:19Z</time>
      </trkpt>
      <trkpt lat="43.22832" lon="0.18491">
        <ele>297.8</ele>
        <time>2024-04-17T13:56:20Z</time>
      </trkpt>
      <trkpt lat="43.22832" lon="0.18491">
        <ele>297.8</ele>
        <time>2024-04-17T13:56:21Z</time>
      </trkpt>
      <trkpt lat="43.22832" lon="0.18491">
        <ele>298</ele>
        <time>2024-04-17T13:56:22Z</time>
      </trkpt>
      <trkpt lat="43.22832" lon="0.18491">
        <ele>298</ele>
        <time>2024-04-17T13:56:23Z</time>
      </trkpt>
      <trkpt lat="43.22832" lon="0.18491">
        <ele>298</ele>
        <time>2024-04-17T13:56:24Z</time>
      </trkpt>
      <trkpt lat="43.22832" lon="0.18491">
        <ele>298</ele>
        <time>2024-04-17T13:56:25Z</time>
      </trkpt>
      <trkpt lat="43.22832" lon="0.18491">
        <ele>298</ele>
        <time>2024-04-17T13:56:26Z</time>
      </trkpt>
      <trkpt lat="43.22832" lon="0.18491">
        <ele>298</ele>
        <time>2024-04-17T13:56:27Z</time>
      </trkpt>
      <trkpt lat="43.22832" lon="0.18491">
        <ele>298</ele>
        <time>2024-04-17T13:56:28Z</time>
      </trkpt>
      <trkpt lat="43.22832" lon="0.18491">
        <ele>298</ele>
        <time>2024-04-17T13:56:29Z</time>
      </trkpt>
      <trkpt lat="43.22832" lon="0.18491">
        <ele>298</ele>
        <time>2024-04-17T13:56:30Z</time>
      </trkpt>
      <trkpt lat="43.22832" lon="0.18491">
        <ele>298</ele>
        <time>2024-04-17T13:56:31Z</time>
      </trkpt>
      <trkpt lat="43.22832" lon="0.18491">
        <ele>298</ele>
        <time>2024-04-17T13:56:32Z</time>
      </trkpt>
      <trkpt lat="43.22832" lon="0.18491">
        <ele>298</ele>
        <time>2024-04-17T13:56:33Z</time>
      </trkpt>
      <trkpt lat="43.22832" lon="0.18491">
        <ele>298</ele>
        <time>2024-04-17T13:56:34Z</time>
      </trkpt>
      <trkpt lat="43.22832" lon="0.18491">
        <ele>298</ele>
        <time>2024-04-17T13:56:35Z</time>
      </trkpt>
      <trkpt lat="43.22832" lon="0.18491">
        <ele>298</ele>
        <time>2024-04-17T13:56:36Z</time>
      </trkpt>
      <trkpt lat="43.22832" lon="0.18491">
        <ele>298</ele>
        <time>2024-04-17T13:56:37Z</time>
      </trkpt>
      <trkpt lat="43.22832" lon="0.18491">
        <ele>298</ele>
        <time>2024-04-17T13:56:38Z</time>
      </trkpt>
      <trkpt lat="43.22832" lon="0.18491">
        <ele>298</ele>
        <time>2024-04-17T13:56:39Z</time>
      </trkpt>
      <trkpt lat="43.22832" lon="0.18491">
        <ele>297.8</ele>
        <time>2024-04-17T13:56:40Z</time>
      </trkpt>
      <trkpt lat="43.22832" lon="0.18491">
        <ele>297.8</ele>
        <time>2024-04-17T13:56:41Z</time>
      </trkpt>
      <trkpt lat="43.22832" lon="0.18491">
        <ele>297.8</ele>
        <time>2024-04-17T13:56:42Z</time>
      </trkpt>
      <trkpt lat="43.22832" lon="0.18491">
        <ele>297.8</ele>
        <time>2024-04-17T13:56:43Z</time>
      </trkpt>
      <trkpt lat="43.22832" lon="0.18491">
        <ele>297.8</ele>
        <time>2024-04-17T13:56:44Z</time>
      </trkpt>
      <trkpt lat="43.22832" lon="0.18491">
        <ele>297.8</ele>
        <time>2024-04-17T13:56:45Z</time>
      </trkpt>
      <trkpt lat="43.22832" lon="0.18491">
        <ele>297.8</ele>
        <time>2024-04-17T13:56:46Z</time>
      </trkpt>
      <trkpt lat="43.22832" lon="0.18491">
        <ele>297.8</ele>
        <time>2024-04-17T13:56:47Z</time>
      </trkpt>
      <trkpt lat="43.22832" lon="0.18491">
        <ele>297.8</ele>
        <time>2024-04-17T13:56:48Z</time>
      </trkpt>
      <trkpt lat="43.22832" lon="0.18491">
        <ele>297.8</ele>
        <time>2024-04-17T13:56:49Z</time>
      </trkpt>
      <trkpt lat="43.22832" lon="0.18491">
        <ele>297.8</ele>
        <time>2024-04-17T13:56:50Z</time>
      </trkpt>
      <trkpt lat="43.22832" lon="0.18491">
        <ele>297.8</ele>
        <time>2024-04-17T13:56:51Z</time>
      </trkpt>
      <trkpt lat="43.22832" lon="0.18491">
        <ele>297.8</ele>
        <time>2024-04-17T13:56:52Z</time>
      </trkpt>
      <trkpt lat="43.22832" lon="0.18491">
        <ele>297.8</ele>
        <time>2024-04-17T13:56:53Z</time>
      </trkpt>
      <trkpt lat="43.22832" lon="0.18491">
        <ele>298</ele>
        <time>2024-04-17T13:56:54Z</time>
      </trkpt>
      <trkpt lat="43.22832" lon="0.18491">
        <ele>298</ele>
        <time>2024-04-17T13:56:55Z</time>
      </trkpt>
      <trkpt lat="43.22832" lon="0.18491">
        <ele>298</ele>
        <time>2024-04-17T13:56:56Z</time>
      </trkpt>
      <trkpt lat="43.22832" lon="0.18491">
        <ele>298</ele>
        <time>2024-04-17T13:56:57Z</time>
      </trkpt>
      <trkpt lat="43.22832" lon="0.18491">
        <ele>298</ele>
        <time>2024-04-17T13:56:58Z</time>
      </trkpt>
      <trkpt lat="43.22832" lon="0.18491">
        <ele>298</ele>
        <time>2024-04-17T13:56:59Z</time>
      </trkpt>
      <trkpt lat="43.22832" lon="0.18491">
        <ele>298</ele>
        <time>2024-04-17T13:57:00Z</time>
      </trkpt>
      <trkpt lat="43.22832" lon="0.18491">
        <ele>297.8</ele>
        <time>2024-04-17T13:57:01Z</time>
      </trkpt>
      <trkpt lat="43.22832" lon="0.18491">
        <ele>297.8</ele>
        <time>2024-04-17T13:57:02Z</time>
      </trkpt>
      <trkpt lat="43.22832" lon="0.18491">
        <ele>297.8</ele>
        <time>2024-04-17T13:57:03Z</time>
      </trkpt>
      <trkpt lat="43.22832" lon="0.18491">
        <ele>298</ele>
        <time>2024-04-17T13:57:04Z</time>
      </trkpt>
      <trkpt lat="43.22832" lon="0.18491">
        <ele>298</ele>
        <time>2024-04-17T13:57:05Z</time>
      </trkpt>
      <trkpt lat="43.22832" lon="0.18491">
        <ele>298</ele>
        <time>2024-04-17T13:57:06Z</time>
      </trkpt>
      <trkpt lat="43.22832" lon="0.18491">
        <ele>298</ele>
        <time>2024-04-17T13:57:07Z</time>
      </trkpt>
      <trkpt lat="43.22832" lon="0.18491">
        <ele>298</ele>
        <time>2024-04-17T13:57:08Z</time>
      </trkpt>
      <trkpt lat="43.22832" lon="0.18491">
        <ele>298</ele>
        <time>2024-04-17T13:57:09Z</time>
      </trkpt>
      <trkpt lat="43.22832" lon="0.18491">
        <ele>298</ele>
        <time>2024-04-17T13:57:10Z</time>
      </trkpt>
      <trkpt lat="43.22832" lon="0.18491">
        <ele>298</ele>
        <time>2024-04-17T13:57:11Z</time>
      </trkpt>
      <trkpt lat="43.22832" lon="0.18491">
        <ele>298</ele>
        <time>2024-04-17T13:57:12Z</time>
      </trkpt>
      <trkpt lat="43.22832" lon="0.18491">
        <ele>298</ele>
        <time>2024-04-17T13:57:13Z</time>
      </trkpt>
      <trkpt lat="43.22832" lon="0.18491">
        <ele>298</ele>
        <time>2024-04-17T13:57:14Z</time>
      </trkpt>
      <trkpt lat="43.22832" lon="0.18491">
        <ele>298</ele>
        <time>2024-04-17T13:57:15Z</time>
      </trkpt>
      <trkpt lat="43.22832" lon="0.18491">
        <ele>297.8</ele>
        <time>2024-04-17T13:57:16Z</time>
      </trkpt>
      <trkpt lat="43.22832" lon="0.18491">
        <ele>297.8</ele>
        <time>2024-04-17T13:57:17Z</time>
      </trkpt>
      <trkpt lat="43.22832" lon="0.18491">
        <ele>297.8</ele>
        <time>2024-04-17T13:57:18Z</time>
      </trkpt>
      <trkpt lat="43.22832" lon="0.18491">
        <ele>297.8</ele>
        <time>2024-04-17T13:57:19Z</time>
      </trkpt>
      <trkpt lat="43.22832" lon="0.18491">
        <ele>297.8</ele>
        <time>2024-04-17T13:57:20Z</time>
      </trkpt>
      <trkpt lat="43.22832" lon="0.18491">
        <ele>297.8</ele>
        <time>2024-04-17T13:57:21Z</time>
      </trkpt>
      <trkpt lat="43.22832" lon="0.18491">
        <ele>297.8</ele>
        <time>2024-04-17T13:57:22Z</time>
      </trkpt>
      <trkpt lat="43.22832" lon="0.18491">
        <ele>297.8</ele>
        <time>2024-04-17T13:57:23Z</time>
      </trkpt>
      <trkpt lat="43.22832" lon="0.18491">
        <ele>297.8</ele>
        <time>2024-04-17T13:57:24Z</time>
      </trkpt>
      <trkpt lat="43.22832" lon="0.18491">
        <ele>297.8</ele>
        <time>2024-04-17T13:57:25Z</time>
      </trkpt>
      <trkpt lat="43.22832" lon="0.18491">
        <ele>297.8</ele>
        <time>2024-04-17T13:57:26Z</time>
      </trkpt>
      <trkpt lat="43.22832" lon="0.18491">
        <ele>297.8</ele>
        <time>2024-04-17T13:57:27Z</time>
      </trkpt>
      <trkpt lat="43.22832" lon="0.18491">
        <ele>297.8</ele>
        <time>2024-04-17T13:57:28Z</time>
      </trkpt>
      <trkpt lat="43.22832" lon="0.18491">
        <ele>297.8</ele>
        <time>2024-04-17T13:57:29Z</time>
      </trkpt>
      <trkpt lat="43.22832" lon="0.18491">
        <ele>297.8</ele>
        <time>2024-04-17T13:57:30Z</time>
      </trkpt>
      <trkpt lat="43.22832" lon="0.18491">
        <ele>297.8</ele>
        <time>2024-04-17T13:57:31Z</time>
      </trkpt>
      <trkpt lat="43.22832" lon="0.18491">
        <ele>297.8</ele>
        <time>2024-04-17T13:57:32Z</time>
      </trkpt>
      <trkpt lat="43.22832" lon="0.18491">
        <ele>297.8</ele>
        <time>2024-04-17T13:57:33Z</time>
      </trkpt>
      <trkpt lat="43.22832" lon="0.18491">
        <ele>297.8</ele>
        <time>2024-04-17T13:57:34Z</time>
      </trkpt>
      <trkpt lat="43.22832" lon="0.18491">
        <ele>297.8</ele>
        <time>2024-04-17T13:57:35Z</time>
      </trkpt>
      <trkpt lat="43.22832" lon="0.18491">
        <ele>297.8</ele>
        <time>2024-04-17T13:57:36Z</time>
      </trkpt>
      <trkpt lat="43.22832" lon="0.18491">
        <ele>298</ele>
        <time>2024-04-17T13:57:37Z</time>
      </trkpt>
      <trkpt lat="43.22832" lon="0.18491">
        <ele>298</ele>
        <time>2024-04-17T13:57:38Z</time>
      </trkpt>
      <trkpt lat="43.22832" lon="0.18491">
        <ele>298</ele>
        <time>2024-04-17T13:57:39Z</time>
      </trkpt>
      <trkpt lat="43.22832" lon="0.18491">
        <ele>298</ele>
        <time>2024-04-17T13:57:40Z</time>
      </trkpt>
      <trkpt lat="43.22832" lon="0.18491">
        <ele>297.8</ele>
        <time>2024-04-17T13:57:41Z</time>
      </trkpt>
      <trkpt lat="43.22832" lon="0.18491">
        <ele>297.8</ele>
        <time>2024-04-17T13:57:42Z</time>
      </trkpt>
      <trkpt lat="43.22832" lon="0.18491">
        <ele>297.8</ele>
        <time>2024-04-17T13:57:43Z</time>
      </trkpt>
      <trkpt lat="43.22832" lon="0.18491">
        <ele>297.8</ele>
        <time>2024-04-17T13:57:44Z</time>
      </trkpt>
      <trkpt lat="43.22832" lon="0.18491">
        <ele>297.8</ele>
        <time>2024-04-17T13:57:45Z</time>
      </trkpt>
      <trkpt lat="43.22832" lon="0.18491">
        <ele>297.8</ele>
        <time>2024-04-17T13:57:46Z</time>
      </trkpt>
      <trkpt lat="43.22832" lon="0.18491">
        <ele>298</ele>
        <time>2024-04-17T13:57:47Z</time>
      </trkpt>
      <trkpt lat="43.22832" lon="0.18491">
        <ele>298</ele>
        <time>2024-04-17T13:57:48Z</time>
      </trkpt>
      <trkpt lat="43.22832" lon="0.18491">
        <ele>298</ele>
        <time>2024-04-17T13:57:49Z</time>
      </trkpt>
      <trkpt lat="43.22832" lon="0.18491">
        <ele>298</ele>
        <time>2024-04-17T13:57:50Z</time>
      </trkpt>
      <trkpt lat="43.22832" lon="0.18491">
        <ele>298</ele>
        <time>2024-04-17T13:57:51Z</time>
      </trkpt>
      <trkpt lat="43.22832" lon="0.18491">
        <ele>298</ele>
        <time>2024-04-17T13:57:52Z</time>
      </trkpt>
      <trkpt lat="43.22832" lon="0.18491">
        <ele>298</ele>
        <time>2024-04-17T13:57:53Z</time>
      </trkpt>
      <trkpt lat="43.22832" lon="0.18491">
        <ele>298</ele>
        <time>2024-04-17T13:57:54Z</time>
      </trkpt>
      <trkpt lat="43.22832" lon="0.18491">
        <ele>298</ele>
        <time>2024-04-17T13:57:55Z</time>
      </trkpt>
      <trkpt lat="43.22832" lon="0.18491">
        <ele>298.2</ele>
        <time>2024-04-17T13:57:56Z</time>
      </trkpt>
      <trkpt lat="43.22832" lon="0.18491">
        <ele>298.2</ele>
        <time>2024-04-17T13:57:57Z</time>
      </trkpt>
      <trkpt lat="43.22832" lon="0.18491">
        <ele>298.2</ele>
        <time>2024-04-17T13:57:58Z</time>
      </trkpt>
      <trkpt lat="43.22832" lon="0.18491">
        <ele>298.2</ele>
        <time>2024-04-17T13:57:59Z</time>
      </trkpt>
      <trkpt lat="43.22832" lon="0.18491">
        <ele>298.2</ele>
        <time>2024-04-17T13:58:00Z</time>
      </trkpt>
      <trkpt lat="43.22832" lon="0.18491">
        <ele>298.2</ele>
        <time>2024-04-17T13:58:01Z</time>
      </trkpt>
      <trkpt lat="43.22832" lon="0.18491">
        <ele>298.2</ele>
        <time>2024-04-17T13:58:02Z</time>
      </trkpt>
      <trkpt lat="43.22832" lon="0.18491">
        <ele>298.2</ele>
        <time>2024-04-17T13:58:03Z</time>
      </trkpt>
      <trkpt lat="43.22832" lon="0.18491">
        <ele>298.2</ele>
        <time>2024-04-17T13:58:04Z</time>
      </trkpt>
      <trkpt lat="43.22832" lon="0.18491">
        <ele>298.2</ele>
        <time>2024-04-17T13:58:05Z</time>
      </trkpt>
      <trkpt lat="43.22832" lon="0.18491">
        <ele>298.2</ele>
        <time>2024-04-17T13:58:06Z</time>
      </trkpt>
      <trkpt lat="43.22832" lon="0.18491">
        <ele>298.2</ele>
        <time>2024-04-17T13:58:07Z</time>
      </trkpt>
      <trkpt lat="43.22832" lon="0.18491">
        <ele>298.2</ele>
        <time>2024-04-17T13:58:08Z</time>
      </trkpt>
      <trkpt lat="43.22832" lon="0.18491">
        <ele>298.2</ele>
        <time>2024-04-17T13:58:09Z</time>
      </trkpt>
      <trkpt lat="43.22832" lon="0.18491">
        <ele>298.2</ele>
        <time>2024-04-17T13:58:10Z</time>
      </trkpt>
      <trkpt lat="43.22832" lon="0.18491">
        <ele>298.2</ele>
        <time>2024-04-17T13:58:11Z</time>
      </trkpt>
      <trkpt lat="43.22832" lon="0.18491">
        <ele>298.2</ele>
        <time>2024-04-17T13:58:12Z</time>
      </trkpt>
      <trkpt lat="43.22832" lon="0.18491">
        <ele>298.2</ele>
        <time>2024-04-17T13:58:13Z</time>
      </trkpt>
      <trkpt lat="43.22832" lon="0.18491">
        <ele>298.2</ele>
        <time>2024-04-17T13:58:14Z</time>
      </trkpt>
      <trkpt lat="43.22832" lon="0.18491">
        <ele>298.2</ele>
        <time>2024-04-17T13:58:15Z</time>
      </trkpt>
      <trkpt lat="43.22832" lon="0.18491">
        <ele>298.2</ele>
        <time>2024-04-17T13:58:16Z</time>
      </trkpt>
      <trkpt lat="43.22832" lon="0.18491">
        <ele>298.2</ele>
        <time>2024-04-17T13:58:17Z</time>
      </trkpt>
      <trkpt lat="43.22832" lon="0.18491">
        <ele>298.2</ele>
        <time>2024-04-17T13:58:18Z</time>
      </trkpt>
      <trkpt lat="43.22832" lon="0.18491">
        <ele>298.2</ele>
        <time>2024-04-17T13:58:19Z</time>
      </trkpt>
      <trkpt lat="43.22832" lon="0.18491">
        <ele>298.2</ele>
        <time>2024-04-17T13:58:20Z</time>
      </trkpt>
      <trkpt lat="43.22832" lon="0.18491">
        <ele>298.2</ele>
        <time>2024-04-17T13:58:21Z</time>
      </trkpt>
      <trkpt lat="43.22832" lon="0.18491">
        <ele>298.2</ele>
        <time>2024-04-17T13:58:22Z</time>
      </trkpt>
      <trkpt lat="43.22832" lon="0.18491">
        <ele>298.2</ele>
        <time>2024-04-17T13:58:23Z</time>
      </trkpt>
      <trkpt lat="43.22832" lon="0.18491">
        <ele>298.2</ele>
        <time>2024-04-17T13:58:24Z</time>
      </trkpt>
      <trkpt lat="43.22832" lon="0.18491">
        <ele>298.2</ele>
        <time>2024-04-17T13:58:25Z</time>
      </trkpt>
      <trkpt lat="43.22832" lon="0.18491">
        <ele>298.2</ele>
        <time>2024-04-17T13:58:26Z</time>
      </trkpt>
      <trkpt lat="43.22832" lon="0.18492">
        <ele>298</ele>
        <time>2024-04-17T13:58:27Z</time>
      </trkpt>
      <trkpt lat="43.22832" lon="0.18492">
        <ele>298</ele>
        <time>2024-04-17T13:58:28Z</time>
      </trkpt>
      <trkpt lat="43.22832" lon="0.18492">
        <ele>298</ele>
        <time>2024-04-17T13:58:29Z</time>
      </trkpt>
      <trkpt lat="43.22832" lon="0.18492">
        <ele>298</ele>
        <time>2024-04-17T13:58:30Z</time>
      </trkpt>
      <trkpt lat="43.22832" lon="0.18492">
        <ele>298</ele>
        <time>2024-04-17T13:58:31Z</time>
      </trkpt>
      <trkpt lat="43.22832" lon="0.18492">
        <ele>298</ele>
        <time>2024-04-17T13:58:32Z</time>
      </trkpt>
      <trkpt lat="43.22832" lon="0.18492">
        <ele>298</ele>
        <time>2024-04-17T13:58:33Z</time>
      </trkpt>
      <trkpt lat="43.22832" lon="0.18492">
        <ele>298</ele>
        <time>2024-04-17T13:58:34Z</time>
      </trkpt>
      <trkpt lat="43.22832" lon="0.18492">
        <ele>298</ele>
        <time>2024-04-17T13:58:35Z</time>
      </trkpt>
      <trkpt lat="43.22832" lon="0.18492">
        <ele>298</ele>
        <time>2024-04-17T13:58:36Z</time>
      </trkpt>
      <trkpt lat="43.22832" lon="0.18492">
        <ele>298</ele>
        <time>2024-04-17T13:58:37Z</time>
      </trkpt>
      <trkpt lat="43.22832" lon="0.18492">
        <ele>298</ele>
        <time>2024-04-17T13:58:38Z</time>
      </trkpt>
      <trkpt lat="43.22832" lon="0.18492">
        <ele>298</ele>
        <time>2024-04-17T13:58:39Z</time>
      </trkpt>
      <trkpt lat="43.22832" lon="0.18492">
        <ele>298</ele>
        <time>2024-04-17T13:58:40Z</time>
      </trkpt>
      <trkpt lat="43.22832" lon="0.18492">
        <ele>298</ele>
        <time>2024-04-17T13:58:41Z</time>
      </trkpt>
      <trkpt lat="43.22832" lon="0.18492">
        <ele>298</ele>
        <time>2024-04-17T13:58:42Z</time>
      </trkpt>
      <trkpt lat="43.22832" lon="0.18492">
        <ele>298</ele>
        <time>2024-04-17T13:58:43Z</time>
      </trkpt>
      <trkpt lat="43.22832" lon="0.18492">
        <ele>298</ele>
        <time>2024-04-17T13:58:44Z</time>
      </trkpt>
      <trkpt lat="43.22832" lon="0.18492">
        <ele>298</ele>
        <time>2024-04-17T13:58:45Z</time>
      </trkpt>
      <trkpt lat="43.22832" lon="0.18492">
        <ele>298</ele>
        <time>2024-04-17T13:58:46Z</time>
      </trkpt>
      <trkpt lat="43.22832" lon="0.18492">
        <ele>298</ele>
        <time>2024-04-17T13:58:47Z</time>
      </trkpt>
      <trkpt lat="43.22832" lon="0.18492">
        <ele>298</ele>
        <time>2024-04-17T13:58:48Z</time>
      </trkpt>
      <trkpt lat="43.22832" lon="0.18492">
        <ele>298</ele>
        <time>2024-04-17T13:58:49Z</time>
      </trkpt>
      <trkpt lat="43.22832" lon="0.18492">
        <ele>298</ele>
        <time>2024-04-17T13:58:50Z</time>
      </trkpt>
      <trkpt lat="43.22832" lon="0.18492">
        <ele>298</ele>
        <time>2024-04-17T13:58:51Z</time>
      </trkpt>
      <trkpt lat="43.22832" lon="0.18492">
        <ele>298</ele>
        <time>2024-04-17T13:58:52Z</time>
      </trkpt>
      <trkpt lat="43.22832" lon="0.18492">
        <ele>298</ele>
        <time>2024-04-17T13:58:53Z</time>
      </trkpt>
      <trkpt lat="43.22832" lon="0.18492">
        <ele>298</ele>
        <time>2024-04-17T13:58:54Z</time>
      </trkpt>
      <trkpt lat="43.22832" lon="0.18492">
        <ele>298</ele>
        <time>2024-04-17T13:58:55Z</time>
      </trkpt>
      <trkpt lat="43.22832" lon="0.18492">
        <ele>298</ele>
        <time>2024-04-17T13:58:56Z</time>
      </trkpt>
      <trkpt lat="43.22832" lon="0.18492">
        <ele>298</ele>
        <time>2024-04-17T13:58:57Z</time>
      </trkpt>
      <trkpt lat="43.22832" lon="0.18492">
        <ele>298</ele>
        <time>2024-04-17T13:58:58Z</time>
      </trkpt>
      <trkpt lat="43.22832" lon="0.18492">
        <ele>298.2</ele>
        <time>2024-04-17T13:58:59Z</time>
      </trkpt>
      <trkpt lat="43.22832" lon="0.18492">
        <ele>298</ele>
        <time>2024-04-17T13:59:00Z</time>
      </trkpt>
      <trkpt lat="43.22832" lon="0.18492">
        <ele>298.2</ele>
        <time>2024-04-17T13:59:01Z</time>
      </trkpt>
      <trkpt lat="43.22832" lon="0.18492">
        <ele>298.2</ele>
        <time>2024-04-17T13:59:02Z</time>
      </trkpt>
      <trkpt lat="43.22832" lon="0.18492">
        <ele>298.2</ele>
        <time>2024-04-17T13:59:03Z</time>
      </trkpt>
      <trkpt lat="43.22832" lon="0.18492">
        <ele>298.2</ele>
        <time>2024-04-17T13:59:04Z</time>
      </trkpt>
      <trkpt lat="43.22832" lon="0.18492">
        <ele>298.4</ele>
        <time>2024-04-17T13:59:05Z</time>
      </trkpt>
      <trkpt lat="43.22832" lon="0.18492">
        <ele>298.4</ele>
        <time>2024-04-17T13:59:06Z</time>
      </trkpt>
      <trkpt lat="43.22832" lon="0.18492">
        <ele>298.4</ele>
        <time>2024-04-17T13:59:07Z</time>
      </trkpt>
      <trkpt lat="43.22832" lon="0.18492">
        <ele>298.4</ele>
        <time>2024-04-17T13:59:08Z</time>
      </trkpt>
      <trkpt lat="43.22832" lon="0.18492">
        <ele>298.4</ele>
        <time>2024-04-17T13:59:09Z</time>
      </trkpt>
      <trkpt lat="43.22832" lon="0.18492">
        <ele>298.4</ele>
        <time>2024-04-17T13:59:10Z</time>
      </trkpt>
      <trkpt lat="43.22832" lon="0.18492">
        <ele>298.4</ele>
        <time>2024-04-17T13:59:11Z</time>
      </trkpt>
      <trkpt lat="43.22832" lon="0.18492">
        <ele>298.4</ele>
        <time>2024-04-17T13:59:12Z</time>
      </trkpt>
      <trkpt lat="43.22832" lon="0.18492">
        <ele>298.4</ele>
        <time>2024-04-17T13:59:13Z</time>
      </trkpt>
      <trkpt lat="43.22832" lon="0.18492">
        <ele>298.4</ele>
        <time>2024-04-17T13:59:14Z</time>
      </trkpt>
      <trkpt lat="43.22832" lon="0.18492">
        <ele>298.4</ele>
        <time>2024-04-17T13:59:15Z</time>
      </trkpt>
      <trkpt lat="43.22832" lon="0.18492">
        <ele>298.4</ele>
        <time>2024-04-17T13:59:16Z</time>
      </trkpt>
      <trkpt lat="43.22832" lon="0.18492">
        <ele>298.4</ele>
        <time>2024-04-17T13:59:17Z</time>
      </trkpt>
      <trkpt lat="43.22832" lon="0.18492">
        <ele>298.4</ele>
        <time>2024-04-17T13:59:18Z</time>
      </trkpt>
      <trkpt lat="43.22832" lon="0.18492">
        <ele>298.4</ele>
        <time>2024-04-17T13:59:19Z</time>
      </trkpt>
      <trkpt lat="43.22832" lon="0.18492">
        <ele>298.4</ele>
        <time>2024-04-17T13:59:20Z</time>
      </trkpt>
      <trkpt lat="43.22832" lon="0.18492">
        <ele>298.4</ele>
        <time>2024-04-17T13:59:21Z</time>
      </trkpt>
      <trkpt lat="43.22832" lon="0.18492">
        <ele>298.4</ele>
        <time>2024-04-17T13:59:22Z</time>
      </trkpt>
      <trkpt lat="43.22832" lon="0.18492">
        <ele>298.4</ele>
        <time>2024-04-17T13:59:23Z</time>
      </trkpt>
      <trkpt lat="43.22832" lon="0.18492">
        <ele>298.4</ele>
        <time>2024-04-17T13:59:24Z</time>
      </trkpt>
      <trkpt lat="43.22832" lon="0.18492">
        <ele>298.4</ele>
        <time>2024-04-17T13:59:25Z</time>
      </trkpt>
      <trkpt lat="43.22832" lon="0.18492">
        <ele>298.4</ele>
        <time>2024-04-17T13:59:26Z</time>
      </trkpt>
      <trkpt lat="43.22832" lon="0.18492">
        <ele>298.4</ele>
        <time>2024-04-17T13:59:27Z</time>
      </trkpt>
      <trkpt lat="43.22832" lon="0.18492">
        <ele>298.4</ele>
        <time>2024-04-17T13:59:28Z</time>
      </trkpt>
      <trkpt lat="43.22832" lon="0.18492">
        <ele>298.4</ele>
        <time>2024-04-17T13:59:29Z</time>
      </trkpt>
      <trkpt lat="43.22832" lon="0.18492">
        <ele>298.4</ele>
        <time>2024-04-17T13:59:30Z</time>
      </trkpt>
      <trkpt lat="43.22832" lon="0.18492">
        <ele>298.4</ele>
        <time>2024-04-17T13:59:31Z</time>
      </trkpt>
      <trkpt lat="43.22832" lon="0.18492">
        <ele>298.4</ele>
        <time>2024-04-17T13:59:32Z</time>
      </trkpt>
      <trkpt lat="43.22832" lon="0.18492">
        <ele>298.4</ele>
        <time>2024-04-17T13:59:33Z</time>
      </trkpt>
      <trkpt lat="43.22832" lon="0.18492">
        <ele>298.4</ele>
        <time>2024-04-17T13:59:34Z</time>
      </trkpt>
      <trkpt lat="43.22832" lon="0.18492">
        <ele>298.4</ele>
        <time>2024-04-17T13:59:35Z</time>
      </trkpt>
      <trkpt lat="43.22832" lon="0.18492">
        <ele>298.4</ele>
        <time>2024-04-17T13:59:36Z</time>
      </trkpt>
      <trkpt lat="43.22832" lon="0.18492">
        <ele>298.4</ele>
        <time>2024-04-17T13:59:37Z</time>
      </trkpt>
      <trkpt lat="43.22832" lon="0.18492">
        <ele>298.4</ele>
        <time>2024-04-17T13:59:38Z</time>
      </trkpt>
      <trkpt lat="43.22832" lon="0.18492">
        <ele>298.4</ele>
        <time>2024-04-17T13:59:39Z</time>
      </trkpt>
      <trkpt lat="43.22832" lon="0.18492">
        <ele>298.4</ele>
        <time>2024-04-17T13:59:40Z</time>
      </trkpt>
      <trkpt lat="43.22832" lon="0.18492">
        <ele>298.4</ele>
        <time>2024-04-17T13:59:41Z</time>
      </trkpt>
      <trkpt lat="43.22832" lon="0.18492">
        <ele>298.4</ele>
        <time>2024-04-17T13:59:42Z</time>
      </trkpt>
      <trkpt lat="43.22832" lon="0.18492">
        <ele>298.4</ele>
        <time>2024-04-17T13:59:43Z</time>
      </trkpt>
      <trkpt lat="43.22832" lon="0.18492">
        <ele>298.4</ele>
        <time>2024-04-17T13:59:44Z</time>
      </trkpt>
      <trkpt lat="43.22832" lon="0.18492">
        <ele>298.4</ele>
        <time>2024-04-17T13:59:45Z</time>
      </trkpt>
      <trkpt lat="43.22832" lon="0.18492">
        <ele>298.2</ele>
        <time>2024-04-17T13:59:46Z</time>
      </trkpt>
      <trkpt lat="43.22832" lon="0.18492">
        <ele>298.2</ele>
        <time>2024-04-17T13:59:47Z</time>
      </trkpt>
      <trkpt lat="43.22832" lon="0.18492">
        <ele>298.2</ele>
        <time>2024-04-17T13:59:48Z</time>
      </trkpt>
      <trkpt lat="43.22832" lon="0.18492">
        <ele>298.2</ele>
        <time>2024-04-17T13:59:49Z</time>
      </trkpt>
      <trkpt lat="43.22832" lon="0.18492">
        <ele>298.2</ele>
        <time>2024-04-17T13:59:50Z</time>
      </trkpt>
      <trkpt lat="43.22832" lon="0.18492">
        <ele>298.2</ele>
        <time>2024-04-17T13:59:51Z</time>
      </trkpt>
      <trkpt lat="43.22832" lon="0.18492">
        <ele>298.2</ele>
        <time>2024-04-17T13:59:52Z</time>
      </trkpt>
      <trkpt lat="43.22832" lon="0.18492">
        <ele>298.2</ele>
        <time>2024-04-17T13:59:53Z</time>
      </trkpt>
      <trkpt lat="43.22832" lon="0.18492">
        <ele>298.4</ele>
        <time>2024-04-17T13:59:54Z</time>
      </trkpt>
      <trkpt lat="43.22832" lon="0.18492">
        <ele>298.4</ele>
        <time>2024-04-17T13:59:55Z</time>
      </trkpt>
      <trkpt lat="43.22832" lon="0.18492">
        <ele>298.4</ele>
        <time>2024-04-17T13:59:56Z</time>
      </trkpt>
      <trkpt lat="43.22832" lon="0.18492">
        <ele>298.4</ele>
        <time>2024-04-17T13:59:57Z</time>
      </trkpt>
      <trkpt lat="43.22832" lon="0.18492">
        <ele>298.4</ele>
        <time>2024-04-17T13:59:58Z</time>
      </trkpt>
      <trkpt lat="43.22832" lon="0.18492">
        <ele>298.4</ele>
        <time>2024-04-17T13:59:59Z</time>
      </trkpt>
      <trkpt lat="43.22832" lon="0.18492">
        <ele>298.4</ele>
        <time>2024-04-17T14:00:00Z</time>
      </trkpt>
      <trkpt lat="43.22832" lon="0.18492">
        <ele>298.4</ele>
        <time>2024-04-17T14:00:01Z</time>
      </trkpt>
      <trkpt lat="43.22832" lon="0.18492">
        <ele>298.4</ele>
        <time>2024-04-17T14:00:02Z</time>
      </trkpt>
      <trkpt lat="43.22832" lon="0.18492">
        <ele>298.4</ele>
        <time>2024-04-17T14:00:03Z</time>
      </trkpt>
      <trkpt lat="43.22832" lon="0.18492">
        <ele>298.4</ele>
        <time>2024-04-17T14:00:04Z</time>
      </trkpt>
      <trkpt lat="43.22832" lon="0.18492">
        <ele>298.4</ele>
        <time>2024-04-17T14:00:05Z</time>
      </trkpt>
      <trkpt lat="43.22832" lon="0.18492">
        <ele>298.4</ele>
        <time>2024-04-17T14:00:06Z</time>
      </trkpt>
      <trkpt lat="43.22832" lon="0.18492">
        <ele>298.4</ele>
        <time>2024-04-17T14:00:07Z</time>
      </trkpt>
      <trkpt lat="43.22832" lon="0.18492">
        <ele>298.4</ele>
        <time>2024-04-17T14:00:08Z</time>
      </trkpt>
      <trkpt lat="43.22832" lon="0.18492">
        <ele>298.4</ele>
        <time>2024-04-17T14:00:09Z</time>
      </trkpt>
      <trkpt lat="43.22832" lon="0.18492">
        <ele>298.4</ele>
        <time>2024-04-17T14:00:10Z</time>
      </trkpt>
      <trkpt lat="43.22832" lon="0.18492">
        <ele>298.4</ele>
        <time>2024-04-17T14:00:11Z</time>
      </trkpt>
      <trkpt lat="43.22832" lon="0.18492">
        <ele>298.4</ele>
        <time>2024-04-17T14:00:12Z</time>
      </trkpt>
      <trkpt lat="43.22832" lon="0.18492">
        <ele>298.4</ele>
        <time>2024-04-17T14:00:13Z</time>
      </trkpt>
      <trkpt lat="43.22832" lon="0.18492">
        <ele>298.4</ele>
        <time>2024-04-17T14:00:14Z</time>
      </trkpt>
      <trkpt lat="43.22832" lon="0.18492">
        <ele>298.4</ele>
        <time>2024-04-17T14:00:15Z</time>
      </trkpt>
      <trkpt lat="43.22832" lon="0.18492">
        <ele>298.4</ele>
        <time>2024-04-17T14:00:16Z</time>
      </trkpt>
      <trkpt lat="43.22832" lon="0.18492">
        <ele>298.4</ele>
        <time>2024-04-17T14:00:17Z</time>
      </trkpt>
      <trkpt lat="43.22832" lon="0.18492">
        <ele>298.4</ele>
        <time>2024-04-17T14:00:18Z</time>
      </trkpt>
      <trkpt lat="43.22832" lon="0.18492">
        <ele>298.4</ele>
        <time>2024-04-17T14:00:19Z</time>
      </trkpt>
      <trkpt lat="43.22832" lon="0.18492">
        <ele>298.4</ele>
        <time>2024-04-17T14:00:20Z</time>
      </trkpt>
      <trkpt lat="43.22832" lon="0.18492">
        <ele>298.4</ele>
        <time>2024-04-17T14:00:21Z</time>
      </trkpt>
      <trkpt lat="43.22832" lon="0.18492">
        <ele>298.4</ele>
        <time>2024-04-17T14:00:22Z</time>
      </trkpt>
      <trkpt lat="43.22832" lon="0.18492">
        <ele>298.4</ele>
        <time>2024-04-17T14:00:23Z</time>
      </trkpt>
      <trkpt lat="43.22832" lon="0.18492">
        <ele>298.4</ele>
        <time>2024-04-17T14:00:24Z</time>
      </trkpt>
      <trkpt lat="43.22832" lon="0.18492">
        <ele>298.4</ele>
        <time>2024-04-17T14:00:25Z</time>
      </trkpt>
      <trkpt lat="43.22832" lon="0.18492">
        <ele>298.4</ele>
        <time>2024-04-17T14:00:26Z</time>
      </trkpt>
      <trkpt lat="43.22832" lon="0.18492">
        <ele>298.4</ele>
        <time>2024-04-17T14:00:27Z</time>
      </trkpt>
      <trkpt lat="43.22832" lon="0.18492">
        <ele>298.4</ele>
        <time>2024-04-17T14:00:28Z</time>
      </trkpt>
      <trkpt lat="43.22832" lon="0.18492">
        <ele>298.4</ele>
        <time>2024-04-17T14:00:29Z</time>
      </trkpt>
      <trkpt lat="43.22832" lon="0.18492">
        <ele>298.4</ele>
        <time>2024-04-17T14:00:30Z</time>
      </trkpt>
      <trkpt lat="43.22832" lon="0.18492">
        <ele>298.4</ele>
        <time>2024-04-17T14:00:31Z</time>
      </trkpt>
      <trkpt lat="43.22832" lon="0.18492">
        <ele>298.4</ele>
        <time>2024-04-17T14:00:32Z</time>
      </trkpt>
      <trkpt lat="43.22832" lon="0.18492">
        <ele>298.4</ele>
        <time>2024-04-17T14:00:33Z</time>
      </trkpt>
      <trkpt lat="43.22832" lon="0.18492">
        <ele>298.4</ele>
        <time>2024-04-17T14:00:34Z</time>
      </trkpt>
      <trkpt lat="43.22832" lon="0.18492">
        <ele>298.4</ele>
        <time>2024-04-17T14:00:35Z</time>
      </trkpt>
      <trkpt lat="43.22832" lon="0.18492">
        <ele>298.4</ele>
        <time>2024-04-17T14:00:36Z</time>
      </trkpt>
      <trkpt lat="43.22832" lon="0.18492">
        <ele>298.2</ele>
        <time>2024-04-17T14:00:37Z</time>
      </trkpt>
      <trkpt lat="43.22832" lon="0.18492">
        <ele>298.2</ele>
        <time>2024-04-17T14:00:38Z</time>
      </trkpt>
      <trkpt lat="43.22832" lon="0.18492">
        <ele>298.2</ele>
        <time>2024-04-17T14:00:39Z</time>
      </trkpt>
      <trkpt lat="43.22832" lon="0.18492">
        <ele>298.2</ele>
        <time>2024-04-17T14:00:40Z</time>
      </trkpt>
      <trkpt lat="43.22832" lon="0.18492">
        <ele>298.2</ele>
        <time>2024-04-17T14:00:41Z</time>
      </trkpt>
      <trkpt lat="43.22832" lon="0.18492">
        <ele>298.2</ele>
        <time>2024-04-17T14:00:42Z</time>
      </trkpt>
      <trkpt lat="43.22832" lon="0.18492">
        <ele>298.2</ele>
        <time>2024-04-17T14:00:43Z</time>
      </trkpt>
      <trkpt lat="43.22832" lon="0.18492">
        <ele>298.2</ele>
        <time>2024-04-17T14:00:44Z</time>
      </trkpt>
      <trkpt lat="43.22832" lon="0.18492">
        <ele>298.2</ele>
        <time>2024-04-17T14:00:45Z</time>
      </trkpt>
      <trkpt lat="43.22832" lon="0.18492">
        <ele>298.2</ele>
        <time>2024-04-17T14:00:46Z</time>
      </trkpt>
      <trkpt lat="43.22832" lon="0.18492">
        <ele>298.2</ele>
        <time>2024-04-17T14:00:47Z</time>
      </trkpt>
      <trkpt lat="43.22832" lon="0.18492">
        <ele>298.2</ele>
        <time>2024-04-17T14:00:48Z</time>
      </trkpt>
      <trkpt lat="43.22832" lon="0.18492">
        <ele>298.2</ele>
        <time>2024-04-17T14:00:49Z</time>
      </trkpt>
      <trkpt lat="43.22832" lon="0.18492">
        <ele>298.2</ele>
        <time>2024-04-17T14:00:50Z</time>
      </trkpt>
      <trkpt lat="43.22832" lon="0.18492">
        <ele>298.2</ele>
        <time>2024-04-17T14:00:51Z</time>
      </trkpt>
      <trkpt lat="43.22832" lon="0.18492">
        <ele>298.2</ele>
        <time>2024-04-17T14:00:52Z</time>
      </trkpt>
      <trkpt lat="43.22832" lon="0.18492">
        <ele>298.2</ele>
        <time>2024-04-17T14:00:53Z</time>
      </trkpt>
      <trkpt lat="43.22832" lon="0.18492">
        <ele>298.2</ele>
        <time>2024-04-17T14:00:54Z</time>
      </trkpt>
      <trkpt lat="43.22832" lon="0.18492">
        <ele>298.2</ele>
        <time>2024-04-17T14:00:55Z</time>
      </trkpt>
      <trkpt lat="43.22832" lon="0.18492">
        <ele>298.2</ele>
        <time>2024-04-17T14:00:56Z</time>
      </trkpt>
      <trkpt lat="43.22832" lon="0.18492">
        <ele>298.2</ele>
        <time>2024-04-17T14:00:57Z</time>
      </trkpt>
      <trkpt lat="43.22832" lon="0.18492">
        <ele>298.4</ele>
        <time>2024-04-17T14:00:58Z</time>
      </trkpt>
      <trkpt lat="43.22832" lon="0.18492">
        <ele>298.4</ele>
        <time>2024-04-17T14:00:59Z</time>
      </trkpt>
      <trkpt lat="43.22832" lon="0.18492">
        <ele>298.4</ele>
        <time>2024-04-17T14:01:00Z</time>
      </trkpt>
      <trkpt lat="43.22832" lon="0.18492">
        <ele>298.4</ele>
        <time>2024-04-17T14:01:01Z</time>
      </trkpt>
      <trkpt lat="43.22832" lon="0.18492">
        <ele>298.2</ele>
        <time>2024-04-17T14:01:02Z</time>
      </trkpt>
      <trkpt lat="43.22832" lon="0.18492">
        <ele>298.4</ele>
        <time>2024-04-17T14:01:03Z</time>
      </trkpt>
      <trkpt lat="43.22832" lon="0.18492">
        <ele>298.4</ele>
        <time>2024-04-17T14:01:04Z</time>
      </trkpt>
      <trkpt lat="43.22832" lon="0.18492">
        <ele>298.4</ele>
        <time>2024-04-17T14:01:05Z</time>
      </trkpt>
      <trkpt lat="43.22832" lon="0.18492">
        <ele>298.4</ele>
        <time>2024-04-17T14:01:06Z</time>
      </trkpt>
      <trkpt lat="43.22832" lon="0.18492">
        <ele>298.4</ele>
        <time>2024-04-17T14:01:07Z</time>
      </trkpt>
      <trkpt lat="43.22832" lon="0.18492">
        <ele>298.4</ele>
        <time>2024-04-17T14:01:08Z</time>
      </trkpt>
      <trkpt lat="43.22832" lon="0.18492">
        <ele>298.4</ele>
        <time>2024-04-17T14:01:09Z</time>
      </trkpt>
      <trkpt lat="43.22832" lon="0.18492">
        <ele>298.4</ele>
        <time>2024-04-17T14:01:10Z</time>
      </trkpt>
      <trkpt lat="43.22832" lon="0.18492">
        <ele>298.4</ele>
        <time>2024-04-17T14:01:11Z</time>
      </trkpt>
      <trkpt lat="43.22832" lon="0.18492">
        <ele>298.4</ele>
        <time>2024-04-17T14:01:12Z</time>
      </trkpt>
      <trkpt lat="43.22832" lon="0.18492">
        <ele>298.4</ele>
        <time>2024-04-17T14:01:13Z</time>
      </trkpt>
      <trkpt lat="43.22832" lon="0.18492">
        <ele>298.4</ele>
        <time>2024-04-17T14:01:14Z</time>
      </trkpt>
      <trkpt lat="43.22832" lon="0.18492">
        <ele>298.4</ele>
        <time>2024-04-17T14:01:15Z</time>
      </trkpt>
      <trkpt lat="43.22832" lon="0.18492">
        <ele>298.4</ele>
        <time>2024-04-17T14:01:16Z</time>
      </trkpt>
      <trkpt lat="43.22832" lon="0.18492">
        <ele>298.4</ele>
        <time>2024-04-17T14:01:17Z</time>
      </trkpt>
      <trkpt lat="43.22832" lon="0.18492">
        <ele>298.4</ele>
        <time>2024-04-17T14:01:18Z</time>
      </trkpt>
      <trkpt lat="43.22832" lon="0.18492">
        <ele>298.4</ele>
        <time>2024-04-17T14:01:19Z</time>
      </trkpt>
      <trkpt lat="43.22832" lon="0.18492">
        <ele>298.4</ele>
        <time>2024-04-17T14:01:20Z</time>
      </trkpt>
      <trkpt lat="43.22832" lon="0.18492">
        <ele>298.4</ele>
        <time>2024-04-17T14:01:21Z</time>
      </trkpt>
      <trkpt lat="43.22832" lon="0.18492">
        <ele>298.4</ele>
        <time>2024-04-17T14:01:22Z</time>
      </trkpt>
      <trkpt lat="43.22832" lon="0.18492">
        <ele>298.4</ele>
        <time>2024-04-17T14:01:23Z</time>
      </trkpt>
      <trkpt lat="43.22832" lon="0.18492">
        <ele>298.4</ele>
        <time>2024-04-17T14:01:24Z</time>
      </trkpt>
      <trkpt lat="43.22832" lon="0.18492">
        <ele>298.4</ele>
        <time>2024-04-17T14:01:25Z</time>
      </trkpt>
      <trkpt lat="43.22832" lon="0.18492">
        <ele>298.4</ele>
        <time>2024-04-17T14:01:26Z</time>
      </trkpt>
      <trkpt lat="43.22832" lon="0.18492">
        <ele>298.4</ele>
        <time>2024-04-17T14:01:27Z</time>
      </trkpt>
      <trkpt lat="43.22832" lon="0.18492">
        <ele>298.4</ele>
        <time>2024-04-17T14:01:28Z</time>
      </trkpt>
      <trkpt lat="43.22832" lon="0.18492">
        <ele>298.4</ele>
        <time>2024-04-17T14:01:29Z</time>
      </trkpt>
      <trkpt lat="43.22832" lon="0.18492">
        <ele>298.4</ele>
        <time>2024-04-17T14:01:30Z</time>
      </trkpt>
      <trkpt lat="43.22832" lon="0.18492">
        <ele>298.2</ele>
        <time>2024-04-17T14:01:31Z</time>
      </trkpt>
      <trkpt lat="43.22832" lon="0.18492">
        <ele>298.2</ele>
        <time>2024-04-17T14:01:32Z</time>
      </trkpt>
      <trkpt lat="43.22832" lon="0.18492">
        <ele>298.2</ele>
        <time>2024-04-17T14:01:33Z</time>
      </trkpt>
      <trkpt lat="43.22832" lon="0.18492">
        <ele>298.2</ele>
        <time>2024-04-17T14:01:34Z</time>
      </trkpt>
      <trkpt lat="43.22832" lon="0.18492">
        <ele>298.2</ele>
        <time>2024-04-17T14:01:35Z</time>
      </trkpt>
      <trkpt lat="43.22832" lon="0.18492">
        <ele>298.2</ele>
        <time>2024-04-17T14:01:36Z</time>
      </trkpt>
      <trkpt lat="43.22832" lon="0.18492">
        <ele>298.2</ele>
        <time>2024-04-17T14:01:37Z</time>
      </trkpt>
      <trkpt lat="43.22832" lon="0.18492">
        <ele>298.2</ele>
        <time>2024-04-17T14:01:38Z</time>
      </trkpt>
      <trkpt lat="43.22832" lon="0.18492">
        <ele>298.2</ele>
        <time>2024-04-17T14:01:39Z</time>
      </trkpt>
      <trkpt lat="43.22832" lon="0.18492">
        <ele>298.2</ele>
        <time>2024-04-17T14:01:40Z</time>
      </trkpt>
      <trkpt lat="43.22832" lon="0.18492">
        <ele>298.2</ele>
        <time>2024-04-17T14:01:41Z</time>
      </trkpt>
      <trkpt lat="43.22832" lon="0.18492">
        <ele>298.4</ele>
        <time>2024-04-17T14:01:42Z</time>
      </trkpt>
      <trkpt lat="43.22832" lon="0.18492">
        <ele>298.4</ele>
        <time>2024-04-17T14:01:43Z</time>
      </trkpt>
      <trkpt lat="43.22832" lon="0.18492">
        <ele>298.4</ele>
        <time>2024-04-17T14:01:44Z</time>
      </trkpt>
      <trkpt lat="43.22832" lon="0.18492">
        <ele>298.4</ele>
        <time>2024-04-17T14:01:45Z</time>
      </trkpt>
      <trkpt lat="43.22832" lon="0.18492">
        <ele>298.4</ele>
        <time>2024-04-17T14:01:46Z</time>
      </trkpt>
      <trkpt lat="43.22832" lon="0.18492">
        <ele>298.4</ele>
        <time>2024-04-17T14:01:47Z</time>
      </trkpt>
      <trkpt lat="43.22832" lon="0.18492">
        <ele>298.4</ele>
        <time>2024-04-17T14:01:48Z</time>
      </trkpt>
      <trkpt lat="43.22832" lon="0.18492">
        <ele>298.4</ele>
        <time>2024-04-17T14:01:49Z</time>
      </trkpt>
      <trkpt lat="43.22832" lon="0.18492">
        <ele>298.2</ele>
        <time>2024-04-17T14:01:50Z</time>
      </trkpt>
      <trkpt lat="43.22832" lon="0.18492">
        <ele>298.2</ele>
        <time>2024-04-17T14:01:51Z</time>
      </trkpt>
      <trkpt lat="43.22832" lon="0.18492">
        <ele>298.2</ele>
        <time>2024-04-17T14:01:52Z</time>
      </trkpt>
      <trkpt lat="43.22832" lon="0.18492">
        <ele>298.2</ele>
        <time>2024-04-17T14:01:53Z</time>
      </trkpt>
      <trkpt lat="43.22832" lon="0.18492">
        <ele>298.2</ele>
        <time>2024-04-17T14:01:54Z</time>
      </trkpt>
      <trkpt lat="43.22832" lon="0.18492">
        <ele>298.2</ele>
        <time>2024-04-17T14:01:55Z</time>
      </trkpt>
      <trkpt lat="43.22832" lon="0.18492">
        <ele>298.2</ele>
        <time>2024-04-17T14:01:56Z</time>
      </trkpt>
      <trkpt lat="43.22832" lon="0.18492">
        <ele>298.2</ele>
        <time>2024-04-17T14:01:57Z</time>
      </trkpt>
      <trkpt lat="43.22832" lon="0.18492">
        <ele>298.2</ele>
        <time>2024-04-17T14:01:58Z</time>
      </trkpt>
      <trkpt lat="43.22832" lon="0.18492">
        <ele>298.2</ele>
        <time>2024-04-17T14:01:59Z</time>
      </trkpt>
      <trkpt lat="43.22832" lon="0.18492">
        <ele>298.2</ele>
        <time>2024-04-17T14:02:00Z</time>
      </trkpt>
      <trkpt lat="43.22832" lon="0.18492">
        <ele>298.2</ele>
        <time>2024-04-17T14:02:01Z</time>
      </trkpt>
      <trkpt lat="43.22832" lon="0.18492">
        <ele>298.2</ele>
        <time>2024-04-17T14:02:02Z</time>
      </trkpt>
      <trkpt lat="43.22832" lon="0.18492">
        <ele>298.2</ele>
        <time>2024-04-17T14:02:03Z</time>
      </trkpt>
      <trkpt lat="43.22832" lon="0.18492">
        <ele>298.6</ele>
        <time>2024-04-17T14:02:04Z</time>
      </trkpt>
      <trkpt lat="43.22832" lon="0.18492">
        <ele>298.6</ele>
        <time>2024-04-17T14:02:05Z</time>
      </trkpt>
      <trkpt lat="43.22832" lon="0.18492">
        <ele>298.6</ele>
        <time>2024-04-17T14:02:06Z</time>
      </trkpt>
      <trkpt lat="43.22832" lon="0.18492">
        <ele>298.4</ele>
        <time>2024-04-17T14:02:07Z</time>
      </trkpt>
      <trkpt lat="43.22832" lon="0.18492">
        <ele>298.4</ele>
        <time>2024-04-17T14:02:08Z</time>
      </trkpt>
      <trkpt lat="43.22832" lon="0.18492">
        <ele>298.4</ele>
        <time>2024-04-17T14:02:09Z</time>
      </trkpt>
      <trkpt lat="43.22832" lon="0.18492">
        <ele>298.4</ele>
        <time>2024-04-17T14:02:10Z</time>
      </trkpt>
      <trkpt lat="43.22832" lon="0.18492">
        <ele>298.6</ele>
        <time>2024-04-17T14:02:11Z</time>
      </trkpt>
      <trkpt lat="43.22832" lon="0.18492">
        <ele>298.6</ele>
        <time>2024-04-17T14:02:12Z</time>
      </trkpt>
      <trkpt lat="43.22832" lon="0.18492">
        <ele>298.6</ele>
        <time>2024-04-17T14:02:13Z</time>
      </trkpt>
      <trkpt lat="43.22832" lon="0.18492">
        <ele>298.6</ele>
        <time>2024-04-17T14:02:14Z</time>
      </trkpt>
      <trkpt lat="43.22832" lon="0.18492">
        <ele>298.4</ele>
        <time>2024-04-17T14:02:15Z</time>
      </trkpt>
      <trkpt lat="43.22832" lon="0.18492">
        <ele>298.4</ele>
        <time>2024-04-17T14:02:16Z</time>
      </trkpt>
      <trkpt lat="43.22832" lon="0.18492">
        <ele>298.6</ele>
        <time>2024-04-17T14:02:17Z</time>
      </trkpt>
      <trkpt lat="43.22832" lon="0.18492">
        <ele>298.6</ele>
        <time>2024-04-17T14:02:18Z</time>
      </trkpt>
      <trkpt lat="43.22832" lon="0.18492">
        <ele>298.6</ele>
        <time>2024-04-17T14:02:19Z</time>
      </trkpt>
      <trkpt lat="43.22832" lon="0.18492">
        <ele>298.6</ele>
        <time>2024-04-17T14:02:20Z</time>
      </trkpt>
      <trkpt lat="43.22832" lon="0.18492">
        <ele>298.6</ele>
        <time>2024-04-17T14:02:21Z</time>
      </trkpt>
      <trkpt lat="43.22832" lon="0.18492">
        <ele>298.6</ele>
        <time>2024-04-17T14:02:22Z</time>
      </trkpt>
      <trkpt lat="43.22832" lon="0.18492">
        <ele>298.6</ele>
        <time>2024-04-17T14:02:23Z</time>
      </trkpt>
      <trkpt lat="43.22832" lon="0.18492">
        <ele>298.6</ele>
        <time>2024-04-17T14:02:24Z</time>
      </trkpt>
      <trkpt lat="43.22832" lon="0.18492">
        <ele>298.6</ele>
        <time>2024-04-17T14:02:25Z</time>
      </trkpt>
      <trkpt lat="43.22832" lon="0.18492">
        <ele>298.4</ele>
        <time>2024-04-17T14:02:26Z</time>
      </trkpt>
      <trkpt lat="43.22832" lon="0.18492">
        <ele>298.4</ele>
        <time>2024-04-17T14:02:27Z</time>
      </trkpt>
      <trkpt lat="43.22832" lon="0.18492">
        <ele>298.4</ele>
        <time>2024-04-17T14:02:28Z</time>
      </trkpt>
      <trkpt lat="43.22832" lon="0.18492">
        <ele>298.4</ele>
        <time>2024-04-17T14:02:29Z</time>
      </trkpt>
      <trkpt lat="43.22832" lon="0.18492">
        <ele>298.4</ele>
        <time>2024-04-17T14:02:30Z</time>
      </trkpt>
      <trkpt lat="43.22832" lon="0.18492">
        <ele>298.4</ele>
        <time>2024-04-17T14:02:31Z</time>
      </trkpt>
      <trkpt lat="43.22832" lon="0.18492">
        <ele>298.4</ele>
        <time>2024-04-17T14:02:32Z</time>
      </trkpt>
      <trkpt lat="43.22832" lon="0.18492">
        <ele>298.4</ele>
        <time>2024-04-17T14:02:33Z</time>
      </trkpt>
      <trkpt lat="43.22832" lon="0.18492">
        <ele>298.4</ele>
        <time>2024-04-17T14:02:34Z</time>
      </trkpt>
      <trkpt lat="43.22832" lon="0.18492">
        <ele>298.4</ele>
        <time>2024-04-17T14:02:35Z</time>
      </trkpt>
      <trkpt lat="43.22832" lon="0.18492">
        <ele>298.4</ele>
        <time>2024-04-17T14:02:36Z</time>
      </trkpt>
      <trkpt lat="43.22832" lon="0.18492">
        <ele>298.4</ele>
        <time>2024-04-17T14:02:37Z</time>
      </trkpt>
      <trkpt lat="43.22832" lon="0.18492">
        <ele>298.6</ele>
        <time>2024-04-17T14:02:38Z</time>
      </trkpt>
      <trkpt lat="43.22832" lon="0.18492">
        <ele>298.6</ele>
        <time>2024-04-17T14:02:39Z</time>
      </trkpt>
      <trkpt lat="43.22832" lon="0.18492">
        <ele>298.6</ele>
        <time>2024-04-17T14:02:40Z</time>
      </trkpt>
      <trkpt lat="43.22832" lon="0.18492">
        <ele>298.6</ele>
        <time>2024-04-17T14:02:41Z</time>
      </trkpt>
      <trkpt lat="43.22832" lon="0.18492">
        <ele>298.6</ele>
        <time>2024-04-17T14:02:42Z</time>
      </trkpt>
      <trkpt lat="43.22832" lon="0.18492">
        <ele>298.6</ele>
        <time>2024-04-17T14:02:43Z</time>
      </trkpt>
      <trkpt lat="43.22832" lon="0.18492">
        <ele>298.6</ele>
        <time>2024-04-17T14:02:44Z</time>
      </trkpt>
      <trkpt lat="43.22832" lon="0.18492">
        <ele>298.6</ele>
        <time>2024-04-17T14:02:45Z</time>
      </trkpt>
      <trkpt lat="43.22832" lon="0.18492">
        <ele>298.6</ele>
        <time>2024-04-17T14:02:46Z</time>
      </trkpt>
      <trkpt lat="43.22832" lon="0.18492">
        <ele>298.6</ele>
        <time>2024-04-17T14:02:47Z</time>
      </trkpt>
      <trkpt lat="43.22832" lon="0.18492">
        <ele>298.6</ele>
        <time>2024-04-17T14:02:48Z</time>
      </trkpt>
      <trkpt lat="43.22832" lon="0.18492">
        <ele>298.8</ele>
        <time>2024-04-17T14:02:49Z</time>
      </trkpt>
      <trkpt lat="43.22832" lon="0.18492">
        <ele>298.6</ele>
        <time>2024-04-17T14:02:50Z</time>
      </trkpt>
      <trkpt lat="43.22832" lon="0.18492">
        <ele>298.6</ele>
        <time>2024-04-17T14:02:51Z</time>
      </trkpt>
      <trkpt lat="43.22832" lon="0.18492">
        <ele>298.6</ele>
        <time>2024-04-17T14:02:52Z</time>
      </trkpt>
      <trkpt lat="43.22832" lon="0.18492">
        <ele>298.6</ele>
        <time>2024-04-17T14:02:53Z</time>
      </trkpt>
      <trkpt lat="43.22832" lon="0.18492">
        <ele>298.6</ele>
        <time>2024-04-17T14:02:54Z</time>
      </trkpt>
      <trkpt lat="43.22832" lon="0.18492">
        <ele>298.6</ele>
        <time>2024-04-17T14:02:55Z</time>
      </trkpt>
      <trkpt lat="43.22832" lon="0.18492">
        <ele>298.6</ele>
        <time>2024-04-17T14:02:56Z</time>
      </trkpt>
      <trkpt lat="43.22832" lon="0.18492">
        <ele>298.6</ele>
        <time>2024-04-17T14:02:57Z</time>
      </trkpt>
      <trkpt lat="43.22832" lon="0.18492">
        <ele>298.6</ele>
        <time>2024-04-17T14:02:58Z</time>
      </trkpt>
      <trkpt lat="43.22832" lon="0.18492">
        <ele>298.6</ele>
        <time>2024-04-17T14:02:59Z</time>
      </trkpt>
      <trkpt lat="43.22832" lon="0.18492">
        <ele>298.6</ele>
        <time>2024-04-17T14:03:00Z</time>
      </trkpt>
      <trkpt lat="43.22832" lon="0.18492">
        <ele>298.6</ele>
        <time>2024-04-17T14:03:01Z</time>
      </trkpt>
      <trkpt lat="43.22832" lon="0.18492">
        <ele>298.6</ele>
        <time>2024-04-17T14:03:02Z</time>
      </trkpt>
      <trkpt lat="43.22832" lon="0.18492">
        <ele>298.6</ele>
        <time>2024-04-17T14:03:03Z</time>
      </trkpt>
      <trkpt lat="43.22832" lon="0.18492">
        <ele>298.6</ele>
        <time>2024-04-17T14:03:04Z</time>
      </trkpt>
      <trkpt lat="43.22832" lon="0.18492">
        <ele>298.6</ele>
        <time>2024-04-17T14:03:05Z</time>
      </trkpt>
      <trkpt lat="43.22832" lon="0.18492">
        <ele>298.6</ele>
        <time>2024-04-17T14:03:06Z</time>
      </trkpt>
      <trkpt lat="43.22832" lon="0.18492">
        <ele>298.6</ele>
        <time>2024-04-17T14:03:07Z</time>
      </trkpt>
      <trkpt lat="43.22832" lon="0.18492">
        <ele>298.6</ele>
        <time>2024-04-17T14:03:08Z</time>
      </trkpt>
      <trkpt lat="43.22832" lon="0.18492">
        <ele>298.6</ele>
        <time>2024-04-17T14:03:09Z</time>
      </trkpt>
      <trkpt lat="43.22832" lon="0.18492">
        <ele>298.6</ele>
        <time>2024-04-17T14:03:10Z</time>
      </trkpt>
      <trkpt lat="43.22832" lon="0.18492">
        <ele>298.6</ele>
        <time>2024-04-17T14:03:11Z</time>
      </trkpt>
      <trkpt lat="43.22832" lon="0.18492">
        <ele>298.6</ele>
        <time>2024-04-17T14:03:12Z</time>
      </trkpt>
      <trkpt lat="43.22832" lon="0.18492">
        <ele>298.6</ele>
        <time>2024-04-17T14:03:13Z</time>
      </trkpt>
      <trkpt lat="43.22832" lon="0.18492">
        <ele>298.6</ele>
        <time>2024-04-17T14:03:14Z</time>
      </trkpt>
      <trkpt lat="43.22832" lon="0.18492">
        <ele>298.6</ele>
        <time>2024-04-17T14:03:15Z</time>
      </trkpt>
      <trkpt lat="43.22832" lon="0.18492">
        <ele>298.6</ele>
        <time>2024-04-17T14:03:16Z</time>
      </trkpt>
      <trkpt lat="43.22832" lon="0.18492">
        <ele>298.6</ele>
        <time>2024-04-17T14:03:17Z</time>
      </trkpt>
      <trkpt lat="43.22832" lon="0.18492">
        <ele>298.6</ele>
        <time>2024-04-17T14:03:18Z</time>
      </trkpt>
      <trkpt lat="43.22832" lon="0.18492">
        <ele>298.6</ele>
        <time>2024-04-17T14:03:19Z</time>
      </trkpt>
      <trkpt lat="43.22832" lon="0.18492">
        <ele>298.6</ele>
        <time>2024-04-17T14:03:20Z</time>
      </trkpt>
      <trkpt lat="43.22832" lon="0.18492">
        <ele>298.6</ele>
        <time>2024-04-17T14:03:21Z</time>
      </trkpt>
      <trkpt lat="43.22832" lon="0.18492">
        <ele>298.6</ele>
        <time>2024-04-17T14:03:22Z</time>
      </trkpt>
      <trkpt lat="43.22832" lon="0.18492">
        <ele>298.6</ele>
        <time>2024-04-17T14:03:23Z</time>
      </trkpt>
      <trkpt lat="43.22832" lon="0.18492">
        <ele>298.6</ele>
        <time>2024-04-17T14:03:24Z</time>
      </trkpt>
      <trkpt lat="43.22832" lon="0.18492">
        <ele>298.6</ele>
        <time>2024-04-17T14:03:25Z</time>
      </trkpt>
      <trkpt lat="43.22832" lon="0.18492">
        <ele>298.6</ele>
        <time>2024-04-17T14:03:26Z</time>
      </trkpt>
      <trkpt lat="43.22832" lon="0.18492">
        <ele>298.4</ele>
        <time>2024-04-17T14:03:27Z</time>
      </trkpt>
      <trkpt lat="43.22832" lon="0.18492">
        <ele>298.4</ele>
        <time>2024-04-17T14:03:28Z</time>
      </trkpt>
      <trkpt lat="43.22832" lon="0.18492">
        <ele>298.4</ele>
        <time>2024-04-17T14:03:29Z</time>
      </trkpt>
      <trkpt lat="43.22832" lon="0.18492">
        <ele>298.4</ele>
        <time>2024-04-17T14:03:30Z</time>
      </trkpt>
      <trkpt lat="43.22832" lon="0.18492">
        <ele>298.4</ele>
        <time>2024-04-17T14:03:31Z</time>
      </trkpt>
      <trkpt lat="43.22832" lon="0.18492">
        <ele>298.4</ele>
        <time>2024-04-17T14:03:32Z</time>
      </trkpt>
      <trkpt lat="43.22832" lon="0.18492">
        <ele>298.4</ele>
        <time>2024-04-17T14:03:33Z</time>
      </trkpt>
      <trkpt lat="43.22832" lon="0.18492">
        <ele>298.4</ele>
        <time>2024-04-17T14:03:34Z</time>
      </trkpt>
      <trkpt lat="43.22832" lon="0.18492">
        <ele>298.8</ele>
        <time>2024-04-17T14:03:35Z</time>
      </trkpt>
      <trkpt lat="43.22832" lon="0.18492">
        <ele>298.8</ele>
        <time>2024-04-17T14:03:36Z</time>
      </trkpt>
      <trkpt lat="43.22832" lon="0.18492">
        <ele>298.8</ele>
        <time>2024-04-17T14:03:37Z</time>
      </trkpt>
      <trkpt lat="43.22832" lon="0.18492">
        <ele>298.8</ele>
        <time>2024-04-17T14:03:38Z</time>
      </trkpt>
      <trkpt lat="43.22832" lon="0.18492">
        <ele>298.8</ele>
        <time>2024-04-17T14:03:39Z</time>
      </trkpt>
      <trkpt lat="43.22832" lon="0.18492">
        <ele>298.8</ele>
        <time>2024-04-17T14:03:40Z</time>
      </trkpt>
      <trkpt lat="43.22832" lon="0.18492">
        <ele>298.8</ele>
        <time>2024-04-17T14:03:41Z</time>
      </trkpt>
      <trkpt lat="43.22832" lon="0.18492">
        <ele>298.8</ele>
        <time>2024-04-17T14:03:42Z</time>
      </trkpt>
      <trkpt lat="43.22832" lon="0.18492">
        <ele>298.8</ele>
        <time>2024-04-17T14:03:43Z</time>
      </trkpt>
      <trkpt lat="43.22832" lon="0.18492">
        <ele>298.8</ele>
        <time>2024-04-17T14:03:44Z</time>
      </trkpt>
      <trkpt lat="43.22832" lon="0.18492">
        <ele>298.8</ele>
        <time>2024-04-17T14:03:45Z</time>
      </trkpt>
      <trkpt lat="43.22832" lon="0.18492">
        <ele>298.8</ele>
        <time>2024-04-17T14:03:46Z</time>
      </trkpt>
      <trkpt lat="43.22832" lon="0.18492">
        <ele>298.8</ele>
        <time>2024-04-17T14:03:47Z</time>
      </trkpt>
      <trkpt lat="43.22832" lon="0.18492">
        <ele>298.8</ele>
        <time>2024-04-17T14:03:48Z</time>
      </trkpt>
      <trkpt lat="43.22832" lon="0.18492">
        <ele>298.8</ele>
        <time>2024-04-17T14:03:49Z</time>
      </trkpt>
      <trkpt lat="43.22832" lon="0.18492">
        <ele>298.8</ele>
        <time>2024-04-17T14:03:50Z</time>
      </trkpt>
      <trkpt lat="43.22832" lon="0.18492">
        <ele>298.8</ele>
        <time>2024-04-17T14:03:51Z</time>
      </trkpt>
      <trkpt lat="43.22832" lon="0.18492">
        <ele>298.8</ele>
        <time>2024-04-17T14:03:52Z</time>
      </trkpt>
      <trkpt lat="43.22832" lon="0.18492">
        <ele>298.8</ele>
        <time>2024-04-17T14:03:53Z</time>
      </trkpt>
      <trkpt lat="43.22832" lon="0.18492">
        <ele>298.8</ele>
        <time>2024-04-17T14:03:54Z</time>
      </trkpt>
      <trkpt lat="43.22832" lon="0.18492">
        <ele>298.8</ele>
        <time>2024-04-17T14:03:55Z</time>
      </trkpt>
      <trkpt lat="43.22832" lon="0.18492">
        <ele>298.6</ele>
        <time>2024-04-17T14:03:56Z</time>
      </trkpt>
      <trkpt lat="43.22832" lon="0.18492">
        <ele>298.6</ele>
        <time>2024-04-17T14:03:57Z</time>
      </trkpt>
      <trkpt lat="43.22832" lon="0.18492">
        <ele>298.6</ele>
        <time>2024-04-17T14:03:58Z</time>
      </trkpt>
      <trkpt lat="43.22832" lon="0.18492">
        <ele>298.6</ele>
        <time>2024-04-17T14:03:59Z</time>
      </trkpt>
      <trkpt lat="43.22832" lon="0.18492">
        <ele>298.6</ele>
        <time>2024-04-17T14:04:00Z</time>
      </trkpt>
      <trkpt lat="43.22832" lon="0.18492">
        <ele>298.6</ele>
        <time>2024-04-17T14:04:01Z</time>
      </trkpt>
      <trkpt lat="43.22832" lon="0.18492">
        <ele>298.6</ele>
        <time>2024-04-17T14:04:02Z</time>
      </trkpt>
      <trkpt lat="43.22832" lon="0.18492">
        <ele>298.6</ele>
        <time>2024-04-17T14:04:03Z</time>
      </trkpt>
      <trkpt lat="43.22832" lon="0.18492">
        <ele>298.6</ele>
        <time>2024-04-17T14:04:04Z</time>
      </trkpt>
      <trkpt lat="43.22832" lon="0.18492">
        <ele>298.6</ele>
        <time>2024-04-17T14:04:05Z</time>
      </trkpt>
      <trkpt lat="43.22832" lon="0.18492">
        <ele>298.6</ele>
        <time>2024-04-17T14:04:06Z</time>
      </trkpt>
      <trkpt lat="43.22832" lon="0.18492">
        <ele>298.6</ele>
        <time>2024-04-17T14:04:07Z</time>
      </trkpt>
      <trkpt lat="43.22832" lon="0.18492">
        <ele>298.6</ele>
        <time>2024-04-17T14:04:08Z</time>
      </trkpt>
      <trkpt lat="43.22832" lon="0.18492">
        <ele>298.6</ele>
        <time>2024-04-17T14:04:09Z</time>
      </trkpt>
      <trkpt lat="43.22832" lon="0.18492">
        <ele>298.6</ele>
        <time>2024-04-17T14:04:10Z</time>
      </trkpt>
      <trkpt lat="43.22832" lon="0.18492">
        <ele>298.6</ele>
        <time>2024-04-17T14:04:11Z</time>
      </trkpt>
      <trkpt lat="43.22832" lon="0.18492">
        <ele>298.6</ele>
        <time>2024-04-17T14:04:12Z</time>
      </trkpt>
      <trkpt lat="43.22832" lon="0.18492">
        <ele>298.6</ele>
        <time>2024-04-17T14:04:13Z</time>
      </trkpt>
      <trkpt lat="43.22832" lon="0.18492">
        <ele>298.6</ele>
        <time>2024-04-17T14:04:14Z</time>
      </trkpt>
      <trkpt lat="43.22832" lon="0.18492">
        <ele>298.6</ele>
        <time>2024-04-17T14:04:15Z</time>
      </trkpt>
      <trkpt lat="43.22832" lon="0.18492">
        <ele>298.6</ele>
        <time>2024-04-17T14:04:16Z</time>
      </trkpt>
      <trkpt lat="43.22832" lon="0.18492">
        <ele>298.6</ele>
        <time>2024-04-17T14:04:17Z</time>
      </trkpt>
      <trkpt lat="43.22832" lon="0.18492">
        <ele>298.6</ele>
        <time>2024-04-17T14:04:18Z</time>
      </trkpt>
      <trkpt lat="43.22832" lon="0.18492">
        <ele>298.6</ele>
        <time>2024-04-17T14:04:19Z</time>
      </trkpt>
      <trkpt lat="43.22832" lon="0.18492">
        <ele>298.6</ele>
        <time>2024-04-17T14:04:20Z</time>
      </trkpt>
      <trkpt lat="43.22832" lon="0.18492">
        <ele>298.6</ele>
        <time>2024-04-17T14:04:21Z</time>
      </trkpt>
      <trkpt lat="43.22832" lon="0.18492">
        <ele>298.6</ele>
        <time>2024-04-17T14:04:22Z</time>
      </trkpt>
      <trkpt lat="43.22832" lon="0.18492">
        <ele>298.8</ele>
        <time>2024-04-17T14:04:23Z</time>
      </trkpt>
      <trkpt lat="43.22832" lon="0.18492">
        <ele>298.8</ele>
        <time>2024-04-17T14:04:24Z</time>
      </trkpt>
      <trkpt lat="43.22832" lon="0.18492">
        <ele>298.8</ele>
        <time>2024-04-17T14:04:25Z</time>
      </trkpt>
      <trkpt lat="43.22832" lon="0.18492">
        <ele>298.8</ele>
        <time>2024-04-17T14:04:26Z</time>
      </trkpt>
      <trkpt lat="43.22832" lon="0.18492">
        <ele>298.8</ele>
        <time>2024-04-17T14:04:27Z</time>
      </trkpt>
      <trkpt lat="43.22832" lon="0.18492">
        <ele>298.8</ele>
        <time>2024-04-17T14:04:28Z</time>
      </trkpt>
      <trkpt lat="43.22832" lon="0.18492">
        <ele>298.8</ele>
        <time>2024-04-17T14:04:29Z</time>
      </trkpt>
      <trkpt lat="43.22832" lon="0.18492">
        <ele>298.8</ele>
        <time>2024-04-17T14:04:30Z</time>
      </trkpt>
      <trkpt lat="43.22832" lon="0.18492">
        <ele>298.8</ele>
        <time>2024-04-17T14:04:31Z</time>
      </trkpt>
      <trkpt lat="43.22832" lon="0.18492">
        <ele>298.8</ele>
        <time>2024-04-17T14:04:32Z</time>
      </trkpt>
      <trkpt lat="43.22832" lon="0.18492">
        <ele>298.8</ele>
        <time>2024-04-17T14:04:33Z</time>
      </trkpt>
      <trkpt lat="43.22832" lon="0.18492">
        <ele>298.8</ele>
        <time>2024-04-17T14:04:34Z</time>
      </trkpt>
      <trkpt lat="43.22832" lon="0.18492">
        <ele>298.8</ele>
        <time>2024-04-17T14:04:35Z</time>
      </trkpt>
      <trkpt lat="43.22832" lon="0.18492">
        <ele>298.8</ele>
        <time>2024-04-17T14:04:36Z</time>
      </trkpt>
      <trkpt lat="43.22832" lon="0.18492">
        <ele>298.8</ele>
        <time>2024-04-17T14:04:37Z</time>
      </trkpt>
      <trkpt lat="43.22832" lon="0.18492">
        <ele>298.8</ele>
        <time>2024-04-17T14:04:38Z</time>
      </trkpt>
      <trkpt lat="43.22832" lon="0.18492">
        <ele>298.8</ele>
        <time>2024-04-17T14:04:39Z</time>
      </trkpt>
      <trkpt lat="43.22832" lon="0.18492">
        <ele>298.8</ele>
        <time>2024-04-17T14:04:40Z</time>
      </trkpt>
      <trkpt lat="43.22832" lon="0.18492">
        <ele>298.8</ele>
        <time>2024-04-17T14:04:41Z</time>
      </trkpt>
      <trkpt lat="43.22832" lon="0.18492">
        <ele>298.8</ele>
        <time>2024-04-17T14:04:42Z</time>
      </trkpt>
      <trkpt lat="43.22832" lon="0.18492">
        <ele>298.8</ele>
        <time>2024-04-17T14:04:43Z</time>
      </trkpt>
      <trkpt lat="43.22832" lon="0.18492">
        <ele>298.8</ele>
        <time>2024-04-17T14:04:44Z</time>
      </trkpt>
      <trkpt lat="43.22832" lon="0.18492">
        <ele>298.8</ele>
        <time>2024-04-17T14:04:45Z</time>
      </trkpt>
      <trkpt lat="43.22832" lon="0.18492">
        <ele>299</ele>
        <time>2024-04-17T14:04:46Z</time>
      </trkpt>
      <trkpt lat="43.22832" lon="0.18492">
        <ele>299</ele>
        <time>2024-04-17T14:04:47Z</time>
      </trkpt>
      <trkpt lat="43.22832" lon="0.18492">
        <ele>299</ele>
        <time>2024-04-17T14:04:48Z</time>
      </trkpt>
      <trkpt lat="43.22832" lon="0.18492">
        <ele>299</ele>
        <time>2024-04-17T14:04:49Z</time>
      </trkpt>
      <trkpt lat="43.22832" lon="0.18492">
        <ele>299</ele>
        <time>2024-04-17T14:04:50Z</time>
      </trkpt>
      <trkpt lat="43.22832" lon="0.18492">
        <ele>299</ele>
        <time>2024-04-17T14:04:51Z</time>
      </trkpt>
      <trkpt lat="43.22832" lon="0.18492">
        <ele>299</ele>
        <time>2024-04-17T14:04:52Z</time>
      </trkpt>
      <trkpt lat="43.22832" lon="0.18492">
        <ele>299</ele>
        <time>2024-04-17T14:04:53Z</time>
      </trkpt>
      <trkpt lat="43.22832" lon="0.18492">
        <ele>299</ele>
        <time>2024-04-17T14:04:54Z</time>
      </trkpt>
      <trkpt lat="43.22832" lon="0.18492">
        <ele>299</ele>
        <time>2024-04-17T14:04:55Z</time>
      </trkpt>
      <trkpt lat="43.22832" lon="0.18492">
        <ele>299</ele>
        <time>2024-04-17T14:04:56Z</time>
      </trkpt>
      <trkpt lat="43.22832" lon="0.18492">
        <ele>299</ele>
        <time>2024-04-17T14:04:57Z</time>
      </trkpt>
      <trkpt lat="43.22832" lon="0.18492">
        <ele>299</ele>
        <time>2024-04-17T14:04:58Z</time>
      </trkpt>
      <trkpt lat="43.22832" lon="0.18492">
        <ele>299</ele>
        <time>2024-04-17T14:04:59Z</time>
      </trkpt>
      <trkpt lat="43.22832" lon="0.18492">
        <ele>299</ele>
        <time>2024-04-17T14:05:00Z</time>
      </trkpt>
      <trkpt lat="43.22832" lon="0.18492">
        <ele>299</ele>
        <time>2024-04-17T14:05:01Z</time>
      </trkpt>
      <trkpt lat="43.22832" lon="0.18492">
        <ele>299</ele>
        <time>2024-04-17T14:05:02Z</time>
      </trkpt>
      <trkpt lat="43.22832" lon="0.18492">
        <ele>299</ele>
        <time>2024-04-17T14:05:03Z</time>
      </trkpt>
      <trkpt lat="43.22832" lon="0.18492">
        <ele>299</ele>
        <time>2024-04-17T14:05:04Z</time>
      </trkpt>
      <trkpt lat="43.22832" lon="0.18492">
        <ele>299</ele>
        <time>2024-04-17T14:05:05Z</time>
      </trkpt>
      <trkpt lat="43.22832" lon="0.18492">
        <ele>299</ele>
        <time>2024-04-17T14:05:06Z</time>
      </trkpt>
      <trkpt lat="43.22832" lon="0.18492">
        <ele>299</ele>
        <time>2024-04-17T14:05:07Z</time>
      </trkpt>
      <trkpt lat="43.22832" lon="0.18492">
        <ele>299</ele>
        <time>2024-04-17T14:05:08Z</time>
      </trkpt>
      <trkpt lat="43.22832" lon="0.18492">
        <ele>299</ele>
        <time>2024-04-17T14:05:09Z</time>
      </trkpt>
      <trkpt lat="43.22832" lon="0.18492">
        <ele>299</ele>
        <time>2024-04-17T14:05:10Z</time>
      </trkpt>
      <trkpt lat="43.22832" lon="0.18492">
        <ele>299</ele>
        <time>2024-04-17T14:05:11Z</time>
      </trkpt>
      <trkpt lat="43.22832" lon="0.18492">
        <ele>299</ele>
        <time>2024-04-17T14:05:12Z</time>
      </trkpt>
      <trkpt lat="43.22832" lon="0.18492">
        <ele>299</ele>
        <time>2024-04-17T14:05:13Z</time>
      </trkpt>
      <trkpt lat="43.22832" lon="0.18492">
        <ele>299</ele>
        <time>2024-04-17T14:05:14Z</time>
      </trkpt>
      <trkpt lat="43.22832" lon="0.18492">
        <ele>299</ele>
        <time>2024-04-17T14:05:15Z</time>
      </trkpt>
      <trkpt lat="43.22832" lon="0.18492">
        <ele>299</ele>
        <time>2024-04-17T14:05:16Z</time>
      </trkpt>
      <trkpt lat="43.22832" lon="0.18492">
        <ele>299</ele>
        <time>2024-04-17T14:05:17Z</time>
      </trkpt>
      <trkpt lat="43.22832" lon="0.18492">
        <ele>299</ele>
        <time>2024-04-17T14:05:18Z</time>
      </trkpt>
      <trkpt lat="43.22832" lon="0.18492">
        <ele>299</ele>
        <time>2024-04-17T14:05:19Z</time>
      </trkpt>
      <trkpt lat="43.22832" lon="0.18492">
        <ele>299</ele>
        <time>2024-04-17T14:05:20Z</time>
      </trkpt>
      <trkpt lat="43.22832" lon="0.18492">
        <ele>299</ele>
        <time>2024-04-17T14:05:21Z</time>
      </trkpt>
      <trkpt lat="43.22832" lon="0.18492">
        <ele>299</ele>
        <time>2024-04-17T14:05:22Z</time>
      </trkpt>
      <trkpt lat="43.22832" lon="0.18492">
        <ele>299</ele>
        <time>2024-04-17T14:05:23Z</time>
      </trkpt>
      <trkpt lat="43.22832" lon="0.18492">
        <ele>299</ele>
        <time>2024-04-17T14:05:24Z</time>
      </trkpt>
      <trkpt lat="43.22832" lon="0.18492">
        <ele>299</ele>
        <time>2024-04-17T14:05:25Z</time>
      </trkpt>
      <trkpt lat="43.22832" lon="0.18492">
        <ele>299</ele>
        <time>2024-04-17T14:05:26Z</time>
      </trkpt>
      <trkpt lat="43.22832" lon="0.18492">
        <ele>299.2</ele>
        <time>2024-04-17T14:05:27Z</time>
      </trkpt>
      <trkpt lat="43.22832" lon="0.18492">
        <ele>299</ele>
        <time>2024-04-17T14:05:28Z</time>
      </trkpt>
      <trkpt lat="43.22832" lon="0.18492">
        <ele>299</ele>
        <time>2024-04-17T14:05:29Z</time>
      </trkpt>
      <trkpt lat="43.22832" lon="0.18492">
        <ele>299</ele>
        <time>2024-04-17T14:05:30Z</time>
      </trkpt>
      <trkpt lat="43.22832" lon="0.18492">
        <ele>299</ele>
        <time>2024-04-17T14:05:31Z</time>
      </trkpt>
      <trkpt lat="43.22832" lon="0.18492">
        <ele>299.2</ele>
        <time>2024-04-17T14:05:32Z</time>
      </trkpt>
      <trkpt lat="43.22832" lon="0.18492">
        <ele>299.2</ele>
        <time>2024-04-17T14:05:33Z</time>
      </trkpt>
      <trkpt lat="43.22832" lon="0.18492">
        <ele>299</ele>
        <time>2024-04-17T14:05:34Z</time>
      </trkpt>
      <trkpt lat="43.22832" lon="0.18492">
        <ele>299</ele>
        <time>2024-04-17T14:05:35Z</time>
      </trkpt>
      <trkpt lat="43.22832" lon="0.18492">
        <ele>299</ele>
        <time>2024-04-17T14:05:36Z</time>
      </trkpt>
      <trkpt lat="43.22832" lon="0.18492">
        <ele>299</ele>
        <time>2024-04-17T14:05:37Z</time>
      </trkpt>
      <trkpt lat="43.22832" lon="0.18492">
        <ele>299.2</ele>
        <time>2024-04-17T14:05:38Z</time>
      </trkpt>
      <trkpt lat="43.22832" lon="0.18492">
        <ele>299</ele>
        <time>2024-04-17T14:05:39Z</time>
      </trkpt>
      <trkpt lat="43.22832" lon="0.18492">
        <ele>299.2</ele>
        <time>2024-04-17T14:05:40Z</time>
      </trkpt>
      <trkpt lat="43.22832" lon="0.18492">
        <ele>299.2</ele>
        <time>2024-04-17T14:05:41Z</time>
      </trkpt>
      <trkpt lat="43.22832" lon="0.18492">
        <ele>299.2</ele>
        <time>2024-04-17T14:05:42Z</time>
      </trkpt>
      <trkpt lat="43.22832" lon="0.18492">
        <ele>299.2</ele>
        <time>2024-04-17T14:05:43Z</time>
      </trkpt>
      <trkpt lat="43.22832" lon="0.18492">
        <ele>299.2</ele>
        <time>2024-04-17T14:05:44Z</time>
      </trkpt>
      <trkpt lat="43.22832" lon="0.18492">
        <ele>299.2</ele>
        <time>2024-04-17T14:05:45Z</time>
      </trkpt>
      <trkpt lat="43.22832" lon="0.18492">
        <ele>299.2</ele>
        <time>2024-04-17T14:05:46Z</time>
      </trkpt>
      <trkpt lat="43.22832" lon="0.18492">
        <ele>299.2</ele>
        <time>2024-04-17T14:05:47Z</time>
      </trkpt>
      <trkpt lat="43.22832" lon="0.18492">
        <ele>299.2</ele>
        <time>2024-04-17T14:05:48Z</time>
      </trkpt>
      <trkpt lat="43.22832" lon="0.18492">
        <ele>299.2</ele>
        <time>2024-04-17T14:05:49Z</time>
      </trkpt>
      <trkpt lat="43.22832" lon="0.18492">
        <ele>299.2</ele>
        <time>2024-04-17T14:05:50Z</time>
      </trkpt>
      <trkpt lat="43.22832" lon="0.18492">
        <ele>299.2</ele>
        <time>2024-04-17T14:05:51Z</time>
      </trkpt>
      <trkpt lat="43.22832" lon="0.18492">
        <ele>299.2</ele>
        <time>2024-04-17T14:05:52Z</time>
      </trkpt>
      <trkpt lat="43.22832" lon="0.18492">
        <ele>299.2</ele>
        <time>2024-04-17T14:05:53Z</time>
      </trkpt>
      <trkpt lat="43.22832" lon="0.18492">
        <ele>299.2</ele>
        <time>2024-04-17T14:05:54Z</time>
      </trkpt>
      <trkpt lat="43.22832" lon="0.18492">
        <ele>299.2</ele>
        <time>2024-04-17T14:05:55Z</time>
      </trkpt>
      <trkpt lat="43.22832" lon="0.18492">
        <ele>299.2</ele>
        <time>2024-04-17T14:05:56Z</time>
      </trkpt>
      <trkpt lat="43.22832" lon="0.18492">
        <ele>299.2</ele>
        <time>2024-04-17T14:05:57Z</time>
      </trkpt>
      <trkpt lat="43.22832" lon="0.18492">
        <ele>299.2</ele>
        <time>2024-04-17T14:05:58Z</time>
      </trkpt>
      <trkpt lat="43.22832" lon="0.18492">
        <ele>299.2</ele>
        <time>2024-04-17T14:05:59Z</time>
      </trkpt>
      <trkpt lat="43.22832" lon="0.18492">
        <ele>299.2</ele>
        <time>2024-04-17T14:06:00Z</time>
      </trkpt>
      <trkpt lat="43.22832" lon="0.18492">
        <ele>299.2</ele>
        <time>2024-04-17T14:06:01Z</time>
      </trkpt>
      <trkpt lat="43.22832" lon="0.18492">
        <ele>299.2</ele>
        <time>2024-04-17T14:06:02Z</time>
      </trkpt>
      <trkpt lat="43.22832" lon="0.18492">
        <ele>299.2</ele>
        <time>2024-04-17T14:06:03Z</time>
      </trkpt>
      <trkpt lat="43.22832" lon="0.18492">
        <ele>299.2</ele>
        <time>2024-04-17T14:06:04Z</time>
      </trkpt>
      <trkpt lat="43.22832" lon="0.18492">
        <ele>299.2</ele>
        <time>2024-04-17T14:06:05Z</time>
      </trkpt>
      <trkpt lat="43.22832" lon="0.18492">
        <ele>299.2</ele>
        <time>2024-04-17T14:06:06Z</time>
      </trkpt>
      <trkpt lat="43.22832" lon="0.18492">
        <ele>299.2</ele>
        <time>2024-04-17T14:06:07Z</time>
      </trkpt>
      <trkpt lat="43.22832" lon="0.18492">
        <ele>299.2</ele>
        <time>2024-04-17T14:06:08Z</time>
      </trkpt>
      <trkpt lat="43.22832" lon="0.18492">
        <ele>299.2</ele>
        <time>2024-04-17T14:06:09Z</time>
      </trkpt>
      <trkpt lat="43.22832" lon="0.18492">
        <ele>299.2</ele>
        <time>2024-04-17T14:06:10Z</time>
      </trkpt>
      <trkpt lat="43.22832" lon="0.18492">
        <ele>299.2</ele>
        <time>2024-04-17T14:06:11Z</time>
      </trkpt>
      <trkpt lat="43.22832" lon="0.18492">
        <ele>299.2</ele>
        <time>2024-04-17T14:06:12Z</time>
      </trkpt>
      <trkpt lat="43.22832" lon="0.18492">
        <ele>299.2</ele>
        <time>2024-04-17T14:06:13Z</time>
      </trkpt>
      <trkpt lat="43.22832" lon="0.18492">
        <ele>299.2</ele>
        <time>2024-04-17T14:06:14Z</time>
      </trkpt>
      <trkpt lat="43.22832" lon="0.18492">
        <ele>299.2</ele>
        <time>2024-04-17T14:06:15Z</time>
      </trkpt>
      <trkpt lat="43.22832" lon="0.18492">
        <ele>299.2</ele>
        <time>2024-04-17T14:06:16Z</time>
      </trkpt>
      <trkpt lat="43.22832" lon="0.18492">
        <ele>299.2</ele>
        <time>2024-04-17T14:06:17Z</time>
      </trkpt>
      <trkpt lat="43.22832" lon="0.18492">
        <ele>299.2</ele>
        <time>2024-04-17T14:06:18Z</time>
      </trkpt>
      <trkpt lat="43.22832" lon="0.18492">
        <ele>299.2</ele>
        <time>2024-04-17T14:06:19Z</time>
      </trkpt>
      <trkpt lat="43.22832" lon="0.18492">
        <ele>299.2</ele>
        <time>2024-04-17T14:06:20Z</time>
      </trkpt>
      <trkpt lat="43.22832" lon="0.18492">
        <ele>299.2</ele>
        <time>2024-04-17T14:06:21Z</time>
      </trkpt>
      <trkpt lat="43.22832" lon="0.18492">
        <ele>299.2</ele>
        <time>2024-04-17T14:06:22Z</time>
      </trkpt>
      <trkpt lat="43.22832" lon="0.18492">
        <ele>299.2</ele>
        <time>2024-04-17T14:06:23Z</time>
      </trkpt>
      <trkpt lat="43.22832" lon="0.18492">
        <ele>299.2</ele>
        <time>2024-04-17T14:06:24Z</time>
      </trkpt>
      <trkpt lat="43.22832" lon="0.18492">
        <ele>299.2</ele>
        <time>2024-04-17T14:06:25Z</time>
      </trkpt>
      <trkpt lat="43.22832" lon="0.18492">
        <ele>299.2</ele>
        <time>2024-04-17T14:06:26Z</time>
      </trkpt>
      <trkpt lat="43.22832" lon="0.18492">
        <ele>299.2</ele>
        <time>2024-04-17T14:06:27Z</time>
      </trkpt>
      <trkpt lat="43.22832" lon="0.18492">
        <ele>299.2</ele>
        <time>2024-04-17T14:06:28Z</time>
      </trkpt>
      <trkpt lat="43.22832" lon="0.18492">
        <ele>299.2</ele>
        <time>2024-04-17T14:06:29Z</time>
      </trkpt>
      <trkpt lat="43.22832" lon="0.18492">
        <ele>299.2</ele>
        <time>2024-04-17T14:06:30Z</time>
      </trkpt>
      <trkpt lat="43.22832" lon="0.18492">
        <ele>299.2</ele>
        <time>2024-04-17T14:06:31Z</time>
      </trkpt>
      <trkpt lat="43.22832" lon="0.18492">
        <ele>299.2</ele>
        <time>2024-04-17T14:06:32Z</time>
      </trkpt>
      <trkpt lat="43.22832" lon="0.18492">
        <ele>299.2</ele>
        <time>2024-04-17T14:06:33Z</time>
      </trkpt>
      <trkpt lat="43.22832" lon="0.18492">
        <ele>299.2</ele>
        <time>2024-04-17T14:06:34Z</time>
      </trkpt>
      <trkpt lat="43.22832" lon="0.18492">
        <ele>299.2</ele>
        <time>2024-04-17T14:06:35Z</time>
      </trkpt>
      <trkpt lat="43.22832" lon="0.18492">
        <ele>299.2</ele>
        <time>2024-04-17T14:06:36Z</time>
      </trkpt>
      <trkpt lat="43.22832" lon="0.18492">
        <ele>299.2</ele>
        <time>2024-04-17T14:06:37Z</time>
      </trkpt>
      <trkpt lat="43.22832" lon="0.18492">
        <ele>299.2</ele>
        <time>2024-04-17T14:06:38Z</time>
      </trkpt>
      <trkpt lat="43.22832" lon="0.18492">
        <ele>299.2</ele>
        <time>2024-04-17T14:06:39Z</time>
      </trkpt>
      <trkpt lat="43.22832" lon="0.18492">
        <ele>299.2</ele>
        <time>2024-04-17T14:06:40Z</time>
      </trkpt>
      <trkpt lat="43.22832" lon="0.18492">
        <ele>299.2</ele>
        <time>2024-04-17T14:06:41Z</time>
      </trkpt>
      <trkpt lat="43.22832" lon="0.18492">
        <ele>299.2</ele>
        <time>2024-04-17T14:06:42Z</time>
      </trkpt>
      <trkpt lat="43.22832" lon="0.18492">
        <ele>299.2</ele>
        <time>2024-04-17T14:06:43Z</time>
      </trkpt>
      <trkpt lat="43.22832" lon="0.18492">
        <ele>299.2</ele>
        <time>2024-04-17T14:06:44Z</time>
      </trkpt>
      <trkpt lat="43.22832" lon="0.18492">
        <ele>299.2</ele>
        <time>2024-04-17T14:06:45Z</time>
      </trkpt>
      <trkpt lat="43.22832" lon="0.18492">
        <ele>299.2</ele>
        <time>2024-04-17T14:06:46Z</time>
      </trkpt>
      <trkpt lat="43.22832" lon="0.18492">
        <ele>299.2</ele>
        <time>2024-04-17T14:06:47Z</time>
      </trkpt>
      <trkpt lat="43.22832" lon="0.18492">
        <ele>299.4</ele>
        <time>2024-04-17T14:06:48Z</time>
      </trkpt>
      <trkpt lat="43.22832" lon="0.18492">
        <ele>299.4</ele>
        <time>2024-04-17T14:06:49Z</time>
      </trkpt>
      <trkpt lat="43.22832" lon="0.18492">
        <ele>299.4</ele>
        <time>2024-04-17T14:06:50Z</time>
      </trkpt>
      <trkpt lat="43.22832" lon="0.18492">
        <ele>299.2</ele>
        <time>2024-04-17T14:06:51Z</time>
      </trkpt>
      <trkpt lat="43.22832" lon="0.18492">
        <ele>299.4</ele>
        <time>2024-04-17T14:06:52Z</time>
      </trkpt>
      <trkpt lat="43.22832" lon="0.18492">
        <ele>299.2</ele>
        <time>2024-04-17T14:06:53Z</time>
      </trkpt>
      <trkpt lat="43.22832" lon="0.18492">
        <ele>299.2</ele>
        <time>2024-04-17T14:06:54Z</time>
      </trkpt>
      <trkpt lat="43.22832" lon="0.18492">
        <ele>299.2</ele>
        <time>2024-04-17T14:06:55Z</time>
      </trkpt>
      <trkpt lat="43.22832" lon="0.18492">
        <ele>299.4</ele>
        <time>2024-04-17T14:06:56Z</time>
      </trkpt>
      <trkpt lat="43.22832" lon="0.18492">
        <ele>299.4</ele>
        <time>2024-04-17T14:06:57Z</time>
      </trkpt>
      <trkpt lat="43.22832" lon="0.18492">
        <ele>299.4</ele>
        <time>2024-04-17T14:06:58Z</time>
      </trkpt>
      <trkpt lat="43.22832" lon="0.18492">
        <ele>299.4</ele>
        <time>2024-04-17T14:06:59Z</time>
      </trkpt>
      <trkpt lat="43.22832" lon="0.18492">
        <ele>299.4</ele>
        <time>2024-04-17T14:07:00Z</time>
      </trkpt>
      <trkpt lat="43.22832" lon="0.18492">
        <ele>299.4</ele>
        <time>2024-04-17T14:07:01Z</time>
      </trkpt>
      <trkpt lat="43.22832" lon="0.18492">
        <ele>299.4</ele>
        <time>2024-04-17T14:07:02Z</time>
      </trkpt>
      <trkpt lat="43.22832" lon="0.18492">
        <ele>299.4</ele>
        <time>2024-04-17T14:07:03Z</time>
      </trkpt>
      <trkpt lat="43.22832" lon="0.18492">
        <ele>299.4</ele>
        <time>2024-04-17T14:07:04Z</time>
      </trkpt>
      <trkpt lat="43.22832" lon="0.18492">
        <ele>299.4</ele>
        <time>2024-04-17T14:07:05Z</time>
      </trkpt>
      <trkpt lat="43.22832" lon="0.18492">
        <ele>299.4</ele>
        <time>2024-04-17T14:07:06Z</time>
      </trkpt>
      <trkpt lat="43.22832" lon="0.18492">
        <ele>299.4</ele>
        <time>2024-04-17T14:07:07Z</time>
      </trkpt>
      <trkpt lat="43.22832" lon="0.18492">
        <ele>299.4</ele>
        <time>2024-04-17T14:07:08Z</time>
      </trkpt>
      <trkpt lat="43.22832" lon="0.18492">
        <ele>299.4</ele>
        <time>2024-04-17T14:07:09Z</time>
      </trkpt>
      <trkpt lat="43.22832" lon="0.18492">
        <ele>299.4</ele>
        <time>2024-04-17T14:07:10Z</time>
      </trkpt>
      <trkpt lat="43.22832" lon="0.18492">
        <ele>299.4</ele>
        <time>2024-04-17T14:07:11Z</time>
      </trkpt>
      <trkpt lat="43.22832" lon="0.18492">
        <ele>299.4</ele>
        <time>2024-04-17T14:07:12Z</time>
      </trkpt>
      <trkpt lat="43.22832" lon="0.18492">
        <ele>299.4</ele>
        <time>2024-04-17T14:07:13Z</time>
      </trkpt>
      <trkpt lat="43.22832" lon="0.18492">
        <ele>299.4</ele>
        <time>2024-04-17T14:07:14Z</time>
      </trkpt>
      <trkpt lat="43.22832" lon="0.18492">
        <ele>299.4</ele>
        <time>2024-04-17T14:07:15Z</time>
      </trkpt>
      <trkpt lat="43.22832" lon="0.18492">
        <ele>299.4</ele>
        <time>2024-04-17T14:07:16Z</time>
      </trkpt>
      <trkpt lat="43.22832" lon="0.18492">
        <ele>299.4</ele>
        <time>2024-04-17T14:07:17Z</time>
      </trkpt>
      <trkpt lat="43.22832" lon="0.18492">
        <ele>299.4</ele>
        <time>2024-04-17T14:07:18Z</time>
      </trkpt>
      <trkpt lat="43.22832" lon="0.18492">
        <ele>299.4</ele>
        <time>2024-04-17T14:07:19Z</time>
      </trkpt>
      <trkpt lat="43.22832" lon="0.18492">
        <ele>299.4</ele>
        <time>2024-04-17T14:07:20Z</time>
      </trkpt>
      <trkpt lat="43.22832" lon="0.18492">
        <ele>299.4</ele>
        <time>2024-04-17T14:07:21Z</time>
      </trkpt>
      <trkpt lat="43.22832" lon="0.18492">
        <ele>299.4</ele>
        <time>2024-04-17T14:07:22Z</time>
      </trkpt>
      <trkpt lat="43.22832" lon="0.18492">
        <ele>299.4</ele>
        <time>2024-04-17T14:07:23Z</time>
      </trkpt>
      <trkpt lat="43.22832" lon="0.18492">
        <ele>299.4</ele>
        <time>2024-04-17T14:07:24Z</time>
      </trkpt>
      <trkpt lat="43.22832" lon="0.18492">
        <ele>299.4</ele>
        <time>2024-04-17T14:07:25Z</time>
      </trkpt>
      <trkpt lat="43.22832" lon="0.18492">
        <ele>299.4</ele>
        <time>2024-04-17T14:07:26Z</time>
      </trkpt>
      <trkpt lat="43.22832" lon="0.18492">
        <ele>299.4</ele>
        <time>2024-04-17T14:07:27Z</time>
      </trkpt>
      <trkpt lat="43.22832" lon="0.18492">
        <ele>299.4</ele>
        <time>2024-04-17T14:07:28Z</time>
      </trkpt>
      <trkpt lat="43.22832" lon="0.18492">
        <ele>299.4</ele>
        <time>2024-04-17T14:07:29Z</time>
      </trkpt>
      <trkpt lat="43.22832" lon="0.18492">
        <ele>299.4</ele>
        <time>2024-04-17T14:07:30Z</time>
      </trkpt>
      <trkpt lat="43.22832" lon="0.18492">
        <ele>299.4</ele>
        <time>2024-04-17T14:07:31Z</time>
      </trkpt>
      <trkpt lat="43.22832" lon="0.18492">
        <ele>299.4</ele>
        <time>2024-04-17T14:07:32Z</time>
      </trkpt>
      <trkpt lat="43.22832" lon="0.18492">
        <ele>299.4</ele>
        <time>2024-04-17T14:07:33Z</time>
      </trkpt>
      <trkpt lat="43.22832" lon="0.18492">
        <ele>299.4</ele>
        <time>2024-04-17T14:07:34Z</time>
      </trkpt>
      <trkpt lat="43.22832" lon="0.18492">
        <ele>299.4</ele>
        <time>2024-04-17T14:07:35Z</time>
      </trkpt>
      <trkpt lat="43.22832" lon="0.18492">
        <ele>299.4</ele>
        <time>2024-04-17T14:07:36Z</time>
      </trkpt>
      <trkpt lat="43.22832" lon="0.18492">
        <ele>299.4</ele>
        <time>2024-04-17T14:07:37Z</time>
      </trkpt>
      <trkpt lat="43.22832" lon="0.18492">
        <ele>299.4</ele>
        <time>2024-04-17T14:07:38Z</time>
      </trkpt>
      <trkpt lat="43.22832" lon="0.18492">
        <ele>299.4</ele>
        <time>2024-04-17T14:07:39Z</time>
      </trkpt>
      <trkpt lat="43.22832" lon="0.18492">
        <ele>299.4</ele>
        <time>2024-04-17T14:07:40Z</time>
      </trkpt>
      <trkpt lat="43.22832" lon="0.18492">
        <ele>299.4</ele>
        <time>2024-04-17T14:07:41Z</time>
      </trkpt>
      <trkpt lat="43.22832" lon="0.18492">
        <ele>299.4</ele>
        <time>2024-04-17T14:07:42Z</time>
      </trkpt>
      <trkpt lat="43.22832" lon="0.18492">
        <ele>299.4</ele>
        <time>2024-04-17T14:07:43Z</time>
      </trkpt>
      <trkpt lat="43.22832" lon="0.18492">
        <ele>299.4</ele>
        <time>2024-04-17T14:07:44Z</time>
      </trkpt>
      <trkpt lat="43.22832" lon="0.18492">
        <ele>299.4</ele>
        <time>2024-04-17T14:07:45Z</time>
      </trkpt>
      <trkpt lat="43.22832" lon="0.18492">
        <ele>299.4</ele>
        <time>2024-04-17T14:07:46Z</time>
      </trkpt>
      <trkpt lat="43.22832" lon="0.18492">
        <ele>299.4</ele>
        <time>2024-04-17T14:07:47Z</time>
      </trkpt>
      <trkpt lat="43.22832" lon="0.18492">
        <ele>299.4</ele>
        <time>2024-04-17T14:07:48Z</time>
      </trkpt>
      <trkpt lat="43.22832" lon="0.18492">
        <ele>299.4</ele>
        <time>2024-04-17T14:07:49Z</time>
      </trkpt>
      <trkpt lat="43.22832" lon="0.18492">
        <ele>299.4</ele>
        <time>2024-04-17T14:07:50Z</time>
      </trkpt>
      <trkpt lat="43.22832" lon="0.18492">
        <ele>299.4</ele>
        <time>2024-04-17T14:07:51Z</time>
      </trkpt>
      <trkpt lat="43.22832" lon="0.18492">
        <ele>299.4</ele>
        <time>2024-04-17T14:07:52Z</time>
      </trkpt>
      <trkpt lat="43.22832" lon="0.18492">
        <ele>299.4</ele>
        <time>2024-04-17T14:07:53Z</time>
      </trkpt>
      <trkpt lat="43.22832" lon="0.18492">
        <ele>299.4</ele>
        <time>2024-04-17T14:07:54Z</time>
      </trkpt>
      <trkpt lat="43.22832" lon="0.18492">
        <ele>299.4</ele>
        <time>2024-04-17T14:07:55Z</time>
      </trkpt>
      <trkpt lat="43.22832" lon="0.18492">
        <ele>299.4</ele>
        <time>2024-04-17T14:07:56Z</time>
      </trkpt>
      <trkpt lat="43.22832" lon="0.18492">
        <ele>299.4</ele>
        <time>2024-04-17T14:07:57Z</time>
      </trkpt>
      <trkpt lat="43.22832" lon="0.18492">
        <ele>299.4</ele>
        <time>2024-04-17T14:07:58Z</time>
      </trkpt>
      <trkpt lat="43.22832" lon="0.18492">
        <ele>299.4</ele>
        <time>2024-04-17T14:07:59Z</time>
      </trkpt>
      <trkpt lat="43.22832" lon="0.18492">
        <ele>299.4</ele>
        <time>2024-04-17T14:08:00Z</time>
      </trkpt>
      <trkpt lat="43.22832" lon="0.18492">
        <ele>299.4</ele>
        <time>2024-04-17T14:08:01Z</time>
      </trkpt>
      <trkpt lat="43.22832" lon="0.18492">
        <ele>299.4</ele>
        <time>2024-04-17T14:08:02Z</time>
      </trkpt>
      <trkpt lat="43.22832" lon="0.18492">
        <ele>299.4</ele>
        <time>2024-04-17T14:08:03Z</time>
      </trkpt>
      <trkpt lat="43.22832" lon="0.18492">
        <ele>299.4</ele>
        <time>2024-04-17T14:08:04Z</time>
      </trkpt>
      <trkpt lat="43.22832" lon="0.18492">
        <ele>299.4</ele>
        <time>2024-04-17T14:08:05Z</time>
      </trkpt>
      <trkpt lat="43.22832" lon="0.18492">
        <ele>299.4</ele>
        <time>2024-04-17T14:08:06Z</time>
      </trkpt>
      <trkpt lat="43.22832" lon="0.18492">
        <ele>299.4</ele>
        <time>2024-04-17T14:08:07Z</time>
      </trkpt>
      <trkpt lat="43.22832" lon="0.18492">
        <ele>299.4</ele>
        <time>2024-04-17T14:08:08Z</time>
      </trkpt>
      <trkpt lat="43.22832" lon="0.18492">
        <ele>299.4</ele>
        <time>2024-04-17T14:08:09Z</time>
      </trkpt>
      <trkpt lat="43.22832" lon="0.18492">
        <ele>299.4</ele>
        <time>2024-04-17T14:08:10Z</time>
      </trkpt>
      <trkpt lat="43.22832" lon="0.18492">
        <ele>299.4</ele>
        <time>2024-04-17T14:08:11Z</time>
      </trkpt>
      <trkpt lat="43.22832" lon="0.18492">
        <ele>299.4</ele>
        <time>2024-04-17T14:08:12Z</time>
      </trkpt>
      <trkpt lat="43.22832" lon="0.18492">
        <ele>299.4</ele>
        <time>2024-04-17T14:08:13Z</time>
      </trkpt>
      <trkpt lat="43.22832" lon="0.18492">
        <ele>299.4</ele>
        <time>2024-04-17T14:08:14Z</time>
      </trkpt>
      <trkpt lat="43.22832" lon="0.18492">
        <ele>299.4</ele>
        <time>2024-04-17T14:08:15Z</time>
      </trkpt>
      <trkpt lat="43.22832" lon="0.18492">
        <ele>299.2</ele>
        <time>2024-04-17T14:08:16Z</time>
      </trkpt>
      <trkpt lat="43.22832" lon="0.18492">
        <ele>299.2</ele>
        <time>2024-04-17T14:08:17Z</time>
      </trkpt>
      <trkpt lat="43.22832" lon="0.18492">
        <ele>299.2</ele>
        <time>2024-04-17T14:08:18Z</time>
      </trkpt>
      <trkpt lat="43.22832" lon="0.18492">
        <ele>299.2</ele>
        <time>2024-04-17T14:08:19Z</time>
      </trkpt>
      <trkpt lat="43.22832" lon="0.18492">
        <ele>299.2</ele>
        <time>2024-04-17T14:08:20Z</time>
      </trkpt>
      <trkpt lat="43.22832" lon="0.18492">
        <ele>299.2</ele>
        <time>2024-04-17T14:08:21Z</time>
      </trkpt>
      <trkpt lat="43.22832" lon="0.18492">
        <ele>299.2</ele>
        <time>2024-04-17T14:08:22Z</time>
      </trkpt>
      <trkpt lat="43.22832" lon="0.18492">
        <ele>299.2</ele>
        <time>2024-04-17T14:08:23Z</time>
      </trkpt>
      <trkpt lat="43.22832" lon="0.18492">
        <ele>299.2</ele>
        <time>2024-04-17T14:08:24Z</time>
      </trkpt>
      <trkpt lat="43.22832" lon="0.18492">
        <ele>299.2</ele>
        <time>2024-04-17T14:08:25Z</time>
      </trkpt>
      <trkpt lat="43.22832" lon="0.18492">
        <ele>299.2</ele>
        <time>2024-04-17T14:08:26Z</time>
      </trkpt>
      <trkpt lat="43.22832" lon="0.18492">
        <ele>299.2</ele>
        <time>2024-04-17T14:08:27Z</time>
      </trkpt>
      <trkpt lat="43.22832" lon="0.18492">
        <ele>299.2</ele>
        <time>2024-04-17T14:08:28Z</time>
      </trkpt>
      <trkpt lat="43.22832" lon="0.18492">
        <ele>299.2</ele>
        <time>2024-04-17T14:08:29Z</time>
      </trkpt>
      <trkpt lat="43.22832" lon="0.18492">
        <ele>299.2</ele>
        <time>2024-04-17T14:08:30Z</time>
      </trkpt>
      <trkpt lat="43.22832" lon="0.18492">
        <ele>299.2</ele>
        <time>2024-04-17T14:08:31Z</time>
      </trkpt>
      <trkpt lat="43.22832" lon="0.18492">
        <ele>299.2</ele>
        <time>2024-04-17T14:08:32Z</time>
      </trkpt>
      <trkpt lat="43.22832" lon="0.18492">
        <ele>299.2</ele>
        <time>2024-04-17T14:08:33Z</time>
      </trkpt>
      <trkpt lat="43.22832" lon="0.18492">
        <ele>299.4</ele>
        <time>2024-04-17T14:08:34Z</time>
      </trkpt>
      <trkpt lat="43.22832" lon="0.18492">
        <ele>299.4</ele>
        <time>2024-04-17T14:08:35Z</time>
      </trkpt>
      <trkpt lat="43.22832" lon="0.18492">
        <ele>299.4</ele>
        <time>2024-04-17T14:08:36Z</time>
      </trkpt>
      <trkpt lat="43.22832" lon="0.18492">
        <ele>299.4</ele>
        <time>2024-04-17T14:08:37Z</time>
      </trkpt>
      <trkpt lat="43.22832" lon="0.18492">
        <ele>299.4</ele>
        <time>2024-04-17T14:08:38Z</time>
      </trkpt>
      <trkpt lat="43.22832" lon="0.18492">
        <ele>299.4</ele>
        <time>2024-04-17T14:08:39Z</time>
      </trkpt>
      <trkpt lat="43.22832" lon="0.18492">
        <ele>299.4</ele>
        <time>2024-04-17T14:08:40Z</time>
      </trkpt>
      <trkpt lat="43.22832" lon="0.18492">
        <ele>299.4</ele>
        <time>2024-04-17T14:08:41Z</time>
      </trkpt>
      <trkpt lat="43.22832" lon="0.18492">
        <ele>299.4</ele>
        <time>2024-04-17T14:08:42Z</time>
      </trkpt>
      <trkpt lat="43.22832" lon="0.18492">
        <ele>299.4</ele>
        <time>2024-04-17T14:08:43Z</time>
      </trkpt>
      <trkpt lat="43.22832" lon="0.18492">
        <ele>299.4</ele>
        <time>2024-04-17T14:08:44Z</time>
      </trkpt>
      <trkpt lat="43.22832" lon="0.18492">
        <ele>299.4</ele>
        <time>2024-04-17T14:08:45Z</time>
      </trkpt>
      <trkpt lat="43.22832" lon="0.18492">
        <ele>299.4</ele>
        <time>2024-04-17T14:08:46Z</time>
      </trkpt>
      <trkpt lat="43.22832" lon="0.18492">
        <ele>299.6</ele>
        <time>2024-04-17T14:08:47Z</time>
      </trkpt>
      <trkpt lat="43.22832" lon="0.18492">
        <ele>299.6</ele>
        <time>2024-04-17T14:08:48Z</time>
      </trkpt>
      <trkpt lat="43.22832" lon="0.18492">
        <ele>299.6</ele>
        <time>2024-04-17T14:08:49Z</time>
      </trkpt>
      <trkpt lat="43.22832" lon="0.18492">
        <ele>299.6</ele>
        <time>2024-04-17T14:08:50Z</time>
      </trkpt>
      <trkpt lat="43.22832" lon="0.18492">
        <ele>299.6</ele>
        <time>2024-04-17T14:08:51Z</time>
      </trkpt>
      <trkpt lat="43.22832" lon="0.18492">
        <ele>299.6</ele>
        <time>2024-04-17T14:08:52Z</time>
      </trkpt>
      <trkpt lat="43.22832" lon="0.18492">
        <ele>299.6</ele>
        <time>2024-04-17T14:08:53Z</time>
      </trkpt>
      <trkpt lat="43.22832" lon="0.18492">
        <ele>299.6</ele>
        <time>2024-04-17T14:08:54Z</time>
      </trkpt>
      <trkpt lat="43.22832" lon="0.18492">
        <ele>299.6</ele>
        <time>2024-04-17T14:08:55Z</time>
      </trkpt>
      <trkpt lat="43.22832" lon="0.18492">
        <ele>299.6</ele>
        <time>2024-04-17T14:08:56Z</time>
      </trkpt>
      <trkpt lat="43.22832" lon="0.18492">
        <ele>299.6</ele>
        <time>2024-04-17T14:08:57Z</time>
      </trkpt>
      <trkpt lat="43.22832" lon="0.18492">
        <ele>299.6</ele>
        <time>2024-04-17T14:08:58Z</time>
      </trkpt>
      <trkpt lat="43.22832" lon="0.18492">
        <ele>299.6</ele>
        <time>2024-04-17T14:08:59Z</time>
      </trkpt>
      <trkpt lat="43.22832" lon="0.18492">
        <ele>299.6</ele>
        <time>2024-04-17T14:09:00Z</time>
      </trkpt>
      <trkpt lat="43.22832" lon="0.18492">
        <ele>299.6</ele>
        <time>2024-04-17T14:09:01Z</time>
      </trkpt>
      <trkpt lat="43.22832" lon="0.18492">
        <ele>299.6</ele>
        <time>2024-04-17T14:09:02Z</time>
      </trkpt>
      <trkpt lat="43.22832" lon="0.18492">
        <ele>299.6</ele>
        <time>2024-04-17T14:09:03Z</time>
      </trkpt>
      <trkpt lat="43.22832" lon="0.18492">
        <ele>299.6</ele>
        <time>2024-04-17T14:09:04Z</time>
      </trkpt>
      <trkpt lat="43.22832" lon="0.18492">
        <ele>299.6</ele>
        <time>2024-04-17T14:09:05Z</time>
      </trkpt>
      <trkpt lat="43.22832" lon="0.18492">
        <ele>299.6</ele>
        <time>2024-04-17T14:09:06Z</time>
      </trkpt>
      <trkpt lat="43.22832" lon="0.18492">
        <ele>299.6</ele>
        <time>2024-04-17T14:09:07Z</time>
      </trkpt>
      <trkpt lat="43.22832" lon="0.18492">
        <ele>299.6</ele>
        <time>2024-04-17T14:09:08Z</time>
      </trkpt>
      <trkpt lat="43.22832" lon="0.18492">
        <ele>299.6</ele>
        <time>2024-04-17T14:09:09Z</time>
      </trkpt>
      <trkpt lat="43.22832" lon="0.18492">
        <ele>299.4</ele>
        <time>2024-04-17T14:09:10Z</time>
      </trkpt>
      <trkpt lat="43.22832" lon="0.18492">
        <ele>299.4</ele>
        <time>2024-04-17T14:09:11Z</time>
      </trkpt>
      <trkpt lat="43.22832" lon="0.18492">
        <ele>299.4</ele>
        <time>2024-04-17T14:09:12Z</time>
      </trkpt>
      <trkpt lat="43.22832" lon="0.18492">
        <ele>299.6</ele>
        <time>2024-04-17T14:09:13Z</time>
      </trkpt>
      <trkpt lat="43.22832" lon="0.18492">
        <ele>299.6</ele>
        <time>2024-04-17T14:09:14Z</time>
      </trkpt>
      <trkpt lat="43.22832" lon="0.18492">
        <ele>299.6</ele>
        <time>2024-04-17T14:09:15Z</time>
      </trkpt>
      <trkpt lat="43.22832" lon="0.18492">
        <ele>299.6</ele>
        <time>2024-04-17T14:09:16Z</time>
      </trkpt>
      <trkpt lat="43.22832" lon="0.18492">
        <ele>299.6</ele>
        <time>2024-04-17T14:09:17Z</time>
      </trkpt>
      <trkpt lat="43.22832" lon="0.18492">
        <ele>299.6</ele>
        <time>2024-04-17T14:09:18Z</time>
      </trkpt>
      <trkpt lat="43.22832" lon="0.18492">
        <ele>299.6</ele>
        <time>2024-04-17T14:09:19Z</time>
      </trkpt>
      <trkpt lat="43.22832" lon="0.18492">
        <ele>299.6</ele>
        <time>2024-04-17T14:09:20Z</time>
      </trkpt>
      <trkpt lat="43.22832" lon="0.18492">
        <ele>299.6</ele>
        <time>2024-04-17T14:09:21Z</time>
      </trkpt>
      <trkpt lat="43.22832" lon="0.18492">
        <ele>299.6</ele>
        <time>2024-04-17T14:09:22Z</time>
      </trkpt>
      <trkpt lat="43.22832" lon="0.18492">
        <ele>299.6</ele>
        <time>2024-04-17T14:09:23Z</time>
      </trkpt>
      <trkpt lat="43.22832" lon="0.18492">
        <ele>299.6</ele>
        <time>2024-04-17T14:09:24Z</time>
      </trkpt>
      <trkpt lat="43.22832" lon="0.18492">
        <ele>299.6</ele>
        <time>2024-04-17T14:09:25Z</time>
      </trkpt>
      <trkpt lat="43.22832" lon="0.18492">
        <ele>299.6</ele>
        <time>2024-04-17T14:09:26Z</time>
      </trkpt>
      <trkpt lat="43.22832" lon="0.18492">
        <ele>299.6</ele>
        <time>2024-04-17T14:09:27Z</time>
      </trkpt>
      <trkpt lat="43.22832" lon="0.18492">
        <ele>299.6</ele>
        <time>2024-04-17T14:09:28Z</time>
      </trkpt>
      <trkpt lat="43.22832" lon="0.18492">
        <ele>299.6</ele>
        <time>2024-04-17T14:09:29Z</time>
      </trkpt>
      <trkpt lat="43.22832" lon="0.18492">
        <ele>299.4</ele>
        <time>2024-04-17T14:09:30Z</time>
      </trkpt>
      <trkpt lat="43.22832" lon="0.18492">
        <ele>299.4</ele>
        <time>2024-04-17T14:09:31Z</time>
      </trkpt>
      <trkpt lat="43.22832" lon="0.18492">
        <ele>299.4</ele>
        <time>2024-04-17T14:09:32Z</time>
      </trkpt>
      <trkpt lat="43.22832" lon="0.18492">
        <ele>299.4</ele>
        <time>2024-04-17T14:09:33Z</time>
      </trkpt>
      <trkpt lat="43.22832" lon="0.18492">
        <ele>299.6</ele>
        <time>2024-04-17T14:09:34Z</time>
      </trkpt>
      <trkpt lat="43.22832" lon="0.18492">
        <ele>299.6</ele>
        <time>2024-04-17T14:09:35Z</time>
      </trkpt>
      <trkpt lat="43.22832" lon="0.18492">
        <ele>299.6</ele>
        <time>2024-04-17T14:09:36Z</time>
      </trkpt>
      <trkpt lat="43.22832" lon="0.18492">
        <ele>299.6</ele>
        <time>2024-04-17T14:09:37Z</time>
      </trkpt>
      <trkpt lat="43.22832" lon="0.18492">
        <ele>299.6</ele>
        <time>2024-04-17T14:09:38Z</time>
      </trkpt>
      <trkpt lat="43.22832" lon="0.18492">
        <ele>299.6</ele>
        <time>2024-04-17T14:09:39Z</time>
      </trkpt>
      <trkpt lat="43.22832" lon="0.18492">
        <ele>299.6</ele>
        <time>2024-04-17T14:09:40Z</time>
      </trkpt>
      <trkpt lat="43.22832" lon="0.18492">
        <ele>299.6</ele>
        <time>2024-04-17T14:09:41Z</time>
      </trkpt>
      <trkpt lat="43.22832" lon="0.18492">
        <ele>299.6</ele>
        <time>2024-04-17T14:09:42Z</time>
      </trkpt>
      <trkpt lat="43.22832" lon="0.18492">
        <ele>299.6</ele>
        <time>2024-04-17T14:09:43Z</time>
      </trkpt>
      <trkpt lat="43.22832" lon="0.18492">
        <ele>299.6</ele>
        <time>2024-04-17T14:09:44Z</time>
      </trkpt>
      <trkpt lat="43.22832" lon="0.18492">
        <ele>299.6</ele>
        <time>2024-04-17T14:09:45Z</time>
      </trkpt>
      <trkpt lat="43.22832" lon="0.18492">
        <ele>299.6</ele>
        <time>2024-04-17T14:09:46Z</time>
      </trkpt>
      <trkpt lat="43.22832" lon="0.18492">
        <ele>299.6</ele>
        <time>2024-04-17T14:09:47Z</time>
      </trkpt>
      <trkpt lat="43.22832" lon="0.18492">
        <ele>299.6</ele>
        <time>2024-04-17T14:09:48Z</time>
      </trkpt>
      <trkpt lat="43.22832" lon="0.18492">
        <ele>299.6</ele>
        <time>2024-04-17T14:09:49Z</time>
      </trkpt>
      <trkpt lat="43.22832" lon="0.18492">
        <ele>299.6</ele>
        <time>2024-04-17T14:09:50Z</time>
      </trkpt>
      <trkpt lat="43.22832" lon="0.18492">
        <ele>299.6</ele>
        <time>2024-04-17T14:09:51Z</time>
      </trkpt>
      <trkpt lat="43.22832" lon="0.18492">
        <ele>299.8</ele>
        <time>2024-04-17T14:09:52Z</time>
      </trkpt>
      <trkpt lat="43.22832" lon="0.18492">
        <ele>299.6</ele>
        <time>2024-04-17T14:09:53Z</time>
      </trkpt>
      <trkpt lat="43.22832" lon="0.18492">
        <ele>299.4</ele>
        <time>2024-04-17T14:09:54Z</time>
      </trkpt>
      <trkpt lat="43.22832" lon="0.18492">
        <ele>299.4</ele>
        <time>2024-04-17T14:09:55Z</time>
      </trkpt>
      <trkpt lat="43.22832" lon="0.18492">
        <ele>299.4</ele>
        <time>2024-04-17T14:09:56Z</time>
      </trkpt>
      <trkpt lat="43.22832" lon="0.18492">
        <ele>299.4</ele>
        <time>2024-04-17T14:09:57Z</time>
      </trkpt>
      <trkpt lat="43.22832" lon="0.18492">
        <ele>299.4</ele>
        <time>2024-04-17T14:09:58Z</time>
      </trkpt>
      <trkpt lat="43.22832" lon="0.18492">
        <ele>299.4</ele>
        <time>2024-04-17T14:09:59Z</time>
      </trkpt>
      <trkpt lat="43.22832" lon="0.18492">
        <ele>299.4</ele>
        <time>2024-04-17T14:10:00Z</time>
      </trkpt>
      <trkpt lat="43.22832" lon="0.18492">
        <ele>299.6</ele>
        <time>2024-04-17T14:10:01Z</time>
      </trkpt>
      <trkpt lat="43.22832" lon="0.18492">
        <ele>299.6</ele>
        <time>2024-04-17T14:10:02Z</time>
      </trkpt>
      <trkpt lat="43.22832" lon="0.18492">
        <ele>299.6</ele>
        <time>2024-04-17T14:10:03Z</time>
      </trkpt>
      <trkpt lat="43.22832" lon="0.18492">
        <ele>299.6</ele>
        <time>2024-04-17T14:10:04Z</time>
      </trkpt>
      <trkpt lat="43.22832" lon="0.18492">
        <ele>299.6</ele>
        <time>2024-04-17T14:10:05Z</time>
      </trkpt>
      <trkpt lat="43.22832" lon="0.18492">
        <ele>299.6</ele>
        <time>2024-04-17T14:10:06Z</time>
      </trkpt>
      <trkpt lat="43.22832" lon="0.18492">
        <ele>299.6</ele>
        <time>2024-04-17T14:10:07Z</time>
      </trkpt>
      <trkpt lat="43.22832" lon="0.18492">
        <ele>299.6</ele>
        <time>2024-04-17T14:10:08Z</time>
      </trkpt>
      <trkpt lat="43.22832" lon="0.18492">
        <ele>299.6</ele>
        <time>2024-04-17T14:10:09Z</time>
      </trkpt>
      <trkpt lat="43.22832" lon="0.18492">
        <ele>299.6</ele>
        <time>2024-04-17T14:10:10Z</time>
      </trkpt>
      <trkpt lat="43.22832" lon="0.18492">
        <ele>299.6</ele>
        <time>2024-04-17T14:10:11Z</time>
      </trkpt>
      <trkpt lat="43.22832" lon="0.18492">
        <ele>299.6</ele>
        <time>2024-04-17T14:10:12Z</time>
      </trkpt>
      <trkpt lat="43.22832" lon="0.18492">
        <ele>299.6</ele>
        <time>2024-04-17T14:10:13Z</time>
      </trkpt>
      <trkpt lat="43.22832" lon="0.18492">
        <ele>299.6</ele>
        <time>2024-04-17T14:10:14Z</time>
      </trkpt>
      <trkpt lat="43.22832" lon="0.18492">
        <ele>299.6</ele>
        <time>2024-04-17T14:10:15Z</time>
      </trkpt>
      <trkpt lat="43.22832" lon="0.18492">
        <ele>299.6</ele>
        <time>2024-04-17T14:10:16Z</time>
      </trkpt>
      <trkpt lat="43.22832" lon="0.18492">
        <ele>299.6</ele>
        <time>2024-04-17T14:10:17Z</time>
      </trkpt>
      <trkpt lat="43.22832" lon="0.18492">
        <ele>299.6</ele>
        <time>2024-04-17T14:10:18Z</time>
      </trkpt>
      <trkpt lat="43.22832" lon="0.18492">
        <ele>299.6</ele>
        <time>2024-04-17T14:10:19Z</time>
      </trkpt>
      <trkpt lat="43.22832" lon="0.18492">
        <ele>299.6</ele>
        <time>2024-04-17T14:10:20Z</time>
      </trkpt>
      <trkpt lat="43.22832" lon="0.18492">
        <ele>299.6</ele>
        <time>2024-04-17T14:10:21Z</time>
      </trkpt>
      <trkpt lat="43.22832" lon="0.18492">
        <ele>299.6</ele>
        <time>2024-04-17T14:10:22Z</time>
      </trkpt>
      <trkpt lat="43.22832" lon="0.18492">
        <ele>299.6</ele>
        <time>2024-04-17T14:10:23Z</time>
      </trkpt>
      <trkpt lat="43.22832" lon="0.18492">
        <ele>299.6</ele>
        <time>2024-04-17T14:10:24Z</time>
      </trkpt>
      <trkpt lat="43.22832" lon="0.18492">
        <ele>299.6</ele>
        <time>2024-04-17T14:10:25Z</time>
      </trkpt>
      <trkpt lat="43.22832" lon="0.18492">
        <ele>299.6</ele>
        <time>2024-04-17T14:10:26Z</time>
      </trkpt>
      <trkpt lat="43.22832" lon="0.18492">
        <ele>299.6</ele>
        <time>2024-04-17T14:10:27Z</time>
      </trkpt>
      <trkpt lat="43.22832" lon="0.18492">
        <ele>299.6</ele>
        <time>2024-04-17T14:10:28Z</time>
      </trkpt>
      <trkpt lat="43.22832" lon="0.18492">
        <ele>299.6</ele>
        <time>2024-04-17T14:10:29Z</time>
      </trkpt>
      <trkpt lat="43.22832" lon="0.18492">
        <ele>299.6</ele>
        <time>2024-04-17T14:10:30Z</time>
      </trkpt>
      <trkpt lat="43.22832" lon="0.18492">
        <ele>299.6</ele>
        <time>2024-04-17T14:10:31Z</time>
      </trkpt>
      <trkpt lat="43.22832" lon="0.18492">
        <ele>299.6</ele>
        <time>2024-04-17T14:10:32Z</time>
      </trkpt>
      <trkpt lat="43.22832" lon="0.18492">
        <ele>299.6</ele>
        <time>2024-04-17T14:10:33Z</time>
      </trkpt>
      <trkpt lat="43.22832" lon="0.18492">
        <ele>299.6</ele>
        <time>2024-04-17T14:10:34Z</time>
      </trkpt>
      <trkpt lat="43.22832" lon="0.18492">
        <ele>299.6</ele>
        <time>2024-04-17T14:10:35Z</time>
      </trkpt>
      <trkpt lat="43.22832" lon="0.18492">
        <ele>299.6</ele>
        <time>2024-04-17T14:10:36Z</time>
      </trkpt>
      <trkpt lat="43.22832" lon="0.18492">
        <ele>299.6</ele>
        <time>2024-04-17T14:10:37Z</time>
      </trkpt>
      <trkpt lat="43.22832" lon="0.18492">
        <ele>299.6</ele>
        <time>2024-04-17T14:10:38Z</time>
      </trkpt>
      <trkpt lat="43.22832" lon="0.18492">
        <ele>299.6</ele>
        <time>2024-04-17T14:10:39Z</time>
      </trkpt>
      <trkpt lat="43.22832" lon="0.18492">
        <ele>299.6</ele>
        <time>2024-04-17T14:10:40Z</time>
      </trkpt>
      <trkpt lat="43.22832" lon="0.18492">
        <ele>299.6</ele>
        <time>2024-04-17T14:10:41Z</time>
      </trkpt>
      <trkpt lat="43.22832" lon="0.18492">
        <ele>299.6</ele>
        <time>2024-04-17T14:10:42Z</time>
      </trkpt>
      <trkpt lat="43.22832" lon="0.18492">
        <ele>299.6</ele>
        <time>2024-04-17T14:10:43Z</time>
      </trkpt>
      <trkpt lat="43.22832" lon="0.18492">
        <ele>299.6</ele>
        <time>2024-04-17T14:10:44Z</time>
      </trkpt>
      <trkpt lat="43.22832" lon="0.18492">
        <ele>299.6</ele>
        <time>2024-04-17T14:10:45Z</time>
      </trkpt>
      <trkpt lat="43.22832" lon="0.18492">
        <ele>299.6</ele>
        <time>2024-04-17T14:10:46Z</time>
      </trkpt>
      <trkpt lat="43.22832" lon="0.18492">
        <ele>299.6</ele>
        <time>2024-04-17T14:10:47Z</time>
      </trkpt>
      <trkpt lat="43.22832" lon="0.18492">
        <ele>299.6</ele>
        <time>2024-04-17T14:10:48Z</time>
      </trkpt>
      <trkpt lat="43.22832" lon="0.18492">
        <ele>299.6</ele>
        <time>2024-04-17T14:10:49Z</time>
      </trkpt>
      <trkpt lat="43.22832" lon="0.18492">
        <ele>299.6</ele>
        <time>2024-04-17T14:10:50Z</time>
      </trkpt>
      <trkpt lat="43.22832" lon="0.18492">
        <ele>299.6</ele>
        <time>2024-04-17T14:10:51Z</time>
      </trkpt>
      <trkpt lat="43.22832" lon="0.18492">
        <ele>299.6</ele>
        <time>2024-04-17T14:10:52Z</time>
      </trkpt>
      <trkpt lat="43.22832" lon="0.18492">
        <ele>299.6</ele>
        <time>2024-04-17T14:10:53Z</time>
      </trkpt>
      <trkpt lat="43.22832" lon="0.18492">
        <ele>299.6</ele>
        <time>2024-04-17T14:10:54Z</time>
      </trkpt>
      <trkpt lat="43.22832" lon="0.18492">
        <ele>299.6</ele>
        <time>2024-04-17T14:10:55Z</time>
      </trkpt>
      <trkpt lat="43.22832" lon="0.18492">
        <ele>299.6</ele>
        <time>2024-04-17T14:10:56Z</time>
      </trkpt>
      <trkpt lat="43.22832" lon="0.18492">
        <ele>299.6</ele>
        <time>2024-04-17T14:10:57Z</time>
      </trkpt>
      <trkpt lat="43.22832" lon="0.18492">
        <ele>299.6</ele>
        <time>2024-04-17T14:10:58Z</time>
      </trkpt>
      <trkpt lat="43.22832" lon="0.18492">
        <ele>299.6</ele>
        <time>2024-04-17T14:10:59Z</time>
      </trkpt>
      <trkpt lat="43.22832" lon="0.18492">
        <ele>299.6</ele>
        <time>2024-04-17T14:11:00Z</time>
      </trkpt>
      <trkpt lat="43.22832" lon="0.18492">
        <ele>299.6</ele>
        <time>2024-04-17T14:11:01Z</time>
      </trkpt>
      <trkpt lat="43.22832" lon="0.18492">
        <ele>299.4</ele>
        <time>2024-04-17T14:11:02Z</time>
      </trkpt>
      <trkpt lat="43.22832" lon="0.18492">
        <ele>299.4</ele>
        <time>2024-04-17T14:11:03Z</time>
      </trkpt>
      <trkpt lat="43.22832" lon="0.18492">
        <ele>299.4</ele>
        <time>2024-04-17T14:11:04Z</time>
      </trkpt>
      <trkpt lat="43.22832" lon="0.18492">
        <ele>299.4</ele>
        <time>2024-04-17T14:11:05Z</time>
      </trkpt>
      <trkpt lat="43.22832" lon="0.18492">
        <ele>299.4</ele>
        <time>2024-04-17T14:11:06Z</time>
      </trkpt>
      <trkpt lat="43.22832" lon="0.18492">
        <ele>299.4</ele>
        <time>2024-04-17T14:11:07Z</time>
      </trkpt>
      <trkpt lat="43.22832" lon="0.18492">
        <ele>299.4</ele>
        <time>2024-04-17T14:11:08Z</time>
      </trkpt>
      <trkpt lat="43.22832" lon="0.18492">
        <ele>299.4</ele>
        <time>2024-04-17T14:11:09Z</time>
      </trkpt>
      <trkpt lat="43.22832" lon="0.18492">
        <ele>299.4</ele>
        <time>2024-04-17T14:11:10Z</time>
      </trkpt>
      <trkpt lat="43.22832" lon="0.18492">
        <ele>299.4</ele>
        <time>2024-04-17T14:11:11Z</time>
      </trkpt>
      <trkpt lat="43.22832" lon="0.18492">
        <ele>299.4</ele>
        <time>2024-04-17T14:11:12Z</time>
      </trkpt>
      <trkpt lat="43.22832" lon="0.18492">
        <ele>299.4</ele>
        <time>2024-04-17T14:11:13Z</time>
      </trkpt>
      <trkpt lat="43.22832" lon="0.18492">
        <ele>299.4</ele>
        <time>2024-04-17T14:11:14Z</time>
      </trkpt>
      <trkpt lat="43.22832" lon="0.18492">
        <ele>299.4</ele>
        <time>2024-04-17T14:11:15Z</time>
      </trkpt>
      <trkpt lat="43.22832" lon="0.18492">
        <ele>299.4</ele>
        <time>2024-04-17T14:11:16Z</time>
      </trkpt>
      <trkpt lat="43.22832" lon="0.18492">
        <ele>299.4</ele>
        <time>2024-04-17T14:11:17Z</time>
      </trkpt>
      <trkpt lat="43.22832" lon="0.18492">
        <ele>299.4</ele>
        <time>2024-04-17T14:11:18Z</time>
      </trkpt>
      <trkpt lat="43.22832" lon="0.18492">
        <ele>299.4</ele>
        <time>2024-04-17T14:11:19Z</time>
      </trkpt>
      <trkpt lat="43.22832" lon="0.18492">
        <ele>299.4</ele>
        <time>2024-04-17T14:11:20Z</time>
      </trkpt>
      <trkpt lat="43.22832" lon="0.18492">
        <ele>299.4</ele>
        <time>2024-04-17T14:11:21Z</time>
      </trkpt>
      <trkpt lat="43.22832" lon="0.18492">
        <ele>299.4</ele>
        <time>2024-04-17T14:11:22Z</time>
      </trkpt>
      <trkpt lat="43.22832" lon="0.18492">
        <ele>299.4</ele>
        <time>2024-04-17T14:11:23Z</time>
      </trkpt>
      <trkpt lat="43.22832" lon="0.18492">
        <ele>299.4</ele>
        <time>2024-04-17T14:11:24Z</time>
      </trkpt>
      <trkpt lat="43.22832" lon="0.18492">
        <ele>299.4</ele>
        <time>2024-04-17T14:11:25Z</time>
      </trkpt>
      <trkpt lat="43.22832" lon="0.18492">
        <ele>299.4</ele>
        <time>2024-04-17T14:11:26Z</time>
      </trkpt>
      <trkpt lat="43.22832" lon="0.18492">
        <ele>299.4</ele>
        <time>2024-04-17T14:11:27Z</time>
      </trkpt>
      <trkpt lat="43.22832" lon="0.18492">
        <ele>299.4</ele>
        <time>2024-04-17T14:11:28Z</time>
      </trkpt>
      <trkpt lat="43.22832" lon="0.18492">
        <ele>299.4</ele>
        <time>2024-04-17T14:11:29Z</time>
      </trkpt>
      <trkpt lat="43.22832" lon="0.18492">
        <ele>299.4</ele>
        <time>2024-04-17T14:11:30Z</time>
      </trkpt>
      <trkpt lat="43.22832" lon="0.18492">
        <ele>299.4</ele>
        <time>2024-04-17T14:11:31Z</time>
      </trkpt>
      <trkpt lat="43.22832" lon="0.18492">
        <ele>299.4</ele>
        <time>2024-04-17T14:11:32Z</time>
      </trkpt>
      <trkpt lat="43.22832" lon="0.18492">
        <ele>299.4</ele>
        <time>2024-04-17T14:11:33Z</time>
      </trkpt>
      <trkpt lat="43.22832" lon="0.18492">
        <ele>299.6</ele>
        <time>2024-04-17T14:11:34Z</time>
      </trkpt>
      <trkpt lat="43.22832" lon="0.18492">
        <ele>299.6</ele>
        <time>2024-04-17T14:11:35Z</time>
      </trkpt>
      <trkpt lat="43.22832" lon="0.18492">
        <ele>299.6</ele>
        <time>2024-04-17T14:11:36Z</time>
      </trkpt>
      <trkpt lat="43.22832" lon="0.18492">
        <ele>299.6</ele>
        <time>2024-04-17T14:11:37Z</time>
      </trkpt>
      <trkpt lat="43.22832" lon="0.18492">
        <ele>299.6</ele>
        <time>2024-04-17T14:11:38Z</time>
      </trkpt>
      <trkpt lat="43.22832" lon="0.18492">
        <ele>299.6</ele>
        <time>2024-04-17T14:11:39Z</time>
      </trkpt>
      <trkpt lat="43.22832" lon="0.18492">
        <ele>299.6</ele>
        <time>2024-04-17T14:11:40Z</time>
      </trkpt>
      <trkpt lat="43.22832" lon="0.18492">
        <ele>299.6</ele>
        <time>2024-04-17T14:11:41Z</time>
      </trkpt>
      <trkpt lat="43.22832" lon="0.18492">
        <ele>299.6</ele>
        <time>2024-04-17T14:11:42Z</time>
      </trkpt>
      <trkpt lat="43.22832" lon="0.18492">
        <ele>299.6</ele>
        <time>2024-04-17T14:11:43Z</time>
      </trkpt>
      <trkpt lat="43.22832" lon="0.18492">
        <ele>299.6</ele>
        <time>2024-04-17T14:11:44Z</time>
      </trkpt>
      <trkpt lat="43.22832" lon="0.18492">
        <ele>299.4</ele>
        <time>2024-04-17T14:11:45Z</time>
      </trkpt>
      <trkpt lat="43.22832" lon="0.18492">
        <ele>299.4</ele>
        <time>2024-04-17T14:11:46Z</time>
      </trkpt>
      <trkpt lat="43.22832" lon="0.18492">
        <ele>299.4</ele>
        <time>2024-04-17T14:11:47Z</time>
      </trkpt>
      <trkpt lat="43.22832" lon="0.18492">
        <ele>299.4</ele>
        <time>2024-04-17T14:11:48Z</time>
      </trkpt>
      <trkpt lat="43.22832" lon="0.18492">
        <ele>299.4</ele>
        <time>2024-04-17T14:11:49Z</time>
      </trkpt>
      <trkpt lat="43.22832" lon="0.18492">
        <ele>299.4</ele>
        <time>2024-04-17T14:11:50Z</time>
      </trkpt>
      <trkpt lat="43.22832" lon="0.18492">
        <ele>299.4</ele>
        <time>2024-04-17T14:11:51Z</time>
      </trkpt>
      <trkpt lat="43.22832" lon="0.18492">
        <ele>299.4</ele>
        <time>2024-04-17T14:11:52Z</time>
      </trkpt>
      <trkpt lat="43.22832" lon="0.18492">
        <ele>299.4</ele>
        <time>2024-04-17T14:11:53Z</time>
      </trkpt>
      <trkpt lat="43.22832" lon="0.18492">
        <ele>299.4</ele>
        <time>2024-04-17T14:11:54Z</time>
      </trkpt>
      <trkpt lat="43.22832" lon="0.18492">
        <ele>299.4</ele>
        <time>2024-04-17T14:11:55Z</time>
      </trkpt>
      <trkpt lat="43.22832" lon="0.18492">
        <ele>299.4</ele>
        <time>2024-04-17T14:11:56Z</time>
      </trkpt>
      <trkpt lat="43.22832" lon="0.18492">
        <ele>299.4</ele>
        <time>2024-04-17T14:11:57Z</time>
      </trkpt>
      <trkpt lat="43.22832" lon="0.18492">
        <ele>299.6</ele>
        <time>2024-04-17T14:11:58Z</time>
      </trkpt>
      <trkpt lat="43.22832" lon="0.18492">
        <ele>299.6</ele>
        <time>2024-04-17T14:11:59Z</time>
      </trkpt>
      <trkpt lat="43.22832" lon="0.18492">
        <ele>299.6</ele>
        <time>2024-04-17T14:12:00Z</time>
      </trkpt>
      <trkpt lat="43.22832" lon="0.18492">
        <ele>299.6</ele>
        <time>2024-04-17T14:12:01Z</time>
      </trkpt>
      <trkpt lat="43.22832" lon="0.18492">
        <ele>299.6</ele>
        <time>2024-04-17T14:12:02Z</time>
      </trkpt>
      <trkpt lat="43.22832" lon="0.18492">
        <ele>299.6</ele>
        <time>2024-04-17T14:12:03Z</time>
      </trkpt>
      <trkpt lat="43.22832" lon="0.18492">
        <ele>299.6</ele>
        <time>2024-04-17T14:12:04Z</time>
      </trkpt>
      <trkpt lat="43.22832" lon="0.18492">
        <ele>299.6</ele>
        <time>2024-04-17T14:12:05Z</time>
      </trkpt>
      <trkpt lat="43.22832" lon="0.18492">
        <ele>299.6</ele>
        <time>2024-04-17T14:12:06Z</time>
      </trkpt>
      <trkpt lat="43.22832" lon="0.18492">
        <ele>299.6</ele>
        <time>2024-04-17T14:12:07Z</time>
      </trkpt>
      <trkpt lat="43.22832" lon="0.18492">
        <ele>299.6</ele>
        <time>2024-04-17T14:12:08Z</time>
      </trkpt>
      <trkpt lat="43.22832" lon="0.18492">
        <ele>299.6</ele>
        <time>2024-04-17T14:12:09Z</time>
      </trkpt>
      <trkpt lat="43.22832" lon="0.18492">
        <ele>299.6</ele>
        <time>2024-04-17T14:12:10Z</time>
      </trkpt>
      <trkpt lat="43.22832" lon="0.18492">
        <ele>299.6</ele>
        <time>2024-04-17T14:12:11Z</time>
      </trkpt>
      <trkpt lat="43.22832" lon="0.18492">
        <ele>299.6</ele>
        <time>2024-04-17T14:12:12Z</time>
      </trkpt>
      <trkpt lat="43.22832" lon="0.18492">
        <ele>299.6</ele>
        <time>2024-04-17T14:12:13Z</time>
      </trkpt>
      <trkpt lat="43.22832" lon="0.18492">
        <ele>299.4</ele>
        <time>2024-04-17T14:12:14Z</time>
      </trkpt>
      <trkpt lat="43.22832" lon="0.18492">
        <ele>299.4</ele>
        <time>2024-04-17T14:12:15Z</time>
      </trkpt>
      <trkpt lat="43.22832" lon="0.18492">
        <ele>299.4</ele>
        <time>2024-04-17T14:12:16Z</time>
      </trkpt>
      <trkpt lat="43.22832" lon="0.18492">
        <ele>299.4</ele>
        <time>2024-04-17T14:12:17Z</time>
      </trkpt>
      <trkpt lat="43.22832" lon="0.18492">
        <ele>299.4</ele>
        <time>2024-04-17T14:12:18Z</time>
      </trkpt>
      <trkpt lat="43.22832" lon="0.18492">
        <ele>299.4</ele>
        <time>2024-04-17T14:12:19Z</time>
      </trkpt>
      <trkpt lat="43.22832" lon="0.18492">
        <ele>299.4</ele>
        <time>2024-04-17T14:12:20Z</time>
      </trkpt>
      <trkpt lat="43.22832" lon="0.18492">
        <ele>299.4</ele>
        <time>2024-04-17T14:12:21Z</time>
      </trkpt>
      <trkpt lat="43.22832" lon="0.18492">
        <ele>299.4</ele>
        <time>2024-04-17T14:12:22Z</time>
      </trkpt>
      <trkpt lat="43.22832" lon="0.18492">
        <ele>299.4</ele>
        <time>2024-04-17T14:12:23Z</time>
      </trkpt>
      <trkpt lat="43.22832" lon="0.18492">
        <ele>299.4</ele>
        <time>2024-04-17T14:12:24Z</time>
      </trkpt>
      <trkpt lat="43.22832" lon="0.18492">
        <ele>299.4</ele>
        <time>2024-04-17T14:12:25Z</time>
      </trkpt>
      <trkpt lat="43.22832" lon="0.18492">
        <ele>299.4</ele>
        <time>2024-04-17T14:12:26Z</time>
      </trkpt>
      <trkpt lat="43.22832" lon="0.18492">
        <ele>299.4</ele>
        <time>2024-04-17T14:12:27Z</time>
      </trkpt>
      <trkpt lat="43.22832" lon="0.18492">
        <ele>299.4</ele>
        <time>2024-04-17T14:12:28Z</time>
      </trkpt>
      <trkpt lat="43.22832" lon="0.18492">
        <ele>299.4</ele>
        <time>2024-04-17T14:12:29Z</time>
      </trkpt>
      <trkpt lat="43.22832" lon="0.18492">
        <ele>299.4</ele>
        <time>2024-04-17T14:12:30Z</time>
      </trkpt>
      <trkpt lat="43.22832" lon="0.18492">
        <ele>299.4</ele>
        <time>2024-04-17T14:12:31Z</time>
      </trkpt>
      <trkpt lat="43.22832" lon="0.18492">
        <ele>299.4</ele>
        <time>2024-04-17T14:12:32Z</time>
      </trkpt>
      <trkpt lat="43.22832" lon="0.18492">
        <ele>299.4</ele>
        <time>2024-04-17T14:12:33Z</time>
      </trkpt>
      <trkpt lat="43.22832" lon="0.18492">
        <ele>299.4</ele>
        <time>2024-04-17T14:12:34Z</time>
      </trkpt>
      <trkpt lat="43.22832" lon="0.18492">
        <ele>299.4</ele>
        <time>2024-04-17T14:12:35Z</time>
      </trkpt>
      <trkpt lat="43.22832" lon="0.18492">
        <ele>299.4</ele>
        <time>2024-04-17T14:12:36Z</time>
      </trkpt>
      <trkpt lat="43.22832" lon="0.18492">
        <ele>299.4</ele>
        <time>2024-04-17T14:12:37Z</time>
      </trkpt>
      <trkpt lat="43.22832" lon="0.18492">
        <ele>299.4</ele>
        <time>2024-04-17T14:12:38Z</time>
      </trkpt>
      <trkpt lat="43.22832" lon="0.18492">
        <ele>299.4</ele>
        <time>2024-04-17T14:12:39Z</time>
      </trkpt>
      <trkpt lat="43.22832" lon="0.18492">
        <ele>299.4</ele>
        <time>2024-04-17T14:12:40Z</time>
      </trkpt>
      <trkpt lat="43.22832" lon="0.18492">
        <ele>299.4</ele>
        <time>2024-04-17T14:12:41Z</time>
      </trkpt>
      <trkpt lat="43.22832" lon="0.18492">
        <ele>299.4</ele>
        <time>2024-04-17T14:12:42Z</time>
      </trkpt>
      <trkpt lat="43.22832" lon="0.18492">
        <ele>299.4</ele>
        <time>2024-04-17T14:12:43Z</time>
      </trkpt>
      <trkpt lat="43.22832" lon="0.18492">
        <ele>299.4</ele>
        <time>2024-04-17T14:12:44Z</time>
      </trkpt>
      <trkpt lat="43.22832" lon="0.18492">
        <ele>299.4</ele>
        <time>2024-04-17T14:12:45Z</time>
      </trkpt>
      <trkpt lat="43.22832" lon="0.18492">
        <ele>299.4</ele>
        <time>2024-04-17T14:12:46Z</time>
      </trkpt>
      <trkpt lat="43.22832" lon="0.18492">
        <ele>299.4</ele>
        <time>2024-04-17T14:12:47Z</time>
      </trkpt>
      <trkpt lat="43.22832" lon="0.18492">
        <ele>299.4</ele>
        <time>2024-04-17T14:12:48Z</time>
      </trkpt>
      <trkpt lat="43.22832" lon="0.18492">
        <ele>299.4</ele>
        <time>2024-04-17T14:12:49Z</time>
      </trkpt>
      <trkpt lat="43.22832" lon="0.18492">
        <ele>299.4</ele>
        <time>2024-04-17T14:12:50Z</time>
      </trkpt>
      <trkpt lat="43.22832" lon="0.18492">
        <ele>299.4</ele>
        <time>2024-04-17T14:12:51Z</time>
      </trkpt>
      <trkpt lat="43.22832" lon="0.18492">
        <ele>299.4</ele>
        <time>2024-04-17T14:12:52Z</time>
      </trkpt>
      <trkpt lat="43.22832" lon="0.18492">
        <ele>299.4</ele>
        <time>2024-04-17T14:12:53Z</time>
      </trkpt>
      <trkpt lat="43.22832" lon="0.18492">
        <ele>299.4</ele>
        <time>2024-04-17T14:12:54Z</time>
      </trkpt>
      <trkpt lat="43.22832" lon="0.18492">
        <ele>299.4</ele>
        <time>2024-04-17T14:12:55Z</time>
      </trkpt>
      <trkpt lat="43.22832" lon="0.18492">
        <ele>299.4</ele>
        <time>2024-04-17T14:12:56Z</time>
      </trkpt>
      <trkpt lat="43.22832" lon="0.18492">
        <ele>299.4</ele>
        <time>2024-04-17T14:12:57Z</time>
      </trkpt>
      <trkpt lat="43.22832" lon="0.18492">
        <ele>299.4</ele>
        <time>2024-04-17T14:12:58Z</time>
      </trkpt>
      <trkpt lat="43.22832" lon="0.18492">
        <ele>299.4</ele>
        <time>2024-04-17T14:12:59Z</time>
      </trkpt>
      <trkpt lat="43.22832" lon="0.18492">
        <ele>299.4</ele>
        <time>2024-04-17T14:13:00Z</time>
      </trkpt>
      <trkpt lat="43.22832" lon="0.18492">
        <ele>299.4</ele>
        <time>2024-04-17T14:13:01Z</time>
      </trkpt>
      <trkpt lat="43.22832" lon="0.18492">
        <ele>299.4</ele>
        <time>2024-04-17T14:13:02Z</time>
      </trkpt>
      <trkpt lat="43.22832" lon="0.18492">
        <ele>299.4</ele>
        <time>2024-04-17T14:13:03Z</time>
      </trkpt>
      <trkpt lat="43.22832" lon="0.18492">
        <ele>299.4</ele>
        <time>2024-04-17T14:13:04Z</time>
      </trkpt>
      <trkpt lat="43.22832" lon="0.18492">
        <ele>299.4</ele>
        <time>2024-04-17T14:13:05Z</time>
      </trkpt>
      <trkpt lat="43.22832" lon="0.18492">
        <ele>299.4</ele>
        <time>2024-04-17T14:13:06Z</time>
      </trkpt>
      <trkpt lat="43.22832" lon="0.18492">
        <ele>299.4</ele>
        <time>2024-04-17T14:13:07Z</time>
      </trkpt>
      <trkpt lat="43.22832" lon="0.18492">
        <ele>299.4</ele>
        <time>2024-04-17T14:13:08Z</time>
      </trkpt>
      <trkpt lat="43.22832" lon="0.18492">
        <ele>299.4</ele>
        <time>2024-04-17T14:13:09Z</time>
      </trkpt>
      <trkpt lat="43.22832" lon="0.18492">
        <ele>299.4</ele>
        <time>2024-04-17T14:13:10Z</time>
      </trkpt>
      <trkpt lat="43.22832" lon="0.18492">
        <ele>299.4</ele>
        <time>2024-04-17T14:13:11Z</time>
      </trkpt>
      <trkpt lat="43.22832" lon="0.18492">
        <ele>299.4</ele>
        <time>2024-04-17T14:13:12Z</time>
      </trkpt>
      <trkpt lat="43.22832" lon="0.18492">
        <ele>299.4</ele>
        <time>2024-04-17T14:13:13Z</time>
      </trkpt>
      <trkpt lat="43.22832" lon="0.18492">
        <ele>299.4</ele>
        <time>2024-04-17T14:13:14Z</time>
      </trkpt>
      <trkpt lat="43.22832" lon="0.18492">
        <ele>299.4</ele>
        <time>2024-04-17T14:13:15Z</time>
      </trkpt>
      <trkpt lat="43.22832" lon="0.18492">
        <ele>299.6</ele>
        <time>2024-04-17T14:13:16Z</time>
      </trkpt>
      <trkpt lat="43.22832" lon="0.18492">
        <ele>299.6</ele>
        <time>2024-04-17T14:13:17Z</time>
      </trkpt>
      <trkpt lat="43.22832" lon="0.18492">
        <ele>299.6</ele>
        <time>2024-04-17T14:13:18Z</time>
      </trkpt>
      <trkpt lat="43.22832" lon="0.18492">
        <ele>299.6</ele>
        <time>2024-04-17T14:13:19Z</time>
      </trkpt>
      <trkpt lat="43.22832" lon="0.18492">
        <ele>299.2</ele>
        <time>2024-04-17T14:13:20Z</time>
      </trkpt>
      <trkpt lat="43.22832" lon="0.18492">
        <ele>299.4</ele>
        <time>2024-04-17T14:13:21Z</time>
      </trkpt>
      <trkpt lat="43.22832" lon="0.18492">
        <ele>299.4</ele>
        <time>2024-04-17T14:13:22Z</time>
      </trkpt>
      <trkpt lat="43.22832" lon="0.18492">
        <ele>299.4</ele>
        <time>2024-04-17T14:13:23Z</time>
      </trkpt>
      <trkpt lat="43.22832" lon="0.18492">
        <ele>299.2</ele>
        <time>2024-04-17T14:13:24Z</time>
      </trkpt>
      <trkpt lat="43.22832" lon="0.18492">
        <ele>299.2</ele>
        <time>2024-04-17T14:13:25Z</time>
      </trkpt>
      <trkpt lat="43.22832" lon="0.18492">
        <ele>299.2</ele>
        <time>2024-04-17T14:13:26Z</time>
      </trkpt>
      <trkpt lat="43.22832" lon="0.18492">
        <ele>299.4</ele>
        <time>2024-04-17T14:13:27Z</time>
      </trkpt>
      <trkpt lat="43.22832" lon="0.18492">
        <ele>299.4</ele>
        <time>2024-04-17T14:13:28Z</time>
      </trkpt>
      <trkpt lat="43.22832" lon="0.18492">
        <ele>299.4</ele>
        <time>2024-04-17T14:13:29Z</time>
      </trkpt>
      <trkpt lat="43.22832" lon="0.18492">
        <ele>299.4</ele>
        <time>2024-04-17T14:13:30Z</time>
      </trkpt>
      <trkpt lat="43.22832" lon="0.18492">
        <ele>299.4</ele>
        <time>2024-04-17T14:13:31Z</time>
      </trkpt>
      <trkpt lat="43.22832" lon="0.18492">
        <ele>299.4</ele>
        <time>2024-04-17T14:13:32Z</time>
      </trkpt>
      <trkpt lat="43.22832" lon="0.18492">
        <ele>299.4</ele>
        <time>2024-04-17T14:13:33Z</time>
      </trkpt>
      <trkpt lat="43.22832" lon="0.18492">
        <ele>299.4</ele>
        <time>2024-04-17T14:13:34Z</time>
      </trkpt>
      <trkpt lat="43.22832" lon="0.18492">
        <ele>299.4</ele>
        <time>2024-04-17T14:13:35Z</time>
      </trkpt>
      <trkpt lat="43.22832" lon="0.18492">
        <ele>299.4</ele>
        <time>2024-04-17T14:13:36Z</time>
      </trkpt>
      <trkpt lat="43.22832" lon="0.18492">
        <ele>299.4</ele>
        <time>2024-04-17T14:13:37Z</time>
      </trkpt>
      <trkpt lat="43.22832" lon="0.18492">
        <ele>299.4</ele>
        <time>2024-04-17T14:13:38Z</time>
      </trkpt>
      <trkpt lat="43.22832" lon="0.18492">
        <ele>299.4</ele>
        <time>2024-04-17T14:13:39Z</time>
      </trkpt>
      <trkpt lat="43.22832" lon="0.18492">
        <ele>299.4</ele>
        <time>2024-04-17T14:13:40Z</time>
      </trkpt>
      <trkpt lat="43.22832" lon="0.18492">
        <ele>299.4</ele>
        <time>2024-04-17T14:13:41Z</time>
      </trkpt>
      <trkpt lat="43.22832" lon="0.18492">
        <ele>299.4</ele>
        <time>2024-04-17T14:13:42Z</time>
      </trkpt>
      <trkpt lat="43.22832" lon="0.18492">
        <ele>299.4</ele>
        <time>2024-04-17T14:13:43Z</time>
      </trkpt>
      <trkpt lat="43.22832" lon="0.18492">
        <ele>299.4</ele>
        <time>2024-04-17T14:13:44Z</time>
      </trkpt>
      <trkpt lat="43.22832" lon="0.18492">
        <ele>299.4</ele>
        <time>2024-04-17T14:13:45Z</time>
      </trkpt>
      <trkpt lat="43.22832" lon="0.18492">
        <ele>299.4</ele>
        <time>2024-04-17T14:13:46Z</time>
      </trkpt>
      <trkpt lat="43.22832" lon="0.18492">
        <ele>299.4</ele>
        <time>2024-04-17T14:13:47Z</time>
      </trkpt>
      <trkpt lat="43.22832" lon="0.18492">
        <ele>299.4</ele>
        <time>2024-04-17T14:13:48Z</time>
      </trkpt>
      <trkpt lat="43.22832" lon="0.18492">
        <ele>299.4</ele>
        <time>2024-04-17T14:13:49Z</time>
      </trkpt>
      <trkpt lat="43.22832" lon="0.18492">
        <ele>299.4</ele>
        <time>2024-04-17T14:13:50Z</time>
      </trkpt>
      <trkpt lat="43.22832" lon="0.18492">
        <ele>299.4</ele>
        <time>2024-04-17T14:13:51Z</time>
      </trkpt>
      <trkpt lat="43.22832" lon="0.18492">
        <ele>299.4</ele>
        <time>2024-04-17T14:13:52Z</time>
      </trkpt>
      <trkpt lat="43.22832" lon="0.18492">
        <ele>299.4</ele>
        <time>2024-04-17T14:13:53Z</time>
      </trkpt>
      <trkpt lat="43.22832" lon="0.18492">
        <ele>299.4</ele>
        <time>2024-04-17T14:13:54Z</time>
      </trkpt>
      <trkpt lat="43.22832" lon="0.18492">
        <ele>299.4</ele>
        <time>2024-04-17T14:13:55Z</time>
      </trkpt>
      <trkpt lat="43.22832" lon="0.18492">
        <ele>299.4</ele>
        <time>2024-04-17T14:13:56Z</time>
      </trkpt>
      <trkpt lat="43.22832" lon="0.18492">
        <ele>299.4</ele>
        <time>2024-04-17T14:13:57Z</time>
      </trkpt>
      <trkpt lat="43.22832" lon="0.18492">
        <ele>299.4</ele>
        <time>2024-04-17T14:13:58Z</time>
      </trkpt>
      <trkpt lat="43.22832" lon="0.18492">
        <ele>299.6</ele>
        <time>2024-04-17T14:13:59Z</time>
      </trkpt>
      <trkpt lat="43.22832" lon="0.18492">
        <ele>299.6</ele>
        <time>2024-04-17T14:14:00Z</time>
      </trkpt>
      <trkpt lat="43.22832" lon="0.18492">
        <ele>299.6</ele>
        <time>2024-04-17T14:14:01Z</time>
      </trkpt>
      <trkpt lat="43.22832" lon="0.18492">
        <ele>299.6</ele>
        <time>2024-04-17T14:14:02Z</time>
      </trkpt>
      <trkpt lat="43.22832" lon="0.18492">
        <ele>299.6</ele>
        <time>2024-04-17T14:14:03Z</time>
      </trkpt>
      <trkpt lat="43.22832" lon="0.18492">
        <ele>299.6</ele>
        <time>2024-04-17T14:14:04Z</time>
      </trkpt>
      <trkpt lat="43.22832" lon="0.18492">
        <ele>299.6</ele>
        <time>2024-04-17T14:14:05Z</time>
      </trkpt>
      <trkpt lat="43.22832" lon="0.18492">
        <ele>299.6</ele>
        <time>2024-04-17T14:14:06Z</time>
      </trkpt>
      <trkpt lat="43.22832" lon="0.18492">
        <ele>299.6</ele>
        <time>2024-04-17T14:14:07Z</time>
      </trkpt>
      <trkpt lat="43.22832" lon="0.18492">
        <ele>299.8</ele>
        <time>2024-04-17T14:14:08Z</time>
      </trkpt>
      <trkpt lat="43.22832" lon="0.18492">
        <ele>299.8</ele>
        <time>2024-04-17T14:14:09Z</time>
      </trkpt>
      <trkpt lat="43.22832" lon="0.18492">
        <ele>299.8</ele>
        <time>2024-04-17T14:14:10Z</time>
      </trkpt>
      <trkpt lat="43.22832" lon="0.18492">
        <ele>299.8</ele>
        <time>2024-04-17T14:14:11Z</time>
      </trkpt>
      <trkpt lat="43.22832" lon="0.18492">
        <ele>299.8</ele>
        <time>2024-04-17T14:14:12Z</time>
      </trkpt>
      <trkpt lat="43.22832" lon="0.18492">
        <ele>299.8</ele>
        <time>2024-04-17T14:14:13Z</time>
      </trkpt>
      <trkpt lat="43.22832" lon="0.18492">
        <ele>299.8</ele>
        <time>2024-04-17T14:14:14Z</time>
      </trkpt>
      <trkpt lat="43.22832" lon="0.18492">
        <ele>299.6</ele>
        <time>2024-04-17T14:14:15Z</time>
      </trkpt>
      <trkpt lat="43.22832" lon="0.18492">
        <ele>299.6</ele>
        <time>2024-04-17T14:14:16Z</time>
      </trkpt>
      <trkpt lat="43.22832" lon="0.18492">
        <ele>299.6</ele>
        <time>2024-04-17T14:14:17Z</time>
      </trkpt>
      <trkpt lat="43.22832" lon="0.18492">
        <ele>299.6</ele>
        <time>2024-04-17T14:14:18Z</time>
      </trkpt>
      <trkpt lat="43.22832" lon="0.18492">
        <ele>299.4</ele>
        <time>2024-04-17T14:14:19Z</time>
      </trkpt>
      <trkpt lat="43.22832" lon="0.18492">
        <ele>299.4</ele>
        <time>2024-04-17T14:14:20Z</time>
      </trkpt>
      <trkpt lat="43.22832" lon="0.18492">
        <ele>299.4</ele>
        <time>2024-04-17T14:14:21Z</time>
      </trkpt>
      <trkpt lat="43.22832" lon="0.18492">
        <ele>299.4</ele>
        <time>2024-04-17T14:14:22Z</time>
      </trkpt>
      <trkpt lat="43.22832" lon="0.18492">
        <ele>299.4</ele>
        <time>2024-04-17T14:14:23Z</time>
      </trkpt>
      <trkpt lat="43.22832" lon="0.18492">
        <ele>299.4</ele>
        <time>2024-04-17T14:14:24Z</time>
      </trkpt>
      <trkpt lat="43.22832" lon="0.18492">
        <ele>299.4</ele>
        <time>2024-04-17T14:14:25Z</time>
      </trkpt>
      <trkpt lat="43.22832" lon="0.18492">
        <ele>299.4</ele>
        <time>2024-04-17T14:14:26Z</time>
      </trkpt>
      <trkpt lat="43.22832" lon="0.18492">
        <ele>299.4</ele>
        <time>2024-04-17T14:14:27Z</time>
      </trkpt>
      <trkpt lat="43.22832" lon="0.18492">
        <ele>299.4</ele>
        <time>2024-04-17T14:14:28Z</time>
      </trkpt>
      <trkpt lat="43.22832" lon="0.18492">
        <ele>299.4</ele>
        <time>2024-04-17T14:14:29Z</time>
      </trkpt>
      <trkpt lat="43.22832" lon="0.18492">
        <ele>299.4</ele>
        <time>2024-04-17T14:14:30Z</time>
      </trkpt>
      <trkpt lat="43.22832" lon="0.18492">
        <ele>299.4</ele>
        <time>2024-04-17T14:14:31Z</time>
      </trkpt>
      <trkpt lat="43.22832" lon="0.18492">
        <ele>299.4</ele>
        <time>2024-04-17T14:14:32Z</time>
      </trkpt>
      <trkpt lat="43.22832" lon="0.18492">
        <ele>299.4</ele>
        <time>2024-04-17T14:14:33Z</time>
      </trkpt>
      <trkpt lat="43.22832" lon="0.18492">
        <ele>299.4</ele>
        <time>2024-04-17T14:14:34Z</time>
      </trkpt>
      <trkpt lat="43.22832" lon="0.18492">
        <ele>299.4</ele>
        <time>2024-04-17T14:14:35Z</time>
      </trkpt>
      <trkpt lat="43.22832" lon="0.18492">
        <ele>299.4</ele>
        <time>2024-04-17T14:14:36Z</time>
      </trkpt>
      <trkpt lat="43.22832" lon="0.18492">
        <ele>299.4</ele>
        <time>2024-04-17T14:14:37Z</time>
      </trkpt>
      <trkpt lat="43.22832" lon="0.18492">
        <ele>299.4</ele>
        <time>2024-04-17T14:14:38Z</time>
      </trkpt>
      <trkpt lat="43.22832" lon="0.18492">
        <ele>299.4</ele>
        <time>2024-04-17T14:14:39Z</time>
      </trkpt>
      <trkpt lat="43.22832" lon="0.18492">
        <ele>299.4</ele>
        <time>2024-04-17T14:14:40Z</time>
      </trkpt>
      <trkpt lat="43.22832" lon="0.18492">
        <ele>299.4</ele>
        <time>2024-04-17T14:14:41Z</time>
      </trkpt>
      <trkpt lat="43.22832" lon="0.18492">
        <ele>299.4</ele>
        <time>2024-04-17T14:14:42Z</time>
      </trkpt>
      <trkpt lat="43.22832" lon="0.18492">
        <ele>299.4</ele>
        <time>2024-04-17T14:14:43Z</time>
      </trkpt>
      <trkpt lat="43.22832" lon="0.18492">
        <ele>299.4</ele>
        <time>2024-04-17T14:14:44Z</time>
      </trkpt>
      <trkpt lat="43.22832" lon="0.18492">
        <ele>299.4</ele>
        <time>2024-04-17T14:14:45Z</time>
      </trkpt>
      <trkpt lat="43.22832" lon="0.18492">
        <ele>299.4</ele>
        <time>2024-04-17T14:14:46Z</time>
      </trkpt>
      <trkpt lat="43.22832" lon="0.18492">
        <ele>299.4</ele>
        <time>2024-04-17T14:14:47Z</time>
      </trkpt>
      <trkpt lat="43.22832" lon="0.18492">
        <ele>299.4</ele>
        <time>2024-04-17T14:14:48Z</time>
      </trkpt>
      <trkpt lat="43.22832" lon="0.18492">
        <ele>299.4</ele>
        <time>2024-04-17T14:14:49Z</time>
      </trkpt>
      <trkpt lat="43.22832" lon="0.18492">
        <ele>299.4</ele>
        <time>2024-04-17T14:14:50Z</time>
      </trkpt>
      <trkpt lat="43.22832" lon="0.18492">
        <ele>299.4</ele>
        <time>2024-04-17T14:14:51Z</time>
      </trkpt>
      <trkpt lat="43.22832" lon="0.18492">
        <ele>299.4</ele>
        <time>2024-04-17T14:14:52Z</time>
      </trkpt>
      <trkpt lat="43.22832" lon="0.18492">
        <ele>299.4</ele>
        <time>2024-04-17T14:14:53Z</time>
      </trkpt>
      <trkpt lat="43.22832" lon="0.18492">
        <ele>299.4</ele>
        <time>2024-04-17T14:14:54Z</time>
      </trkpt>
      <trkpt lat="43.22832" lon="0.18492">
        <ele>299.4</ele>
        <time>2024-04-17T14:14:55Z</time>
      </trkpt>
      <trkpt lat="43.22832" lon="0.18492">
        <ele>299.4</ele>
        <time>2024-04-17T14:14:56Z</time>
      </trkpt>
      <trkpt lat="43.22832" lon="0.18492">
        <ele>299.2</ele>
        <time>2024-04-17T14:14:57Z</time>
      </trkpt>
      <trkpt lat="43.22832" lon="0.18492">
        <ele>299.2</ele>
        <time>2024-04-17T14:14:58Z</time>
      </trkpt>
      <trkpt lat="43.22832" lon="0.18492">
        <ele>299.2</ele>
        <time>2024-04-17T14:14:59Z</time>
      </trkpt>
      <trkpt lat="43.22832" lon="0.18492">
        <ele>299.2</ele>
        <time>2024-04-17T14:15:00Z</time>
      </trkpt>
      <trkpt lat="43.22832" lon="0.18492">
        <ele>299.2</ele>
        <time>2024-04-17T14:15:01Z</time>
      </trkpt>
      <trkpt lat="43.22832" lon="0.18492">
        <ele>299.2</ele>
        <time>2024-04-17T14:15:02Z</time>
      </trkpt>
      <trkpt lat="43.22832" lon="0.18492">
        <ele>299.2</ele>
        <time>2024-04-17T14:15:03Z</time>
      </trkpt>
      <trkpt lat="43.22832" lon="0.18492">
        <ele>299.2</ele>
        <time>2024-04-17T14:15:04Z</time>
      </trkpt>
      <trkpt lat="43.22832" lon="0.18492">
        <ele>299.2</ele>
        <time>2024-04-17T14:15:05Z</time>
      </trkpt>
      <trkpt lat="43.22832" lon="0.18492">
        <ele>299.2</ele>
        <time>2024-04-17T14:15:06Z</time>
      </trkpt>
      <trkpt lat="43.22832" lon="0.18492">
        <ele>299.2</ele>
        <time>2024-04-17T14:15:07Z</time>
      </trkpt>
      <trkpt lat="43.22832" lon="0.18492">
        <ele>299.2</ele>
        <time>2024-04-17T14:15:08Z</time>
      </trkpt>
      <trkpt lat="43.22832" lon="0.18492">
        <ele>299.2</ele>
        <time>2024-04-17T14:15:09Z</time>
      </trkpt>
      <trkpt lat="43.22832" lon="0.18492">
        <ele>299.2</ele>
        <time>2024-04-17T14:15:10Z</time>
      </trkpt>
      <trkpt lat="43.22832" lon="0.18492">
        <ele>299.2</ele>
        <time>2024-04-17T14:15:11Z</time>
      </trkpt>
      <trkpt lat="43.22832" lon="0.18492">
        <ele>299.2</ele>
        <time>2024-04-17T14:15:12Z</time>
      </trkpt>
      <trkpt lat="43.22832" lon="0.18492">
        <ele>299.2</ele>
        <time>2024-04-17T14:15:13Z</time>
      </trkpt>
      <trkpt lat="43.22832" lon="0.18492">
        <ele>299.2</ele>
        <time>2024-04-17T14:15:14Z</time>
      </trkpt>
      <trkpt lat="43.22832" lon="0.18492">
        <ele>299.2</ele>
        <time>2024-04-17T14:15:15Z</time>
      </trkpt>
      <trkpt lat="43.22832" lon="0.18492">
        <ele>299.2</ele>
        <time>2024-04-17T14:15:16Z</time>
      </trkpt>
      <trkpt lat="43.22832" lon="0.18492">
        <ele>299.2</ele>
        <time>2024-04-17T14:15:17Z</time>
      </trkpt>
      <trkpt lat="43.22832" lon="0.18492">
        <ele>299.4</ele>
        <time>2024-04-17T14:15:18Z</time>
      </trkpt>
      <trkpt lat="43.22832" lon="0.18492">
        <ele>299.4</ele>
        <time>2024-04-17T14:15:19Z</time>
      </trkpt>
      <trkpt lat="43.22832" lon="0.18492">
        <ele>299.4</ele>
        <time>2024-04-17T14:15:20Z</time>
      </trkpt>
      <trkpt lat="43.22832" lon="0.18492">
        <ele>299.4</ele>
        <time>2024-04-17T14:15:21Z</time>
      </trkpt>
      <trkpt lat="43.22832" lon="0.18492">
        <ele>299.4</ele>
        <time>2024-04-17T14:15:22Z</time>
      </trkpt>
      <trkpt lat="43.22832" lon="0.18492">
        <ele>299.4</ele>
        <time>2024-04-17T14:15:23Z</time>
      </trkpt>
      <trkpt lat="43.22832" lon="0.18492">
        <ele>299.4</ele>
        <time>2024-04-17T14:15:24Z</time>
      </trkpt>
      <trkpt lat="43.22832" lon="0.18492">
        <ele>299.4</ele>
        <time>2024-04-17T14:15:25Z</time>
      </trkpt>
      <trkpt lat="43.22832" lon="0.18492">
        <ele>299.6</ele>
        <time>2024-04-17T14:15:26Z</time>
      </trkpt>
      <trkpt lat="43.22832" lon="0.18492">
        <ele>299.8</ele>
        <time>2024-04-17T14:15:27Z</time>
      </trkpt>
      <trkpt lat="43.22832" lon="0.18492">
        <ele>299.6</ele>
        <time>2024-04-17T14:15:28Z</time>
      </trkpt>
      <trkpt lat="43.22832" lon="0.18492">
        <ele>299.8</ele>
        <time>2024-04-17T14:15:29Z</time>
      </trkpt>
      <trkpt lat="43.22832" lon="0.18492">
        <ele>299.6</ele>
        <time>2024-04-17T14:15:30Z</time>
      </trkpt>
      <trkpt lat="43.22832" lon="0.18492">
        <ele>299.8</ele>
        <time>2024-04-17T14:15:31Z</time>
      </trkpt>
      <trkpt lat="43.22832" lon="0.18492">
        <ele>299.6</ele>
        <time>2024-04-17T14:15:32Z</time>
      </trkpt>
      <trkpt lat="43.22832" lon="0.18492">
        <ele>299.8</ele>
        <time>2024-04-17T14:15:33Z</time>
      </trkpt>
      <trkpt lat="43.22832" lon="0.18492">
        <ele>299.6</ele>
        <time>2024-04-17T14:15:34Z</time>
      </trkpt>
      <trkpt lat="43.22832" lon="0.18492">
        <ele>299.8</ele>
        <time>2024-04-17T14:15:35Z</time>
      </trkpt>
      <trkpt lat="43.22832" lon="0.18492">
        <ele>300</ele>
        <time>2024-04-17T14:15:36Z</time>
      </trkpt>
      <trkpt lat="43.22832" lon="0.18492">
        <ele>300</ele>
        <time>2024-04-17T14:15:37Z</time>
      </trkpt>
      <trkpt lat="43.22832" lon="0.18492">
        <ele>300</ele>
        <time>2024-04-17T14:15:38Z</time>
      </trkpt>
      <trkpt lat="43.22832" lon="0.18492">
        <ele>300</ele>
        <time>2024-04-17T14:15:39Z</time>
      </trkpt>
      <trkpt lat="43.22832" lon="0.18492">
        <ele>300</ele>
        <time>2024-04-17T14:15:40Z</time>
      </trkpt>
      <trkpt lat="43.22832" lon="0.18492">
        <ele>299.8</ele>
        <time>2024-04-17T14:15:41Z</time>
      </trkpt>
      <trkpt lat="43.22832" lon="0.18492">
        <ele>299.8</ele>
        <time>2024-04-17T14:15:42Z</time>
      </trkpt>
      <trkpt lat="43.22832" lon="0.18492">
        <ele>299.8</ele>
        <time>2024-04-17T14:15:43Z</time>
      </trkpt>
      <trkpt lat="43.22832" lon="0.18492">
        <ele>299.8</ele>
        <time>2024-04-17T14:15:44Z</time>
      </trkpt>
      <trkpt lat="43.22832" lon="0.18492">
        <ele>299.8</ele>
        <time>2024-04-17T14:15:45Z</time>
      </trkpt>
      <trkpt lat="43.22832" lon="0.18492">
        <ele>299.8</ele>
        <time>2024-04-17T14:15:46Z</time>
      </trkpt>
      <trkpt lat="43.22832" lon="0.18492">
        <ele>299.8</ele>
        <time>2024-04-17T14:15:47Z</time>
      </trkpt>
      <trkpt lat="43.22832" lon="0.18492">
        <ele>299.8</ele>
        <time>2024-04-17T14:15:48Z</time>
      </trkpt>
      <trkpt lat="43.22832" lon="0.18492">
        <ele>299.8</ele>
        <time>2024-04-17T14:15:49Z</time>
      </trkpt>
      <trkpt lat="43.22832" lon="0.18492">
        <ele>299.8</ele>
        <time>2024-04-17T14:15:50Z</time>
      </trkpt>
      <trkpt lat="43.22832" lon="0.18492">
        <ele>299.8</ele>
        <time>2024-04-17T14:15:51Z</time>
      </trkpt>
      <trkpt lat="43.22832" lon="0.18492">
        <ele>299.8</ele>
        <time>2024-04-17T14:15:52Z</time>
      </trkpt>
      <trkpt lat="43.22832" lon="0.18492">
        <ele>299.8</ele>
        <time>2024-04-17T14:15:53Z</time>
      </trkpt>
      <trkpt lat="43.22832" lon="0.18492">
        <ele>299.8</ele>
        <time>2024-04-17T14:15:54Z</time>
      </trkpt>
      <trkpt lat="43.22832" lon="0.18492">
        <ele>299.8</ele>
        <time>2024-04-17T14:15:55Z</time>
      </trkpt>
      <trkpt lat="43.22832" lon="0.18492">
        <ele>299.8</ele>
        <time>2024-04-17T14:15:56Z</time>
      </trkpt>
      <trkpt lat="43.22832" lon="0.18492">
        <ele>299.8</ele>
        <time>2024-04-17T14:15:57Z</time>
      </trkpt>
      <trkpt lat="43.22832" lon="0.18492">
        <ele>299.8</ele>
        <time>2024-04-17T14:15:58Z</time>
      </trkpt>
      <trkpt lat="43.22832" lon="0.18492">
        <ele>299.8</ele>
        <time>2024-04-17T14:15:59Z</time>
      </trkpt>
      <trkpt lat="43.22832" lon="0.18492">
        <ele>299.8</ele>
        <time>2024-04-17T14:16:00Z</time>
      </trkpt>
      <trkpt lat="43.22832" lon="0.18492">
        <ele>299.8</ele>
        <time>2024-04-17T14:16:01Z</time>
      </trkpt>
      <trkpt lat="43.22832" lon="0.18492">
        <ele>299.8</ele>
        <time>2024-04-17T14:16:02Z</time>
      </trkpt>
      <trkpt lat="43.22832" lon="0.18492">
        <ele>299.8</ele>
        <time>2024-04-17T14:16:03Z</time>
      </trkpt>
      <trkpt lat="43.22832" lon="0.18492">
        <ele>299.8</ele>
        <time>2024-04-17T14:16:04Z</time>
      </trkpt>
      <trkpt lat="43.22832" lon="0.18492">
        <ele>299.8</ele>
        <time>2024-04-17T14:16:05Z</time>
      </trkpt>
      <trkpt lat="43.22832" lon="0.18492">
        <ele>299.8</ele>
        <time>2024-04-17T14:16:06Z</time>
      </trkpt>
      <trkpt lat="43.22832" lon="0.18492">
        <ele>299.8</ele>
        <time>2024-04-17T14:16:07Z</time>
      </trkpt>
      <trkpt lat="43.22832" lon="0.18492">
        <ele>299.8</ele>
        <time>2024-04-17T14:16:08Z</time>
      </trkpt>
      <trkpt lat="43.22832" lon="0.18492">
        <ele>299.8</ele>
        <time>2024-04-17T14:16:09Z</time>
      </trkpt>
      <trkpt lat="43.22832" lon="0.18492">
        <ele>299.8</ele>
        <time>2024-04-17T14:16:10Z</time>
      </trkpt>
      <trkpt lat="43.22832" lon="0.18492">
        <ele>299.8</ele>
        <time>2024-04-17T14:16:11Z</time>
      </trkpt>
      <trkpt lat="43.22832" lon="0.18492">
        <ele>299.8</ele>
        <time>2024-04-17T14:16:12Z</time>
      </trkpt>
      <trkpt lat="43.22832" lon="0.18492">
        <ele>299.8</ele>
        <time>2024-04-17T14:16:13Z</time>
      </trkpt>
      <trkpt lat="43.22832" lon="0.18492">
        <ele>299.8</ele>
        <time>2024-04-17T14:16:14Z</time>
      </trkpt>
      <trkpt lat="43.22832" lon="0.18492">
        <ele>299.8</ele>
        <time>2024-04-17T14:16:15Z</time>
      </trkpt>
      <trkpt lat="43.22832" lon="0.18492">
        <ele>299.8</ele>
        <time>2024-04-17T14:16:16Z</time>
      </trkpt>
      <trkpt lat="43.22832" lon="0.18492">
        <ele>299.8</ele>
        <time>2024-04-17T14:16:17Z</time>
      </trkpt>
      <trkpt lat="43.22832" lon="0.18492">
        <ele>299.8</ele>
        <time>2024-04-17T14:16:18Z</time>
      </trkpt>
      <trkpt lat="43.22832" lon="0.18492">
        <ele>299.8</ele>
        <time>2024-04-17T14:16:19Z</time>
      </trkpt>
      <trkpt lat="43.22832" lon="0.18492">
        <ele>299.8</ele>
        <time>2024-04-17T14:16:20Z</time>
      </trkpt>
      <trkpt lat="43.22832" lon="0.18492">
        <ele>299.8</ele>
        <time>2024-04-17T14:16:21Z</time>
      </trkpt>
      <trkpt lat="43.22832" lon="0.18492">
        <ele>299.8</ele>
        <time>2024-04-17T14:16:22Z</time>
      </trkpt>
      <trkpt lat="43.22832" lon="0.18492">
        <ele>299.8</ele>
        <time>2024-04-17T14:16:23Z</time>
      </trkpt>
      <trkpt lat="43.22832" lon="0.18492">
        <ele>299.8</ele>
        <time>2024-04-17T14:16:24Z</time>
      </trkpt>
      <trkpt lat="43.22832" lon="0.18492">
        <ele>299.8</ele>
        <time>2024-04-17T14:16:25Z</time>
      </trkpt>
      <trkpt lat="43.22832" lon="0.18492">
        <ele>299.6</ele>
        <time>2024-04-17T14:16:26Z</time>
      </trkpt>
      <trkpt lat="43.22832" lon="0.18492">
        <ele>299.6</ele>
        <time>2024-04-17T14:16:27Z</time>
      </trkpt>
      <trkpt lat="43.22832" lon="0.18492">
        <ele>299.6</ele>
        <time>2024-04-17T14:16:28Z</time>
      </trkpt>
      <trkpt lat="43.22832" lon="0.18492">
        <ele>299.6</ele>
        <time>2024-04-17T14:16:29Z</time>
      </trkpt>
      <trkpt lat="43.22832" lon="0.18492">
        <ele>299.6</ele>
        <time>2024-04-17T14:16:30Z</time>
      </trkpt>
      <trkpt lat="43.22832" lon="0.18492">
        <ele>299.6</ele>
        <time>2024-04-17T14:16:31Z</time>
      </trkpt>
      <trkpt lat="43.22832" lon="0.18492">
        <ele>299.6</ele>
        <time>2024-04-17T14:16:32Z</time>
      </trkpt>
      <trkpt lat="43.22832" lon="0.18492">
        <ele>299.6</ele>
        <time>2024-04-17T14:16:33Z</time>
      </trkpt>
      <trkpt lat="43.22832" lon="0.18492">
        <ele>299.6</ele>
        <time>2024-04-17T14:16:34Z</time>
      </trkpt>
      <trkpt lat="43.22832" lon="0.18492">
        <ele>299.6</ele>
        <time>2024-04-17T14:16:35Z</time>
      </trkpt>
      <trkpt lat="43.22832" lon="0.18492">
        <ele>299.6</ele>
        <time>2024-04-17T14:16:36Z</time>
      </trkpt>
      <trkpt lat="43.22832" lon="0.18492">
        <ele>299.6</ele>
        <time>2024-04-17T14:16:37Z</time>
      </trkpt>
      <trkpt lat="43.22832" lon="0.18492">
        <ele>299.6</ele>
        <time>2024-04-17T14:16:38Z</time>
      </trkpt>
      <trkpt lat="43.22832" lon="0.18492">
        <ele>299.6</ele>
        <time>2024-04-17T14:16:39Z</time>
      </trkpt>
      <trkpt lat="43.22832" lon="0.18492">
        <ele>299.6</ele>
        <time>2024-04-17T14:16:40Z</time>
      </trkpt>
      <trkpt lat="43.22832" lon="0.18492">
        <ele>299.6</ele>
        <time>2024-04-17T14:16:41Z</time>
      </trkpt>
      <trkpt lat="43.22832" lon="0.18492">
        <ele>299.6</ele>
        <time>2024-04-17T14:16:42Z</time>
      </trkpt>
      <trkpt lat="43.22832" lon="0.18492">
        <ele>299.6</ele>
        <time>2024-04-17T14:16:43Z</time>
      </trkpt>
      <trkpt lat="43.22832" lon="0.18492">
        <ele>299.6</ele>
        <time>2024-04-17T14:16:44Z</time>
      </trkpt>
      <trkpt lat="43.22832" lon="0.18492">
        <ele>299.8</ele>
        <time>2024-04-17T14:16:45Z</time>
      </trkpt>
      <trkpt lat="43.22832" lon="0.18492">
        <ele>299.8</ele>
        <time>2024-04-17T14:16:46Z</time>
      </trkpt>
      <trkpt lat="43.22832" lon="0.18492">
        <ele>299.8</ele>
        <time>2024-04-17T14:16:47Z</time>
      </trkpt>
      <trkpt lat="43.22832" lon="0.18492">
        <ele>299.8</ele>
        <time>2024-04-17T14:16:48Z</time>
      </trkpt>
      <trkpt lat="43.22832" lon="0.18492">
        <ele>299.8</ele>
        <time>2024-04-17T14:16:49Z</time>
      </trkpt>
      <trkpt lat="43.22832" lon="0.18492">
        <ele>299.8</ele>
        <time>2024-04-17T14:16:50Z</time>
      </trkpt>
      <trkpt lat="43.22832" lon="0.18492">
        <ele>299.8</ele>
        <time>2024-04-17T14:16:51Z</time>
      </trkpt>
      <trkpt lat="43.22832" lon="0.18492">
        <ele>299.8</ele>
        <time>2024-04-17T14:16:52Z</time>
      </trkpt>
      <trkpt lat="43.22832" lon="0.18492">
        <ele>299.8</ele>
        <time>2024-04-17T14:16:53Z</time>
      </trkpt>
      <trkpt lat="43.22832" lon="0.18492">
        <ele>299.8</ele>
        <time>2024-04-17T14:16:54Z</time>
      </trkpt>
      <trkpt lat="43.22832" lon="0.18492">
        <ele>299.8</ele>
        <time>2024-04-17T14:16:55Z</time>
      </trkpt>
      <trkpt lat="43.22832" lon="0.18492">
        <ele>299.8</ele>
        <time>2024-04-17T14:16:56Z</time>
      </trkpt>
      <trkpt lat="43.22832" lon="0.18492">
        <ele>299.8</ele>
        <time>2024-04-17T14:16:57Z</time>
      </trkpt>
      <trkpt lat="43.22832" lon="0.18492">
        <ele>299.6</ele>
        <time>2024-04-17T14:16:58Z</time>
      </trkpt>
      <trkpt lat="43.22832" lon="0.18492">
        <ele>299.6</ele>
        <time>2024-04-17T14:16:59Z</time>
      </trkpt>
      <trkpt lat="43.22832" lon="0.18492">
        <ele>299.6</ele>
        <time>2024-04-17T14:17:00Z</time>
      </trkpt>
      <trkpt lat="43.22832" lon="0.18492">
        <ele>299.6</ele>
        <time>2024-04-17T14:17:01Z</time>
      </trkpt>
      <trkpt lat="43.22832" lon="0.18492">
        <ele>299.8</ele>
        <time>2024-04-17T14:17:02Z</time>
      </trkpt>
      <trkpt lat="43.22832" lon="0.18492">
        <ele>299.8</ele>
        <time>2024-04-17T14:17:03Z</time>
      </trkpt>
      <trkpt lat="43.22832" lon="0.18492">
        <ele>299.8</ele>
        <time>2024-04-17T14:17:04Z</time>
      </trkpt>
      <trkpt lat="43.22832" lon="0.18492">
        <ele>300</ele>
        <time>2024-04-17T14:17:05Z</time>
      </trkpt>
      <trkpt lat="43.22832" lon="0.18492">
        <ele>300</ele>
        <time>2024-04-17T14:17:06Z</time>
      </trkpt>
      <trkpt lat="43.22832" lon="0.18492">
        <ele>300</ele>
        <time>2024-04-17T14:17:07Z</time>
      </trkpt>
      <trkpt lat="43.22832" lon="0.18492">
        <ele>300</ele>
        <time>2024-04-17T14:17:08Z</time>
      </trkpt>
      <trkpt lat="43.22832" lon="0.18492">
        <ele>300</ele>
        <time>2024-04-17T14:17:09Z</time>
      </trkpt>
      <trkpt lat="43.22832" lon="0.18492">
        <ele>300</ele>
        <time>2024-04-17T14:17:10Z</time>
      </trkpt>
      <trkpt lat="43.22832" lon="0.18492">
        <ele>300</ele>
        <time>2024-04-17T14:17:11Z</time>
      </trkpt>
      <trkpt lat="43.22832" lon="0.18492">
        <ele>300</ele>
        <time>2024-04-17T14:17:12Z</time>
      </trkpt>
      <trkpt lat="43.22832" lon="0.18492">
        <ele>300</ele>
        <time>2024-04-17T14:17:13Z</time>
      </trkpt>
      <trkpt lat="43.22832" lon="0.18492">
        <ele>300.2</ele>
        <time>2024-04-17T14:17:14Z</time>
      </trkpt>
      <trkpt lat="43.22832" lon="0.18492">
        <ele>300.2</ele>
        <time>2024-04-17T14:17:15Z</time>
      </trkpt>
      <trkpt lat="43.22832" lon="0.18492">
        <ele>300.2</ele>
        <time>2024-04-17T14:17:16Z</time>
      </trkpt>
      <trkpt lat="43.22832" lon="0.18492">
        <ele>300.2</ele>
        <time>2024-04-17T14:17:17Z</time>
      </trkpt>
      <trkpt lat="43.22832" lon="0.18492">
        <ele>300.2</ele>
        <time>2024-04-17T14:17:18Z</time>
      </trkpt>
      <trkpt lat="43.22832" lon="0.18492">
        <ele>300.2</ele>
        <time>2024-04-17T14:17:19Z</time>
      </trkpt>
      <trkpt lat="43.22832" lon="0.18492">
        <ele>300.2</ele>
        <time>2024-04-17T14:17:20Z</time>
      </trkpt>
      <trkpt lat="43.22832" lon="0.18492">
        <ele>300.2</ele>
        <time>2024-04-17T14:17:21Z</time>
      </trkpt>
      <trkpt lat="43.22832" lon="0.18492">
        <ele>300.2</ele>
        <time>2024-04-17T14:17:22Z</time>
      </trkpt>
      <trkpt lat="43.22832" lon="0.18492">
        <ele>300.2</ele>
        <time>2024-04-17T14:17:23Z</time>
      </trkpt>
      <trkpt lat="43.22832" lon="0.18492">
        <ele>300.2</ele>
        <time>2024-04-17T14:17:24Z</time>
      </trkpt>
      <trkpt lat="43.22832" lon="0.18492">
        <ele>300.2</ele>
        <time>2024-04-17T14:17:25Z</time>
      </trkpt>
      <trkpt lat="43.22832" lon="0.18492">
        <ele>300.2</ele>
        <time>2024-04-17T14:17:26Z</time>
      </trkpt>
      <trkpt lat="43.22832" lon="0.18492">
        <ele>300.2</ele>
        <time>2024-04-17T14:17:27Z</time>
      </trkpt>
      <trkpt lat="43.22832" lon="0.18492">
        <ele>300.2</ele>
        <time>2024-04-17T14:17:28Z</time>
      </trkpt>
      <trkpt lat="43.22832" lon="0.18492">
        <ele>300.2</ele>
        <time>2024-04-17T14:17:29Z</time>
      </trkpt>
      <trkpt lat="43.22832" lon="0.18492">
        <ele>300.2</ele>
        <time>2024-04-17T14:17:30Z</time>
      </trkpt>
      <trkpt lat="43.22832" lon="0.18492">
        <ele>300.2</ele>
        <time>2024-04-17T14:17:31Z</time>
      </trkpt>
      <trkpt lat="43.22832" lon="0.18492">
        <ele>300.2</ele>
        <time>2024-04-17T14:17:32Z</time>
      </trkpt>
      <trkpt lat="43.22832" lon="0.18492">
        <ele>300.2</ele>
        <time>2024-04-17T14:17:33Z</time>
      </trkpt>
      <trkpt lat="43.22832" lon="0.18492">
        <ele>300.2</ele>
        <time>2024-04-17T14:17:34Z</time>
      </trkpt>
      <trkpt lat="43.22832" lon="0.18492">
        <ele>300.2</ele>
        <time>2024-04-17T14:17:35Z</time>
      </trkpt>
      <trkpt lat="43.22832" lon="0.18492">
        <ele>300.2</ele>
        <time>2024-04-17T14:17:36Z</time>
      </trkpt>
      <trkpt lat="43.22832" lon="0.18492">
        <ele>300</ele>
        <time>2024-04-17T14:17:37Z</time>
      </trkpt>
      <trkpt lat="43.22832" lon="0.18492">
        <ele>300</ele>
        <time>2024-04-17T14:17:38Z</time>
      </trkpt>
      <trkpt lat="43.22832" lon="0.18492">
        <ele>300</ele>
        <time>2024-04-17T14:17:39Z</time>
      </trkpt>
      <trkpt lat="43.22832" lon="0.18492">
        <ele>300</ele>
        <time>2024-04-17T14:17:40Z</time>
      </trkpt>
      <trkpt lat="43.22832" lon="0.18492">
        <ele>300.2</ele>
        <time>2024-04-17T14:17:41Z</time>
      </trkpt>
      <trkpt lat="43.22832" lon="0.18492">
        <ele>300.2</ele>
        <time>2024-04-17T14:17:42Z</time>
      </trkpt>
      <trkpt lat="43.22832" lon="0.18492">
        <ele>300.2</ele>
        <time>2024-04-17T14:17:43Z</time>
      </trkpt>
      <trkpt lat="43.22832" lon="0.18492">
        <ele>300.2</ele>
        <time>2024-04-17T14:17:44Z</time>
      </trkpt>
      <trkpt lat="43.22832" lon="0.18492">
        <ele>300.2</ele>
        <time>2024-04-17T14:17:45Z</time>
      </trkpt>
      <trkpt lat="43.22832" lon="0.18492">
        <ele>300.2</ele>
        <time>2024-04-17T14:17:46Z</time>
      </trkpt>
      <trkpt lat="43.22832" lon="0.18492">
        <ele>300.2</ele>
        <time>2024-04-17T14:17:47Z</time>
      </trkpt>
      <trkpt lat="43.22832" lon="0.18492">
        <ele>300.2</ele>
        <time>2024-04-17T14:17:48Z</time>
      </trkpt>
      <trkpt lat="43.22832" lon="0.18492">
        <ele>300.2</ele>
        <time>2024-04-17T14:17:49Z</time>
      </trkpt>
      <trkpt lat="43.22832" lon="0.18492">
        <ele>300.2</ele>
        <time>2024-04-17T14:17:50Z</time>
      </trkpt>
      <trkpt lat="43.22832" lon="0.18492">
        <ele>300.2</ele>
        <time>2024-04-17T14:17:51Z</time>
      </trkpt>
      <trkpt lat="43.22832" lon="0.18492">
        <ele>300.2</ele>
        <time>2024-04-17T14:17:52Z</time>
      </trkpt>
      <trkpt lat="43.22832" lon="0.18492">
        <ele>300.2</ele>
        <time>2024-04-17T14:17:53Z</time>
      </trkpt>
      <trkpt lat="43.22832" lon="0.18492">
        <ele>300.2</ele>
        <time>2024-04-17T14:17:54Z</time>
      </trkpt>
      <trkpt lat="43.22832" lon="0.18492">
        <ele>300.2</ele>
        <time>2024-04-17T14:17:55Z</time>
      </trkpt>
      <trkpt lat="43.22832" lon="0.18492">
        <ele>300.2</ele>
        <time>2024-04-17T14:17:56Z</time>
      </trkpt>
      <trkpt lat="43.22832" lon="0.18492">
        <ele>300.2</ele>
        <time>2024-04-17T14:17:57Z</time>
      </trkpt>
      <trkpt lat="43.22832" lon="0.18492">
        <ele>300.2</ele>
        <time>2024-04-17T14:17:58Z</time>
      </trkpt>
      <trkpt lat="43.22832" lon="0.18492">
        <ele>300.2</ele>
        <time>2024-04-17T14:17:59Z</time>
      </trkpt>
      <trkpt lat="43.22832" lon="0.18492">
        <ele>300.2</ele>
        <time>2024-04-17T14:18:00Z</time>
      </trkpt>
      <trkpt lat="43.22832" lon="0.18492">
        <ele>300.2</ele>
        <time>2024-04-17T14:18:01Z</time>
      </trkpt>
      <trkpt lat="43.22832" lon="0.18492">
        <ele>300.2</ele>
        <time>2024-04-17T14:18:02Z</time>
      </trkpt>
      <trkpt lat="43.22832" lon="0.18492">
        <ele>300.2</ele>
        <time>2024-04-17T14:18:03Z</time>
      </trkpt>
      <trkpt lat="43.22832" lon="0.18492">
        <ele>300.2</ele>
        <time>2024-04-17T14:18:04Z</time>
      </trkpt>
      <trkpt lat="43.22832" lon="0.18492">
        <ele>300.2</ele>
        <time>2024-04-17T14:18:05Z</time>
      </trkpt>
      <trkpt lat="43.22832" lon="0.18492">
        <ele>300.2</ele>
        <time>2024-04-17T14:18:06Z</time>
      </trkpt>
      <trkpt lat="43.22832" lon="0.18492">
        <ele>300.2</ele>
        <time>2024-04-17T14:18:07Z</time>
      </trkpt>
      <trkpt lat="43.22832" lon="0.18492">
        <ele>300.2</ele>
        <time>2024-04-17T14:18:08Z</time>
      </trkpt>
      <trkpt lat="43.22832" lon="0.18492">
        <ele>300.2</ele>
        <time>2024-04-17T14:18:09Z</time>
      </trkpt>
      <trkpt lat="43.22832" lon="0.18492">
        <ele>300.2</ele>
        <time>2024-04-17T14:18:10Z</time>
      </trkpt>
      <trkpt lat="43.22832" lon="0.18492">
        <ele>300.2</ele>
        <time>2024-04-17T14:18:11Z</time>
      </trkpt>
      <trkpt lat="43.22832" lon="0.18492">
        <ele>300.2</ele>
        <time>2024-04-17T14:18:12Z</time>
      </trkpt>
      <trkpt lat="43.22832" lon="0.18492">
        <ele>300.2</ele>
        <time>2024-04-17T14:18:13Z</time>
      </trkpt>
      <trkpt lat="43.22832" lon="0.18492">
        <ele>300.2</ele>
        <time>2024-04-17T14:18:14Z</time>
      </trkpt>
      <trkpt lat="43.22832" lon="0.18492">
        <ele>300.2</ele>
        <time>2024-04-17T14:18:15Z</time>
      </trkpt>
      <trkpt lat="43.22832" lon="0.18492">
        <ele>300.2</ele>
        <time>2024-04-17T14:18:16Z</time>
      </trkpt>
      <trkpt lat="43.22832" lon="0.18492">
        <ele>300.2</ele>
        <time>2024-04-17T14:18:17Z</time>
      </trkpt>
      <trkpt lat="43.22832" lon="0.18492">
        <ele>300.2</ele>
        <time>2024-04-17T14:18:18Z</time>
      </trkpt>
      <trkpt lat="43.22832" lon="0.18492">
        <ele>300.2</ele>
        <time>2024-04-17T14:18:19Z</time>
      </trkpt>
      <trkpt lat="43.22832" lon="0.18492">
        <ele>300.2</ele>
        <time>2024-04-17T14:18:20Z</time>
      </trkpt>
      <trkpt lat="43.22832" lon="0.18492">
        <ele>300.2</ele>
        <time>2024-04-17T14:18:21Z</time>
      </trkpt>
      <trkpt lat="43.22832" lon="0.18492">
        <ele>300.2</ele>
        <time>2024-04-17T14:18:22Z</time>
      </trkpt>
      <trkpt lat="43.22832" lon="0.18492">
        <ele>300.2</ele>
        <time>2024-04-17T14:18:23Z</time>
      </trkpt>
      <trkpt lat="43.22832" lon="0.18492">
        <ele>300.2</ele>
        <time>2024-04-17T14:18:24Z</time>
      </trkpt>
      <trkpt lat="43.22832" lon="0.18492">
        <ele>300.2</ele>
        <time>2024-04-17T14:18:25Z</time>
      </trkpt>
      <trkpt lat="43.22832" lon="0.18492">
        <ele>300.2</ele>
        <time>2024-04-17T14:18:26Z</time>
      </trkpt>
      <trkpt lat="43.22832" lon="0.18492">
        <ele>300.2</ele>
        <time>2024-04-17T14:18:27Z</time>
      </trkpt>
      <trkpt lat="43.22832" lon="0.18492">
        <ele>300.2</ele>
        <time>2024-04-17T14:18:28Z</time>
      </trkpt>
      <trkpt lat="43.22832" lon="0.18492">
        <ele>300.2</ele>
        <time>2024-04-17T14:18:29Z</time>
      </trkpt>
      <trkpt lat="43.22832" lon="0.18492">
        <ele>300.2</ele>
        <time>2024-04-17T14:18:30Z</time>
      </trkpt>
      <trkpt lat="43.22832" lon="0.18492">
        <ele>300.2</ele>
        <time>2024-04-17T14:18:31Z</time>
      </trkpt>
      <trkpt lat="43.22832" lon="0.18492">
        <ele>300.2</ele>
        <time>2024-04-17T14:18:32Z</time>
      </trkpt>
      <trkpt lat="43.22832" lon="0.18492">
        <ele>300.2</ele>
        <time>2024-04-17T14:18:33Z</time>
      </trkpt>
      <trkpt lat="43.22832" lon="0.18492">
        <ele>300.2</ele>
        <time>2024-04-17T14:18:34Z</time>
      </trkpt>
      <trkpt lat="43.22832" lon="0.18492">
        <ele>300.2</ele>
        <time>2024-04-17T14:18:35Z</time>
      </trkpt>
      <trkpt lat="43.22832" lon="0.18492">
        <ele>300.2</ele>
        <time>2024-04-17T14:18:36Z</time>
      </trkpt>
      <trkpt lat="43.22832" lon="0.18492">
        <ele>300.2</ele>
        <time>2024-04-17T14:18:37Z</time>
      </trkpt>
      <trkpt lat="43.22832" lon="0.18492">
        <ele>300.2</ele>
        <time>2024-04-17T14:18:38Z</time>
      </trkpt>
      <trkpt lat="43.22832" lon="0.18492">
        <ele>300.2</ele>
        <time>2024-04-17T14:18:39Z</time>
      </trkpt>
      <trkpt lat="43.22832" lon="0.18492">
        <ele>300.2</ele>
        <time>2024-04-17T14:18:40Z</time>
      </trkpt>
      <trkpt lat="43.22832" lon="0.18492">
        <ele>300.2</ele>
        <time>2024-04-17T14:18:41Z</time>
      </trkpt>
      <trkpt lat="43.22832" lon="0.18492">
        <ele>300.2</ele>
        <time>2024-04-17T14:18:42Z</time>
      </trkpt>
      <trkpt lat="43.22832" lon="0.18492">
        <ele>300.2</ele>
        <time>2024-04-17T14:18:43Z</time>
      </trkpt>
      <trkpt lat="43.22832" lon="0.18492">
        <ele>300.2</ele>
        <time>2024-04-17T14:18:44Z</time>
      </trkpt>
      <trkpt lat="43.22832" lon="0.18492">
        <ele>300.2</ele>
        <time>2024-04-17T14:18:45Z</time>
      </trkpt>
      <trkpt lat="43.22832" lon="0.18492">
        <ele>300.2</ele>
        <time>2024-04-17T14:18:46Z</time>
      </trkpt>
      <trkpt lat="43.22832" lon="0.18492">
        <ele>300</ele>
        <time>2024-04-17T14:18:47Z</time>
      </trkpt>
      <trkpt lat="43.22832" lon="0.18492">
        <ele>300</ele>
        <time>2024-04-17T14:18:48Z</time>
      </trkpt>
      <trkpt lat="43.22832" lon="0.18492">
        <ele>300</ele>
        <time>2024-04-17T14:18:49Z</time>
      </trkpt>
      <trkpt lat="43.22832" lon="0.18492">
        <ele>300</ele>
        <time>2024-04-17T14:18:50Z</time>
      </trkpt>
      <trkpt lat="43.22832" lon="0.18492">
        <ele>300</ele>
        <time>2024-04-17T14:18:51Z</time>
      </trkpt>
      <trkpt lat="43.22832" lon="0.18492">
        <ele>300</ele>
        <time>2024-04-17T14:18:52Z</time>
      </trkpt>
      <trkpt lat="43.22832" lon="0.18492">
        <ele>300</ele>
        <time>2024-04-17T14:18:53Z</time>
      </trkpt>
      <trkpt lat="43.22832" lon="0.18492">
        <ele>300</ele>
        <time>2024-04-17T14:18:54Z</time>
      </trkpt>
      <trkpt lat="43.22832" lon="0.18492">
        <ele>300</ele>
        <time>2024-04-17T14:18:55Z</time>
      </trkpt>
      <trkpt lat="43.22832" lon="0.18492">
        <ele>300</ele>
        <time>2024-04-17T14:18:56Z</time>
      </trkpt>
      <trkpt lat="43.22832" lon="0.18492">
        <ele>300</ele>
        <time>2024-04-17T14:18:57Z</time>
      </trkpt>
      <trkpt lat="43.22832" lon="0.18492">
        <ele>300</ele>
        <time>2024-04-17T14:18:58Z</time>
      </trkpt>
      <trkpt lat="43.22832" lon="0.18492">
        <ele>300</ele>
        <time>2024-04-17T14:18:59Z</time>
      </trkpt>
      <trkpt lat="43.22832" lon="0.18492">
        <ele>300</ele>
        <time>2024-04-17T14:19:00Z</time>
      </trkpt>
      <trkpt lat="43.22832" lon="0.18492">
        <ele>300</ele>
        <time>2024-04-17T14:19:01Z</time>
      </trkpt>
      <trkpt lat="43.22832" lon="0.18492">
        <ele>300</ele>
        <time>2024-04-17T14:19:02Z</time>
      </trkpt>
      <trkpt lat="43.22832" lon="0.18492">
        <ele>300</ele>
        <time>2024-04-17T14:19:03Z</time>
      </trkpt>
      <trkpt lat="43.22832" lon="0.18492">
        <ele>300</ele>
        <time>2024-04-17T14:19:04Z</time>
      </trkpt>
      <trkpt lat="43.22832" lon="0.18492">
        <ele>300</ele>
        <time>2024-04-17T14:19:05Z</time>
      </trkpt>
      <trkpt lat="43.22832" lon="0.18492">
        <ele>300</ele>
        <time>2024-04-17T14:19:06Z</time>
      </trkpt>
      <trkpt lat="43.22832" lon="0.18492">
        <ele>300</ele>
        <time>2024-04-17T14:19:07Z</time>
      </trkpt>
      <trkpt lat="43.22832" lon="0.18492">
        <ele>300</ele>
        <time>2024-04-17T14:19:08Z</time>
      </trkpt>
      <trkpt lat="43.22832" lon="0.18492">
        <ele>300</ele>
        <time>2024-04-17T14:19:09Z</time>
      </trkpt>
      <trkpt lat="43.22832" lon="0.18492">
        <ele>300.2</ele>
        <time>2024-04-17T14:19:10Z</time>
      </trkpt>
      <trkpt lat="43.22832" lon="0.18492">
        <ele>300.2</ele>
        <time>2024-04-17T14:19:11Z</time>
      </trkpt>
      <trkpt lat="43.22832" lon="0.18492">
        <ele>300.2</ele>
        <time>2024-04-17T14:19:12Z</time>
      </trkpt>
      <trkpt lat="43.22832" lon="0.18492">
        <ele>300</ele>
        <time>2024-04-17T14:19:13Z</time>
      </trkpt>
      <trkpt lat="43.22832" lon="0.18492">
        <ele>300.2</ele>
        <time>2024-04-17T14:19:14Z</time>
      </trkpt>
      <trkpt lat="43.22832" lon="0.18492">
        <ele>300.2</ele>
        <time>2024-04-17T14:19:15Z</time>
      </trkpt>
      <trkpt lat="43.22832" lon="0.18492">
        <ele>300.2</ele>
        <time>2024-04-17T14:19:16Z</time>
      </trkpt>
      <trkpt lat="43.22832" lon="0.18492">
        <ele>300.2</ele>
        <time>2024-04-17T14:19:17Z</time>
      </trkpt>
      <trkpt lat="43.22832" lon="0.18492">
        <ele>300.2</ele>
        <time>2024-04-17T14:19:18Z</time>
      </trkpt>
      <trkpt lat="43.22832" lon="0.18492">
        <ele>300.2</ele>
        <time>2024-04-17T14:19:19Z</time>
      </trkpt>
      <trkpt lat="43.22832" lon="0.18492">
        <ele>300.2</ele>
        <time>2024-04-17T14:19:20Z</time>
      </trkpt>
      <trkpt lat="43.22832" lon="0.18492">
        <ele>300.2</ele>
        <time>2024-04-17T14:19:21Z</time>
      </trkpt>
      <trkpt lat="43.22832" lon="0.18492">
        <ele>300.2</ele>
        <time>2024-04-17T14:19:22Z</time>
      </trkpt>
      <trkpt lat="43.22832" lon="0.18492">
        <ele>300.2</ele>
        <time>2024-04-17T14:19:23Z</time>
      </trkpt>
      <trkpt lat="43.22832" lon="0.18492">
        <ele>300.2</ele>
        <time>2024-04-17T14:19:24Z</time>
      </trkpt>
      <trkpt lat="43.22832" lon="0.18492">
        <ele>300.2</ele>
        <time>2024-04-17T14:19:25Z</time>
      </trkpt>
      <trkpt lat="43.22832" lon="0.18492">
        <ele>300.2</ele>
        <time>2024-04-17T14:19:26Z</time>
      </trkpt>
      <trkpt lat="43.22832" lon="0.18492">
        <ele>300</ele>
        <time>2024-04-17T14:19:27Z</time>
      </trkpt>
      <trkpt lat="43.22832" lon="0.18492">
        <ele>300</ele>
        <time>2024-04-17T14:19:28Z</time>
      </trkpt>
      <trkpt lat="43.22832" lon="0.18492">
        <ele>300</ele>
        <time>2024-04-17T14:19:29Z</time>
      </trkpt>
      <trkpt lat="43.22832" lon="0.18492">
        <ele>300</ele>
        <time>2024-04-17T14:19:30Z</time>
      </trkpt>
      <trkpt lat="43.22832" lon="0.18492">
        <ele>300</ele>
        <time>2024-04-17T14:19:31Z</time>
      </trkpt>
      <trkpt lat="43.22832" lon="0.18492">
        <ele>300</ele>
        <time>2024-04-17T14:19:32Z</time>
      </trkpt>
      <trkpt lat="43.22832" lon="0.18492">
        <ele>300</ele>
        <time>2024-04-17T14:19:33Z</time>
      </trkpt>
      <trkpt lat="43.22832" lon="0.18492">
        <ele>300.2</ele>
        <time>2024-04-17T14:19:34Z</time>
      </trkpt>
      <trkpt lat="43.22832" lon="0.18492">
        <ele>300.2</ele>
        <time>2024-04-17T14:19:35Z</time>
      </trkpt>
      <trkpt lat="43.22832" lon="0.18492">
        <ele>300.2</ele>
        <time>2024-04-17T14:19:36Z</time>
      </trkpt>
      <trkpt lat="43.22832" lon="0.18492">
        <ele>300.2</ele>
        <time>2024-04-17T14:19:37Z</time>
      </trkpt>
      <trkpt lat="43.22832" lon="0.18492">
        <ele>300.2</ele>
        <time>2024-04-17T14:19:38Z</time>
      </trkpt>
      <trkpt lat="43.22832" lon="0.18492">
        <ele>300.2</ele>
        <time>2024-04-17T14:19:39Z</time>
      </trkpt>
      <trkpt lat="43.22832" lon="0.18492">
        <ele>300.2</ele>
        <time>2024-04-17T14:19:40Z</time>
      </trkpt>
      <trkpt lat="43.22832" lon="0.18492">
        <ele>300.4</ele>
        <time>2024-04-17T14:19:41Z</time>
      </trkpt>
      <trkpt lat="43.22832" lon="0.18492">
        <ele>300.4</ele>
        <time>2024-04-17T14:19:42Z</time>
      </trkpt>
      <trkpt lat="43.22832" lon="0.18492">
        <ele>300.4</ele>
        <time>2024-04-17T14:19:43Z</time>
      </trkpt>
      <trkpt lat="43.22832" lon="0.18492">
        <ele>300.4</ele>
        <time>2024-04-17T14:19:44Z</time>
      </trkpt>
      <trkpt lat="43.22832" lon="0.18492">
        <ele>300.4</ele>
        <time>2024-04-17T14:19:45Z</time>
      </trkpt>
      <trkpt lat="43.22832" lon="0.18492">
        <ele>300.4</ele>
        <time>2024-04-17T14:19:46Z</time>
      </trkpt>
      <trkpt lat="43.22832" lon="0.18492">
        <ele>300.4</ele>
        <time>2024-04-17T14:19:47Z</time>
      </trkpt>
      <trkpt lat="43.22832" lon="0.18492">
        <ele>300.4</ele>
        <time>2024-04-17T14:19:48Z</time>
      </trkpt>
      <trkpt lat="43.22832" lon="0.18492">
        <ele>300.4</ele>
        <time>2024-04-17T14:19:49Z</time>
      </trkpt>
      <trkpt lat="43.22832" lon="0.18492">
        <ele>300.4</ele>
        <time>2024-04-17T14:19:50Z</time>
      </trkpt>
      <trkpt lat="43.22832" lon="0.18492">
        <ele>300.4</ele>
        <time>2024-04-17T14:19:51Z</time>
      </trkpt>
      <trkpt lat="43.22832" lon="0.18492">
        <ele>300.4</ele>
        <time>2024-04-17T14:19:52Z</time>
      </trkpt>
      <trkpt lat="43.22832" lon="0.18492">
        <ele>300.4</ele>
        <time>2024-04-17T14:19:53Z</time>
      </trkpt>
      <trkpt lat="43.22832" lon="0.18492">
        <ele>300.4</ele>
        <time>2024-04-17T14:19:54Z</time>
      </trkpt>
      <trkpt lat="43.22832" lon="0.18492">
        <ele>300.4</ele>
        <time>2024-04-17T14:19:55Z</time>
      </trkpt>
      <trkpt lat="43.22832" lon="0.18492">
        <ele>300.4</ele>
        <time>2024-04-17T14:19:56Z</time>
      </trkpt>
      <trkpt lat="43.22832" lon="0.18492">
        <ele>300.6</ele>
        <time>2024-04-17T14:19:57Z</time>
      </trkpt>
      <trkpt lat="43.22832" lon="0.18492">
        <ele>300.6</ele>
        <time>2024-04-17T14:19:58Z</time>
      </trkpt>
      <trkpt lat="43.22832" lon="0.18492">
        <ele>300.6</ele>
        <time>2024-04-17T14:19:59Z</time>
      </trkpt>
      <trkpt lat="43.22832" lon="0.18492">
        <ele>300.6</ele>
        <time>2024-04-17T14:20:00Z</time>
      </trkpt>
      <trkpt lat="43.22832" lon="0.18492">
        <ele>300.6</ele>
        <time>2024-04-17T14:20:01Z</time>
      </trkpt>
      <trkpt lat="43.22832" lon="0.18492">
        <ele>300.6</ele>
        <time>2024-04-17T14:20:02Z</time>
      </trkpt>
      <trkpt lat="43.22832" lon="0.18492">
        <ele>300.6</ele>
        <time>2024-04-17T14:20:03Z</time>
      </trkpt>
      <trkpt lat="43.22832" lon="0.18492">
        <ele>300.6</ele>
        <time>2024-04-17T14:20:04Z</time>
      </trkpt>
      <trkpt lat="43.22832" lon="0.18492">
        <ele>300.6</ele>
        <time>2024-04-17T14:20:05Z</time>
      </trkpt>
      <trkpt lat="43.22832" lon="0.18492">
        <ele>300.6</ele>
        <time>2024-04-17T14:20:06Z</time>
      </trkpt>
      <trkpt lat="43.22832" lon="0.18492">
        <ele>300.6</ele>
        <time>2024-04-17T14:20:07Z</time>
      </trkpt>
      <trkpt lat="43.22832" lon="0.18492">
        <ele>300.6</ele>
        <time>2024-04-17T14:20:08Z</time>
      </trkpt>
      <trkpt lat="43.22832" lon="0.18492">
        <ele>300.6</ele>
        <time>2024-04-17T14:20:09Z</time>
      </trkpt>
      <trkpt lat="43.22832" lon="0.18492">
        <ele>300.6</ele>
        <time>2024-04-17T14:20:10Z</time>
      </trkpt>
      <trkpt lat="43.22832" lon="0.18492">
        <ele>300.6</ele>
        <time>2024-04-17T14:20:11Z</time>
      </trkpt>
      <trkpt lat="43.22832" lon="0.18492">
        <ele>300.6</ele>
        <time>2024-04-17T14:20:12Z</time>
      </trkpt>
      <trkpt lat="43.22832" lon="0.18492">
        <ele>300.6</ele>
        <time>2024-04-17T14:20:13Z</time>
      </trkpt>
      <trkpt lat="43.22832" lon="0.18492">
        <ele>300.6</ele>
        <time>2024-04-17T14:20:14Z</time>
      </trkpt>
      <trkpt lat="43.22832" lon="0.18492">
        <ele>300.6</ele>
        <time>2024-04-17T14:20:15Z</time>
      </trkpt>
      <trkpt lat="43.22832" lon="0.18492">
        <ele>300.6</ele>
        <time>2024-04-17T14:20:16Z</time>
      </trkpt>
      <trkpt lat="43.22832" lon="0.18492">
        <ele>300.6</ele>
        <time>2024-04-17T14:20:17Z</time>
      </trkpt>
      <trkpt lat="43.22832" lon="0.18492">
        <ele>300.6</ele>
        <time>2024-04-17T14:20:18Z</time>
      </trkpt>
      <trkpt lat="43.22832" lon="0.18492">
        <ele>300.6</ele>
        <time>2024-04-17T14:20:19Z</time>
      </trkpt>
      <trkpt lat="43.22832" lon="0.18492">
        <ele>300.6</ele>
        <time>2024-04-17T14:20:20Z</time>
      </trkpt>
      <trkpt lat="43.22832" lon="0.18492">
        <ele>300.6</ele>
        <time>2024-04-17T14:20:21Z</time>
      </trkpt>
      <trkpt lat="43.22832" lon="0.18492">
        <ele>300.6</ele>
        <time>2024-04-17T14:20:22Z</time>
      </trkpt>
      <trkpt lat="43.22832" lon="0.18492">
        <ele>300.6</ele>
        <time>2024-04-17T14:20:23Z</time>
      </trkpt>
      <trkpt lat="43.22832" lon="0.18492">
        <ele>300.6</ele>
        <time>2024-04-17T14:20:24Z</time>
      </trkpt>
      <trkpt lat="43.22832" lon="0.18492">
        <ele>300.6</ele>
        <time>2024-04-17T14:20:25Z</time>
      </trkpt>
      <trkpt lat="43.22832" lon="0.18492">
        <ele>300.6</ele>
        <time>2024-04-17T14:20:26Z</time>
      </trkpt>
      <trkpt lat="43.22832" lon="0.18492">
        <ele>300.6</ele>
        <time>2024-04-17T14:20:27Z</time>
      </trkpt>
      <trkpt lat="43.22832" lon="0.18492">
        <ele>300.6</ele>
        <time>2024-04-17T14:20:28Z</time>
      </trkpt>
      <trkpt lat="43.22832" lon="0.18492">
        <ele>300.6</ele>
        <time>2024-04-17T14:20:29Z</time>
      </trkpt>
      <trkpt lat="43.22832" lon="0.18492">
        <ele>300.6</ele>
        <time>2024-04-17T14:20:30Z</time>
      </trkpt>
      <trkpt lat="43.22832" lon="0.18492">
        <ele>300.6</ele>
        <time>2024-04-17T14:20:31Z</time>
      </trkpt>
      <trkpt lat="43.22832" lon="0.18492">
        <ele>300.6</ele>
        <time>2024-04-17T14:20:32Z</time>
      </trkpt>
      <trkpt lat="43.22832" lon="0.18492">
        <ele>300.6</ele>
        <time>2024-04-17T14:20:33Z</time>
      </trkpt>
      <trkpt lat="43.22832" lon="0.18492">
        <ele>300.8</ele>
        <time>2024-04-17T14:20:34Z</time>
      </trkpt>
      <trkpt lat="43.22832" lon="0.18492">
        <ele>300.8</ele>
        <time>2024-04-17T14:20:35Z</time>
      </trkpt>
      <trkpt lat="43.22832" lon="0.18492">
        <ele>300.8</ele>
        <time>2024-04-17T14:20:36Z</time>
      </trkpt>
      <trkpt lat="43.22832" lon="0.18492">
        <ele>300.8</ele>
        <time>2024-04-17T14:20:37Z</time>
      </trkpt>
      <trkpt lat="43.22832" lon="0.18492">
        <ele>300.8</ele>
        <time>2024-04-17T14:20:38Z</time>
      </trkpt>
      <trkpt lat="43.22832" lon="0.18492">
        <ele>300.8</ele>
        <time>2024-04-17T14:20:39Z</time>
      </trkpt>
      <trkpt lat="43.22832" lon="0.18492">
        <ele>300.8</ele>
        <time>2024-04-17T14:20:40Z</time>
      </trkpt>
      <trkpt lat="43.22832" lon="0.18492">
        <ele>300.8</ele>
        <time>2024-04-17T14:20:41Z</time>
      </trkpt>
      <trkpt lat="43.22832" lon="0.18492">
        <ele>300.8</ele>
        <time>2024-04-17T14:20:42Z</time>
      </trkpt>
      <trkpt lat="43.22832" lon="0.18492">
        <ele>300.8</ele>
        <time>2024-04-17T14:20:43Z</time>
      </trkpt>
      <trkpt lat="43.22832" lon="0.18492">
        <ele>300.8</ele>
        <time>2024-04-17T14:20:44Z</time>
      </trkpt>
      <trkpt lat="43.22832" lon="0.18492">
        <ele>300.8</ele>
        <time>2024-04-17T14:20:45Z</time>
      </trkpt>
      <trkpt lat="43.22832" lon="0.18492">
        <ele>300.8</ele>
        <time>2024-04-17T14:20:46Z</time>
      </trkpt>
      <trkpt lat="43.22832" lon="0.18492">
        <ele>300.8</ele>
        <time>2024-04-17T14:20:47Z</time>
      </trkpt>
      <trkpt lat="43.22832" lon="0.18492">
        <ele>300.8</ele>
        <time>2024-04-17T14:20:48Z</time>
      </trkpt>
      <trkpt lat="43.22832" lon="0.18492">
        <ele>300.8</ele>
        <time>2024-04-17T14:20:49Z</time>
      </trkpt>
      <trkpt lat="43.22832" lon="0.18492">
        <ele>300.8</ele>
        <time>2024-04-17T14:20:50Z</time>
      </trkpt>
      <trkpt lat="43.22832" lon="0.18492">
        <ele>300.8</ele>
        <time>2024-04-17T14:20:51Z</time>
      </trkpt>
      <trkpt lat="43.22831" lon="0.18494">
        <ele>300.6</ele>
        <time>2024-04-17T14:20:52Z</time>
      </trkpt>
      <trkpt lat="43.22831" lon="0.18496">
        <ele>300.6</ele>
        <time>2024-04-17T14:20:53Z</time>
      </trkpt>
      <trkpt lat="43.2283" lon="0.18499">
        <ele>300.6</ele>
        <time>2024-04-17T14:20:54Z</time>
      </trkpt>
      <trkpt lat="43.2283" lon="0.18501">
        <ele>300.6</ele>
        <time>2024-04-17T14:20:55Z</time>
      </trkpt>
      <trkpt lat="43.22829" lon="0.18504">
        <ele>300.6</ele>
        <time>2024-04-17T14:20:56Z</time>
      </trkpt>
      <trkpt lat="43.22829" lon="0.18507">
        <ele>300.6</ele>
        <time>2024-04-17T14:20:57Z</time>
      </trkpt>
      <trkpt lat="43.22829" lon="0.1851">
        <ele>300.6</ele>
        <time>2024-04-17T14:20:58Z</time>
      </trkpt>
      <trkpt lat="43.22828" lon="0.18513">
        <ele>300.6</ele>
        <time>2024-04-17T14:20:59Z</time>
      </trkpt>
      <trkpt lat="43.22828" lon="0.18516">
        <ele>300.6</ele>
        <time>2024-04-17T14:21:00Z</time>
      </trkpt>
      <trkpt lat="43.22828" lon="0.18519">
        <ele>300.6</ele>
        <time>2024-04-17T14:21:01Z</time>
      </trkpt>
      <trkpt lat="43.22828" lon="0.1852">
        <ele>300.6</ele>
        <time>2024-04-17T14:21:02Z</time>
      </trkpt>
      <trkpt lat="43.22828" lon="0.18522">
        <ele>300.4</ele>
        <time>2024-04-17T14:21:03Z</time>
      </trkpt>
      <trkpt lat="43.22828" lon="0.18525">
        <ele>300.4</ele>
        <time>2024-04-17T14:21:04Z</time>
      </trkpt>
      <trkpt lat="43.22828" lon="0.18528">
        <ele>300.4</ele>
        <time>2024-04-17T14:21:05Z</time>
      </trkpt>
      <trkpt lat="43.22827" lon="0.18531">
        <ele>300.4</ele>
        <time>2024-04-17T14:21:06Z</time>
      </trkpt>
      <trkpt lat="43.22827" lon="0.18534">
        <ele>300.4</ele>
        <time>2024-04-17T14:21:07Z</time>
      </trkpt>
      <trkpt lat="43.22827" lon="0.18539">
        <ele>300.2</ele>
        <time>2024-04-17T14:21:08Z</time>
      </trkpt>
      <trkpt lat="43.22827" lon="0.18542">
        <ele>300.2</ele>
        <time>2024-04-17T14:21:09Z</time>
      </trkpt>
      <trkpt lat="43.22827" lon="0.18545">
        <ele>300.2</ele>
        <time>2024-04-17T14:21:10Z</time>
      </trkpt>
      <trkpt lat="43.22827" lon="0.18548">
        <ele>300.2</ele>
        <time>2024-04-17T14:21:11Z</time>
      </trkpt>
      <trkpt lat="43.22828" lon="0.18551">
        <ele>300.2</ele>
        <time>2024-04-17T14:21:12Z</time>
      </trkpt>
      <trkpt lat="43.22827" lon="0.18555">
        <ele>300.2</ele>
        <time>2024-04-17T14:21:13Z</time>
      </trkpt>
      <trkpt lat="43.22827" lon="0.18558">
        <ele>300</ele>
        <time>2024-04-17T14:21:14Z</time>
      </trkpt>
      <trkpt lat="43.22827" lon="0.18563">
        <ele>300</ele>
        <time>2024-04-17T14:21:15Z</time>
      </trkpt>
      <trkpt lat="43.22828" lon="0.18568">
        <ele>300</ele>
        <time>2024-04-17T14:21:16Z</time>
      </trkpt>
      <trkpt lat="43.22827" lon="0.18574">
        <ele>299.8</ele>
        <time>2024-04-17T14:21:17Z</time>
      </trkpt>
      <trkpt lat="43.22828" lon="0.1858">
        <ele>299.8</ele>
        <time>2024-04-17T14:21:18Z</time>
      </trkpt>
      <trkpt lat="43.22829" lon="0.18586">
        <ele>299.6</ele>
        <time>2024-04-17T14:21:19Z</time>
      </trkpt>
      <trkpt lat="43.2283" lon="0.18592">
        <ele>299.6</ele>
        <time>2024-04-17T14:21:20Z</time>
      </trkpt>
      <trkpt lat="43.22831" lon="0.18597">
        <ele>299.6</ele>
        <time>2024-04-17T14:21:21Z</time>
      </trkpt>
      <trkpt lat="43.22832" lon="0.18603">
        <ele>299.4</ele>
        <time>2024-04-17T14:21:22Z</time>
      </trkpt>
      <trkpt lat="43.22832" lon="0.18608">
        <ele>299.4</ele>
        <time>2024-04-17T14:21:23Z</time>
      </trkpt>
      <trkpt lat="43.22833" lon="0.18613">
        <ele>299</ele>
        <time>2024-04-17T14:21:24Z</time>
      </trkpt>
      <trkpt lat="43.22833" lon="0.18618">
        <ele>299</ele>
        <time>2024-04-17T14:21:25Z</time>
      </trkpt>
      <trkpt lat="43.22834" lon="0.18623">
        <ele>298.6</ele>
        <time>2024-04-17T14:21:26Z</time>
      </trkpt>
      <trkpt lat="43.22833" lon="0.18629">
        <ele>298.6</ele>
        <time>2024-04-17T14:21:27Z</time>
      </trkpt>
      <trkpt lat="43.22833" lon="0.18634">
        <ele>298.4</ele>
        <time>2024-04-17T14:21:28Z</time>
      </trkpt>
      <trkpt lat="43.22833" lon="0.18639">
        <ele>298.4</ele>
        <time>2024-04-17T14:21:29Z</time>
      </trkpt>
      <trkpt lat="43.22833" lon="0.18644">
        <ele>298.4</ele>
        <time>2024-04-17T14:21:30Z</time>
      </trkpt>
      <trkpt lat="43.22833" lon="0.18651">
        <ele>298.4</ele>
        <time>2024-04-17T14:21:31Z</time>
      </trkpt>
      <trkpt lat="43.22834" lon="0.18657">
        <ele>298.4</ele>
        <time>2024-04-17T14:21:32Z</time>
      </trkpt>
      <trkpt lat="43.22835" lon="0.18662">
        <ele>298.2</ele>
        <time>2024-04-17T14:21:33Z</time>
      </trkpt>
      <trkpt lat="43.22835" lon="0.18668">
        <ele>298.2</ele>
        <time>2024-04-17T14:21:34Z</time>
      </trkpt>
      <trkpt lat="43.22836" lon="0.18674">
        <ele>298</ele>
        <time>2024-04-17T14:21:35Z</time>
      </trkpt>
      <trkpt lat="43.22836" lon="0.18681">
        <ele>297.8</ele>
        <time>2024-04-17T14:21:36Z</time>
      </trkpt>
      <trkpt lat="43.22837" lon="0.18687">
        <ele>297.4</ele>
        <time>2024-04-17T14:21:37Z</time>
      </trkpt>
      <trkpt lat="43.22836" lon="0.18693">
        <ele>297.2</ele>
        <time>2024-04-17T14:21:38Z</time>
      </trkpt>
      <trkpt lat="43.22835" lon="0.18699">
        <ele>297</ele>
        <time>2024-04-17T14:21:39Z</time>
      </trkpt>
      <trkpt lat="43.22834" lon="0.18704">
        <ele>296.8</ele>
        <time>2024-04-17T14:21:40Z</time>
      </trkpt>
      <trkpt lat="43.22834" lon="0.18708">
        <ele>296.6</ele>
        <time>2024-04-17T14:21:41Z</time>
      </trkpt>
      <trkpt lat="43.22835" lon="0.18714">
        <ele>296.6</ele>
        <time>2024-04-17T14:21:42Z</time>
      </trkpt>
      <trkpt lat="43.22834" lon="0.1872">
        <ele>296.4</ele>
        <time>2024-04-17T14:21:43Z</time>
      </trkpt>
      <trkpt lat="43.22834" lon="0.18724">
        <ele>296.4</ele>
        <time>2024-04-17T14:21:44Z</time>
      </trkpt>
      <trkpt lat="43.22836" lon="0.18728">
        <ele>296.2</ele>
        <time>2024-04-17T14:21:45Z</time>
      </trkpt>
      <trkpt lat="43.22837" lon="0.18733">
        <ele>296</ele>
        <time>2024-04-17T14:21:46Z</time>
      </trkpt>
      <trkpt lat="43.22838" lon="0.18738">
        <ele>295.8</ele>
        <time>2024-04-17T14:21:47Z</time>
      </trkpt>
      <trkpt lat="43.2284" lon="0.18742">
        <ele>295.8</ele>
        <time>2024-04-17T14:21:48Z</time>
      </trkpt>
      <trkpt lat="43.22841" lon="0.18747">
        <ele>295.6</ele>
        <time>2024-04-17T14:21:49Z</time>
      </trkpt>
      <trkpt lat="43.22842" lon="0.18752">
        <ele>295.6</ele>
        <time>2024-04-17T14:21:50Z</time>
      </trkpt>
      <trkpt lat="43.22842" lon="0.18758">
        <ele>295.4</ele>
        <time>2024-04-17T14:21:51Z</time>
      </trkpt>
      <trkpt lat="43.22843" lon="0.18763">
        <ele>295.4</ele>
        <time>2024-04-17T14:21:52Z</time>
      </trkpt>
      <trkpt lat="43.22844" lon="0.18769">
        <ele>295.4</ele>
        <time>2024-04-17T14:21:53Z</time>
      </trkpt>
      <trkpt lat="43.22844" lon="0.18774">
        <ele>295.2</ele>
        <time>2024-04-17T14:21:54Z</time>
      </trkpt>
      <trkpt lat="43.22845" lon="0.18779">
        <ele>295.2</ele>
        <time>2024-04-17T14:21:55Z</time>
      </trkpt>
      <trkpt lat="43.22844" lon="0.18784">
        <ele>295</ele>
        <time>2024-04-17T14:21:56Z</time>
      </trkpt>
      <trkpt lat="43.22844" lon="0.1879">
        <ele>294.8</ele>
        <time>2024-04-17T14:21:57Z</time>
      </trkpt>
      <trkpt lat="43.22844" lon="0.18796">
        <ele>294.6</ele>
        <time>2024-04-17T14:21:58Z</time>
      </trkpt>
      <trkpt lat="43.22843" lon="0.18801">
        <ele>294.4</ele>
        <time>2024-04-17T14:21:59Z</time>
      </trkpt>
      <trkpt lat="43.22842" lon="0.18807">
        <ele>294.2</ele>
        <time>2024-04-17T14:22:00Z</time>
      </trkpt>
      <trkpt lat="43.22842" lon="0.18812">
        <ele>294.2</ele>
        <time>2024-04-17T14:22:01Z</time>
      </trkpt>
      <trkpt lat="43.22842" lon="0.18817">
        <ele>294</ele>
        <time>2024-04-17T14:22:02Z</time>
      </trkpt>
      <trkpt lat="43.22843" lon="0.18823">
        <ele>294</ele>
        <time>2024-04-17T14:22:03Z</time>
      </trkpt>
      <trkpt lat="43.22845" lon="0.1883">
        <ele>293.8</ele>
        <time>2024-04-17T14:22:04Z</time>
      </trkpt>
      <trkpt lat="43.22845" lon="0.18835">
        <ele>293.6</ele>
        <time>2024-04-17T14:22:05Z</time>
      </trkpt>
      <trkpt lat="43.22845" lon="0.18842">
        <ele>293.6</ele>
        <time>2024-04-17T14:22:06Z</time>
      </trkpt>
      <trkpt lat="43.22846" lon="0.18847">
        <ele>293.4</ele>
        <time>2024-04-17T14:22:07Z</time>
      </trkpt>
      <trkpt lat="43.22846" lon="0.18853">
        <ele>293.4</ele>
        <time>2024-04-17T14:22:08Z</time>
      </trkpt>
      <trkpt lat="43.22847" lon="0.18861">
        <ele>293.2</ele>
        <time>2024-04-17T14:22:09Z</time>
      </trkpt>
      <trkpt lat="43.22849" lon="0.18866">
        <ele>293.2</ele>
        <time>2024-04-17T14:22:10Z</time>
      </trkpt>
      <trkpt lat="43.2285" lon="0.18874">
        <ele>293</ele>
        <time>2024-04-17T14:22:11Z</time>
      </trkpt>
      <trkpt lat="43.2285" lon="0.18879">
        <ele>292.8</ele>
        <time>2024-04-17T14:22:12Z</time>
      </trkpt>
      <trkpt lat="43.2285" lon="0.18884">
        <ele>292.8</ele>
        <time>2024-04-17T14:22:13Z</time>
      </trkpt>
      <trkpt lat="43.22849" lon="0.1889">
        <ele>292.8</ele>
        <time>2024-04-17T14:22:14Z</time>
      </trkpt>
      <trkpt lat="43.22847" lon="0.18896">
        <ele>292.8</ele>
        <time>2024-04-17T14:22:15Z</time>
      </trkpt>
      <trkpt lat="43.22845" lon="0.189">
        <ele>292.6</ele>
        <time>2024-04-17T14:22:16Z</time>
      </trkpt>
      <trkpt lat="43.22843" lon="0.18904">
        <ele>292.6</ele>
        <time>2024-04-17T14:22:17Z</time>
      </trkpt>
      <trkpt lat="43.22842" lon="0.18911">
        <ele>292.6</ele>
        <time>2024-04-17T14:22:18Z</time>
      </trkpt>
      <trkpt lat="43.22844" lon="0.18916">
        <ele>292.6</ele>
        <time>2024-04-17T14:22:19Z</time>
      </trkpt>
      <trkpt lat="43.22847" lon="0.1892">
        <ele>292.4</ele>
        <time>2024-04-17T14:22:20Z</time>
      </trkpt>
      <trkpt lat="43.22852" lon="0.18926">
        <ele>292.4</ele>
        <time>2024-04-17T14:22:21Z</time>
      </trkpt>
      <trkpt lat="43.22855" lon="0.18932">
        <ele>292.4</ele>
        <time>2024-04-17T14:22:22Z</time>
      </trkpt>
      <trkpt lat="43.22859" lon="0.18938">
        <ele>292.2</ele>
        <time>2024-04-17T14:22:23Z</time>
      </trkpt>
      <trkpt lat="43.22863" lon="0.18944">
        <ele>292.2</ele>
        <time>2024-04-17T14:22:24Z</time>
      </trkpt>
      <trkpt lat="43.22865" lon="0.18948">
        <ele>292</ele>
        <time>2024-04-17T14:22:25Z</time>
      </trkpt>
      <trkpt lat="43.22867" lon="0.18953">
        <ele>291.8</ele>
        <time>2024-04-17T14:22:26Z</time>
      </trkpt>
      <trkpt lat="43.22868" lon="0.18959">
        <ele>290.6</ele>
        <time>2024-04-17T14:22:27Z</time>
      </trkpt>
      <trkpt lat="43.22869" lon="0.18963">
        <ele>290.2</ele>
        <time>2024-04-17T14:22:28Z</time>
      </trkpt>
      <trkpt lat="43.2287" lon="0.18968">
        <ele>289.8</ele>
        <time>2024-04-17T14:22:29Z</time>
      </trkpt>
      <trkpt lat="43.2287" lon="0.18972">
        <ele>288.8</ele>
        <time>2024-04-17T14:22:30Z</time>
      </trkpt>
      <trkpt lat="43.2287" lon="0.1898">
        <ele>288.2</ele>
        <time>2024-04-17T14:22:31Z</time>
      </trkpt>
      <trkpt lat="43.22871" lon="0.18988">
        <ele>287.4</ele>
        <time>2024-04-17T14:22:32Z</time>
      </trkpt>
      <trkpt lat="43.22874" lon="0.18995">
        <ele>287.2</ele>
        <time>2024-04-17T14:22:33Z</time>
      </trkpt>
      <trkpt lat="43.22877" lon="0.18999">
        <ele>286.2</ele>
        <time>2024-04-17T14:22:34Z</time>
      </trkpt>
      <trkpt lat="43.22879" lon="0.19004">
        <ele>285.8</ele>
        <time>2024-04-17T14:22:35Z</time>
      </trkpt>
      <trkpt lat="43.2288" lon="0.19009">
        <ele>284.6</ele>
        <time>2024-04-17T14:22:36Z</time>
      </trkpt>
      <trkpt lat="43.2288" lon="0.19012">
        <ele>283.6</ele>
        <time>2024-04-17T14:22:37Z</time>
      </trkpt>
      <trkpt lat="43.22879" lon="0.19015">
        <ele>283.2</ele>
        <time>2024-04-17T14:22:38Z</time>
      </trkpt>
      <trkpt lat="43.22879" lon="0.19017">
        <ele>282</ele>
        <time>2024-04-17T14:22:39Z</time>
      </trkpt>
      <trkpt lat="43.22879" lon="0.1902">
        <ele>281.6</ele>
        <time>2024-04-17T14:22:40Z</time>
      </trkpt>
      <trkpt lat="43.2288" lon="0.19022">
        <ele>280.4</ele>
        <time>2024-04-17T14:22:41Z</time>
      </trkpt>
      <trkpt lat="43.22881" lon="0.19023">
        <ele>279.8</ele>
        <time>2024-04-17T14:22:42Z</time>
      </trkpt>
      <trkpt lat="43.22882" lon="0.19023">
        <ele>279.2</ele>
        <time>2024-04-17T14:22:43Z</time>
      </trkpt>
      <trkpt lat="43.22882" lon="0.19024">
        <ele>278.8</ele>
        <time>2024-04-17T14:22:44Z</time>
      </trkpt>
      <trkpt lat="43.22884" lon="0.19024">
        <ele>278.4</ele>
        <time>2024-04-17T14:22:45Z</time>
      </trkpt>
      <trkpt lat="43.22886" lon="0.19025">
        <ele>278.2</ele>
        <time>2024-04-17T14:22:46Z</time>
      </trkpt>
      <trkpt lat="43.22888" lon="0.19025">
        <ele>278</ele>
        <time>2024-04-17T14:22:47Z</time>
      </trkpt>
      <trkpt lat="43.2289" lon="0.19026">
        <ele>277.8</ele>
        <time>2024-04-17T14:22:48Z</time>
      </trkpt>
      <trkpt lat="43.22891" lon="0.19027">
        <ele>277.8</ele>
        <time>2024-04-17T14:22:49Z</time>
      </trkpt>
      <trkpt lat="43.22893" lon="0.19028">
        <ele>277.8</ele>
        <time>2024-04-17T14:22:50Z</time>
      </trkpt>
      <trkpt lat="43.22894" lon="0.19029">
        <ele>277.8</ele>
        <time>2024-04-17T14:22:51Z</time>
      </trkpt>
      <trkpt lat="43.22896" lon="0.1903">
        <ele>277.6</ele>
        <time>2024-04-17T14:22:52Z</time>
      </trkpt>
      <trkpt lat="43.22897" lon="0.19031">
        <ele>277.6</ele>
        <time>2024-04-17T14:22:53Z</time>
      </trkpt>
      <trkpt lat="43.22899" lon="0.19031">
        <ele>277.6</ele>
        <time>2024-04-17T14:22:54Z</time>
      </trkpt>
      <trkpt lat="43.22901" lon="0.19031">
        <ele>277.6</ele>
        <time>2024-04-17T14:22:55Z</time>
      </trkpt>
      <trkpt lat="43.22903" lon="0.19032">
        <ele>277.6</ele>
        <time>2024-04-17T14:22:56Z</time>
      </trkpt>
      <trkpt lat="43.22906" lon="0.19033">
        <ele>277.6</ele>
        <time>2024-04-17T14:22:57Z</time>
      </trkpt>
      <trkpt lat="43.22909" lon="0.19033">
        <ele>277.6</ele>
        <time>2024-04-17T14:22:58Z</time>
      </trkpt>
      <trkpt lat="43.22912" lon="0.19034">
        <ele>277.6</ele>
        <time>2024-04-17T14:22:59Z</time>
      </trkpt>
      <trkpt lat="43.22915" lon="0.19034">
        <ele>277.6</ele>
        <time>2024-04-17T14:23:00Z</time>
      </trkpt>
      <trkpt lat="43.22917" lon="0.19034">
        <ele>277.6</ele>
        <time>2024-04-17T14:23:01Z</time>
      </trkpt>
      <trkpt lat="43.22918" lon="0.19035">
        <ele>277.6</ele>
        <time>2024-04-17T14:23:02Z</time>
      </trkpt>
      <trkpt lat="43.2292" lon="0.19035">
        <ele>277.8</ele>
        <time>2024-04-17T14:23:03Z</time>
      </trkpt>
      <trkpt lat="43.22921" lon="0.19036">
        <ele>277.8</ele>
        <time>2024-04-17T14:23:04Z</time>
      </trkpt>
      <trkpt lat="43.22923" lon="0.19036">
        <ele>277.8</ele>
        <time>2024-04-17T14:23:05Z</time>
      </trkpt>
      <trkpt lat="43.22925" lon="0.19034">
        <ele>278.2</ele>
        <time>2024-04-17T14:23:06Z</time>
      </trkpt>
      <trkpt lat="43.22925" lon="0.19032">
        <ele>278.2</ele>
        <time>2024-04-17T14:23:07Z</time>
      </trkpt>
      <trkpt lat="43.22925" lon="0.19032">
        <ele>278.6</ele>
        <time>2024-04-17T14:23:08Z</time>
      </trkpt>
      <trkpt lat="43.22925" lon="0.19032">
        <ele>278.6</ele>
        <time>2024-04-17T14:23:09Z</time>
      </trkpt>
      <trkpt lat="43.22925" lon="0.19032">
        <ele>278.8</ele>
        <time>2024-04-17T14:23:10Z</time>
      </trkpt>
      <trkpt lat="43.22925" lon="0.19032">
        <ele>278.8</ele>
        <time>2024-04-17T14:23:11Z</time>
      </trkpt>
      <trkpt lat="43.22925" lon="0.19032">
        <ele>279</ele>
        <time>2024-04-17T14:23:12Z</time>
      </trkpt>
      <trkpt lat="43.22925" lon="0.19032">
        <ele>279.2</ele>
        <time>2024-04-17T14:23:13Z</time>
      </trkpt>
      <trkpt lat="43.22927" lon="0.19028">
        <ele>279.4</ele>
        <time>2024-04-17T14:23:14Z</time>
      </trkpt>
      <trkpt lat="43.22926" lon="0.19024">
        <ele>279.2</ele>
        <time>2024-04-17T14:23:15Z</time>
      </trkpt>
      <trkpt lat="43.22926" lon="0.19024">
        <ele>279.6</ele>
        <time>2024-04-17T14:23:16Z</time>
      </trkpt>
      <trkpt lat="43.22926" lon="0.19022">
        <ele>279.8</ele>
        <time>2024-04-17T14:23:17Z</time>
      </trkpt>
      <trkpt lat="43.22925" lon="0.19022">
        <ele>279.6</ele>
        <time>2024-04-17T14:23:18Z</time>
      </trkpt>
      <trkpt lat="43.22925" lon="0.1902">
        <ele>279.6</ele>
        <time>2024-04-17T14:23:19Z</time>
      </trkpt>
      <trkpt lat="43.22925" lon="0.19018">
        <ele>279.8</ele>
        <time>2024-04-17T14:23:20Z</time>
      </trkpt>
      <trkpt lat="43.22924" lon="0.19017">
        <ele>280</ele>
        <time>2024-04-17T14:23:21Z</time>
      </trkpt>
      <trkpt lat="43.22924" lon="0.19017">
        <ele>280.2</ele>
        <time>2024-04-17T14:23:22Z</time>
      </trkpt>
      <trkpt lat="43.22924" lon="0.19017">
        <ele>280.2</ele>
        <time>2024-04-17T14:23:23Z</time>
      </trkpt>
      <trkpt lat="43.22924" lon="0.19017">
        <ele>280.4</ele>
        <time>2024-04-17T14:23:24Z</time>
      </trkpt>
      <trkpt lat="43.22925" lon="0.19016">
        <ele>280.6</ele>
        <time>2024-04-17T14:23:25Z</time>
      </trkpt>
      <trkpt lat="43.22925" lon="0.19015">
        <ele>280.8</ele>
        <time>2024-04-17T14:23:26Z</time>
      </trkpt>
      <trkpt lat="43.22926" lon="0.19014">
        <ele>281</ele>
        <time>2024-04-17T14:23:27Z</time>
      </trkpt>
      <trkpt lat="43.22926" lon="0.19014">
        <ele>281.2</ele>
        <time>2024-04-17T14:23:28Z</time>
      </trkpt>
      <trkpt lat="43.22928" lon="0.1901">
        <ele>281.4</ele>
        <time>2024-04-17T14:23:29Z</time>
      </trkpt>
      <trkpt lat="43.22927" lon="0.19007">
        <ele>281.4</ele>
        <time>2024-04-17T14:23:30Z</time>
      </trkpt>
      <trkpt lat="43.22927" lon="0.19006">
        <ele>281.6</ele>
        <time>2024-04-17T14:23:31Z</time>
      </trkpt>
      <trkpt lat="43.22927" lon="0.19006">
        <ele>281.8</ele>
        <time>2024-04-17T14:23:32Z</time>
      </trkpt>
      <trkpt lat="43.22927" lon="0.19006">
        <ele>282.2</ele>
        <time>2024-04-17T14:23:33Z</time>
      </trkpt>
      <trkpt lat="43.22927" lon="0.19006">
        <ele>282.2</ele>
        <time>2024-04-17T14:23:34Z</time>
      </trkpt>
      <trkpt lat="43.22927" lon="0.19006">
        <ele>282.6</ele>
        <time>2024-04-17T14:23:35Z</time>
      </trkpt>
      <trkpt lat="43.22927" lon="0.19006">
        <ele>282.8</ele>
        <time>2024-04-17T14:23:36Z</time>
      </trkpt>
      <trkpt lat="43.22927" lon="0.19006">
        <ele>282.8</ele>
        <time>2024-04-17T14:23:37Z</time>
      </trkpt>
      <trkpt lat="43.22927" lon="0.19006">
        <ele>282.8</ele>
        <time>2024-04-17T14:23:38Z</time>
      </trkpt>
      <trkpt lat="43.22927" lon="0.19006">
        <ele>283</ele>
        <time>2024-04-17T14:23:39Z</time>
      </trkpt>
      <trkpt lat="43.22927" lon="0.19005">
        <ele>283</ele>
        <time>2024-04-17T14:23:40Z</time>
      </trkpt>
      <trkpt lat="43.22927" lon="0.19004">
        <ele>283</ele>
        <time>2024-04-17T14:23:41Z</time>
      </trkpt>
      <trkpt lat="43.22927" lon="0.19004">
        <ele>283.2</ele>
        <time>2024-04-17T14:23:42Z</time>
      </trkpt>
      <trkpt lat="43.22927" lon="0.19003">
        <ele>283.2</ele>
        <time>2024-04-17T14:23:43Z</time>
      </trkpt>
      <trkpt lat="43.22928" lon="0.19003">
        <ele>283.4</ele>
        <time>2024-04-17T14:23:44Z</time>
      </trkpt>
      <trkpt lat="43.22928" lon="0.19002">
        <ele>283.6</ele>
        <time>2024-04-17T14:23:45Z</time>
      </trkpt>
      <trkpt lat="43.22928" lon="0.19002">
        <ele>283.6</ele>
        <time>2024-04-17T14:23:46Z</time>
      </trkpt>
      <trkpt lat="43.22928" lon="0.19002">
        <ele>283.8</ele>
        <time>2024-04-17T14:23:47Z</time>
      </trkpt>
      <trkpt lat="43.22928" lon="0.19">
        <ele>283.8</ele>
        <time>2024-04-17T14:23:48Z</time>
      </trkpt>
      <trkpt lat="43.22928" lon="0.18998">
        <ele>284</ele>
        <time>2024-04-17T14:23:49Z</time>
      </trkpt>
      <trkpt lat="43.22928" lon="0.18997">
        <ele>284</ele>
        <time>2024-04-17T14:23:50Z</time>
      </trkpt>
      <trkpt lat="43.22929" lon="0.18995">
        <ele>284.2</ele>
        <time>2024-04-17T14:23:51Z</time>
      </trkpt>
      <trkpt lat="43.2293" lon="0.18994">
        <ele>284.2</ele>
        <time>2024-04-17T14:23:52Z</time>
      </trkpt>
      <trkpt lat="43.2293" lon="0.18991">
        <ele>284.4</ele>
        <time>2024-04-17T14:23:53Z</time>
      </trkpt>
      <trkpt lat="43.2293" lon="0.18989">
        <ele>284.8</ele>
        <time>2024-04-17T14:23:54Z</time>
      </trkpt>
      <trkpt lat="43.2293" lon="0.18987">
        <ele>285</ele>
        <time>2024-04-17T14:23:55Z</time>
      </trkpt>
      <trkpt lat="43.2293" lon="0.18985">
        <ele>285.2</ele>
        <time>2024-04-17T14:23:56Z</time>
      </trkpt>
      <trkpt lat="43.2293" lon="0.18985">
        <ele>285.2</ele>
        <time>2024-04-17T14:23:57Z</time>
      </trkpt>
      <trkpt lat="43.2293" lon="0.18983">
        <ele>285.4</ele>
        <time>2024-04-17T14:23:58Z</time>
      </trkpt>
      <trkpt lat="43.2293" lon="0.18982">
        <ele>285.4</ele>
        <time>2024-04-17T14:23:59Z</time>
      </trkpt>
      <trkpt lat="43.2293" lon="0.18981">
        <ele>285.8</ele>
        <time>2024-04-17T14:24:00Z</time>
      </trkpt>
      <trkpt lat="43.2293" lon="0.18981">
        <ele>286.2</ele>
        <time>2024-04-17T14:24:01Z</time>
      </trkpt>
      <trkpt lat="43.2293" lon="0.18981">
        <ele>286.4</ele>
        <time>2024-04-17T14:24:02Z</time>
      </trkpt>
      <trkpt lat="43.2293" lon="0.18981">
        <ele>286.6</ele>
        <time>2024-04-17T14:24:03Z</time>
      </trkpt>
      <trkpt lat="43.2293" lon="0.18981">
        <ele>286.8</ele>
        <time>2024-04-17T14:24:04Z</time>
      </trkpt>
      <trkpt lat="43.2293" lon="0.18981">
        <ele>287</ele>
        <time>2024-04-17T14:24:05Z</time>
      </trkpt>
      <trkpt lat="43.2293" lon="0.1898">
        <ele>287</ele>
        <time>2024-04-17T14:24:06Z</time>
      </trkpt>
      <trkpt lat="43.22929" lon="0.18979">
        <ele>287.2</ele>
        <time>2024-04-17T14:24:07Z</time>
      </trkpt>
      <trkpt lat="43.2293" lon="0.18977">
        <ele>287.2</ele>
        <time>2024-04-17T14:24:08Z</time>
      </trkpt>
      <trkpt lat="43.2293" lon="0.18975">
        <ele>287.2</ele>
        <time>2024-04-17T14:24:09Z</time>
      </trkpt>
      <trkpt lat="43.2293" lon="0.18975">
        <ele>287.2</ele>
        <time>2024-04-17T14:24:10Z</time>
      </trkpt>
      <trkpt lat="43.2293" lon="0.18973">
        <ele>287.2</ele>
        <time>2024-04-17T14:24:11Z</time>
      </trkpt>
      <trkpt lat="43.2293" lon="0.18972">
        <ele>287.4</ele>
        <time>2024-04-17T14:24:12Z</time>
      </trkpt>
      <trkpt lat="43.2293" lon="0.18971">
        <ele>287.4</ele>
        <time>2024-04-17T14:24:13Z</time>
      </trkpt>
      <trkpt lat="43.22931" lon="0.1897">
        <ele>287.4</ele>
        <time>2024-04-17T14:24:14Z</time>
      </trkpt>
      <trkpt lat="43.22932" lon="0.18968">
        <ele>287.2</ele>
        <time>2024-04-17T14:24:15Z</time>
      </trkpt>
      <trkpt lat="43.22933" lon="0.18965">
        <ele>287.2</ele>
        <time>2024-04-17T14:24:16Z</time>
      </trkpt>
      <trkpt lat="43.22935" lon="0.18963">
        <ele>287.2</ele>
        <time>2024-04-17T14:24:17Z</time>
      </trkpt>
      <trkpt lat="43.22937" lon="0.18959">
        <ele>287.2</ele>
        <time>2024-04-17T14:24:18Z</time>
      </trkpt>
      <trkpt lat="43.22939" lon="0.18955">
        <ele>287.2</ele>
        <time>2024-04-17T14:24:19Z</time>
      </trkpt>
      <trkpt lat="43.22941" lon="0.18951">
        <ele>287</ele>
        <time>2024-04-17T14:24:20Z</time>
      </trkpt>
      <trkpt lat="43.22942" lon="0.18947">
        <ele>287</ele>
        <time>2024-04-17T14:24:21Z</time>
      </trkpt>
      <trkpt lat="43.22944" lon="0.18943">
        <ele>286.8</ele>
        <time>2024-04-17T14:24:22Z</time>
      </trkpt>
      <trkpt lat="43.22946" lon="0.18938">
        <ele>286.6</ele>
        <time>2024-04-17T14:24:23Z</time>
      </trkpt>
      <trkpt lat="43.22947" lon="0.18933">
        <ele>286.6</ele>
        <time>2024-04-17T14:24:24Z</time>
      </trkpt>
      <trkpt lat="43.22948" lon="0.18928">
        <ele>286.2</ele>
        <time>2024-04-17T14:24:25Z</time>
      </trkpt>
      <trkpt lat="43.22949" lon="0.18923">
        <ele>286</ele>
        <time>2024-04-17T14:24:26Z</time>
      </trkpt>
      <trkpt lat="43.2295" lon="0.1892">
        <ele>285.8</ele>
        <time>2024-04-17T14:24:27Z</time>
      </trkpt>
      <trkpt lat="43.22951" lon="0.18916">
        <ele>285.2</ele>
        <time>2024-04-17T14:24:28Z</time>
      </trkpt>
      <trkpt lat="43.22953" lon="0.18911">
        <ele>284.8</ele>
        <time>2024-04-17T14:24:29Z</time>
      </trkpt>
      <trkpt lat="43.22955" lon="0.18904">
        <ele>284.4</ele>
        <time>2024-04-17T14:24:30Z</time>
      </trkpt>
      <trkpt lat="43.22956" lon="0.18898">
        <ele>284.2</ele>
        <time>2024-04-17T14:24:31Z</time>
      </trkpt>
      <trkpt lat="43.22957" lon="0.18891">
        <ele>283.8</ele>
        <time>2024-04-17T14:24:32Z</time>
      </trkpt>
      <trkpt lat="43.22957" lon="0.18886">
        <ele>283.8</ele>
        <time>2024-04-17T14:24:33Z</time>
      </trkpt>
      <trkpt lat="43.22957" lon="0.18881">
        <ele>283.8</ele>
        <time>2024-04-17T14:24:34Z</time>
      </trkpt>
      <trkpt lat="43.22957" lon="0.18876">
        <ele>283.8</ele>
        <time>2024-04-17T14:24:35Z</time>
      </trkpt>
      <trkpt lat="43.22957" lon="0.18871">
        <ele>283.8</ele>
        <time>2024-04-17T14:24:36Z</time>
      </trkpt>
      <trkpt lat="43.22958" lon="0.18868">
        <ele>284</ele>
        <time>2024-04-17T14:24:37Z</time>
      </trkpt>
      <trkpt lat="43.22958" lon="0.18868">
        <ele>284</ele>
        <time>2024-04-17T14:24:38Z</time>
      </trkpt>
      <trkpt lat="43.22958" lon="0.18865">
        <ele>284.2</ele>
        <time>2024-04-17T14:24:39Z</time>
      </trkpt>
      <trkpt lat="43.22958" lon="0.18865">
        <ele>284.2</ele>
        <time>2024-04-17T14:24:40Z</time>
      </trkpt>
      <trkpt lat="43.22958" lon="0.18861">
        <ele>284.4</ele>
        <time>2024-04-17T14:24:41Z</time>
      </trkpt>
      <trkpt lat="43.22956" lon="0.18856">
        <ele>284.4</ele>
        <time>2024-04-17T14:24:42Z</time>
      </trkpt>
      <trkpt lat="43.22954" lon="0.18853">
        <ele>284.6</ele>
        <time>2024-04-17T14:24:43Z</time>
      </trkpt>
      <trkpt lat="43.22954" lon="0.18853">
        <ele>284.8</ele>
        <time>2024-04-17T14:24:44Z</time>
      </trkpt>
      <trkpt lat="43.22954" lon="0.18853">
        <ele>284.8</ele>
        <time>2024-04-17T14:24:45Z</time>
      </trkpt>
      <trkpt lat="43.22954" lon="0.1885">
        <ele>285</ele>
        <time>2024-04-17T14:24:46Z</time>
      </trkpt>
      <trkpt lat="43.22955" lon="0.1885">
        <ele>285</ele>
        <time>2024-04-17T14:24:47Z</time>
      </trkpt>
      <trkpt lat="43.22955" lon="0.1885">
        <ele>285.2</ele>
        <time>2024-04-17T14:24:48Z</time>
      </trkpt>
      <trkpt lat="43.22954" lon="0.18847">
        <ele>285.4</ele>
        <time>2024-04-17T14:24:49Z</time>
      </trkpt>
      <trkpt lat="43.22951" lon="0.18844">
        <ele>285.6</ele>
        <time>2024-04-17T14:24:50Z</time>
      </trkpt>
      <trkpt lat="43.22949" lon="0.18842">
        <ele>286</ele>
        <time>2024-04-17T14:24:51Z</time>
      </trkpt>
      <trkpt lat="43.22949" lon="0.18841">
        <ele>286.2</ele>
        <time>2024-04-17T14:24:52Z</time>
      </trkpt>
      <trkpt lat="43.22948" lon="0.18839">
        <ele>286.6</ele>
        <time>2024-04-17T14:24:53Z</time>
      </trkpt>
      <trkpt lat="43.22948" lon="0.18839">
        <ele>286.6</ele>
        <time>2024-04-17T14:24:54Z</time>
      </trkpt>
      <trkpt lat="43.22948" lon="0.18839">
        <ele>287</ele>
        <time>2024-04-17T14:24:55Z</time>
      </trkpt>
      <trkpt lat="43.22948" lon="0.18839">
        <ele>287</ele>
        <time>2024-04-17T14:24:56Z</time>
      </trkpt>
      <trkpt lat="43.22948" lon="0.18839">
        <ele>287.2</ele>
        <time>2024-04-17T14:24:57Z</time>
      </trkpt>
      <trkpt lat="43.22948" lon="0.18839">
        <ele>287.2</ele>
        <time>2024-04-17T14:24:58Z</time>
      </trkpt>
      <trkpt lat="43.22948" lon="0.18839">
        <ele>287.2</ele>
        <time>2024-04-17T14:24:59Z</time>
      </trkpt>
      <trkpt lat="43.22948" lon="0.18839">
        <ele>287.4</ele>
        <time>2024-04-17T14:25:00Z</time>
      </trkpt>
      <trkpt lat="43.22948" lon="0.18839">
        <ele>287.4</ele>
        <time>2024-04-17T14:25:01Z</time>
      </trkpt>
      <trkpt lat="43.22948" lon="0.18839">
        <ele>287.2</ele>
        <time>2024-04-17T14:25:02Z</time>
      </trkpt>
      <trkpt lat="43.22948" lon="0.18839">
        <ele>287.2</ele>
        <time>2024-04-17T14:25:03Z</time>
      </trkpt>
      <trkpt lat="43.22948" lon="0.18839">
        <ele>287.2</ele>
        <time>2024-04-17T14:25:04Z</time>
      </trkpt>
      <trkpt lat="43.22948" lon="0.18839">
        <ele>287.2</ele>
        <time>2024-04-17T14:25:05Z</time>
      </trkpt>
      <trkpt lat="43.22948" lon="0.18839">
        <ele>287.2</ele>
        <time>2024-04-17T14:25:06Z</time>
      </trkpt>
      <trkpt lat="43.22948" lon="0.18839">
        <ele>287.2</ele>
        <time>2024-04-17T14:25:07Z</time>
      </trkpt>
      <trkpt lat="43.22948" lon="0.18839">
        <ele>287.2</ele>
        <time>2024-04-17T14:25:08Z</time>
      </trkpt>
      <trkpt lat="43.22948" lon="0.18839">
        <ele>287.2</ele>
        <time>2024-04-17T14:25:09Z</time>
      </trkpt>
      <trkpt lat="43.22948" lon="0.18839">
        <ele>287.2</ele>
        <time>2024-04-17T14:25:10Z</time>
      </trkpt>
      <trkpt lat="43.22948" lon="0.18839">
        <ele>287.2</ele>
        <time>2024-04-17T14:25:11Z</time>
      </trkpt>
      <trkpt lat="43.22948" lon="0.18839">
        <ele>287.2</ele>
        <time>2024-04-17T14:25:12Z</time>
      </trkpt>
      <trkpt lat="43.22948" lon="0.18839">
        <ele>287.2</ele>
        <time>2024-04-17T14:25:13Z</time>
      </trkpt>
      <trkpt lat="43.22948" lon="0.18839">
        <ele>287.2</ele>
        <time>2024-04-17T14:25:14Z</time>
      </trkpt>
      <trkpt lat="43.22948" lon="0.18839">
        <ele>287.2</ele>
        <time>2024-04-17T14:25:15Z</time>
      </trkpt>
      <trkpt lat="43.22948" lon="0.18839">
        <ele>287.2</ele>
        <time>2024-04-17T14:25:16Z</time>
      </trkpt>
      <trkpt lat="43.22948" lon="0.18839">
        <ele>287</ele>
        <time>2024-04-17T14:25:17Z</time>
      </trkpt>
      <trkpt lat="43.22948" lon="0.18836">
        <ele>287</ele>
        <time>2024-04-17T14:25:18Z</time>
      </trkpt>
      <trkpt lat="43.22948" lon="0.18833">
        <ele>287</ele>
        <time>2024-04-17T14:25:19Z</time>
      </trkpt>
      <trkpt lat="43.22949" lon="0.1883">
        <ele>287</ele>
        <time>2024-04-17T14:25:20Z</time>
      </trkpt>
      <trkpt lat="43.22949" lon="0.18826">
        <ele>287</ele>
        <time>2024-04-17T14:25:21Z</time>
      </trkpt>
      <trkpt lat="43.22949" lon="0.18822">
        <ele>286.8</ele>
        <time>2024-04-17T14:25:22Z</time>
      </trkpt>
      <trkpt lat="43.22948" lon="0.18819">
        <ele>286.8</ele>
        <time>2024-04-17T14:25:23Z</time>
      </trkpt>
      <trkpt lat="43.22946" lon="0.18817">
        <ele>286.8</ele>
        <time>2024-04-17T14:25:24Z</time>
      </trkpt>
      <trkpt lat="43.22945" lon="0.18814">
        <ele>286.8</ele>
        <time>2024-04-17T14:25:25Z</time>
      </trkpt>
      <trkpt lat="43.22942" lon="0.1881">
        <ele>286.6</ele>
        <time>2024-04-17T14:25:26Z</time>
      </trkpt>
      <trkpt lat="43.22941" lon="0.18807">
        <ele>286.6</ele>
        <time>2024-04-17T14:25:27Z</time>
      </trkpt>
      <trkpt lat="43.2294" lon="0.18806">
        <ele>286.6</ele>
        <time>2024-04-17T14:25:28Z</time>
      </trkpt>
      <trkpt lat="43.2294" lon="0.18805">
        <ele>286.6</ele>
        <time>2024-04-17T14:25:29Z</time>
      </trkpt>
      <trkpt lat="43.22939" lon="0.18802">
        <ele>286.8</ele>
        <time>2024-04-17T14:25:30Z</time>
      </trkpt>
      <trkpt lat="43.22937" lon="0.18797">
        <ele>287</ele>
        <time>2024-04-17T14:25:31Z</time>
      </trkpt>
      <trkpt lat="43.22937" lon="0.18795">
        <ele>287.2</ele>
        <time>2024-04-17T14:25:32Z</time>
      </trkpt>
      <trkpt lat="43.22938" lon="0.18793">
        <ele>287.6</ele>
        <time>2024-04-17T14:25:33Z</time>
      </trkpt>
      <trkpt lat="43.22939" lon="0.18787">
        <ele>287.6</ele>
        <time>2024-04-17T14:25:34Z</time>
      </trkpt>
      <trkpt lat="43.22938" lon="0.18783">
        <ele>287.8</ele>
        <time>2024-04-17T14:25:35Z</time>
      </trkpt>
      <trkpt lat="43.22938" lon="0.18777">
        <ele>287.8</ele>
        <time>2024-04-17T14:25:36Z</time>
      </trkpt>
      <trkpt lat="43.22938" lon="0.18771">
        <ele>287.8</ele>
        <time>2024-04-17T14:25:37Z</time>
      </trkpt>
      <trkpt lat="43.22939" lon="0.18765">
        <ele>287.8</ele>
        <time>2024-04-17T14:25:38Z</time>
      </trkpt>
      <trkpt lat="43.2294" lon="0.18759">
        <ele>287.8</ele>
        <time>2024-04-17T14:25:39Z</time>
      </trkpt>
      <trkpt lat="43.22941" lon="0.18755">
        <ele>287.8</ele>
        <time>2024-04-17T14:25:40Z</time>
      </trkpt>
      <trkpt lat="43.22942" lon="0.18752">
        <ele>287.4</ele>
        <time>2024-04-17T14:25:41Z</time>
      </trkpt>
      <trkpt lat="43.22943" lon="0.18751">
        <ele>286.8</ele>
        <time>2024-04-17T14:25:42Z</time>
      </trkpt>
      <trkpt lat="43.22946" lon="0.1875">
        <ele>286.2</ele>
        <time>2024-04-17T14:25:43Z</time>
      </trkpt>
      <trkpt lat="43.22949" lon="0.18748">
        <ele>285.6</ele>
        <time>2024-04-17T14:25:44Z</time>
      </trkpt>
      <trkpt lat="43.22951" lon="0.18745">
        <ele>284.8</ele>
        <time>2024-04-17T14:25:45Z</time>
      </trkpt>
      <trkpt lat="43.22954" lon="0.18743">
        <ele>284.6</ele>
        <time>2024-04-17T14:25:46Z</time>
      </trkpt>
      <trkpt lat="43.22958" lon="0.1874">
        <ele>283.6</ele>
        <time>2024-04-17T14:25:47Z</time>
      </trkpt>
      <trkpt lat="43.22961" lon="0.18739">
        <ele>283.2</ele>
        <time>2024-04-17T14:25:48Z</time>
      </trkpt>
      <trkpt lat="43.22964" lon="0.18739">
        <ele>282.6</ele>
        <time>2024-04-17T14:25:49Z</time>
      </trkpt>
      <trkpt lat="43.22965" lon="0.18738">
        <ele>282.4</ele>
        <time>2024-04-17T14:25:50Z</time>
      </trkpt>
      <trkpt lat="43.22965" lon="0.18738">
        <ele>282.4</ele>
        <time>2024-04-17T14:25:51Z</time>
      </trkpt>
      <trkpt lat="43.22965" lon="0.18738">
        <ele>282.2</ele>
        <time>2024-04-17T14:25:52Z</time>
      </trkpt>
      <trkpt lat="43.22965" lon="0.18738">
        <ele>282.2</ele>
        <time>2024-04-17T14:25:53Z</time>
      </trkpt>
      <trkpt lat="43.22965" lon="0.18738">
        <ele>282.2</ele>
        <time>2024-04-17T14:25:54Z</time>
      </trkpt>
      <trkpt lat="43.22966" lon="0.18737">
        <ele>282.2</ele>
        <time>2024-04-17T14:25:55Z</time>
      </trkpt>
      <trkpt lat="43.22967" lon="0.18737">
        <ele>282.4</ele>
        <time>2024-04-17T14:25:56Z</time>
      </trkpt>
      <trkpt lat="43.22968" lon="0.18734">
        <ele>282.6</ele>
        <time>2024-04-17T14:25:57Z</time>
      </trkpt>
      <trkpt lat="43.22969" lon="0.18735">
        <ele>282.6</ele>
        <time>2024-04-17T14:25:58Z</time>
      </trkpt>
      <trkpt lat="43.2297" lon="0.18734">
        <ele>283</ele>
        <time>2024-04-17T14:25:59Z</time>
      </trkpt>
      <trkpt lat="43.22971" lon="0.18733">
        <ele>283</ele>
        <time>2024-04-17T14:26:00Z</time>
      </trkpt>
      <trkpt lat="43.22972" lon="0.18733">
        <ele>283.4</ele>
        <time>2024-04-17T14:26:01Z</time>
      </trkpt>
      <trkpt lat="43.22973" lon="0.18733">
        <ele>283.8</ele>
        <time>2024-04-17T14:26:02Z</time>
      </trkpt>
      <trkpt lat="43.22973" lon="0.18733">
        <ele>284.2</ele>
        <time>2024-04-17T14:26:03Z</time>
      </trkpt>
      <trkpt lat="43.22973" lon="0.18733">
        <ele>284.4</ele>
        <time>2024-04-17T14:26:04Z</time>
      </trkpt>
      <trkpt lat="43.22974" lon="0.18733">
        <ele>284.6</ele>
        <time>2024-04-17T14:26:05Z</time>
      </trkpt>
      <trkpt lat="43.22974" lon="0.18733">
        <ele>284.8</ele>
        <time>2024-04-17T14:26:06Z</time>
      </trkpt>
      <trkpt lat="43.22975" lon="0.18733">
        <ele>285</ele>
        <time>2024-04-17T14:26:07Z</time>
      </trkpt>
      <trkpt lat="43.22975" lon="0.18733">
        <ele>285.2</ele>
        <time>2024-04-17T14:26:08Z</time>
      </trkpt>
      <trkpt lat="43.22975" lon="0.18733">
        <ele>285.2</ele>
        <time>2024-04-17T14:26:09Z</time>
      </trkpt>
      <trkpt lat="43.22976" lon="0.18733">
        <ele>285.4</ele>
        <time>2024-04-17T14:26:10Z</time>
      </trkpt>
      <trkpt lat="43.22978" lon="0.18734">
        <ele>285.6</ele>
        <time>2024-04-17T14:26:11Z</time>
      </trkpt>
      <trkpt lat="43.22979" lon="0.18734">
        <ele>285.8</ele>
        <time>2024-04-17T14:26:12Z</time>
      </trkpt>
      <trkpt lat="43.2298" lon="0.18735">
        <ele>285.8</ele>
        <time>2024-04-17T14:26:13Z</time>
      </trkpt>
      <trkpt lat="43.2298" lon="0.18735">
        <ele>286</ele>
        <time>2024-04-17T14:26:14Z</time>
      </trkpt>
      <trkpt lat="43.22981" lon="0.18735">
        <ele>286</ele>
        <time>2024-04-17T14:26:15Z</time>
      </trkpt>
      <trkpt lat="43.22982" lon="0.18735">
        <ele>286.2</ele>
        <time>2024-04-17T14:26:16Z</time>
      </trkpt>
      <trkpt lat="43.22984" lon="0.18736">
        <ele>286.6</ele>
        <time>2024-04-17T14:26:17Z</time>
      </trkpt>
      <trkpt lat="43.22984" lon="0.18735">
        <ele>286.6</ele>
        <time>2024-04-17T14:26:18Z</time>
      </trkpt>
      <trkpt lat="43.22985" lon="0.18736">
        <ele>286.8</ele>
        <time>2024-04-17T14:26:19Z</time>
      </trkpt>
      <trkpt lat="43.22986" lon="0.18737">
        <ele>287</ele>
        <time>2024-04-17T14:26:20Z</time>
      </trkpt>
      <trkpt lat="43.22986" lon="0.18737">
        <ele>287.4</ele>
        <time>2024-04-17T14:26:21Z</time>
      </trkpt>
      <trkpt lat="43.22987" lon="0.18737">
        <ele>287.6</ele>
        <time>2024-04-17T14:26:22Z</time>
      </trkpt>
      <trkpt lat="43.22987" lon="0.18737">
        <ele>287.8</ele>
        <time>2024-04-17T14:26:23Z</time>
      </trkpt>
      <trkpt lat="43.22989" lon="0.18737">
        <ele>288.2</ele>
        <time>2024-04-17T14:26:24Z</time>
      </trkpt>
      <trkpt lat="43.22991" lon="0.18737">
        <ele>288.4</ele>
        <time>2024-04-17T14:26:25Z</time>
      </trkpt>
      <trkpt lat="43.22993" lon="0.18737">
        <ele>288.4</ele>
        <time>2024-04-17T14:26:26Z</time>
      </trkpt>
      <trkpt lat="43.22993" lon="0.18737">
        <ele>288.4</ele>
        <time>2024-04-17T14:26:27Z</time>
      </trkpt>
      <trkpt lat="43.22993" lon="0.18737">
        <ele>288.8</ele>
        <time>2024-04-17T14:26:28Z</time>
      </trkpt>
      <trkpt lat="43.22995" lon="0.18736">
        <ele>289</ele>
        <time>2024-04-17T14:26:29Z</time>
      </trkpt>
      <trkpt lat="43.22996" lon="0.18736">
        <ele>289.6</ele>
        <time>2024-04-17T14:26:30Z</time>
      </trkpt>
      <trkpt lat="43.22998" lon="0.18737">
        <ele>289.8</ele>
        <time>2024-04-17T14:26:31Z</time>
      </trkpt>
      <trkpt lat="43.22999" lon="0.18738">
        <ele>289.8</ele>
        <time>2024-04-17T14:26:32Z</time>
      </trkpt>
      <trkpt lat="43.22999" lon="0.18738">
        <ele>290.2</ele>
        <time>2024-04-17T14:26:33Z</time>
      </trkpt>
      <trkpt lat="43.23" lon="0.18739">
        <ele>290.4</ele>
        <time>2024-04-17T14:26:34Z</time>
      </trkpt>
      <trkpt lat="43.23001" lon="0.1874">
        <ele>290.6</ele>
        <time>2024-04-17T14:26:35Z</time>
      </trkpt>
      <trkpt lat="43.23003" lon="0.18741">
        <ele>290.6</ele>
        <time>2024-04-17T14:26:36Z</time>
      </trkpt>
      <trkpt lat="43.23004" lon="0.18741">
        <ele>290.8</ele>
        <time>2024-04-17T14:26:37Z</time>
      </trkpt>
      <trkpt lat="43.23006" lon="0.18741">
        <ele>291</ele>
        <time>2024-04-17T14:26:38Z</time>
      </trkpt>
      <trkpt lat="43.23007" lon="0.1874">
        <ele>291.4</ele>
        <time>2024-04-17T14:26:39Z</time>
      </trkpt>
      <trkpt lat="43.23007" lon="0.1874">
        <ele>291.6</ele>
        <time>2024-04-17T14:26:40Z</time>
      </trkpt>
      <trkpt lat="43.23008" lon="0.18739">
        <ele>291.8</ele>
        <time>2024-04-17T14:26:41Z</time>
      </trkpt>
      <trkpt lat="43.23011" lon="0.1874">
        <ele>292.2</ele>
        <time>2024-04-17T14:26:42Z</time>
      </trkpt>
      <trkpt lat="43.23014" lon="0.18738">
        <ele>292.2</ele>
        <time>2024-04-17T14:26:43Z</time>
      </trkpt>
      <trkpt lat="43.23016" lon="0.18739">
        <ele>292.6</ele>
        <time>2024-04-17T14:26:44Z</time>
      </trkpt>
      <trkpt lat="43.23018" lon="0.18739">
        <ele>292.6</ele>
        <time>2024-04-17T14:26:45Z</time>
      </trkpt>
      <trkpt lat="43.23019" lon="0.18739">
        <ele>292.8</ele>
        <time>2024-04-17T14:26:46Z</time>
      </trkpt>
      <trkpt lat="43.2302" lon="0.18738">
        <ele>293</ele>
        <time>2024-04-17T14:26:47Z</time>
      </trkpt>
      <trkpt lat="43.23022" lon="0.18738">
        <ele>293</ele>
        <time>2024-04-17T14:26:48Z</time>
      </trkpt>
      <trkpt lat="43.23025" lon="0.18738">
        <ele>293.4</ele>
        <time>2024-04-17T14:26:49Z</time>
      </trkpt>
      <trkpt lat="43.23026" lon="0.18737">
        <ele>293.6</ele>
        <time>2024-04-17T14:26:50Z</time>
      </trkpt>
      <trkpt lat="43.23027" lon="0.18738">
        <ele>293.8</ele>
        <time>2024-04-17T14:26:51Z</time>
      </trkpt>
      <trkpt lat="43.23028" lon="0.18739">
        <ele>293.8</ele>
        <time>2024-04-17T14:26:52Z</time>
      </trkpt>
      <trkpt lat="43.23031" lon="0.1874">
        <ele>293.8</ele>
        <time>2024-04-17T14:26:53Z</time>
      </trkpt>
      <trkpt lat="43.23032" lon="0.18741">
        <ele>294</ele>
        <time>2024-04-17T14:26:54Z</time>
      </trkpt>
      <trkpt lat="43.23034" lon="0.18742">
        <ele>294.2</ele>
        <time>2024-04-17T14:26:55Z</time>
      </trkpt>
      <trkpt lat="43.23036" lon="0.18743">
        <ele>294.6</ele>
        <time>2024-04-17T14:26:56Z</time>
      </trkpt>
      <trkpt lat="43.23036" lon="0.18744">
        <ele>294.6</ele>
        <time>2024-04-17T14:26:57Z</time>
      </trkpt>
      <trkpt lat="43.23037" lon="0.18746">
        <ele>294.8</ele>
        <time>2024-04-17T14:26:58Z</time>
      </trkpt>
      <trkpt lat="43.23037" lon="0.18748">
        <ele>294.8</ele>
        <time>2024-04-17T14:26:59Z</time>
      </trkpt>
      <trkpt lat="43.23037" lon="0.18751">
        <ele>294.8</ele>
        <time>2024-04-17T14:27:00Z</time>
      </trkpt>
      <trkpt lat="43.23037" lon="0.18755">
        <ele>294.8</ele>
        <time>2024-04-17T14:27:01Z</time>
      </trkpt>
      <trkpt lat="43.23037" lon="0.18759">
        <ele>294.8</ele>
        <time>2024-04-17T14:27:02Z</time>
      </trkpt>
      <trkpt lat="43.23036" lon="0.18762">
        <ele>294.8</ele>
        <time>2024-04-17T14:27:03Z</time>
      </trkpt>
      <trkpt lat="43.23036" lon="0.18767">
        <ele>294.8</ele>
        <time>2024-04-17T14:27:04Z</time>
      </trkpt>
      <trkpt lat="43.23036" lon="0.18771">
        <ele>294.6</ele>
        <time>2024-04-17T14:27:05Z</time>
      </trkpt>
      <trkpt lat="43.23036" lon="0.18775">
        <ele>294.6</ele>
        <time>2024-04-17T14:27:06Z</time>
      </trkpt>
      <trkpt lat="43.23037" lon="0.1878">
        <ele>294.4</ele>
        <time>2024-04-17T14:27:07Z</time>
      </trkpt>
      <trkpt lat="43.23037" lon="0.18785">
        <ele>294.4</ele>
        <time>2024-04-17T14:27:08Z</time>
      </trkpt>
      <trkpt lat="43.23037" lon="0.1879">
        <ele>294</ele>
        <time>2024-04-17T14:27:09Z</time>
      </trkpt>
      <trkpt lat="43.23037" lon="0.18795">
        <ele>294</ele>
        <time>2024-04-17T14:27:10Z</time>
      </trkpt>
      <trkpt lat="43.23037" lon="0.188">
        <ele>293.8</ele>
        <time>2024-04-17T14:27:11Z</time>
      </trkpt>
      <trkpt lat="43.23036" lon="0.18805">
        <ele>293.8</ele>
        <time>2024-04-17T14:27:12Z</time>
      </trkpt>
      <trkpt lat="43.23037" lon="0.1881">
        <ele>293.8</ele>
        <time>2024-04-17T14:27:13Z</time>
      </trkpt>
      <trkpt lat="43.23037" lon="0.18816">
        <ele>293.6</ele>
        <time>2024-04-17T14:27:14Z</time>
      </trkpt>
      <trkpt lat="43.23037" lon="0.18822">
        <ele>293.6</ele>
        <time>2024-04-17T14:27:15Z</time>
      </trkpt>
      <trkpt lat="43.23037" lon="0.18828">
        <ele>293.4</ele>
        <time>2024-04-17T14:27:16Z</time>
      </trkpt>
      <trkpt lat="43.23038" lon="0.18834">
        <ele>293.4</ele>
        <time>2024-04-17T14:27:17Z</time>
      </trkpt>
      <trkpt lat="43.23038" lon="0.18839">
        <ele>293.4</ele>
        <time>2024-04-17T14:27:18Z</time>
      </trkpt>
      <trkpt lat="43.23038" lon="0.18845">
        <ele>293.4</ele>
        <time>2024-04-17T14:27:19Z</time>
      </trkpt>
      <trkpt lat="43.23038" lon="0.1885">
        <ele>293.2</ele>
        <time>2024-04-17T14:27:20Z</time>
      </trkpt>
      <trkpt lat="43.23038" lon="0.18856">
        <ele>293.2</ele>
        <time>2024-04-17T14:27:21Z</time>
      </trkpt>
      <trkpt lat="43.23038" lon="0.18861">
        <ele>293.2</ele>
        <time>2024-04-17T14:27:22Z</time>
      </trkpt>
      <trkpt lat="43.23038" lon="0.18866">
        <ele>293.2</ele>
        <time>2024-04-17T14:27:23Z</time>
      </trkpt>
      <trkpt lat="43.23038" lon="0.18871">
        <ele>293.2</ele>
        <time>2024-04-17T14:27:24Z</time>
      </trkpt>
      <trkpt lat="43.23038" lon="0.18876">
        <ele>293.2</ele>
        <time>2024-04-17T14:27:25Z</time>
      </trkpt>
      <trkpt lat="43.23038" lon="0.18881">
        <ele>293.2</ele>
        <time>2024-04-17T14:27:26Z</time>
      </trkpt>
      <trkpt lat="43.23038" lon="0.18886">
        <ele>293.2</ele>
        <time>2024-04-17T14:27:27Z</time>
      </trkpt>
      <trkpt lat="43.23038" lon="0.18891">
        <ele>293.2</ele>
        <time>2024-04-17T14:27:28Z</time>
      </trkpt>
      <trkpt lat="43.23038" lon="0.18896">
        <ele>293.2</ele>
        <time>2024-04-17T14:27:29Z</time>
      </trkpt>
      <trkpt lat="43.23038" lon="0.18901">
        <ele>293.2</ele>
        <time>2024-04-17T14:27:30Z</time>
      </trkpt>
      <trkpt lat="43.23038" lon="0.18906">
        <ele>293.2</ele>
        <time>2024-04-17T14:27:31Z</time>
      </trkpt>
      <trkpt lat="43.23038" lon="0.18911">
        <ele>293</ele>
        <time>2024-04-17T14:27:32Z</time>
      </trkpt>
      <trkpt lat="43.23038" lon="0.18916">
        <ele>293</ele>
        <time>2024-04-17T14:27:33Z</time>
      </trkpt>
      <trkpt lat="43.23038" lon="0.18921">
        <ele>293</ele>
        <time>2024-04-17T14:27:34Z</time>
      </trkpt>
      <trkpt lat="43.23037" lon="0.18926">
        <ele>293</ele>
        <time>2024-04-17T14:27:35Z</time>
      </trkpt>
      <trkpt lat="43.23037" lon="0.18931">
        <ele>292.8</ele>
        <time>2024-04-17T14:27:36Z</time>
      </trkpt>
      <trkpt lat="43.23036" lon="0.18935">
        <ele>292.6</ele>
        <time>2024-04-17T14:27:37Z</time>
      </trkpt>
      <trkpt lat="43.23035" lon="0.1894">
        <ele>292.6</ele>
        <time>2024-04-17T14:27:38Z</time>
      </trkpt>
      <trkpt lat="43.23033" lon="0.18944">
        <ele>292.6</ele>
        <time>2024-04-17T14:27:39Z</time>
      </trkpt>
      <trkpt lat="43.23032" lon="0.18948">
        <ele>292.6</ele>
        <time>2024-04-17T14:27:40Z</time>
      </trkpt>
      <trkpt lat="43.23029" lon="0.18952">
        <ele>292.4</ele>
        <time>2024-04-17T14:27:41Z</time>
      </trkpt>
      <trkpt lat="43.23027" lon="0.18956">
        <ele>292.4</ele>
        <time>2024-04-17T14:27:42Z</time>
      </trkpt>
      <trkpt lat="43.23025" lon="0.1896">
        <ele>292.4</ele>
        <time>2024-04-17T14:27:43Z</time>
      </trkpt>
      <trkpt lat="43.23022" lon="0.18965">
        <ele>292.4</ele>
        <time>2024-04-17T14:27:44Z</time>
      </trkpt>
      <trkpt lat="43.2302" lon="0.18968">
        <ele>292.4</ele>
        <time>2024-04-17T14:27:45Z</time>
      </trkpt>
      <trkpt lat="43.23018" lon="0.18972">
        <ele>292.4</ele>
        <time>2024-04-17T14:27:46Z</time>
      </trkpt>
      <trkpt lat="43.23016" lon="0.18976">
        <ele>292.4</ele>
        <time>2024-04-17T14:27:47Z</time>
      </trkpt>
      <trkpt lat="43.23015" lon="0.1898">
        <ele>292.4</ele>
        <time>2024-04-17T14:27:48Z</time>
      </trkpt>
      <trkpt lat="43.23013" lon="0.18985">
        <ele>292.4</ele>
        <time>2024-04-17T14:27:49Z</time>
      </trkpt>
      <trkpt lat="43.23013" lon="0.1899">
        <ele>292.4</ele>
        <time>2024-04-17T14:27:50Z</time>
      </trkpt>
      <trkpt lat="43.23013" lon="0.18995">
        <ele>292.4</ele>
        <time>2024-04-17T14:27:51Z</time>
      </trkpt>
      <trkpt lat="43.23014" lon="0.19">
        <ele>292.4</ele>
        <time>2024-04-17T14:27:52Z</time>
      </trkpt>
      <trkpt lat="43.23015" lon="0.19005">
        <ele>292.2</ele>
        <time>2024-04-17T14:27:53Z</time>
      </trkpt>
      <trkpt lat="43.23015" lon="0.19011">
        <ele>292.2</ele>
        <time>2024-04-17T14:27:54Z</time>
      </trkpt>
      <trkpt lat="43.23016" lon="0.19017">
        <ele>292.2</ele>
        <time>2024-04-17T14:27:55Z</time>
      </trkpt>
      <trkpt lat="43.23016" lon="0.19022">
        <ele>292.2</ele>
        <time>2024-04-17T14:27:56Z</time>
      </trkpt>
      <trkpt lat="43.23017" lon="0.19028">
        <ele>292.2</ele>
        <time>2024-04-17T14:27:57Z</time>
      </trkpt>
      <trkpt lat="43.23017" lon="0.19034">
        <ele>292.2</ele>
        <time>2024-04-17T14:27:58Z</time>
      </trkpt>
      <trkpt lat="43.23018" lon="0.1904">
        <ele>292</ele>
        <time>2024-04-17T14:27:59Z</time>
      </trkpt>
      <trkpt lat="43.23018" lon="0.19046">
        <ele>292</ele>
        <time>2024-04-17T14:28:00Z</time>
      </trkpt>
      <trkpt lat="43.23018" lon="0.19052">
        <ele>291.8</ele>
        <time>2024-04-17T14:28:01Z</time>
      </trkpt>
      <trkpt lat="43.23018" lon="0.19058">
        <ele>291.8</ele>
        <time>2024-04-17T14:28:02Z</time>
      </trkpt>
      <trkpt lat="43.23018" lon="0.19064">
        <ele>291.6</ele>
        <time>2024-04-17T14:28:03Z</time>
      </trkpt>
      <trkpt lat="43.23018" lon="0.1907">
        <ele>291.6</ele>
        <time>2024-04-17T14:28:04Z</time>
      </trkpt>
      <trkpt lat="43.23018" lon="0.19076">
        <ele>291.6</ele>
        <time>2024-04-17T14:28:05Z</time>
      </trkpt>
      <trkpt lat="43.23019" lon="0.19083">
        <ele>291.4</ele>
        <time>2024-04-17T14:28:06Z</time>
      </trkpt>
      <trkpt lat="43.23019" lon="0.19089">
        <ele>291.4</ele>
        <time>2024-04-17T14:28:07Z</time>
      </trkpt>
      <trkpt lat="43.2302" lon="0.19096">
        <ele>291.4</ele>
        <time>2024-04-17T14:28:08Z</time>
      </trkpt>
      <trkpt lat="43.23021" lon="0.19103">
        <ele>291.4</ele>
        <time>2024-04-17T14:28:09Z</time>
      </trkpt>
      <trkpt lat="43.23022" lon="0.1911">
        <ele>291.4</ele>
        <time>2024-04-17T14:28:10Z</time>
      </trkpt>
      <trkpt lat="43.23023" lon="0.19116">
        <ele>291.4</ele>
        <time>2024-04-17T14:28:11Z</time>
      </trkpt>
      <trkpt lat="43.23023" lon="0.19123">
        <ele>291.4</ele>
        <time>2024-04-17T14:28:12Z</time>
      </trkpt>
      <trkpt lat="43.23024" lon="0.19129">
        <ele>291.2</ele>
        <time>2024-04-17T14:28:13Z</time>
      </trkpt>
      <trkpt lat="43.23025" lon="0.19135">
        <ele>291.2</ele>
        <time>2024-04-17T14:28:14Z</time>
      </trkpt>
      <trkpt lat="43.23026" lon="0.19142">
        <ele>291.2</ele>
        <time>2024-04-17T14:28:15Z</time>
      </trkpt>
      <trkpt lat="43.23027" lon="0.19148">
        <ele>291</ele>
        <time>2024-04-17T14:28:16Z</time>
      </trkpt>
      <trkpt lat="43.23029" lon="0.19154">
        <ele>291.2</ele>
        <time>2024-04-17T14:28:17Z</time>
      </trkpt>
      <trkpt lat="43.2303" lon="0.19159">
        <ele>291</ele>
        <time>2024-04-17T14:28:18Z</time>
      </trkpt>
      <trkpt lat="43.2303" lon="0.19165">
        <ele>291</ele>
        <time>2024-04-17T14:28:19Z</time>
      </trkpt>
      <trkpt lat="43.23032" lon="0.19171">
        <ele>291</ele>
        <time>2024-04-17T14:28:20Z</time>
      </trkpt>
      <trkpt lat="43.23033" lon="0.19176">
        <ele>291</ele>
        <time>2024-04-17T14:28:21Z</time>
      </trkpt>
      <trkpt lat="43.23034" lon="0.19182">
        <ele>290.8</ele>
        <time>2024-04-17T14:28:22Z</time>
      </trkpt>
      <trkpt lat="43.23036" lon="0.19188">
        <ele>290.8</ele>
        <time>2024-04-17T14:28:23Z</time>
      </trkpt>
      <trkpt lat="43.23037" lon="0.19194">
        <ele>290.8</ele>
        <time>2024-04-17T14:28:24Z</time>
      </trkpt>
      <trkpt lat="43.23039" lon="0.19201">
        <ele>290.8</ele>
        <time>2024-04-17T14:28:25Z</time>
      </trkpt>
      <trkpt lat="43.2304" lon="0.19207">
        <ele>290.6</ele>
        <time>2024-04-17T14:28:26Z</time>
      </trkpt>
      <trkpt lat="43.23042" lon="0.19213">
        <ele>290.6</ele>
        <time>2024-04-17T14:28:27Z</time>
      </trkpt>
      <trkpt lat="43.23044" lon="0.19218">
        <ele>290.6</ele>
        <time>2024-04-17T14:28:28Z</time>
      </trkpt>
      <trkpt lat="43.23045" lon="0.19224">
        <ele>290.4</ele>
        <time>2024-04-17T14:28:29Z</time>
      </trkpt>
      <trkpt lat="43.23047" lon="0.19229">
        <ele>290.4</ele>
        <time>2024-04-17T14:28:30Z</time>
      </trkpt>
      <trkpt lat="43.23049" lon="0.19235">
        <ele>290.2</ele>
        <time>2024-04-17T14:28:31Z</time>
      </trkpt>
      <trkpt lat="43.2305" lon="0.1924">
        <ele>290.2</ele>
        <time>2024-04-17T14:28:32Z</time>
      </trkpt>
      <trkpt lat="43.23052" lon="0.19246">
        <ele>290.2</ele>
        <time>2024-04-17T14:28:33Z</time>
      </trkpt>
      <trkpt lat="43.23054" lon="0.19252">
        <ele>290.2</ele>
        <time>2024-04-17T14:28:34Z</time>
      </trkpt>
      <trkpt lat="43.23055" lon="0.19257">
        <ele>290</ele>
        <time>2024-04-17T14:28:35Z</time>
      </trkpt>
      <trkpt lat="43.23056" lon="0.19263">
        <ele>290</ele>
        <time>2024-04-17T14:28:36Z</time>
      </trkpt>
      <trkpt lat="43.23058" lon="0.19269">
        <ele>290</ele>
        <time>2024-04-17T14:28:37Z</time>
      </trkpt>
      <trkpt lat="43.23059" lon="0.19275">
        <ele>290</ele>
        <time>2024-04-17T14:28:38Z</time>
      </trkpt>
      <trkpt lat="43.23061" lon="0.1928">
        <ele>290</ele>
        <time>2024-04-17T14:28:39Z</time>
      </trkpt>
      <trkpt lat="43.23062" lon="0.19286">
        <ele>289.8</ele>
        <time>2024-04-17T14:28:40Z</time>
      </trkpt>
      <trkpt lat="43.23063" lon="0.19292">
        <ele>289.8</ele>
        <time>2024-04-17T14:28:41Z</time>
      </trkpt>
      <trkpt lat="43.23064" lon="0.19298">
        <ele>289.8</ele>
        <time>2024-04-17T14:28:42Z</time>
      </trkpt>
      <trkpt lat="43.23065" lon="0.19303">
        <ele>289.6</ele>
        <time>2024-04-17T14:28:43Z</time>
      </trkpt>
      <trkpt lat="43.23066" lon="0.19309">
        <ele>289.6</ele>
        <time>2024-04-17T14:28:44Z</time>
      </trkpt>
      <trkpt lat="43.23067" lon="0.19314">
        <ele>289.4</ele>
        <time>2024-04-17T14:28:45Z</time>
      </trkpt>
      <trkpt lat="43.23068" lon="0.19319">
        <ele>289.4</ele>
        <time>2024-04-17T14:28:46Z</time>
      </trkpt>
      <trkpt lat="43.23069" lon="0.19325">
        <ele>289.4</ele>
        <time>2024-04-17T14:28:47Z</time>
      </trkpt>
      <trkpt lat="43.2307" lon="0.19331">
        <ele>289.4</ele>
        <time>2024-04-17T14:28:48Z</time>
      </trkpt>
      <trkpt lat="43.23071" lon="0.19336">
        <ele>289.2</ele>
        <time>2024-04-17T14:28:49Z</time>
      </trkpt>
      <trkpt lat="43.23073" lon="0.19342">
        <ele>289.2</ele>
        <time>2024-04-17T14:28:50Z</time>
      </trkpt>
      <trkpt lat="43.23074" lon="0.19347">
        <ele>289.2</ele>
        <time>2024-04-17T14:28:51Z</time>
      </trkpt>
      <trkpt lat="43.23074" lon="0.19353">
        <ele>289.2</ele>
        <time>2024-04-17T14:28:52Z</time>
      </trkpt>
      <trkpt lat="43.23075" lon="0.19359">
        <ele>289.2</ele>
        <time>2024-04-17T14:28:53Z</time>
      </trkpt>
      <trkpt lat="43.23076" lon="0.19365">
        <ele>289.2</ele>
        <time>2024-04-17T14:28:54Z</time>
      </trkpt>
      <trkpt lat="43.23077" lon="0.1937">
        <ele>289</ele>
        <time>2024-04-17T14:28:55Z</time>
      </trkpt>
      <trkpt lat="43.23078" lon="0.19375">
        <ele>289</ele>
        <time>2024-04-17T14:28:56Z</time>
      </trkpt>
      <trkpt lat="43.2308" lon="0.19381">
        <ele>289</ele>
        <time>2024-04-17T14:28:57Z</time>
      </trkpt>
      <trkpt lat="43.23081" lon="0.19385">
        <ele>289</ele>
        <time>2024-04-17T14:28:58Z</time>
      </trkpt>
      <trkpt lat="43.23082" lon="0.1939">
        <ele>289</ele>
        <time>2024-04-17T14:28:59Z</time>
      </trkpt>
      <trkpt lat="43.23083" lon="0.19394">
        <ele>288.8</ele>
        <time>2024-04-17T14:29:00Z</time>
      </trkpt>
      <trkpt lat="43.23085" lon="0.19398">
        <ele>288.8</ele>
        <time>2024-04-17T14:29:01Z</time>
      </trkpt>
      <trkpt lat="43.23087" lon="0.19401">
        <ele>289</ele>
        <time>2024-04-17T14:29:02Z</time>
      </trkpt>
      <trkpt lat="43.23089" lon="0.19404">
        <ele>289</ele>
        <time>2024-04-17T14:29:03Z</time>
      </trkpt>
      <trkpt lat="43.23091" lon="0.19407">
        <ele>289</ele>
        <time>2024-04-17T14:29:04Z</time>
      </trkpt>
      <trkpt lat="43.23093" lon="0.1941">
        <ele>289</ele>
        <time>2024-04-17T14:29:05Z</time>
      </trkpt>
      <trkpt lat="43.23096" lon="0.19415">
        <ele>288.8</ele>
        <time>2024-04-17T14:29:06Z</time>
      </trkpt>
      <trkpt lat="43.23098" lon="0.19418">
        <ele>288.8</ele>
        <time>2024-04-17T14:29:07Z</time>
      </trkpt>
      <trkpt lat="43.231" lon="0.19422">
        <ele>288.8</ele>
        <time>2024-04-17T14:29:08Z</time>
      </trkpt>
      <trkpt lat="43.23102" lon="0.19426">
        <ele>288.8</ele>
        <time>2024-04-17T14:29:09Z</time>
      </trkpt>
      <trkpt lat="43.23104" lon="0.1943">
        <ele>288.6</ele>
        <time>2024-04-17T14:29:10Z</time>
      </trkpt>
      <trkpt lat="43.23106" lon="0.19433">
        <ele>288.6</ele>
        <time>2024-04-17T14:29:11Z</time>
      </trkpt>
      <trkpt lat="43.2311" lon="0.19437">
        <ele>288.6</ele>
        <time>2024-04-17T14:29:12Z</time>
      </trkpt>
      <trkpt lat="43.23113" lon="0.19441">
        <ele>288.6</ele>
        <time>2024-04-17T14:29:13Z</time>
      </trkpt>
      <trkpt lat="43.23115" lon="0.19445">
        <ele>288.4</ele>
        <time>2024-04-17T14:29:14Z</time>
      </trkpt>
      <trkpt lat="43.23117" lon="0.1945">
        <ele>288.4</ele>
        <time>2024-04-17T14:29:15Z</time>
      </trkpt>
      <trkpt lat="43.23118" lon="0.19455">
        <ele>288.2</ele>
        <time>2024-04-17T14:29:16Z</time>
      </trkpt>
      <trkpt lat="43.2312" lon="0.1946">
        <ele>288.2</ele>
        <time>2024-04-17T14:29:17Z</time>
      </trkpt>
      <trkpt lat="43.23121" lon="0.19465">
        <ele>288</ele>
        <time>2024-04-17T14:29:18Z</time>
      </trkpt>
      <trkpt lat="43.23124" lon="0.1947">
        <ele>288</ele>
        <time>2024-04-17T14:29:19Z</time>
      </trkpt>
      <trkpt lat="43.23126" lon="0.19473">
        <ele>288</ele>
        <time>2024-04-17T14:29:20Z</time>
      </trkpt>
      <trkpt lat="43.23129" lon="0.19475">
        <ele>288</ele>
        <time>2024-04-17T14:29:21Z</time>
      </trkpt>
      <trkpt lat="43.23133" lon="0.19478">
        <ele>288</ele>
        <time>2024-04-17T14:29:22Z</time>
      </trkpt>
      <trkpt lat="43.23135" lon="0.1948">
        <ele>288</ele>
        <time>2024-04-17T14:29:23Z</time>
      </trkpt>
      <trkpt lat="43.23137" lon="0.19482">
        <ele>288</ele>
        <time>2024-04-17T14:29:24Z</time>
      </trkpt>
      <trkpt lat="43.23139" lon="0.19484">
        <ele>288</ele>
        <time>2024-04-17T14:29:25Z</time>
      </trkpt>
      <trkpt lat="43.23142" lon="0.19487">
        <ele>287.8</ele>
        <time>2024-04-17T14:29:26Z</time>
      </trkpt>
      <trkpt lat="43.23146" lon="0.19491">
        <ele>287.8</ele>
        <time>2024-04-17T14:29:27Z</time>
      </trkpt>
      <trkpt lat="43.2315" lon="0.19493">
        <ele>287.8</ele>
        <time>2024-04-17T14:29:28Z</time>
      </trkpt>
      <trkpt lat="43.23153" lon="0.19495">
        <ele>287.8</ele>
        <time>2024-04-17T14:29:29Z</time>
      </trkpt>
      <trkpt lat="43.23157" lon="0.19498">
        <ele>287.8</ele>
        <time>2024-04-17T14:29:30Z</time>
      </trkpt>
      <trkpt lat="43.2316" lon="0.195">
        <ele>287.8</ele>
        <time>2024-04-17T14:29:31Z</time>
      </trkpt>
      <trkpt lat="43.23162" lon="0.19502">
        <ele>287.8</ele>
        <time>2024-04-17T14:29:32Z</time>
      </trkpt>
      <trkpt lat="43.23167" lon="0.19504">
        <ele>287.8</ele>
        <time>2024-04-17T14:29:33Z</time>
      </trkpt>
      <trkpt lat="43.23173" lon="0.19508">
        <ele>287.8</ele>
        <time>2024-04-17T14:29:34Z</time>
      </trkpt>
      <trkpt lat="43.23177" lon="0.19511">
        <ele>287.8</ele>
        <time>2024-04-17T14:29:35Z</time>
      </trkpt>
      <trkpt lat="43.2318" lon="0.19513">
        <ele>287.8</ele>
        <time>2024-04-17T14:29:36Z</time>
      </trkpt>
      <trkpt lat="43.23182" lon="0.19515">
        <ele>287.6</ele>
        <time>2024-04-17T14:29:37Z</time>
      </trkpt>
      <trkpt lat="43.23184" lon="0.19516">
        <ele>287.6</ele>
        <time>2024-04-17T14:29:38Z</time>
      </trkpt>
      <trkpt lat="43.23187" lon="0.19518">
        <ele>287.6</ele>
        <time>2024-04-17T14:29:39Z</time>
      </trkpt>
      <trkpt lat="43.2319" lon="0.1952">
        <ele>287.6</ele>
        <time>2024-04-17T14:29:40Z</time>
      </trkpt>
      <trkpt lat="43.23195" lon="0.19523">
        <ele>287.6</ele>
        <time>2024-04-17T14:29:41Z</time>
      </trkpt>
      <trkpt lat="43.23198" lon="0.19526">
        <ele>287.6</ele>
        <time>2024-04-17T14:29:42Z</time>
      </trkpt>
      <trkpt lat="43.23203" lon="0.19529">
        <ele>287.6</ele>
        <time>2024-04-17T14:29:43Z</time>
      </trkpt>
      <trkpt lat="43.23207" lon="0.19531">
        <ele>287.6</ele>
        <time>2024-04-17T14:29:44Z</time>
      </trkpt>
      <trkpt lat="43.23211" lon="0.19532">
        <ele>287.6</ele>
        <time>2024-04-17T14:29:45Z</time>
      </trkpt>
      <trkpt lat="43.23213" lon="0.19533">
        <ele>287.6</ele>
        <time>2024-04-17T14:29:46Z</time>
      </trkpt>
      <trkpt lat="43.23216" lon="0.19534">
        <ele>287.8</ele>
        <time>2024-04-17T14:29:47Z</time>
      </trkpt>
      <trkpt lat="43.2322" lon="0.19536">
        <ele>287.8</ele>
        <time>2024-04-17T14:29:48Z</time>
      </trkpt>
      <trkpt lat="43.23225" lon="0.19537">
        <ele>287.8</ele>
        <time>2024-04-17T14:29:49Z</time>
      </trkpt>
      <trkpt lat="43.2323" lon="0.19539">
        <ele>287.8</ele>
        <time>2024-04-17T14:29:50Z</time>
      </trkpt>
      <trkpt lat="43.23234" lon="0.19541">
        <ele>287.8</ele>
        <time>2024-04-17T14:29:51Z</time>
      </trkpt>
      <trkpt lat="43.23236" lon="0.19542">
        <ele>287.8</ele>
        <time>2024-04-17T14:29:52Z</time>
      </trkpt>
      <trkpt lat="43.23238" lon="0.19543">
        <ele>287.8</ele>
        <time>2024-04-17T14:29:53Z</time>
      </trkpt>
      <trkpt lat="43.23243" lon="0.19542">
        <ele>287.8</ele>
        <time>2024-04-17T14:29:54Z</time>
      </trkpt>
      <trkpt lat="43.23249" lon="0.19539">
        <ele>287.8</ele>
        <time>2024-04-17T14:29:55Z</time>
      </trkpt>
      <trkpt lat="43.23251" lon="0.19536">
        <ele>287.8</ele>
        <time>2024-04-17T14:29:56Z</time>
      </trkpt>
      <trkpt lat="43.23254" lon="0.19534">
        <ele>288</ele>
        <time>2024-04-17T14:29:57Z</time>
      </trkpt>
      <trkpt lat="43.23257" lon="0.19532">
        <ele>288</ele>
        <time>2024-04-17T14:29:58Z</time>
      </trkpt>
      <trkpt lat="43.23259" lon="0.19532">
        <ele>288</ele>
        <time>2024-04-17T14:29:59Z</time>
      </trkpt>
      <trkpt lat="43.23261" lon="0.19533">
        <ele>288</ele>
        <time>2024-04-17T14:30:00Z</time>
      </trkpt>
      <trkpt lat="43.23262" lon="0.19535">
        <ele>288</ele>
        <time>2024-04-17T14:30:01Z</time>
      </trkpt>
      <trkpt lat="43.23264" lon="0.19538">
        <ele>288</ele>
        <time>2024-04-17T14:30:02Z</time>
      </trkpt>
      <trkpt lat="43.23265" lon="0.19541">
        <ele>288.2</ele>
        <time>2024-04-17T14:30:03Z</time>
      </trkpt>
      <trkpt lat="43.23265" lon="0.19544">
        <ele>288.2</ele>
        <time>2024-04-17T14:30:04Z</time>
      </trkpt>
      <trkpt lat="43.23266" lon="0.19548">
        <ele>288.2</ele>
        <time>2024-04-17T14:30:05Z</time>
      </trkpt>
      <trkpt lat="43.23266" lon="0.19552">
        <ele>288.4</ele>
        <time>2024-04-17T14:30:06Z</time>
      </trkpt>
      <trkpt lat="43.23268" lon="0.19556">
        <ele>288.4</ele>
        <time>2024-04-17T14:30:07Z</time>
      </trkpt>
      <trkpt lat="43.23271" lon="0.19559">
        <ele>288.4</ele>
        <time>2024-04-17T14:30:08Z</time>
      </trkpt>
      <trkpt lat="43.23274" lon="0.19562">
        <ele>288.4</ele>
        <time>2024-04-17T14:30:09Z</time>
      </trkpt>
      <trkpt lat="43.23277" lon="0.19565">
        <ele>288.4</ele>
        <time>2024-04-17T14:30:10Z</time>
      </trkpt>
      <trkpt lat="43.2328" lon="0.19567">
        <ele>288.6</ele>
        <time>2024-04-17T14:30:11Z</time>
      </trkpt>
      <trkpt lat="43.23284" lon="0.19571">
        <ele>288.6</ele>
        <time>2024-04-17T14:30:12Z</time>
      </trkpt>
      <trkpt lat="43.23287" lon="0.19573">
        <ele>288.6</ele>
        <time>2024-04-17T14:30:13Z</time>
      </trkpt>
      <trkpt lat="43.2329" lon="0.19575">
        <ele>288.6</ele>
        <time>2024-04-17T14:30:14Z</time>
      </trkpt>
      <trkpt lat="43.23293" lon="0.19577">
        <ele>288.6</ele>
        <time>2024-04-17T14:30:15Z</time>
      </trkpt>
      <trkpt lat="43.23296" lon="0.19578">
        <ele>288.6</ele>
        <time>2024-04-17T14:30:16Z</time>
      </trkpt>
      <trkpt lat="43.233" lon="0.1958">
        <ele>288.6</ele>
        <time>2024-04-17T14:30:17Z</time>
      </trkpt>
      <trkpt lat="43.23306" lon="0.19581">
        <ele>288.6</ele>
        <time>2024-04-17T14:30:18Z</time>
      </trkpt>
      <trkpt lat="43.23311" lon="0.19582">
        <ele>288.6</ele>
        <time>2024-04-17T14:30:19Z</time>
      </trkpt>
      <trkpt lat="43.23315" lon="0.19581">
        <ele>288.6</ele>
        <time>2024-04-17T14:30:20Z</time>
      </trkpt>
      <trkpt lat="43.23321" lon="0.19579">
        <ele>288.4</ele>
        <time>2024-04-17T14:30:21Z</time>
      </trkpt>
      <trkpt lat="43.23325" lon="0.19573">
        <ele>288.4</ele>
        <time>2024-04-17T14:30:22Z</time>
      </trkpt>
      <trkpt lat="43.23328" lon="0.19568">
        <ele>288.4</ele>
        <time>2024-04-17T14:30:23Z</time>
      </trkpt>
      <trkpt lat="43.23329" lon="0.19561">
        <ele>288.4</ele>
        <time>2024-04-17T14:30:24Z</time>
      </trkpt>
      <trkpt lat="43.23328" lon="0.19555">
        <ele>288.4</ele>
        <time>2024-04-17T14:30:25Z</time>
      </trkpt>
      <trkpt lat="43.23327" lon="0.1955">
        <ele>288.4</ele>
        <time>2024-04-17T14:30:26Z</time>
      </trkpt>
      <trkpt lat="43.23327" lon="0.19544">
        <ele>288.4</ele>
        <time>2024-04-17T14:30:27Z</time>
      </trkpt>
      <trkpt lat="43.23327" lon="0.19539">
        <ele>288.4</ele>
        <time>2024-04-17T14:30:28Z</time>
      </trkpt>
      <trkpt lat="43.23328" lon="0.19533">
        <ele>288.4</ele>
        <time>2024-04-17T14:30:29Z</time>
      </trkpt>
      <trkpt lat="43.23326" lon="0.19527">
        <ele>288.4</ele>
        <time>2024-04-17T14:30:30Z</time>
      </trkpt>
      <trkpt lat="43.23326" lon="0.19523">
        <ele>288.4</ele>
        <time>2024-04-17T14:30:31Z</time>
      </trkpt>
      <trkpt lat="43.23326" lon="0.19519">
        <ele>288.4</ele>
        <time>2024-04-17T14:30:32Z</time>
      </trkpt>
      <trkpt lat="43.23327" lon="0.19515">
        <ele>288.4</ele>
        <time>2024-04-17T14:30:33Z</time>
      </trkpt>
      <trkpt lat="43.23326" lon="0.19509">
        <ele>288.4</ele>
        <time>2024-04-17T14:30:34Z</time>
      </trkpt>
      <trkpt lat="43.23323" lon="0.19501">
        <ele>288.4</ele>
        <time>2024-04-17T14:30:35Z</time>
      </trkpt>
      <trkpt lat="43.2332" lon="0.19494">
        <ele>288.4</ele>
        <time>2024-04-17T14:30:36Z</time>
      </trkpt>
      <trkpt lat="43.23317" lon="0.19487">
        <ele>288.6</ele>
        <time>2024-04-17T14:30:37Z</time>
      </trkpt>
      <trkpt lat="43.23315" lon="0.19482">
        <ele>288.6</ele>
        <time>2024-04-17T14:30:38Z</time>
      </trkpt>
      <trkpt lat="43.23314" lon="0.19479">
        <ele>288.6</ele>
        <time>2024-04-17T14:30:39Z</time>
      </trkpt>
      <trkpt lat="43.23314" lon="0.19477">
        <ele>288.6</ele>
        <time>2024-04-17T14:30:40Z</time>
      </trkpt>
      <trkpt lat="43.23315" lon="0.19476">
        <ele>288.6</ele>
        <time>2024-04-17T14:30:41Z</time>
      </trkpt>
      <trkpt lat="43.23317" lon="0.19477">
        <ele>288.6</ele>
        <time>2024-04-17T14:30:42Z</time>
      </trkpt>
      <trkpt lat="43.23319" lon="0.19478">
        <ele>288.4</ele>
        <time>2024-04-17T14:30:43Z</time>
      </trkpt>
      <trkpt lat="43.23322" lon="0.19477">
        <ele>288.4</ele>
        <time>2024-04-17T14:30:44Z</time>
      </trkpt>
      <trkpt lat="43.23324" lon="0.19475">
        <ele>288.4</ele>
        <time>2024-04-17T14:30:45Z</time>
      </trkpt>
      <trkpt lat="43.23326" lon="0.19473">
        <ele>288.4</ele>
        <time>2024-04-17T14:30:46Z</time>
      </trkpt>
      <trkpt lat="43.23328" lon="0.19471">
        <ele>288.4</ele>
        <time>2024-04-17T14:30:47Z</time>
      </trkpt>
      <trkpt lat="43.23331" lon="0.1947">
        <ele>288.2</ele>
        <time>2024-04-17T14:30:48Z</time>
      </trkpt>
      <trkpt lat="43.23334" lon="0.19469">
        <ele>288.2</ele>
        <time>2024-04-17T14:30:49Z</time>
      </trkpt>
      <trkpt lat="43.23337" lon="0.19467">
        <ele>288.2</ele>
        <time>2024-04-17T14:30:50Z</time>
      </trkpt>
      <trkpt lat="43.23339" lon="0.19464">
        <ele>288.2</ele>
        <time>2024-04-17T14:30:51Z</time>
      </trkpt>
      <trkpt lat="43.23342" lon="0.19461">
        <ele>287.8</ele>
        <time>2024-04-17T14:30:52Z</time>
      </trkpt>
      <trkpt lat="43.23344" lon="0.19456">
        <ele>287.8</ele>
        <time>2024-04-17T14:30:53Z</time>
      </trkpt>
      <trkpt lat="43.23345" lon="0.19452">
        <ele>287.6</ele>
        <time>2024-04-17T14:30:54Z</time>
      </trkpt>
      <trkpt lat="43.23347" lon="0.19448">
        <ele>287.6</ele>
        <time>2024-04-17T14:30:55Z</time>
      </trkpt>
      <trkpt lat="43.2335" lon="0.19445">
        <ele>287.6</ele>
        <time>2024-04-17T14:30:56Z</time>
      </trkpt>
      <trkpt lat="43.23353" lon="0.19444">
        <ele>287.6</ele>
        <time>2024-04-17T14:30:57Z</time>
      </trkpt>
      <trkpt lat="43.23355" lon="0.19442">
        <ele>287.4</ele>
        <time>2024-04-17T14:30:58Z</time>
      </trkpt>
      <trkpt lat="43.23358" lon="0.1944">
        <ele>287.4</ele>
        <time>2024-04-17T14:30:59Z</time>
      </trkpt>
      <trkpt lat="43.23361" lon="0.19437">
        <ele>287.2</ele>
        <time>2024-04-17T14:31:00Z</time>
      </trkpt>
      <trkpt lat="43.23364" lon="0.19434">
        <ele>287</ele>
        <time>2024-04-17T14:31:01Z</time>
      </trkpt>
      <trkpt lat="43.23368" lon="0.1943">
        <ele>287</ele>
        <time>2024-04-17T14:31:02Z</time>
      </trkpt>
      <trkpt lat="43.23371" lon="0.19425">
        <ele>287</ele>
        <time>2024-04-17T14:31:03Z</time>
      </trkpt>
      <trkpt lat="43.23373" lon="0.1942">
        <ele>287</ele>
        <time>2024-04-17T14:31:04Z</time>
      </trkpt>
      <trkpt lat="43.23375" lon="0.19416">
        <ele>286.8</ele>
        <time>2024-04-17T14:31:05Z</time>
      </trkpt>
      <trkpt lat="43.23377" lon="0.19409">
        <ele>286.8</ele>
        <time>2024-04-17T14:31:06Z</time>
      </trkpt>
      <trkpt lat="43.23378" lon="0.19401">
        <ele>286.8</ele>
        <time>2024-04-17T14:31:07Z</time>
      </trkpt>
      <trkpt lat="43.23377" lon="0.19393">
        <ele>286.6</ele>
        <time>2024-04-17T14:31:08Z</time>
      </trkpt>
      <trkpt lat="43.23375" lon="0.19388">
        <ele>286.6</ele>
        <time>2024-04-17T14:31:09Z</time>
      </trkpt>
      <trkpt lat="43.23374" lon="0.19382">
        <ele>286.2</ele>
        <time>2024-04-17T14:31:10Z</time>
      </trkpt>
      <trkpt lat="43.23373" lon="0.19376">
        <ele>286.2</ele>
        <time>2024-04-17T14:31:11Z</time>
      </trkpt>
      <trkpt lat="43.23373" lon="0.19368">
        <ele>285.8</ele>
        <time>2024-04-17T14:31:12Z</time>
      </trkpt>
      <trkpt lat="43.23375" lon="0.19363">
        <ele>285.8</ele>
        <time>2024-04-17T14:31:13Z</time>
      </trkpt>
      <trkpt lat="43.23376" lon="0.1936">
        <ele>285.6</ele>
        <time>2024-04-17T14:31:14Z</time>
      </trkpt>
      <trkpt lat="43.23376" lon="0.19356">
        <ele>285.4</ele>
        <time>2024-04-17T14:31:15Z</time>
      </trkpt>
      <trkpt lat="43.23375" lon="0.19349">
        <ele>285.4</ele>
        <time>2024-04-17T14:31:16Z</time>
      </trkpt>
      <trkpt lat="43.23373" lon="0.19341">
        <ele>285.4</ele>
        <time>2024-04-17T14:31:17Z</time>
      </trkpt>
      <trkpt lat="43.2337" lon="0.19333">
        <ele>285.4</ele>
        <time>2024-04-17T14:31:18Z</time>
      </trkpt>
      <trkpt lat="43.23367" lon="0.19329">
        <ele>285.2</ele>
        <time>2024-04-17T14:31:19Z</time>
      </trkpt>
      <trkpt lat="43.23365" lon="0.19328">
        <ele>284.8</ele>
        <time>2024-04-17T14:31:20Z</time>
      </trkpt>
      <trkpt lat="43.23361" lon="0.19326">
        <ele>284.6</ele>
        <time>2024-04-17T14:31:21Z</time>
      </trkpt>
      <trkpt lat="43.23357" lon="0.19327">
        <ele>284.6</ele>
        <time>2024-04-17T14:31:22Z</time>
      </trkpt>
      <trkpt lat="43.23355" lon="0.19325">
        <ele>284.4</ele>
        <time>2024-04-17T14:31:23Z</time>
      </trkpt>
      <trkpt lat="43.23354" lon="0.19324">
        <ele>284.4</ele>
        <time>2024-04-17T14:31:24Z</time>
      </trkpt>
      <trkpt lat="43.23353" lon="0.19323">
        <ele>284.4</ele>
        <time>2024-04-17T14:31:25Z</time>
      </trkpt>
      <trkpt lat="43.23352" lon="0.19322">
        <ele>284.4</ele>
        <time>2024-04-17T14:31:26Z</time>
      </trkpt>
      <trkpt lat="43.23353" lon="0.1932">
        <ele>284.4</ele>
        <time>2024-04-17T14:31:27Z</time>
      </trkpt>
      <trkpt lat="43.23353" lon="0.19319">
        <ele>284.6</ele>
        <time>2024-04-17T14:31:28Z</time>
      </trkpt>
      <trkpt lat="43.23353" lon="0.19317">
        <ele>284.6</ele>
        <time>2024-04-17T14:31:29Z</time>
      </trkpt>
      <trkpt lat="43.23353" lon="0.19315">
        <ele>284.6</ele>
        <time>2024-04-17T14:31:30Z</time>
      </trkpt>
      <trkpt lat="43.23354" lon="0.19313">
        <ele>284.8</ele>
        <time>2024-04-17T14:31:31Z</time>
      </trkpt>
      <trkpt lat="43.23354" lon="0.19311">
        <ele>285</ele>
        <time>2024-04-17T14:31:32Z</time>
      </trkpt>
      <trkpt lat="43.23354" lon="0.19309">
        <ele>285.2</ele>
        <time>2024-04-17T14:31:33Z</time>
      </trkpt>
      <trkpt lat="43.23353" lon="0.19305">
        <ele>285.2</ele>
        <time>2024-04-17T14:31:34Z</time>
      </trkpt>
      <trkpt lat="43.23352" lon="0.19301">
        <ele>285.4</ele>
        <time>2024-04-17T14:31:35Z</time>
      </trkpt>
      <trkpt lat="43.23353" lon="0.19297">
        <ele>285.4</ele>
        <time>2024-04-17T14:31:36Z</time>
      </trkpt>
      <trkpt lat="43.23354" lon="0.19293">
        <ele>285.4</ele>
        <time>2024-04-17T14:31:37Z</time>
      </trkpt>
      <trkpt lat="43.23354" lon="0.19288">
        <ele>285.4</ele>
        <time>2024-04-17T14:31:38Z</time>
      </trkpt>
      <trkpt lat="43.23353" lon="0.19282">
        <ele>285.6</ele>
        <time>2024-04-17T14:31:39Z</time>
      </trkpt>
      <trkpt lat="43.23353" lon="0.19276">
        <ele>285.8</ele>
        <time>2024-04-17T14:31:40Z</time>
      </trkpt>
      <trkpt lat="43.23353" lon="0.1927">
        <ele>285.8</ele>
        <time>2024-04-17T14:31:41Z</time>
      </trkpt>
      <trkpt lat="43.23354" lon="0.19265">
        <ele>285.6</ele>
        <time>2024-04-17T14:31:42Z</time>
      </trkpt>
      <trkpt lat="43.23354" lon="0.1926">
        <ele>285.6</ele>
        <time>2024-04-17T14:31:43Z</time>
      </trkpt>
      <trkpt lat="43.23355" lon="0.19256">
        <ele>285.6</ele>
        <time>2024-04-17T14:31:44Z</time>
      </trkpt>
      <trkpt lat="43.23356" lon="0.19251">
        <ele>285.4</ele>
        <time>2024-04-17T14:31:45Z</time>
      </trkpt>
      <trkpt lat="43.23358" lon="0.19247">
        <ele>285.2</ele>
        <time>2024-04-17T14:31:46Z</time>
      </trkpt>
      <trkpt lat="43.23358" lon="0.19244">
        <ele>285</ele>
        <time>2024-04-17T14:31:47Z</time>
      </trkpt>
      <trkpt lat="43.2336" lon="0.19243">
        <ele>284.4</ele>
        <time>2024-04-17T14:31:48Z</time>
      </trkpt>
      <trkpt lat="43.23361" lon="0.19243">
        <ele>284</ele>
        <time>2024-04-17T14:31:49Z</time>
      </trkpt>
      <trkpt lat="43.23363" lon="0.19243">
        <ele>283.8</ele>
        <time>2024-04-17T14:31:50Z</time>
      </trkpt>
      <trkpt lat="43.23364" lon="0.19244">
        <ele>283.4</ele>
        <time>2024-04-17T14:31:51Z</time>
      </trkpt>
      <trkpt lat="43.23365" lon="0.19246">
        <ele>283.2</ele>
        <time>2024-04-17T14:31:52Z</time>
      </trkpt>
      <trkpt lat="43.23366" lon="0.19248">
        <ele>282.4</ele>
        <time>2024-04-17T14:31:53Z</time>
      </trkpt>
      <trkpt lat="43.23366" lon="0.19251">
        <ele>282</ele>
        <time>2024-04-17T14:31:54Z</time>
      </trkpt>
      <trkpt lat="43.23367" lon="0.19253">
        <ele>281.2</ele>
        <time>2024-04-17T14:31:55Z</time>
      </trkpt>
      <trkpt lat="43.2337" lon="0.19255">
        <ele>280.8</ele>
        <time>2024-04-17T14:31:56Z</time>
      </trkpt>
      <trkpt lat="43.23373" lon="0.19256">
        <ele>280.2</ele>
        <time>2024-04-17T14:31:57Z</time>
      </trkpt>
      <trkpt lat="43.23373" lon="0.19257">
        <ele>279.8</ele>
        <time>2024-04-17T14:31:58Z</time>
      </trkpt>
      <trkpt lat="43.23373" lon="0.19257">
        <ele>279.8</ele>
        <time>2024-04-17T14:31:59Z</time>
      </trkpt>
      <trkpt lat="43.23373" lon="0.19257">
        <ele>279.8</ele>
        <time>2024-04-17T14:32:00Z</time>
      </trkpt>
      <trkpt lat="43.23374" lon="0.19258">
        <ele>279.8</ele>
        <time>2024-04-17T14:32:01Z</time>
      </trkpt>
      <trkpt lat="43.23375" lon="0.19258">
        <ele>279.6</ele>
        <time>2024-04-17T14:32:02Z</time>
      </trkpt>
      <trkpt lat="43.23376" lon="0.19258">
        <ele>279.6</ele>
        <time>2024-04-17T14:32:03Z</time>
      </trkpt>
      <trkpt lat="43.23377" lon="0.19259">
        <ele>279.6</ele>
        <time>2024-04-17T14:32:04Z</time>
      </trkpt>
      <trkpt lat="43.23378" lon="0.19259">
        <ele>279.8</ele>
        <time>2024-04-17T14:32:05Z</time>
      </trkpt>
      <trkpt lat="43.23379" lon="0.1926">
        <ele>280</ele>
        <time>2024-04-17T14:32:06Z</time>
      </trkpt>
      <trkpt lat="43.23379" lon="0.1926">
        <ele>280.2</ele>
        <time>2024-04-17T14:32:07Z</time>
      </trkpt>
      <trkpt lat="43.2338" lon="0.19261">
        <ele>280.4</ele>
        <time>2024-04-17T14:32:08Z</time>
      </trkpt>
      <trkpt lat="43.2338" lon="0.19261">
        <ele>281</ele>
        <time>2024-04-17T14:32:09Z</time>
      </trkpt>
      <trkpt lat="43.23381" lon="0.19262">
        <ele>281.2</ele>
        <time>2024-04-17T14:32:10Z</time>
      </trkpt>
      <trkpt lat="43.23381" lon="0.19262">
        <ele>281.4</ele>
        <time>2024-04-17T14:32:11Z</time>
      </trkpt>
      <trkpt lat="43.23383" lon="0.19262">
        <ele>281.8</ele>
        <time>2024-04-17T14:32:12Z</time>
      </trkpt>
      <trkpt lat="43.23384" lon="0.19263">
        <ele>282.2</ele>
        <time>2024-04-17T14:32:13Z</time>
      </trkpt>
      <trkpt lat="43.23385" lon="0.19265">
        <ele>282.6</ele>
        <time>2024-04-17T14:32:14Z</time>
      </trkpt>
      <trkpt lat="43.23386" lon="0.19266">
        <ele>282.8</ele>
        <time>2024-04-17T14:32:15Z</time>
      </trkpt>
      <trkpt lat="43.23388" lon="0.19268">
        <ele>283.2</ele>
        <time>2024-04-17T14:32:16Z</time>
      </trkpt>
      <trkpt lat="43.23389" lon="0.1927">
        <ele>283.2</ele>
        <time>2024-04-17T14:32:17Z</time>
      </trkpt>
      <trkpt lat="43.23391" lon="0.19273">
        <ele>283.6</ele>
        <time>2024-04-17T14:32:18Z</time>
      </trkpt>
      <trkpt lat="43.23392" lon="0.19275">
        <ele>283.6</ele>
        <time>2024-04-17T14:32:19Z</time>
      </trkpt>
      <trkpt lat="43.23395" lon="0.19276">
        <ele>283.8</ele>
        <time>2024-04-17T14:32:20Z</time>
      </trkpt>
      <trkpt lat="43.23396" lon="0.19277">
        <ele>283.6</ele>
        <time>2024-04-17T14:32:21Z</time>
      </trkpt>
      <trkpt lat="43.23398" lon="0.19279">
        <ele>283.6</ele>
        <time>2024-04-17T14:32:22Z</time>
      </trkpt>
      <trkpt lat="43.23401" lon="0.1928">
        <ele>283.8</ele>
        <time>2024-04-17T14:32:23Z</time>
      </trkpt>
      <trkpt lat="43.23402" lon="0.19281">
        <ele>283.8</ele>
        <time>2024-04-17T14:32:24Z</time>
      </trkpt>
      <trkpt lat="43.23404" lon="0.19282">
        <ele>283.8</ele>
        <time>2024-04-17T14:32:25Z</time>
      </trkpt>
      <trkpt lat="43.23406" lon="0.19283">
        <ele>283.8</ele>
        <time>2024-04-17T14:32:26Z</time>
      </trkpt>
      <trkpt lat="43.23408" lon="0.19283">
        <ele>283.8</ele>
        <time>2024-04-17T14:32:27Z</time>
      </trkpt>
      <trkpt lat="43.2341" lon="0.19283">
        <ele>283.8</ele>
        <time>2024-04-17T14:32:28Z</time>
      </trkpt>
      <trkpt lat="43.23412" lon="0.19284">
        <ele>283.8</ele>
        <time>2024-04-17T14:32:29Z</time>
      </trkpt>
      <trkpt lat="43.23414" lon="0.19286">
        <ele>283.8</ele>
        <time>2024-04-17T14:32:30Z</time>
      </trkpt>
      <trkpt lat="43.23416" lon="0.1929">
        <ele>283.6</ele>
        <time>2024-04-17T14:32:31Z</time>
      </trkpt>
      <trkpt lat="43.23419" lon="0.19295">
        <ele>283.6</ele>
        <time>2024-04-17T14:32:32Z</time>
      </trkpt>
      <trkpt lat="43.23421" lon="0.19299">
        <ele>283.4</ele>
        <time>2024-04-17T14:32:33Z</time>
      </trkpt>
      <trkpt lat="43.23424" lon="0.19304">
        <ele>283.2</ele>
        <time>2024-04-17T14:32:34Z</time>
      </trkpt>
      <trkpt lat="43.23429" lon="0.19308">
        <ele>283</ele>
        <time>2024-04-17T14:32:35Z</time>
      </trkpt>
      <trkpt lat="43.23434" lon="0.19312">
        <ele>282.4</ele>
        <time>2024-04-17T14:32:36Z</time>
      </trkpt>
      <trkpt lat="43.2344" lon="0.19315">
        <ele>282.2</ele>
        <time>2024-04-17T14:32:37Z</time>
      </trkpt>
      <trkpt lat="43.23446" lon="0.19318">
        <ele>282.2</ele>
        <time>2024-04-17T14:32:38Z</time>
      </trkpt>
      <trkpt lat="43.2345" lon="0.19322">
        <ele>282</ele>
        <time>2024-04-17T14:32:39Z</time>
      </trkpt>
      <trkpt lat="43.23454" lon="0.19325">
        <ele>281.8</ele>
        <time>2024-04-17T14:32:40Z</time>
      </trkpt>
      <trkpt lat="43.23459" lon="0.19328">
        <ele>281.4</ele>
        <time>2024-04-17T14:32:41Z</time>
      </trkpt>
      <trkpt lat="43.23461" lon="0.1933">
        <ele>281.4</ele>
        <time>2024-04-17T14:32:42Z</time>
      </trkpt>
      <trkpt lat="43.23463" lon="0.19331">
        <ele>281.2</ele>
        <time>2024-04-17T14:32:43Z</time>
      </trkpt>
      <trkpt lat="43.23463" lon="0.19334">
        <ele>281.2</ele>
        <time>2024-04-17T14:32:44Z</time>
      </trkpt>
      <trkpt lat="43.23462" lon="0.19336">
        <ele>281</ele>
        <time>2024-04-17T14:32:45Z</time>
      </trkpt>
      <trkpt lat="43.23461" lon="0.19339">
        <ele>280.8</ele>
        <time>2024-04-17T14:32:46Z</time>
      </trkpt>
      <trkpt lat="43.23458" lon="0.19344">
        <ele>280.8</ele>
        <time>2024-04-17T14:32:47Z</time>
      </trkpt>
      <trkpt lat="43.23456" lon="0.19348">
        <ele>280.8</ele>
        <time>2024-04-17T14:32:48Z</time>
      </trkpt>
      <trkpt lat="43.23455" lon="0.19353">
        <ele>280.8</ele>
        <time>2024-04-17T14:32:49Z</time>
      </trkpt>
      <trkpt lat="43.23457" lon="0.19359">
        <ele>280.6</ele>
        <time>2024-04-17T14:32:50Z</time>
      </trkpt>
      <trkpt lat="43.23459" lon="0.19364">
        <ele>280.6</ele>
        <time>2024-04-17T14:32:51Z</time>
      </trkpt>
      <trkpt lat="43.23462" lon="0.19368">
        <ele>280.2</ele>
        <time>2024-04-17T14:32:52Z</time>
      </trkpt>
      <trkpt lat="43.23464" lon="0.19373">
        <ele>279.8</ele>
        <time>2024-04-17T14:32:53Z</time>
      </trkpt>
      <trkpt lat="43.23466" lon="0.19378">
        <ele>279.4</ele>
        <time>2024-04-17T14:32:54Z</time>
      </trkpt>
      <trkpt lat="43.23467" lon="0.19383">
        <ele>279.2</ele>
        <time>2024-04-17T14:32:55Z</time>
      </trkpt>
      <trkpt lat="43.23469" lon="0.19389">
        <ele>279</ele>
        <time>2024-04-17T14:32:56Z</time>
      </trkpt>
      <trkpt lat="43.23471" lon="0.19395">
        <ele>278.8</ele>
        <time>2024-04-17T14:32:57Z</time>
      </trkpt>
      <trkpt lat="43.23473" lon="0.19401">
        <ele>278.6</ele>
        <time>2024-04-17T14:32:58Z</time>
      </trkpt>
      <trkpt lat="43.23474" lon="0.19407">
        <ele>278.6</ele>
        <time>2024-04-17T14:32:59Z</time>
      </trkpt>
      <trkpt lat="43.23474" lon="0.19413">
        <ele>278.6</ele>
        <time>2024-04-17T14:33:00Z</time>
      </trkpt>
      <trkpt lat="43.23474" lon="0.19418">
        <ele>278.4</ele>
        <time>2024-04-17T14:33:01Z</time>
      </trkpt>
      <trkpt lat="43.23473" lon="0.19423">
        <ele>278.4</ele>
        <time>2024-04-17T14:33:02Z</time>
      </trkpt>
      <trkpt lat="43.23474" lon="0.19428">
        <ele>278.4</ele>
        <time>2024-04-17T14:33:03Z</time>
      </trkpt>
      <trkpt lat="43.23473" lon="0.19432">
        <ele>278.4</ele>
        <time>2024-04-17T14:33:04Z</time>
      </trkpt>
      <trkpt lat="43.23473" lon="0.19436">
        <ele>278.4</ele>
        <time>2024-04-17T14:33:05Z</time>
      </trkpt>
      <trkpt lat="43.23472" lon="0.19439">
        <ele>278.4</ele>
        <time>2024-04-17T14:33:06Z</time>
      </trkpt>
      <trkpt lat="43.23472" lon="0.19443">
        <ele>278.4</ele>
        <time>2024-04-17T14:33:07Z</time>
      </trkpt>
      <trkpt lat="43.23472" lon="0.19447">
        <ele>278.4</ele>
        <time>2024-04-17T14:33:08Z</time>
      </trkpt>
      <trkpt lat="43.23472" lon="0.19451">
        <ele>278.4</ele>
        <time>2024-04-17T14:33:09Z</time>
      </trkpt>
      <trkpt lat="43.23472" lon="0.19454">
        <ele>278.4</ele>
        <time>2024-04-17T14:33:10Z</time>
      </trkpt>
      <trkpt lat="43.23473" lon="0.19457">
        <ele>278.4</ele>
        <time>2024-04-17T14:33:11Z</time>
      </trkpt>
      <trkpt lat="43.23473" lon="0.1946">
        <ele>278.4</ele>
        <time>2024-04-17T14:33:12Z</time>
      </trkpt>
      <trkpt lat="43.23473" lon="0.19463">
        <ele>278.6</ele>
        <time>2024-04-17T14:33:13Z</time>
      </trkpt>
      <trkpt lat="43.23473" lon="0.19466">
        <ele>278.6</ele>
        <time>2024-04-17T14:33:14Z</time>
      </trkpt>
      <trkpt lat="43.23473" lon="0.1947">
        <ele>278.8</ele>
        <time>2024-04-17T14:33:15Z</time>
      </trkpt>
      <trkpt lat="43.23473" lon="0.19473">
        <ele>278.8</ele>
        <time>2024-04-17T14:33:16Z</time>
      </trkpt>
      <trkpt lat="43.23473" lon="0.19477">
        <ele>279</ele>
        <time>2024-04-17T14:33:17Z</time>
      </trkpt>
      <trkpt lat="43.23474" lon="0.1948">
        <ele>279.2</ele>
        <time>2024-04-17T14:33:18Z</time>
      </trkpt>
      <trkpt lat="43.23474" lon="0.19483">
        <ele>279.4</ele>
        <time>2024-04-17T14:33:19Z</time>
      </trkpt>
      <trkpt lat="43.23475" lon="0.19486">
        <ele>279.6</ele>
        <time>2024-04-17T14:33:20Z</time>
      </trkpt>
      <trkpt lat="43.23476" lon="0.19489">
        <ele>280</ele>
        <time>2024-04-17T14:33:21Z</time>
      </trkpt>
      <trkpt lat="43.23476" lon="0.19492">
        <ele>280.2</ele>
        <time>2024-04-17T14:33:22Z</time>
      </trkpt>
      <trkpt lat="43.23476" lon="0.19495">
        <ele>280.2</ele>
        <time>2024-04-17T14:33:23Z</time>
      </trkpt>
      <trkpt lat="43.23477" lon="0.19498">
        <ele>280.4</ele>
        <time>2024-04-17T14:33:24Z</time>
      </trkpt>
      <trkpt lat="43.23477" lon="0.19501">
        <ele>280.4</ele>
        <time>2024-04-17T14:33:25Z</time>
      </trkpt>
      <trkpt lat="43.23477" lon="0.19504">
        <ele>280.8</ele>
        <time>2024-04-17T14:33:26Z</time>
      </trkpt>
      <trkpt lat="43.23478" lon="0.19506">
        <ele>281</ele>
        <time>2024-04-17T14:33:27Z</time>
      </trkpt>
      <trkpt lat="43.23478" lon="0.19509">
        <ele>281.4</ele>
        <time>2024-04-17T14:33:28Z</time>
      </trkpt>
      <trkpt lat="43.23478" lon="0.19512">
        <ele>281.6</ele>
        <time>2024-04-17T14:33:29Z</time>
      </trkpt>
      <trkpt lat="43.23478" lon="0.19515">
        <ele>281.8</ele>
        <time>2024-04-17T14:33:30Z</time>
      </trkpt>
      <trkpt lat="43.23478" lon="0.19517">
        <ele>282</ele>
        <time>2024-04-17T14:33:31Z</time>
      </trkpt>
      <trkpt lat="43.23478" lon="0.1952">
        <ele>282</ele>
        <time>2024-04-17T14:33:32Z</time>
      </trkpt>
      <trkpt lat="43.23479" lon="0.19523">
        <ele>282.4</ele>
        <time>2024-04-17T14:33:33Z</time>
      </trkpt>
      <trkpt lat="43.2348" lon="0.19525">
        <ele>282.4</ele>
        <time>2024-04-17T14:33:34Z</time>
      </trkpt>
      <trkpt lat="43.23481" lon="0.19528">
        <ele>282.8</ele>
        <time>2024-04-17T14:33:35Z</time>
      </trkpt>
      <trkpt lat="43.23481" lon="0.19531">
        <ele>283</ele>
        <time>2024-04-17T14:33:36Z</time>
      </trkpt>
      <trkpt lat="43.23482" lon="0.19533">
        <ele>283.2</ele>
        <time>2024-04-17T14:33:37Z</time>
      </trkpt>
      <trkpt lat="43.23483" lon="0.19536">
        <ele>283.4</ele>
        <time>2024-04-17T14:33:38Z</time>
      </trkpt>
      <trkpt lat="43.23484" lon="0.19539">
        <ele>283.4</ele>
        <time>2024-04-17T14:33:39Z</time>
      </trkpt>
      <trkpt lat="43.23484" lon="0.19542">
        <ele>283.6</ele>
        <time>2024-04-17T14:33:40Z</time>
      </trkpt>
      <trkpt lat="43.23485" lon="0.19544">
        <ele>283.6</ele>
        <time>2024-04-17T14:33:41Z</time>
      </trkpt>
      <trkpt lat="43.23486" lon="0.19546">
        <ele>283.8</ele>
        <time>2024-04-17T14:33:42Z</time>
      </trkpt>
      <trkpt lat="43.23486" lon="0.19548">
        <ele>284</ele>
        <time>2024-04-17T14:33:43Z</time>
      </trkpt>
      <trkpt lat="43.23487" lon="0.19551">
        <ele>284</ele>
        <time>2024-04-17T14:33:44Z</time>
      </trkpt>
      <trkpt lat="43.23488" lon="0.19554">
        <ele>284</ele>
        <time>2024-04-17T14:33:45Z</time>
      </trkpt>
      <trkpt lat="43.23488" lon="0.19557">
        <ele>284.2</ele>
        <time>2024-04-17T14:33:46Z</time>
      </trkpt>
      <trkpt lat="43.23488" lon="0.19561">
        <ele>284.4</ele>
        <time>2024-04-17T14:33:47Z</time>
      </trkpt>
      <trkpt lat="43.23488" lon="0.19565">
        <ele>284.4</ele>
        <time>2024-04-17T14:33:48Z</time>
      </trkpt>
      <trkpt lat="43.23489" lon="0.19569">
        <ele>284.4</ele>
        <time>2024-04-17T14:33:49Z</time>
      </trkpt>
      <trkpt lat="43.2349" lon="0.19573">
        <ele>284.4</ele>
        <time>2024-04-17T14:33:50Z</time>
      </trkpt>
      <trkpt lat="43.23491" lon="0.19577">
        <ele>284.4</ele>
        <time>2024-04-17T14:33:51Z</time>
      </trkpt>
      <trkpt lat="43.23492" lon="0.19581">
        <ele>284.4</ele>
        <time>2024-04-17T14:33:52Z</time>
      </trkpt>
      <trkpt lat="43.23492" lon="0.19585">
        <ele>284.4</ele>
        <time>2024-04-17T14:33:53Z</time>
      </trkpt>
      <trkpt lat="43.23493" lon="0.19589">
        <ele>284.4</ele>
        <time>2024-04-17T14:33:54Z</time>
      </trkpt>
      <trkpt lat="43.23494" lon="0.19592">
        <ele>284.4</ele>
        <time>2024-04-17T14:33:55Z</time>
      </trkpt>
      <trkpt lat="43.23495" lon="0.19596">
        <ele>284.2</ele>
        <time>2024-04-17T14:33:56Z</time>
      </trkpt>
      <trkpt lat="43.23496" lon="0.196">
        <ele>284.2</ele>
        <time>2024-04-17T14:33:57Z</time>
      </trkpt>
      <trkpt lat="43.23497" lon="0.19604">
        <ele>284.2</ele>
        <time>2024-04-17T14:33:58Z</time>
      </trkpt>
      <trkpt lat="43.23498" lon="0.19608">
        <ele>284.2</ele>
        <time>2024-04-17T14:33:59Z</time>
      </trkpt>
      <trkpt lat="43.23499" lon="0.19612">
        <ele>284.2</ele>
        <time>2024-04-17T14:34:00Z</time>
      </trkpt>
      <trkpt lat="43.235" lon="0.19616">
        <ele>284.2</ele>
        <time>2024-04-17T14:34:01Z</time>
      </trkpt>
      <trkpt lat="43.23501" lon="0.1962">
        <ele>284.2</ele>
        <time>2024-04-17T14:34:02Z</time>
      </trkpt>
      <trkpt lat="43.23502" lon="0.19625">
        <ele>284</ele>
        <time>2024-04-17T14:34:03Z</time>
      </trkpt>
      <trkpt lat="43.23504" lon="0.19629">
        <ele>284</ele>
        <time>2024-04-17T14:34:04Z</time>
      </trkpt>
      <trkpt lat="43.23505" lon="0.19633">
        <ele>284</ele>
        <time>2024-04-17T14:34:05Z</time>
      </trkpt>
      <trkpt lat="43.23506" lon="0.19637">
        <ele>284</ele>
        <time>2024-04-17T14:34:06Z</time>
      </trkpt>
      <trkpt lat="43.23507" lon="0.19642">
        <ele>284</ele>
        <time>2024-04-17T14:34:07Z</time>
      </trkpt>
      <trkpt lat="43.23508" lon="0.19646">
        <ele>284</ele>
        <time>2024-04-17T14:34:08Z</time>
      </trkpt>
      <trkpt lat="43.23508" lon="0.1965">
        <ele>284</ele>
        <time>2024-04-17T14:34:09Z</time>
      </trkpt>
      <trkpt lat="43.23509" lon="0.19654">
        <ele>284</ele>
        <time>2024-04-17T14:34:10Z</time>
      </trkpt>
      <trkpt lat="43.2351" lon="0.19659">
        <ele>283.8</ele>
        <time>2024-04-17T14:34:11Z</time>
      </trkpt>
      <trkpt lat="43.23511" lon="0.19663">
        <ele>283.8</ele>
        <time>2024-04-17T14:34:12Z</time>
      </trkpt>
      <trkpt lat="43.23512" lon="0.19668">
        <ele>283.6</ele>
        <time>2024-04-17T14:34:13Z</time>
      </trkpt>
      <trkpt lat="43.23514" lon="0.19673">
        <ele>283.6</ele>
        <time>2024-04-17T14:34:14Z</time>
      </trkpt>
      <trkpt lat="43.23515" lon="0.19679">
        <ele>283.6</ele>
        <time>2024-04-17T14:34:15Z</time>
      </trkpt>
      <trkpt lat="43.23516" lon="0.19684">
        <ele>283.4</ele>
        <time>2024-04-17T14:34:16Z</time>
      </trkpt>
      <trkpt lat="43.23517" lon="0.19689">
        <ele>283.4</ele>
        <time>2024-04-17T14:34:17Z</time>
      </trkpt>
      <trkpt lat="43.23518" lon="0.19694">
        <ele>283</ele>
        <time>2024-04-17T14:34:18Z</time>
      </trkpt>
      <trkpt lat="43.2352" lon="0.19699">
        <ele>282.8</ele>
        <time>2024-04-17T14:34:19Z</time>
      </trkpt>
      <trkpt lat="43.23521" lon="0.19704">
        <ele>282.6</ele>
        <time>2024-04-17T14:34:20Z</time>
      </trkpt>
      <trkpt lat="43.23521" lon="0.19708">
        <ele>282.4</ele>
        <time>2024-04-17T14:34:21Z</time>
      </trkpt>
      <trkpt lat="43.23522" lon="0.19712">
        <ele>282.4</ele>
        <time>2024-04-17T14:34:22Z</time>
      </trkpt>
      <trkpt lat="43.23522" lon="0.19715">
        <ele>282.6</ele>
        <time>2024-04-17T14:34:23Z</time>
      </trkpt>
      <trkpt lat="43.23523" lon="0.19719">
        <ele>282.6</ele>
        <time>2024-04-17T14:34:24Z</time>
      </trkpt>
      <trkpt lat="43.23524" lon="0.19722">
        <ele>282.2</ele>
        <time>2024-04-17T14:34:25Z</time>
      </trkpt>
      <trkpt lat="43.23526" lon="0.19724">
        <ele>282.2</ele>
        <time>2024-04-17T14:34:26Z</time>
      </trkpt>
      <trkpt lat="43.23528" lon="0.19728">
        <ele>282.2</ele>
        <time>2024-04-17T14:34:27Z</time>
      </trkpt>
      <trkpt lat="43.23528" lon="0.19732">
        <ele>282</ele>
        <time>2024-04-17T14:34:28Z</time>
      </trkpt>
      <trkpt lat="43.23527" lon="0.19736">
        <ele>282.2</ele>
        <time>2024-04-17T14:34:29Z</time>
      </trkpt>
      <trkpt lat="43.23525" lon="0.19739">
        <ele>282</ele>
        <time>2024-04-17T14:34:30Z</time>
      </trkpt>
      <trkpt lat="43.23523" lon="0.19741">
        <ele>282</ele>
        <time>2024-04-17T14:34:31Z</time>
      </trkpt>
      <trkpt lat="43.2352" lon="0.19743">
        <ele>281.8</ele>
        <time>2024-04-17T14:34:32Z</time>
      </trkpt>
      <trkpt lat="43.23517" lon="0.19744">
        <ele>281.8</ele>
        <time>2024-04-17T14:34:33Z</time>
      </trkpt>
      <trkpt lat="43.23515" lon="0.19746">
        <ele>281.8</ele>
        <time>2024-04-17T14:34:34Z</time>
      </trkpt>
      <trkpt lat="43.23512" lon="0.19748">
        <ele>281.6</ele>
        <time>2024-04-17T14:34:35Z</time>
      </trkpt>
      <trkpt lat="43.23509" lon="0.1975">
        <ele>281.6</ele>
        <time>2024-04-17T14:34:36Z</time>
      </trkpt>
      <trkpt lat="43.23506" lon="0.19752">
        <ele>281.6</ele>
        <time>2024-04-17T14:34:37Z</time>
      </trkpt>
      <trkpt lat="43.23504" lon="0.19755">
        <ele>281.6</ele>
        <time>2024-04-17T14:34:38Z</time>
      </trkpt>
      <trkpt lat="43.23501" lon="0.19758">
        <ele>281.4</ele>
        <time>2024-04-17T14:34:39Z</time>
      </trkpt>
      <trkpt lat="43.23499" lon="0.1976">
        <ele>281.4</ele>
        <time>2024-04-17T14:34:40Z</time>
      </trkpt>
      <trkpt lat="43.23497" lon="0.19763">
        <ele>281.4</ele>
        <time>2024-04-17T14:34:41Z</time>
      </trkpt>
      <trkpt lat="43.23495" lon="0.19766">
        <ele>281.4</ele>
        <time>2024-04-17T14:34:42Z</time>
      </trkpt>
      <trkpt lat="43.23493" lon="0.1977">
        <ele>281.4</ele>
        <time>2024-04-17T14:34:43Z</time>
      </trkpt>
      <trkpt lat="43.23491" lon="0.19773">
        <ele>281.4</ele>
        <time>2024-04-17T14:34:44Z</time>
      </trkpt>
      <trkpt lat="43.23488" lon="0.19777">
        <ele>281.4</ele>
        <time>2024-04-17T14:34:45Z</time>
      </trkpt>
      <trkpt lat="43.23486" lon="0.19781">
        <ele>281.4</ele>
        <time>2024-04-17T14:34:46Z</time>
      </trkpt>
      <trkpt lat="43.23483" lon="0.19785">
        <ele>281.4</ele>
        <time>2024-04-17T14:34:47Z</time>
      </trkpt>
      <trkpt lat="43.23481" lon="0.19788">
        <ele>281.4</ele>
        <time>2024-04-17T14:34:48Z</time>
      </trkpt>
      <trkpt lat="43.2348" lon="0.19792">
        <ele>281.4</ele>
        <time>2024-04-17T14:34:49Z</time>
      </trkpt>
      <trkpt lat="43.23479" lon="0.19794">
        <ele>281.4</ele>
        <time>2024-04-17T14:34:50Z</time>
      </trkpt>
      <trkpt lat="43.23478" lon="0.19797">
        <ele>281.4</ele>
        <time>2024-04-17T14:34:51Z</time>
      </trkpt>
      <trkpt lat="43.23477" lon="0.19799">
        <ele>281.4</ele>
        <time>2024-04-17T14:34:52Z</time>
      </trkpt>
      <trkpt lat="43.23475" lon="0.19802">
        <ele>281.2</ele>
        <time>2024-04-17T14:34:53Z</time>
      </trkpt>
      <trkpt lat="43.23473" lon="0.19806">
        <ele>281.4</ele>
        <time>2024-04-17T14:34:54Z</time>
      </trkpt>
      <trkpt lat="43.23471" lon="0.19809">
        <ele>281.4</ele>
        <time>2024-04-17T14:34:55Z</time>
      </trkpt>
      <trkpt lat="43.23468" lon="0.19813">
        <ele>281.4</ele>
        <time>2024-04-17T14:34:56Z</time>
      </trkpt>
      <trkpt lat="43.23466" lon="0.19817">
        <ele>281.4</ele>
        <time>2024-04-17T14:34:57Z</time>
      </trkpt>
      <trkpt lat="43.23463" lon="0.1982">
        <ele>281.4</ele>
        <time>2024-04-17T14:34:58Z</time>
      </trkpt>
      <trkpt lat="43.23461" lon="0.19824">
        <ele>281.4</ele>
        <time>2024-04-17T14:34:59Z</time>
      </trkpt>
      <trkpt lat="43.23459" lon="0.19827">
        <ele>281.4</ele>
        <time>2024-04-17T14:35:00Z</time>
      </trkpt>
      <trkpt lat="43.23457" lon="0.1983">
        <ele>281.4</ele>
        <time>2024-04-17T14:35:01Z</time>
      </trkpt>
      <trkpt lat="43.23456" lon="0.19833">
        <ele>281.4</ele>
        <time>2024-04-17T14:35:02Z</time>
      </trkpt>
      <trkpt lat="43.23454" lon="0.19837">
        <ele>281.6</ele>
        <time>2024-04-17T14:35:03Z</time>
      </trkpt>
      <trkpt lat="43.23452" lon="0.1984">
        <ele>281.6</ele>
        <time>2024-04-17T14:35:04Z</time>
      </trkpt>
      <trkpt lat="43.2345" lon="0.19843">
        <ele>281.6</ele>
        <time>2024-04-17T14:35:05Z</time>
      </trkpt>
      <trkpt lat="43.23448" lon="0.19847">
        <ele>281.6</ele>
        <time>2024-04-17T14:35:06Z</time>
      </trkpt>
      <trkpt lat="43.23446" lon="0.19851">
        <ele>281.8</ele>
        <time>2024-04-17T14:35:07Z</time>
      </trkpt>
      <trkpt lat="43.23443" lon="0.19855">
        <ele>281.6</ele>
        <time>2024-04-17T14:35:08Z</time>
      </trkpt>
      <trkpt lat="43.23441" lon="0.19859">
        <ele>281.6</ele>
        <time>2024-04-17T14:35:09Z</time>
      </trkpt>
      <trkpt lat="43.2344" lon="0.19863">
        <ele>281.6</ele>
        <time>2024-04-17T14:35:10Z</time>
      </trkpt>
      <trkpt lat="43.23438" lon="0.19867">
        <ele>281.6</ele>
        <time>2024-04-17T14:35:11Z</time>
      </trkpt>
      <trkpt lat="43.23436" lon="0.19871">
        <ele>281.8</ele>
        <time>2024-04-17T14:35:12Z</time>
      </trkpt>
      <trkpt lat="43.23434" lon="0.19875">
        <ele>281.8</ele>
        <time>2024-04-17T14:35:13Z</time>
      </trkpt>
      <trkpt lat="43.23432" lon="0.19879">
        <ele>281.8</ele>
        <time>2024-04-17T14:35:14Z</time>
      </trkpt>
      <trkpt lat="43.23429" lon="0.19883">
        <ele>281.8</ele>
        <time>2024-04-17T14:35:15Z</time>
      </trkpt>
      <trkpt lat="43.23427" lon="0.19887">
        <ele>281.8</ele>
        <time>2024-04-17T14:35:16Z</time>
      </trkpt>
      <trkpt lat="43.23425" lon="0.19891">
        <ele>282</ele>
        <time>2024-04-17T14:35:17Z</time>
      </trkpt>
      <trkpt lat="43.23423" lon="0.19895">
        <ele>282</ele>
        <time>2024-04-17T14:35:18Z</time>
      </trkpt>
      <trkpt lat="43.23421" lon="0.199">
        <ele>282</ele>
        <time>2024-04-17T14:35:19Z</time>
      </trkpt>
      <trkpt lat="43.23419" lon="0.19904">
        <ele>282</ele>
        <time>2024-04-17T14:35:20Z</time>
      </trkpt>
      <trkpt lat="43.23416" lon="0.19908">
        <ele>282</ele>
        <time>2024-04-17T14:35:21Z</time>
      </trkpt>
      <trkpt lat="43.23414" lon="0.19911">
        <ele>282.2</ele>
        <time>2024-04-17T14:35:22Z</time>
      </trkpt>
      <trkpt lat="43.23411" lon="0.19915">
        <ele>282.2</ele>
        <time>2024-04-17T14:35:23Z</time>
      </trkpt>
      <trkpt lat="43.23409" lon="0.19919">
        <ele>282.2</ele>
        <time>2024-04-17T14:35:24Z</time>
      </trkpt>
      <trkpt lat="43.23407" lon="0.19923">
        <ele>282.2</ele>
        <time>2024-04-17T14:35:25Z</time>
      </trkpt>
      <trkpt lat="43.23405" lon="0.19927">
        <ele>282.4</ele>
        <time>2024-04-17T14:35:26Z</time>
      </trkpt>
      <trkpt lat="43.23403" lon="0.19931">
        <ele>282.4</ele>
        <time>2024-04-17T14:35:27Z</time>
      </trkpt>
      <trkpt lat="43.23401" lon="0.19935">
        <ele>282.4</ele>
        <time>2024-04-17T14:35:28Z</time>
      </trkpt>
      <trkpt lat="43.23398" lon="0.19939">
        <ele>282.6</ele>
        <time>2024-04-17T14:35:29Z</time>
      </trkpt>
      <trkpt lat="43.23396" lon="0.19943">
        <ele>282.6</ele>
        <time>2024-04-17T14:35:30Z</time>
      </trkpt>
      <trkpt lat="43.23394" lon="0.19946">
        <ele>282.8</ele>
        <time>2024-04-17T14:35:31Z</time>
      </trkpt>
      <trkpt lat="43.23392" lon="0.1995">
        <ele>282.8</ele>
        <time>2024-04-17T14:35:32Z</time>
      </trkpt>
      <trkpt lat="43.2339" lon="0.19954">
        <ele>282.8</ele>
        <time>2024-04-17T14:35:33Z</time>
      </trkpt>
      <trkpt lat="43.23388" lon="0.19958">
        <ele>282.8</ele>
        <time>2024-04-17T14:35:34Z</time>
      </trkpt>
      <trkpt lat="43.23385" lon="0.19962">
        <ele>282.8</ele>
        <time>2024-04-17T14:35:35Z</time>
      </trkpt>
      <trkpt lat="43.23383" lon="0.19966">
        <ele>283</ele>
        <time>2024-04-17T14:35:36Z</time>
      </trkpt>
      <trkpt lat="43.23381" lon="0.1997">
        <ele>283</ele>
        <time>2024-04-17T14:35:37Z</time>
      </trkpt>
      <trkpt lat="43.23378" lon="0.19973">
        <ele>283</ele>
        <time>2024-04-17T14:35:38Z</time>
      </trkpt>
      <trkpt lat="43.23376" lon="0.19977">
        <ele>283</ele>
        <time>2024-04-17T14:35:39Z</time>
      </trkpt>
      <trkpt lat="43.23374" lon="0.19981">
        <ele>283</ele>
        <time>2024-04-17T14:35:40Z</time>
      </trkpt>
      <trkpt lat="43.23372" lon="0.19986">
        <ele>283</ele>
        <time>2024-04-17T14:35:41Z</time>
      </trkpt>
      <trkpt lat="43.2337" lon="0.1999">
        <ele>283</ele>
        <time>2024-04-17T14:35:42Z</time>
      </trkpt>
      <trkpt lat="43.23367" lon="0.19994">
        <ele>283</ele>
        <time>2024-04-17T14:35:43Z</time>
      </trkpt>
      <trkpt lat="43.23365" lon="0.19998">
        <ele>283.2</ele>
        <time>2024-04-17T14:35:44Z</time>
      </trkpt>
      <trkpt lat="43.23363" lon="0.20003">
        <ele>283.2</ele>
        <time>2024-04-17T14:35:45Z</time>
      </trkpt>
      <trkpt lat="43.2336" lon="0.20007">
        <ele>283.2</ele>
        <time>2024-04-17T14:35:46Z</time>
      </trkpt>
      <trkpt lat="43.23358" lon="0.20011">
        <ele>283</ele>
        <time>2024-04-17T14:35:47Z</time>
      </trkpt>
      <trkpt lat="43.23356" lon="0.20015">
        <ele>283</ele>
        <time>2024-04-17T14:35:48Z</time>
      </trkpt>
      <trkpt lat="43.23353" lon="0.20019">
        <ele>283</ele>
        <time>2024-04-17T14:35:49Z</time>
      </trkpt>
      <trkpt lat="43.23351" lon="0.20023">
        <ele>283</ele>
        <time>2024-04-17T14:35:50Z</time>
      </trkpt>
      <trkpt lat="43.23349" lon="0.20027">
        <ele>283.2</ele>
        <time>2024-04-17T14:35:51Z</time>
      </trkpt>
      <trkpt lat="43.23346" lon="0.20031">
        <ele>283.2</ele>
        <time>2024-04-17T14:35:52Z</time>
      </trkpt>
      <trkpt lat="43.23344" lon="0.20035">
        <ele>283.2</ele>
        <time>2024-04-17T14:35:53Z</time>
      </trkpt>
      <trkpt lat="43.23342" lon="0.20038">
        <ele>283.2</ele>
        <time>2024-04-17T14:35:54Z</time>
      </trkpt>
      <trkpt lat="43.23339" lon="0.20043">
        <ele>283.2</ele>
        <time>2024-04-17T14:35:55Z</time>
      </trkpt>
      <trkpt lat="43.23337" lon="0.20047">
        <ele>283.2</ele>
        <time>2024-04-17T14:35:56Z</time>
      </trkpt>
      <trkpt lat="43.23335" lon="0.20051">
        <ele>283.2</ele>
        <time>2024-04-17T14:35:57Z</time>
      </trkpt>
      <trkpt lat="43.23332" lon="0.20055">
        <ele>283.2</ele>
        <time>2024-04-17T14:35:58Z</time>
      </trkpt>
      <trkpt lat="43.2333" lon="0.20059">
        <ele>283.2</ele>
        <time>2024-04-17T14:35:59Z</time>
      </trkpt>
      <trkpt lat="43.23328" lon="0.20063">
        <ele>283</ele>
        <time>2024-04-17T14:36:00Z</time>
      </trkpt>
      <trkpt lat="43.23325" lon="0.20067">
        <ele>282.8</ele>
        <time>2024-04-17T14:36:01Z</time>
      </trkpt>
      <trkpt lat="43.23323" lon="0.20071">
        <ele>282.8</ele>
        <time>2024-04-17T14:36:02Z</time>
      </trkpt>
      <trkpt lat="43.23321" lon="0.20075">
        <ele>282.8</ele>
        <time>2024-04-17T14:36:03Z</time>
      </trkpt>
      <trkpt lat="43.23319" lon="0.20078">
        <ele>282.6</ele>
        <time>2024-04-17T14:36:04Z</time>
      </trkpt>
      <trkpt lat="43.23317" lon="0.20082">
        <ele>282.6</ele>
        <time>2024-04-17T14:36:05Z</time>
      </trkpt>
      <trkpt lat="43.23315" lon="0.20085">
        <ele>282.8</ele>
        <time>2024-04-17T14:36:06Z</time>
      </trkpt>
      <trkpt lat="43.23313" lon="0.20089">
        <ele>282.6</ele>
        <time>2024-04-17T14:36:07Z</time>
      </trkpt>
      <trkpt lat="43.23311" lon="0.20093">
        <ele>282.6</ele>
        <time>2024-04-17T14:36:08Z</time>
      </trkpt>
      <trkpt lat="43.23309" lon="0.20096">
        <ele>282.6</ele>
        <time>2024-04-17T14:36:09Z</time>
      </trkpt>
      <trkpt lat="43.23307" lon="0.20099">
        <ele>282.6</ele>
        <time>2024-04-17T14:36:10Z</time>
      </trkpt>
      <trkpt lat="43.23305" lon="0.20102">
        <ele>282.6</ele>
        <time>2024-04-17T14:36:11Z</time>
      </trkpt>
      <trkpt lat="43.23303" lon="0.20106">
        <ele>282.6</ele>
        <time>2024-04-17T14:36:12Z</time>
      </trkpt>
      <trkpt lat="43.23302" lon="0.20109">
        <ele>282.6</ele>
        <time>2024-04-17T14:36:13Z</time>
      </trkpt>
      <trkpt lat="43.233" lon="0.20112">
        <ele>282.6</ele>
        <time>2024-04-17T14:36:14Z</time>
      </trkpt>
      <trkpt lat="43.23298" lon="0.20116">
        <ele>282.6</ele>
        <time>2024-04-17T14:36:15Z</time>
      </trkpt>
      <trkpt lat="43.23296" lon="0.20119">
        <ele>282.4</ele>
        <time>2024-04-17T14:36:16Z</time>
      </trkpt>
      <trkpt lat="43.23293" lon="0.20123">
        <ele>282.4</ele>
        <time>2024-04-17T14:36:17Z</time>
      </trkpt>
      <trkpt lat="43.23291" lon="0.20127">
        <ele>282.4</ele>
        <time>2024-04-17T14:36:18Z</time>
      </trkpt>
      <trkpt lat="43.23289" lon="0.20131">
        <ele>282.4</ele>
        <time>2024-04-17T14:36:19Z</time>
      </trkpt>
      <trkpt lat="43.23287" lon="0.20135">
        <ele>282.4</ele>
        <time>2024-04-17T14:36:20Z</time>
      </trkpt>
      <trkpt lat="43.23285" lon="0.2014">
        <ele>282.6</ele>
        <time>2024-04-17T14:36:21Z</time>
      </trkpt>
      <trkpt lat="43.23282" lon="0.20144">
        <ele>282.6</ele>
        <time>2024-04-17T14:36:22Z</time>
      </trkpt>
      <trkpt lat="43.2328" lon="0.20148">
        <ele>282.6</ele>
        <time>2024-04-17T14:36:23Z</time>
      </trkpt>
      <trkpt lat="43.23277" lon="0.20152">
        <ele>282.6</ele>
        <time>2024-04-17T14:36:24Z</time>
      </trkpt>
      <trkpt lat="43.23275" lon="0.20156">
        <ele>282.6</ele>
        <time>2024-04-17T14:36:25Z</time>
      </trkpt>
      <trkpt lat="43.23272" lon="0.2016">
        <ele>282.6</ele>
        <time>2024-04-17T14:36:26Z</time>
      </trkpt>
      <trkpt lat="43.2327" lon="0.20164">
        <ele>282.6</ele>
        <time>2024-04-17T14:36:27Z</time>
      </trkpt>
      <trkpt lat="43.23268" lon="0.20168">
        <ele>282.6</ele>
        <time>2024-04-17T14:36:28Z</time>
      </trkpt>
      <trkpt lat="43.23265" lon="0.20172">
        <ele>282.6</ele>
        <time>2024-04-17T14:36:29Z</time>
      </trkpt>
      <trkpt lat="43.23263" lon="0.20176">
        <ele>282.6</ele>
        <time>2024-04-17T14:36:30Z</time>
      </trkpt>
      <trkpt lat="43.23261" lon="0.20181">
        <ele>282.6</ele>
        <time>2024-04-17T14:36:31Z</time>
      </trkpt>
      <trkpt lat="43.23259" lon="0.20185">
        <ele>282.6</ele>
        <time>2024-04-17T14:36:32Z</time>
      </trkpt>
      <trkpt lat="43.23256" lon="0.20189">
        <ele>282.6</ele>
        <time>2024-04-17T14:36:33Z</time>
      </trkpt>
      <trkpt lat="43.23254" lon="0.20193">
        <ele>282.6</ele>
        <time>2024-04-17T14:36:34Z</time>
      </trkpt>
      <trkpt lat="43.23252" lon="0.20198">
        <ele>282.6</ele>
        <time>2024-04-17T14:36:35Z</time>
      </trkpt>
      <trkpt lat="43.23249" lon="0.20202">
        <ele>282.6</ele>
        <time>2024-04-17T14:36:36Z</time>
      </trkpt>
      <trkpt lat="43.23247" lon="0.20206">
        <ele>282.6</ele>
        <time>2024-04-17T14:36:37Z</time>
      </trkpt>
      <trkpt lat="43.23245" lon="0.2021">
        <ele>282.6</ele>
        <time>2024-04-17T14:36:38Z</time>
      </trkpt>
      <trkpt lat="43.23242" lon="0.20214">
        <ele>282.4</ele>
        <time>2024-04-17T14:36:39Z</time>
      </trkpt>
      <trkpt lat="43.2324" lon="0.20218">
        <ele>282.4</ele>
        <time>2024-04-17T14:36:40Z</time>
      </trkpt>
      <trkpt lat="43.23238" lon="0.20223">
        <ele>282.4</ele>
        <time>2024-04-17T14:36:41Z</time>
      </trkpt>
      <trkpt lat="43.23235" lon="0.20227">
        <ele>282.2</ele>
        <time>2024-04-17T14:36:42Z</time>
      </trkpt>
      <trkpt lat="43.23233" lon="0.20231">
        <ele>282.2</ele>
        <time>2024-04-17T14:36:43Z</time>
      </trkpt>
      <trkpt lat="43.23231" lon="0.20235">
        <ele>282</ele>
        <time>2024-04-17T14:36:44Z</time>
      </trkpt>
      <trkpt lat="43.23229" lon="0.20239">
        <ele>282</ele>
        <time>2024-04-17T14:36:45Z</time>
      </trkpt>
      <trkpt lat="43.23226" lon="0.20243">
        <ele>282</ele>
        <time>2024-04-17T14:36:46Z</time>
      </trkpt>
      <trkpt lat="43.23224" lon="0.20247">
        <ele>282</ele>
        <time>2024-04-17T14:36:47Z</time>
      </trkpt>
      <trkpt lat="43.23221" lon="0.20251">
        <ele>282</ele>
        <time>2024-04-17T14:36:48Z</time>
      </trkpt>
      <trkpt lat="43.23219" lon="0.20255">
        <ele>282</ele>
        <time>2024-04-17T14:36:49Z</time>
      </trkpt>
      <trkpt lat="43.23216" lon="0.20259">
        <ele>281.8</ele>
        <time>2024-04-17T14:36:50Z</time>
      </trkpt>
      <trkpt lat="43.23214" lon="0.20263">
        <ele>281.8</ele>
        <time>2024-04-17T14:36:51Z</time>
      </trkpt>
      <trkpt lat="43.23212" lon="0.20267">
        <ele>281.8</ele>
        <time>2024-04-17T14:36:52Z</time>
      </trkpt>
      <trkpt lat="43.23209" lon="0.20271">
        <ele>281.8</ele>
        <time>2024-04-17T14:36:53Z</time>
      </trkpt>
      <trkpt lat="43.23207" lon="0.20275">
        <ele>281.8</ele>
        <time>2024-04-17T14:36:54Z</time>
      </trkpt>
      <trkpt lat="43.23205" lon="0.20279">
        <ele>281.8</ele>
        <time>2024-04-17T14:36:55Z</time>
      </trkpt>
      <trkpt lat="43.23203" lon="0.20283">
        <ele>281.8</ele>
        <time>2024-04-17T14:36:56Z</time>
      </trkpt>
      <trkpt lat="43.232" lon="0.20287">
        <ele>281.6</ele>
        <time>2024-04-17T14:36:57Z</time>
      </trkpt>
      <trkpt lat="43.23198" lon="0.20291">
        <ele>281.6</ele>
        <time>2024-04-17T14:36:58Z</time>
      </trkpt>
      <trkpt lat="43.23195" lon="0.20295">
        <ele>281.6</ele>
        <time>2024-04-17T14:36:59Z</time>
      </trkpt>
      <trkpt lat="43.23193" lon="0.20299">
        <ele>281.8</ele>
        <time>2024-04-17T14:37:00Z</time>
      </trkpt>
      <trkpt lat="43.23191" lon="0.20304">
        <ele>281.8</ele>
        <time>2024-04-17T14:37:01Z</time>
      </trkpt>
      <trkpt lat="43.23189" lon="0.20308">
        <ele>281.6</ele>
        <time>2024-04-17T14:37:02Z</time>
      </trkpt>
      <trkpt lat="43.23187" lon="0.20312">
        <ele>281.6</ele>
        <time>2024-04-17T14:37:03Z</time>
      </trkpt>
      <trkpt lat="43.23184" lon="0.20315">
        <ele>281.6</ele>
        <time>2024-04-17T14:37:04Z</time>
      </trkpt>
      <trkpt lat="43.23181" lon="0.20317">
        <ele>281.6</ele>
        <time>2024-04-17T14:37:05Z</time>
      </trkpt>
      <trkpt lat="43.23178" lon="0.20319">
        <ele>281.6</ele>
        <time>2024-04-17T14:37:06Z</time>
      </trkpt>
      <trkpt lat="43.23176" lon="0.2032">
        <ele>281.4</ele>
        <time>2024-04-17T14:37:07Z</time>
      </trkpt>
      <trkpt lat="43.23173" lon="0.2032">
        <ele>281.4</ele>
        <time>2024-04-17T14:37:08Z</time>
      </trkpt>
      <trkpt lat="43.23172" lon="0.2032">
        <ele>281</ele>
        <time>2024-04-17T14:37:09Z</time>
      </trkpt>
      <trkpt lat="43.2317" lon="0.20319">
        <ele>281</ele>
        <time>2024-04-17T14:37:10Z</time>
      </trkpt>
      <trkpt lat="43.23168" lon="0.20319">
        <ele>280.8</ele>
        <time>2024-04-17T14:37:11Z</time>
      </trkpt>
      <trkpt lat="43.23166" lon="0.20318">
        <ele>280.8</ele>
        <time>2024-04-17T14:37:12Z</time>
      </trkpt>
      <trkpt lat="43.23165" lon="0.20318">
        <ele>280.8</ele>
        <time>2024-04-17T14:37:13Z</time>
      </trkpt>
      <trkpt lat="43.23163" lon="0.20316">
        <ele>280.8</ele>
        <time>2024-04-17T14:37:14Z</time>
      </trkpt>
      <trkpt lat="43.23162" lon="0.20316">
        <ele>280.6</ele>
        <time>2024-04-17T14:37:15Z</time>
      </trkpt>
      <trkpt lat="43.23161" lon="0.20315">
        <ele>280.6</ele>
        <time>2024-04-17T14:37:16Z</time>
      </trkpt>
      <trkpt lat="43.2316" lon="0.20314">
        <ele>280.6</ele>
        <time>2024-04-17T14:37:17Z</time>
      </trkpt>
      <trkpt lat="43.2316" lon="0.20314">
        <ele>280.6</ele>
        <time>2024-04-17T14:37:18Z</time>
      </trkpt>
      <trkpt lat="43.2316" lon="0.20314">
        <ele>280.6</ele>
        <time>2024-04-17T14:37:19Z</time>
      </trkpt>
      <trkpt lat="43.2316" lon="0.20314">
        <ele>280.6</ele>
        <time>2024-04-17T14:37:20Z</time>
      </trkpt>
      <trkpt lat="43.2316" lon="0.20314">
        <ele>280.8</ele>
        <time>2024-04-17T14:37:21Z</time>
      </trkpt>
      <trkpt lat="43.2316" lon="0.20314">
        <ele>280.8</ele>
        <time>2024-04-17T14:37:22Z</time>
      </trkpt>
      <trkpt lat="43.23159" lon="0.20314">
        <ele>280.8</ele>
        <time>2024-04-17T14:37:23Z</time>
      </trkpt>
      <trkpt lat="43.23159" lon="0.20314">
        <ele>280.8</ele>
        <time>2024-04-17T14:37:24Z</time>
      </trkpt>
      <trkpt lat="43.23158" lon="0.20313">
        <ele>281</ele>
        <time>2024-04-17T14:37:25Z</time>
      </trkpt>
      <trkpt lat="43.23156" lon="0.20312">
        <ele>281</ele>
        <time>2024-04-17T14:37:26Z</time>
      </trkpt>
      <trkpt lat="43.23155" lon="0.20311">
        <ele>281</ele>
        <time>2024-04-17T14:37:27Z</time>
      </trkpt>
      <trkpt lat="43.23153" lon="0.2031">
        <ele>281.2</ele>
        <time>2024-04-17T14:37:28Z</time>
      </trkpt>
      <trkpt lat="43.23152" lon="0.20309">
        <ele>281.2</ele>
        <time>2024-04-17T14:37:29Z</time>
      </trkpt>
      <trkpt lat="43.23151" lon="0.20308">
        <ele>281.4</ele>
        <time>2024-04-17T14:37:30Z</time>
      </trkpt>
      <trkpt lat="43.2315" lon="0.20307">
        <ele>281.4</ele>
        <time>2024-04-17T14:37:31Z</time>
      </trkpt>
      <trkpt lat="43.23148" lon="0.20306">
        <ele>281.6</ele>
        <time>2024-04-17T14:37:32Z</time>
      </trkpt>
      <trkpt lat="43.23147" lon="0.20305">
        <ele>281.8</ele>
        <time>2024-04-17T14:37:33Z</time>
      </trkpt>
      <trkpt lat="43.23145" lon="0.20304">
        <ele>282</ele>
        <time>2024-04-17T14:37:34Z</time>
      </trkpt>
      <trkpt lat="43.23144" lon="0.20303">
        <ele>282</ele>
        <time>2024-04-17T14:37:35Z</time>
      </trkpt>
      <trkpt lat="43.23142" lon="0.20302">
        <ele>282.2</ele>
        <time>2024-04-17T14:37:36Z</time>
      </trkpt>
      <trkpt lat="43.23142" lon="0.20302">
        <ele>282.4</ele>
        <time>2024-04-17T14:37:37Z</time>
      </trkpt>
      <trkpt lat="43.23142" lon="0.20302">
        <ele>282.6</ele>
        <time>2024-04-17T14:37:38Z</time>
      </trkpt>
      <trkpt lat="43.23142" lon="0.20302">
        <ele>282.8</ele>
        <time>2024-04-17T14:37:39Z</time>
      </trkpt>
      <trkpt lat="43.23142" lon="0.20302">
        <ele>283</ele>
        <time>2024-04-17T14:37:40Z</time>
      </trkpt>
      <trkpt lat="43.23141" lon="0.20302">
        <ele>283.4</ele>
        <time>2024-04-17T14:37:41Z</time>
      </trkpt>
      <trkpt lat="43.23141" lon="0.20303">
        <ele>283.4</ele>
        <time>2024-04-17T14:37:42Z</time>
      </trkpt>
      <trkpt lat="43.23141" lon="0.20303">
        <ele>284</ele>
        <time>2024-04-17T14:37:43Z</time>
      </trkpt>
      <trkpt lat="43.23139" lon="0.20303">
        <ele>284</ele>
        <time>2024-04-17T14:37:44Z</time>
      </trkpt>
      <trkpt lat="43.23139" lon="0.20303">
        <ele>284.2</ele>
        <time>2024-04-17T14:37:45Z</time>
      </trkpt>
      <trkpt lat="43.23139" lon="0.20303">
        <ele>284</ele>
        <time>2024-04-17T14:37:46Z</time>
      </trkpt>
      <trkpt lat="43.23139" lon="0.20303">
        <ele>284.4</ele>
        <time>2024-04-17T14:37:47Z</time>
      </trkpt>
      <trkpt lat="43.23138" lon="0.20303">
        <ele>284.6</ele>
        <time>2024-04-17T14:37:48Z</time>
      </trkpt>
      <trkpt lat="43.23138" lon="0.20303">
        <ele>284.6</ele>
        <time>2024-04-17T14:37:49Z</time>
      </trkpt>
      <trkpt lat="43.23138" lon="0.20303">
        <ele>284.8</ele>
        <time>2024-04-17T14:37:50Z</time>
      </trkpt>
      <trkpt lat="43.23138" lon="0.20303">
        <ele>285</ele>
        <time>2024-04-17T14:37:51Z</time>
      </trkpt>
      <trkpt lat="43.23138" lon="0.20303">
        <ele>285</ele>
        <time>2024-04-17T14:37:52Z</time>
      </trkpt>
      <trkpt lat="43.23138" lon="0.20303">
        <ele>285.2</ele>
        <time>2024-04-17T14:37:53Z</time>
      </trkpt>
      <trkpt lat="43.23138" lon="0.20303">
        <ele>285.2</ele>
        <time>2024-04-17T14:37:54Z</time>
      </trkpt>
      <trkpt lat="43.23138" lon="0.20303">
        <ele>285.2</ele>
        <time>2024-04-17T14:37:55Z</time>
      </trkpt>
      <trkpt lat="43.23138" lon="0.20303">
        <ele>285.4</ele>
        <time>2024-04-17T14:37:56Z</time>
      </trkpt>
      <trkpt lat="43.23138" lon="0.20303">
        <ele>285.4</ele>
        <time>2024-04-17T14:37:57Z</time>
      </trkpt>
      <trkpt lat="43.23138" lon="0.20303">
        <ele>285.8</ele>
        <time>2024-04-17T14:37:58Z</time>
      </trkpt>
      <trkpt lat="43.23138" lon="0.20303">
        <ele>286</ele>
        <time>2024-04-17T14:37:59Z</time>
      </trkpt>
      <trkpt lat="43.23138" lon="0.20303">
        <ele>286.2</ele>
        <time>2024-04-17T14:38:00Z</time>
      </trkpt>
      <trkpt lat="43.23138" lon="0.20303">
        <ele>286.4</ele>
        <time>2024-04-17T14:38:01Z</time>
      </trkpt>
      <trkpt lat="43.23138" lon="0.20303">
        <ele>286.6</ele>
        <time>2024-04-17T14:38:02Z</time>
      </trkpt>
      <trkpt lat="43.23138" lon="0.20303">
        <ele>286.8</ele>
        <time>2024-04-17T14:38:03Z</time>
      </trkpt>
      <trkpt lat="43.23138" lon="0.20303">
        <ele>286.8</ele>
        <time>2024-04-17T14:38:04Z</time>
      </trkpt>
      <trkpt lat="43.23138" lon="0.20303">
        <ele>287</ele>
        <time>2024-04-17T14:38:05Z</time>
      </trkpt>
      <trkpt lat="43.23138" lon="0.20303">
        <ele>287</ele>
        <time>2024-04-17T14:38:06Z</time>
      </trkpt>
      <trkpt lat="43.23138" lon="0.20303">
        <ele>287</ele>
        <time>2024-04-17T14:38:07Z</time>
      </trkpt>
      <trkpt lat="43.23138" lon="0.20303">
        <ele>287</ele>
        <time>2024-04-17T14:38:08Z</time>
      </trkpt>
      <trkpt lat="43.23138" lon="0.20303">
        <ele>287</ele>
        <time>2024-04-17T14:38:09Z</time>
      </trkpt>
      <trkpt lat="43.23138" lon="0.20303">
        <ele>287</ele>
        <time>2024-04-17T14:38:10Z</time>
      </trkpt>
      <trkpt lat="43.23138" lon="0.20303">
        <ele>287</ele>
        <time>2024-04-17T14:38:11Z</time>
      </trkpt>
      <trkpt lat="43.23138" lon="0.20303">
        <ele>287.2</ele>
        <time>2024-04-17T14:38:12Z</time>
      </trkpt>
      <trkpt lat="43.23138" lon="0.20303">
        <ele>287.2</ele>
        <time>2024-04-17T14:38:13Z</time>
      </trkpt>
      <trkpt lat="43.23138" lon="0.20303">
        <ele>287.2</ele>
        <time>2024-04-17T14:38:14Z</time>
      </trkpt>
      <trkpt lat="43.23138" lon="0.20303">
        <ele>287.2</ele>
        <time>2024-04-17T14:38:15Z</time>
      </trkpt>
      <trkpt lat="43.23138" lon="0.20303">
        <ele>287.4</ele>
        <time>2024-04-17T14:38:16Z</time>
      </trkpt>
      <trkpt lat="43.23138" lon="0.20303">
        <ele>287.4</ele>
        <time>2024-04-17T14:38:17Z</time>
      </trkpt>
      <trkpt lat="43.23138" lon="0.20303">
        <ele>287.4</ele>
        <time>2024-04-17T14:38:18Z</time>
      </trkpt>
      <trkpt lat="43.23138" lon="0.20303">
        <ele>287.4</ele>
        <time>2024-04-17T14:38:19Z</time>
      </trkpt>
      <trkpt lat="43.23138" lon="0.20303">
        <ele>287.6</ele>
        <time>2024-04-17T14:38:20Z</time>
      </trkpt>
      <trkpt lat="43.23138" lon="0.20304">
        <ele>287.8</ele>
        <time>2024-04-17T14:38:21Z</time>
      </trkpt>
      <trkpt lat="43.23137" lon="0.20303">
        <ele>287.8</ele>
        <time>2024-04-17T14:38:22Z</time>
      </trkpt>
      <trkpt lat="43.23137" lon="0.20303">
        <ele>288</ele>
        <time>2024-04-17T14:38:23Z</time>
      </trkpt>
      <trkpt lat="43.23137" lon="0.20303">
        <ele>288.2</ele>
        <time>2024-04-17T14:38:24Z</time>
      </trkpt>
      <trkpt lat="43.23137" lon="0.20303">
        <ele>288.2</ele>
        <time>2024-04-17T14:38:25Z</time>
      </trkpt>
      <trkpt lat="43.23137" lon="0.20303">
        <ele>288.4</ele>
        <time>2024-04-17T14:38:26Z</time>
      </trkpt>
      <trkpt lat="43.23137" lon="0.20303">
        <ele>288.4</ele>
        <time>2024-04-17T14:38:27Z</time>
      </trkpt>
      <trkpt lat="43.23137" lon="0.20303">
        <ele>288.6</ele>
        <time>2024-04-17T14:38:28Z</time>
      </trkpt>
      <trkpt lat="43.23134" lon="0.20304">
        <ele>288.6</ele>
        <time>2024-04-17T14:38:29Z</time>
      </trkpt>
      <trkpt lat="43.23133" lon="0.20304">
        <ele>288.6</ele>
        <time>2024-04-17T14:38:30Z</time>
      </trkpt>
      <trkpt lat="43.23133" lon="0.20304">
        <ele>288.8</ele>
        <time>2024-04-17T14:38:31Z</time>
      </trkpt>
      <trkpt lat="43.23133" lon="0.20304">
        <ele>289</ele>
        <time>2024-04-17T14:38:32Z</time>
      </trkpt>
      <trkpt lat="43.23133" lon="0.20304">
        <ele>289.2</ele>
        <time>2024-04-17T14:38:33Z</time>
      </trkpt>
      <trkpt lat="43.23133" lon="0.20304">
        <ele>289.2</ele>
        <time>2024-04-17T14:38:34Z</time>
      </trkpt>
      <trkpt lat="43.23133" lon="0.20304">
        <ele>289.4</ele>
        <time>2024-04-17T14:38:35Z</time>
      </trkpt>
      <trkpt lat="43.23133" lon="0.20304">
        <ele>289.6</ele>
        <time>2024-04-17T14:38:36Z</time>
      </trkpt>
      <trkpt lat="43.23133" lon="0.20304">
        <ele>289.8</ele>
        <time>2024-04-17T14:38:37Z</time>
      </trkpt>
      <trkpt lat="43.23133" lon="0.20304">
        <ele>289.8</ele>
        <time>2024-04-17T14:38:38Z</time>
      </trkpt>
      <trkpt lat="43.23133" lon="0.20304">
        <ele>290.2</ele>
        <time>2024-04-17T14:38:39Z</time>
      </trkpt>
      <trkpt lat="43.23133" lon="0.20304">
        <ele>290.6</ele>
        <time>2024-04-17T14:38:40Z</time>
      </trkpt>
      <trkpt lat="43.23132" lon="0.20304">
        <ele>290.8</ele>
        <time>2024-04-17T14:38:41Z</time>
      </trkpt>
      <trkpt lat="43.23129" lon="0.20304">
        <ele>291.2</ele>
        <time>2024-04-17T14:38:42Z</time>
      </trkpt>
      <trkpt lat="43.23126" lon="0.20304">
        <ele>291.2</ele>
        <time>2024-04-17T14:38:43Z</time>
      </trkpt>
      <trkpt lat="43.23123" lon="0.20304">
        <ele>291.4</ele>
        <time>2024-04-17T14:38:44Z</time>
      </trkpt>
      <trkpt lat="43.2312" lon="0.20304">
        <ele>291.6</ele>
        <time>2024-04-17T14:38:45Z</time>
      </trkpt>
      <trkpt lat="43.23117" lon="0.20304">
        <ele>291.6</ele>
        <time>2024-04-17T14:38:46Z</time>
      </trkpt>
      <trkpt lat="43.23114" lon="0.20305">
        <ele>291.6</ele>
        <time>2024-04-17T14:38:47Z</time>
      </trkpt>
      <trkpt lat="43.23112" lon="0.20307">
        <ele>292</ele>
        <time>2024-04-17T14:38:48Z</time>
      </trkpt>
      <trkpt lat="43.2311" lon="0.20308">
        <ele>292.2</ele>
        <time>2024-04-17T14:38:49Z</time>
      </trkpt>
      <trkpt lat="43.23108" lon="0.20309">
        <ele>292.4</ele>
        <time>2024-04-17T14:38:50Z</time>
      </trkpt>
      <trkpt lat="43.23108" lon="0.2031">
        <ele>292.6</ele>
        <time>2024-04-17T14:38:51Z</time>
      </trkpt>
      <trkpt lat="43.23108" lon="0.2031">
        <ele>292.6</ele>
        <time>2024-04-17T14:38:52Z</time>
      </trkpt>
      <trkpt lat="43.23107" lon="0.2031">
        <ele>293.2</ele>
        <time>2024-04-17T14:38:53Z</time>
      </trkpt>
      <trkpt lat="43.23107" lon="0.20311">
        <ele>293</ele>
        <time>2024-04-17T14:38:54Z</time>
      </trkpt>
      <trkpt lat="43.23107" lon="0.20311">
        <ele>293.6</ele>
        <time>2024-04-17T14:38:55Z</time>
      </trkpt>
      <trkpt lat="43.23107" lon="0.20311">
        <ele>293.6</ele>
        <time>2024-04-17T14:38:56Z</time>
      </trkpt>
      <trkpt lat="43.23107" lon="0.20311">
        <ele>294</ele>
        <time>2024-04-17T14:38:57Z</time>
      </trkpt>
      <trkpt lat="43.23107" lon="0.20311">
        <ele>294.2</ele>
        <time>2024-04-17T14:38:58Z</time>
      </trkpt>
      <trkpt lat="43.23107" lon="0.20311">
        <ele>294.4</ele>
        <time>2024-04-17T14:38:59Z</time>
      </trkpt>
      <trkpt lat="43.23107" lon="0.20311">
        <ele>294.6</ele>
        <time>2024-04-17T14:39:00Z</time>
      </trkpt>
      <trkpt lat="43.23107" lon="0.20311">
        <ele>294.4</ele>
        <time>2024-04-17T14:39:01Z</time>
      </trkpt>
      <trkpt lat="43.23107" lon="0.20311">
        <ele>294.8</ele>
        <time>2024-04-17T14:39:02Z</time>
      </trkpt>
      <trkpt lat="43.23107" lon="0.20311">
        <ele>294.8</ele>
        <time>2024-04-17T14:39:03Z</time>
      </trkpt>
      <trkpt lat="43.23107" lon="0.20311">
        <ele>295</ele>
        <time>2024-04-17T14:39:04Z</time>
      </trkpt>
      <trkpt lat="43.23107" lon="0.20311">
        <ele>295</ele>
        <time>2024-04-17T14:39:05Z</time>
      </trkpt>
      <trkpt lat="43.23107" lon="0.20311">
        <ele>295</ele>
        <time>2024-04-17T14:39:06Z</time>
      </trkpt>
      <trkpt lat="43.23106" lon="0.20311">
        <ele>295</ele>
        <time>2024-04-17T14:39:07Z</time>
      </trkpt>
      <trkpt lat="43.23104" lon="0.20312">
        <ele>295</ele>
        <time>2024-04-17T14:39:08Z</time>
      </trkpt>
      <trkpt lat="43.23104" lon="0.20313">
        <ele>295.2</ele>
        <time>2024-04-17T14:39:09Z</time>
      </trkpt>
      <trkpt lat="43.23104" lon="0.20313">
        <ele>295.2</ele>
        <time>2024-04-17T14:39:10Z</time>
      </trkpt>
      <trkpt lat="43.23104" lon="0.20313">
        <ele>295.4</ele>
        <time>2024-04-17T14:39:11Z</time>
      </trkpt>
      <trkpt lat="43.23104" lon="0.20313">
        <ele>295.2</ele>
        <time>2024-04-17T14:39:12Z</time>
      </trkpt>
      <trkpt lat="43.23104" lon="0.20313">
        <ele>295.6</ele>
        <time>2024-04-17T14:39:13Z</time>
      </trkpt>
      <trkpt lat="43.23104" lon="0.20313">
        <ele>295.8</ele>
        <time>2024-04-17T14:39:14Z</time>
      </trkpt>
      <trkpt lat="43.23104" lon="0.20313">
        <ele>295.8</ele>
        <time>2024-04-17T14:39:15Z</time>
      </trkpt>
      <trkpt lat="43.23104" lon="0.20313">
        <ele>295.8</ele>
        <time>2024-04-17T14:39:16Z</time>
      </trkpt>
      <trkpt lat="43.23104" lon="0.20313">
        <ele>295.8</ele>
        <time>2024-04-17T14:39:17Z</time>
      </trkpt>
      <trkpt lat="43.23104" lon="0.20313">
        <ele>296</ele>
        <time>2024-04-17T14:39:18Z</time>
      </trkpt>
      <trkpt lat="43.23104" lon="0.20313">
        <ele>296</ele>
        <time>2024-04-17T14:39:19Z</time>
      </trkpt>
      <trkpt lat="43.23104" lon="0.20313">
        <ele>296</ele>
        <time>2024-04-17T14:39:20Z</time>
      </trkpt>
      <trkpt lat="43.23104" lon="0.20313">
        <ele>296.2</ele>
        <time>2024-04-17T14:39:21Z</time>
      </trkpt>
      <trkpt lat="43.23103" lon="0.20313">
        <ele>296.2</ele>
        <time>2024-04-17T14:39:22Z</time>
      </trkpt>
      <trkpt lat="43.23101" lon="0.20314">
        <ele>296.2</ele>
        <time>2024-04-17T14:39:23Z</time>
      </trkpt>
      <trkpt lat="43.23101" lon="0.20314">
        <ele>296.2</ele>
        <time>2024-04-17T14:39:24Z</time>
      </trkpt>
      <trkpt lat="43.23101" lon="0.20314">
        <ele>296.2</ele>
        <time>2024-04-17T14:39:25Z</time>
      </trkpt>
      <trkpt lat="43.23101" lon="0.20314">
        <ele>296.2</ele>
        <time>2024-04-17T14:39:26Z</time>
      </trkpt>
      <trkpt lat="43.23101" lon="0.20314">
        <ele>296.2</ele>
        <time>2024-04-17T14:39:27Z</time>
      </trkpt>
      <trkpt lat="43.23101" lon="0.20314">
        <ele>296.2</ele>
        <time>2024-04-17T14:39:28Z</time>
      </trkpt>
      <trkpt lat="43.23101" lon="0.20314">
        <ele>296.2</ele>
        <time>2024-04-17T14:39:29Z</time>
      </trkpt>
      <trkpt lat="43.23101" lon="0.20314">
        <ele>296.4</ele>
        <time>2024-04-17T14:39:30Z</time>
      </trkpt>
      <trkpt lat="43.23101" lon="0.20314">
        <ele>296.4</ele>
        <time>2024-04-17T14:39:31Z</time>
      </trkpt>
      <trkpt lat="43.23101" lon="0.20314">
        <ele>296.4</ele>
        <time>2024-04-17T14:39:32Z</time>
      </trkpt>
      <trkpt lat="43.23101" lon="0.20314">
        <ele>296.4</ele>
        <time>2024-04-17T14:39:33Z</time>
      </trkpt>
      <trkpt lat="43.23101" lon="0.20314">
        <ele>296.4</ele>
        <time>2024-04-17T14:39:34Z</time>
      </trkpt>
      <trkpt lat="43.23101" lon="0.20314">
        <ele>296.4</ele>
        <time>2024-04-17T14:39:35Z</time>
      </trkpt>
      <trkpt lat="43.23101" lon="0.20314">
        <ele>296.4</ele>
        <time>2024-04-17T14:39:36Z</time>
      </trkpt>
      <trkpt lat="43.23101" lon="0.20314">
        <ele>296.4</ele>
        <time>2024-04-17T14:39:37Z</time>
      </trkpt>
      <trkpt lat="43.23101" lon="0.20314">
        <ele>296.4</ele>
        <time>2024-04-17T14:39:38Z</time>
      </trkpt>
      <trkpt lat="43.23101" lon="0.20314">
        <ele>296.4</ele>
        <time>2024-04-17T14:39:39Z</time>
      </trkpt>
      <trkpt lat="43.23101" lon="0.20314">
        <ele>296.4</ele>
        <time>2024-04-17T14:39:40Z</time>
      </trkpt>
      <trkpt lat="43.23101" lon="0.20314">
        <ele>296.4</ele>
        <time>2024-04-17T14:39:41Z</time>
      </trkpt>
      <trkpt lat="43.23101" lon="0.20314">
        <ele>296.4</ele>
        <time>2024-04-17T14:39:42Z</time>
      </trkpt>
      <trkpt lat="43.23101" lon="0.20314">
        <ele>296.4</ele>
        <time>2024-04-17T14:39:43Z</time>
      </trkpt>
      <trkpt lat="43.23101" lon="0.20314">
        <ele>296.4</ele>
        <time>2024-04-17T14:39:44Z</time>
      </trkpt>
      <trkpt lat="43.23101" lon="0.20314">
        <ele>296.4</ele>
        <time>2024-04-17T14:39:45Z</time>
      </trkpt>
      <trkpt lat="43.23101" lon="0.20314">
        <ele>296.4</ele>
        <time>2024-04-17T14:39:46Z</time>
      </trkpt>
      <trkpt lat="43.23101" lon="0.20314">
        <ele>296.4</ele>
        <time>2024-04-17T14:39:47Z</time>
      </trkpt>
      <trkpt lat="43.23101" lon="0.20314">
        <ele>296.4</ele>
        <time>2024-04-17T14:39:48Z</time>
      </trkpt>
      <trkpt lat="43.23101" lon="0.20314">
        <ele>296.4</ele>
        <time>2024-04-17T14:39:49Z</time>
      </trkpt>
      <trkpt lat="43.23101" lon="0.20314">
        <ele>296.4</ele>
        <time>2024-04-17T14:39:50Z</time>
      </trkpt>
      <trkpt lat="43.23101" lon="0.20314">
        <ele>296.2</ele>
        <time>2024-04-17T14:39:51Z</time>
      </trkpt>
      <trkpt lat="43.23101" lon="0.20314">
        <ele>296.2</ele>
        <time>2024-04-17T14:39:52Z</time>
      </trkpt>
      <trkpt lat="43.23101" lon="0.20314">
        <ele>296.2</ele>
        <time>2024-04-17T14:39:53Z</time>
      </trkpt>
      <trkpt lat="43.23101" lon="0.20314">
        <ele>296.2</ele>
        <time>2024-04-17T14:39:54Z</time>
      </trkpt>
      <trkpt lat="43.23101" lon="0.20314">
        <ele>296.2</ele>
        <time>2024-04-17T14:39:55Z</time>
      </trkpt>
      <trkpt lat="43.23101" lon="0.20314">
        <ele>296.2</ele>
        <time>2024-04-17T14:39:56Z</time>
      </trkpt>
      <trkpt lat="43.23101" lon="0.20314">
        <ele>296.2</ele>
        <time>2024-04-17T14:39:57Z</time>
      </trkpt>
      <trkpt lat="43.23101" lon="0.20314">
        <ele>296.2</ele>
        <time>2024-04-17T14:39:58Z</time>
      </trkpt>
      <trkpt lat="43.23101" lon="0.20314">
        <ele>296.2</ele>
        <time>2024-04-17T14:39:59Z</time>
      </trkpt>
      <trkpt lat="43.23101" lon="0.20314">
        <ele>296.2</ele>
        <time>2024-04-17T14:40:00Z</time>
      </trkpt>
      <trkpt lat="43.23101" lon="0.20314">
        <ele>296.2</ele>
        <time>2024-04-17T14:40:01Z</time>
      </trkpt>
      <trkpt lat="43.23101" lon="0.20314">
        <ele>296.2</ele>
        <time>2024-04-17T14:40:02Z</time>
      </trkpt>
      <trkpt lat="43.23101" lon="0.20314">
        <ele>296.2</ele>
        <time>2024-04-17T14:40:03Z</time>
      </trkpt>
      <trkpt lat="43.23101" lon="0.20314">
        <ele>296.4</ele>
        <time>2024-04-17T14:40:04Z</time>
      </trkpt>
      <trkpt lat="43.23101" lon="0.20314">
        <ele>296.4</ele>
        <time>2024-04-17T14:40:05Z</time>
      </trkpt>
      <trkpt lat="43.23101" lon="0.20314">
        <ele>296.4</ele>
        <time>2024-04-17T14:40:06Z</time>
      </trkpt>
      <trkpt lat="43.23101" lon="0.20314">
        <ele>296.4</ele>
        <time>2024-04-17T14:40:07Z</time>
      </trkpt>
      <trkpt lat="43.23101" lon="0.20314">
        <ele>296.4</ele>
        <time>2024-04-17T14:40:08Z</time>
      </trkpt>
      <trkpt lat="43.23101" lon="0.20314">
        <ele>296.4</ele>
        <time>2024-04-17T14:40:09Z</time>
      </trkpt>
      <trkpt lat="43.23101" lon="0.20314">
        <ele>296.4</ele>
        <time>2024-04-17T14:40:10Z</time>
      </trkpt>
      <trkpt lat="43.23101" lon="0.20314">
        <ele>296.4</ele>
        <time>2024-04-17T14:40:11Z</time>
      </trkpt>
      <trkpt lat="43.23101" lon="0.20314">
        <ele>296.4</ele>
        <time>2024-04-17T14:40:12Z</time>
      </trkpt>
      <trkpt lat="43.23102" lon="0.20315">
        <ele>296.4</ele>
        <time>2024-04-17T14:40:13Z</time>
      </trkpt>
      <trkpt lat="43.23102" lon="0.20315">
        <ele>296.4</ele>
        <time>2024-04-17T14:40:14Z</time>
      </trkpt>
      <trkpt lat="43.23102" lon="0.20315">
        <ele>296.4</ele>
        <time>2024-04-17T14:40:15Z</time>
      </trkpt>
      <trkpt lat="43.23102" lon="0.20315">
        <ele>296.4</ele>
        <time>2024-04-17T14:40:16Z</time>
      </trkpt>
      <trkpt lat="43.23102" lon="0.20315">
        <ele>296.4</ele>
        <time>2024-04-17T14:40:17Z</time>
      </trkpt>
      <trkpt lat="43.23102" lon="0.20315">
        <ele>296.4</ele>
        <time>2024-04-17T14:40:18Z</time>
      </trkpt>
      <trkpt lat="43.23102" lon="0.20315">
        <ele>296.6</ele>
        <time>2024-04-17T14:40:19Z</time>
      </trkpt>
      <trkpt lat="43.23102" lon="0.20315">
        <ele>296.6</ele>
        <time>2024-04-17T14:40:20Z</time>
      </trkpt>
      <trkpt lat="43.23105" lon="0.20316">
        <ele>296.8</ele>
        <time>2024-04-17T14:40:21Z</time>
      </trkpt>
      <trkpt lat="43.23107" lon="0.20317">
        <ele>296.8</ele>
        <time>2024-04-17T14:40:22Z</time>
      </trkpt>
      <trkpt lat="43.23109" lon="0.20318">
        <ele>296.8</ele>
        <time>2024-04-17T14:40:23Z</time>
      </trkpt>
      <trkpt lat="43.23111" lon="0.2032">
        <ele>296.8</ele>
        <time>2024-04-17T14:40:24Z</time>
      </trkpt>
      <trkpt lat="43.23112" lon="0.20321">
        <ele>296.8</ele>
        <time>2024-04-17T14:40:25Z</time>
      </trkpt>
      <trkpt lat="43.23115" lon="0.20322">
        <ele>296.8</ele>
        <time>2024-04-17T14:40:26Z</time>
      </trkpt>
      <trkpt lat="43.23118" lon="0.20324">
        <ele>296.8</ele>
        <time>2024-04-17T14:40:27Z</time>
      </trkpt>
      <trkpt lat="43.23122" lon="0.20326">
        <ele>296.8</ele>
        <time>2024-04-17T14:40:28Z</time>
      </trkpt>
      <trkpt lat="43.23124" lon="0.20327">
        <ele>296.8</ele>
        <time>2024-04-17T14:40:29Z</time>
      </trkpt>
      <trkpt lat="43.23125" lon="0.20328">
        <ele>296.8</ele>
        <time>2024-04-17T14:40:30Z</time>
      </trkpt>
      <trkpt lat="43.23127" lon="0.20329">
        <ele>296.6</ele>
        <time>2024-04-17T14:40:31Z</time>
      </trkpt>
      <trkpt lat="43.2313" lon="0.20331">
        <ele>296.6</ele>
        <time>2024-04-17T14:40:32Z</time>
      </trkpt>
      <trkpt lat="43.23133" lon="0.20332">
        <ele>296.6</ele>
        <time>2024-04-17T14:40:33Z</time>
      </trkpt>
      <trkpt lat="43.23134" lon="0.20334">
        <ele>296.4</ele>
        <time>2024-04-17T14:40:34Z</time>
      </trkpt>
      <trkpt lat="43.23137" lon="0.20335">
        <ele>296.4</ele>
        <time>2024-04-17T14:40:35Z</time>
      </trkpt>
      <trkpt lat="43.2314" lon="0.20336">
        <ele>296.4</ele>
        <time>2024-04-17T14:40:36Z</time>
      </trkpt>
      <trkpt lat="43.23147" lon="0.2034">
        <ele>296.2</ele>
        <time>2024-04-17T14:40:37Z</time>
      </trkpt>
      <trkpt lat="43.23152" lon="0.20343">
        <ele>296.2</ele>
        <time>2024-04-17T14:40:38Z</time>
      </trkpt>
      <trkpt lat="43.23154" lon="0.20346">
        <ele>296.2</ele>
        <time>2024-04-17T14:40:39Z</time>
      </trkpt>
      <trkpt lat="43.23159" lon="0.2035">
        <ele>295.8</ele>
        <time>2024-04-17T14:40:40Z</time>
      </trkpt>
      <trkpt lat="43.23163" lon="0.20353">
        <ele>295.8</ele>
        <time>2024-04-17T14:40:41Z</time>
      </trkpt>
      <trkpt lat="43.23165" lon="0.20356">
        <ele>295.6</ele>
        <time>2024-04-17T14:40:42Z</time>
      </trkpt>
      <trkpt lat="43.23166" lon="0.20358">
        <ele>295.6</ele>
        <time>2024-04-17T14:40:43Z</time>
      </trkpt>
      <trkpt lat="43.23167" lon="0.20361">
        <ele>295.4</ele>
        <time>2024-04-17T14:40:44Z</time>
      </trkpt>
      <trkpt lat="43.23171" lon="0.20365">
        <ele>295.4</ele>
        <time>2024-04-17T14:40:45Z</time>
      </trkpt>
      <trkpt lat="43.23172" lon="0.20368">
        <ele>295.4</ele>
        <time>2024-04-17T14:40:46Z</time>
      </trkpt>
      <trkpt lat="43.23173" lon="0.20371">
        <ele>295.4</ele>
        <time>2024-04-17T14:40:47Z</time>
      </trkpt>
      <trkpt lat="43.23176" lon="0.20373">
        <ele>295.4</ele>
        <time>2024-04-17T14:40:48Z</time>
      </trkpt>
      <trkpt lat="43.23177" lon="0.20378">
        <ele>295.4</ele>
        <time>2024-04-17T14:40:49Z</time>
      </trkpt>
      <trkpt lat="43.23177" lon="0.20383">
        <ele>295.2</ele>
        <time>2024-04-17T14:40:50Z</time>
      </trkpt>
      <trkpt lat="43.23178" lon="0.20387">
        <ele>295.2</ele>
        <time>2024-04-17T14:40:51Z</time>
      </trkpt>
      <trkpt lat="43.23179" lon="0.20389">
        <ele>295.2</ele>
        <time>2024-04-17T14:40:52Z</time>
      </trkpt>
      <trkpt lat="43.23181" lon="0.20389">
        <ele>295.2</ele>
        <time>2024-04-17T14:40:53Z</time>
      </trkpt>
      <trkpt lat="43.23182" lon="0.20391">
        <ele>295.2</ele>
        <time>2024-04-17T14:40:54Z</time>
      </trkpt>
      <trkpt lat="43.23185" lon="0.20393">
        <ele>295.2</ele>
        <time>2024-04-17T14:40:55Z</time>
      </trkpt>
      <trkpt lat="43.23187" lon="0.20394">
        <ele>295.2</ele>
        <time>2024-04-17T14:40:56Z</time>
      </trkpt>
      <trkpt lat="43.2319" lon="0.20397">
        <ele>295.2</ele>
        <time>2024-04-17T14:40:57Z</time>
      </trkpt>
      <trkpt lat="43.23194" lon="0.20399">
        <ele>295.2</ele>
        <time>2024-04-17T14:40:58Z</time>
      </trkpt>
      <trkpt lat="43.23197" lon="0.20402">
        <ele>295.2</ele>
        <time>2024-04-17T14:40:59Z</time>
      </trkpt>
      <trkpt lat="43.232" lon="0.20405">
        <ele>295.2</ele>
        <time>2024-04-17T14:41:00Z</time>
      </trkpt>
      <trkpt lat="43.23204" lon="0.20408">
        <ele>295.2</ele>
        <time>2024-04-17T14:41:01Z</time>
      </trkpt>
      <trkpt lat="43.23207" lon="0.20412">
        <ele>295.2</ele>
        <time>2024-04-17T14:41:02Z</time>
      </trkpt>
      <trkpt lat="43.23209" lon="0.20415">
        <ele>295.2</ele>
        <time>2024-04-17T14:41:03Z</time>
      </trkpt>
      <trkpt lat="43.23213" lon="0.20418">
        <ele>295.2</ele>
        <time>2024-04-17T14:41:04Z</time>
      </trkpt>
      <trkpt lat="43.23215" lon="0.20422">
        <ele>295</ele>
        <time>2024-04-17T14:41:05Z</time>
      </trkpt>
      <trkpt lat="43.23216" lon="0.20426">
        <ele>295</ele>
        <time>2024-04-17T14:41:06Z</time>
      </trkpt>
      <trkpt lat="43.23218" lon="0.20429">
        <ele>294.8</ele>
        <time>2024-04-17T14:41:07Z</time>
      </trkpt>
      <trkpt lat="43.2322" lon="0.20431">
        <ele>294.8</ele>
        <time>2024-04-17T14:41:08Z</time>
      </trkpt>
      <trkpt lat="43.23223" lon="0.20435">
        <ele>294.8</ele>
        <time>2024-04-17T14:41:09Z</time>
      </trkpt>
      <trkpt lat="43.23224" lon="0.2044">
        <ele>294.6</ele>
        <time>2024-04-17T14:41:10Z</time>
      </trkpt>
      <trkpt lat="43.23226" lon="0.20443">
        <ele>294.6</ele>
        <time>2024-04-17T14:41:11Z</time>
      </trkpt>
      <trkpt lat="43.23229" lon="0.20447">
        <ele>294.6</ele>
        <time>2024-04-17T14:41:12Z</time>
      </trkpt>
      <trkpt lat="43.23233" lon="0.20452">
        <ele>294.6</ele>
        <time>2024-04-17T14:41:13Z</time>
      </trkpt>
      <trkpt lat="43.23235" lon="0.20456">
        <ele>294.6</ele>
        <time>2024-04-17T14:41:14Z</time>
      </trkpt>
      <trkpt lat="43.23237" lon="0.20459">
        <ele>294.6</ele>
        <time>2024-04-17T14:41:15Z</time>
      </trkpt>
      <trkpt lat="43.23238" lon="0.20462">
        <ele>294.8</ele>
        <time>2024-04-17T14:41:16Z</time>
      </trkpt>
      <trkpt lat="43.23238" lon="0.20464">
        <ele>294.8</ele>
        <time>2024-04-17T14:41:17Z</time>
      </trkpt>
      <trkpt lat="43.23238" lon="0.20466">
        <ele>294.8</ele>
        <time>2024-04-17T14:41:18Z</time>
      </trkpt>
      <trkpt lat="43.2324" lon="0.20472">
        <ele>294.8</ele>
        <time>2024-04-17T14:41:19Z</time>
      </trkpt>
      <trkpt lat="43.23242" lon="0.20477">
        <ele>295</ele>
        <time>2024-04-17T14:41:20Z</time>
      </trkpt>
      <trkpt lat="43.23246" lon="0.20479">
        <ele>295</ele>
        <time>2024-04-17T14:41:21Z</time>
      </trkpt>
      <trkpt lat="43.2325" lon="0.20483">
        <ele>295</ele>
        <time>2024-04-17T14:41:22Z</time>
      </trkpt>
      <trkpt lat="43.23254" lon="0.20487">
        <ele>295</ele>
        <time>2024-04-17T14:41:23Z</time>
      </trkpt>
      <trkpt lat="43.23255" lon="0.20487">
        <ele>295</ele>
        <time>2024-04-17T14:41:24Z</time>
      </trkpt>
      <trkpt lat="43.23257" lon="0.20488">
        <ele>295</ele>
        <time>2024-04-17T14:41:25Z</time>
      </trkpt>
      <trkpt lat="43.2326" lon="0.20492">
        <ele>295</ele>
        <time>2024-04-17T14:41:26Z</time>
      </trkpt>
      <trkpt lat="43.23265" lon="0.20495">
        <ele>295.2</ele>
        <time>2024-04-17T14:41:27Z</time>
      </trkpt>
      <trkpt lat="43.23266" lon="0.20498">
        <ele>295.2</ele>
        <time>2024-04-17T14:41:28Z</time>
      </trkpt>
      <trkpt lat="43.23267" lon="0.20501">
        <ele>295.2</ele>
        <time>2024-04-17T14:41:29Z</time>
      </trkpt>
      <trkpt lat="43.23268" lon="0.20503">
        <ele>295.2</ele>
        <time>2024-04-17T14:41:30Z</time>
      </trkpt>
      <trkpt lat="43.23271" lon="0.20502">
        <ele>295.2</ele>
        <time>2024-04-17T14:41:31Z</time>
      </trkpt>
      <trkpt lat="43.23271" lon="0.20504">
        <ele>295.2</ele>
        <time>2024-04-17T14:41:32Z</time>
      </trkpt>
      <trkpt lat="43.23271" lon="0.20505">
        <ele>295.4</ele>
        <time>2024-04-17T14:41:33Z</time>
      </trkpt>
      <trkpt lat="43.23273" lon="0.20507">
        <ele>295.6</ele>
        <time>2024-04-17T14:41:34Z</time>
      </trkpt>
      <trkpt lat="43.23276" lon="0.20508">
        <ele>295.8</ele>
        <time>2024-04-17T14:41:35Z</time>
      </trkpt>
      <trkpt lat="43.23279" lon="0.2051">
        <ele>296</ele>
        <time>2024-04-17T14:41:36Z</time>
      </trkpt>
      <trkpt lat="43.23283" lon="0.20512">
        <ele>296</ele>
        <time>2024-04-17T14:41:37Z</time>
      </trkpt>
      <trkpt lat="43.23286" lon="0.20513">
        <ele>296</ele>
        <time>2024-04-17T14:41:38Z</time>
      </trkpt>
      <trkpt lat="43.23289" lon="0.20514">
        <ele>296</ele>
        <time>2024-04-17T14:41:39Z</time>
      </trkpt>
      <trkpt lat="43.23293" lon="0.20515">
        <ele>296</ele>
        <time>2024-04-17T14:41:40Z</time>
      </trkpt>
      <trkpt lat="43.23299" lon="0.20517">
        <ele>296</ele>
        <time>2024-04-17T14:41:41Z</time>
      </trkpt>
      <trkpt lat="43.23304" lon="0.20519">
        <ele>296</ele>
        <time>2024-04-17T14:41:42Z</time>
      </trkpt>
      <trkpt lat="43.2331" lon="0.2052">
        <ele>295.8</ele>
        <time>2024-04-17T14:41:43Z</time>
      </trkpt>
      <trkpt lat="43.23314" lon="0.20522">
        <ele>295.6</ele>
        <time>2024-04-17T14:41:44Z</time>
      </trkpt>
      <trkpt lat="43.23317" lon="0.20527">
        <ele>295.6</ele>
        <time>2024-04-17T14:41:45Z</time>
      </trkpt>
      <trkpt lat="43.23318" lon="0.20531">
        <ele>295.2</ele>
        <time>2024-04-17T14:41:46Z</time>
      </trkpt>
      <trkpt lat="43.23318" lon="0.20538">
        <ele>295.2</ele>
        <time>2024-04-17T14:41:47Z</time>
      </trkpt>
      <trkpt lat="43.23318" lon="0.20544">
        <ele>294.8</ele>
        <time>2024-04-17T14:41:48Z</time>
      </trkpt>
      <trkpt lat="43.23318" lon="0.20549">
        <ele>294.4</ele>
        <time>2024-04-17T14:41:49Z</time>
      </trkpt>
      <trkpt lat="43.23319" lon="0.20553">
        <ele>293.8</ele>
        <time>2024-04-17T14:41:50Z</time>
      </trkpt>
      <trkpt lat="43.23319" lon="0.20555">
        <ele>293.6</ele>
        <time>2024-04-17T14:41:51Z</time>
      </trkpt>
      <trkpt lat="43.23319" lon="0.20557">
        <ele>293.2</ele>
        <time>2024-04-17T14:41:52Z</time>
      </trkpt>
      <trkpt lat="43.2332" lon="0.20559">
        <ele>293.2</ele>
        <time>2024-04-17T14:41:53Z</time>
      </trkpt>
      <trkpt lat="43.23322" lon="0.20561">
        <ele>293</ele>
        <time>2024-04-17T14:41:54Z</time>
      </trkpt>
      <trkpt lat="43.23325" lon="0.20563">
        <ele>293</ele>
        <time>2024-04-17T14:41:55Z</time>
      </trkpt>
      <trkpt lat="43.23327" lon="0.20566">
        <ele>293.2</ele>
        <time>2024-04-17T14:41:56Z</time>
      </trkpt>
      <trkpt lat="43.2333" lon="0.20569">
        <ele>293.4</ele>
        <time>2024-04-17T14:41:57Z</time>
      </trkpt>
      <trkpt lat="43.2333" lon="0.20573">
        <ele>293.4</ele>
        <time>2024-04-17T14:41:58Z</time>
      </trkpt>
      <trkpt lat="43.23329" lon="0.20575">
        <ele>293.8</ele>
        <time>2024-04-17T14:41:59Z</time>
      </trkpt>
      <trkpt lat="43.23329" lon="0.20575">
        <ele>294</ele>
        <time>2024-04-17T14:42:00Z</time>
      </trkpt>
      <trkpt lat="43.23332" lon="0.20576">
        <ele>294</ele>
        <time>2024-04-17T14:42:01Z</time>
      </trkpt>
      <trkpt lat="43.23333" lon="0.20577">
        <ele>294.2</ele>
        <time>2024-04-17T14:42:02Z</time>
      </trkpt>
      <trkpt lat="43.23333" lon="0.20578">
        <ele>294.2</ele>
        <time>2024-04-17T14:42:03Z</time>
      </trkpt>
      <trkpt lat="43.23334" lon="0.20579">
        <ele>294.4</ele>
        <time>2024-04-17T14:42:04Z</time>
      </trkpt>
      <trkpt lat="43.23336" lon="0.20579">
        <ele>294.2</ele>
        <time>2024-04-17T14:42:05Z</time>
      </trkpt>
      <trkpt lat="43.23338" lon="0.20579">
        <ele>294.4</ele>
        <time>2024-04-17T14:42:06Z</time>
      </trkpt>
      <trkpt lat="43.2334" lon="0.20581">
        <ele>294.6</ele>
        <time>2024-04-17T14:42:07Z</time>
      </trkpt>
      <trkpt lat="43.23343" lon="0.20581">
        <ele>294.8</ele>
        <time>2024-04-17T14:42:08Z</time>
      </trkpt>
      <trkpt lat="43.23343" lon="0.20582">
        <ele>294.8</ele>
        <time>2024-04-17T14:42:09Z</time>
      </trkpt>
      <trkpt lat="43.23344" lon="0.20582">
        <ele>295.2</ele>
        <time>2024-04-17T14:42:10Z</time>
      </trkpt>
      <trkpt lat="43.23344" lon="0.20582">
        <ele>295.6</ele>
        <time>2024-04-17T14:42:11Z</time>
      </trkpt>
      <trkpt lat="43.23344" lon="0.20583">
        <ele>295.6</ele>
        <time>2024-04-17T14:42:12Z</time>
      </trkpt>
      <trkpt lat="43.23347" lon="0.20583">
        <ele>295.8</ele>
        <time>2024-04-17T14:42:13Z</time>
      </trkpt>
      <trkpt lat="43.23351" lon="0.20584">
        <ele>296</ele>
        <time>2024-04-17T14:42:14Z</time>
      </trkpt>
      <trkpt lat="43.23353" lon="0.20583">
        <ele>296.2</ele>
        <time>2024-04-17T14:42:15Z</time>
      </trkpt>
      <trkpt lat="43.23355" lon="0.20583">
        <ele>296.6</ele>
        <time>2024-04-17T14:42:16Z</time>
      </trkpt>
      <trkpt lat="43.23356" lon="0.20582">
        <ele>296.8</ele>
        <time>2024-04-17T14:42:17Z</time>
      </trkpt>
      <trkpt lat="43.23357" lon="0.20581">
        <ele>297</ele>
        <time>2024-04-17T14:42:18Z</time>
      </trkpt>
      <trkpt lat="43.23359" lon="0.20581">
        <ele>297.2</ele>
        <time>2024-04-17T14:42:19Z</time>
      </trkpt>
      <trkpt lat="43.23359" lon="0.2058">
        <ele>297.4</ele>
        <time>2024-04-17T14:42:20Z</time>
      </trkpt>
      <trkpt lat="43.23364" lon="0.20579">
        <ele>297.6</ele>
        <time>2024-04-17T14:42:21Z</time>
      </trkpt>
      <trkpt lat="43.23367" lon="0.20578">
        <ele>297.6</ele>
        <time>2024-04-17T14:42:22Z</time>
      </trkpt>
      <trkpt lat="43.23369" lon="0.20577">
        <ele>297.6</ele>
        <time>2024-04-17T14:42:23Z</time>
      </trkpt>
      <trkpt lat="43.2337" lon="0.20576">
        <ele>297.8</ele>
        <time>2024-04-17T14:42:24Z</time>
      </trkpt>
      <trkpt lat="43.2337" lon="0.20577">
        <ele>297.8</ele>
        <time>2024-04-17T14:42:25Z</time>
      </trkpt>
      <trkpt lat="43.23373" lon="0.20576">
        <ele>298</ele>
        <time>2024-04-17T14:42:26Z</time>
      </trkpt>
      <trkpt lat="43.23377" lon="0.20576">
        <ele>298</ele>
        <time>2024-04-17T14:42:27Z</time>
      </trkpt>
      <trkpt lat="43.2338" lon="0.20576">
        <ele>298</ele>
        <time>2024-04-17T14:42:28Z</time>
      </trkpt>
      <trkpt lat="43.23384" lon="0.20576">
        <ele>298</ele>
        <time>2024-04-17T14:42:29Z</time>
      </trkpt>
      <trkpt lat="43.23386" lon="0.20577">
        <ele>298</ele>
        <time>2024-04-17T14:42:30Z</time>
      </trkpt>
      <trkpt lat="43.23388" lon="0.20579">
        <ele>298</ele>
        <time>2024-04-17T14:42:31Z</time>
      </trkpt>
      <trkpt lat="43.2339" lon="0.2058">
        <ele>298</ele>
        <time>2024-04-17T14:42:32Z</time>
      </trkpt>
      <trkpt lat="43.23391" lon="0.20582">
        <ele>298</ele>
        <time>2024-04-17T14:42:33Z</time>
      </trkpt>
      <trkpt lat="43.23392" lon="0.20585">
        <ele>298</ele>
        <time>2024-04-17T14:42:34Z</time>
      </trkpt>
      <trkpt lat="43.23393" lon="0.20588">
        <ele>298</ele>
        <time>2024-04-17T14:42:35Z</time>
      </trkpt>
      <trkpt lat="43.23393" lon="0.20593">
        <ele>298</ele>
        <time>2024-04-17T14:42:36Z</time>
      </trkpt>
      <trkpt lat="43.23393" lon="0.20599">
        <ele>298</ele>
        <time>2024-04-17T14:42:37Z</time>
      </trkpt>
      <trkpt lat="43.23393" lon="0.20604">
        <ele>298</ele>
        <time>2024-04-17T14:42:38Z</time>
      </trkpt>
      <trkpt lat="43.23391" lon="0.20609">
        <ele>298</ele>
        <time>2024-04-17T14:42:39Z</time>
      </trkpt>
      <trkpt lat="43.23395" lon="0.20613">
        <ele>298</ele>
        <time>2024-04-17T14:42:40Z</time>
      </trkpt>
      <trkpt lat="43.23398" lon="0.20616">
        <ele>298</ele>
        <time>2024-04-17T14:42:41Z</time>
      </trkpt>
      <trkpt lat="43.23402" lon="0.20621">
        <ele>298</ele>
        <time>2024-04-17T14:42:42Z</time>
      </trkpt>
      <trkpt lat="43.23403" lon="0.20626">
        <ele>298</ele>
        <time>2024-04-17T14:42:43Z</time>
      </trkpt>
      <trkpt lat="43.23403" lon="0.2063">
        <ele>298</ele>
        <time>2024-04-17T14:42:44Z</time>
      </trkpt>
      <trkpt lat="43.23403" lon="0.20634">
        <ele>298</ele>
        <time>2024-04-17T14:42:45Z</time>
      </trkpt>
      <trkpt lat="43.23404" lon="0.20639">
        <ele>298</ele>
        <time>2024-04-17T14:42:46Z</time>
      </trkpt>
      <trkpt lat="43.23404" lon="0.20642">
        <ele>297.8</ele>
        <time>2024-04-17T14:42:47Z</time>
      </trkpt>
      <trkpt lat="43.23404" lon="0.20647">
        <ele>297.6</ele>
        <time>2024-04-17T14:42:48Z</time>
      </trkpt>
      <trkpt lat="43.23404" lon="0.2065">
        <ele>297.6</ele>
        <time>2024-04-17T14:42:49Z</time>
      </trkpt>
      <trkpt lat="43.23404" lon="0.20654">
        <ele>297.6</ele>
        <time>2024-04-17T14:42:50Z</time>
      </trkpt>
      <trkpt lat="43.23405" lon="0.20657">
        <ele>297.4</ele>
        <time>2024-04-17T14:42:51Z</time>
      </trkpt>
      <trkpt lat="43.23406" lon="0.20659">
        <ele>297.4</ele>
        <time>2024-04-17T14:42:52Z</time>
      </trkpt>
      <trkpt lat="43.23408" lon="0.20661">
        <ele>297.2</ele>
        <time>2024-04-17T14:42:53Z</time>
      </trkpt>
      <trkpt lat="43.23409" lon="0.20664">
        <ele>297.2</ele>
        <time>2024-04-17T14:42:54Z</time>
      </trkpt>
      <trkpt lat="43.2341" lon="0.20666">
        <ele>297.2</ele>
        <time>2024-04-17T14:42:55Z</time>
      </trkpt>
      <trkpt lat="43.23411" lon="0.20669">
        <ele>297.2</ele>
        <time>2024-04-17T14:42:56Z</time>
      </trkpt>
      <trkpt lat="43.23411" lon="0.20671">
        <ele>297.2</ele>
        <time>2024-04-17T14:42:57Z</time>
      </trkpt>
      <trkpt lat="43.23412" lon="0.20675">
        <ele>297.2</ele>
        <time>2024-04-17T14:42:58Z</time>
      </trkpt>
      <trkpt lat="43.23413" lon="0.20677">
        <ele>297.4</ele>
        <time>2024-04-17T14:42:59Z</time>
      </trkpt>
      <trkpt lat="43.23413" lon="0.2068">
        <ele>297.6</ele>
        <time>2024-04-17T14:43:00Z</time>
      </trkpt>
      <trkpt lat="43.23413" lon="0.20684">
        <ele>297.6</ele>
        <time>2024-04-17T14:43:01Z</time>
      </trkpt>
      <trkpt lat="43.23414" lon="0.20688">
        <ele>297.8</ele>
        <time>2024-04-17T14:43:02Z</time>
      </trkpt>
      <trkpt lat="43.23417" lon="0.20691">
        <ele>298</ele>
        <time>2024-04-17T14:43:03Z</time>
      </trkpt>
      <trkpt lat="43.23418" lon="0.20696">
        <ele>298</ele>
        <time>2024-04-17T14:43:04Z</time>
      </trkpt>
      <trkpt lat="43.23417" lon="0.207">
        <ele>298.2</ele>
        <time>2024-04-17T14:43:05Z</time>
      </trkpt>
      <trkpt lat="43.23417" lon="0.20703">
        <ele>298.2</ele>
        <time>2024-04-17T14:43:06Z</time>
      </trkpt>
      <trkpt lat="43.23417" lon="0.20705">
        <ele>298.6</ele>
        <time>2024-04-17T14:43:07Z</time>
      </trkpt>
      <trkpt lat="43.23417" lon="0.20705">
        <ele>298.6</ele>
        <time>2024-04-17T14:43:08Z</time>
      </trkpt>
      <trkpt lat="43.23419" lon="0.20706">
        <ele>299</ele>
        <time>2024-04-17T14:43:09Z</time>
      </trkpt>
      <trkpt lat="43.2342" lon="0.2071">
        <ele>299.4</ele>
        <time>2024-04-17T14:43:10Z</time>
      </trkpt>
      <trkpt lat="43.2342" lon="0.20713">
        <ele>299.6</ele>
        <time>2024-04-17T14:43:11Z</time>
      </trkpt>
      <trkpt lat="43.2342" lon="0.20717">
        <ele>299.6</ele>
        <time>2024-04-17T14:43:12Z</time>
      </trkpt>
      <trkpt lat="43.23419" lon="0.20721">
        <ele>299.8</ele>
        <time>2024-04-17T14:43:13Z</time>
      </trkpt>
      <trkpt lat="43.23418" lon="0.20726">
        <ele>300</ele>
        <time>2024-04-17T14:43:14Z</time>
      </trkpt>
      <trkpt lat="43.23418" lon="0.20728">
        <ele>300.2</ele>
        <time>2024-04-17T14:43:15Z</time>
      </trkpt>
      <trkpt lat="43.23418" lon="0.20729">
        <ele>300.4</ele>
        <time>2024-04-17T14:43:16Z</time>
      </trkpt>
      <trkpt lat="43.2342" lon="0.20731">
        <ele>300.6</ele>
        <time>2024-04-17T14:43:17Z</time>
      </trkpt>
      <trkpt lat="43.23421" lon="0.20734">
        <ele>300.8</ele>
        <time>2024-04-17T14:43:18Z</time>
      </trkpt>
      <trkpt lat="43.23422" lon="0.20736">
        <ele>301</ele>
        <time>2024-04-17T14:43:19Z</time>
      </trkpt>
      <trkpt lat="43.23422" lon="0.20739">
        <ele>301</ele>
        <time>2024-04-17T14:43:20Z</time>
      </trkpt>
      <trkpt lat="43.2342" lon="0.20743">
        <ele>301.4</ele>
        <time>2024-04-17T14:43:21Z</time>
      </trkpt>
      <trkpt lat="43.23419" lon="0.20746">
        <ele>301.6</ele>
        <time>2024-04-17T14:43:22Z</time>
      </trkpt>
      <trkpt lat="43.2342" lon="0.20748">
        <ele>301.8</ele>
        <time>2024-04-17T14:43:23Z</time>
      </trkpt>
      <trkpt lat="43.23419" lon="0.20749">
        <ele>301.8</ele>
        <time>2024-04-17T14:43:24Z</time>
      </trkpt>
      <trkpt lat="43.23421" lon="0.20749">
        <ele>302</ele>
        <time>2024-04-17T14:43:25Z</time>
      </trkpt>
      <trkpt lat="43.23421" lon="0.2075">
        <ele>302</ele>
        <time>2024-04-17T14:43:26Z</time>
      </trkpt>
      <trkpt lat="43.23421" lon="0.20752">
        <ele>302.4</ele>
        <time>2024-04-17T14:43:27Z</time>
      </trkpt>
      <trkpt lat="43.23423" lon="0.20755">
        <ele>302.6</ele>
        <time>2024-04-17T14:43:28Z</time>
      </trkpt>
      <trkpt lat="43.23423" lon="0.20758">
        <ele>302.8</ele>
        <time>2024-04-17T14:43:29Z</time>
      </trkpt>
      <trkpt lat="43.23421" lon="0.20762">
        <ele>303</ele>
        <time>2024-04-17T14:43:30Z</time>
      </trkpt>
      <trkpt lat="43.2342" lon="0.20766">
        <ele>303.2</ele>
        <time>2024-04-17T14:43:31Z</time>
      </trkpt>
      <trkpt lat="43.2342" lon="0.20767">
        <ele>303.4</ele>
        <time>2024-04-17T14:43:32Z</time>
      </trkpt>
      <trkpt lat="43.23421" lon="0.20768">
        <ele>303.6</ele>
        <time>2024-04-17T14:43:33Z</time>
      </trkpt>
      <trkpt lat="43.23422" lon="0.20772">
        <ele>303.8</ele>
        <time>2024-04-17T14:43:34Z</time>
      </trkpt>
      <trkpt lat="43.23422" lon="0.20776">
        <ele>304</ele>
        <time>2024-04-17T14:43:35Z</time>
      </trkpt>
      <trkpt lat="43.23422" lon="0.20777">
        <ele>304.2</ele>
        <time>2024-04-17T14:43:36Z</time>
      </trkpt>
      <trkpt lat="43.23421" lon="0.20779">
        <ele>304.4</ele>
        <time>2024-04-17T14:43:37Z</time>
      </trkpt>
      <trkpt lat="43.2342" lon="0.20781">
        <ele>304.4</ele>
        <time>2024-04-17T14:43:38Z</time>
      </trkpt>
      <trkpt lat="43.2342" lon="0.20782">
        <ele>304.6</ele>
        <time>2024-04-17T14:43:39Z</time>
      </trkpt>
      <trkpt lat="43.23422" lon="0.20784">
        <ele>304.6</ele>
        <time>2024-04-17T14:43:40Z</time>
      </trkpt>
      <trkpt lat="43.23424" lon="0.20787">
        <ele>304.8</ele>
        <time>2024-04-17T14:43:41Z</time>
      </trkpt>
      <trkpt lat="43.23425" lon="0.20789">
        <ele>305</ele>
        <time>2024-04-17T14:43:42Z</time>
      </trkpt>
      <trkpt lat="43.23425" lon="0.2079">
        <ele>305</ele>
        <time>2024-04-17T14:43:43Z</time>
      </trkpt>
      <trkpt lat="43.23425" lon="0.20793">
        <ele>305.2</ele>
        <time>2024-04-17T14:43:44Z</time>
      </trkpt>
      <trkpt lat="43.23425" lon="0.20796">
        <ele>305.2</ele>
        <time>2024-04-17T14:43:45Z</time>
      </trkpt>
      <trkpt lat="43.23425" lon="0.208">
        <ele>305.4</ele>
        <time>2024-04-17T14:43:46Z</time>
      </trkpt>
      <trkpt lat="43.23427" lon="0.20803">
        <ele>305.4</ele>
        <time>2024-04-17T14:43:47Z</time>
      </trkpt>
      <trkpt lat="43.23429" lon="0.20807">
        <ele>305.4</ele>
        <time>2024-04-17T14:43:48Z</time>
      </trkpt>
      <trkpt lat="43.23431" lon="0.20811">
        <ele>305.4</ele>
        <time>2024-04-17T14:43:49Z</time>
      </trkpt>
      <trkpt lat="43.23432" lon="0.20815">
        <ele>305.4</ele>
        <time>2024-04-17T14:43:50Z</time>
      </trkpt>
      <trkpt lat="43.23433" lon="0.2082">
        <ele>305.2</ele>
        <time>2024-04-17T14:43:51Z</time>
      </trkpt>
      <trkpt lat="43.23433" lon="0.20824">
        <ele>305.2</ele>
        <time>2024-04-17T14:43:52Z</time>
      </trkpt>
      <trkpt lat="43.23436" lon="0.2083">
        <ele>305.2</ele>
        <time>2024-04-17T14:43:53Z</time>
      </trkpt>
      <trkpt lat="43.23438" lon="0.20835">
        <ele>305</ele>
        <time>2024-04-17T14:43:54Z</time>
      </trkpt>
      <trkpt lat="43.2344" lon="0.2084">
        <ele>304.8</ele>
        <time>2024-04-17T14:43:55Z</time>
      </trkpt>
      <trkpt lat="43.23442" lon="0.20846">
        <ele>304.8</ele>
        <time>2024-04-17T14:43:56Z</time>
      </trkpt>
      <trkpt lat="43.23444" lon="0.20852">
        <ele>304.4</ele>
        <time>2024-04-17T14:43:57Z</time>
      </trkpt>
      <trkpt lat="43.23447" lon="0.20858">
        <ele>304.2</ele>
        <time>2024-04-17T14:43:58Z</time>
      </trkpt>
      <trkpt lat="43.23449" lon="0.20864">
        <ele>303.8</ele>
        <time>2024-04-17T14:43:59Z</time>
      </trkpt>
      <trkpt lat="43.23452" lon="0.20869">
        <ele>303.4</ele>
        <time>2024-04-17T14:44:00Z</time>
      </trkpt>
      <trkpt lat="43.23455" lon="0.20875">
        <ele>303.2</ele>
        <time>2024-04-17T14:44:01Z</time>
      </trkpt>
      <trkpt lat="43.2346" lon="0.20884">
        <ele>302.8</ele>
        <time>2024-04-17T14:44:02Z</time>
      </trkpt>
      <trkpt lat="43.23464" lon="0.20892">
        <ele>302.6</ele>
        <time>2024-04-17T14:44:03Z</time>
      </trkpt>
      <trkpt lat="43.23467" lon="0.209">
        <ele>302.2</ele>
        <time>2024-04-17T14:44:04Z</time>
      </trkpt>
      <trkpt lat="43.2347" lon="0.20906">
        <ele>302.2</ele>
        <time>2024-04-17T14:44:05Z</time>
      </trkpt>
      <trkpt lat="43.2347" lon="0.20908">
        <ele>302</ele>
        <time>2024-04-17T14:44:06Z</time>
      </trkpt>
      <trkpt lat="43.23472" lon="0.2091">
        <ele>302</ele>
        <time>2024-04-17T14:44:07Z</time>
      </trkpt>
      <trkpt lat="43.23472" lon="0.20912">
        <ele>301.8</ele>
        <time>2024-04-17T14:44:08Z</time>
      </trkpt>
      <trkpt lat="43.23473" lon="0.20915">
        <ele>302</ele>
        <time>2024-04-17T14:44:09Z</time>
      </trkpt>
      <trkpt lat="43.23474" lon="0.20919">
        <ele>302</ele>
        <time>2024-04-17T14:44:10Z</time>
      </trkpt>
      <trkpt lat="43.23479" lon="0.20926">
        <ele>302</ele>
        <time>2024-04-17T14:44:11Z</time>
      </trkpt>
      <trkpt lat="43.23481" lon="0.20931">
        <ele>302</ele>
        <time>2024-04-17T14:44:12Z</time>
      </trkpt>
      <trkpt lat="43.23482" lon="0.20936">
        <ele>302.2</ele>
        <time>2024-04-17T14:44:13Z</time>
      </trkpt>
      <trkpt lat="43.23483" lon="0.20939">
        <ele>302.4</ele>
        <time>2024-04-17T14:44:14Z</time>
      </trkpt>
      <trkpt lat="43.23484" lon="0.20944">
        <ele>302.4</ele>
        <time>2024-04-17T14:44:15Z</time>
      </trkpt>
      <trkpt lat="43.23486" lon="0.20948">
        <ele>302.6</ele>
        <time>2024-04-17T14:44:16Z</time>
      </trkpt>
      <trkpt lat="43.23488" lon="0.20952">
        <ele>302.6</ele>
        <time>2024-04-17T14:44:17Z</time>
      </trkpt>
      <trkpt lat="43.23491" lon="0.20955">
        <ele>302.8</ele>
        <time>2024-04-17T14:44:18Z</time>
      </trkpt>
      <trkpt lat="43.23494" lon="0.20957">
        <ele>302.8</ele>
        <time>2024-04-17T14:44:19Z</time>
      </trkpt>
      <trkpt lat="43.23496" lon="0.2096">
        <ele>302.8</ele>
        <time>2024-04-17T14:44:20Z</time>
      </trkpt>
      <trkpt lat="43.23495" lon="0.20964">
        <ele>302.8</ele>
        <time>2024-04-17T14:44:21Z</time>
      </trkpt>
      <trkpt lat="43.23496" lon="0.20967">
        <ele>302.8</ele>
        <time>2024-04-17T14:44:22Z</time>
      </trkpt>
      <trkpt lat="43.235" lon="0.20971">
        <ele>302.8</ele>
        <time>2024-04-17T14:44:23Z</time>
      </trkpt>
      <trkpt lat="43.235" lon="0.20974">
        <ele>302.8</ele>
        <time>2024-04-17T14:44:24Z</time>
      </trkpt>
      <trkpt lat="43.235" lon="0.20979">
        <ele>302.8</ele>
        <time>2024-04-17T14:44:25Z</time>
      </trkpt>
      <trkpt lat="43.23502" lon="0.20983">
        <ele>302.8</ele>
        <time>2024-04-17T14:44:26Z</time>
      </trkpt>
      <trkpt lat="43.23505" lon="0.20988">
        <ele>302.6</ele>
        <time>2024-04-17T14:44:27Z</time>
      </trkpt>
      <trkpt lat="43.23508" lon="0.20994">
        <ele>302.4</ele>
        <time>2024-04-17T14:44:28Z</time>
      </trkpt>
      <trkpt lat="43.23509" lon="0.20998">
        <ele>302.2</ele>
        <time>2024-04-17T14:44:29Z</time>
      </trkpt>
      <trkpt lat="43.23512" lon="0.21003">
        <ele>302</ele>
        <time>2024-04-17T14:44:30Z</time>
      </trkpt>
      <trkpt lat="43.23516" lon="0.21009">
        <ele>301.8</ele>
        <time>2024-04-17T14:44:31Z</time>
      </trkpt>
      <trkpt lat="43.23522" lon="0.21017">
        <ele>301.6</ele>
        <time>2024-04-17T14:44:32Z</time>
      </trkpt>
      <trkpt lat="43.23529" lon="0.21025">
        <ele>301.2</ele>
        <time>2024-04-17T14:44:33Z</time>
      </trkpt>
      <trkpt lat="43.23534" lon="0.21032">
        <ele>300.6</ele>
        <time>2024-04-17T14:44:34Z</time>
      </trkpt>
      <trkpt lat="43.23539" lon="0.21038">
        <ele>300.4</ele>
        <time>2024-04-17T14:44:35Z</time>
      </trkpt>
      <trkpt lat="43.23544" lon="0.21045">
        <ele>299.8</ele>
        <time>2024-04-17T14:44:36Z</time>
      </trkpt>
      <trkpt lat="43.23548" lon="0.21051">
        <ele>299.4</ele>
        <time>2024-04-17T14:44:37Z</time>
      </trkpt>
      <trkpt lat="43.23553" lon="0.21055">
        <ele>299</ele>
        <time>2024-04-17T14:44:38Z</time>
      </trkpt>
      <trkpt lat="43.23558" lon="0.2106">
        <ele>299</ele>
        <time>2024-04-17T14:44:39Z</time>
      </trkpt>
      <trkpt lat="43.23564" lon="0.21065">
        <ele>297.8</ele>
        <time>2024-04-17T14:44:40Z</time>
      </trkpt>
      <trkpt lat="43.23563" lon="0.2107">
        <ele>296.8</ele>
        <time>2024-04-17T14:44:41Z</time>
      </trkpt>
      <trkpt lat="43.23562" lon="0.21075">
        <ele>295.6</ele>
        <time>2024-04-17T14:44:42Z</time>
      </trkpt>
      <trkpt lat="43.23558" lon="0.21082">
        <ele>294.8</ele>
        <time>2024-04-17T14:44:43Z</time>
      </trkpt>
      <trkpt lat="43.23555" lon="0.21088">
        <ele>294.6</ele>
        <time>2024-04-17T14:44:44Z</time>
      </trkpt>
      <trkpt lat="43.23552" lon="0.21093">
        <ele>294</ele>
        <time>2024-04-17T14:44:45Z</time>
      </trkpt>
      <trkpt lat="43.2355" lon="0.21096">
        <ele>293.8</ele>
        <time>2024-04-17T14:44:46Z</time>
      </trkpt>
      <trkpt lat="43.23547" lon="0.21099">
        <ele>293.2</ele>
        <time>2024-04-17T14:44:47Z</time>
      </trkpt>
      <trkpt lat="43.23543" lon="0.21101">
        <ele>293</ele>
        <time>2024-04-17T14:44:48Z</time>
      </trkpt>
      <trkpt lat="43.2354" lon="0.21103">
        <ele>292.4</ele>
        <time>2024-04-17T14:44:49Z</time>
      </trkpt>
      <trkpt lat="43.23536" lon="0.21106">
        <ele>292.2</ele>
        <time>2024-04-17T14:44:50Z</time>
      </trkpt>
      <trkpt lat="43.23532" lon="0.21108">
        <ele>292.2</ele>
        <time>2024-04-17T14:44:51Z</time>
      </trkpt>
      <trkpt lat="43.23529" lon="0.2111">
        <ele>292.2</ele>
        <time>2024-04-17T14:44:52Z</time>
      </trkpt>
      <trkpt lat="43.23526" lon="0.21113">
        <ele>292.2</ele>
        <time>2024-04-17T14:44:53Z</time>
      </trkpt>
      <trkpt lat="43.23524" lon="0.21115">
        <ele>292.2</ele>
        <time>2024-04-17T14:44:54Z</time>
      </trkpt>
      <trkpt lat="43.23521" lon="0.21117">
        <ele>292.2</ele>
        <time>2024-04-17T14:44:55Z</time>
      </trkpt>
      <trkpt lat="43.23518" lon="0.2112">
        <ele>292.2</ele>
        <time>2024-04-17T14:44:56Z</time>
      </trkpt>
      <trkpt lat="43.23515" lon="0.21122">
        <ele>292.2</ele>
        <time>2024-04-17T14:44:57Z</time>
      </trkpt>
      <trkpt lat="43.23512" lon="0.21124">
        <ele>292.2</ele>
        <time>2024-04-17T14:44:58Z</time>
      </trkpt>
      <trkpt lat="43.2351" lon="0.21126">
        <ele>292.4</ele>
        <time>2024-04-17T14:44:59Z</time>
      </trkpt>
      <trkpt lat="43.23506" lon="0.21129">
        <ele>292.4</ele>
        <time>2024-04-17T14:45:00Z</time>
      </trkpt>
      <trkpt lat="43.23504" lon="0.21131">
        <ele>292.6</ele>
        <time>2024-04-17T14:45:01Z</time>
      </trkpt>
      <trkpt lat="43.23501" lon="0.21133">
        <ele>292.6</ele>
        <time>2024-04-17T14:45:02Z</time>
      </trkpt>
      <trkpt lat="43.23498" lon="0.21135">
        <ele>292.8</ele>
        <time>2024-04-17T14:45:03Z</time>
      </trkpt>
      <trkpt lat="43.23495" lon="0.21137">
        <ele>293</ele>
        <time>2024-04-17T14:45:04Z</time>
      </trkpt>
      <trkpt lat="43.23493" lon="0.2114">
        <ele>293.2</ele>
        <time>2024-04-17T14:45:05Z</time>
      </trkpt>
      <trkpt lat="43.2349" lon="0.21142">
        <ele>293.2</ele>
        <time>2024-04-17T14:45:06Z</time>
      </trkpt>
      <trkpt lat="43.23488" lon="0.21144">
        <ele>293.2</ele>
        <time>2024-04-17T14:45:07Z</time>
      </trkpt>
      <trkpt lat="43.23486" lon="0.21146">
        <ele>293.4</ele>
        <time>2024-04-17T14:45:08Z</time>
      </trkpt>
      <trkpt lat="43.23483" lon="0.21149">
        <ele>293.4</ele>
        <time>2024-04-17T14:45:09Z</time>
      </trkpt>
      <trkpt lat="43.2348" lon="0.21151">
        <ele>293.4</ele>
        <time>2024-04-17T14:45:10Z</time>
      </trkpt>
      <trkpt lat="43.23477" lon="0.21153">
        <ele>293.6</ele>
        <time>2024-04-17T14:45:11Z</time>
      </trkpt>
      <trkpt lat="43.23475" lon="0.21155">
        <ele>293.6</ele>
        <time>2024-04-17T14:45:12Z</time>
      </trkpt>
      <trkpt lat="43.23472" lon="0.21158">
        <ele>293.8</ele>
        <time>2024-04-17T14:45:13Z</time>
      </trkpt>
      <trkpt lat="43.2347" lon="0.21159">
        <ele>293.8</ele>
        <time>2024-04-17T14:45:14Z</time>
      </trkpt>
      <trkpt lat="43.23467" lon="0.21161">
        <ele>294</ele>
        <time>2024-04-17T14:45:15Z</time>
      </trkpt>
      <trkpt lat="43.23465" lon="0.21163">
        <ele>294</ele>
        <time>2024-04-17T14:45:16Z</time>
      </trkpt>
      <trkpt lat="43.23462" lon="0.21165">
        <ele>294</ele>
        <time>2024-04-17T14:45:17Z</time>
      </trkpt>
      <trkpt lat="43.2346" lon="0.21167">
        <ele>294</ele>
        <time>2024-04-17T14:45:18Z</time>
      </trkpt>
      <trkpt lat="43.23457" lon="0.21169">
        <ele>294.2</ele>
        <time>2024-04-17T14:45:19Z</time>
      </trkpt>
      <trkpt lat="43.23455" lon="0.21171">
        <ele>294.2</ele>
        <time>2024-04-17T14:45:20Z</time>
      </trkpt>
      <trkpt lat="43.23453" lon="0.21173">
        <ele>294.4</ele>
        <time>2024-04-17T14:45:21Z</time>
      </trkpt>
      <trkpt lat="43.2345" lon="0.21176">
        <ele>294.4</ele>
        <time>2024-04-17T14:45:22Z</time>
      </trkpt>
      <trkpt lat="43.23448" lon="0.21178">
        <ele>294.6</ele>
        <time>2024-04-17T14:45:23Z</time>
      </trkpt>
      <trkpt lat="43.23445" lon="0.2118">
        <ele>294.6</ele>
        <time>2024-04-17T14:45:24Z</time>
      </trkpt>
      <trkpt lat="43.23443" lon="0.21182">
        <ele>294.8</ele>
        <time>2024-04-17T14:45:25Z</time>
      </trkpt>
      <trkpt lat="43.2344" lon="0.21184">
        <ele>294.8</ele>
        <time>2024-04-17T14:45:26Z</time>
      </trkpt>
      <trkpt lat="43.23438" lon="0.21185">
        <ele>294.8</ele>
        <time>2024-04-17T14:45:27Z</time>
      </trkpt>
      <trkpt lat="43.23436" lon="0.21187">
        <ele>295</ele>
        <time>2024-04-17T14:45:28Z</time>
      </trkpt>
      <trkpt lat="43.23434" lon="0.21189">
        <ele>295</ele>
        <time>2024-04-17T14:45:29Z</time>
      </trkpt>
      <trkpt lat="43.23433" lon="0.21191">
        <ele>295</ele>
        <time>2024-04-17T14:45:30Z</time>
      </trkpt>
      <trkpt lat="43.2343" lon="0.21193">
        <ele>295.2</ele>
        <time>2024-04-17T14:45:31Z</time>
      </trkpt>
      <trkpt lat="43.23428" lon="0.21195">
        <ele>295.4</ele>
        <time>2024-04-17T14:45:32Z</time>
      </trkpt>
      <trkpt lat="43.23426" lon="0.21196">
        <ele>295.6</ele>
        <time>2024-04-17T14:45:33Z</time>
      </trkpt>
      <trkpt lat="43.23424" lon="0.21198">
        <ele>295.6</ele>
        <time>2024-04-17T14:45:34Z</time>
      </trkpt>
      <trkpt lat="43.23421" lon="0.212">
        <ele>295.8</ele>
        <time>2024-04-17T14:45:35Z</time>
      </trkpt>
      <trkpt lat="43.23419" lon="0.21202">
        <ele>295.8</ele>
        <time>2024-04-17T14:45:36Z</time>
      </trkpt>
      <trkpt lat="43.23417" lon="0.21203">
        <ele>296</ele>
        <time>2024-04-17T14:45:37Z</time>
      </trkpt>
      <trkpt lat="43.23415" lon="0.21205">
        <ele>296</ele>
        <time>2024-04-17T14:45:38Z</time>
      </trkpt>
      <trkpt lat="43.23413" lon="0.21207">
        <ele>296.2</ele>
        <time>2024-04-17T14:45:39Z</time>
      </trkpt>
      <trkpt lat="43.23411" lon="0.21208">
        <ele>296.2</ele>
        <time>2024-04-17T14:45:40Z</time>
      </trkpt>
      <trkpt lat="43.23408" lon="0.2121">
        <ele>296.4</ele>
        <time>2024-04-17T14:45:41Z</time>
      </trkpt>
      <trkpt lat="43.23406" lon="0.21211">
        <ele>296.6</ele>
        <time>2024-04-17T14:45:42Z</time>
      </trkpt>
      <trkpt lat="43.23403" lon="0.21212">
        <ele>297</ele>
        <time>2024-04-17T14:45:43Z</time>
      </trkpt>
      <trkpt lat="43.23401" lon="0.21213">
        <ele>297.2</ele>
        <time>2024-04-17T14:45:44Z</time>
      </trkpt>
      <trkpt lat="43.23398" lon="0.21214">
        <ele>297.4</ele>
        <time>2024-04-17T14:45:45Z</time>
      </trkpt>
      <trkpt lat="43.23396" lon="0.21215">
        <ele>297.4</ele>
        <time>2024-04-17T14:45:46Z</time>
      </trkpt>
      <trkpt lat="43.23393" lon="0.21216">
        <ele>297.6</ele>
        <time>2024-04-17T14:45:47Z</time>
      </trkpt>
      <trkpt lat="43.2339" lon="0.21218">
        <ele>297.6</ele>
        <time>2024-04-17T14:45:48Z</time>
      </trkpt>
      <trkpt lat="43.23387" lon="0.21219">
        <ele>297.8</ele>
        <time>2024-04-17T14:45:49Z</time>
      </trkpt>
      <trkpt lat="43.23385" lon="0.2122">
        <ele>298</ele>
        <time>2024-04-17T14:45:50Z</time>
      </trkpt>
      <trkpt lat="43.23382" lon="0.21222">
        <ele>298</ele>
        <time>2024-04-17T14:45:51Z</time>
      </trkpt>
      <trkpt lat="43.23379" lon="0.21224">
        <ele>298.2</ele>
        <time>2024-04-17T14:45:52Z</time>
      </trkpt>
      <trkpt lat="43.23376" lon="0.21226">
        <ele>298.2</ele>
        <time>2024-04-17T14:45:53Z</time>
      </trkpt>
      <trkpt lat="43.23374" lon="0.21229">
        <ele>298.4</ele>
        <time>2024-04-17T14:45:54Z</time>
      </trkpt>
      <trkpt lat="43.23371" lon="0.21231">
        <ele>298.4</ele>
        <time>2024-04-17T14:45:55Z</time>
      </trkpt>
      <trkpt lat="43.23369" lon="0.21234">
        <ele>298.4</ele>
        <time>2024-04-17T14:45:56Z</time>
      </trkpt>
      <trkpt lat="43.23366" lon="0.21237">
        <ele>298.6</ele>
        <time>2024-04-17T14:45:57Z</time>
      </trkpt>
      <trkpt lat="43.23364" lon="0.21239">
        <ele>298.6</ele>
        <time>2024-04-17T14:45:58Z</time>
      </trkpt>
      <trkpt lat="43.23362" lon="0.21242">
        <ele>298.6</ele>
        <time>2024-04-17T14:45:59Z</time>
      </trkpt>
      <trkpt lat="43.23359" lon="0.21244">
        <ele>298.6</ele>
        <time>2024-04-17T14:46:00Z</time>
      </trkpt>
      <trkpt lat="43.23357" lon="0.21247">
        <ele>298.6</ele>
        <time>2024-04-17T14:46:01Z</time>
      </trkpt>
      <trkpt lat="43.23354" lon="0.21249">
        <ele>298.6</ele>
        <time>2024-04-17T14:46:02Z</time>
      </trkpt>
      <trkpt lat="43.23352" lon="0.21251">
        <ele>298.6</ele>
        <time>2024-04-17T14:46:03Z</time>
      </trkpt>
      <trkpt lat="43.23349" lon="0.21252">
        <ele>298.6</ele>
        <time>2024-04-17T14:46:04Z</time>
      </trkpt>
      <trkpt lat="43.23346" lon="0.21254">
        <ele>298.6</ele>
        <time>2024-04-17T14:46:05Z</time>
      </trkpt>
      <trkpt lat="43.23343" lon="0.21256">
        <ele>298.6</ele>
        <time>2024-04-17T14:46:06Z</time>
      </trkpt>
      <trkpt lat="43.23339" lon="0.21257">
        <ele>298.6</ele>
        <time>2024-04-17T14:46:07Z</time>
      </trkpt>
      <trkpt lat="43.23336" lon="0.21258">
        <ele>298.6</ele>
        <time>2024-04-17T14:46:08Z</time>
      </trkpt>
      <trkpt lat="43.23333" lon="0.21259">
        <ele>298.6</ele>
        <time>2024-04-17T14:46:09Z</time>
      </trkpt>
      <trkpt lat="43.2333" lon="0.2126">
        <ele>298.6</ele>
        <time>2024-04-17T14:46:10Z</time>
      </trkpt>
      <trkpt lat="43.23326" lon="0.21261">
        <ele>298.6</ele>
        <time>2024-04-17T14:46:11Z</time>
      </trkpt>
      <trkpt lat="43.23323" lon="0.21262">
        <ele>298.6</ele>
        <time>2024-04-17T14:46:12Z</time>
      </trkpt>
      <trkpt lat="43.2332" lon="0.21263">
        <ele>298.8</ele>
        <time>2024-04-17T14:46:13Z</time>
      </trkpt>
      <trkpt lat="43.23317" lon="0.21264">
        <ele>298.8</ele>
        <time>2024-04-17T14:46:14Z</time>
      </trkpt>
      <trkpt lat="43.23314" lon="0.21265">
        <ele>298.8</ele>
        <time>2024-04-17T14:46:15Z</time>
      </trkpt>
      <trkpt lat="43.23311" lon="0.21266">
        <ele>299</ele>
        <time>2024-04-17T14:46:16Z</time>
      </trkpt>
      <trkpt lat="43.23308" lon="0.21267">
        <ele>299.2</ele>
        <time>2024-04-17T14:46:17Z</time>
      </trkpt>
      <trkpt lat="43.23306" lon="0.21267">
        <ele>299</ele>
        <time>2024-04-17T14:46:18Z</time>
      </trkpt>
      <trkpt lat="43.23303" lon="0.21268">
        <ele>299</ele>
        <time>2024-04-17T14:46:19Z</time>
      </trkpt>
      <trkpt lat="43.233" lon="0.21269">
        <ele>299.4</ele>
        <time>2024-04-17T14:46:20Z</time>
      </trkpt>
      <trkpt lat="43.23297" lon="0.2127">
        <ele>299.6</ele>
        <time>2024-04-17T14:46:21Z</time>
      </trkpt>
      <trkpt lat="43.23295" lon="0.21271">
        <ele>299.6</ele>
        <time>2024-04-17T14:46:22Z</time>
      </trkpt>
      <trkpt lat="43.23292" lon="0.21272">
        <ele>299.8</ele>
        <time>2024-04-17T14:46:23Z</time>
      </trkpt>
      <trkpt lat="43.23289" lon="0.21273">
        <ele>299.8</ele>
        <time>2024-04-17T14:46:24Z</time>
      </trkpt>
      <trkpt lat="43.23286" lon="0.21273">
        <ele>299.8</ele>
        <time>2024-04-17T14:46:25Z</time>
      </trkpt>
      <trkpt lat="43.23285" lon="0.21272">
        <ele>300</ele>
        <time>2024-04-17T14:46:26Z</time>
      </trkpt>
      <trkpt lat="43.23283" lon="0.2127">
        <ele>300</ele>
        <time>2024-04-17T14:46:27Z</time>
      </trkpt>
      <trkpt lat="43.23282" lon="0.21268">
        <ele>300.2</ele>
        <time>2024-04-17T14:46:28Z</time>
      </trkpt>
      <trkpt lat="43.23281" lon="0.21266">
        <ele>300.2</ele>
        <time>2024-04-17T14:46:29Z</time>
      </trkpt>
      <trkpt lat="43.2328" lon="0.21263">
        <ele>300.4</ele>
        <time>2024-04-17T14:46:30Z</time>
      </trkpt>
      <trkpt lat="43.23279" lon="0.21261">
        <ele>300.6</ele>
        <time>2024-04-17T14:46:31Z</time>
      </trkpt>
      <trkpt lat="43.23279" lon="0.21258">
        <ele>300.8</ele>
        <time>2024-04-17T14:46:32Z</time>
      </trkpt>
      <trkpt lat="43.23278" lon="0.21256">
        <ele>301</ele>
        <time>2024-04-17T14:46:33Z</time>
      </trkpt>
      <trkpt lat="43.23278" lon="0.21253">
        <ele>301</ele>
        <time>2024-04-17T14:46:34Z</time>
      </trkpt>
      <trkpt lat="43.23277" lon="0.2125">
        <ele>301</ele>
        <time>2024-04-17T14:46:35Z</time>
      </trkpt>
      <trkpt lat="43.23277" lon="0.21248">
        <ele>301.4</ele>
        <time>2024-04-17T14:46:36Z</time>
      </trkpt>
      <trkpt lat="43.23276" lon="0.21245">
        <ele>301.6</ele>
        <time>2024-04-17T14:46:37Z</time>
      </trkpt>
      <trkpt lat="43.23275" lon="0.21243">
        <ele>301.8</ele>
        <time>2024-04-17T14:46:38Z</time>
      </trkpt>
      <trkpt lat="43.23275" lon="0.2124">
        <ele>301.8</ele>
        <time>2024-04-17T14:46:39Z</time>
      </trkpt>
      <trkpt lat="43.23274" lon="0.21238">
        <ele>302</ele>
        <time>2024-04-17T14:46:40Z</time>
      </trkpt>
      <trkpt lat="43.23273" lon="0.21236">
        <ele>302.2</ele>
        <time>2024-04-17T14:46:41Z</time>
      </trkpt>
      <trkpt lat="43.23272" lon="0.21234">
        <ele>302.2</ele>
        <time>2024-04-17T14:46:42Z</time>
      </trkpt>
      <trkpt lat="43.23272" lon="0.21232">
        <ele>302.6</ele>
        <time>2024-04-17T14:46:43Z</time>
      </trkpt>
      <trkpt lat="43.23271" lon="0.2123">
        <ele>302.6</ele>
        <time>2024-04-17T14:46:44Z</time>
      </trkpt>
      <trkpt lat="43.23271" lon="0.21228">
        <ele>303</ele>
        <time>2024-04-17T14:46:45Z</time>
      </trkpt>
      <trkpt lat="43.2327" lon="0.21226">
        <ele>303.2</ele>
        <time>2024-04-17T14:46:46Z</time>
      </trkpt>
      <trkpt lat="43.2327" lon="0.21224">
        <ele>303.4</ele>
        <time>2024-04-17T14:46:47Z</time>
      </trkpt>
      <trkpt lat="43.23269" lon="0.21222">
        <ele>303.8</ele>
        <time>2024-04-17T14:46:48Z</time>
      </trkpt>
      <trkpt lat="43.23268" lon="0.2122">
        <ele>304</ele>
        <time>2024-04-17T14:46:49Z</time>
      </trkpt>
      <trkpt lat="43.23266" lon="0.21219">
        <ele>304.2</ele>
        <time>2024-04-17T14:46:50Z</time>
      </trkpt>
      <trkpt lat="43.23266" lon="0.21217">
        <ele>304.2</ele>
        <time>2024-04-17T14:46:51Z</time>
      </trkpt>
      <trkpt lat="43.23265" lon="0.21215">
        <ele>304.4</ele>
        <time>2024-04-17T14:46:52Z</time>
      </trkpt>
      <trkpt lat="43.23264" lon="0.21213">
        <ele>304.6</ele>
        <time>2024-04-17T14:46:53Z</time>
      </trkpt>
      <trkpt lat="43.23262" lon="0.21211">
        <ele>304.8</ele>
        <time>2024-04-17T14:46:54Z</time>
      </trkpt>
      <trkpt lat="43.23261" lon="0.2121">
        <ele>305</ele>
        <time>2024-04-17T14:46:55Z</time>
      </trkpt>
      <trkpt lat="43.2326" lon="0.21208">
        <ele>305.2</ele>
        <time>2024-04-17T14:46:56Z</time>
      </trkpt>
      <trkpt lat="43.23259" lon="0.21206">
        <ele>305.6</ele>
        <time>2024-04-17T14:46:57Z</time>
      </trkpt>
      <trkpt lat="43.23259" lon="0.21204">
        <ele>305.8</ele>
        <time>2024-04-17T14:46:58Z</time>
      </trkpt>
      <trkpt lat="43.23258" lon="0.21203">
        <ele>306</ele>
        <time>2024-04-17T14:46:59Z</time>
      </trkpt>
      <trkpt lat="43.23257" lon="0.21201">
        <ele>306.2</ele>
        <time>2024-04-17T14:47:00Z</time>
      </trkpt>
      <trkpt lat="43.23256" lon="0.21199">
        <ele>306.4</ele>
        <time>2024-04-17T14:47:01Z</time>
      </trkpt>
      <trkpt lat="43.23255" lon="0.21197">
        <ele>306.6</ele>
        <time>2024-04-17T14:47:02Z</time>
      </trkpt>
      <trkpt lat="43.23254" lon="0.21195">
        <ele>306.8</ele>
        <time>2024-04-17T14:47:03Z</time>
      </trkpt>
      <trkpt lat="43.23253" lon="0.21194">
        <ele>306.8</ele>
        <time>2024-04-17T14:47:04Z</time>
      </trkpt>
      <trkpt lat="43.23252" lon="0.21192">
        <ele>307</ele>
        <time>2024-04-17T14:47:05Z</time>
      </trkpt>
      <trkpt lat="43.23251" lon="0.21191">
        <ele>307.2</ele>
        <time>2024-04-17T14:47:06Z</time>
      </trkpt>
      <trkpt lat="43.2325" lon="0.21189">
        <ele>307.4</ele>
        <time>2024-04-17T14:47:07Z</time>
      </trkpt>
      <trkpt lat="43.23249" lon="0.21188">
        <ele>307.6</ele>
        <time>2024-04-17T14:47:08Z</time>
      </trkpt>
      <trkpt lat="43.23248" lon="0.21187">
        <ele>307.8</ele>
        <time>2024-04-17T14:47:09Z</time>
      </trkpt>
      <trkpt lat="43.23247" lon="0.21185">
        <ele>308</ele>
        <time>2024-04-17T14:47:10Z</time>
      </trkpt>
      <trkpt lat="43.23247" lon="0.21184">
        <ele>308.2</ele>
        <time>2024-04-17T14:47:11Z</time>
      </trkpt>
      <trkpt lat="43.23246" lon="0.21182">
        <ele>308.4</ele>
        <time>2024-04-17T14:47:12Z</time>
      </trkpt>
      <trkpt lat="43.23245" lon="0.21181">
        <ele>308.6</ele>
        <time>2024-04-17T14:47:13Z</time>
      </trkpt>
      <trkpt lat="43.23245" lon="0.21179">
        <ele>308.8</ele>
        <time>2024-04-17T14:47:14Z</time>
      </trkpt>
      <trkpt lat="43.23244" lon="0.21178">
        <ele>309</ele>
        <time>2024-04-17T14:47:15Z</time>
      </trkpt>
      <trkpt lat="43.23243" lon="0.21176">
        <ele>309</ele>
        <time>2024-04-17T14:47:16Z</time>
      </trkpt>
      <trkpt lat="43.23243" lon="0.21175">
        <ele>309.2</ele>
        <time>2024-04-17T14:47:17Z</time>
      </trkpt>
      <trkpt lat="43.23243" lon="0.21173">
        <ele>309.4</ele>
        <time>2024-04-17T14:47:18Z</time>
      </trkpt>
      <trkpt lat="43.23243" lon="0.21172">
        <ele>309.8</ele>
        <time>2024-04-17T14:47:19Z</time>
      </trkpt>
      <trkpt lat="43.23242" lon="0.2117">
        <ele>310</ele>
        <time>2024-04-17T14:47:20Z</time>
      </trkpt>
      <trkpt lat="43.23241" lon="0.21169">
        <ele>310.2</ele>
        <time>2024-04-17T14:47:21Z</time>
      </trkpt>
      <trkpt lat="43.2324" lon="0.21168">
        <ele>310.6</ele>
        <time>2024-04-17T14:47:22Z</time>
      </trkpt>
      <trkpt lat="43.2324" lon="0.21166">
        <ele>310.6</ele>
        <time>2024-04-17T14:47:23Z</time>
      </trkpt>
      <trkpt lat="43.23239" lon="0.21165">
        <ele>310.8</ele>
        <time>2024-04-17T14:47:24Z</time>
      </trkpt>
      <trkpt lat="43.23239" lon="0.21163">
        <ele>310.8</ele>
        <time>2024-04-17T14:47:25Z</time>
      </trkpt>
      <trkpt lat="43.23239" lon="0.21162">
        <ele>311</ele>
        <time>2024-04-17T14:47:26Z</time>
      </trkpt>
      <trkpt lat="43.23239" lon="0.2116">
        <ele>311.2</ele>
        <time>2024-04-17T14:47:27Z</time>
      </trkpt>
      <trkpt lat="43.23238" lon="0.21159">
        <ele>311.4</ele>
        <time>2024-04-17T14:47:28Z</time>
      </trkpt>
      <trkpt lat="43.23238" lon="0.21158">
        <ele>311.8</ele>
        <time>2024-04-17T14:47:29Z</time>
      </trkpt>
      <trkpt lat="43.23238" lon="0.21157">
        <ele>311.8</ele>
        <time>2024-04-17T14:47:30Z</time>
      </trkpt>
      <trkpt lat="43.23237" lon="0.21155">
        <ele>312.2</ele>
        <time>2024-04-17T14:47:31Z</time>
      </trkpt>
      <trkpt lat="43.23236" lon="0.21154">
        <ele>312.4</ele>
        <time>2024-04-17T14:47:32Z</time>
      </trkpt>
      <trkpt lat="43.23236" lon="0.21153">
        <ele>312.8</ele>
        <time>2024-04-17T14:47:33Z</time>
      </trkpt>
      <trkpt lat="43.23235" lon="0.21152">
        <ele>312.8</ele>
        <time>2024-04-17T14:47:34Z</time>
      </trkpt>
      <trkpt lat="43.23235" lon="0.2115">
        <ele>313</ele>
        <time>2024-04-17T14:47:35Z</time>
      </trkpt>
      <trkpt lat="43.23234" lon="0.21149">
        <ele>313.2</ele>
        <time>2024-04-17T14:47:36Z</time>
      </trkpt>
      <trkpt lat="43.23234" lon="0.21148">
        <ele>313.4</ele>
        <time>2024-04-17T14:47:37Z</time>
      </trkpt>
      <trkpt lat="43.23233" lon="0.21147">
        <ele>313.6</ele>
        <time>2024-04-17T14:47:38Z</time>
      </trkpt>
      <trkpt lat="43.23233" lon="0.21145">
        <ele>313.8</ele>
        <time>2024-04-17T14:47:39Z</time>
      </trkpt>
      <trkpt lat="43.23233" lon="0.21143">
        <ele>314</ele>
        <time>2024-04-17T14:47:40Z</time>
      </trkpt>
      <trkpt lat="43.23233" lon="0.21142">
        <ele>314.2</ele>
        <time>2024-04-17T14:47:41Z</time>
      </trkpt>
      <trkpt lat="43.23232" lon="0.21141">
        <ele>314.4</ele>
        <time>2024-04-17T14:47:42Z</time>
      </trkpt>
      <trkpt lat="43.23232" lon="0.21139">
        <ele>314.6</ele>
        <time>2024-04-17T14:47:43Z</time>
      </trkpt>
      <trkpt lat="43.23232" lon="0.21137">
        <ele>314.8</ele>
        <time>2024-04-17T14:47:44Z</time>
      </trkpt>
      <trkpt lat="43.23232" lon="0.21135">
        <ele>315</ele>
        <time>2024-04-17T14:47:45Z</time>
      </trkpt>
      <trkpt lat="43.23231" lon="0.21134">
        <ele>315.4</ele>
        <time>2024-04-17T14:47:46Z</time>
      </trkpt>
      <trkpt lat="43.23231" lon="0.21132">
        <ele>315.6</ele>
        <time>2024-04-17T14:47:47Z</time>
      </trkpt>
      <trkpt lat="43.2323" lon="0.21131">
        <ele>315.6</ele>
        <time>2024-04-17T14:47:48Z</time>
      </trkpt>
      <trkpt lat="43.2323" lon="0.21129">
        <ele>315.8</ele>
        <time>2024-04-17T14:47:49Z</time>
      </trkpt>
      <trkpt lat="43.2323" lon="0.21127">
        <ele>315.8</ele>
        <time>2024-04-17T14:47:50Z</time>
      </trkpt>
      <trkpt lat="43.23229" lon="0.21126">
        <ele>316.2</ele>
        <time>2024-04-17T14:47:51Z</time>
      </trkpt>
      <trkpt lat="43.23229" lon="0.21124">
        <ele>316.4</ele>
        <time>2024-04-17T14:47:52Z</time>
      </trkpt>
      <trkpt lat="43.23228" lon="0.21123">
        <ele>316.8</ele>
        <time>2024-04-17T14:47:53Z</time>
      </trkpt>
      <trkpt lat="43.23228" lon="0.21122">
        <ele>317.2</ele>
        <time>2024-04-17T14:47:54Z</time>
      </trkpt>
      <trkpt lat="43.23228" lon="0.2112">
        <ele>317.2</ele>
        <time>2024-04-17T14:47:55Z</time>
      </trkpt>
      <trkpt lat="43.23228" lon="0.21118">
        <ele>317.4</ele>
        <time>2024-04-17T14:47:56Z</time>
      </trkpt>
      <trkpt lat="43.23227" lon="0.21117">
        <ele>317.6</ele>
        <time>2024-04-17T14:47:57Z</time>
      </trkpt>
      <trkpt lat="43.23227" lon="0.21115">
        <ele>317.8</ele>
        <time>2024-04-17T14:47:58Z</time>
      </trkpt>
      <trkpt lat="43.23227" lon="0.21113">
        <ele>317.8</ele>
        <time>2024-04-17T14:47:59Z</time>
      </trkpt>
      <trkpt lat="43.23226" lon="0.21111">
        <ele>318</ele>
        <time>2024-04-17T14:48:00Z</time>
      </trkpt>
      <trkpt lat="43.23226" lon="0.21109">
        <ele>318.2</ele>
        <time>2024-04-17T14:48:01Z</time>
      </trkpt>
      <trkpt lat="43.23226" lon="0.21108">
        <ele>318.4</ele>
        <time>2024-04-17T14:48:02Z</time>
      </trkpt>
      <trkpt lat="43.23225" lon="0.21106">
        <ele>318.6</ele>
        <time>2024-04-17T14:48:03Z</time>
      </trkpt>
      <trkpt lat="43.23224" lon="0.21104">
        <ele>318.6</ele>
        <time>2024-04-17T14:48:04Z</time>
      </trkpt>
      <trkpt lat="43.23224" lon="0.21103">
        <ele>319</ele>
        <time>2024-04-17T14:48:05Z</time>
      </trkpt>
      <trkpt lat="43.23224" lon="0.21101">
        <ele>319.2</ele>
        <time>2024-04-17T14:48:06Z</time>
      </trkpt>
      <trkpt lat="43.23223" lon="0.21099">
        <ele>319.4</ele>
        <time>2024-04-17T14:48:07Z</time>
      </trkpt>
      <trkpt lat="43.23223" lon="0.21097">
        <ele>319.4</ele>
        <time>2024-04-17T14:48:08Z</time>
      </trkpt>
      <trkpt lat="43.23223" lon="0.21095">
        <ele>319.6</ele>
        <time>2024-04-17T14:48:09Z</time>
      </trkpt>
      <trkpt lat="43.23223" lon="0.21093">
        <ele>319.8</ele>
        <time>2024-04-17T14:48:10Z</time>
      </trkpt>
      <trkpt lat="43.23222" lon="0.21091">
        <ele>320</ele>
        <time>2024-04-17T14:48:11Z</time>
      </trkpt>
      <trkpt lat="43.23222" lon="0.21089">
        <ele>320.2</ele>
        <time>2024-04-17T14:48:12Z</time>
      </trkpt>
      <trkpt lat="43.23222" lon="0.21087">
        <ele>320.4</ele>
        <time>2024-04-17T14:48:13Z</time>
      </trkpt>
      <trkpt lat="43.23222" lon="0.21085">
        <ele>320.6</ele>
        <time>2024-04-17T14:48:14Z</time>
      </trkpt>
      <trkpt lat="43.23222" lon="0.21083">
        <ele>320.8</ele>
        <time>2024-04-17T14:48:15Z</time>
      </trkpt>
      <trkpt lat="43.23223" lon="0.21081">
        <ele>321</ele>
        <time>2024-04-17T14:48:16Z</time>
      </trkpt>
      <trkpt lat="43.23223" lon="0.21079">
        <ele>321.2</ele>
        <time>2024-04-17T14:48:17Z</time>
      </trkpt>
      <trkpt lat="43.23223" lon="0.21077">
        <ele>321.6</ele>
        <time>2024-04-17T14:48:18Z</time>
      </trkpt>
      <trkpt lat="43.23223" lon="0.21075">
        <ele>321.6</ele>
        <time>2024-04-17T14:48:19Z</time>
      </trkpt>
      <trkpt lat="43.23223" lon="0.21074">
        <ele>321.6</ele>
        <time>2024-04-17T14:48:20Z</time>
      </trkpt>
      <trkpt lat="43.23223" lon="0.21072">
        <ele>322</ele>
        <time>2024-04-17T14:48:21Z</time>
      </trkpt>
      <trkpt lat="43.23223" lon="0.2107">
        <ele>322</ele>
        <time>2024-04-17T14:48:22Z</time>
      </trkpt>
      <trkpt lat="43.23224" lon="0.21067">
        <ele>322.4</ele>
        <time>2024-04-17T14:48:23Z</time>
      </trkpt>
      <trkpt lat="43.23224" lon="0.21065">
        <ele>322.4</ele>
        <time>2024-04-17T14:48:24Z</time>
      </trkpt>
      <trkpt lat="43.23224" lon="0.21063">
        <ele>322.4</ele>
        <time>2024-04-17T14:48:25Z</time>
      </trkpt>
      <trkpt lat="43.23224" lon="0.21061">
        <ele>322.4</ele>
        <time>2024-04-17T14:48:26Z</time>
      </trkpt>
      <trkpt lat="43.23224" lon="0.21059">
        <ele>322.4</ele>
        <time>2024-04-17T14:48:27Z</time>
      </trkpt>
      <trkpt lat="43.23223" lon="0.21057">
        <ele>322.6</ele>
        <time>2024-04-17T14:48:28Z</time>
      </trkpt>
      <trkpt lat="43.23224" lon="0.21055">
        <ele>322.6</ele>
        <time>2024-04-17T14:48:29Z</time>
      </trkpt>
      <trkpt lat="43.23224" lon="0.21053">
        <ele>322.6</ele>
        <time>2024-04-17T14:48:30Z</time>
      </trkpt>
      <trkpt lat="43.23224" lon="0.21052">
        <ele>323</ele>
        <time>2024-04-17T14:48:31Z</time>
      </trkpt>
      <trkpt lat="43.23224" lon="0.2105">
        <ele>323</ele>
        <time>2024-04-17T14:48:32Z</time>
      </trkpt>
      <trkpt lat="43.23224" lon="0.21048">
        <ele>323</ele>
        <time>2024-04-17T14:48:33Z</time>
      </trkpt>
      <trkpt lat="43.23223" lon="0.21046">
        <ele>323</ele>
        <time>2024-04-17T14:48:34Z</time>
      </trkpt>
      <trkpt lat="43.23224" lon="0.21044">
        <ele>323</ele>
        <time>2024-04-17T14:48:35Z</time>
      </trkpt>
      <trkpt lat="43.23223" lon="0.21042">
        <ele>323.2</ele>
        <time>2024-04-17T14:48:36Z</time>
      </trkpt>
      <trkpt lat="43.23223" lon="0.21039">
        <ele>323.2</ele>
        <time>2024-04-17T14:48:37Z</time>
      </trkpt>
      <trkpt lat="43.23222" lon="0.21037">
        <ele>323.4</ele>
        <time>2024-04-17T14:48:38Z</time>
      </trkpt>
      <trkpt lat="43.23222" lon="0.21034">
        <ele>323.4</ele>
        <time>2024-04-17T14:48:39Z</time>
      </trkpt>
      <trkpt lat="43.23221" lon="0.21032">
        <ele>323.6</ele>
        <time>2024-04-17T14:48:40Z</time>
      </trkpt>
      <trkpt lat="43.23221" lon="0.2103">
        <ele>323.8</ele>
        <time>2024-04-17T14:48:41Z</time>
      </trkpt>
      <trkpt lat="43.2322" lon="0.21028">
        <ele>323.8</ele>
        <time>2024-04-17T14:48:42Z</time>
      </trkpt>
      <trkpt lat="43.2322" lon="0.21025">
        <ele>324</ele>
        <time>2024-04-17T14:48:43Z</time>
      </trkpt>
      <trkpt lat="43.23218" lon="0.21024">
        <ele>324.2</ele>
        <time>2024-04-17T14:48:44Z</time>
      </trkpt>
      <trkpt lat="43.23218" lon="0.21022">
        <ele>324.2</ele>
        <time>2024-04-17T14:48:45Z</time>
      </trkpt>
      <trkpt lat="43.23218" lon="0.2102">
        <ele>324.2</ele>
        <time>2024-04-17T14:48:46Z</time>
      </trkpt>
      <trkpt lat="43.23218" lon="0.21019">
        <ele>324.2</ele>
        <time>2024-04-17T14:48:47Z</time>
      </trkpt>
      <trkpt lat="43.23218" lon="0.21017">
        <ele>324.4</ele>
        <time>2024-04-17T14:48:48Z</time>
      </trkpt>
      <trkpt lat="43.23218" lon="0.21015">
        <ele>324.4</ele>
        <time>2024-04-17T14:48:49Z</time>
      </trkpt>
      <trkpt lat="43.23217" lon="0.21014">
        <ele>324.4</ele>
        <time>2024-04-17T14:48:50Z</time>
      </trkpt>
      <trkpt lat="43.23217" lon="0.21012">
        <ele>324.4</ele>
        <time>2024-04-17T14:48:51Z</time>
      </trkpt>
      <trkpt lat="43.23216" lon="0.2101">
        <ele>324.6</ele>
        <time>2024-04-17T14:48:52Z</time>
      </trkpt>
      <trkpt lat="43.23215" lon="0.21007">
        <ele>324.6</ele>
        <time>2024-04-17T14:48:53Z</time>
      </trkpt>
      <trkpt lat="43.23216" lon="0.21005">
        <ele>324.6</ele>
        <time>2024-04-17T14:48:54Z</time>
      </trkpt>
      <trkpt lat="43.23216" lon="0.21003">
        <ele>324.8</ele>
        <time>2024-04-17T14:48:55Z</time>
      </trkpt>
      <trkpt lat="43.23216" lon="0.21001">
        <ele>324.8</ele>
        <time>2024-04-17T14:48:56Z</time>
      </trkpt>
      <trkpt lat="43.23216" lon="0.20998">
        <ele>324.8</ele>
        <time>2024-04-17T14:48:57Z</time>
      </trkpt>
      <trkpt lat="43.23216" lon="0.20996">
        <ele>324.8</ele>
        <time>2024-04-17T14:48:58Z</time>
      </trkpt>
      <trkpt lat="43.23215" lon="0.20994">
        <ele>324.8</ele>
        <time>2024-04-17T14:48:59Z</time>
      </trkpt>
      <trkpt lat="43.23215" lon="0.20991">
        <ele>325</ele>
        <time>2024-04-17T14:49:00Z</time>
      </trkpt>
      <trkpt lat="43.23215" lon="0.20989">
        <ele>325</ele>
        <time>2024-04-17T14:49:01Z</time>
      </trkpt>
      <trkpt lat="43.23215" lon="0.20986">
        <ele>325</ele>
        <time>2024-04-17T14:49:02Z</time>
      </trkpt>
      <trkpt lat="43.23215" lon="0.20984">
        <ele>325.2</ele>
        <time>2024-04-17T14:49:03Z</time>
      </trkpt>
      <trkpt lat="43.23215" lon="0.20981">
        <ele>325.2</ele>
        <time>2024-04-17T14:49:04Z</time>
      </trkpt>
      <trkpt lat="43.23214" lon="0.20979">
        <ele>325.2</ele>
        <time>2024-04-17T14:49:05Z</time>
      </trkpt>
      <trkpt lat="43.23214" lon="0.20976">
        <ele>325.4</ele>
        <time>2024-04-17T14:49:06Z</time>
      </trkpt>
      <trkpt lat="43.23213" lon="0.20974">
        <ele>325.4</ele>
        <time>2024-04-17T14:49:07Z</time>
      </trkpt>
      <trkpt lat="43.23213" lon="0.2097">
        <ele>325.6</ele>
        <time>2024-04-17T14:49:08Z</time>
      </trkpt>
      <trkpt lat="43.23213" lon="0.20967">
        <ele>325.6</ele>
        <time>2024-04-17T14:49:09Z</time>
      </trkpt>
      <trkpt lat="43.23212" lon="0.20964">
        <ele>325.6</ele>
        <time>2024-04-17T14:49:10Z</time>
      </trkpt>
      <trkpt lat="43.23213" lon="0.20961">
        <ele>325.6</ele>
        <time>2024-04-17T14:49:11Z</time>
      </trkpt>
      <trkpt lat="43.23213" lon="0.20959">
        <ele>325.8</ele>
        <time>2024-04-17T14:49:12Z</time>
      </trkpt>
      <trkpt lat="43.23213" lon="0.20957">
        <ele>325.8</ele>
        <time>2024-04-17T14:49:13Z</time>
      </trkpt>
      <trkpt lat="43.23212" lon="0.20954">
        <ele>326</ele>
        <time>2024-04-17T14:49:14Z</time>
      </trkpt>
      <trkpt lat="43.23212" lon="0.20952">
        <ele>326</ele>
        <time>2024-04-17T14:49:15Z</time>
      </trkpt>
      <trkpt lat="43.23212" lon="0.2095">
        <ele>326</ele>
        <time>2024-04-17T14:49:16Z</time>
      </trkpt>
      <trkpt lat="43.23213" lon="0.20947">
        <ele>326.2</ele>
        <time>2024-04-17T14:49:17Z</time>
      </trkpt>
      <trkpt lat="43.23213" lon="0.20944">
        <ele>326.2</ele>
        <time>2024-04-17T14:49:18Z</time>
      </trkpt>
      <trkpt lat="43.23214" lon="0.20942">
        <ele>326.2</ele>
        <time>2024-04-17T14:49:19Z</time>
      </trkpt>
      <trkpt lat="43.23215" lon="0.2094">
        <ele>326.2</ele>
        <time>2024-04-17T14:49:20Z</time>
      </trkpt>
      <trkpt lat="43.23214" lon="0.20938">
        <ele>326.2</ele>
        <time>2024-04-17T14:49:21Z</time>
      </trkpt>
      <trkpt lat="43.23214" lon="0.20936">
        <ele>326.4</ele>
        <time>2024-04-17T14:49:22Z</time>
      </trkpt>
      <trkpt lat="43.23213" lon="0.20934">
        <ele>326.6</ele>
        <time>2024-04-17T14:49:23Z</time>
      </trkpt>
      <trkpt lat="43.23213" lon="0.20931">
        <ele>326.6</ele>
        <time>2024-04-17T14:49:24Z</time>
      </trkpt>
      <trkpt lat="43.23213" lon="0.20929">
        <ele>326.8</ele>
        <time>2024-04-17T14:49:25Z</time>
      </trkpt>
      <trkpt lat="43.23213" lon="0.20927">
        <ele>326.8</ele>
        <time>2024-04-17T14:49:26Z</time>
      </trkpt>
      <trkpt lat="43.23213" lon="0.20925">
        <ele>327</ele>
        <time>2024-04-17T14:49:27Z</time>
      </trkpt>
      <trkpt lat="43.23213" lon="0.20923">
        <ele>327</ele>
        <time>2024-04-17T14:49:28Z</time>
      </trkpt>
      <trkpt lat="43.23214" lon="0.20921">
        <ele>327</ele>
        <time>2024-04-17T14:49:29Z</time>
      </trkpt>
      <trkpt lat="43.23214" lon="0.20918">
        <ele>327.2</ele>
        <time>2024-04-17T14:49:30Z</time>
      </trkpt>
      <trkpt lat="43.23215" lon="0.20916">
        <ele>327.2</ele>
        <time>2024-04-17T14:49:31Z</time>
      </trkpt>
      <trkpt lat="43.23215" lon="0.20913">
        <ele>327.2</ele>
        <time>2024-04-17T14:49:32Z</time>
      </trkpt>
      <trkpt lat="43.23216" lon="0.20911">
        <ele>327.2</ele>
        <time>2024-04-17T14:49:33Z</time>
      </trkpt>
      <trkpt lat="43.23216" lon="0.20908">
        <ele>327.2</ele>
        <time>2024-04-17T14:49:34Z</time>
      </trkpt>
      <trkpt lat="43.23217" lon="0.20905">
        <ele>327.2</ele>
        <time>2024-04-17T14:49:35Z</time>
      </trkpt>
      <trkpt lat="43.23217" lon="0.20902">
        <ele>327.2</ele>
        <time>2024-04-17T14:49:36Z</time>
      </trkpt>
      <trkpt lat="43.23218" lon="0.20899">
        <ele>327.2</ele>
        <time>2024-04-17T14:49:37Z</time>
      </trkpt>
      <trkpt lat="43.23218" lon="0.20897">
        <ele>327.4</ele>
        <time>2024-04-17T14:49:38Z</time>
      </trkpt>
      <trkpt lat="43.23218" lon="0.20895">
        <ele>327.4</ele>
        <time>2024-04-17T14:49:39Z</time>
      </trkpt>
      <trkpt lat="43.23219" lon="0.20893">
        <ele>327.6</ele>
        <time>2024-04-17T14:49:40Z</time>
      </trkpt>
      <trkpt lat="43.23218" lon="0.20891">
        <ele>327.6</ele>
        <time>2024-04-17T14:49:41Z</time>
      </trkpt>
      <trkpt lat="43.23219" lon="0.20887">
        <ele>327.6</ele>
        <time>2024-04-17T14:49:42Z</time>
      </trkpt>
      <trkpt lat="43.23218" lon="0.20884">
        <ele>327.8</ele>
        <time>2024-04-17T14:49:43Z</time>
      </trkpt>
      <trkpt lat="43.23219" lon="0.2088">
        <ele>327.8</ele>
        <time>2024-04-17T14:49:44Z</time>
      </trkpt>
      <trkpt lat="43.23218" lon="0.20877">
        <ele>327.8</ele>
        <time>2024-04-17T14:49:45Z</time>
      </trkpt>
      <trkpt lat="43.23218" lon="0.20874">
        <ele>327.8</ele>
        <time>2024-04-17T14:49:46Z</time>
      </trkpt>
      <trkpt lat="43.23217" lon="0.20871">
        <ele>328</ele>
        <time>2024-04-17T14:49:47Z</time>
      </trkpt>
      <trkpt lat="43.23215" lon="0.20868">
        <ele>328</ele>
        <time>2024-04-17T14:49:48Z</time>
      </trkpt>
      <trkpt lat="43.23214" lon="0.20865">
        <ele>328.2</ele>
        <time>2024-04-17T14:49:49Z</time>
      </trkpt>
      <trkpt lat="43.23214" lon="0.20863">
        <ele>328.2</ele>
        <time>2024-04-17T14:49:50Z</time>
      </trkpt>
      <trkpt lat="43.23213" lon="0.2086">
        <ele>328.4</ele>
        <time>2024-04-17T14:49:51Z</time>
      </trkpt>
      <trkpt lat="43.23214" lon="0.20857">
        <ele>328.4</ele>
        <time>2024-04-17T14:49:52Z</time>
      </trkpt>
      <trkpt lat="43.23213" lon="0.20853">
        <ele>328.4</ele>
        <time>2024-04-17T14:49:53Z</time>
      </trkpt>
      <trkpt lat="43.23214" lon="0.2085">
        <ele>328.6</ele>
        <time>2024-04-17T14:49:54Z</time>
      </trkpt>
      <trkpt lat="43.23213" lon="0.20846">
        <ele>328.6</ele>
        <time>2024-04-17T14:49:55Z</time>
      </trkpt>
      <trkpt lat="43.23213" lon="0.20842">
        <ele>328.8</ele>
        <time>2024-04-17T14:49:56Z</time>
      </trkpt>
      <trkpt lat="43.23213" lon="0.20839">
        <ele>328.8</ele>
        <time>2024-04-17T14:49:57Z</time>
      </trkpt>
      <trkpt lat="43.23214" lon="0.20835">
        <ele>329</ele>
        <time>2024-04-17T14:49:58Z</time>
      </trkpt>
      <trkpt lat="43.23214" lon="0.20832">
        <ele>329.2</ele>
        <time>2024-04-17T14:49:59Z</time>
      </trkpt>
      <trkpt lat="43.23214" lon="0.20829">
        <ele>329.4</ele>
        <time>2024-04-17T14:50:00Z</time>
      </trkpt>
      <trkpt lat="43.23214" lon="0.20827">
        <ele>329.4</ele>
        <time>2024-04-17T14:50:01Z</time>
      </trkpt>
      <trkpt lat="43.23215" lon="0.20824">
        <ele>329.4</ele>
        <time>2024-04-17T14:50:02Z</time>
      </trkpt>
      <trkpt lat="43.23215" lon="0.20822">
        <ele>329.4</ele>
        <time>2024-04-17T14:50:03Z</time>
      </trkpt>
      <trkpt lat="43.23215" lon="0.20819">
        <ele>329.6</ele>
        <time>2024-04-17T14:50:04Z</time>
      </trkpt>
      <trkpt lat="43.23215" lon="0.20817">
        <ele>329.6</ele>
        <time>2024-04-17T14:50:05Z</time>
      </trkpt>
      <trkpt lat="43.23215" lon="0.20814">
        <ele>329.6</ele>
        <time>2024-04-17T14:50:06Z</time>
      </trkpt>
      <trkpt lat="43.23216" lon="0.20812">
        <ele>329.6</ele>
        <time>2024-04-17T14:50:07Z</time>
      </trkpt>
      <trkpt lat="43.23216" lon="0.2081">
        <ele>329.6</ele>
        <time>2024-04-17T14:50:08Z</time>
      </trkpt>
      <trkpt lat="43.23216" lon="0.20807">
        <ele>329.6</ele>
        <time>2024-04-17T14:50:09Z</time>
      </trkpt>
      <trkpt lat="43.23215" lon="0.20805">
        <ele>329.8</ele>
        <time>2024-04-17T14:50:10Z</time>
      </trkpt>
      <trkpt lat="43.23215" lon="0.20803">
        <ele>330</ele>
        <time>2024-04-17T14:50:11Z</time>
      </trkpt>
      <trkpt lat="43.23215" lon="0.208">
        <ele>330.2</ele>
        <time>2024-04-17T14:50:12Z</time>
      </trkpt>
      <trkpt lat="43.23216" lon="0.20798">
        <ele>330.2</ele>
        <time>2024-04-17T14:50:13Z</time>
      </trkpt>
      <trkpt lat="43.23216" lon="0.20795">
        <ele>330.2</ele>
        <time>2024-04-17T14:50:14Z</time>
      </trkpt>
      <trkpt lat="43.23216" lon="0.20792">
        <ele>330.4</ele>
        <time>2024-04-17T14:50:15Z</time>
      </trkpt>
      <trkpt lat="43.23216" lon="0.2079">
        <ele>330.4</ele>
        <time>2024-04-17T14:50:16Z</time>
      </trkpt>
      <trkpt lat="43.23216" lon="0.20788">
        <ele>330.4</ele>
        <time>2024-04-17T14:50:17Z</time>
      </trkpt>
      <trkpt lat="43.23216" lon="0.20786">
        <ele>330.6</ele>
        <time>2024-04-17T14:50:18Z</time>
      </trkpt>
      <trkpt lat="43.23216" lon="0.20784">
        <ele>330.6</ele>
        <time>2024-04-17T14:50:19Z</time>
      </trkpt>
      <trkpt lat="43.23216" lon="0.20781">
        <ele>330.8</ele>
        <time>2024-04-17T14:50:20Z</time>
      </trkpt>
      <trkpt lat="43.23216" lon="0.20779">
        <ele>331</ele>
        <time>2024-04-17T14:50:21Z</time>
      </trkpt>
      <trkpt lat="43.23216" lon="0.20776">
        <ele>331.2</ele>
        <time>2024-04-17T14:50:22Z</time>
      </trkpt>
      <trkpt lat="43.23217" lon="0.20774">
        <ele>331.2</ele>
        <time>2024-04-17T14:50:23Z</time>
      </trkpt>
      <trkpt lat="43.23217" lon="0.20771">
        <ele>331.6</ele>
        <time>2024-04-17T14:50:24Z</time>
      </trkpt>
      <trkpt lat="43.23217" lon="0.20769">
        <ele>331.6</ele>
        <time>2024-04-17T14:50:25Z</time>
      </trkpt>
      <trkpt lat="43.23217" lon="0.20767">
        <ele>331.6</ele>
        <time>2024-04-17T14:50:26Z</time>
      </trkpt>
      <trkpt lat="43.23216" lon="0.20765">
        <ele>331.4</ele>
        <time>2024-04-17T14:50:27Z</time>
      </trkpt>
      <trkpt lat="43.23216" lon="0.20763">
        <ele>331.4</ele>
        <time>2024-04-17T14:50:28Z</time>
      </trkpt>
      <trkpt lat="43.23217" lon="0.2076">
        <ele>331.6</ele>
        <time>2024-04-17T14:50:29Z</time>
      </trkpt>
      <trkpt lat="43.23216" lon="0.20758">
        <ele>331.8</ele>
        <time>2024-04-17T14:50:30Z</time>
      </trkpt>
      <trkpt lat="43.23216" lon="0.20755">
        <ele>331.8</ele>
        <time>2024-04-17T14:50:31Z</time>
      </trkpt>
      <trkpt lat="43.23216" lon="0.20753">
        <ele>331.8</ele>
        <time>2024-04-17T14:50:32Z</time>
      </trkpt>
      <trkpt lat="43.23216" lon="0.20751">
        <ele>332</ele>
        <time>2024-04-17T14:50:33Z</time>
      </trkpt>
      <trkpt lat="43.23217" lon="0.20748">
        <ele>332</ele>
        <time>2024-04-17T14:50:34Z</time>
      </trkpt>
      <trkpt lat="43.23217" lon="0.20746">
        <ele>332</ele>
        <time>2024-04-17T14:50:35Z</time>
      </trkpt>
      <trkpt lat="43.23217" lon="0.20743">
        <ele>332.2</ele>
        <time>2024-04-17T14:50:36Z</time>
      </trkpt>
      <trkpt lat="43.23218" lon="0.20741">
        <ele>332.2</ele>
        <time>2024-04-17T14:50:37Z</time>
      </trkpt>
      <trkpt lat="43.23218" lon="0.20739">
        <ele>332.2</ele>
        <time>2024-04-17T14:50:38Z</time>
      </trkpt>
      <trkpt lat="43.23218" lon="0.20736">
        <ele>332.4</ele>
        <time>2024-04-17T14:50:39Z</time>
      </trkpt>
      <trkpt lat="43.23219" lon="0.20733">
        <ele>332.6</ele>
        <time>2024-04-17T14:50:40Z</time>
      </trkpt>
      <trkpt lat="43.23219" lon="0.20731">
        <ele>332.6</ele>
        <time>2024-04-17T14:50:41Z</time>
      </trkpt>
      <trkpt lat="43.2322" lon="0.20728">
        <ele>332.8</ele>
        <time>2024-04-17T14:50:42Z</time>
      </trkpt>
      <trkpt lat="43.2322" lon="0.20726">
        <ele>332.8</ele>
        <time>2024-04-17T14:50:43Z</time>
      </trkpt>
      <trkpt lat="43.2322" lon="0.20723">
        <ele>332.8</ele>
        <time>2024-04-17T14:50:44Z</time>
      </trkpt>
      <trkpt lat="43.23221" lon="0.20721">
        <ele>333</ele>
        <time>2024-04-17T14:50:45Z</time>
      </trkpt>
      <trkpt lat="43.23221" lon="0.20718">
        <ele>333</ele>
        <time>2024-04-17T14:50:46Z</time>
      </trkpt>
      <trkpt lat="43.23221" lon="0.20715">
        <ele>333</ele>
        <time>2024-04-17T14:50:47Z</time>
      </trkpt>
      <trkpt lat="43.23222" lon="0.20712">
        <ele>333</ele>
        <time>2024-04-17T14:50:48Z</time>
      </trkpt>
      <trkpt lat="43.23222" lon="0.20708">
        <ele>333</ele>
        <time>2024-04-17T14:50:49Z</time>
      </trkpt>
      <trkpt lat="43.23223" lon="0.20706">
        <ele>333</ele>
        <time>2024-04-17T14:50:50Z</time>
      </trkpt>
      <trkpt lat="43.23224" lon="0.20704">
        <ele>333</ele>
        <time>2024-04-17T14:50:51Z</time>
      </trkpt>
      <trkpt lat="43.23225" lon="0.207">
        <ele>333</ele>
        <time>2024-04-17T14:50:52Z</time>
      </trkpt>
      <trkpt lat="43.23225" lon="0.20698">
        <ele>333.2</ele>
        <time>2024-04-17T14:50:53Z</time>
      </trkpt>
      <trkpt lat="43.23225" lon="0.20695">
        <ele>333.2</ele>
        <time>2024-04-17T14:50:54Z</time>
      </trkpt>
      <trkpt lat="43.23227" lon="0.20694">
        <ele>333.2</ele>
        <time>2024-04-17T14:50:55Z</time>
      </trkpt>
      <trkpt lat="43.23228" lon="0.20692">
        <ele>333.4</ele>
        <time>2024-04-17T14:50:56Z</time>
      </trkpt>
      <trkpt lat="43.23229" lon="0.20689">
        <ele>333.4</ele>
        <time>2024-04-17T14:50:57Z</time>
      </trkpt>
      <trkpt lat="43.23231" lon="0.20687">
        <ele>333.6</ele>
        <time>2024-04-17T14:50:58Z</time>
      </trkpt>
      <trkpt lat="43.23232" lon="0.20684">
        <ele>333.6</ele>
        <time>2024-04-17T14:50:59Z</time>
      </trkpt>
      <trkpt lat="43.23231" lon="0.20682">
        <ele>333.8</ele>
        <time>2024-04-17T14:51:00Z</time>
      </trkpt>
      <trkpt lat="43.2323" lon="0.20679">
        <ele>333.8</ele>
        <time>2024-04-17T14:51:01Z</time>
      </trkpt>
      <trkpt lat="43.23227" lon="0.20677">
        <ele>334</ele>
        <time>2024-04-17T14:51:02Z</time>
      </trkpt>
      <trkpt lat="43.23226" lon="0.20675">
        <ele>334</ele>
        <time>2024-04-17T14:51:03Z</time>
      </trkpt>
      <trkpt lat="43.23227" lon="0.20672">
        <ele>334.2</ele>
        <time>2024-04-17T14:51:04Z</time>
      </trkpt>
      <trkpt lat="43.23226" lon="0.20667">
        <ele>334.2</ele>
        <time>2024-04-17T14:51:05Z</time>
      </trkpt>
      <trkpt lat="43.23227" lon="0.20661">
        <ele>334.2</ele>
        <time>2024-04-17T14:51:06Z</time>
      </trkpt>
      <trkpt lat="43.23226" lon="0.20658">
        <ele>334.2</ele>
        <time>2024-04-17T14:51:07Z</time>
      </trkpt>
      <trkpt lat="43.23225" lon="0.20654">
        <ele>334.2</ele>
        <time>2024-04-17T14:51:08Z</time>
      </trkpt>
      <trkpt lat="43.23224" lon="0.2065">
        <ele>334.2</ele>
        <time>2024-04-17T14:51:09Z</time>
      </trkpt>
      <trkpt lat="43.23224" lon="0.20647">
        <ele>334.2</ele>
        <time>2024-04-17T14:51:10Z</time>
      </trkpt>
      <trkpt lat="43.23223" lon="0.20644">
        <ele>334.2</ele>
        <time>2024-04-17T14:51:11Z</time>
      </trkpt>
      <trkpt lat="43.23222" lon="0.2064">
        <ele>334.2</ele>
        <time>2024-04-17T14:51:12Z</time>
      </trkpt>
      <trkpt lat="43.2322" lon="0.20636">
        <ele>334.2</ele>
        <time>2024-04-17T14:51:13Z</time>
      </trkpt>
      <trkpt lat="43.23219" lon="0.20631">
        <ele>334.2</ele>
        <time>2024-04-17T14:51:14Z</time>
      </trkpt>
      <trkpt lat="43.23219" lon="0.20626">
        <ele>334.2</ele>
        <time>2024-04-17T14:51:15Z</time>
      </trkpt>
      <trkpt lat="43.23219" lon="0.20622">
        <ele>334.2</ele>
        <time>2024-04-17T14:51:16Z</time>
      </trkpt>
      <trkpt lat="43.23218" lon="0.20617">
        <ele>334.2</ele>
        <time>2024-04-17T14:51:17Z</time>
      </trkpt>
      <trkpt lat="43.23217" lon="0.20612">
        <ele>334.2</ele>
        <time>2024-04-17T14:51:18Z</time>
      </trkpt>
      <trkpt lat="43.23217" lon="0.20609">
        <ele>334.2</ele>
        <time>2024-04-17T14:51:19Z</time>
      </trkpt>
      <trkpt lat="43.23216" lon="0.20606">
        <ele>334.2</ele>
        <time>2024-04-17T14:51:20Z</time>
      </trkpt>
      <trkpt lat="43.23214" lon="0.20603">
        <ele>334.2</ele>
        <time>2024-04-17T14:51:21Z</time>
      </trkpt>
      <trkpt lat="43.23212" lon="0.20601">
        <ele>334.2</ele>
        <time>2024-04-17T14:51:22Z</time>
      </trkpt>
      <trkpt lat="43.23211" lon="0.20597">
        <ele>334.4</ele>
        <time>2024-04-17T14:51:23Z</time>
      </trkpt>
      <trkpt lat="43.23209" lon="0.20592">
        <ele>334.4</ele>
        <time>2024-04-17T14:51:24Z</time>
      </trkpt>
      <trkpt lat="43.2321" lon="0.20587">
        <ele>334.4</ele>
        <time>2024-04-17T14:51:25Z</time>
      </trkpt>
      <trkpt lat="43.2321" lon="0.20585">
        <ele>334.4</ele>
        <time>2024-04-17T14:51:26Z</time>
      </trkpt>
      <trkpt lat="43.2321" lon="0.20584">
        <ele>334.4</ele>
        <time>2024-04-17T14:51:27Z</time>
      </trkpt>
      <trkpt lat="43.23209" lon="0.20582">
        <ele>334.4</ele>
        <time>2024-04-17T14:51:28Z</time>
      </trkpt>
      <trkpt lat="43.23208" lon="0.20579">
        <ele>334.4</ele>
        <time>2024-04-17T14:51:29Z</time>
      </trkpt>
      <trkpt lat="43.23206" lon="0.20577">
        <ele>334.4</ele>
        <time>2024-04-17T14:51:30Z</time>
      </trkpt>
      <trkpt lat="43.23205" lon="0.20574">
        <ele>334.4</ele>
        <time>2024-04-17T14:51:31Z</time>
      </trkpt>
      <trkpt lat="43.23203" lon="0.20571">
        <ele>334.4</ele>
        <time>2024-04-17T14:51:32Z</time>
      </trkpt>
      <trkpt lat="43.23201" lon="0.20568">
        <ele>334.2</ele>
        <time>2024-04-17T14:51:33Z</time>
      </trkpt>
      <trkpt lat="43.232" lon="0.20565">
        <ele>334.2</ele>
        <time>2024-04-17T14:51:34Z</time>
      </trkpt>
      <trkpt lat="43.23199" lon="0.20562">
        <ele>334</ele>
        <time>2024-04-17T14:51:35Z</time>
      </trkpt>
      <trkpt lat="43.23198" lon="0.20559">
        <ele>334</ele>
        <time>2024-04-17T14:51:36Z</time>
      </trkpt>
      <trkpt lat="43.23197" lon="0.20556">
        <ele>333.8</ele>
        <time>2024-04-17T14:51:37Z</time>
      </trkpt>
      <trkpt lat="43.23195" lon="0.20554">
        <ele>333.6</ele>
        <time>2024-04-17T14:51:38Z</time>
      </trkpt>
      <trkpt lat="43.23193" lon="0.20552">
        <ele>333.6</ele>
        <time>2024-04-17T14:51:39Z</time>
      </trkpt>
      <trkpt lat="43.23191" lon="0.2055">
        <ele>333.4</ele>
        <time>2024-04-17T14:51:40Z</time>
      </trkpt>
      <trkpt lat="43.23187" lon="0.20548">
        <ele>333.4</ele>
        <time>2024-04-17T14:51:41Z</time>
      </trkpt>
      <trkpt lat="43.23183" lon="0.20547">
        <ele>333.2</ele>
        <time>2024-04-17T14:51:42Z</time>
      </trkpt>
      <trkpt lat="43.23181" lon="0.20545">
        <ele>333.2</ele>
        <time>2024-04-17T14:51:43Z</time>
      </trkpt>
      <trkpt lat="43.23179" lon="0.20542">
        <ele>333</ele>
        <time>2024-04-17T14:51:44Z</time>
      </trkpt>
      <trkpt lat="43.23177" lon="0.2054">
        <ele>332.8</ele>
        <time>2024-04-17T14:51:45Z</time>
      </trkpt>
      <trkpt lat="43.23176" lon="0.20537">
        <ele>332.8</ele>
        <time>2024-04-17T14:51:46Z</time>
      </trkpt>
      <trkpt lat="43.23173" lon="0.20534">
        <ele>332.8</ele>
        <time>2024-04-17T14:51:47Z</time>
      </trkpt>
      <trkpt lat="43.23171" lon="0.20531">
        <ele>332.8</ele>
        <time>2024-04-17T14:51:48Z</time>
      </trkpt>
      <trkpt lat="43.23168" lon="0.20528">
        <ele>332.8</ele>
        <time>2024-04-17T14:51:49Z</time>
      </trkpt>
      <trkpt lat="43.23165" lon="0.20524">
        <ele>332.6</ele>
        <time>2024-04-17T14:51:50Z</time>
      </trkpt>
      <trkpt lat="43.23162" lon="0.2052">
        <ele>332.6</ele>
        <time>2024-04-17T14:51:51Z</time>
      </trkpt>
      <trkpt lat="43.23158" lon="0.20516">
        <ele>332.4</ele>
        <time>2024-04-17T14:51:52Z</time>
      </trkpt>
      <trkpt lat="43.23153" lon="0.2051">
        <ele>332.4</ele>
        <time>2024-04-17T14:51:53Z</time>
      </trkpt>
      <trkpt lat="43.23149" lon="0.20505">
        <ele>332.4</ele>
        <time>2024-04-17T14:51:54Z</time>
      </trkpt>
      <trkpt lat="43.23145" lon="0.20499">
        <ele>332.2</ele>
        <time>2024-04-17T14:51:55Z</time>
      </trkpt>
      <trkpt lat="43.23142" lon="0.20494">
        <ele>332.2</ele>
        <time>2024-04-17T14:51:56Z</time>
      </trkpt>
      <trkpt lat="43.23137" lon="0.20488">
        <ele>331.6</ele>
        <time>2024-04-17T14:51:57Z</time>
      </trkpt>
      <trkpt lat="43.23134" lon="0.20483">
        <ele>331.2</ele>
        <time>2024-04-17T14:51:58Z</time>
      </trkpt>
      <trkpt lat="43.2313" lon="0.20476">
        <ele>330.6</ele>
        <time>2024-04-17T14:51:59Z</time>
      </trkpt>
      <trkpt lat="43.23126" lon="0.20468">
        <ele>330.4</ele>
        <time>2024-04-17T14:52:00Z</time>
      </trkpt>
      <trkpt lat="43.23122" lon="0.2046">
        <ele>330.2</ele>
        <time>2024-04-17T14:52:01Z</time>
      </trkpt>
      <trkpt lat="43.23119" lon="0.20453">
        <ele>329.6</ele>
        <time>2024-04-17T14:52:02Z</time>
      </trkpt>
      <trkpt lat="43.23114" lon="0.20447">
        <ele>329</ele>
        <time>2024-04-17T14:52:03Z</time>
      </trkpt>
      <trkpt lat="43.23108" lon="0.20441">
        <ele>328.4</ele>
        <time>2024-04-17T14:52:04Z</time>
      </trkpt>
      <trkpt lat="43.23102" lon="0.20435">
        <ele>328</ele>
        <time>2024-04-17T14:52:05Z</time>
      </trkpt>
      <trkpt lat="43.23094" lon="0.20428">
        <ele>327.6</ele>
        <time>2024-04-17T14:52:06Z</time>
      </trkpt>
      <trkpt lat="43.23088" lon="0.20422">
        <ele>327.4</ele>
        <time>2024-04-17T14:52:07Z</time>
      </trkpt>
      <trkpt lat="43.23081" lon="0.20415">
        <ele>327</ele>
        <time>2024-04-17T14:52:08Z</time>
      </trkpt>
      <trkpt lat="43.23075" lon="0.20409">
        <ele>326.8</ele>
        <time>2024-04-17T14:52:09Z</time>
      </trkpt>
      <trkpt lat="43.23066" lon="0.20406">
        <ele>326</ele>
        <time>2024-04-17T14:52:10Z</time>
      </trkpt>
      <trkpt lat="43.23059" lon="0.20402">
        <ele>325.2</ele>
        <time>2024-04-17T14:52:11Z</time>
      </trkpt>
      <trkpt lat="43.23052" lon="0.20396">
        <ele>325</ele>
        <time>2024-04-17T14:52:12Z</time>
      </trkpt>
      <trkpt lat="43.23047" lon="0.20389">
        <ele>324.2</ele>
        <time>2024-04-17T14:52:13Z</time>
      </trkpt>
      <trkpt lat="43.23043" lon="0.20382">
        <ele>324</ele>
        <time>2024-04-17T14:52:14Z</time>
      </trkpt>
      <trkpt lat="43.23041" lon="0.20377">
        <ele>323</ele>
        <time>2024-04-17T14:52:15Z</time>
      </trkpt>
      <trkpt lat="43.23039" lon="0.20373">
        <ele>322.6</ele>
        <time>2024-04-17T14:52:16Z</time>
      </trkpt>
      <trkpt lat="43.23038" lon="0.20371">
        <ele>322.2</ele>
        <time>2024-04-17T14:52:17Z</time>
      </trkpt>
      <trkpt lat="43.23038" lon="0.20369">
        <ele>322</ele>
        <time>2024-04-17T14:52:18Z</time>
      </trkpt>
      <trkpt lat="43.23036" lon="0.20367">
        <ele>322</ele>
        <time>2024-04-17T14:52:19Z</time>
      </trkpt>
      <trkpt lat="43.23034" lon="0.20365">
        <ele>321.8</ele>
        <time>2024-04-17T14:52:20Z</time>
      </trkpt>
      <trkpt lat="43.23032" lon="0.20362">
        <ele>321.8</ele>
        <time>2024-04-17T14:52:21Z</time>
      </trkpt>
      <trkpt lat="43.23029" lon="0.2036">
        <ele>321.8</ele>
        <time>2024-04-17T14:52:22Z</time>
      </trkpt>
      <trkpt lat="43.23026" lon="0.20356">
        <ele>321.8</ele>
        <time>2024-04-17T14:52:23Z</time>
      </trkpt>
      <trkpt lat="43.23022" lon="0.20353">
        <ele>321.8</ele>
        <time>2024-04-17T14:52:24Z</time>
      </trkpt>
      <trkpt lat="43.23019" lon="0.20349">
        <ele>321.8</ele>
        <time>2024-04-17T14:52:25Z</time>
      </trkpt>
      <trkpt lat="43.23016" lon="0.20346">
        <ele>321.8</ele>
        <time>2024-04-17T14:52:26Z</time>
      </trkpt>
      <trkpt lat="43.23015" lon="0.20343">
        <ele>322</ele>
        <time>2024-04-17T14:52:27Z</time>
      </trkpt>
      <trkpt lat="43.23014" lon="0.2034">
        <ele>322</ele>
        <time>2024-04-17T14:52:28Z</time>
      </trkpt>
      <trkpt lat="43.23013" lon="0.20337">
        <ele>321.8</ele>
        <time>2024-04-17T14:52:29Z</time>
      </trkpt>
      <trkpt lat="43.2301" lon="0.20335">
        <ele>321.8</ele>
        <time>2024-04-17T14:52:30Z</time>
      </trkpt>
      <trkpt lat="43.23008" lon="0.20332">
        <ele>321.6</ele>
        <time>2024-04-17T14:52:31Z</time>
      </trkpt>
      <trkpt lat="43.23005" lon="0.20329">
        <ele>321.8</ele>
        <time>2024-04-17T14:52:32Z</time>
      </trkpt>
      <trkpt lat="43.23002" lon="0.20327">
        <ele>321.6</ele>
        <time>2024-04-17T14:52:33Z</time>
      </trkpt>
      <trkpt lat="43.22999" lon="0.20323">
        <ele>321.6</ele>
        <time>2024-04-17T14:52:34Z</time>
      </trkpt>
      <trkpt lat="43.22997" lon="0.2032">
        <ele>321.4</ele>
        <time>2024-04-17T14:52:35Z</time>
      </trkpt>
      <trkpt lat="43.22994" lon="0.20317">
        <ele>321.4</ele>
        <time>2024-04-17T14:52:36Z</time>
      </trkpt>
      <trkpt lat="43.2299" lon="0.20314">
        <ele>321.4</ele>
        <time>2024-04-17T14:52:37Z</time>
      </trkpt>
      <trkpt lat="43.22986" lon="0.20312">
        <ele>322</ele>
        <time>2024-04-17T14:52:38Z</time>
      </trkpt>
      <trkpt lat="43.22983" lon="0.20309">
        <ele>322</ele>
        <time>2024-04-17T14:52:39Z</time>
      </trkpt>
      <trkpt lat="43.22982" lon="0.20307">
        <ele>322.2</ele>
        <time>2024-04-17T14:52:40Z</time>
      </trkpt>
      <trkpt lat="43.22982" lon="0.20304">
        <ele>322.4</ele>
        <time>2024-04-17T14:52:41Z</time>
      </trkpt>
      <trkpt lat="43.22978" lon="0.20302">
        <ele>322.6</ele>
        <time>2024-04-17T14:52:42Z</time>
      </trkpt>
      <trkpt lat="43.22976" lon="0.20299">
        <ele>322.8</ele>
        <time>2024-04-17T14:52:43Z</time>
      </trkpt>
      <trkpt lat="43.22972" lon="0.20297">
        <ele>322.8</ele>
        <time>2024-04-17T14:52:44Z</time>
      </trkpt>
      <trkpt lat="43.22968" lon="0.20295">
        <ele>323</ele>
        <time>2024-04-17T14:52:45Z</time>
      </trkpt>
      <trkpt lat="43.22965" lon="0.20293">
        <ele>323</ele>
        <time>2024-04-17T14:52:46Z</time>
      </trkpt>
      <trkpt lat="43.22963" lon="0.20291">
        <ele>323.2</ele>
        <time>2024-04-17T14:52:47Z</time>
      </trkpt>
      <trkpt lat="43.22962" lon="0.20288">
        <ele>323.2</ele>
        <time>2024-04-17T14:52:48Z</time>
      </trkpt>
      <trkpt lat="43.22961" lon="0.20286">
        <ele>323.4</ele>
        <time>2024-04-17T14:52:49Z</time>
      </trkpt>
      <trkpt lat="43.22958" lon="0.20284">
        <ele>323.4</ele>
        <time>2024-04-17T14:52:50Z</time>
      </trkpt>
      <trkpt lat="43.22956" lon="0.20282">
        <ele>323.8</ele>
        <time>2024-04-17T14:52:51Z</time>
      </trkpt>
      <trkpt lat="43.22954" lon="0.20279">
        <ele>324</ele>
        <time>2024-04-17T14:52:52Z</time>
      </trkpt>
      <trkpt lat="43.22954" lon="0.20276">
        <ele>324.2</ele>
        <time>2024-04-17T14:52:53Z</time>
      </trkpt>
      <trkpt lat="43.22953" lon="0.20274">
        <ele>324.4</ele>
        <time>2024-04-17T14:52:54Z</time>
      </trkpt>
      <trkpt lat="43.22951" lon="0.20271">
        <ele>324.6</ele>
        <time>2024-04-17T14:52:55Z</time>
      </trkpt>
      <trkpt lat="43.22949" lon="0.2027">
        <ele>324.6</ele>
        <time>2024-04-17T14:52:56Z</time>
      </trkpt>
      <trkpt lat="43.22947" lon="0.20268">
        <ele>324.6</ele>
        <time>2024-04-17T14:52:57Z</time>
      </trkpt>
      <trkpt lat="43.22946" lon="0.20266">
        <ele>324.6</ele>
        <time>2024-04-17T14:52:58Z</time>
      </trkpt>
      <trkpt lat="43.22944" lon="0.20264">
        <ele>324.6</ele>
        <time>2024-04-17T14:52:59Z</time>
      </trkpt>
      <trkpt lat="43.22942" lon="0.20262">
        <ele>324.6</ele>
        <time>2024-04-17T14:53:00Z</time>
      </trkpt>
      <trkpt lat="43.22941" lon="0.2026">
        <ele>324.6</ele>
        <time>2024-04-17T14:53:01Z</time>
      </trkpt>
      <trkpt lat="43.22939" lon="0.20258">
        <ele>324.8</ele>
        <time>2024-04-17T14:53:02Z</time>
      </trkpt>
      <trkpt lat="43.22936" lon="0.20256">
        <ele>324.8</ele>
        <time>2024-04-17T14:53:03Z</time>
      </trkpt>
      <trkpt lat="43.22934" lon="0.20253">
        <ele>324.8</ele>
        <time>2024-04-17T14:53:04Z</time>
      </trkpt>
      <trkpt lat="43.22933" lon="0.20252">
        <ele>324.8</ele>
        <time>2024-04-17T14:53:05Z</time>
      </trkpt>
      <trkpt lat="43.22932" lon="0.2025">
        <ele>324.8</ele>
        <time>2024-04-17T14:53:06Z</time>
      </trkpt>
      <trkpt lat="43.22929" lon="0.20249">
        <ele>324.8</ele>
        <time>2024-04-17T14:53:07Z</time>
      </trkpt>
      <trkpt lat="43.22926" lon="0.20247">
        <ele>324.8</ele>
        <time>2024-04-17T14:53:08Z</time>
      </trkpt>
      <trkpt lat="43.22924" lon="0.20245">
        <ele>324.8</ele>
        <time>2024-04-17T14:53:09Z</time>
      </trkpt>
      <trkpt lat="43.22922" lon="0.20242">
        <ele>325</ele>
        <time>2024-04-17T14:53:10Z</time>
      </trkpt>
      <trkpt lat="43.2292" lon="0.20239">
        <ele>325</ele>
        <time>2024-04-17T14:53:11Z</time>
      </trkpt>
      <trkpt lat="43.2292" lon="0.20237">
        <ele>325</ele>
        <time>2024-04-17T14:53:12Z</time>
      </trkpt>
      <trkpt lat="43.22919" lon="0.20235">
        <ele>325.2</ele>
        <time>2024-04-17T14:53:13Z</time>
      </trkpt>
      <trkpt lat="43.22918" lon="0.20233">
        <ele>325.2</ele>
        <time>2024-04-17T14:53:14Z</time>
      </trkpt>
      <trkpt lat="43.22914" lon="0.20231">
        <ele>325.4</ele>
        <time>2024-04-17T14:53:15Z</time>
      </trkpt>
      <trkpt lat="43.22913" lon="0.2023">
        <ele>325.4</ele>
        <time>2024-04-17T14:53:16Z</time>
      </trkpt>
      <trkpt lat="43.22912" lon="0.20229">
        <ele>325.4</ele>
        <time>2024-04-17T14:53:17Z</time>
      </trkpt>
      <trkpt lat="43.2291" lon="0.20228">
        <ele>325.6</ele>
        <time>2024-04-17T14:53:18Z</time>
      </trkpt>
      <trkpt lat="43.22908" lon="0.20226">
        <ele>325.6</ele>
        <time>2024-04-17T14:53:19Z</time>
      </trkpt>
      <trkpt lat="43.22905" lon="0.20223">
        <ele>325.6</ele>
        <time>2024-04-17T14:53:20Z</time>
      </trkpt>
      <trkpt lat="43.22904" lon="0.20221">
        <ele>325.8</ele>
        <time>2024-04-17T14:53:21Z</time>
      </trkpt>
      <trkpt lat="43.22902" lon="0.20218">
        <ele>325.8</ele>
        <time>2024-04-17T14:53:22Z</time>
      </trkpt>
      <trkpt lat="43.22902" lon="0.20218">
        <ele>326.2</ele>
        <time>2024-04-17T14:53:23Z</time>
      </trkpt>
      <trkpt lat="43.22902" lon="0.20218">
        <ele>326.4</ele>
        <time>2024-04-17T14:53:24Z</time>
      </trkpt>
      <trkpt lat="43.22902" lon="0.20218">
        <ele>326.4</ele>
        <time>2024-04-17T14:53:25Z</time>
      </trkpt>
      <trkpt lat="43.22902" lon="0.20218">
        <ele>326.6</ele>
        <time>2024-04-17T14:53:26Z</time>
      </trkpt>
      <trkpt lat="43.22902" lon="0.20218">
        <ele>326.6</ele>
        <time>2024-04-17T14:53:27Z</time>
      </trkpt>
      <trkpt lat="43.22902" lon="0.20218">
        <ele>326.6</ele>
        <time>2024-04-17T14:53:28Z</time>
      </trkpt>
      <trkpt lat="43.22902" lon="0.20218">
        <ele>326.6</ele>
        <time>2024-04-17T14:53:29Z</time>
      </trkpt>
      <trkpt lat="43.22902" lon="0.20218">
        <ele>326.8</ele>
        <time>2024-04-17T14:53:30Z</time>
      </trkpt>
      <trkpt lat="43.22902" lon="0.20218">
        <ele>326.8</ele>
        <time>2024-04-17T14:53:31Z</time>
      </trkpt>
      <trkpt lat="43.22902" lon="0.20218">
        <ele>326.8</ele>
        <time>2024-04-17T14:53:32Z</time>
      </trkpt>
      <trkpt lat="43.22902" lon="0.20217">
        <ele>326.8</ele>
        <time>2024-04-17T14:53:33Z</time>
      </trkpt>
      <trkpt lat="43.22901" lon="0.20216">
        <ele>326.8</ele>
        <time>2024-04-17T14:53:34Z</time>
      </trkpt>
      <trkpt lat="43.229" lon="0.20215">
        <ele>326.8</ele>
        <time>2024-04-17T14:53:35Z</time>
      </trkpt>
      <trkpt lat="43.229" lon="0.20214">
        <ele>326.8</ele>
        <time>2024-04-17T14:53:36Z</time>
      </trkpt>
      <trkpt lat="43.229" lon="0.20214">
        <ele>326.8</ele>
        <time>2024-04-17T14:53:37Z</time>
      </trkpt>
      <trkpt lat="43.229" lon="0.20214">
        <ele>327</ele>
        <time>2024-04-17T14:53:38Z</time>
      </trkpt>
      <trkpt lat="43.229" lon="0.20214">
        <ele>327</ele>
        <time>2024-04-17T14:53:39Z</time>
      </trkpt>
      <trkpt lat="43.229" lon="0.20214">
        <ele>327.2</ele>
        <time>2024-04-17T14:53:40Z</time>
      </trkpt>
      <trkpt lat="43.229" lon="0.20214">
        <ele>327.2</ele>
        <time>2024-04-17T14:53:41Z</time>
      </trkpt>
      <trkpt lat="43.229" lon="0.20214">
        <ele>327.2</ele>
        <time>2024-04-17T14:53:42Z</time>
      </trkpt>
      <trkpt lat="43.229" lon="0.20214">
        <ele>327.2</ele>
        <time>2024-04-17T14:53:43Z</time>
      </trkpt>
      <trkpt lat="43.229" lon="0.20214">
        <ele>327.2</ele>
        <time>2024-04-17T14:53:44Z</time>
      </trkpt>
      <trkpt lat="43.229" lon="0.20214">
        <ele>327.2</ele>
        <time>2024-04-17T14:53:45Z</time>
      </trkpt>
      <trkpt lat="43.229" lon="0.20214">
        <ele>327.4</ele>
        <time>2024-04-17T14:53:46Z</time>
      </trkpt>
      <trkpt lat="43.229" lon="0.20214">
        <ele>327.4</ele>
        <time>2024-04-17T14:53:47Z</time>
      </trkpt>
      <trkpt lat="43.229" lon="0.20214">
        <ele>327.4</ele>
        <time>2024-04-17T14:53:48Z</time>
      </trkpt>
      <trkpt lat="43.229" lon="0.20214">
        <ele>327.4</ele>
        <time>2024-04-17T14:53:49Z</time>
      </trkpt>
      <trkpt lat="43.229" lon="0.20214">
        <ele>327.6</ele>
        <time>2024-04-17T14:53:50Z</time>
      </trkpt>
      <trkpt lat="43.229" lon="0.20214">
        <ele>327.6</ele>
        <time>2024-04-17T14:53:51Z</time>
      </trkpt>
      <trkpt lat="43.229" lon="0.20214">
        <ele>327.4</ele>
        <time>2024-04-17T14:53:52Z</time>
      </trkpt>
      <trkpt lat="43.229" lon="0.20214">
        <ele>327.6</ele>
        <time>2024-04-17T14:53:53Z</time>
      </trkpt>
      <trkpt lat="43.22899" lon="0.20212">
        <ele>327.8</ele>
        <time>2024-04-17T14:53:54Z</time>
      </trkpt>
      <trkpt lat="43.22898" lon="0.2021">
        <ele>328</ele>
        <time>2024-04-17T14:53:55Z</time>
      </trkpt>
      <trkpt lat="43.22895" lon="0.20207">
        <ele>328</ele>
        <time>2024-04-17T14:53:56Z</time>
      </trkpt>
      <trkpt lat="43.22891" lon="0.20205">
        <ele>328.2</ele>
        <time>2024-04-17T14:53:57Z</time>
      </trkpt>
      <trkpt lat="43.22887" lon="0.20203">
        <ele>328.2</ele>
        <time>2024-04-17T14:53:58Z</time>
      </trkpt>
      <trkpt lat="43.22884" lon="0.20201">
        <ele>328.2</ele>
        <time>2024-04-17T14:53:59Z</time>
      </trkpt>
      <trkpt lat="43.22882" lon="0.202">
        <ele>328.4</ele>
        <time>2024-04-17T14:54:00Z</time>
      </trkpt>
      <trkpt lat="43.2288" lon="0.20198">
        <ele>328.4</ele>
        <time>2024-04-17T14:54:01Z</time>
      </trkpt>
      <trkpt lat="43.22878" lon="0.20197">
        <ele>328.6</ele>
        <time>2024-04-17T14:54:02Z</time>
      </trkpt>
      <trkpt lat="43.22877" lon="0.20197">
        <ele>328.8</ele>
        <time>2024-04-17T14:54:03Z</time>
      </trkpt>
      <trkpt lat="43.22877" lon="0.20197">
        <ele>329</ele>
        <time>2024-04-17T14:54:04Z</time>
      </trkpt>
      <trkpt lat="43.22876" lon="0.20195">
        <ele>329.2</ele>
        <time>2024-04-17T14:54:05Z</time>
      </trkpt>
      <trkpt lat="43.22875" lon="0.20194">
        <ele>329.4</ele>
        <time>2024-04-17T14:54:06Z</time>
      </trkpt>
      <trkpt lat="43.22873" lon="0.20192">
        <ele>329.6</ele>
        <time>2024-04-17T14:54:07Z</time>
      </trkpt>
      <trkpt lat="43.2287" lon="0.20191">
        <ele>329.6</ele>
        <time>2024-04-17T14:54:08Z</time>
      </trkpt>
      <trkpt lat="43.22868" lon="0.2019">
        <ele>329.8</ele>
        <time>2024-04-17T14:54:09Z</time>
      </trkpt>
      <trkpt lat="43.22867" lon="0.20189">
        <ele>330</ele>
        <time>2024-04-17T14:54:10Z</time>
      </trkpt>
      <trkpt lat="43.22865" lon="0.20189">
        <ele>330.2</ele>
        <time>2024-04-17T14:54:11Z</time>
      </trkpt>
      <trkpt lat="43.22864" lon="0.20188">
        <ele>330.2</ele>
        <time>2024-04-17T14:54:12Z</time>
      </trkpt>
      <trkpt lat="43.22864" lon="0.20187">
        <ele>330.4</ele>
        <time>2024-04-17T14:54:13Z</time>
      </trkpt>
      <trkpt lat="43.22864" lon="0.20187">
        <ele>330.6</ele>
        <time>2024-04-17T14:54:14Z</time>
      </trkpt>
      <trkpt lat="43.22864" lon="0.20187">
        <ele>330.6</ele>
        <time>2024-04-17T14:54:15Z</time>
      </trkpt>
      <trkpt lat="43.22864" lon="0.20187">
        <ele>330.8</ele>
        <time>2024-04-17T14:54:16Z</time>
      </trkpt>
      <trkpt lat="43.22864" lon="0.20187">
        <ele>330.8</ele>
        <time>2024-04-17T14:54:17Z</time>
      </trkpt>
      <trkpt lat="43.22864" lon="0.20187">
        <ele>330.8</ele>
        <time>2024-04-17T14:54:18Z</time>
      </trkpt>
      <trkpt lat="43.22864" lon="0.20187">
        <ele>330.8</ele>
        <time>2024-04-17T14:54:19Z</time>
      </trkpt>
      <trkpt lat="43.22864" lon="0.20187">
        <ele>330.8</ele>
        <time>2024-04-17T14:54:20Z</time>
      </trkpt>
      <trkpt lat="43.22864" lon="0.20187">
        <ele>331</ele>
        <time>2024-04-17T14:54:21Z</time>
      </trkpt>
      <trkpt lat="43.22864" lon="0.20187">
        <ele>331</ele>
        <time>2024-04-17T14:54:22Z</time>
      </trkpt>
      <trkpt lat="43.22864" lon="0.20187">
        <ele>331</ele>
        <time>2024-04-17T14:54:23Z</time>
      </trkpt>
      <trkpt lat="43.22864" lon="0.20187">
        <ele>331</ele>
        <time>2024-04-17T14:54:24Z</time>
      </trkpt>
      <trkpt lat="43.22864" lon="0.20187">
        <ele>331</ele>
        <time>2024-04-17T14:54:25Z</time>
      </trkpt>
      <trkpt lat="43.22864" lon="0.20187">
        <ele>331</ele>
        <time>2024-04-17T14:54:26Z</time>
      </trkpt>
      <trkpt lat="43.22864" lon="0.20187">
        <ele>331</ele>
        <time>2024-04-17T14:54:27Z</time>
      </trkpt>
      <trkpt lat="43.22864" lon="0.20187">
        <ele>331</ele>
        <time>2024-04-17T14:54:28Z</time>
      </trkpt>
      <trkpt lat="43.22864" lon="0.20187">
        <ele>331</ele>
        <time>2024-04-17T14:54:29Z</time>
      </trkpt>
      <trkpt lat="43.22864" lon="0.20187">
        <ele>331</ele>
        <time>2024-04-17T14:54:30Z</time>
      </trkpt>
      <trkpt lat="43.22864" lon="0.20187">
        <ele>331</ele>
        <time>2024-04-17T14:54:31Z</time>
      </trkpt>
      <trkpt lat="43.22864" lon="0.20187">
        <ele>331</ele>
        <time>2024-04-17T14:54:32Z</time>
      </trkpt>
      <trkpt lat="43.22864" lon="0.20187">
        <ele>331</ele>
        <time>2024-04-17T14:54:33Z</time>
      </trkpt>
      <trkpt lat="43.22864" lon="0.20187">
        <ele>331</ele>
        <time>2024-04-17T14:54:34Z</time>
      </trkpt>
      <trkpt lat="43.22864" lon="0.20187">
        <ele>331</ele>
        <time>2024-04-17T14:54:35Z</time>
      </trkpt>
      <trkpt lat="43.22864" lon="0.20187">
        <ele>331</ele>
        <time>2024-04-17T14:54:36Z</time>
      </trkpt>
      <trkpt lat="43.22864" lon="0.20187">
        <ele>331</ele>
        <time>2024-04-17T14:54:37Z</time>
      </trkpt>
      <trkpt lat="43.22864" lon="0.20187">
        <ele>331</ele>
        <time>2024-04-17T14:54:38Z</time>
      </trkpt>
      <trkpt lat="43.22864" lon="0.20187">
        <ele>331</ele>
        <time>2024-04-17T14:54:39Z</time>
      </trkpt>
      <trkpt lat="43.22864" lon="0.20187">
        <ele>331</ele>
        <time>2024-04-17T14:54:40Z</time>
      </trkpt>
      <trkpt lat="43.22864" lon="0.20187">
        <ele>331</ele>
        <time>2024-04-17T14:54:41Z</time>
      </trkpt>
      <trkpt lat="43.22864" lon="0.20187">
        <ele>331</ele>
        <time>2024-04-17T14:54:42Z</time>
      </trkpt>
      <trkpt lat="43.22864" lon="0.20187">
        <ele>331</ele>
        <time>2024-04-17T14:54:43Z</time>
      </trkpt>
      <trkpt lat="43.22864" lon="0.20187">
        <ele>331.2</ele>
        <time>2024-04-17T14:54:44Z</time>
      </trkpt>
      <trkpt lat="43.22864" lon="0.20187">
        <ele>330.8</ele>
        <time>2024-04-17T14:54:45Z</time>
      </trkpt>
      <trkpt lat="43.22864" lon="0.20187">
        <ele>331</ele>
        <time>2024-04-17T14:54:46Z</time>
      </trkpt>
      <trkpt lat="43.22864" lon="0.20187">
        <ele>331</ele>
        <time>2024-04-17T14:54:47Z</time>
      </trkpt>
      <trkpt lat="43.22864" lon="0.20187">
        <ele>331</ele>
        <time>2024-04-17T14:54:48Z</time>
      </trkpt>
      <trkpt lat="43.22864" lon="0.20187">
        <ele>331</ele>
        <time>2024-04-17T14:54:49Z</time>
      </trkpt>
      <trkpt lat="43.22864" lon="0.20187">
        <ele>330.8</ele>
        <time>2024-04-17T14:54:50Z</time>
      </trkpt>
      <trkpt lat="43.22864" lon="0.20187">
        <ele>330.8</ele>
        <time>2024-04-17T14:54:51Z</time>
      </trkpt>
      <trkpt lat="43.22864" lon="0.20187">
        <ele>330.8</ele>
        <time>2024-04-17T14:54:52Z</time>
      </trkpt>
      <trkpt lat="43.22864" lon="0.20187">
        <ele>330.8</ele>
        <time>2024-04-17T14:54:53Z</time>
      </trkpt>
      <trkpt lat="43.22864" lon="0.20187">
        <ele>330.8</ele>
        <time>2024-04-17T14:54:54Z</time>
      </trkpt>
      <trkpt lat="43.22864" lon="0.20187">
        <ele>330.8</ele>
        <time>2024-04-17T14:54:55Z</time>
      </trkpt>
      <trkpt lat="43.22864" lon="0.20187">
        <ele>330.8</ele>
        <time>2024-04-17T14:54:56Z</time>
      </trkpt>
      <trkpt lat="43.22864" lon="0.20187">
        <ele>330.8</ele>
        <time>2024-04-17T14:54:57Z</time>
      </trkpt>
      <trkpt lat="43.22864" lon="0.20187">
        <ele>330.8</ele>
        <time>2024-04-17T14:54:58Z</time>
      </trkpt>
      <trkpt lat="43.22864" lon="0.20187">
        <ele>330.8</ele>
        <time>2024-04-17T14:54:59Z</time>
      </trkpt>
      <trkpt lat="43.22864" lon="0.20187">
        <ele>330.8</ele>
        <time>2024-04-17T14:55:00Z</time>
      </trkpt>
      <trkpt lat="43.22864" lon="0.20187">
        <ele>330.8</ele>
        <time>2024-04-17T14:55:01Z</time>
      </trkpt>
      <trkpt lat="43.22864" lon="0.20187">
        <ele>330.8</ele>
        <time>2024-04-17T14:55:02Z</time>
      </trkpt>
      <trkpt lat="43.22864" lon="0.20187">
        <ele>330.8</ele>
        <time>2024-04-17T14:55:03Z</time>
      </trkpt>
      <trkpt lat="43.22864" lon="0.20187">
        <ele>330.8</ele>
        <time>2024-04-17T14:55:04Z</time>
      </trkpt>
      <trkpt lat="43.22864" lon="0.20187">
        <ele>330.8</ele>
        <time>2024-04-17T14:55:05Z</time>
      </trkpt>
      <trkpt lat="43.22864" lon="0.20187">
        <ele>330.8</ele>
        <time>2024-04-17T14:55:06Z</time>
      </trkpt>
      <trkpt lat="43.22864" lon="0.20187">
        <ele>330.8</ele>
        <time>2024-04-17T14:55:07Z</time>
      </trkpt>
      <trkpt lat="43.22864" lon="0.20187">
        <ele>330.8</ele>
        <time>2024-04-17T14:55:08Z</time>
      </trkpt>
      <trkpt lat="43.22864" lon="0.20187">
        <ele>330.8</ele>
        <time>2024-04-17T14:55:09Z</time>
      </trkpt>
      <trkpt lat="43.22864" lon="0.20187">
        <ele>330.8</ele>
        <time>2024-04-17T14:55:10Z</time>
      </trkpt>
      <trkpt lat="43.22864" lon="0.20187">
        <ele>330.8</ele>
        <time>2024-04-17T14:55:11Z</time>
      </trkpt>
      <trkpt lat="43.22864" lon="0.20187">
        <ele>330.8</ele>
        <time>2024-04-17T14:55:12Z</time>
      </trkpt>
      <trkpt lat="43.22864" lon="0.20187">
        <ele>330.8</ele>
        <time>2024-04-17T14:55:13Z</time>
      </trkpt>
      <trkpt lat="43.22864" lon="0.20187">
        <ele>330.8</ele>
        <time>2024-04-17T14:55:14Z</time>
      </trkpt>
      <trkpt lat="43.22864" lon="0.20187">
        <ele>330.8</ele>
        <time>2024-04-17T14:55:15Z</time>
      </trkpt>
      <trkpt lat="43.22864" lon="0.20187">
        <ele>330.8</ele>
        <time>2024-04-17T14:55:16Z</time>
      </trkpt>
      <trkpt lat="43.22864" lon="0.20187">
        <ele>330.8</ele>
        <time>2024-04-17T14:55:17Z</time>
      </trkpt>
      <trkpt lat="43.22864" lon="0.20187">
        <ele>330.8</ele>
        <time>2024-04-17T14:55:18Z</time>
      </trkpt>
      <trkpt lat="43.22864" lon="0.20187">
        <ele>330.8</ele>
        <time>2024-04-17T14:55:19Z</time>
      </trkpt>
      <trkpt lat="43.22864" lon="0.20187">
        <ele>330.8</ele>
        <time>2024-04-17T14:55:20Z</time>
      </trkpt>
      <trkpt lat="43.22864" lon="0.20187">
        <ele>330.8</ele>
        <time>2024-04-17T14:55:21Z</time>
      </trkpt>
      <trkpt lat="43.22864" lon="0.20187">
        <ele>330.8</ele>
        <time>2024-04-17T14:55:22Z</time>
      </trkpt>
      <trkpt lat="43.22864" lon="0.20187">
        <ele>330.8</ele>
        <time>2024-04-17T14:55:23Z</time>
      </trkpt>
      <trkpt lat="43.22864" lon="0.20187">
        <ele>330.8</ele>
        <time>2024-04-17T14:55:24Z</time>
      </trkpt>
      <trkpt lat="43.22864" lon="0.20187">
        <ele>330.8</ele>
        <time>2024-04-17T14:55:25Z</time>
      </trkpt>
      <trkpt lat="43.22864" lon="0.20187">
        <ele>330.8</ele>
        <time>2024-04-17T14:55:26Z</time>
      </trkpt>
      <trkpt lat="43.22864" lon="0.20187">
        <ele>330.8</ele>
        <time>2024-04-17T14:55:27Z</time>
      </trkpt>
      <trkpt lat="43.22864" lon="0.20187">
        <ele>330.8</ele>
        <time>2024-04-17T14:55:28Z</time>
      </trkpt>
      <trkpt lat="43.22864" lon="0.20187">
        <ele>330.8</ele>
        <time>2024-04-17T14:55:29Z</time>
      </trkpt>
      <trkpt lat="43.22864" lon="0.20187">
        <ele>330.8</ele>
        <time>2024-04-17T14:55:30Z</time>
      </trkpt>
      <trkpt lat="43.22864" lon="0.20187">
        <ele>330.8</ele>
        <time>2024-04-17T14:55:31Z</time>
      </trkpt>
      <trkpt lat="43.22864" lon="0.20187">
        <ele>331</ele>
        <time>2024-04-17T14:55:32Z</time>
      </trkpt>
      <trkpt lat="43.22864" lon="0.20187">
        <ele>331.2</ele>
        <time>2024-04-17T14:55:33Z</time>
      </trkpt>
      <trkpt lat="43.22864" lon="0.20187">
        <ele>331.2</ele>
        <time>2024-04-17T14:55:34Z</time>
      </trkpt>
      <trkpt lat="43.22864" lon="0.20187">
        <ele>331.4</ele>
        <time>2024-04-17T14:55:35Z</time>
      </trkpt>
      <trkpt lat="43.22864" lon="0.20187">
        <ele>331.4</ele>
        <time>2024-04-17T14:55:36Z</time>
      </trkpt>
      <trkpt lat="43.22864" lon="0.20187">
        <ele>331.4</ele>
        <time>2024-04-17T14:55:37Z</time>
      </trkpt>
      <trkpt lat="43.22864" lon="0.20187">
        <ele>331.4</ele>
        <time>2024-04-17T14:55:38Z</time>
      </trkpt>
      <trkpt lat="43.22864" lon="0.20187">
        <ele>331.4</ele>
        <time>2024-04-17T14:55:39Z</time>
      </trkpt>
      <trkpt lat="43.22864" lon="0.20187">
        <ele>331.2</ele>
        <time>2024-04-17T14:55:40Z</time>
      </trkpt>
      <trkpt lat="43.22864" lon="0.20187">
        <ele>331</ele>
        <time>2024-04-17T14:55:41Z</time>
      </trkpt>
      <trkpt lat="43.22864" lon="0.20187">
        <ele>330.8</ele>
        <time>2024-04-17T14:55:42Z</time>
      </trkpt>
      <trkpt lat="43.22864" lon="0.20187">
        <ele>330.8</ele>
        <time>2024-04-17T14:55:43Z</time>
      </trkpt>
      <trkpt lat="43.22864" lon="0.20187">
        <ele>330.6</ele>
        <time>2024-04-17T14:55:44Z</time>
      </trkpt>
      <trkpt lat="43.22864" lon="0.20187">
        <ele>330.6</ele>
        <time>2024-04-17T14:55:45Z</time>
      </trkpt>
      <trkpt lat="43.22864" lon="0.20187">
        <ele>330.6</ele>
        <time>2024-04-17T14:55:46Z</time>
      </trkpt>
      <trkpt lat="43.22864" lon="0.20187">
        <ele>330.6</ele>
        <time>2024-04-17T14:55:47Z</time>
      </trkpt>
      <trkpt lat="43.22864" lon="0.20187">
        <ele>330.6</ele>
        <time>2024-04-17T14:55:48Z</time>
      </trkpt>
      <trkpt lat="43.22864" lon="0.20187">
        <ele>330.8</ele>
        <time>2024-04-17T14:55:49Z</time>
      </trkpt>
      <trkpt lat="43.22864" lon="0.20187">
        <ele>330.6</ele>
        <time>2024-04-17T14:55:50Z</time>
      </trkpt>
      <trkpt lat="43.22864" lon="0.20187">
        <ele>330.6</ele>
        <time>2024-04-17T14:55:51Z</time>
      </trkpt>
      <trkpt lat="43.22864" lon="0.20187">
        <ele>330.6</ele>
        <time>2024-04-17T14:55:52Z</time>
      </trkpt>
      <trkpt lat="43.22864" lon="0.20187">
        <ele>330.8</ele>
        <time>2024-04-17T14:55:53Z</time>
      </trkpt>
      <trkpt lat="43.22865" lon="0.20187">
        <ele>330.8</ele>
        <time>2024-04-17T14:55:54Z</time>
      </trkpt>
      <trkpt lat="43.22865" lon="0.20187">
        <ele>330.8</ele>
        <time>2024-04-17T14:55:55Z</time>
      </trkpt>
      <trkpt lat="43.22865" lon="0.20187">
        <ele>330.8</ele>
        <time>2024-04-17T14:55:56Z</time>
      </trkpt>
      <trkpt lat="43.22866" lon="0.20188">
        <ele>330.6</ele>
        <time>2024-04-17T14:55:57Z</time>
      </trkpt>
      <trkpt lat="43.22867" lon="0.20188">
        <ele>330.6</ele>
        <time>2024-04-17T14:55:58Z</time>
      </trkpt>
      <trkpt lat="43.22868" lon="0.20188">
        <ele>330.6</ele>
        <time>2024-04-17T14:55:59Z</time>
      </trkpt>
      <trkpt lat="43.22867" lon="0.20188">
        <ele>330.6</ele>
        <time>2024-04-17T14:56:00Z</time>
      </trkpt>
      <trkpt lat="43.22868" lon="0.20188">
        <ele>330.4</ele>
        <time>2024-04-17T14:56:01Z</time>
      </trkpt>
      <trkpt lat="43.22869" lon="0.20188">
        <ele>330.4</ele>
        <time>2024-04-17T14:56:02Z</time>
      </trkpt>
      <trkpt lat="43.2287" lon="0.20188">
        <ele>330.4</ele>
        <time>2024-04-17T14:56:03Z</time>
      </trkpt>
      <trkpt lat="43.22871" lon="0.20188">
        <ele>330.4</ele>
        <time>2024-04-17T14:56:04Z</time>
      </trkpt>
      <trkpt lat="43.22871" lon="0.20188">
        <ele>330.4</ele>
        <time>2024-04-17T14:56:05Z</time>
      </trkpt>
      <trkpt lat="43.22872" lon="0.20188">
        <ele>330.4</ele>
        <time>2024-04-17T14:56:06Z</time>
      </trkpt>
      <trkpt lat="43.22872" lon="0.20188">
        <ele>330.4</ele>
        <time>2024-04-17T14:56:07Z</time>
      </trkpt>
      <trkpt lat="43.22872" lon="0.20188">
        <ele>330.4</ele>
        <time>2024-04-17T14:56:08Z</time>
      </trkpt>
      <trkpt lat="43.22872" lon="0.20188">
        <ele>330.4</ele>
        <time>2024-04-17T14:56:09Z</time>
      </trkpt>
      <trkpt lat="43.22872" lon="0.20188">
        <ele>330.4</ele>
        <time>2024-04-17T14:56:10Z</time>
      </trkpt>
      <trkpt lat="43.22872" lon="0.20188">
        <ele>330.4</ele>
        <time>2024-04-17T14:56:11Z</time>
      </trkpt>
      <trkpt lat="43.22872" lon="0.20188">
        <ele>330.4</ele>
        <time>2024-04-17T14:56:12Z</time>
      </trkpt>
      <trkpt lat="43.22872" lon="0.20188">
        <ele>330.4</ele>
        <time>2024-04-17T14:56:13Z</time>
      </trkpt>
      <trkpt lat="43.22872" lon="0.20188">
        <ele>330.4</ele>
        <time>2024-04-17T14:56:14Z</time>
      </trkpt>
      <trkpt lat="43.22872" lon="0.20188">
        <ele>330.4</ele>
        <time>2024-04-17T14:56:15Z</time>
      </trkpt>
      <trkpt lat="43.22872" lon="0.20188">
        <ele>330.4</ele>
        <time>2024-04-17T14:56:16Z</time>
      </trkpt>
      <trkpt lat="43.22872" lon="0.20188">
        <ele>330.4</ele>
        <time>2024-04-17T14:56:17Z</time>
      </trkpt>
      <trkpt lat="43.22872" lon="0.20188">
        <ele>330.4</ele>
        <time>2024-04-17T14:56:18Z</time>
      </trkpt>
      <trkpt lat="43.22872" lon="0.20188">
        <ele>330.4</ele>
        <time>2024-04-17T14:56:19Z</time>
      </trkpt>
      <trkpt lat="43.22872" lon="0.20188">
        <ele>330.4</ele>
        <time>2024-04-17T14:56:20Z</time>
      </trkpt>
      <trkpt lat="43.22872" lon="0.20188">
        <ele>330.4</ele>
        <time>2024-04-17T14:56:21Z</time>
      </trkpt>
      <trkpt lat="43.22872" lon="0.20188">
        <ele>330.4</ele>
        <time>2024-04-17T14:56:22Z</time>
      </trkpt>
      <trkpt lat="43.22872" lon="0.20188">
        <ele>330.4</ele>
        <time>2024-04-17T14:56:23Z</time>
      </trkpt>
      <trkpt lat="43.22872" lon="0.20188">
        <ele>330.4</ele>
        <time>2024-04-17T14:56:24Z</time>
      </trkpt>
      <trkpt lat="43.22872" lon="0.20188">
        <ele>330.4</ele>
        <time>2024-04-17T14:56:25Z</time>
      </trkpt>
      <trkpt lat="43.22872" lon="0.20188">
        <ele>330.2</ele>
        <time>2024-04-17T14:56:26Z</time>
      </trkpt>
      <trkpt lat="43.22872" lon="0.20188">
        <ele>330.2</ele>
        <time>2024-04-17T14:56:27Z</time>
      </trkpt>
      <trkpt lat="43.22872" lon="0.20188">
        <ele>330.2</ele>
        <time>2024-04-17T14:56:28Z</time>
      </trkpt>
      <trkpt lat="43.22872" lon="0.20188">
        <ele>330.2</ele>
        <time>2024-04-17T14:56:29Z</time>
      </trkpt>
      <trkpt lat="43.22872" lon="0.20188">
        <ele>330.2</ele>
        <time>2024-04-17T14:56:30Z</time>
      </trkpt>
      <trkpt lat="43.22872" lon="0.20188">
        <ele>330.2</ele>
        <time>2024-04-17T14:56:31Z</time>
      </trkpt>
      <trkpt lat="43.22872" lon="0.20188">
        <ele>330.2</ele>
        <time>2024-04-17T14:56:32Z</time>
      </trkpt>
      <trkpt lat="43.22872" lon="0.20188">
        <ele>330.2</ele>
        <time>2024-04-17T14:56:33Z</time>
      </trkpt>
      <trkpt lat="43.22872" lon="0.20188">
        <ele>330.2</ele>
        <time>2024-04-17T14:56:34Z</time>
      </trkpt>
      <trkpt lat="43.22872" lon="0.20188">
        <ele>330.4</ele>
        <time>2024-04-17T14:56:35Z</time>
      </trkpt>
      <trkpt lat="43.22872" lon="0.20188">
        <ele>330.4</ele>
        <time>2024-04-17T14:56:36Z</time>
      </trkpt>
      <trkpt lat="43.22872" lon="0.20188">
        <ele>330.4</ele>
        <time>2024-04-17T14:56:37Z</time>
      </trkpt>
      <trkpt lat="43.22872" lon="0.20188">
        <ele>330.4</ele>
        <time>2024-04-17T14:56:38Z</time>
      </trkpt>
      <trkpt lat="43.22872" lon="0.20188">
        <ele>330.4</ele>
        <time>2024-04-17T14:56:39Z</time>
      </trkpt>
      <trkpt lat="43.22872" lon="0.20188">
        <ele>330.4</ele>
        <time>2024-04-17T14:56:40Z</time>
      </trkpt>
      <trkpt lat="43.22872" lon="0.20188">
        <ele>330.4</ele>
        <time>2024-04-17T14:56:41Z</time>
      </trkpt>
      <trkpt lat="43.22872" lon="0.20188">
        <ele>330.4</ele>
        <time>2024-04-17T14:56:42Z</time>
      </trkpt>
      <trkpt lat="43.22872" lon="0.20188">
        <ele>330.4</ele>
        <time>2024-04-17T14:56:43Z</time>
      </trkpt>
      <trkpt lat="43.22872" lon="0.20188">
        <ele>330.4</ele>
        <time>2024-04-17T14:56:44Z</time>
      </trkpt>
      <trkpt lat="43.22872" lon="0.20188">
        <ele>330.4</ele>
        <time>2024-04-17T14:56:45Z</time>
      </trkpt>
      <trkpt lat="43.22872" lon="0.20188">
        <ele>330.4</ele>
        <time>2024-04-17T14:56:46Z</time>
      </trkpt>
      <trkpt lat="43.22872" lon="0.20188">
        <ele>330.4</ele>
        <time>2024-04-17T14:56:47Z</time>
      </trkpt>
      <trkpt lat="43.22872" lon="0.20188">
        <ele>330.4</ele>
        <time>2024-04-17T14:56:48Z</time>
      </trkpt>
      <trkpt lat="43.22872" lon="0.20188">
        <ele>330.4</ele>
        <time>2024-04-17T14:56:49Z</time>
      </trkpt>
      <trkpt lat="43.22872" lon="0.20188">
        <ele>330.4</ele>
        <time>2024-04-17T14:56:50Z</time>
      </trkpt>
      <trkpt lat="43.22872" lon="0.20188">
        <ele>330.4</ele>
        <time>2024-04-17T14:56:51Z</time>
      </trkpt>
      <trkpt lat="43.22872" lon="0.20188">
        <ele>330.4</ele>
        <time>2024-04-17T14:56:52Z</time>
      </trkpt>
      <trkpt lat="43.22872" lon="0.20188">
        <ele>330.4</ele>
        <time>2024-04-17T14:56:53Z</time>
      </trkpt>
      <trkpt lat="43.22872" lon="0.20188">
        <ele>330.4</ele>
        <time>2024-04-17T14:56:54Z</time>
      </trkpt>
      <trkpt lat="43.22872" lon="0.20188">
        <ele>330.4</ele>
        <time>2024-04-17T14:56:55Z</time>
      </trkpt>
      <trkpt lat="43.22872" lon="0.20188">
        <ele>330.4</ele>
        <time>2024-04-17T14:56:56Z</time>
      </trkpt>
      <trkpt lat="43.22872" lon="0.20188">
        <ele>330.4</ele>
        <time>2024-04-17T14:56:57Z</time>
      </trkpt>
      <trkpt lat="43.22872" lon="0.20188">
        <ele>330.4</ele>
        <time>2024-04-17T14:56:58Z</time>
      </trkpt>
      <trkpt lat="43.22872" lon="0.20188">
        <ele>330.4</ele>
        <time>2024-04-17T14:56:59Z</time>
      </trkpt>
      <trkpt lat="43.22872" lon="0.20188">
        <ele>330.4</ele>
        <time>2024-04-17T14:57:00Z</time>
      </trkpt>
      <trkpt lat="43.22872" lon="0.20188">
        <ele>330.4</ele>
        <time>2024-04-17T14:57:01Z</time>
      </trkpt>
      <trkpt lat="43.22871" lon="0.20188">
        <ele>330.4</ele>
        <time>2024-04-17T14:57:02Z</time>
      </trkpt>
      <trkpt lat="43.22871" lon="0.20188">
        <ele>330.4</ele>
        <time>2024-04-17T14:57:03Z</time>
      </trkpt>
      <trkpt lat="43.22871" lon="0.20188">
        <ele>330.4</ele>
        <time>2024-04-17T14:57:04Z</time>
      </trkpt>
      <trkpt lat="43.22871" lon="0.20188">
        <ele>330.4</ele>
        <time>2024-04-17T14:57:05Z</time>
      </trkpt>
      <trkpt lat="43.22871" lon="0.20188">
        <ele>330.2</ele>
        <time>2024-04-17T14:57:06Z</time>
      </trkpt>
      <trkpt lat="43.22871" lon="0.20188">
        <ele>330.2</ele>
        <time>2024-04-17T14:57:07Z</time>
      </trkpt>
      <trkpt lat="43.22871" lon="0.20188">
        <ele>330.2</ele>
        <time>2024-04-17T14:57:08Z</time>
      </trkpt>
      <trkpt lat="43.22871" lon="0.20188">
        <ele>330.2</ele>
        <time>2024-04-17T14:57:09Z</time>
      </trkpt>
      <trkpt lat="43.22871" lon="0.20188">
        <ele>330.2</ele>
        <time>2024-04-17T14:57:10Z</time>
      </trkpt>
      <trkpt lat="43.22871" lon="0.20188">
        <ele>330.2</ele>
        <time>2024-04-17T14:57:11Z</time>
      </trkpt>
      <trkpt lat="43.22871" lon="0.20188">
        <ele>330.2</ele>
        <time>2024-04-17T14:57:12Z</time>
      </trkpt>
      <trkpt lat="43.22871" lon="0.20188">
        <ele>330.4</ele>
        <time>2024-04-17T14:57:13Z</time>
      </trkpt>
      <trkpt lat="43.22871" lon="0.20188">
        <ele>330.4</ele>
        <time>2024-04-17T14:57:14Z</time>
      </trkpt>
      <trkpt lat="43.22871" lon="0.20188">
        <ele>330.4</ele>
        <time>2024-04-17T14:57:15Z</time>
      </trkpt>
      <trkpt lat="43.22871" lon="0.20188">
        <ele>330.4</ele>
        <time>2024-04-17T14:57:16Z</time>
      </trkpt>
      <trkpt lat="43.22871" lon="0.20188">
        <ele>330.4</ele>
        <time>2024-04-17T14:57:17Z</time>
      </trkpt>
      <trkpt lat="43.22871" lon="0.20188">
        <ele>330.4</ele>
        <time>2024-04-17T14:57:18Z</time>
      </trkpt>
      <trkpt lat="43.22871" lon="0.20188">
        <ele>330.4</ele>
        <time>2024-04-17T14:57:19Z</time>
      </trkpt>
      <trkpt lat="43.22871" lon="0.20188">
        <ele>330.4</ele>
        <time>2024-04-17T14:57:20Z</time>
      </trkpt>
      <trkpt lat="43.22871" lon="0.20188">
        <ele>330.4</ele>
        <time>2024-04-17T14:57:21Z</time>
      </trkpt>
      <trkpt lat="43.22871" lon="0.20188">
        <ele>330.4</ele>
        <time>2024-04-17T14:57:22Z</time>
      </trkpt>
      <trkpt lat="43.22871" lon="0.20188">
        <ele>330.4</ele>
        <time>2024-04-17T14:57:23Z</time>
      </trkpt>
      <trkpt lat="43.22871" lon="0.20188">
        <ele>330.4</ele>
        <time>2024-04-17T14:57:24Z</time>
      </trkpt>
      <trkpt lat="43.22871" lon="0.20188">
        <ele>330.4</ele>
        <time>2024-04-17T14:57:25Z</time>
      </trkpt>
      <trkpt lat="43.22871" lon="0.20188">
        <ele>330.4</ele>
        <time>2024-04-17T14:57:26Z</time>
      </trkpt>
      <trkpt lat="43.22871" lon="0.20188">
        <ele>330.4</ele>
        <time>2024-04-17T14:57:27Z</time>
      </trkpt>
      <trkpt lat="43.22871" lon="0.20188">
        <ele>330.4</ele>
        <time>2024-04-17T14:57:28Z</time>
      </trkpt>
      <trkpt lat="43.22871" lon="0.20188">
        <ele>330.6</ele>
        <time>2024-04-17T14:57:29Z</time>
      </trkpt>
      <trkpt lat="43.22871" lon="0.20188">
        <ele>330.6</ele>
        <time>2024-04-17T14:57:30Z</time>
      </trkpt>
      <trkpt lat="43.22871" lon="0.20188">
        <ele>330.6</ele>
        <time>2024-04-17T14:57:31Z</time>
      </trkpt>
      <trkpt lat="43.22871" lon="0.20188">
        <ele>330.6</ele>
        <time>2024-04-17T14:57:32Z</time>
      </trkpt>
      <trkpt lat="43.22871" lon="0.20188">
        <ele>330.6</ele>
        <time>2024-04-17T14:57:33Z</time>
      </trkpt>
      <trkpt lat="43.22871" lon="0.20188">
        <ele>330.6</ele>
        <time>2024-04-17T14:57:34Z</time>
      </trkpt>
      <trkpt lat="43.22871" lon="0.20188">
        <ele>330.6</ele>
        <time>2024-04-17T14:57:35Z</time>
      </trkpt>
      <trkpt lat="43.22871" lon="0.20188">
        <ele>330.6</ele>
        <time>2024-04-17T14:57:36Z</time>
      </trkpt>
      <trkpt lat="43.22871" lon="0.20188">
        <ele>330.6</ele>
        <time>2024-04-17T14:57:37Z</time>
      </trkpt>
      <trkpt lat="43.22871" lon="0.20188">
        <ele>330.6</ele>
        <time>2024-04-17T14:57:38Z</time>
      </trkpt>
      <trkpt lat="43.22871" lon="0.20188">
        <ele>330.6</ele>
        <time>2024-04-17T14:57:39Z</time>
      </trkpt>
      <trkpt lat="43.22871" lon="0.20188">
        <ele>330.6</ele>
        <time>2024-04-17T14:57:40Z</time>
      </trkpt>
      <trkpt lat="43.22871" lon="0.20188">
        <ele>330.6</ele>
        <time>2024-04-17T14:57:41Z</time>
      </trkpt>
      <trkpt lat="43.22871" lon="0.20188">
        <ele>330.6</ele>
        <time>2024-04-17T14:57:42Z</time>
      </trkpt>
      <trkpt lat="43.22871" lon="0.20188">
        <ele>330.6</ele>
        <time>2024-04-17T14:57:43Z</time>
      </trkpt>
      <trkpt lat="43.22871" lon="0.20188">
        <ele>330.6</ele>
        <time>2024-04-17T14:57:44Z</time>
      </trkpt>
      <trkpt lat="43.22871" lon="0.20188">
        <ele>330.8</ele>
        <time>2024-04-17T14:57:45Z</time>
      </trkpt>
      <trkpt lat="43.22871" lon="0.20188">
        <ele>330.8</ele>
        <time>2024-04-17T14:57:46Z</time>
      </trkpt>
      <trkpt lat="43.22871" lon="0.20188">
        <ele>330.8</ele>
        <time>2024-04-17T14:57:47Z</time>
      </trkpt>
      <trkpt lat="43.22871" lon="0.20188">
        <ele>330.8</ele>
        <time>2024-04-17T14:57:48Z</time>
      </trkpt>
      <trkpt lat="43.22871" lon="0.20188">
        <ele>330.8</ele>
        <time>2024-04-17T14:57:49Z</time>
      </trkpt>
      <trkpt lat="43.22871" lon="0.20188">
        <ele>330.8</ele>
        <time>2024-04-17T14:57:50Z</time>
      </trkpt>
      <trkpt lat="43.22871" lon="0.20188">
        <ele>330.8</ele>
        <time>2024-04-17T14:57:51Z</time>
      </trkpt>
      <trkpt lat="43.22871" lon="0.20188">
        <ele>330.8</ele>
        <time>2024-04-17T14:57:52Z</time>
      </trkpt>
      <trkpt lat="43.22871" lon="0.20188">
        <ele>330.8</ele>
        <time>2024-04-17T14:57:53Z</time>
      </trkpt>
      <trkpt lat="43.22871" lon="0.20188">
        <ele>330.8</ele>
        <time>2024-04-17T14:57:54Z</time>
      </trkpt>
      <trkpt lat="43.22871" lon="0.20188">
        <ele>330.8</ele>
        <time>2024-04-17T14:57:55Z</time>
      </trkpt>
      <trkpt lat="43.22871" lon="0.20188">
        <ele>330.8</ele>
        <time>2024-04-17T14:57:56Z</time>
      </trkpt>
      <trkpt lat="43.22871" lon="0.20188">
        <ele>330.8</ele>
        <time>2024-04-17T14:57:57Z</time>
      </trkpt>
      <trkpt lat="43.22871" lon="0.20188">
        <ele>330.8</ele>
        <time>2024-04-17T14:57:58Z</time>
      </trkpt>
      <trkpt lat="43.22871" lon="0.20188">
        <ele>330.8</ele>
        <time>2024-04-17T14:57:59Z</time>
      </trkpt>
      <trkpt lat="43.22871" lon="0.20188">
        <ele>330.8</ele>
        <time>2024-04-17T14:58:00Z</time>
      </trkpt>
      <trkpt lat="43.22871" lon="0.20188">
        <ele>330.8</ele>
        <time>2024-04-17T14:58:01Z</time>
      </trkpt>
      <trkpt lat="43.22871" lon="0.20188">
        <ele>330.8</ele>
        <time>2024-04-17T14:58:02Z</time>
      </trkpt>
      <trkpt lat="43.22871" lon="0.20188">
        <ele>330.8</ele>
        <time>2024-04-17T14:58:03Z</time>
      </trkpt>
      <trkpt lat="43.22871" lon="0.20188">
        <ele>330.8</ele>
        <time>2024-04-17T14:58:04Z</time>
      </trkpt>
      <trkpt lat="43.22871" lon="0.20188">
        <ele>330.8</ele>
        <time>2024-04-17T14:58:05Z</time>
      </trkpt>
      <trkpt lat="43.22871" lon="0.20188">
        <ele>330.8</ele>
        <time>2024-04-17T14:58:06Z</time>
      </trkpt>
      <trkpt lat="43.22871" lon="0.20188">
        <ele>330.8</ele>
        <time>2024-04-17T14:58:07Z</time>
      </trkpt>
      <trkpt lat="43.22871" lon="0.20188">
        <ele>330.8</ele>
        <time>2024-04-17T14:58:08Z</time>
      </trkpt>
      <trkpt lat="43.22871" lon="0.20188">
        <ele>330.8</ele>
        <time>2024-04-17T14:58:09Z</time>
      </trkpt>
      <trkpt lat="43.22871" lon="0.20188">
        <ele>330.8</ele>
        <time>2024-04-17T14:58:10Z</time>
      </trkpt>
      <trkpt lat="43.22871" lon="0.20188">
        <ele>330.8</ele>
        <time>2024-04-17T14:58:11Z</time>
      </trkpt>
      <trkpt lat="43.22871" lon="0.20188">
        <ele>330.8</ele>
        <time>2024-04-17T14:58:12Z</time>
      </trkpt>
      <trkpt lat="43.22871" lon="0.20188">
        <ele>330.8</ele>
        <time>2024-04-17T14:58:13Z</time>
      </trkpt>
      <trkpt lat="43.22871" lon="0.20188">
        <ele>330.8</ele>
        <time>2024-04-17T14:58:14Z</time>
      </trkpt>
      <trkpt lat="43.22871" lon="0.20188">
        <ele>330.8</ele>
        <time>2024-04-17T14:58:15Z</time>
      </trkpt>
      <trkpt lat="43.22871" lon="0.20188">
        <ele>330.6</ele>
        <time>2024-04-17T14:58:16Z</time>
      </trkpt>
      <trkpt lat="43.22871" lon="0.20188">
        <ele>330.6</ele>
        <time>2024-04-17T14:58:17Z</time>
      </trkpt>
      <trkpt lat="43.22871" lon="0.20188">
        <ele>330.6</ele>
        <time>2024-04-17T14:58:18Z</time>
      </trkpt>
      <trkpt lat="43.22871" lon="0.20188">
        <ele>330.6</ele>
        <time>2024-04-17T14:58:19Z</time>
      </trkpt>
      <trkpt lat="43.22871" lon="0.20188">
        <ele>330.6</ele>
        <time>2024-04-17T14:58:20Z</time>
      </trkpt>
      <trkpt lat="43.22871" lon="0.20188">
        <ele>330.6</ele>
        <time>2024-04-17T14:58:21Z</time>
      </trkpt>
      <trkpt lat="43.22871" lon="0.20188">
        <ele>330.6</ele>
        <time>2024-04-17T14:58:22Z</time>
      </trkpt>
      <trkpt lat="43.22871" lon="0.20188">
        <ele>330.6</ele>
        <time>2024-04-17T14:58:23Z</time>
      </trkpt>
      <trkpt lat="43.22871" lon="0.20188">
        <ele>330.6</ele>
        <time>2024-04-17T14:58:24Z</time>
      </trkpt>
      <trkpt lat="43.22871" lon="0.20188">
        <ele>330.6</ele>
        <time>2024-04-17T14:58:25Z</time>
      </trkpt>
      <trkpt lat="43.22871" lon="0.20188">
        <ele>330.6</ele>
        <time>2024-04-17T14:58:26Z</time>
      </trkpt>
      <trkpt lat="43.22871" lon="0.20188">
        <ele>330.6</ele>
        <time>2024-04-17T14:58:27Z</time>
      </trkpt>
      <trkpt lat="43.22871" lon="0.20188">
        <ele>330.6</ele>
        <time>2024-04-17T14:58:28Z</time>
      </trkpt>
      <trkpt lat="43.22871" lon="0.20188">
        <ele>330.6</ele>
        <time>2024-04-17T14:58:29Z</time>
      </trkpt>
      <trkpt lat="43.22871" lon="0.20188">
        <ele>330.6</ele>
        <time>2024-04-17T14:58:30Z</time>
      </trkpt>
      <trkpt lat="43.22871" lon="0.20188">
        <ele>330.6</ele>
        <time>2024-04-17T14:58:31Z</time>
      </trkpt>
      <trkpt lat="43.22871" lon="0.20188">
        <ele>330.6</ele>
        <time>2024-04-17T14:58:32Z</time>
      </trkpt>
      <trkpt lat="43.22871" lon="0.20188">
        <ele>330.8</ele>
        <time>2024-04-17T14:58:33Z</time>
      </trkpt>
      <trkpt lat="43.22871" lon="0.20188">
        <ele>330.8</ele>
        <time>2024-04-17T14:58:34Z</time>
      </trkpt>
      <trkpt lat="43.22871" lon="0.20188">
        <ele>330.8</ele>
        <time>2024-04-17T14:58:35Z</time>
      </trkpt>
      <trkpt lat="43.22871" lon="0.20188">
        <ele>330.8</ele>
        <time>2024-04-17T14:58:36Z</time>
      </trkpt>
      <trkpt lat="43.22871" lon="0.20188">
        <ele>331</ele>
        <time>2024-04-17T14:58:37Z</time>
      </trkpt>
      <trkpt lat="43.22871" lon="0.20188">
        <ele>331</ele>
        <time>2024-04-17T14:58:38Z</time>
      </trkpt>
      <trkpt lat="43.22871" lon="0.20188">
        <ele>331</ele>
        <time>2024-04-17T14:58:39Z</time>
      </trkpt>
      <trkpt lat="43.22871" lon="0.20188">
        <ele>331</ele>
        <time>2024-04-17T14:58:40Z</time>
      </trkpt>
      <trkpt lat="43.2287" lon="0.20188">
        <ele>331.2</ele>
        <time>2024-04-17T14:58:41Z</time>
      </trkpt>
      <trkpt lat="43.2287" lon="0.20188">
        <ele>331.2</ele>
        <time>2024-04-17T14:58:42Z</time>
      </trkpt>
      <trkpt lat="43.2287" lon="0.20188">
        <ele>331.2</ele>
        <time>2024-04-17T14:58:43Z</time>
      </trkpt>
      <trkpt lat="43.2287" lon="0.20188">
        <ele>330.8</ele>
        <time>2024-04-17T14:58:44Z</time>
      </trkpt>
      <trkpt lat="43.2287" lon="0.20188">
        <ele>330.8</ele>
        <time>2024-04-17T14:58:45Z</time>
      </trkpt>
      <trkpt lat="43.2287" lon="0.20188">
        <ele>331</ele>
        <time>2024-04-17T14:58:46Z</time>
      </trkpt>
      <trkpt lat="43.2287" lon="0.20188">
        <ele>331</ele>
        <time>2024-04-17T14:58:47Z</time>
      </trkpt>
      <trkpt lat="43.2287" lon="0.20188">
        <ele>331.2</ele>
        <time>2024-04-17T14:58:48Z</time>
      </trkpt>
      <trkpt lat="43.2287" lon="0.20188">
        <ele>331.2</ele>
        <time>2024-04-17T14:58:49Z</time>
      </trkpt>
      <trkpt lat="43.2287" lon="0.20188">
        <ele>331.2</ele>
        <time>2024-04-17T14:58:50Z</time>
      </trkpt>
      <trkpt lat="43.2287" lon="0.20188">
        <ele>331.2</ele>
        <time>2024-04-17T14:58:51Z</time>
      </trkpt>
      <trkpt lat="43.2287" lon="0.20188">
        <ele>331.2</ele>
        <time>2024-04-17T14:58:52Z</time>
      </trkpt>
      <trkpt lat="43.2287" lon="0.20188">
        <ele>331</ele>
        <time>2024-04-17T14:58:53Z</time>
      </trkpt>
      <trkpt lat="43.2287" lon="0.20188">
        <ele>331</ele>
        <time>2024-04-17T14:58:54Z</time>
      </trkpt>
      <trkpt lat="43.2287" lon="0.20188">
        <ele>331</ele>
        <time>2024-04-17T14:58:55Z</time>
      </trkpt>
      <trkpt lat="43.2287" lon="0.20188">
        <ele>330.8</ele>
        <time>2024-04-17T14:58:56Z</time>
      </trkpt>
      <trkpt lat="43.2287" lon="0.20187">
        <ele>330.8</ele>
        <time>2024-04-17T14:58:57Z</time>
      </trkpt>
      <trkpt lat="43.2287" lon="0.20187">
        <ele>330.8</ele>
        <time>2024-04-17T14:58:58Z</time>
      </trkpt>
      <trkpt lat="43.2287" lon="0.20187">
        <ele>330.8</ele>
        <time>2024-04-17T14:58:59Z</time>
      </trkpt>
      <trkpt lat="43.2287" lon="0.20187">
        <ele>330.8</ele>
        <time>2024-04-17T14:59:00Z</time>
      </trkpt>
      <trkpt lat="43.2287" lon="0.20187">
        <ele>330.8</ele>
        <time>2024-04-17T14:59:01Z</time>
      </trkpt>
      <trkpt lat="43.2287" lon="0.20187">
        <ele>330.8</ele>
        <time>2024-04-17T14:59:02Z</time>
      </trkpt>
      <trkpt lat="43.2287" lon="0.20187">
        <ele>330.8</ele>
        <time>2024-04-17T14:59:03Z</time>
      </trkpt>
      <trkpt lat="43.2287" lon="0.20187">
        <ele>330.6</ele>
        <time>2024-04-17T14:59:04Z</time>
      </trkpt>
      <trkpt lat="43.2287" lon="0.20187">
        <ele>330.8</ele>
        <time>2024-04-17T14:59:05Z</time>
      </trkpt>
      <trkpt lat="43.2287" lon="0.20187">
        <ele>330.8</ele>
        <time>2024-04-17T14:59:06Z</time>
      </trkpt>
      <trkpt lat="43.2287" lon="0.20187">
        <ele>330.8</ele>
        <time>2024-04-17T14:59:07Z</time>
      </trkpt>
      <trkpt lat="43.2287" lon="0.20187">
        <ele>330.8</ele>
        <time>2024-04-17T14:59:08Z</time>
      </trkpt>
      <trkpt lat="43.2287" lon="0.20187">
        <ele>330.8</ele>
        <time>2024-04-17T14:59:09Z</time>
      </trkpt>
      <trkpt lat="43.2287" lon="0.20187">
        <ele>330.8</ele>
        <time>2024-04-17T14:59:10Z</time>
      </trkpt>
      <trkpt lat="43.2287" lon="0.20187">
        <ele>330.8</ele>
        <time>2024-04-17T14:59:11Z</time>
      </trkpt>
      <trkpt lat="43.2287" lon="0.20187">
        <ele>330.8</ele>
        <time>2024-04-17T14:59:12Z</time>
      </trkpt>
      <trkpt lat="43.2287" lon="0.20187">
        <ele>330.8</ele>
        <time>2024-04-17T14:59:13Z</time>
      </trkpt>
      <trkpt lat="43.2287" lon="0.20187">
        <ele>330.8</ele>
        <time>2024-04-17T14:59:14Z</time>
      </trkpt>
      <trkpt lat="43.2287" lon="0.20187">
        <ele>330.8</ele>
        <time>2024-04-17T14:59:15Z</time>
      </trkpt>
      <trkpt lat="43.2287" lon="0.20187">
        <ele>330.8</ele>
        <time>2024-04-17T14:59:16Z</time>
      </trkpt>
      <trkpt lat="43.2287" lon="0.20187">
        <ele>330.8</ele>
        <time>2024-04-17T14:59:17Z</time>
      </trkpt>
      <trkpt lat="43.2287" lon="0.20187">
        <ele>330.6</ele>
        <time>2024-04-17T14:59:18Z</time>
      </trkpt>
      <trkpt lat="43.2287" lon="0.20187">
        <ele>330.6</ele>
        <time>2024-04-17T14:59:19Z</time>
      </trkpt>
      <trkpt lat="43.2287" lon="0.20187">
        <ele>330.6</ele>
        <time>2024-04-17T14:59:20Z</time>
      </trkpt>
      <trkpt lat="43.2287" lon="0.20187">
        <ele>330.6</ele>
        <time>2024-04-17T14:59:21Z</time>
      </trkpt>
      <trkpt lat="43.2287" lon="0.20187">
        <ele>330.6</ele>
        <time>2024-04-17T14:59:22Z</time>
      </trkpt>
      <trkpt lat="43.2287" lon="0.20187">
        <ele>330.6</ele>
        <time>2024-04-17T14:59:23Z</time>
      </trkpt>
      <trkpt lat="43.2287" lon="0.20187">
        <ele>330.6</ele>
        <time>2024-04-17T14:59:24Z</time>
      </trkpt>
      <trkpt lat="43.2287" lon="0.20187">
        <ele>330.6</ele>
        <time>2024-04-17T14:59:25Z</time>
      </trkpt>
      <trkpt lat="43.2287" lon="0.20187">
        <ele>330.8</ele>
        <time>2024-04-17T14:59:26Z</time>
      </trkpt>
      <trkpt lat="43.2287" lon="0.20187">
        <ele>330.8</ele>
        <time>2024-04-17T14:59:27Z</time>
      </trkpt>
      <trkpt lat="43.2287" lon="0.20187">
        <ele>330.8</ele>
        <time>2024-04-17T14:59:28Z</time>
      </trkpt>
      <trkpt lat="43.2287" lon="0.20187">
        <ele>331</ele>
        <time>2024-04-17T14:59:29Z</time>
      </trkpt>
      <trkpt lat="43.2287" lon="0.20187">
        <ele>331</ele>
        <time>2024-04-17T14:59:30Z</time>
      </trkpt>
      <trkpt lat="43.2287" lon="0.20187">
        <ele>331</ele>
        <time>2024-04-17T14:59:31Z</time>
      </trkpt>
      <trkpt lat="43.2287" lon="0.20187">
        <ele>331</ele>
        <time>2024-04-17T14:59:32Z</time>
      </trkpt>
      <trkpt lat="43.2287" lon="0.20187">
        <ele>331</ele>
        <time>2024-04-17T14:59:33Z</time>
      </trkpt>
      <trkpt lat="43.2287" lon="0.20187">
        <ele>331</ele>
        <time>2024-04-17T14:59:34Z</time>
      </trkpt>
      <trkpt lat="43.2287" lon="0.20187">
        <ele>331</ele>
        <time>2024-04-17T14:59:35Z</time>
      </trkpt>
      <trkpt lat="43.2287" lon="0.20187">
        <ele>331</ele>
        <time>2024-04-17T14:59:36Z</time>
      </trkpt>
      <trkpt lat="43.2287" lon="0.20187">
        <ele>331</ele>
        <time>2024-04-17T14:59:37Z</time>
      </trkpt>
      <trkpt lat="43.2287" lon="0.20187">
        <ele>331</ele>
        <time>2024-04-17T14:59:38Z</time>
      </trkpt>
      <trkpt lat="43.2287" lon="0.20187">
        <ele>331</ele>
        <time>2024-04-17T14:59:39Z</time>
      </trkpt>
      <trkpt lat="43.2287" lon="0.20187">
        <ele>331</ele>
        <time>2024-04-17T14:59:40Z</time>
      </trkpt>
      <trkpt lat="43.2287" lon="0.20187">
        <ele>331</ele>
        <time>2024-04-17T14:59:41Z</time>
      </trkpt>
      <trkpt lat="43.2287" lon="0.20187">
        <ele>331</ele>
        <time>2024-04-17T14:59:42Z</time>
      </trkpt>
      <trkpt lat="43.2287" lon="0.20187">
        <ele>331</ele>
        <time>2024-04-17T14:59:43Z</time>
      </trkpt>
      <trkpt lat="43.2287" lon="0.20187">
        <ele>331</ele>
        <time>2024-04-17T14:59:44Z</time>
      </trkpt>
      <trkpt lat="43.2287" lon="0.20187">
        <ele>331</ele>
        <time>2024-04-17T14:59:45Z</time>
      </trkpt>
      <trkpt lat="43.2287" lon="0.20187">
        <ele>331</ele>
        <time>2024-04-17T14:59:46Z</time>
      </trkpt>
      <trkpt lat="43.2287" lon="0.20187">
        <ele>331</ele>
        <time>2024-04-17T14:59:47Z</time>
      </trkpt>
      <trkpt lat="43.2287" lon="0.20187">
        <ele>331</ele>
        <time>2024-04-17T14:59:48Z</time>
      </trkpt>
      <trkpt lat="43.2287" lon="0.20187">
        <ele>331</ele>
        <time>2024-04-17T14:59:49Z</time>
      </trkpt>
      <trkpt lat="43.2287" lon="0.20187">
        <ele>331</ele>
        <time>2024-04-17T14:59:50Z</time>
      </trkpt>
      <trkpt lat="43.2287" lon="0.20187">
        <ele>331</ele>
        <time>2024-04-17T14:59:51Z</time>
      </trkpt>
      <trkpt lat="43.2287" lon="0.20187">
        <ele>331</ele>
        <time>2024-04-17T14:59:52Z</time>
      </trkpt>
      <trkpt lat="43.2287" lon="0.20187">
        <ele>331</ele>
        <time>2024-04-17T14:59:53Z</time>
      </trkpt>
      <trkpt lat="43.2287" lon="0.20187">
        <ele>331</ele>
        <time>2024-04-17T14:59:54Z</time>
      </trkpt>
      <trkpt lat="43.2287" lon="0.20187">
        <ele>331</ele>
        <time>2024-04-17T14:59:55Z</time>
      </trkpt>
      <trkpt lat="43.2287" lon="0.20187">
        <ele>331</ele>
        <time>2024-04-17T14:59:56Z</time>
      </trkpt>
      <trkpt lat="43.2287" lon="0.20187">
        <ele>331</ele>
        <time>2024-04-17T14:59:57Z</time>
      </trkpt>
      <trkpt lat="43.2287" lon="0.20187">
        <ele>331</ele>
        <time>2024-04-17T14:59:58Z</time>
      </trkpt>
      <trkpt lat="43.2287" lon="0.20187">
        <ele>331</ele>
        <time>2024-04-17T14:59:59Z</time>
      </trkpt>
      <trkpt lat="43.2287" lon="0.20187">
        <ele>331</ele>
        <time>2024-04-17T15:00:00Z</time>
      </trkpt>
      <trkpt lat="43.2287" lon="0.20187">
        <ele>331</ele>
        <time>2024-04-17T15:00:01Z</time>
      </trkpt>
      <trkpt lat="43.2287" lon="0.20187">
        <ele>331</ele>
        <time>2024-04-17T15:00:02Z</time>
      </trkpt>
      <trkpt lat="43.2287" lon="0.20187">
        <ele>331</ele>
        <time>2024-04-17T15:00:03Z</time>
      </trkpt>
      <trkpt lat="43.2287" lon="0.20187">
        <ele>331</ele>
        <time>2024-04-17T15:00:04Z</time>
      </trkpt>
      <trkpt lat="43.2287" lon="0.20187">
        <ele>331</ele>
        <time>2024-04-17T15:00:05Z</time>
      </trkpt>
      <trkpt lat="43.2287" lon="0.20187">
        <ele>331</ele>
        <time>2024-04-17T15:00:06Z</time>
      </trkpt>
      <trkpt lat="43.2287" lon="0.20187">
        <ele>331</ele>
        <time>2024-04-17T15:00:07Z</time>
      </trkpt>
      <trkpt lat="43.2287" lon="0.20187">
        <ele>331</ele>
        <time>2024-04-17T15:00:08Z</time>
      </trkpt>
      <trkpt lat="43.2287" lon="0.20187">
        <ele>331</ele>
        <time>2024-04-17T15:00:09Z</time>
      </trkpt>
      <trkpt lat="43.2287" lon="0.20187">
        <ele>331</ele>
        <time>2024-04-17T15:00:10Z</time>
      </trkpt>
      <trkpt lat="43.2287" lon="0.20187">
        <ele>331</ele>
        <time>2024-04-17T15:00:11Z</time>
      </trkpt>
      <trkpt lat="43.2287" lon="0.20187">
        <ele>331</ele>
        <time>2024-04-17T15:00:12Z</time>
      </trkpt>
      <trkpt lat="43.2287" lon="0.20187">
        <ele>331</ele>
        <time>2024-04-17T15:00:13Z</time>
      </trkpt>
      <trkpt lat="43.22869" lon="0.20187">
        <ele>331</ele>
        <time>2024-04-17T15:00:14Z</time>
      </trkpt>
      <trkpt lat="43.22869" lon="0.20187">
        <ele>331</ele>
        <time>2024-04-17T15:00:15Z</time>
      </trkpt>
      <trkpt lat="43.22869" lon="0.20187">
        <ele>331</ele>
        <time>2024-04-17T15:00:16Z</time>
      </trkpt>
      <trkpt lat="43.22868" lon="0.20187">
        <ele>331</ele>
        <time>2024-04-17T15:00:17Z</time>
      </trkpt>
      <trkpt lat="43.22868" lon="0.20187">
        <ele>331</ele>
        <time>2024-04-17T15:00:18Z</time>
      </trkpt>
      <trkpt lat="43.22868" lon="0.20187">
        <ele>331</ele>
        <time>2024-04-17T15:00:19Z</time>
      </trkpt>
      <trkpt lat="43.22868" lon="0.20187">
        <ele>331.2</ele>
        <time>2024-04-17T15:00:20Z</time>
      </trkpt>
      <trkpt lat="43.22868" lon="0.20187">
        <ele>331.2</ele>
        <time>2024-04-17T15:00:21Z</time>
      </trkpt>
      <trkpt lat="43.22868" lon="0.20187">
        <ele>331.2</ele>
        <time>2024-04-17T15:00:22Z</time>
      </trkpt>
      <trkpt lat="43.22868" lon="0.20187">
        <ele>331</ele>
        <time>2024-04-17T15:00:23Z</time>
      </trkpt>
      <trkpt lat="43.22868" lon="0.20187">
        <ele>331</ele>
        <time>2024-04-17T15:00:24Z</time>
      </trkpt>
      <trkpt lat="43.22866" lon="0.20187">
        <ele>331</ele>
        <time>2024-04-17T15:00:25Z</time>
      </trkpt>
      <trkpt lat="43.22866" lon="0.20187">
        <ele>331</ele>
        <time>2024-04-17T15:00:26Z</time>
      </trkpt>
      <trkpt lat="43.22866" lon="0.20187">
        <ele>331</ele>
        <time>2024-04-17T15:00:27Z</time>
      </trkpt>
      <trkpt lat="43.22866" lon="0.20187">
        <ele>331</ele>
        <time>2024-04-17T15:00:28Z</time>
      </trkpt>
      <trkpt lat="43.22866" lon="0.20187">
        <ele>331</ele>
        <time>2024-04-17T15:00:29Z</time>
      </trkpt>
      <trkpt lat="43.22866" lon="0.20187">
        <ele>331</ele>
        <time>2024-04-17T15:00:30Z</time>
      </trkpt>
      <trkpt lat="43.22866" lon="0.20187">
        <ele>331</ele>
        <time>2024-04-17T15:00:31Z</time>
      </trkpt>
      <trkpt lat="43.22866" lon="0.20187">
        <ele>331</ele>
        <time>2024-04-17T15:00:32Z</time>
      </trkpt>
      <trkpt lat="43.22866" lon="0.20187">
        <ele>330.8</ele>
        <time>2024-04-17T15:00:33Z</time>
      </trkpt>
      <trkpt lat="43.22866" lon="0.20187">
        <ele>330.8</ele>
        <time>2024-04-17T15:00:34Z</time>
      </trkpt>
      <trkpt lat="43.22863" lon="0.20186">
        <ele>330.8</ele>
        <time>2024-04-17T15:00:35Z</time>
      </trkpt>
      <trkpt lat="43.2286" lon="0.20184">
        <ele>330.8</ele>
        <time>2024-04-17T15:00:36Z</time>
      </trkpt>
      <trkpt lat="43.22856" lon="0.20183">
        <ele>330.6</ele>
        <time>2024-04-17T15:00:37Z</time>
      </trkpt>
      <trkpt lat="43.22852" lon="0.20181">
        <ele>330.4</ele>
        <time>2024-04-17T15:00:38Z</time>
      </trkpt>
      <trkpt lat="43.22849" lon="0.20179">
        <ele>330.4</ele>
        <time>2024-04-17T15:00:39Z</time>
      </trkpt>
      <trkpt lat="43.22846" lon="0.20177">
        <ele>330.2</ele>
        <time>2024-04-17T15:00:40Z</time>
      </trkpt>
      <trkpt lat="43.22843" lon="0.20176">
        <ele>330.2</ele>
        <time>2024-04-17T15:00:41Z</time>
      </trkpt>
      <trkpt lat="43.2284" lon="0.20174">
        <ele>330</ele>
        <time>2024-04-17T15:00:42Z</time>
      </trkpt>
      <trkpt lat="43.22835" lon="0.20173">
        <ele>330</ele>
        <time>2024-04-17T15:00:43Z</time>
      </trkpt>
      <trkpt lat="43.22833" lon="0.20172">
        <ele>330</ele>
        <time>2024-04-17T15:00:44Z</time>
      </trkpt>
      <trkpt lat="43.22831" lon="0.2017">
        <ele>329.8</ele>
        <time>2024-04-17T15:00:45Z</time>
      </trkpt>
      <trkpt lat="43.22829" lon="0.20169">
        <ele>329.8</ele>
        <time>2024-04-17T15:00:46Z</time>
      </trkpt>
      <trkpt lat="43.22826" lon="0.20168">
        <ele>329.8</ele>
        <time>2024-04-17T15:00:47Z</time>
      </trkpt>
      <trkpt lat="43.22825" lon="0.20167">
        <ele>329.6</ele>
        <time>2024-04-17T15:00:48Z</time>
      </trkpt>
      <trkpt lat="43.22823" lon="0.20166">
        <ele>329.6</ele>
        <time>2024-04-17T15:00:49Z</time>
      </trkpt>
      <trkpt lat="43.22822" lon="0.20164">
        <ele>329.6</ele>
        <time>2024-04-17T15:00:50Z</time>
      </trkpt>
      <trkpt lat="43.22819" lon="0.20162">
        <ele>330</ele>
        <time>2024-04-17T15:00:51Z</time>
      </trkpt>
      <trkpt lat="43.22817" lon="0.2016">
        <ele>330</ele>
        <time>2024-04-17T15:00:52Z</time>
      </trkpt>
      <trkpt lat="43.22813" lon="0.20159">
        <ele>330</ele>
        <time>2024-04-17T15:00:53Z</time>
      </trkpt>
      <trkpt lat="43.22811" lon="0.20158">
        <ele>330</ele>
        <time>2024-04-17T15:00:54Z</time>
      </trkpt>
      <trkpt lat="43.2281" lon="0.20156">
        <ele>330.2</ele>
        <time>2024-04-17T15:00:55Z</time>
      </trkpt>
      <trkpt lat="43.22807" lon="0.20155">
        <ele>330.2</ele>
        <time>2024-04-17T15:00:56Z</time>
      </trkpt>
      <trkpt lat="43.22804" lon="0.20153">
        <ele>330.2</ele>
        <time>2024-04-17T15:00:57Z</time>
      </trkpt>
      <trkpt lat="43.228" lon="0.20152">
        <ele>330.2</ele>
        <time>2024-04-17T15:00:58Z</time>
      </trkpt>
      <trkpt lat="43.22797" lon="0.20152">
        <ele>330.4</ele>
        <time>2024-04-17T15:00:59Z</time>
      </trkpt>
      <trkpt lat="43.22793" lon="0.20152">
        <ele>330.4</ele>
        <time>2024-04-17T15:01:00Z</time>
      </trkpt>
      <trkpt lat="43.22791" lon="0.2015">
        <ele>330.6</ele>
        <time>2024-04-17T15:01:01Z</time>
      </trkpt>
      <trkpt lat="43.22788" lon="0.20148">
        <ele>330.6</ele>
        <time>2024-04-17T15:01:02Z</time>
      </trkpt>
      <trkpt lat="43.22786" lon="0.20146">
        <ele>330.6</ele>
        <time>2024-04-17T15:01:03Z</time>
      </trkpt>
      <trkpt lat="43.22785" lon="0.20145">
        <ele>330.6</ele>
        <time>2024-04-17T15:01:04Z</time>
      </trkpt>
      <trkpt lat="43.22782" lon="0.20143">
        <ele>330.6</ele>
        <time>2024-04-17T15:01:05Z</time>
      </trkpt>
      <trkpt lat="43.22779" lon="0.20141">
        <ele>330.6</ele>
        <time>2024-04-17T15:01:06Z</time>
      </trkpt>
      <trkpt lat="43.22777" lon="0.2014">
        <ele>330.8</ele>
        <time>2024-04-17T15:01:07Z</time>
      </trkpt>
      <trkpt lat="43.22776" lon="0.2014">
        <ele>331</ele>
        <time>2024-04-17T15:01:08Z</time>
      </trkpt>
      <trkpt lat="43.22776" lon="0.2014">
        <ele>331</ele>
        <time>2024-04-17T15:01:09Z</time>
      </trkpt>
      <trkpt lat="43.22776" lon="0.2014">
        <ele>331.2</ele>
        <time>2024-04-17T15:01:10Z</time>
      </trkpt>
      <trkpt lat="43.22775" lon="0.20139">
        <ele>331.2</ele>
        <time>2024-04-17T15:01:11Z</time>
      </trkpt>
      <trkpt lat="43.22774" lon="0.20139">
        <ele>331.6</ele>
        <time>2024-04-17T15:01:12Z</time>
      </trkpt>
      <trkpt lat="43.22773" lon="0.20138">
        <ele>331.6</ele>
        <time>2024-04-17T15:01:13Z</time>
      </trkpt>
      <trkpt lat="43.22772" lon="0.20136">
        <ele>331.8</ele>
        <time>2024-04-17T15:01:14Z</time>
      </trkpt>
      <trkpt lat="43.22771" lon="0.20133">
        <ele>332</ele>
        <time>2024-04-17T15:01:15Z</time>
      </trkpt>
      <trkpt lat="43.22769" lon="0.20132">
        <ele>332</ele>
        <time>2024-04-17T15:01:16Z</time>
      </trkpt>
      <trkpt lat="43.22768" lon="0.20131">
        <ele>332.2</ele>
        <time>2024-04-17T15:01:17Z</time>
      </trkpt>
      <trkpt lat="43.22768" lon="0.20131">
        <ele>332.2</ele>
        <time>2024-04-17T15:01:18Z</time>
      </trkpt>
      <trkpt lat="43.22768" lon="0.20131">
        <ele>332.4</ele>
        <time>2024-04-17T15:01:19Z</time>
      </trkpt>
      <trkpt lat="43.22766" lon="0.2013">
        <ele>332.4</ele>
        <time>2024-04-17T15:01:20Z</time>
      </trkpt>
      <trkpt lat="43.22764" lon="0.2013">
        <ele>332.8</ele>
        <time>2024-04-17T15:01:21Z</time>
      </trkpt>
      <trkpt lat="43.22763" lon="0.20129">
        <ele>332.8</ele>
        <time>2024-04-17T15:01:22Z</time>
      </trkpt>
      <trkpt lat="43.22762" lon="0.20129">
        <ele>333.2</ele>
        <time>2024-04-17T15:01:23Z</time>
      </trkpt>
      <trkpt lat="43.22761" lon="0.20127">
        <ele>333.4</ele>
        <time>2024-04-17T15:01:24Z</time>
      </trkpt>
      <trkpt lat="43.2276" lon="0.20126">
        <ele>333.4</ele>
        <time>2024-04-17T15:01:25Z</time>
      </trkpt>
      <trkpt lat="43.22759" lon="0.20125">
        <ele>333.6</ele>
        <time>2024-04-17T15:01:26Z</time>
      </trkpt>
      <trkpt lat="43.22759" lon="0.20124">
        <ele>333.8</ele>
        <time>2024-04-17T15:01:27Z</time>
      </trkpt>
      <trkpt lat="43.22759" lon="0.20124">
        <ele>334</ele>
        <time>2024-04-17T15:01:28Z</time>
      </trkpt>
      <trkpt lat="43.22759" lon="0.20124">
        <ele>334</ele>
        <time>2024-04-17T15:01:29Z</time>
      </trkpt>
      <trkpt lat="43.22759" lon="0.20123">
        <ele>334.2</ele>
        <time>2024-04-17T15:01:30Z</time>
      </trkpt>
      <trkpt lat="43.22758" lon="0.20123">
        <ele>334.2</ele>
        <time>2024-04-17T15:01:31Z</time>
      </trkpt>
      <trkpt lat="43.22758" lon="0.20122">
        <ele>334.4</ele>
        <time>2024-04-17T15:01:32Z</time>
      </trkpt>
      <trkpt lat="43.22757" lon="0.20121">
        <ele>334.6</ele>
        <time>2024-04-17T15:01:33Z</time>
      </trkpt>
      <trkpt lat="43.22756" lon="0.20119">
        <ele>334.8</ele>
        <time>2024-04-17T15:01:34Z</time>
      </trkpt>
      <trkpt lat="43.22755" lon="0.20118">
        <ele>334.8</ele>
        <time>2024-04-17T15:01:35Z</time>
      </trkpt>
      <trkpt lat="43.22755" lon="0.20117">
        <ele>335</ele>
        <time>2024-04-17T15:01:36Z</time>
      </trkpt>
      <trkpt lat="43.22755" lon="0.20116">
        <ele>335</ele>
        <time>2024-04-17T15:01:37Z</time>
      </trkpt>
      <trkpt lat="43.22755" lon="0.20114">
        <ele>335.2</ele>
        <time>2024-04-17T15:01:38Z</time>
      </trkpt>
      <trkpt lat="43.22754" lon="0.20113">
        <ele>335.4</ele>
        <time>2024-04-17T15:01:39Z</time>
      </trkpt>
      <trkpt lat="43.22754" lon="0.20112">
        <ele>335.4</ele>
        <time>2024-04-17T15:01:40Z</time>
      </trkpt>
      <trkpt lat="43.22753" lon="0.20109">
        <ele>335.8</ele>
        <time>2024-04-17T15:01:41Z</time>
      </trkpt>
      <trkpt lat="43.22752" lon="0.20107">
        <ele>335.8</ele>
        <time>2024-04-17T15:01:42Z</time>
      </trkpt>
      <trkpt lat="43.22751" lon="0.20106">
        <ele>336</ele>
        <time>2024-04-17T15:01:43Z</time>
      </trkpt>
      <trkpt lat="43.22749" lon="0.20105">
        <ele>336.2</ele>
        <time>2024-04-17T15:01:44Z</time>
      </trkpt>
      <trkpt lat="43.22749" lon="0.20105">
        <ele>336.2</ele>
        <time>2024-04-17T15:01:45Z</time>
      </trkpt>
      <trkpt lat="43.22748" lon="0.20104">
        <ele>336.4</ele>
        <time>2024-04-17T15:01:46Z</time>
      </trkpt>
      <trkpt lat="43.22746" lon="0.20104">
        <ele>336.6</ele>
        <time>2024-04-17T15:01:47Z</time>
      </trkpt>
      <trkpt lat="43.22745" lon="0.20103">
        <ele>336.8</ele>
        <time>2024-04-17T15:01:48Z</time>
      </trkpt>
      <trkpt lat="43.22745" lon="0.20103">
        <ele>337</ele>
        <time>2024-04-17T15:01:49Z</time>
      </trkpt>
      <trkpt lat="43.22744" lon="0.20101">
        <ele>337</ele>
        <time>2024-04-17T15:01:50Z</time>
      </trkpt>
      <trkpt lat="43.22744" lon="0.20099">
        <ele>337.2</ele>
        <time>2024-04-17T15:01:51Z</time>
      </trkpt>
      <trkpt lat="43.22741" lon="0.20098">
        <ele>337.2</ele>
        <time>2024-04-17T15:01:52Z</time>
      </trkpt>
      <trkpt lat="43.22739" lon="0.20096">
        <ele>337.6</ele>
        <time>2024-04-17T15:01:53Z</time>
      </trkpt>
      <trkpt lat="43.22737" lon="0.20095">
        <ele>337.8</ele>
        <time>2024-04-17T15:01:54Z</time>
      </trkpt>
      <trkpt lat="43.22734" lon="0.20093">
        <ele>337.8</ele>
        <time>2024-04-17T15:01:55Z</time>
      </trkpt>
      <trkpt lat="43.22733" lon="0.20091">
        <ele>338</ele>
        <time>2024-04-17T15:01:56Z</time>
      </trkpt>
      <trkpt lat="43.22732" lon="0.20089">
        <ele>338.4</ele>
        <time>2024-04-17T15:01:57Z</time>
      </trkpt>
      <trkpt lat="43.22729" lon="0.20087">
        <ele>338.6</ele>
        <time>2024-04-17T15:01:58Z</time>
      </trkpt>
      <trkpt lat="43.22725" lon="0.20087">
        <ele>338.6</ele>
        <time>2024-04-17T15:01:59Z</time>
      </trkpt>
      <trkpt lat="43.22724" lon="0.20087">
        <ele>338.6</ele>
        <time>2024-04-17T15:02:00Z</time>
      </trkpt>
      <trkpt lat="43.22723" lon="0.20087">
        <ele>338.8</ele>
        <time>2024-04-17T15:02:01Z</time>
      </trkpt>
      <trkpt lat="43.22721" lon="0.20088">
        <ele>338.8</ele>
        <time>2024-04-17T15:02:02Z</time>
      </trkpt>
      <trkpt lat="43.22716" lon="0.20089">
        <ele>339</ele>
        <time>2024-04-17T15:02:03Z</time>
      </trkpt>
      <trkpt lat="43.22714" lon="0.20089">
        <ele>339.4</ele>
        <time>2024-04-17T15:02:04Z</time>
      </trkpt>
      <trkpt lat="43.22711" lon="0.20087">
        <ele>339.4</ele>
        <time>2024-04-17T15:02:05Z</time>
      </trkpt>
      <trkpt lat="43.22709" lon="0.20084">
        <ele>339.4</ele>
        <time>2024-04-17T15:02:06Z</time>
      </trkpt>
      <trkpt lat="43.22707" lon="0.20083">
        <ele>339.6</ele>
        <time>2024-04-17T15:02:07Z</time>
      </trkpt>
      <trkpt lat="43.22706" lon="0.20082">
        <ele>339.6</ele>
        <time>2024-04-17T15:02:08Z</time>
      </trkpt>
      <trkpt lat="43.22704" lon="0.20082">
        <ele>339.6</ele>
        <time>2024-04-17T15:02:09Z</time>
      </trkpt>
      <trkpt lat="43.22702" lon="0.20082">
        <ele>339.6</ele>
        <time>2024-04-17T15:02:10Z</time>
      </trkpt>
      <trkpt lat="43.227" lon="0.20081">
        <ele>339.6</ele>
        <time>2024-04-17T15:02:11Z</time>
      </trkpt>
      <trkpt lat="43.22699" lon="0.20081">
        <ele>339.6</ele>
        <time>2024-04-17T15:02:12Z</time>
      </trkpt>
      <trkpt lat="43.22698" lon="0.20081">
        <ele>339.8</ele>
        <time>2024-04-17T15:02:13Z</time>
      </trkpt>
      <trkpt lat="43.22696" lon="0.2008">
        <ele>339.8</ele>
        <time>2024-04-17T15:02:14Z</time>
      </trkpt>
      <trkpt lat="43.22694" lon="0.2008">
        <ele>339.8</ele>
        <time>2024-04-17T15:02:15Z</time>
      </trkpt>
      <trkpt lat="43.22692" lon="0.2008">
        <ele>339.8</ele>
        <time>2024-04-17T15:02:16Z</time>
      </trkpt>
      <trkpt lat="43.22689" lon="0.20079">
        <ele>339.8</ele>
        <time>2024-04-17T15:02:17Z</time>
      </trkpt>
      <trkpt lat="43.22688" lon="0.20079">
        <ele>339.8</ele>
        <time>2024-04-17T15:02:18Z</time>
      </trkpt>
      <trkpt lat="43.22685" lon="0.20078">
        <ele>339.6</ele>
        <time>2024-04-17T15:02:19Z</time>
      </trkpt>
      <trkpt lat="43.22682" lon="0.20077">
        <ele>339.6</ele>
        <time>2024-04-17T15:02:20Z</time>
      </trkpt>
      <trkpt lat="43.22678" lon="0.20076">
        <ele>339.6</ele>
        <time>2024-04-17T15:02:21Z</time>
      </trkpt>
      <trkpt lat="43.22676" lon="0.20075">
        <ele>339.4</ele>
        <time>2024-04-17T15:02:22Z</time>
      </trkpt>
      <trkpt lat="43.22671" lon="0.20074">
        <ele>339.4</ele>
        <time>2024-04-17T15:02:23Z</time>
      </trkpt>
      <trkpt lat="43.22667" lon="0.20074">
        <ele>339.4</ele>
        <time>2024-04-17T15:02:24Z</time>
      </trkpt>
      <trkpt lat="43.22663" lon="0.20074">
        <ele>339.4</ele>
        <time>2024-04-17T15:02:25Z</time>
      </trkpt>
      <trkpt lat="43.2266" lon="0.20074">
        <ele>339.2</ele>
        <time>2024-04-17T15:02:26Z</time>
      </trkpt>
      <trkpt lat="43.22656" lon="0.20074">
        <ele>339.2</ele>
        <time>2024-04-17T15:02:27Z</time>
      </trkpt>
      <trkpt lat="43.22653" lon="0.20073">
        <ele>339.2</ele>
        <time>2024-04-17T15:02:28Z</time>
      </trkpt>
      <trkpt lat="43.22652" lon="0.20073">
        <ele>339.2</ele>
        <time>2024-04-17T15:02:29Z</time>
      </trkpt>
      <trkpt lat="43.2265" lon="0.20072">
        <ele>339.2</ele>
        <time>2024-04-17T15:02:30Z</time>
      </trkpt>
      <trkpt lat="43.22648" lon="0.20071">
        <ele>339.2</ele>
        <time>2024-04-17T15:02:31Z</time>
      </trkpt>
      <trkpt lat="43.22644" lon="0.2007">
        <ele>339.2</ele>
        <time>2024-04-17T15:02:32Z</time>
      </trkpt>
      <trkpt lat="43.22642" lon="0.20069">
        <ele>339.2</ele>
        <time>2024-04-17T15:02:33Z</time>
      </trkpt>
      <trkpt lat="43.2264" lon="0.20068">
        <ele>339.2</ele>
        <time>2024-04-17T15:02:34Z</time>
      </trkpt>
      <trkpt lat="43.22637" lon="0.20067">
        <ele>339.2</ele>
        <time>2024-04-17T15:02:35Z</time>
      </trkpt>
      <trkpt lat="43.22632" lon="0.20067">
        <ele>339</ele>
        <time>2024-04-17T15:02:36Z</time>
      </trkpt>
      <trkpt lat="43.22628" lon="0.20068">
        <ele>339</ele>
        <time>2024-04-17T15:02:37Z</time>
      </trkpt>
      <trkpt lat="43.22623" lon="0.20068">
        <ele>338.8</ele>
        <time>2024-04-17T15:02:38Z</time>
      </trkpt>
      <trkpt lat="43.22621" lon="0.20067">
        <ele>338.6</ele>
        <time>2024-04-17T15:02:39Z</time>
      </trkpt>
      <trkpt lat="43.22617" lon="0.20066">
        <ele>338.6</ele>
        <time>2024-04-17T15:02:40Z</time>
      </trkpt>
      <trkpt lat="43.22614" lon="0.20067">
        <ele>338.4</ele>
        <time>2024-04-17T15:02:41Z</time>
      </trkpt>
      <trkpt lat="43.2261" lon="0.20066">
        <ele>338.2</ele>
        <time>2024-04-17T15:02:42Z</time>
      </trkpt>
      <trkpt lat="43.22606" lon="0.20065">
        <ele>338.2</ele>
        <time>2024-04-17T15:02:43Z</time>
      </trkpt>
      <trkpt lat="43.22601" lon="0.20065">
        <ele>338</ele>
        <time>2024-04-17T15:02:44Z</time>
      </trkpt>
      <trkpt lat="43.22598" lon="0.20064">
        <ele>338</ele>
        <time>2024-04-17T15:02:45Z</time>
      </trkpt>
      <trkpt lat="43.22595" lon="0.20064">
        <ele>337.8</ele>
        <time>2024-04-17T15:02:46Z</time>
      </trkpt>
      <trkpt lat="43.22592" lon="0.20064">
        <ele>337.8</ele>
        <time>2024-04-17T15:02:47Z</time>
      </trkpt>
      <trkpt lat="43.2259" lon="0.20064">
        <ele>337.8</ele>
        <time>2024-04-17T15:02:48Z</time>
      </trkpt>
      <trkpt lat="43.22587" lon="0.20064">
        <ele>337.8</ele>
        <time>2024-04-17T15:02:49Z</time>
      </trkpt>
      <trkpt lat="43.22585" lon="0.20064">
        <ele>337.8</ele>
        <time>2024-04-17T15:02:50Z</time>
      </trkpt>
      <trkpt lat="43.22584" lon="0.20063">
        <ele>337.8</ele>
        <time>2024-04-17T15:02:51Z</time>
      </trkpt>
      <trkpt lat="43.22582" lon="0.20063">
        <ele>338</ele>
        <time>2024-04-17T15:02:52Z</time>
      </trkpt>
      <trkpt lat="43.2258" lon="0.20063">
        <ele>338</ele>
        <time>2024-04-17T15:02:53Z</time>
      </trkpt>
      <trkpt lat="43.22578" lon="0.20063">
        <ele>338</ele>
        <time>2024-04-17T15:02:54Z</time>
      </trkpt>
      <trkpt lat="43.22576" lon="0.20062">
        <ele>338.2</ele>
        <time>2024-04-17T15:02:55Z</time>
      </trkpt>
      <trkpt lat="43.22574" lon="0.20062">
        <ele>338.2</ele>
        <time>2024-04-17T15:02:56Z</time>
      </trkpt>
      <trkpt lat="43.22573" lon="0.20061">
        <ele>338.4</ele>
        <time>2024-04-17T15:02:57Z</time>
      </trkpt>
      <trkpt lat="43.22571" lon="0.2006">
        <ele>338.4</ele>
        <time>2024-04-17T15:02:58Z</time>
      </trkpt>
      <trkpt lat="43.2257" lon="0.2006">
        <ele>338.6</ele>
        <time>2024-04-17T15:02:59Z</time>
      </trkpt>
      <trkpt lat="43.22568" lon="0.20059">
        <ele>338.8</ele>
        <time>2024-04-17T15:03:00Z</time>
      </trkpt>
      <trkpt lat="43.22566" lon="0.20059">
        <ele>338.6</ele>
        <time>2024-04-17T15:03:01Z</time>
      </trkpt>
      <trkpt lat="43.22565" lon="0.20058">
        <ele>338.8</ele>
        <time>2024-04-17T15:03:02Z</time>
      </trkpt>
      <trkpt lat="43.22563" lon="0.20057">
        <ele>338.8</ele>
        <time>2024-04-17T15:03:03Z</time>
      </trkpt>
      <trkpt lat="43.22562" lon="0.20056">
        <ele>339</ele>
        <time>2024-04-17T15:03:04Z</time>
      </trkpt>
      <trkpt lat="43.2256" lon="0.20056">
        <ele>339</ele>
        <time>2024-04-17T15:03:05Z</time>
      </trkpt>
      <trkpt lat="43.22559" lon="0.20055">
        <ele>339.4</ele>
        <time>2024-04-17T15:03:06Z</time>
      </trkpt>
      <trkpt lat="43.22557" lon="0.20055">
        <ele>339.4</ele>
        <time>2024-04-17T15:03:07Z</time>
      </trkpt>
      <trkpt lat="43.22556" lon="0.20054">
        <ele>339.6</ele>
        <time>2024-04-17T15:03:08Z</time>
      </trkpt>
      <trkpt lat="43.22554" lon="0.20053">
        <ele>339.6</ele>
        <time>2024-04-17T15:03:09Z</time>
      </trkpt>
      <trkpt lat="43.22552" lon="0.20053">
        <ele>339.8</ele>
        <time>2024-04-17T15:03:10Z</time>
      </trkpt>
      <trkpt lat="43.22549" lon="0.20052">
        <ele>340</ele>
        <time>2024-04-17T15:03:11Z</time>
      </trkpt>
      <trkpt lat="43.22548" lon="0.20051">
        <ele>340</ele>
        <time>2024-04-17T15:03:12Z</time>
      </trkpt>
      <trkpt lat="43.22547" lon="0.20051">
        <ele>340.2</ele>
        <time>2024-04-17T15:03:13Z</time>
      </trkpt>
      <trkpt lat="43.22546" lon="0.2005">
        <ele>340.2</ele>
        <time>2024-04-17T15:03:14Z</time>
      </trkpt>
      <trkpt lat="43.22544" lon="0.20049">
        <ele>340.4</ele>
        <time>2024-04-17T15:03:15Z</time>
      </trkpt>
      <trkpt lat="43.22542" lon="0.20048">
        <ele>340.6</ele>
        <time>2024-04-17T15:03:16Z</time>
      </trkpt>
      <trkpt lat="43.22541" lon="0.20047">
        <ele>340.8</ele>
        <time>2024-04-17T15:03:17Z</time>
      </trkpt>
      <trkpt lat="43.2254" lon="0.20046">
        <ele>341</ele>
        <time>2024-04-17T15:03:18Z</time>
      </trkpt>
      <trkpt lat="43.22538" lon="0.20045">
        <ele>341</ele>
        <time>2024-04-17T15:03:19Z</time>
      </trkpt>
      <trkpt lat="43.22537" lon="0.20045">
        <ele>341.2</ele>
        <time>2024-04-17T15:03:20Z</time>
      </trkpt>
      <trkpt lat="43.22536" lon="0.20044">
        <ele>341.2</ele>
        <time>2024-04-17T15:03:21Z</time>
      </trkpt>
      <trkpt lat="43.22536" lon="0.20044">
        <ele>341.4</ele>
        <time>2024-04-17T15:03:22Z</time>
      </trkpt>
      <trkpt lat="43.22535" lon="0.20044">
        <ele>341.4</ele>
        <time>2024-04-17T15:03:23Z</time>
      </trkpt>
      <trkpt lat="43.22535" lon="0.20043">
        <ele>341.6</ele>
        <time>2024-04-17T15:03:24Z</time>
      </trkpt>
      <trkpt lat="43.22534" lon="0.20043">
        <ele>341.8</ele>
        <time>2024-04-17T15:03:25Z</time>
      </trkpt>
      <trkpt lat="43.22534" lon="0.20043">
        <ele>342</ele>
        <time>2024-04-17T15:03:26Z</time>
      </trkpt>
      <trkpt lat="43.22533" lon="0.20043">
        <ele>342.2</ele>
        <time>2024-04-17T15:03:27Z</time>
      </trkpt>
      <trkpt lat="43.22533" lon="0.20042">
        <ele>342.2</ele>
        <time>2024-04-17T15:03:28Z</time>
      </trkpt>
      <trkpt lat="43.22533" lon="0.20042">
        <ele>342.4</ele>
        <time>2024-04-17T15:03:29Z</time>
      </trkpt>
      <trkpt lat="43.22533" lon="0.20042">
        <ele>342.6</ele>
        <time>2024-04-17T15:03:30Z</time>
      </trkpt>
      <trkpt lat="43.22533" lon="0.20042">
        <ele>342.8</ele>
        <time>2024-04-17T15:03:31Z</time>
      </trkpt>
      <trkpt lat="43.22533" lon="0.20042">
        <ele>342.8</ele>
        <time>2024-04-17T15:03:32Z</time>
      </trkpt>
      <trkpt lat="43.22532" lon="0.20042">
        <ele>343</ele>
        <time>2024-04-17T15:03:33Z</time>
      </trkpt>
      <trkpt lat="43.22532" lon="0.20042">
        <ele>343.2</ele>
        <time>2024-04-17T15:03:34Z</time>
      </trkpt>
      <trkpt lat="43.22532" lon="0.20042">
        <ele>343.2</ele>
        <time>2024-04-17T15:03:35Z</time>
      </trkpt>
      <trkpt lat="43.22532" lon="0.20042">
        <ele>343.4</ele>
        <time>2024-04-17T15:03:36Z</time>
      </trkpt>
      <trkpt lat="43.22532" lon="0.20042">
        <ele>343.4</ele>
        <time>2024-04-17T15:03:37Z</time>
      </trkpt>
      <trkpt lat="43.22532" lon="0.20042">
        <ele>343.6</ele>
        <time>2024-04-17T15:03:38Z</time>
      </trkpt>
      <trkpt lat="43.22532" lon="0.20042">
        <ele>343.6</ele>
        <time>2024-04-17T15:03:39Z</time>
      </trkpt>
      <trkpt lat="43.22532" lon="0.20042">
        <ele>343.6</ele>
        <time>2024-04-17T15:03:40Z</time>
      </trkpt>
      <trkpt lat="43.22532" lon="0.20042">
        <ele>343.6</ele>
        <time>2024-04-17T15:03:41Z</time>
      </trkpt>
      <trkpt lat="43.22532" lon="0.20042">
        <ele>343.6</ele>
        <time>2024-04-17T15:03:42Z</time>
      </trkpt>
      <trkpt lat="43.22532" lon="0.20042">
        <ele>343.6</ele>
        <time>2024-04-17T15:03:43Z</time>
      </trkpt>
      <trkpt lat="43.22532" lon="0.20042">
        <ele>343.8</ele>
        <time>2024-04-17T15:03:44Z</time>
      </trkpt>
      <trkpt lat="43.22532" lon="0.20042">
        <ele>343.8</ele>
        <time>2024-04-17T15:03:45Z</time>
      </trkpt>
      <trkpt lat="43.22532" lon="0.20042">
        <ele>343.8</ele>
        <time>2024-04-17T15:03:46Z</time>
      </trkpt>
      <trkpt lat="43.22532" lon="0.20042">
        <ele>343.8</ele>
        <time>2024-04-17T15:03:47Z</time>
      </trkpt>
      <trkpt lat="43.22532" lon="0.20042">
        <ele>343.8</ele>
        <time>2024-04-17T15:03:48Z</time>
      </trkpt>
      <trkpt lat="43.22532" lon="0.20042">
        <ele>343.8</ele>
        <time>2024-04-17T15:03:49Z</time>
      </trkpt>
      <trkpt lat="43.22532" lon="0.20042">
        <ele>344</ele>
        <time>2024-04-17T15:03:50Z</time>
      </trkpt>
      <trkpt lat="43.22532" lon="0.20042">
        <ele>344</ele>
        <time>2024-04-17T15:03:51Z</time>
      </trkpt>
      <trkpt lat="43.22532" lon="0.20042">
        <ele>344</ele>
        <time>2024-04-17T15:03:52Z</time>
      </trkpt>
      <trkpt lat="43.22532" lon="0.20042">
        <ele>344</ele>
        <time>2024-04-17T15:03:53Z</time>
      </trkpt>
      <trkpt lat="43.22532" lon="0.20042">
        <ele>344</ele>
        <time>2024-04-17T15:03:54Z</time>
      </trkpt>
      <trkpt lat="43.22532" lon="0.20042">
        <ele>344</ele>
        <time>2024-04-17T15:03:55Z</time>
      </trkpt>
      <trkpt lat="43.22531" lon="0.20041">
        <ele>344</ele>
        <time>2024-04-17T15:03:56Z</time>
      </trkpt>
      <trkpt lat="43.22531" lon="0.20041">
        <ele>344</ele>
        <time>2024-04-17T15:03:57Z</time>
      </trkpt>
      <trkpt lat="43.22531" lon="0.20041">
        <ele>344</ele>
        <time>2024-04-17T15:03:58Z</time>
      </trkpt>
      <trkpt lat="43.22531" lon="0.2004">
        <ele>344</ele>
        <time>2024-04-17T15:03:59Z</time>
      </trkpt>
      <trkpt lat="43.22531" lon="0.20036">
        <ele>343.8</ele>
        <time>2024-04-17T15:04:00Z</time>
      </trkpt>
      <trkpt lat="43.22532" lon="0.20032">
        <ele>343.8</ele>
        <time>2024-04-17T15:04:01Z</time>
      </trkpt>
      <trkpt lat="43.22531" lon="0.20027">
        <ele>343.6</ele>
        <time>2024-04-17T15:04:02Z</time>
      </trkpt>
      <trkpt lat="43.22531" lon="0.20021">
        <ele>343.6</ele>
        <time>2024-04-17T15:04:03Z</time>
      </trkpt>
      <trkpt lat="43.2253" lon="0.20016">
        <ele>343.4</ele>
        <time>2024-04-17T15:04:04Z</time>
      </trkpt>
      <trkpt lat="43.22529" lon="0.2001">
        <ele>342.8</ele>
        <time>2024-04-17T15:04:05Z</time>
      </trkpt>
      <trkpt lat="43.22527" lon="0.20003">
        <ele>342.6</ele>
        <time>2024-04-17T15:04:06Z</time>
      </trkpt>
      <trkpt lat="43.22525" lon="0.19997">
        <ele>342.2</ele>
        <time>2024-04-17T15:04:07Z</time>
      </trkpt>
      <trkpt lat="43.22523" lon="0.19991">
        <ele>342</ele>
        <time>2024-04-17T15:04:08Z</time>
      </trkpt>
      <trkpt lat="43.22522" lon="0.19985">
        <ele>342</ele>
        <time>2024-04-17T15:04:09Z</time>
      </trkpt>
      <trkpt lat="43.2252" lon="0.1998">
        <ele>341.4</ele>
        <time>2024-04-17T15:04:10Z</time>
      </trkpt>
      <trkpt lat="43.22519" lon="0.19976">
        <ele>341.4</ele>
        <time>2024-04-17T15:04:11Z</time>
      </trkpt>
      <trkpt lat="43.22516" lon="0.19972">
        <ele>341.2</ele>
        <time>2024-04-17T15:04:12Z</time>
      </trkpt>
      <trkpt lat="43.22513" lon="0.19968">
        <ele>341.2</ele>
        <time>2024-04-17T15:04:13Z</time>
      </trkpt>
      <trkpt lat="43.22509" lon="0.19965">
        <ele>341</ele>
        <time>2024-04-17T15:04:14Z</time>
      </trkpt>
      <trkpt lat="43.22504" lon="0.19962">
        <ele>340.8</ele>
        <time>2024-04-17T15:04:15Z</time>
      </trkpt>
      <trkpt lat="43.22499" lon="0.19959">
        <ele>340.6</ele>
        <time>2024-04-17T15:04:16Z</time>
      </trkpt>
      <trkpt lat="43.22494" lon="0.19957">
        <ele>340.4</ele>
        <time>2024-04-17T15:04:17Z</time>
      </trkpt>
      <trkpt lat="43.22489" lon="0.19955">
        <ele>340.4</ele>
        <time>2024-04-17T15:04:18Z</time>
      </trkpt>
      <trkpt lat="43.22485" lon="0.19952">
        <ele>340.4</ele>
        <time>2024-04-17T15:04:19Z</time>
      </trkpt>
      <trkpt lat="43.22481" lon="0.19951">
        <ele>340.4</ele>
        <time>2024-04-17T15:04:20Z</time>
      </trkpt>
      <trkpt lat="43.22477" lon="0.1995">
        <ele>340.2</ele>
        <time>2024-04-17T15:04:21Z</time>
      </trkpt>
      <trkpt lat="43.22473" lon="0.19947">
        <ele>340</ele>
        <time>2024-04-17T15:04:22Z</time>
      </trkpt>
      <trkpt lat="43.2247" lon="0.19943">
        <ele>340</ele>
        <time>2024-04-17T15:04:23Z</time>
      </trkpt>
      <trkpt lat="43.22468" lon="0.19938">
        <ele>340</ele>
        <time>2024-04-17T15:04:24Z</time>
      </trkpt>
      <trkpt lat="43.22466" lon="0.19934">
        <ele>339.8</ele>
        <time>2024-04-17T15:04:25Z</time>
      </trkpt>
      <trkpt lat="43.22465" lon="0.1993">
        <ele>339.6</ele>
        <time>2024-04-17T15:04:26Z</time>
      </trkpt>
      <trkpt lat="43.22464" lon="0.19927">
        <ele>339.6</ele>
        <time>2024-04-17T15:04:27Z</time>
      </trkpt>
      <trkpt lat="43.22463" lon="0.19924">
        <ele>339.6</ele>
        <time>2024-04-17T15:04:28Z</time>
      </trkpt>
      <trkpt lat="43.22462" lon="0.19921">
        <ele>339.6</ele>
        <time>2024-04-17T15:04:29Z</time>
      </trkpt>
      <trkpt lat="43.22461" lon="0.19918">
        <ele>339.6</ele>
        <time>2024-04-17T15:04:30Z</time>
      </trkpt>
      <trkpt lat="43.2246" lon="0.19912">
        <ele>339.6</ele>
        <time>2024-04-17T15:04:31Z</time>
      </trkpt>
      <trkpt lat="43.22457" lon="0.19908">
        <ele>339.6</ele>
        <time>2024-04-17T15:04:32Z</time>
      </trkpt>
      <trkpt lat="43.22455" lon="0.19903">
        <ele>339.6</ele>
        <time>2024-04-17T15:04:33Z</time>
      </trkpt>
      <trkpt lat="43.22455" lon="0.19897">
        <ele>339.6</ele>
        <time>2024-04-17T15:04:34Z</time>
      </trkpt>
      <trkpt lat="43.22453" lon="0.19892">
        <ele>339.6</ele>
        <time>2024-04-17T15:04:35Z</time>
      </trkpt>
      <trkpt lat="43.2245" lon="0.19889">
        <ele>339.6</ele>
        <time>2024-04-17T15:04:36Z</time>
      </trkpt>
      <trkpt lat="43.22448" lon="0.19887">
        <ele>339.6</ele>
        <time>2024-04-17T15:04:37Z</time>
      </trkpt>
      <trkpt lat="43.22447" lon="0.19885">
        <ele>339.6</ele>
        <time>2024-04-17T15:04:38Z</time>
      </trkpt>
      <trkpt lat="43.22446" lon="0.19884">
        <ele>339.8</ele>
        <time>2024-04-17T15:04:39Z</time>
      </trkpt>
      <trkpt lat="43.22444" lon="0.19882">
        <ele>339.8</ele>
        <time>2024-04-17T15:04:40Z</time>
      </trkpt>
      <trkpt lat="43.22442" lon="0.1988">
        <ele>339.8</ele>
        <time>2024-04-17T15:04:41Z</time>
      </trkpt>
      <trkpt lat="43.22439" lon="0.19879">
        <ele>340</ele>
        <time>2024-04-17T15:04:42Z</time>
      </trkpt>
      <trkpt lat="43.22436" lon="0.19879">
        <ele>340</ele>
        <time>2024-04-17T15:04:43Z</time>
      </trkpt>
      <trkpt lat="43.22433" lon="0.19879">
        <ele>340</ele>
        <time>2024-04-17T15:04:44Z</time>
      </trkpt>
      <trkpt lat="43.22431" lon="0.1988">
        <ele>340</ele>
        <time>2024-04-17T15:04:45Z</time>
      </trkpt>
      <trkpt lat="43.22429" lon="0.1988">
        <ele>340.2</ele>
        <time>2024-04-17T15:04:46Z</time>
      </trkpt>
      <trkpt lat="43.22426" lon="0.1988">
        <ele>340.2</ele>
        <time>2024-04-17T15:04:47Z</time>
      </trkpt>
      <trkpt lat="43.22422" lon="0.1988">
        <ele>340.2</ele>
        <time>2024-04-17T15:04:48Z</time>
      </trkpt>
      <trkpt lat="43.22419" lon="0.1988">
        <ele>340.4</ele>
        <time>2024-04-17T15:04:49Z</time>
      </trkpt>
      <trkpt lat="43.22414" lon="0.1988">
        <ele>340.4</ele>
        <time>2024-04-17T15:04:50Z</time>
      </trkpt>
      <trkpt lat="43.22411" lon="0.1988">
        <ele>340.4</ele>
        <time>2024-04-17T15:04:51Z</time>
      </trkpt>
      <trkpt lat="43.22407" lon="0.1988">
        <ele>340.4</ele>
        <time>2024-04-17T15:04:52Z</time>
      </trkpt>
      <trkpt lat="43.22404" lon="0.1988">
        <ele>340.4</ele>
        <time>2024-04-17T15:04:53Z</time>
      </trkpt>
      <trkpt lat="43.22401" lon="0.19881">
        <ele>340.4</ele>
        <time>2024-04-17T15:04:54Z</time>
      </trkpt>
      <trkpt lat="43.22393" lon="0.19882">
        <ele>340.4</ele>
        <time>2024-04-17T15:04:55Z</time>
      </trkpt>
      <trkpt lat="43.22387" lon="0.19883">
        <ele>340.4</ele>
        <time>2024-04-17T15:04:56Z</time>
      </trkpt>
      <trkpt lat="43.22382" lon="0.19884">
        <ele>340</ele>
        <time>2024-04-17T15:04:57Z</time>
      </trkpt>
      <trkpt lat="43.22377" lon="0.19883">
        <ele>339.8</ele>
        <time>2024-04-17T15:04:58Z</time>
      </trkpt>
      <trkpt lat="43.22374" lon="0.19883">
        <ele>339.8</ele>
        <time>2024-04-17T15:04:59Z</time>
      </trkpt>
      <trkpt lat="43.22373" lon="0.19882">
        <ele>339.8</ele>
        <time>2024-04-17T15:05:00Z</time>
      </trkpt>
      <trkpt lat="43.22371" lon="0.19882">
        <ele>339.8</ele>
        <time>2024-04-17T15:05:01Z</time>
      </trkpt>
      <trkpt lat="43.2237" lon="0.19881">
        <ele>339.8</ele>
        <time>2024-04-17T15:05:02Z</time>
      </trkpt>
      <trkpt lat="43.22368" lon="0.19881">
        <ele>339.8</ele>
        <time>2024-04-17T15:05:03Z</time>
      </trkpt>
      <trkpt lat="43.22368" lon="0.19882">
        <ele>339.8</ele>
        <time>2024-04-17T15:05:04Z</time>
      </trkpt>
      <trkpt lat="43.22367" lon="0.19881">
        <ele>339.8</ele>
        <time>2024-04-17T15:05:05Z</time>
      </trkpt>
      <trkpt lat="43.22365" lon="0.19882">
        <ele>340</ele>
        <time>2024-04-17T15:05:06Z</time>
      </trkpt>
      <trkpt lat="43.22361" lon="0.19884">
        <ele>340.2</ele>
        <time>2024-04-17T15:05:07Z</time>
      </trkpt>
      <trkpt lat="43.22359" lon="0.19886">
        <ele>340.2</ele>
        <time>2024-04-17T15:05:08Z</time>
      </trkpt>
      <trkpt lat="43.22357" lon="0.19887">
        <ele>340.6</ele>
        <time>2024-04-17T15:05:09Z</time>
      </trkpt>
      <trkpt lat="43.22353" lon="0.19891">
        <ele>340.8</ele>
        <time>2024-04-17T15:05:10Z</time>
      </trkpt>
      <trkpt lat="43.2235" lon="0.19893">
        <ele>341</ele>
        <time>2024-04-17T15:05:11Z</time>
      </trkpt>
      <trkpt lat="43.22345" lon="0.19899">
        <ele>341</ele>
        <time>2024-04-17T15:05:12Z</time>
      </trkpt>
      <trkpt lat="43.22338" lon="0.19903">
        <ele>341.2</ele>
        <time>2024-04-17T15:05:13Z</time>
      </trkpt>
      <trkpt lat="43.22336" lon="0.19909">
        <ele>341.2</ele>
        <time>2024-04-17T15:05:14Z</time>
      </trkpt>
      <trkpt lat="43.22334" lon="0.19914">
        <ele>341.2</ele>
        <time>2024-04-17T15:05:15Z</time>
      </trkpt>
      <trkpt lat="43.22332" lon="0.19919">
        <ele>341.2</ele>
        <time>2024-04-17T15:05:16Z</time>
      </trkpt>
      <trkpt lat="43.22329" lon="0.19923">
        <ele>341.2</ele>
        <time>2024-04-17T15:05:17Z</time>
      </trkpt>
      <trkpt lat="43.22329" lon="0.19926">
        <ele>341.2</ele>
        <time>2024-04-17T15:05:18Z</time>
      </trkpt>
      <trkpt lat="43.22329" lon="0.19928">
        <ele>341.2</ele>
        <time>2024-04-17T15:05:19Z</time>
      </trkpt>
      <trkpt lat="43.22329" lon="0.19931">
        <ele>341.2</ele>
        <time>2024-04-17T15:05:20Z</time>
      </trkpt>
      <trkpt lat="43.22328" lon="0.19933">
        <ele>341.2</ele>
        <time>2024-04-17T15:05:21Z</time>
      </trkpt>
      <trkpt lat="43.22328" lon="0.19935">
        <ele>341.2</ele>
        <time>2024-04-17T15:05:22Z</time>
      </trkpt>
      <trkpt lat="43.22328" lon="0.19936">
        <ele>341.2</ele>
        <time>2024-04-17T15:05:23Z</time>
      </trkpt>
      <trkpt lat="43.22327" lon="0.19938">
        <ele>341.4</ele>
        <time>2024-04-17T15:05:24Z</time>
      </trkpt>
      <trkpt lat="43.22326" lon="0.19941">
        <ele>341.8</ele>
        <time>2024-04-17T15:05:25Z</time>
      </trkpt>
      <trkpt lat="43.22326" lon="0.19942">
        <ele>341.8</ele>
        <time>2024-04-17T15:05:26Z</time>
      </trkpt>
      <trkpt lat="43.22328" lon="0.19947">
        <ele>342</ele>
        <time>2024-04-17T15:05:27Z</time>
      </trkpt>
      <trkpt lat="43.22326" lon="0.1995">
        <ele>342</ele>
        <time>2024-04-17T15:05:28Z</time>
      </trkpt>
      <trkpt lat="43.22324" lon="0.19952">
        <ele>342.2</ele>
        <time>2024-04-17T15:05:29Z</time>
      </trkpt>
      <trkpt lat="43.22322" lon="0.19953">
        <ele>342.4</ele>
        <time>2024-04-17T15:05:30Z</time>
      </trkpt>
      <trkpt lat="43.22321" lon="0.19955">
        <ele>342.6</ele>
        <time>2024-04-17T15:05:31Z</time>
      </trkpt>
      <trkpt lat="43.2232" lon="0.19956">
        <ele>342.6</ele>
        <time>2024-04-17T15:05:32Z</time>
      </trkpt>
      <trkpt lat="43.22319" lon="0.19957">
        <ele>342.6</ele>
        <time>2024-04-17T15:05:33Z</time>
      </trkpt>
      <trkpt lat="43.22319" lon="0.19959">
        <ele>342.8</ele>
        <time>2024-04-17T15:05:34Z</time>
      </trkpt>
      <trkpt lat="43.22318" lon="0.19961">
        <ele>342.8</ele>
        <time>2024-04-17T15:05:35Z</time>
      </trkpt>
      <trkpt lat="43.22318" lon="0.19963">
        <ele>343.4</ele>
        <time>2024-04-17T15:05:36Z</time>
      </trkpt>
      <trkpt lat="43.22318" lon="0.19965">
        <ele>343.6</ele>
        <time>2024-04-17T15:05:37Z</time>
      </trkpt>
      <trkpt lat="43.22318" lon="0.19967">
        <ele>343.8</ele>
        <time>2024-04-17T15:05:38Z</time>
      </trkpt>
      <trkpt lat="43.22319" lon="0.1997">
        <ele>344.2</ele>
        <time>2024-04-17T15:05:39Z</time>
      </trkpt>
      <trkpt lat="43.22318" lon="0.19973">
        <ele>344.2</ele>
        <time>2024-04-17T15:05:40Z</time>
      </trkpt>
      <trkpt lat="43.22317" lon="0.19975">
        <ele>344.4</ele>
        <time>2024-04-17T15:05:41Z</time>
      </trkpt>
      <trkpt lat="43.22317" lon="0.19977">
        <ele>344.4</ele>
        <time>2024-04-17T15:05:42Z</time>
      </trkpt>
      <trkpt lat="43.22316" lon="0.1998">
        <ele>344.6</ele>
        <time>2024-04-17T15:05:43Z</time>
      </trkpt>
      <trkpt lat="43.22316" lon="0.19982">
        <ele>344.6</ele>
        <time>2024-04-17T15:05:44Z</time>
      </trkpt>
      <trkpt lat="43.22314" lon="0.19985">
        <ele>344.8</ele>
        <time>2024-04-17T15:05:45Z</time>
      </trkpt>
      <trkpt lat="43.22313" lon="0.19986">
        <ele>344.8</ele>
        <time>2024-04-17T15:05:46Z</time>
      </trkpt>
      <trkpt lat="43.22312" lon="0.19987">
        <ele>345</ele>
        <time>2024-04-17T15:05:47Z</time>
      </trkpt>
      <trkpt lat="43.22312" lon="0.19988">
        <ele>345</ele>
        <time>2024-04-17T15:05:48Z</time>
      </trkpt>
      <trkpt lat="43.22311" lon="0.1999">
        <ele>345.2</ele>
        <time>2024-04-17T15:05:49Z</time>
      </trkpt>
      <trkpt lat="43.22309" lon="0.19992">
        <ele>345.2</ele>
        <time>2024-04-17T15:05:50Z</time>
      </trkpt>
      <trkpt lat="43.22308" lon="0.19994">
        <ele>345.2</ele>
        <time>2024-04-17T15:05:51Z</time>
      </trkpt>
      <trkpt lat="43.22306" lon="0.19997">
        <ele>345.4</ele>
        <time>2024-04-17T15:05:52Z</time>
      </trkpt>
      <trkpt lat="43.22305" lon="0.20001">
        <ele>345.4</ele>
        <time>2024-04-17T15:05:53Z</time>
      </trkpt>
      <trkpt lat="43.22305" lon="0.20002">
        <ele>345.6</ele>
        <time>2024-04-17T15:05:54Z</time>
      </trkpt>
      <trkpt lat="43.22306" lon="0.20006">
        <ele>345.6</ele>
        <time>2024-04-17T15:05:55Z</time>
      </trkpt>
      <trkpt lat="43.22305" lon="0.20008">
        <ele>345.6</ele>
        <time>2024-04-17T15:05:56Z</time>
      </trkpt>
      <trkpt lat="43.22303" lon="0.2001">
        <ele>345.8</ele>
        <time>2024-04-17T15:05:57Z</time>
      </trkpt>
      <trkpt lat="43.22302" lon="0.20013">
        <ele>346</ele>
        <time>2024-04-17T15:05:58Z</time>
      </trkpt>
      <trkpt lat="43.223" lon="0.20015">
        <ele>346</ele>
        <time>2024-04-17T15:05:59Z</time>
      </trkpt>
      <trkpt lat="43.22299" lon="0.20018">
        <ele>346.2</ele>
        <time>2024-04-17T15:06:00Z</time>
      </trkpt>
      <trkpt lat="43.22299" lon="0.2002">
        <ele>346.4</ele>
        <time>2024-04-17T15:06:01Z</time>
      </trkpt>
      <trkpt lat="43.22302" lon="0.20025">
        <ele>346.4</ele>
        <time>2024-04-17T15:06:02Z</time>
      </trkpt>
      <trkpt lat="43.22302" lon="0.20029">
        <ele>346.8</ele>
        <time>2024-04-17T15:06:03Z</time>
      </trkpt>
      <trkpt lat="43.22302" lon="0.20033">
        <ele>347</ele>
        <time>2024-04-17T15:06:04Z</time>
      </trkpt>
      <trkpt lat="43.22302" lon="0.20036">
        <ele>347</ele>
        <time>2024-04-17T15:06:05Z</time>
      </trkpt>
      <trkpt lat="43.22301" lon="0.20038">
        <ele>347.2</ele>
        <time>2024-04-17T15:06:06Z</time>
      </trkpt>
      <trkpt lat="43.22301" lon="0.20039">
        <ele>347.2</ele>
        <time>2024-04-17T15:06:07Z</time>
      </trkpt>
      <trkpt lat="43.22301" lon="0.20039">
        <ele>347.4</ele>
        <time>2024-04-17T15:06:08Z</time>
      </trkpt>
      <trkpt lat="43.22301" lon="0.20039">
        <ele>347.4</ele>
        <time>2024-04-17T15:06:09Z</time>
      </trkpt>
      <trkpt lat="43.22301" lon="0.20039">
        <ele>347.4</ele>
        <time>2024-04-17T15:06:10Z</time>
      </trkpt>
      <trkpt lat="43.22301" lon="0.20039">
        <ele>347.6</ele>
        <time>2024-04-17T15:06:11Z</time>
      </trkpt>
      <trkpt lat="43.22301" lon="0.20039">
        <ele>347.6</ele>
        <time>2024-04-17T15:06:12Z</time>
      </trkpt>
      <trkpt lat="43.22301" lon="0.20039">
        <ele>347.6</ele>
        <time>2024-04-17T15:06:13Z</time>
      </trkpt>
      <trkpt lat="43.223" lon="0.2004">
        <ele>347.6</ele>
        <time>2024-04-17T15:06:14Z</time>
      </trkpt>
      <trkpt lat="43.223" lon="0.20042">
        <ele>347.6</ele>
        <time>2024-04-17T15:06:15Z</time>
      </trkpt>
      <trkpt lat="43.22301" lon="0.20043">
        <ele>347.6</ele>
        <time>2024-04-17T15:06:16Z</time>
      </trkpt>
      <trkpt lat="43.22301" lon="0.20044">
        <ele>347.6</ele>
        <time>2024-04-17T15:06:17Z</time>
      </trkpt>
      <trkpt lat="43.223" lon="0.20045">
        <ele>347.6</ele>
        <time>2024-04-17T15:06:18Z</time>
      </trkpt>
      <trkpt lat="43.223" lon="0.20045">
        <ele>347.6</ele>
        <time>2024-04-17T15:06:19Z</time>
      </trkpt>
      <trkpt lat="43.223" lon="0.20045">
        <ele>347.8</ele>
        <time>2024-04-17T15:06:20Z</time>
      </trkpt>
      <trkpt lat="43.223" lon="0.20045">
        <ele>347.8</ele>
        <time>2024-04-17T15:06:21Z</time>
      </trkpt>
      <trkpt lat="43.223" lon="0.20045">
        <ele>347.8</ele>
        <time>2024-04-17T15:06:22Z</time>
      </trkpt>
      <trkpt lat="43.22299" lon="0.20046">
        <ele>347.8</ele>
        <time>2024-04-17T15:06:23Z</time>
      </trkpt>
      <trkpt lat="43.22299" lon="0.20046">
        <ele>348</ele>
        <time>2024-04-17T15:06:24Z</time>
      </trkpt>
      <trkpt lat="43.22299" lon="0.20046">
        <ele>348</ele>
        <time>2024-04-17T15:06:25Z</time>
      </trkpt>
      <trkpt lat="43.223" lon="0.20048">
        <ele>348</ele>
        <time>2024-04-17T15:06:26Z</time>
      </trkpt>
      <trkpt lat="43.223" lon="0.20049">
        <ele>348.2</ele>
        <time>2024-04-17T15:06:27Z</time>
      </trkpt>
      <trkpt lat="43.223" lon="0.2005">
        <ele>348.2</ele>
        <time>2024-04-17T15:06:28Z</time>
      </trkpt>
      <trkpt lat="43.223" lon="0.2005">
        <ele>348.4</ele>
        <time>2024-04-17T15:06:29Z</time>
      </trkpt>
      <trkpt lat="43.223" lon="0.20051">
        <ele>348.6</ele>
        <time>2024-04-17T15:06:30Z</time>
      </trkpt>
      <trkpt lat="43.22299" lon="0.20053">
        <ele>348.8</ele>
        <time>2024-04-17T15:06:31Z</time>
      </trkpt>
      <trkpt lat="43.22299" lon="0.20054">
        <ele>349</ele>
        <time>2024-04-17T15:06:32Z</time>
      </trkpt>
      <trkpt lat="43.22299" lon="0.20054">
        <ele>349.2</ele>
        <time>2024-04-17T15:06:33Z</time>
      </trkpt>
      <trkpt lat="43.22299" lon="0.20054">
        <ele>349.2</ele>
        <time>2024-04-17T15:06:34Z</time>
      </trkpt>
      <trkpt lat="43.22299" lon="0.20054">
        <ele>349.2</ele>
        <time>2024-04-17T15:06:35Z</time>
      </trkpt>
      <trkpt lat="43.22299" lon="0.20054">
        <ele>349.6</ele>
        <time>2024-04-17T15:06:36Z</time>
      </trkpt>
      <trkpt lat="43.22299" lon="0.20054">
        <ele>349.8</ele>
        <time>2024-04-17T15:06:37Z</time>
      </trkpt>
      <trkpt lat="43.22299" lon="0.20054">
        <ele>350</ele>
        <time>2024-04-17T15:06:38Z</time>
      </trkpt>
      <trkpt lat="43.22299" lon="0.20054">
        <ele>350</ele>
        <time>2024-04-17T15:06:39Z</time>
      </trkpt>
      <trkpt lat="43.22299" lon="0.20054">
        <ele>350.2</ele>
        <time>2024-04-17T15:06:40Z</time>
      </trkpt>
      <trkpt lat="43.22299" lon="0.20054">
        <ele>350.2</ele>
        <time>2024-04-17T15:06:41Z</time>
      </trkpt>
      <trkpt lat="43.22299" lon="0.20054">
        <ele>350.4</ele>
        <time>2024-04-17T15:06:42Z</time>
      </trkpt>
      <trkpt lat="43.22299" lon="0.20054">
        <ele>350.4</ele>
        <time>2024-04-17T15:06:43Z</time>
      </trkpt>
      <trkpt lat="43.22299" lon="0.20054">
        <ele>350.6</ele>
        <time>2024-04-17T15:06:44Z</time>
      </trkpt>
      <trkpt lat="43.22299" lon="0.20054">
        <ele>350.6</ele>
        <time>2024-04-17T15:06:45Z</time>
      </trkpt>
      <trkpt lat="43.22299" lon="0.20056">
        <ele>350.8</ele>
        <time>2024-04-17T15:06:46Z</time>
      </trkpt>
      <trkpt lat="43.22299" lon="0.20056">
        <ele>351</ele>
        <time>2024-04-17T15:06:47Z</time>
      </trkpt>
      <trkpt lat="43.22299" lon="0.20056">
        <ele>351</ele>
        <time>2024-04-17T15:06:48Z</time>
      </trkpt>
      <trkpt lat="43.22299" lon="0.20056">
        <ele>351.2</ele>
        <time>2024-04-17T15:06:49Z</time>
      </trkpt>
      <trkpt lat="43.22299" lon="0.20056">
        <ele>351.2</ele>
        <time>2024-04-17T15:06:50Z</time>
      </trkpt>
      <trkpt lat="43.223" lon="0.20057">
        <ele>351.4</ele>
        <time>2024-04-17T15:06:51Z</time>
      </trkpt>
      <trkpt lat="43.22302" lon="0.20059">
        <ele>351.4</ele>
        <time>2024-04-17T15:06:52Z</time>
      </trkpt>
      <trkpt lat="43.22303" lon="0.20061">
        <ele>351.4</ele>
        <time>2024-04-17T15:06:53Z</time>
      </trkpt>
      <trkpt lat="43.22303" lon="0.20063">
        <ele>351.6</ele>
        <time>2024-04-17T15:06:54Z</time>
      </trkpt>
      <trkpt lat="43.22303" lon="0.20063">
        <ele>351.6</ele>
        <time>2024-04-17T15:06:55Z</time>
      </trkpt>
      <trkpt lat="43.22303" lon="0.20063">
        <ele>351.8</ele>
        <time>2024-04-17T15:06:56Z</time>
      </trkpt>
      <trkpt lat="43.22303" lon="0.20063">
        <ele>352</ele>
        <time>2024-04-17T15:06:57Z</time>
      </trkpt>
      <trkpt lat="43.22304" lon="0.20064">
        <ele>352</ele>
        <time>2024-04-17T15:06:58Z</time>
      </trkpt>
      <trkpt lat="43.22303" lon="0.20065">
        <ele>352</ele>
        <time>2024-04-17T15:06:59Z</time>
      </trkpt>
      <trkpt lat="43.22303" lon="0.20066">
        <ele>352.2</ele>
        <time>2024-04-17T15:07:00Z</time>
      </trkpt>
      <trkpt lat="43.22303" lon="0.20066">
        <ele>352.4</ele>
        <time>2024-04-17T15:07:01Z</time>
      </trkpt>
      <trkpt lat="43.22303" lon="0.20068">
        <ele>352.6</ele>
        <time>2024-04-17T15:07:02Z</time>
      </trkpt>
      <trkpt lat="43.22303" lon="0.20071">
        <ele>352.8</ele>
        <time>2024-04-17T15:07:03Z</time>
      </trkpt>
      <trkpt lat="43.22303" lon="0.20073">
        <ele>353</ele>
        <time>2024-04-17T15:07:04Z</time>
      </trkpt>
      <trkpt lat="43.22303" lon="0.20076">
        <ele>353.2</ele>
        <time>2024-04-17T15:07:05Z</time>
      </trkpt>
      <trkpt lat="43.22302" lon="0.20078">
        <ele>353.4</ele>
        <time>2024-04-17T15:07:06Z</time>
      </trkpt>
      <trkpt lat="43.22302" lon="0.2008">
        <ele>353.6</ele>
        <time>2024-04-17T15:07:07Z</time>
      </trkpt>
      <trkpt lat="43.22302" lon="0.2008">
        <ele>353.8</ele>
        <time>2024-04-17T15:07:08Z</time>
      </trkpt>
      <trkpt lat="43.22302" lon="0.2008">
        <ele>353.8</ele>
        <time>2024-04-17T15:07:09Z</time>
      </trkpt>
      <trkpt lat="43.22301" lon="0.20081">
        <ele>354.2</ele>
        <time>2024-04-17T15:07:10Z</time>
      </trkpt>
      <trkpt lat="43.22301" lon="0.20081">
        <ele>354.2</ele>
        <time>2024-04-17T15:07:11Z</time>
      </trkpt>
      <trkpt lat="43.22301" lon="0.20081">
        <ele>354.6</ele>
        <time>2024-04-17T15:07:12Z</time>
      </trkpt>
      <trkpt lat="43.22301" lon="0.20081">
        <ele>354.8</ele>
        <time>2024-04-17T15:07:13Z</time>
      </trkpt>
      <trkpt lat="43.22301" lon="0.20081">
        <ele>355</ele>
        <time>2024-04-17T15:07:14Z</time>
      </trkpt>
      <trkpt lat="43.22301" lon="0.20081">
        <ele>355</ele>
        <time>2024-04-17T15:07:15Z</time>
      </trkpt>
      <trkpt lat="43.22301" lon="0.20083">
        <ele>355.2</ele>
        <time>2024-04-17T15:07:16Z</time>
      </trkpt>
      <trkpt lat="43.22302" lon="0.20084">
        <ele>355.4</ele>
        <time>2024-04-17T15:07:17Z</time>
      </trkpt>
      <trkpt lat="43.22302" lon="0.20084">
        <ele>355.6</ele>
        <time>2024-04-17T15:07:18Z</time>
      </trkpt>
      <trkpt lat="43.22302" lon="0.20084">
        <ele>355.8</ele>
        <time>2024-04-17T15:07:19Z</time>
      </trkpt>
      <trkpt lat="43.22302" lon="0.20084">
        <ele>355.8</ele>
        <time>2024-04-17T15:07:20Z</time>
      </trkpt>
      <trkpt lat="43.22301" lon="0.20087">
        <ele>355.8</ele>
        <time>2024-04-17T15:07:21Z</time>
      </trkpt>
      <trkpt lat="43.22301" lon="0.20087">
        <ele>355.8</ele>
        <time>2024-04-17T15:07:22Z</time>
      </trkpt>
      <trkpt lat="43.22301" lon="0.20087">
        <ele>356</ele>
        <time>2024-04-17T15:07:23Z</time>
      </trkpt>
      <trkpt lat="43.22301" lon="0.20087">
        <ele>356</ele>
        <time>2024-04-17T15:07:24Z</time>
      </trkpt>
      <trkpt lat="43.22301" lon="0.20087">
        <ele>356.2</ele>
        <time>2024-04-17T15:07:25Z</time>
      </trkpt>
      <trkpt lat="43.22301" lon="0.20087">
        <ele>356.4</ele>
        <time>2024-04-17T15:07:26Z</time>
      </trkpt>
      <trkpt lat="43.22301" lon="0.20087">
        <ele>356.6</ele>
        <time>2024-04-17T15:07:27Z</time>
      </trkpt>
      <trkpt lat="43.22301" lon="0.20087">
        <ele>356.8</ele>
        <time>2024-04-17T15:07:28Z</time>
      </trkpt>
      <trkpt lat="43.22301" lon="0.20087">
        <ele>357</ele>
        <time>2024-04-17T15:07:29Z</time>
      </trkpt>
      <trkpt lat="43.22301" lon="0.20087">
        <ele>357</ele>
        <time>2024-04-17T15:07:30Z</time>
      </trkpt>
      <trkpt lat="43.22301" lon="0.20087">
        <ele>357.2</ele>
        <time>2024-04-17T15:07:31Z</time>
      </trkpt>
      <trkpt lat="43.22301" lon="0.20087">
        <ele>357.4</ele>
        <time>2024-04-17T15:07:32Z</time>
      </trkpt>
      <trkpt lat="43.22301" lon="0.20087">
        <ele>357.6</ele>
        <time>2024-04-17T15:07:33Z</time>
      </trkpt>
      <trkpt lat="43.22301" lon="0.20087">
        <ele>357.6</ele>
        <time>2024-04-17T15:07:34Z</time>
      </trkpt>
      <trkpt lat="43.22301" lon="0.20087">
        <ele>357.8</ele>
        <time>2024-04-17T15:07:35Z</time>
      </trkpt>
      <trkpt lat="43.22301" lon="0.20088">
        <ele>357.8</ele>
        <time>2024-04-17T15:07:36Z</time>
      </trkpt>
      <trkpt lat="43.22301" lon="0.20088">
        <ele>358</ele>
        <time>2024-04-17T15:07:37Z</time>
      </trkpt>
      <trkpt lat="43.22301" lon="0.20088">
        <ele>358</ele>
        <time>2024-04-17T15:07:38Z</time>
      </trkpt>
      <trkpt lat="43.22301" lon="0.20088">
        <ele>358.2</ele>
        <time>2024-04-17T15:07:39Z</time>
      </trkpt>
      <trkpt lat="43.22301" lon="0.20088">
        <ele>358.2</ele>
        <time>2024-04-17T15:07:40Z</time>
      </trkpt>
      <trkpt lat="43.22301" lon="0.20088">
        <ele>358.4</ele>
        <time>2024-04-17T15:07:41Z</time>
      </trkpt>
      <trkpt lat="43.22301" lon="0.20088">
        <ele>358.6</ele>
        <time>2024-04-17T15:07:42Z</time>
      </trkpt>
      <trkpt lat="43.22301" lon="0.20088">
        <ele>358.6</ele>
        <time>2024-04-17T15:07:43Z</time>
      </trkpt>
      <trkpt lat="43.22301" lon="0.2009">
        <ele>358.8</ele>
        <time>2024-04-17T15:07:44Z</time>
      </trkpt>
      <trkpt lat="43.22301" lon="0.2009">
        <ele>358.8</ele>
        <time>2024-04-17T15:07:45Z</time>
      </trkpt>
      <trkpt lat="43.22301" lon="0.2009">
        <ele>359</ele>
        <time>2024-04-17T15:07:46Z</time>
      </trkpt>
      <trkpt lat="43.22301" lon="0.2009">
        <ele>359</ele>
        <time>2024-04-17T15:07:47Z</time>
      </trkpt>
      <trkpt lat="43.22301" lon="0.2009">
        <ele>359.4</ele>
        <time>2024-04-17T15:07:48Z</time>
      </trkpt>
      <trkpt lat="43.22301" lon="0.2009">
        <ele>359.4</ele>
        <time>2024-04-17T15:07:49Z</time>
      </trkpt>
      <trkpt lat="43.22301" lon="0.2009">
        <ele>359.6</ele>
        <time>2024-04-17T15:07:50Z</time>
      </trkpt>
      <trkpt lat="43.223" lon="0.20093">
        <ele>359.8</ele>
        <time>2024-04-17T15:07:51Z</time>
      </trkpt>
      <trkpt lat="43.223" lon="0.20094">
        <ele>360</ele>
        <time>2024-04-17T15:07:52Z</time>
      </trkpt>
      <trkpt lat="43.223" lon="0.20095">
        <ele>360</ele>
        <time>2024-04-17T15:07:53Z</time>
      </trkpt>
      <trkpt lat="43.22299" lon="0.20096">
        <ele>360.2</ele>
        <time>2024-04-17T15:07:54Z</time>
      </trkpt>
      <trkpt lat="43.22299" lon="0.20097">
        <ele>360.2</ele>
        <time>2024-04-17T15:07:55Z</time>
      </trkpt>
      <trkpt lat="43.22298" lon="0.20098">
        <ele>360.2</ele>
        <time>2024-04-17T15:07:56Z</time>
      </trkpt>
      <trkpt lat="43.22298" lon="0.20099">
        <ele>360.2</ele>
        <time>2024-04-17T15:07:57Z</time>
      </trkpt>
      <trkpt lat="43.22298" lon="0.20099">
        <ele>360.4</ele>
        <time>2024-04-17T15:07:58Z</time>
      </trkpt>
      <trkpt lat="43.22298" lon="0.20099">
        <ele>360.4</ele>
        <time>2024-04-17T15:07:59Z</time>
      </trkpt>
      <trkpt lat="43.22298" lon="0.20099">
        <ele>360.4</ele>
        <time>2024-04-17T15:08:00Z</time>
      </trkpt>
      <trkpt lat="43.22298" lon="0.20099">
        <ele>360.6</ele>
        <time>2024-04-17T15:08:01Z</time>
      </trkpt>
      <trkpt lat="43.22298" lon="0.201">
        <ele>360.6</ele>
        <time>2024-04-17T15:08:02Z</time>
      </trkpt>
      <trkpt lat="43.22297" lon="0.201">
        <ele>360.8</ele>
        <time>2024-04-17T15:08:03Z</time>
      </trkpt>
      <trkpt lat="43.22297" lon="0.201">
        <ele>361</ele>
        <time>2024-04-17T15:08:04Z</time>
      </trkpt>
      <trkpt lat="43.22297" lon="0.201">
        <ele>361</ele>
        <time>2024-04-17T15:08:05Z</time>
      </trkpt>
      <trkpt lat="43.22297" lon="0.201">
        <ele>361</ele>
        <time>2024-04-17T15:08:06Z</time>
      </trkpt>
      <trkpt lat="43.22297" lon="0.201">
        <ele>361.4</ele>
        <time>2024-04-17T15:08:07Z</time>
      </trkpt>
      <trkpt lat="43.22297" lon="0.201">
        <ele>361.4</ele>
        <time>2024-04-17T15:08:08Z</time>
      </trkpt>
      <trkpt lat="43.22297" lon="0.201">
        <ele>361.6</ele>
        <time>2024-04-17T15:08:09Z</time>
      </trkpt>
      <trkpt lat="43.22296" lon="0.20102">
        <ele>361.6</ele>
        <time>2024-04-17T15:08:10Z</time>
      </trkpt>
      <trkpt lat="43.22296" lon="0.20102">
        <ele>362</ele>
        <time>2024-04-17T15:08:11Z</time>
      </trkpt>
      <trkpt lat="43.22296" lon="0.20102">
        <ele>362</ele>
        <time>2024-04-17T15:08:12Z</time>
      </trkpt>
      <trkpt lat="43.22296" lon="0.20102">
        <ele>362.2</ele>
        <time>2024-04-17T15:08:13Z</time>
      </trkpt>
      <trkpt lat="43.22296" lon="0.20103">
        <ele>362.4</ele>
        <time>2024-04-17T15:08:14Z</time>
      </trkpt>
      <trkpt lat="43.22296" lon="0.20103">
        <ele>362.6</ele>
        <time>2024-04-17T15:08:15Z</time>
      </trkpt>
      <trkpt lat="43.22296" lon="0.20103">
        <ele>362.6</ele>
        <time>2024-04-17T15:08:16Z</time>
      </trkpt>
      <trkpt lat="43.22296" lon="0.20103">
        <ele>362.8</ele>
        <time>2024-04-17T15:08:17Z</time>
      </trkpt>
      <trkpt lat="43.22296" lon="0.20103">
        <ele>363</ele>
        <time>2024-04-17T15:08:18Z</time>
      </trkpt>
      <trkpt lat="43.22296" lon="0.20103">
        <ele>363</ele>
        <time>2024-04-17T15:08:19Z</time>
      </trkpt>
      <trkpt lat="43.22296" lon="0.20104">
        <ele>363.2</ele>
        <time>2024-04-17T15:08:20Z</time>
      </trkpt>
      <trkpt lat="43.22294" lon="0.20106">
        <ele>363.4</ele>
        <time>2024-04-17T15:08:21Z</time>
      </trkpt>
      <trkpt lat="43.22294" lon="0.20107">
        <ele>363.6</ele>
        <time>2024-04-17T15:08:22Z</time>
      </trkpt>
      <trkpt lat="43.22294" lon="0.20107">
        <ele>363.8</ele>
        <time>2024-04-17T15:08:23Z</time>
      </trkpt>
      <trkpt lat="43.22294" lon="0.20108">
        <ele>364</ele>
        <time>2024-04-17T15:08:24Z</time>
      </trkpt>
      <trkpt lat="43.22294" lon="0.20108">
        <ele>364.2</ele>
        <time>2024-04-17T15:08:25Z</time>
      </trkpt>
      <trkpt lat="43.22294" lon="0.20109">
        <ele>364.4</ele>
        <time>2024-04-17T15:08:26Z</time>
      </trkpt>
      <trkpt lat="43.22294" lon="0.20109">
        <ele>364.6</ele>
        <time>2024-04-17T15:08:27Z</time>
      </trkpt>
      <trkpt lat="43.22294" lon="0.20109">
        <ele>364.6</ele>
        <time>2024-04-17T15:08:28Z</time>
      </trkpt>
      <trkpt lat="43.22294" lon="0.20109">
        <ele>364.8</ele>
        <time>2024-04-17T15:08:29Z</time>
      </trkpt>
      <trkpt lat="43.22293" lon="0.2011">
        <ele>364.8</ele>
        <time>2024-04-17T15:08:30Z</time>
      </trkpt>
      <trkpt lat="43.22293" lon="0.20111">
        <ele>365</ele>
        <time>2024-04-17T15:08:31Z</time>
      </trkpt>
      <trkpt lat="43.22292" lon="0.20114">
        <ele>365.2</ele>
        <time>2024-04-17T15:08:32Z</time>
      </trkpt>
      <trkpt lat="43.22292" lon="0.20115">
        <ele>365.2</ele>
        <time>2024-04-17T15:08:33Z</time>
      </trkpt>
      <trkpt lat="43.22291" lon="0.20117">
        <ele>365.4</ele>
        <time>2024-04-17T15:08:34Z</time>
      </trkpt>
      <trkpt lat="43.22291" lon="0.2012">
        <ele>365.6</ele>
        <time>2024-04-17T15:08:35Z</time>
      </trkpt>
      <trkpt lat="43.2229" lon="0.20123">
        <ele>366</ele>
        <time>2024-04-17T15:08:36Z</time>
      </trkpt>
      <trkpt lat="43.22289" lon="0.20124">
        <ele>366</ele>
        <time>2024-04-17T15:08:37Z</time>
      </trkpt>
      <trkpt lat="43.22287" lon="0.20127">
        <ele>366.4</ele>
        <time>2024-04-17T15:08:38Z</time>
      </trkpt>
      <trkpt lat="43.22286" lon="0.20129">
        <ele>366.4</ele>
        <time>2024-04-17T15:08:39Z</time>
      </trkpt>
      <trkpt lat="43.22286" lon="0.2013">
        <ele>366.6</ele>
        <time>2024-04-17T15:08:40Z</time>
      </trkpt>
      <trkpt lat="43.22286" lon="0.2013">
        <ele>366.8</ele>
        <time>2024-04-17T15:08:41Z</time>
      </trkpt>
      <trkpt lat="43.22286" lon="0.2013">
        <ele>366.8</ele>
        <time>2024-04-17T15:08:42Z</time>
      </trkpt>
      <trkpt lat="43.22282" lon="0.20134">
        <ele>367</ele>
        <time>2024-04-17T15:08:43Z</time>
      </trkpt>
      <trkpt lat="43.22282" lon="0.20135">
        <ele>367</ele>
        <time>2024-04-17T15:08:44Z</time>
      </trkpt>
      <trkpt lat="43.2228" lon="0.20136">
        <ele>367.2</ele>
        <time>2024-04-17T15:08:45Z</time>
      </trkpt>
      <trkpt lat="43.22278" lon="0.20138">
        <ele>367.4</ele>
        <time>2024-04-17T15:08:46Z</time>
      </trkpt>
      <trkpt lat="43.22277" lon="0.2014">
        <ele>367.4</ele>
        <time>2024-04-17T15:08:47Z</time>
      </trkpt>
      <trkpt lat="43.22277" lon="0.20141">
        <ele>367.6</ele>
        <time>2024-04-17T15:08:48Z</time>
      </trkpt>
      <trkpt lat="43.22276" lon="0.20142">
        <ele>367.8</ele>
        <time>2024-04-17T15:08:49Z</time>
      </trkpt>
      <trkpt lat="43.22276" lon="0.20142">
        <ele>367.8</ele>
        <time>2024-04-17T15:08:50Z</time>
      </trkpt>
      <trkpt lat="43.22276" lon="0.20143">
        <ele>367.8</ele>
        <time>2024-04-17T15:08:51Z</time>
      </trkpt>
      <trkpt lat="43.22276" lon="0.20144">
        <ele>368</ele>
        <time>2024-04-17T15:08:52Z</time>
      </trkpt>
      <trkpt lat="43.22276" lon="0.20145">
        <ele>368.2</ele>
        <time>2024-04-17T15:08:53Z</time>
      </trkpt>
      <trkpt lat="43.22276" lon="0.20145">
        <ele>368.4</ele>
        <time>2024-04-17T15:08:54Z</time>
      </trkpt>
      <trkpt lat="43.22276" lon="0.20146">
        <ele>368.8</ele>
        <time>2024-04-17T15:08:55Z</time>
      </trkpt>
      <trkpt lat="43.22275" lon="0.20147">
        <ele>368.8</ele>
        <time>2024-04-17T15:08:56Z</time>
      </trkpt>
      <trkpt lat="43.22275" lon="0.20148">
        <ele>368.8</ele>
        <time>2024-04-17T15:08:57Z</time>
      </trkpt>
      <trkpt lat="43.22275" lon="0.20149">
        <ele>369</ele>
        <time>2024-04-17T15:08:58Z</time>
      </trkpt>
      <trkpt lat="43.22275" lon="0.20149">
        <ele>369</ele>
        <time>2024-04-17T15:08:59Z</time>
      </trkpt>
      <trkpt lat="43.22275" lon="0.2015">
        <ele>369.2</ele>
        <time>2024-04-17T15:09:00Z</time>
      </trkpt>
      <trkpt lat="43.22275" lon="0.2015">
        <ele>369.2</ele>
        <time>2024-04-17T15:09:01Z</time>
      </trkpt>
      <trkpt lat="43.22275" lon="0.2015">
        <ele>369.4</ele>
        <time>2024-04-17T15:09:02Z</time>
      </trkpt>
      <trkpt lat="43.22275" lon="0.2015">
        <ele>369.6</ele>
        <time>2024-04-17T15:09:03Z</time>
      </trkpt>
      <trkpt lat="43.22275" lon="0.2015">
        <ele>369.6</ele>
        <time>2024-04-17T15:09:04Z</time>
      </trkpt>
      <trkpt lat="43.22275" lon="0.2015">
        <ele>369.8</ele>
        <time>2024-04-17T15:09:05Z</time>
      </trkpt>
      <trkpt lat="43.22274" lon="0.2015">
        <ele>370</ele>
        <time>2024-04-17T15:09:06Z</time>
      </trkpt>
      <trkpt lat="43.22272" lon="0.20152">
        <ele>370</ele>
        <time>2024-04-17T15:09:07Z</time>
      </trkpt>
      <trkpt lat="43.22271" lon="0.20153">
        <ele>370.2</ele>
        <time>2024-04-17T15:09:08Z</time>
      </trkpt>
      <trkpt lat="43.22271" lon="0.20153">
        <ele>370.2</ele>
        <time>2024-04-17T15:09:09Z</time>
      </trkpt>
      <trkpt lat="43.22271" lon="0.20153">
        <ele>370.6</ele>
        <time>2024-04-17T15:09:10Z</time>
      </trkpt>
      <trkpt lat="43.22271" lon="0.20153">
        <ele>370.6</ele>
        <time>2024-04-17T15:09:11Z</time>
      </trkpt>
      <trkpt lat="43.22271" lon="0.20153">
        <ele>371</ele>
        <time>2024-04-17T15:09:12Z</time>
      </trkpt>
      <trkpt lat="43.22271" lon="0.20153">
        <ele>371.2</ele>
        <time>2024-04-17T15:09:13Z</time>
      </trkpt>
      <trkpt lat="43.22271" lon="0.20154">
        <ele>371.2</ele>
        <time>2024-04-17T15:09:14Z</time>
      </trkpt>
      <trkpt lat="43.2227" lon="0.20156">
        <ele>371.4</ele>
        <time>2024-04-17T15:09:15Z</time>
      </trkpt>
      <trkpt lat="43.22269" lon="0.20158">
        <ele>371.4</ele>
        <time>2024-04-17T15:09:16Z</time>
      </trkpt>
      <trkpt lat="43.22269" lon="0.20161">
        <ele>371.6</ele>
        <time>2024-04-17T15:09:17Z</time>
      </trkpt>
      <trkpt lat="43.22268" lon="0.20163">
        <ele>371.8</ele>
        <time>2024-04-17T15:09:18Z</time>
      </trkpt>
      <trkpt lat="43.22266" lon="0.20166">
        <ele>371.8</ele>
        <time>2024-04-17T15:09:19Z</time>
      </trkpt>
      <trkpt lat="43.22265" lon="0.20169">
        <ele>372</ele>
        <time>2024-04-17T15:09:20Z</time>
      </trkpt>
      <trkpt lat="43.22263" lon="0.20171">
        <ele>372.2</ele>
        <time>2024-04-17T15:09:21Z</time>
      </trkpt>
      <trkpt lat="43.22262" lon="0.20173">
        <ele>372.4</ele>
        <time>2024-04-17T15:09:22Z</time>
      </trkpt>
      <trkpt lat="43.22261" lon="0.20174">
        <ele>372.4</ele>
        <time>2024-04-17T15:09:23Z</time>
      </trkpt>
      <trkpt lat="43.22261" lon="0.20176">
        <ele>372.6</ele>
        <time>2024-04-17T15:09:24Z</time>
      </trkpt>
      <trkpt lat="43.22261" lon="0.20177">
        <ele>372.6</ele>
        <time>2024-04-17T15:09:25Z</time>
      </trkpt>
      <trkpt lat="43.22261" lon="0.20177">
        <ele>372.8</ele>
        <time>2024-04-17T15:09:26Z</time>
      </trkpt>
      <trkpt lat="43.2226" lon="0.20178">
        <ele>372.8</ele>
        <time>2024-04-17T15:09:27Z</time>
      </trkpt>
      <trkpt lat="43.2226" lon="0.20178">
        <ele>373</ele>
        <time>2024-04-17T15:09:28Z</time>
      </trkpt>
      <trkpt lat="43.2226" lon="0.2018">
        <ele>373.4</ele>
        <time>2024-04-17T15:09:29Z</time>
      </trkpt>
      <trkpt lat="43.2226" lon="0.20181">
        <ele>373.4</ele>
        <time>2024-04-17T15:09:30Z</time>
      </trkpt>
      <trkpt lat="43.2226" lon="0.20182">
        <ele>374</ele>
        <time>2024-04-17T15:09:31Z</time>
      </trkpt>
      <trkpt lat="43.2226" lon="0.20183">
        <ele>374.2</ele>
        <time>2024-04-17T15:09:32Z</time>
      </trkpt>
      <trkpt lat="43.22259" lon="0.20185">
        <ele>374.6</ele>
        <time>2024-04-17T15:09:33Z</time>
      </trkpt>
      <trkpt lat="43.22259" lon="0.20188">
        <ele>374.8</ele>
        <time>2024-04-17T15:09:34Z</time>
      </trkpt>
      <trkpt lat="43.22258" lon="0.2019">
        <ele>375.2</ele>
        <time>2024-04-17T15:09:35Z</time>
      </trkpt>
      <trkpt lat="43.22258" lon="0.20191">
        <ele>375.4</ele>
        <time>2024-04-17T15:09:36Z</time>
      </trkpt>
      <trkpt lat="43.22257" lon="0.20192">
        <ele>375.6</ele>
        <time>2024-04-17T15:09:37Z</time>
      </trkpt>
      <trkpt lat="43.22257" lon="0.20193">
        <ele>375.8</ele>
        <time>2024-04-17T15:09:38Z</time>
      </trkpt>
      <trkpt lat="43.22258" lon="0.20195">
        <ele>376</ele>
        <time>2024-04-17T15:09:39Z</time>
      </trkpt>
      <trkpt lat="43.22257" lon="0.20196">
        <ele>376.2</ele>
        <time>2024-04-17T15:09:40Z</time>
      </trkpt>
      <trkpt lat="43.22257" lon="0.20196">
        <ele>376.4</ele>
        <time>2024-04-17T15:09:41Z</time>
      </trkpt>
      <trkpt lat="43.22257" lon="0.20196">
        <ele>376.6</ele>
        <time>2024-04-17T15:09:42Z</time>
      </trkpt>
      <trkpt lat="43.22257" lon="0.20196">
        <ele>376.6</ele>
        <time>2024-04-17T15:09:43Z</time>
      </trkpt>
      <trkpt lat="43.22256" lon="0.202">
        <ele>376.8</ele>
        <time>2024-04-17T15:09:44Z</time>
      </trkpt>
      <trkpt lat="43.22256" lon="0.20201">
        <ele>377</ele>
        <time>2024-04-17T15:09:45Z</time>
      </trkpt>
      <trkpt lat="43.22255" lon="0.20201">
        <ele>377</ele>
        <time>2024-04-17T15:09:46Z</time>
      </trkpt>
      <trkpt lat="43.22254" lon="0.20203">
        <ele>377.2</ele>
        <time>2024-04-17T15:09:47Z</time>
      </trkpt>
      <trkpt lat="43.22253" lon="0.20204">
        <ele>377.2</ele>
        <time>2024-04-17T15:09:48Z</time>
      </trkpt>
      <trkpt lat="43.22251" lon="0.20206">
        <ele>377.2</ele>
        <time>2024-04-17T15:09:49Z</time>
      </trkpt>
      <trkpt lat="43.22249" lon="0.20208">
        <ele>377.2</ele>
        <time>2024-04-17T15:09:50Z</time>
      </trkpt>
      <trkpt lat="43.22248" lon="0.2021">
        <ele>377.2</ele>
        <time>2024-04-17T15:09:51Z</time>
      </trkpt>
      <trkpt lat="43.22247" lon="0.20211">
        <ele>377.4</ele>
        <time>2024-04-17T15:09:52Z</time>
      </trkpt>
      <trkpt lat="43.22247" lon="0.20213">
        <ele>377.4</ele>
        <time>2024-04-17T15:09:53Z</time>
      </trkpt>
      <trkpt lat="43.22245" lon="0.20214">
        <ele>377.4</ele>
        <time>2024-04-17T15:09:54Z</time>
      </trkpt>
      <trkpt lat="43.22243" lon="0.20215">
        <ele>377.6</ele>
        <time>2024-04-17T15:09:55Z</time>
      </trkpt>
      <trkpt lat="43.22242" lon="0.20216">
        <ele>378</ele>
        <time>2024-04-17T15:09:56Z</time>
      </trkpt>
      <trkpt lat="43.22242" lon="0.20216">
        <ele>377.8</ele>
        <time>2024-04-17T15:09:57Z</time>
      </trkpt>
      <trkpt lat="43.22242" lon="0.20216">
        <ele>378.2</ele>
        <time>2024-04-17T15:09:58Z</time>
      </trkpt>
      <trkpt lat="43.22242" lon="0.20216">
        <ele>378.2</ele>
        <time>2024-04-17T15:09:59Z</time>
      </trkpt>
      <trkpt lat="43.22242" lon="0.20218">
        <ele>378.6</ele>
        <time>2024-04-17T15:10:00Z</time>
      </trkpt>
      <trkpt lat="43.22241" lon="0.2022">
        <ele>378.6</ele>
        <time>2024-04-17T15:10:01Z</time>
      </trkpt>
      <trkpt lat="43.2224" lon="0.20221">
        <ele>379</ele>
        <time>2024-04-17T15:10:02Z</time>
      </trkpt>
      <trkpt lat="43.22239" lon="0.20222">
        <ele>379.2</ele>
        <time>2024-04-17T15:10:03Z</time>
      </trkpt>
      <trkpt lat="43.22238" lon="0.20223">
        <ele>379.4</ele>
        <time>2024-04-17T15:10:04Z</time>
      </trkpt>
      <trkpt lat="43.22237" lon="0.20224">
        <ele>379.8</ele>
        <time>2024-04-17T15:10:05Z</time>
      </trkpt>
      <trkpt lat="43.22236" lon="0.20225">
        <ele>380</ele>
        <time>2024-04-17T15:10:06Z</time>
      </trkpt>
      <trkpt lat="43.22235" lon="0.20227">
        <ele>380.2</ele>
        <time>2024-04-17T15:10:07Z</time>
      </trkpt>
      <trkpt lat="43.22234" lon="0.20228">
        <ele>380.2</ele>
        <time>2024-04-17T15:10:08Z</time>
      </trkpt>
      <trkpt lat="43.22234" lon="0.20229">
        <ele>380.4</ele>
        <time>2024-04-17T15:10:09Z</time>
      </trkpt>
      <trkpt lat="43.22232" lon="0.20229">
        <ele>380.4</ele>
        <time>2024-04-17T15:10:10Z</time>
      </trkpt>
      <trkpt lat="43.2223" lon="0.2023">
        <ele>380.6</ele>
        <time>2024-04-17T15:10:11Z</time>
      </trkpt>
      <trkpt lat="43.22229" lon="0.20232">
        <ele>380.8</ele>
        <time>2024-04-17T15:10:12Z</time>
      </trkpt>
      <trkpt lat="43.22227" lon="0.20233">
        <ele>380.8</ele>
        <time>2024-04-17T15:10:13Z</time>
      </trkpt>
      <trkpt lat="43.22225" lon="0.20233">
        <ele>380.8</ele>
        <time>2024-04-17T15:10:14Z</time>
      </trkpt>
      <trkpt lat="43.22224" lon="0.20235">
        <ele>380.8</ele>
        <time>2024-04-17T15:10:15Z</time>
      </trkpt>
      <trkpt lat="43.22223" lon="0.20235">
        <ele>380.8</ele>
        <time>2024-04-17T15:10:16Z</time>
      </trkpt>
      <trkpt lat="43.22222" lon="0.20236">
        <ele>380.8</ele>
        <time>2024-04-17T15:10:17Z</time>
      </trkpt>
      <trkpt lat="43.22221" lon="0.20236">
        <ele>380.8</ele>
        <time>2024-04-17T15:10:18Z</time>
      </trkpt>
      <trkpt lat="43.22219" lon="0.20236">
        <ele>381</ele>
        <time>2024-04-17T15:10:19Z</time>
      </trkpt>
      <trkpt lat="43.22218" lon="0.20236">
        <ele>381</ele>
        <time>2024-04-17T15:10:20Z</time>
      </trkpt>
      <trkpt lat="43.22217" lon="0.20237">
        <ele>381</ele>
        <time>2024-04-17T15:10:21Z</time>
      </trkpt>
      <trkpt lat="43.22216" lon="0.20237">
        <ele>380.8</ele>
        <time>2024-04-17T15:10:22Z</time>
      </trkpt>
      <trkpt lat="43.22214" lon="0.20237">
        <ele>380.8</ele>
        <time>2024-04-17T15:10:23Z</time>
      </trkpt>
      <trkpt lat="43.22212" lon="0.20238">
        <ele>380.8</ele>
        <time>2024-04-17T15:10:24Z</time>
      </trkpt>
      <trkpt lat="43.2221" lon="0.20238">
        <ele>380.8</ele>
        <time>2024-04-17T15:10:25Z</time>
      </trkpt>
      <trkpt lat="43.22208" lon="0.20239">
        <ele>380.8</ele>
        <time>2024-04-17T15:10:26Z</time>
      </trkpt>
      <trkpt lat="43.22206" lon="0.20239">
        <ele>380.8</ele>
        <time>2024-04-17T15:10:27Z</time>
      </trkpt>
      <trkpt lat="43.22204" lon="0.20239">
        <ele>380.8</ele>
        <time>2024-04-17T15:10:28Z</time>
      </trkpt>
      <trkpt lat="43.22202" lon="0.2024">
        <ele>380.8</ele>
        <time>2024-04-17T15:10:29Z</time>
      </trkpt>
      <trkpt lat="43.222" lon="0.2024">
        <ele>380.8</ele>
        <time>2024-04-17T15:10:30Z</time>
      </trkpt>
      <trkpt lat="43.22198" lon="0.20241">
        <ele>380.8</ele>
        <time>2024-04-17T15:10:31Z</time>
      </trkpt>
      <trkpt lat="43.22195" lon="0.20241">
        <ele>380.8</ele>
        <time>2024-04-17T15:10:32Z</time>
      </trkpt>
      <trkpt lat="43.22193" lon="0.20242">
        <ele>380.8</ele>
        <time>2024-04-17T15:10:33Z</time>
      </trkpt>
      <trkpt lat="43.22191" lon="0.20243">
        <ele>380.8</ele>
        <time>2024-04-17T15:10:34Z</time>
      </trkpt>
      <trkpt lat="43.22188" lon="0.20243">
        <ele>380.8</ele>
        <time>2024-04-17T15:10:35Z</time>
      </trkpt>
      <trkpt lat="43.22185" lon="0.20244">
        <ele>381</ele>
        <time>2024-04-17T15:10:36Z</time>
      </trkpt>
      <trkpt lat="43.22182" lon="0.20245">
        <ele>380.8</ele>
        <time>2024-04-17T15:10:37Z</time>
      </trkpt>
      <trkpt lat="43.2218" lon="0.20245">
        <ele>380.8</ele>
        <time>2024-04-17T15:10:38Z</time>
      </trkpt>
      <trkpt lat="43.22178" lon="0.20246">
        <ele>381</ele>
        <time>2024-04-17T15:10:39Z</time>
      </trkpt>
      <trkpt lat="43.22175" lon="0.20246">
        <ele>381</ele>
        <time>2024-04-17T15:10:40Z</time>
      </trkpt>
      <trkpt lat="43.22173" lon="0.20247">
        <ele>381</ele>
        <time>2024-04-17T15:10:41Z</time>
      </trkpt>
      <trkpt lat="43.22171" lon="0.20247">
        <ele>381</ele>
        <time>2024-04-17T15:10:42Z</time>
      </trkpt>
      <trkpt lat="43.22168" lon="0.20248">
        <ele>381</ele>
        <time>2024-04-17T15:10:43Z</time>
      </trkpt>
      <trkpt lat="43.22165" lon="0.20248">
        <ele>381</ele>
        <time>2024-04-17T15:10:44Z</time>
      </trkpt>
      <trkpt lat="43.22162" lon="0.20248">
        <ele>381</ele>
        <time>2024-04-17T15:10:45Z</time>
      </trkpt>
      <trkpt lat="43.22159" lon="0.20249">
        <ele>381</ele>
        <time>2024-04-17T15:10:46Z</time>
      </trkpt>
      <trkpt lat="43.22156" lon="0.20249">
        <ele>381</ele>
        <time>2024-04-17T15:10:47Z</time>
      </trkpt>
      <trkpt lat="43.22153" lon="0.2025">
        <ele>381</ele>
        <time>2024-04-17T15:10:48Z</time>
      </trkpt>
      <trkpt lat="43.2215" lon="0.2025">
        <ele>381</ele>
        <time>2024-04-17T15:10:49Z</time>
      </trkpt>
      <trkpt lat="43.22147" lon="0.20251">
        <ele>381</ele>
        <time>2024-04-17T15:10:50Z</time>
      </trkpt>
      <trkpt lat="43.22144" lon="0.20251">
        <ele>381</ele>
        <time>2024-04-17T15:10:51Z</time>
      </trkpt>
      <trkpt lat="43.22141" lon="0.20251">
        <ele>381</ele>
        <time>2024-04-17T15:10:52Z</time>
      </trkpt>
      <trkpt lat="43.22137" lon="0.20251">
        <ele>381</ele>
        <time>2024-04-17T15:10:53Z</time>
      </trkpt>
      <trkpt lat="43.22134" lon="0.20252">
        <ele>381</ele>
        <time>2024-04-17T15:10:54Z</time>
      </trkpt>
      <trkpt lat="43.2213" lon="0.20252">
        <ele>381.2</ele>
        <time>2024-04-17T15:10:55Z</time>
      </trkpt>
      <trkpt lat="43.22127" lon="0.20252">
        <ele>381.4</ele>
        <time>2024-04-17T15:10:56Z</time>
      </trkpt>
      <trkpt lat="43.22124" lon="0.20253">
        <ele>381.6</ele>
        <time>2024-04-17T15:10:57Z</time>
      </trkpt>
      <trkpt lat="43.22122" lon="0.20253">
        <ele>381.6</ele>
        <time>2024-04-17T15:10:58Z</time>
      </trkpt>
      <trkpt lat="43.22119" lon="0.20253">
        <ele>381.6</ele>
        <time>2024-04-17T15:10:59Z</time>
      </trkpt>
      <trkpt lat="43.22117" lon="0.20254">
        <ele>381.8</ele>
        <time>2024-04-17T15:11:00Z</time>
      </trkpt>
      <trkpt lat="43.22115" lon="0.20254">
        <ele>381.8</ele>
        <time>2024-04-17T15:11:01Z</time>
      </trkpt>
      <trkpt lat="43.22112" lon="0.20254">
        <ele>381.8</ele>
        <time>2024-04-17T15:11:02Z</time>
      </trkpt>
      <trkpt lat="43.2211" lon="0.20254">
        <ele>382</ele>
        <time>2024-04-17T15:11:03Z</time>
      </trkpt>
      <trkpt lat="43.22108" lon="0.20254">
        <ele>382.2</ele>
        <time>2024-04-17T15:11:04Z</time>
      </trkpt>
      <trkpt lat="43.22106" lon="0.20254">
        <ele>382.4</ele>
        <time>2024-04-17T15:11:05Z</time>
      </trkpt>
      <trkpt lat="43.22103" lon="0.20254">
        <ele>382.6</ele>
        <time>2024-04-17T15:11:06Z</time>
      </trkpt>
      <trkpt lat="43.221" lon="0.20254">
        <ele>382.6</ele>
        <time>2024-04-17T15:11:07Z</time>
      </trkpt>
      <trkpt lat="43.22097" lon="0.20255">
        <ele>382.8</ele>
        <time>2024-04-17T15:11:08Z</time>
      </trkpt>
      <trkpt lat="43.22095" lon="0.20255">
        <ele>382.8</ele>
        <time>2024-04-17T15:11:09Z</time>
      </trkpt>
      <trkpt lat="43.22092" lon="0.20255">
        <ele>383</ele>
        <time>2024-04-17T15:11:10Z</time>
      </trkpt>
      <trkpt lat="43.22089" lon="0.20255">
        <ele>383</ele>
        <time>2024-04-17T15:11:11Z</time>
      </trkpt>
      <trkpt lat="43.22087" lon="0.20255">
        <ele>383.2</ele>
        <time>2024-04-17T15:11:12Z</time>
      </trkpt>
      <trkpt lat="43.22084" lon="0.20255">
        <ele>383.4</ele>
        <time>2024-04-17T15:11:13Z</time>
      </trkpt>
      <trkpt lat="43.22082" lon="0.20256">
        <ele>383.4</ele>
        <time>2024-04-17T15:11:14Z</time>
      </trkpt>
      <trkpt lat="43.2208" lon="0.20256">
        <ele>383.4</ele>
        <time>2024-04-17T15:11:15Z</time>
      </trkpt>
      <trkpt lat="43.22078" lon="0.20256">
        <ele>383.6</ele>
        <time>2024-04-17T15:11:16Z</time>
      </trkpt>
      <trkpt lat="43.22076" lon="0.20256">
        <ele>383.8</ele>
        <time>2024-04-17T15:11:17Z</time>
      </trkpt>
      <trkpt lat="43.22073" lon="0.20256">
        <ele>383.8</ele>
        <time>2024-04-17T15:11:18Z</time>
      </trkpt>
      <trkpt lat="43.22071" lon="0.20256">
        <ele>384</ele>
        <time>2024-04-17T15:11:19Z</time>
      </trkpt>
      <trkpt lat="43.22068" lon="0.20256">
        <ele>384</ele>
        <time>2024-04-17T15:11:20Z</time>
      </trkpt>
      <trkpt lat="43.22066" lon="0.20256">
        <ele>384.2</ele>
        <time>2024-04-17T15:11:21Z</time>
      </trkpt>
      <trkpt lat="43.22063" lon="0.20256">
        <ele>384.2</ele>
        <time>2024-04-17T15:11:22Z</time>
      </trkpt>
      <trkpt lat="43.22061" lon="0.20256">
        <ele>384.4</ele>
        <time>2024-04-17T15:11:23Z</time>
      </trkpt>
      <trkpt lat="43.22058" lon="0.20256">
        <ele>384.6</ele>
        <time>2024-04-17T15:11:24Z</time>
      </trkpt>
      <trkpt lat="43.22056" lon="0.20257">
        <ele>384.6</ele>
        <time>2024-04-17T15:11:25Z</time>
      </trkpt>
      <trkpt lat="43.22053" lon="0.20257">
        <ele>384.8</ele>
        <time>2024-04-17T15:11:26Z</time>
      </trkpt>
      <trkpt lat="43.2205" lon="0.20256">
        <ele>385</ele>
        <time>2024-04-17T15:11:27Z</time>
      </trkpt>
      <trkpt lat="43.22047" lon="0.20256">
        <ele>385.2</ele>
        <time>2024-04-17T15:11:28Z</time>
      </trkpt>
      <trkpt lat="43.22044" lon="0.20256">
        <ele>385.2</ele>
        <time>2024-04-17T15:11:29Z</time>
      </trkpt>
      <trkpt lat="43.22041" lon="0.20256">
        <ele>385.2</ele>
        <time>2024-04-17T15:11:30Z</time>
      </trkpt>
      <trkpt lat="43.22038" lon="0.20255">
        <ele>385.4</ele>
        <time>2024-04-17T15:11:31Z</time>
      </trkpt>
      <trkpt lat="43.22035" lon="0.20255">
        <ele>385.4</ele>
        <time>2024-04-17T15:11:32Z</time>
      </trkpt>
      <trkpt lat="43.22031" lon="0.20254">
        <ele>385.4</ele>
        <time>2024-04-17T15:11:33Z</time>
      </trkpt>
      <trkpt lat="43.22028" lon="0.20254">
        <ele>385.4</ele>
        <time>2024-04-17T15:11:34Z</time>
      </trkpt>
      <trkpt lat="43.22025" lon="0.20253">
        <ele>385.4</ele>
        <time>2024-04-17T15:11:35Z</time>
      </trkpt>
      <trkpt lat="43.22021" lon="0.20253">
        <ele>385.2</ele>
        <time>2024-04-17T15:11:36Z</time>
      </trkpt>
      <trkpt lat="43.22018" lon="0.20253">
        <ele>385.2</ele>
        <time>2024-04-17T15:11:37Z</time>
      </trkpt>
      <trkpt lat="43.22014" lon="0.20253">
        <ele>385.2</ele>
        <time>2024-04-17T15:11:38Z</time>
      </trkpt>
      <trkpt lat="43.22011" lon="0.20253">
        <ele>385.2</ele>
        <time>2024-04-17T15:11:39Z</time>
      </trkpt>
      <trkpt lat="43.22008" lon="0.20252">
        <ele>385.2</ele>
        <time>2024-04-17T15:11:40Z</time>
      </trkpt>
      <trkpt lat="43.22004" lon="0.20252">
        <ele>385.2</ele>
        <time>2024-04-17T15:11:41Z</time>
      </trkpt>
      <trkpt lat="43.22" lon="0.20251">
        <ele>385.2</ele>
        <time>2024-04-17T15:11:42Z</time>
      </trkpt>
      <trkpt lat="43.21997" lon="0.2025">
        <ele>385</ele>
        <time>2024-04-17T15:11:43Z</time>
      </trkpt>
      <trkpt lat="43.21993" lon="0.20249">
        <ele>385</ele>
        <time>2024-04-17T15:11:44Z</time>
      </trkpt>
      <trkpt lat="43.21989" lon="0.20249">
        <ele>384.8</ele>
        <time>2024-04-17T15:11:45Z</time>
      </trkpt>
      <trkpt lat="43.21986" lon="0.20247">
        <ele>384.6</ele>
        <time>2024-04-17T15:11:46Z</time>
      </trkpt>
      <trkpt lat="43.21982" lon="0.20246">
        <ele>384.4</ele>
        <time>2024-04-17T15:11:47Z</time>
      </trkpt>
      <trkpt lat="43.21978" lon="0.20244">
        <ele>384.2</ele>
        <time>2024-04-17T15:11:48Z</time>
      </trkpt>
      <trkpt lat="43.21974" lon="0.20242">
        <ele>384</ele>
        <time>2024-04-17T15:11:49Z</time>
      </trkpt>
      <trkpt lat="43.21971" lon="0.2024">
        <ele>383.8</ele>
        <time>2024-04-17T15:11:50Z</time>
      </trkpt>
      <trkpt lat="43.21967" lon="0.20237">
        <ele>383.6</ele>
        <time>2024-04-17T15:11:51Z</time>
      </trkpt>
      <trkpt lat="43.21964" lon="0.20235">
        <ele>383.4</ele>
        <time>2024-04-17T15:11:52Z</time>
      </trkpt>
      <trkpt lat="43.2196" lon="0.20231">
        <ele>383.2</ele>
        <time>2024-04-17T15:11:53Z</time>
      </trkpt>
      <trkpt lat="43.21956" lon="0.20228">
        <ele>382.8</ele>
        <time>2024-04-17T15:11:54Z</time>
      </trkpt>
      <trkpt lat="43.21952" lon="0.20225">
        <ele>382.6</ele>
        <time>2024-04-17T15:11:55Z</time>
      </trkpt>
      <trkpt lat="43.21947" lon="0.20223">
        <ele>382.6</ele>
        <time>2024-04-17T15:11:56Z</time>
      </trkpt>
      <trkpt lat="43.21942" lon="0.2022">
        <ele>382.4</ele>
        <time>2024-04-17T15:11:57Z</time>
      </trkpt>
      <trkpt lat="43.21937" lon="0.20216">
        <ele>382.4</ele>
        <time>2024-04-17T15:11:58Z</time>
      </trkpt>
      <trkpt lat="43.21933" lon="0.20212">
        <ele>382</ele>
        <time>2024-04-17T15:11:59Z</time>
      </trkpt>
      <trkpt lat="43.21928" lon="0.20206">
        <ele>381.8</ele>
        <time>2024-04-17T15:12:00Z</time>
      </trkpt>
      <trkpt lat="43.21923" lon="0.20199">
        <ele>381.4</ele>
        <time>2024-04-17T15:12:01Z</time>
      </trkpt>
      <trkpt lat="43.21919" lon="0.20191">
        <ele>380.8</ele>
        <time>2024-04-17T15:12:02Z</time>
      </trkpt>
      <trkpt lat="43.21914" lon="0.20184">
        <ele>380</ele>
        <time>2024-04-17T15:12:03Z</time>
      </trkpt>
      <trkpt lat="43.21909" lon="0.20177">
        <ele>379</ele>
        <time>2024-04-17T15:12:04Z</time>
      </trkpt>
      <trkpt lat="43.21904" lon="0.2017">
        <ele>378.6</ele>
        <time>2024-04-17T15:12:05Z</time>
      </trkpt>
      <trkpt lat="43.21899" lon="0.20164">
        <ele>377.4</ele>
        <time>2024-04-17T15:12:06Z</time>
      </trkpt>
      <trkpt lat="43.21894" lon="0.20157">
        <ele>376.8</ele>
        <time>2024-04-17T15:12:07Z</time>
      </trkpt>
      <trkpt lat="43.21889" lon="0.2015">
        <ele>376.4</ele>
        <time>2024-04-17T15:12:08Z</time>
      </trkpt>
      <trkpt lat="43.21885" lon="0.20143">
        <ele>376</ele>
        <time>2024-04-17T15:12:09Z</time>
      </trkpt>
      <trkpt lat="43.2188" lon="0.20137">
        <ele>375.4</ele>
        <time>2024-04-17T15:12:10Z</time>
      </trkpt>
      <trkpt lat="43.21875" lon="0.2013">
        <ele>375.2</ele>
        <time>2024-04-17T15:12:11Z</time>
      </trkpt>
      <trkpt lat="43.21871" lon="0.20124">
        <ele>375</ele>
        <time>2024-04-17T15:12:12Z</time>
      </trkpt>
      <trkpt lat="43.21867" lon="0.20118">
        <ele>374.6</ele>
        <time>2024-04-17T15:12:13Z</time>
      </trkpt>
      <trkpt lat="43.21863" lon="0.20112">
        <ele>374.6</ele>
        <time>2024-04-17T15:12:14Z</time>
      </trkpt>
      <trkpt lat="43.21859" lon="0.20106">
        <ele>374.4</ele>
        <time>2024-04-17T15:12:15Z</time>
      </trkpt>
      <trkpt lat="43.21855" lon="0.201">
        <ele>374.2</ele>
        <time>2024-04-17T15:12:16Z</time>
      </trkpt>
      <trkpt lat="43.2185" lon="0.20095">
        <ele>374</ele>
        <time>2024-04-17T15:12:17Z</time>
      </trkpt>
      <trkpt lat="43.21846" lon="0.20089">
        <ele>373.8</ele>
        <time>2024-04-17T15:12:18Z</time>
      </trkpt>
      <trkpt lat="43.21842" lon="0.20084">
        <ele>373.6</ele>
        <time>2024-04-17T15:12:19Z</time>
      </trkpt>
      <trkpt lat="43.21839" lon="0.20077">
        <ele>373.4</ele>
        <time>2024-04-17T15:12:20Z</time>
      </trkpt>
      <trkpt lat="43.21837" lon="0.20071">
        <ele>373.2</ele>
        <time>2024-04-17T15:12:21Z</time>
      </trkpt>
      <trkpt lat="43.21837" lon="0.20065">
        <ele>373.4</ele>
        <time>2024-04-17T15:12:22Z</time>
      </trkpt>
      <trkpt lat="43.21837" lon="0.20059">
        <ele>373.4</ele>
        <time>2024-04-17T15:12:23Z</time>
      </trkpt>
      <trkpt lat="43.21837" lon="0.20054">
        <ele>373.4</ele>
        <time>2024-04-17T15:12:24Z</time>
      </trkpt>
      <trkpt lat="43.21837" lon="0.2005">
        <ele>373.4</ele>
        <time>2024-04-17T15:12:25Z</time>
      </trkpt>
      <trkpt lat="43.21836" lon="0.20045">
        <ele>373.2</ele>
        <time>2024-04-17T15:12:26Z</time>
      </trkpt>
      <trkpt lat="43.21836" lon="0.2004">
        <ele>373</ele>
        <time>2024-04-17T15:12:27Z</time>
      </trkpt>
      <trkpt lat="43.21835" lon="0.20036">
        <ele>372.8</ele>
        <time>2024-04-17T15:12:28Z</time>
      </trkpt>
      <trkpt lat="43.21835" lon="0.20032">
        <ele>372.8</ele>
        <time>2024-04-17T15:12:29Z</time>
      </trkpt>
      <trkpt lat="43.21836" lon="0.20028">
        <ele>372.8</ele>
        <time>2024-04-17T15:12:30Z</time>
      </trkpt>
      <trkpt lat="43.21836" lon="0.20024">
        <ele>373</ele>
        <time>2024-04-17T15:12:31Z</time>
      </trkpt>
      <trkpt lat="43.21835" lon="0.2002">
        <ele>373</ele>
        <time>2024-04-17T15:12:32Z</time>
      </trkpt>
      <trkpt lat="43.21835" lon="0.20016">
        <ele>373</ele>
        <time>2024-04-17T15:12:33Z</time>
      </trkpt>
      <trkpt lat="43.21834" lon="0.20012">
        <ele>373</ele>
        <time>2024-04-17T15:12:34Z</time>
      </trkpt>
      <trkpt lat="43.21833" lon="0.20009">
        <ele>373</ele>
        <time>2024-04-17T15:12:35Z</time>
      </trkpt>
      <trkpt lat="43.21831" lon="0.20006">
        <ele>373</ele>
        <time>2024-04-17T15:12:36Z</time>
      </trkpt>
      <trkpt lat="43.21829" lon="0.20004">
        <ele>373</ele>
        <time>2024-04-17T15:12:37Z</time>
      </trkpt>
      <trkpt lat="43.21827" lon="0.20003">
        <ele>373.2</ele>
        <time>2024-04-17T15:12:38Z</time>
      </trkpt>
      <trkpt lat="43.21825" lon="0.20002">
        <ele>373.4</ele>
        <time>2024-04-17T15:12:39Z</time>
      </trkpt>
      <trkpt lat="43.21822" lon="0.2">
        <ele>373.6</ele>
        <time>2024-04-17T15:12:40Z</time>
      </trkpt>
      <trkpt lat="43.2182" lon="0.19999">
        <ele>373.8</ele>
        <time>2024-04-17T15:12:41Z</time>
      </trkpt>
      <trkpt lat="43.21817" lon="0.19999">
        <ele>374</ele>
        <time>2024-04-17T15:12:42Z</time>
      </trkpt>
      <trkpt lat="43.21815" lon="0.19998">
        <ele>374</ele>
        <time>2024-04-17T15:12:43Z</time>
      </trkpt>
      <trkpt lat="43.21812" lon="0.19998">
        <ele>374</ele>
        <time>2024-04-17T15:12:44Z</time>
      </trkpt>
      <trkpt lat="43.2181" lon="0.19997">
        <ele>374</ele>
        <time>2024-04-17T15:12:45Z</time>
      </trkpt>
      <trkpt lat="43.21807" lon="0.19996">
        <ele>374.2</ele>
        <time>2024-04-17T15:12:46Z</time>
      </trkpt>
      <trkpt lat="43.21804" lon="0.19995">
        <ele>374.2</ele>
        <time>2024-04-17T15:12:47Z</time>
      </trkpt>
      <trkpt lat="43.21802" lon="0.19995">
        <ele>374.2</ele>
        <time>2024-04-17T15:12:48Z</time>
      </trkpt>
      <trkpt lat="43.21799" lon="0.19994">
        <ele>374.2</ele>
        <time>2024-04-17T15:12:49Z</time>
      </trkpt>
      <trkpt lat="43.21796" lon="0.19993">
        <ele>374.2</ele>
        <time>2024-04-17T15:12:50Z</time>
      </trkpt>
      <trkpt lat="43.21794" lon="0.19992">
        <ele>374.4</ele>
        <time>2024-04-17T15:12:51Z</time>
      </trkpt>
      <trkpt lat="43.21791" lon="0.19991">
        <ele>374.4</ele>
        <time>2024-04-17T15:12:52Z</time>
      </trkpt>
      <trkpt lat="43.21789" lon="0.1999">
        <ele>374.4</ele>
        <time>2024-04-17T15:12:53Z</time>
      </trkpt>
      <trkpt lat="43.21787" lon="0.19989">
        <ele>374.4</ele>
        <time>2024-04-17T15:12:54Z</time>
      </trkpt>
      <trkpt lat="43.21785" lon="0.19989">
        <ele>374.6</ele>
        <time>2024-04-17T15:12:55Z</time>
      </trkpt>
      <trkpt lat="43.21783" lon="0.19988">
        <ele>374.6</ele>
        <time>2024-04-17T15:12:56Z</time>
      </trkpt>
      <trkpt lat="43.2178" lon="0.19986">
        <ele>374.8</ele>
        <time>2024-04-17T15:12:57Z</time>
      </trkpt>
      <trkpt lat="43.21778" lon="0.19985">
        <ele>374.8</ele>
        <time>2024-04-17T15:12:58Z</time>
      </trkpt>
      <trkpt lat="43.21775" lon="0.19984">
        <ele>374.8</ele>
        <time>2024-04-17T15:12:59Z</time>
      </trkpt>
      <trkpt lat="43.21773" lon="0.19983">
        <ele>375</ele>
        <time>2024-04-17T15:13:00Z</time>
      </trkpt>
      <trkpt lat="43.2177" lon="0.19982">
        <ele>375</ele>
        <time>2024-04-17T15:13:01Z</time>
      </trkpt>
      <trkpt lat="43.21768" lon="0.19981">
        <ele>375</ele>
        <time>2024-04-17T15:13:02Z</time>
      </trkpt>
      <trkpt lat="43.21765" lon="0.19981">
        <ele>375.2</ele>
        <time>2024-04-17T15:13:03Z</time>
      </trkpt>
      <trkpt lat="43.21763" lon="0.1998">
        <ele>375.2</ele>
        <time>2024-04-17T15:13:04Z</time>
      </trkpt>
      <trkpt lat="43.2176" lon="0.19978">
        <ele>375.2</ele>
        <time>2024-04-17T15:13:05Z</time>
      </trkpt>
      <trkpt lat="43.21758" lon="0.19978">
        <ele>375.2</ele>
        <time>2024-04-17T15:13:06Z</time>
      </trkpt>
      <trkpt lat="43.21755" lon="0.19977">
        <ele>375.4</ele>
        <time>2024-04-17T15:13:07Z</time>
      </trkpt>
      <trkpt lat="43.21752" lon="0.19976">
        <ele>375.4</ele>
        <time>2024-04-17T15:13:08Z</time>
      </trkpt>
      <trkpt lat="43.2175" lon="0.19975">
        <ele>375.6</ele>
        <time>2024-04-17T15:13:09Z</time>
      </trkpt>
      <trkpt lat="43.21747" lon="0.19975">
        <ele>375.8</ele>
        <time>2024-04-17T15:13:10Z</time>
      </trkpt>
      <trkpt lat="43.21745" lon="0.19974">
        <ele>376</ele>
        <time>2024-04-17T15:13:11Z</time>
      </trkpt>
      <trkpt lat="43.21743" lon="0.19974">
        <ele>376</ele>
        <time>2024-04-17T15:13:12Z</time>
      </trkpt>
      <trkpt lat="43.21741" lon="0.19973">
        <ele>376.2</ele>
        <time>2024-04-17T15:13:13Z</time>
      </trkpt>
      <trkpt lat="43.21739" lon="0.19972">
        <ele>376.2</ele>
        <time>2024-04-17T15:13:14Z</time>
      </trkpt>
      <trkpt lat="43.21737" lon="0.19972">
        <ele>376.2</ele>
        <time>2024-04-17T15:13:15Z</time>
      </trkpt>
      <trkpt lat="43.21735" lon="0.19972">
        <ele>376.4</ele>
        <time>2024-04-17T15:13:16Z</time>
      </trkpt>
      <trkpt lat="43.21733" lon="0.19971">
        <ele>376.6</ele>
        <time>2024-04-17T15:13:17Z</time>
      </trkpt>
      <trkpt lat="43.21731" lon="0.1997">
        <ele>376.8</ele>
        <time>2024-04-17T15:13:18Z</time>
      </trkpt>
      <trkpt lat="43.21729" lon="0.19969">
        <ele>377</ele>
        <time>2024-04-17T15:13:19Z</time>
      </trkpt>
      <trkpt lat="43.21727" lon="0.19968">
        <ele>377</ele>
        <time>2024-04-17T15:13:20Z</time>
      </trkpt>
      <trkpt lat="43.21726" lon="0.19968">
        <ele>377.2</ele>
        <time>2024-04-17T15:13:21Z</time>
      </trkpt>
      <trkpt lat="43.21723" lon="0.19967">
        <ele>377.2</ele>
        <time>2024-04-17T15:13:22Z</time>
      </trkpt>
      <trkpt lat="43.21721" lon="0.19966">
        <ele>377.4</ele>
        <time>2024-04-17T15:13:23Z</time>
      </trkpt>
      <trkpt lat="43.21718" lon="0.19966">
        <ele>377.6</ele>
        <time>2024-04-17T15:13:24Z</time>
      </trkpt>
      <trkpt lat="43.21716" lon="0.19965">
        <ele>377.8</ele>
        <time>2024-04-17T15:13:25Z</time>
      </trkpt>
      <trkpt lat="43.21714" lon="0.19964">
        <ele>377.8</ele>
        <time>2024-04-17T15:13:26Z</time>
      </trkpt>
      <trkpt lat="43.21712" lon="0.19963">
        <ele>377.8</ele>
        <time>2024-04-17T15:13:27Z</time>
      </trkpt>
      <trkpt lat="43.2171" lon="0.19963">
        <ele>378</ele>
        <time>2024-04-17T15:13:28Z</time>
      </trkpt>
      <trkpt lat="43.21707" lon="0.19962">
        <ele>378</ele>
        <time>2024-04-17T15:13:29Z</time>
      </trkpt>
      <trkpt lat="43.21706" lon="0.19962">
        <ele>378</ele>
        <time>2024-04-17T15:13:30Z</time>
      </trkpt>
      <trkpt lat="43.21704" lon="0.19962">
        <ele>378.2</ele>
        <time>2024-04-17T15:13:31Z</time>
      </trkpt>
      <trkpt lat="43.21702" lon="0.19961">
        <ele>378.2</ele>
        <time>2024-04-17T15:13:32Z</time>
      </trkpt>
      <trkpt lat="43.217" lon="0.1996">
        <ele>378.4</ele>
        <time>2024-04-17T15:13:33Z</time>
      </trkpt>
      <trkpt lat="43.21699" lon="0.1996">
        <ele>378.8</ele>
        <time>2024-04-17T15:13:34Z</time>
      </trkpt>
      <trkpt lat="43.21697" lon="0.19958">
        <ele>379</ele>
        <time>2024-04-17T15:13:35Z</time>
      </trkpt>
      <trkpt lat="43.21695" lon="0.19958">
        <ele>379</ele>
        <time>2024-04-17T15:13:36Z</time>
      </trkpt>
      <trkpt lat="43.21693" lon="0.19957">
        <ele>379.4</ele>
        <time>2024-04-17T15:13:37Z</time>
      </trkpt>
      <trkpt lat="43.21691" lon="0.19956">
        <ele>379.4</ele>
        <time>2024-04-17T15:13:38Z</time>
      </trkpt>
      <trkpt lat="43.21689" lon="0.19956">
        <ele>379.6</ele>
        <time>2024-04-17T15:13:39Z</time>
      </trkpt>
      <trkpt lat="43.21687" lon="0.19955">
        <ele>379.6</ele>
        <time>2024-04-17T15:13:40Z</time>
      </trkpt>
      <trkpt lat="43.21684" lon="0.19954">
        <ele>379.6</ele>
        <time>2024-04-17T15:13:41Z</time>
      </trkpt>
      <trkpt lat="43.21683" lon="0.19953">
        <ele>379.8</ele>
        <time>2024-04-17T15:13:42Z</time>
      </trkpt>
      <trkpt lat="43.21681" lon="0.19951">
        <ele>380</ele>
        <time>2024-04-17T15:13:43Z</time>
      </trkpt>
      <trkpt lat="43.2168" lon="0.1995">
        <ele>380</ele>
        <time>2024-04-17T15:13:44Z</time>
      </trkpt>
      <trkpt lat="43.21678" lon="0.1995">
        <ele>380</ele>
        <time>2024-04-17T15:13:45Z</time>
      </trkpt>
      <trkpt lat="43.21676" lon="0.19949">
        <ele>380.2</ele>
        <time>2024-04-17T15:13:46Z</time>
      </trkpt>
      <trkpt lat="43.21674" lon="0.19948">
        <ele>380.2</ele>
        <time>2024-04-17T15:13:47Z</time>
      </trkpt>
      <trkpt lat="43.21672" lon="0.19948">
        <ele>380.4</ele>
        <time>2024-04-17T15:13:48Z</time>
      </trkpt>
      <trkpt lat="43.21671" lon="0.19948">
        <ele>380.4</ele>
        <time>2024-04-17T15:13:49Z</time>
      </trkpt>
      <trkpt lat="43.21669" lon="0.19948">
        <ele>380.6</ele>
        <time>2024-04-17T15:13:50Z</time>
      </trkpt>
      <trkpt lat="43.21668" lon="0.19947">
        <ele>380.6</ele>
        <time>2024-04-17T15:13:51Z</time>
      </trkpt>
      <trkpt lat="43.21666" lon="0.19947">
        <ele>380.6</ele>
        <time>2024-04-17T15:13:52Z</time>
      </trkpt>
      <trkpt lat="43.21664" lon="0.19946">
        <ele>381</ele>
        <time>2024-04-17T15:13:53Z</time>
      </trkpt>
      <trkpt lat="43.21662" lon="0.19946">
        <ele>381</ele>
        <time>2024-04-17T15:13:54Z</time>
      </trkpt>
      <trkpt lat="43.2166" lon="0.19945">
        <ele>381.4</ele>
        <time>2024-04-17T15:13:55Z</time>
      </trkpt>
      <trkpt lat="43.21658" lon="0.19945">
        <ele>381.4</ele>
        <time>2024-04-17T15:13:56Z</time>
      </trkpt>
      <trkpt lat="43.21657" lon="0.19945">
        <ele>381.6</ele>
        <time>2024-04-17T15:13:57Z</time>
      </trkpt>
      <trkpt lat="43.21655" lon="0.19944">
        <ele>381.6</ele>
        <time>2024-04-17T15:13:58Z</time>
      </trkpt>
      <trkpt lat="43.21653" lon="0.19943">
        <ele>381.6</ele>
        <time>2024-04-17T15:13:59Z</time>
      </trkpt>
      <trkpt lat="43.21651" lon="0.19943">
        <ele>381.8</ele>
        <time>2024-04-17T15:14:00Z</time>
      </trkpt>
      <trkpt lat="43.2165" lon="0.19943">
        <ele>381.8</ele>
        <time>2024-04-17T15:14:01Z</time>
      </trkpt>
      <trkpt lat="43.21648" lon="0.19942">
        <ele>382</ele>
        <time>2024-04-17T15:14:02Z</time>
      </trkpt>
      <trkpt lat="43.21646" lon="0.19941">
        <ele>382.2</ele>
        <time>2024-04-17T15:14:03Z</time>
      </trkpt>
      <trkpt lat="43.21645" lon="0.19941">
        <ele>382.4</ele>
        <time>2024-04-17T15:14:04Z</time>
      </trkpt>
      <trkpt lat="43.21643" lon="0.19941">
        <ele>382.4</ele>
        <time>2024-04-17T15:14:05Z</time>
      </trkpt>
      <trkpt lat="43.21642" lon="0.19941">
        <ele>382.4</ele>
        <time>2024-04-17T15:14:06Z</time>
      </trkpt>
      <trkpt lat="43.2164" lon="0.19941">
        <ele>382.6</ele>
        <time>2024-04-17T15:14:07Z</time>
      </trkpt>
      <trkpt lat="43.21638" lon="0.1994">
        <ele>382.8</ele>
        <time>2024-04-17T15:14:08Z</time>
      </trkpt>
      <trkpt lat="43.21637" lon="0.1994">
        <ele>383.2</ele>
        <time>2024-04-17T15:14:09Z</time>
      </trkpt>
      <trkpt lat="43.21635" lon="0.1994">
        <ele>383.2</ele>
        <time>2024-04-17T15:14:10Z</time>
      </trkpt>
      <trkpt lat="43.21634" lon="0.1994">
        <ele>383.6</ele>
        <time>2024-04-17T15:14:11Z</time>
      </trkpt>
      <trkpt lat="43.21633" lon="0.1994">
        <ele>383.8</ele>
        <time>2024-04-17T15:14:12Z</time>
      </trkpt>
      <trkpt lat="43.21632" lon="0.19939">
        <ele>384</ele>
        <time>2024-04-17T15:14:13Z</time>
      </trkpt>
      <trkpt lat="43.21631" lon="0.19939">
        <ele>384</ele>
        <time>2024-04-17T15:14:14Z</time>
      </trkpt>
      <trkpt lat="43.21629" lon="0.1994">
        <ele>384.4</ele>
        <time>2024-04-17T15:14:15Z</time>
      </trkpt>
      <trkpt lat="43.21628" lon="0.1994">
        <ele>384.4</ele>
        <time>2024-04-17T15:14:16Z</time>
      </trkpt>
      <trkpt lat="43.21626" lon="0.1994">
        <ele>384.4</ele>
        <time>2024-04-17T15:14:17Z</time>
      </trkpt>
      <trkpt lat="43.21624" lon="0.1994">
        <ele>384.6</ele>
        <time>2024-04-17T15:14:18Z</time>
      </trkpt>
      <trkpt lat="43.21622" lon="0.1994">
        <ele>384.6</ele>
        <time>2024-04-17T15:14:19Z</time>
      </trkpt>
      <trkpt lat="43.2162" lon="0.1994">
        <ele>384.8</ele>
        <time>2024-04-17T15:14:20Z</time>
      </trkpt>
      <trkpt lat="43.21618" lon="0.19941">
        <ele>384.8</ele>
        <time>2024-04-17T15:14:21Z</time>
      </trkpt>
      <trkpt lat="43.21615" lon="0.19941">
        <ele>385.2</ele>
        <time>2024-04-17T15:14:22Z</time>
      </trkpt>
      <trkpt lat="43.21613" lon="0.19941">
        <ele>385.2</ele>
        <time>2024-04-17T15:14:23Z</time>
      </trkpt>
      <trkpt lat="43.21611" lon="0.19941">
        <ele>385.2</ele>
        <time>2024-04-17T15:14:24Z</time>
      </trkpt>
      <trkpt lat="43.21609" lon="0.19942">
        <ele>385.4</ele>
        <time>2024-04-17T15:14:25Z</time>
      </trkpt>
      <trkpt lat="43.21606" lon="0.19942">
        <ele>385.8</ele>
        <time>2024-04-17T15:14:26Z</time>
      </trkpt>
      <trkpt lat="43.21604" lon="0.19942">
        <ele>385.8</ele>
        <time>2024-04-17T15:14:27Z</time>
      </trkpt>
      <trkpt lat="43.21602" lon="0.19942">
        <ele>385.8</ele>
        <time>2024-04-17T15:14:28Z</time>
      </trkpt>
      <trkpt lat="43.216" lon="0.19942">
        <ele>386</ele>
        <time>2024-04-17T15:14:29Z</time>
      </trkpt>
      <trkpt lat="43.21598" lon="0.19942">
        <ele>386</ele>
        <time>2024-04-17T15:14:30Z</time>
      </trkpt>
      <trkpt lat="43.21596" lon="0.19942">
        <ele>386.4</ele>
        <time>2024-04-17T15:14:31Z</time>
      </trkpt>
      <trkpt lat="43.21593" lon="0.19943">
        <ele>386.4</ele>
        <time>2024-04-17T15:14:32Z</time>
      </trkpt>
      <trkpt lat="43.21591" lon="0.19943">
        <ele>386.4</ele>
        <time>2024-04-17T15:14:33Z</time>
      </trkpt>
      <trkpt lat="43.21589" lon="0.19943">
        <ele>386.4</ele>
        <time>2024-04-17T15:14:34Z</time>
      </trkpt>
      <trkpt lat="43.21587" lon="0.19943">
        <ele>386.4</ele>
        <time>2024-04-17T15:14:35Z</time>
      </trkpt>
      <trkpt lat="43.21585" lon="0.19943">
        <ele>386.6</ele>
        <time>2024-04-17T15:14:36Z</time>
      </trkpt>
      <trkpt lat="43.21583" lon="0.19943">
        <ele>386.6</ele>
        <time>2024-04-17T15:14:37Z</time>
      </trkpt>
      <trkpt lat="43.21581" lon="0.19943">
        <ele>386.8</ele>
        <time>2024-04-17T15:14:38Z</time>
      </trkpt>
      <trkpt lat="43.2158" lon="0.19943">
        <ele>386.8</ele>
        <time>2024-04-17T15:14:39Z</time>
      </trkpt>
      <trkpt lat="43.21578" lon="0.19943">
        <ele>387</ele>
        <time>2024-04-17T15:14:40Z</time>
      </trkpt>
      <trkpt lat="43.21576" lon="0.19943">
        <ele>387</ele>
        <time>2024-04-17T15:14:41Z</time>
      </trkpt>
      <trkpt lat="43.21575" lon="0.19943">
        <ele>387.2</ele>
        <time>2024-04-17T15:14:42Z</time>
      </trkpt>
      <trkpt lat="43.21574" lon="0.19942">
        <ele>387.2</ele>
        <time>2024-04-17T15:14:43Z</time>
      </trkpt>
      <trkpt lat="43.21572" lon="0.19942">
        <ele>387.2</ele>
        <time>2024-04-17T15:14:44Z</time>
      </trkpt>
      <trkpt lat="43.21572" lon="0.19941">
        <ele>387.2</ele>
        <time>2024-04-17T15:14:45Z</time>
      </trkpt>
      <trkpt lat="43.21571" lon="0.19941">
        <ele>387.2</ele>
        <time>2024-04-17T15:14:46Z</time>
      </trkpt>
      <trkpt lat="43.21571" lon="0.19941">
        <ele>387.2</ele>
        <time>2024-04-17T15:14:47Z</time>
      </trkpt>
      <trkpt lat="43.21571" lon="0.19941">
        <ele>387.2</ele>
        <time>2024-04-17T15:14:48Z</time>
      </trkpt>
      <trkpt lat="43.21571" lon="0.19941">
        <ele>387.2</ele>
        <time>2024-04-17T15:14:49Z</time>
      </trkpt>
      <trkpt lat="43.21569" lon="0.19941">
        <ele>387.2</ele>
        <time>2024-04-17T15:14:50Z</time>
      </trkpt>
      <trkpt lat="43.21567" lon="0.19941">
        <ele>387.2</ele>
        <time>2024-04-17T15:14:51Z</time>
      </trkpt>
      <trkpt lat="43.21565" lon="0.1994">
        <ele>387.2</ele>
        <time>2024-04-17T15:14:52Z</time>
      </trkpt>
      <trkpt lat="43.21562" lon="0.1994">
        <ele>387.2</ele>
        <time>2024-04-17T15:14:53Z</time>
      </trkpt>
      <trkpt lat="43.2156" lon="0.19941">
        <ele>387.2</ele>
        <time>2024-04-17T15:14:54Z</time>
      </trkpt>
      <trkpt lat="43.21557" lon="0.19942">
        <ele>387.2</ele>
        <time>2024-04-17T15:14:55Z</time>
      </trkpt>
      <trkpt lat="43.21555" lon="0.19943">
        <ele>387.2</ele>
        <time>2024-04-17T15:14:56Z</time>
      </trkpt>
      <trkpt lat="43.21553" lon="0.19945">
        <ele>387</ele>
        <time>2024-04-17T15:14:57Z</time>
      </trkpt>
      <trkpt lat="43.21551" lon="0.19946">
        <ele>386.8</ele>
        <time>2024-04-17T15:14:58Z</time>
      </trkpt>
      <trkpt lat="43.2155" lon="0.19947">
        <ele>386.6</ele>
        <time>2024-04-17T15:14:59Z</time>
      </trkpt>
      <trkpt lat="43.21547" lon="0.19947">
        <ele>386.6</ele>
        <time>2024-04-17T15:15:00Z</time>
      </trkpt>
      <trkpt lat="43.21545" lon="0.19948">
        <ele>386.6</ele>
        <time>2024-04-17T15:15:01Z</time>
      </trkpt>
      <trkpt lat="43.21543" lon="0.19949">
        <ele>386.4</ele>
        <time>2024-04-17T15:15:02Z</time>
      </trkpt>
      <trkpt lat="43.21541" lon="0.19949">
        <ele>386.4</ele>
        <time>2024-04-17T15:15:03Z</time>
      </trkpt>
      <trkpt lat="43.21538" lon="0.19949">
        <ele>386.4</ele>
        <time>2024-04-17T15:15:04Z</time>
      </trkpt>
      <trkpt lat="43.21536" lon="0.1995">
        <ele>386.4</ele>
        <time>2024-04-17T15:15:05Z</time>
      </trkpt>
      <trkpt lat="43.21533" lon="0.19951">
        <ele>386.4</ele>
        <time>2024-04-17T15:15:06Z</time>
      </trkpt>
      <trkpt lat="43.2153" lon="0.19952">
        <ele>386.4</ele>
        <time>2024-04-17T15:15:07Z</time>
      </trkpt>
      <trkpt lat="43.21527" lon="0.19953">
        <ele>386.2</ele>
        <time>2024-04-17T15:15:08Z</time>
      </trkpt>
      <trkpt lat="43.21525" lon="0.19955">
        <ele>386.2</ele>
        <time>2024-04-17T15:15:09Z</time>
      </trkpt>
      <trkpt lat="43.21522" lon="0.19957">
        <ele>386.2</ele>
        <time>2024-04-17T15:15:10Z</time>
      </trkpt>
      <trkpt lat="43.21519" lon="0.19958">
        <ele>386.2</ele>
        <time>2024-04-17T15:15:11Z</time>
      </trkpt>
      <trkpt lat="43.21516" lon="0.1996">
        <ele>386</ele>
        <time>2024-04-17T15:15:12Z</time>
      </trkpt>
      <trkpt lat="43.21513" lon="0.19961">
        <ele>386</ele>
        <time>2024-04-17T15:15:13Z</time>
      </trkpt>
      <trkpt lat="43.21511" lon="0.19961">
        <ele>386</ele>
        <time>2024-04-17T15:15:14Z</time>
      </trkpt>
      <trkpt lat="43.21508" lon="0.19962">
        <ele>386</ele>
        <time>2024-04-17T15:15:15Z</time>
      </trkpt>
      <trkpt lat="43.21505" lon="0.19962">
        <ele>386</ele>
        <time>2024-04-17T15:15:16Z</time>
      </trkpt>
      <trkpt lat="43.21501" lon="0.19963">
        <ele>386</ele>
        <time>2024-04-17T15:15:17Z</time>
      </trkpt>
      <trkpt lat="43.21497" lon="0.19964">
        <ele>386</ele>
        <time>2024-04-17T15:15:18Z</time>
      </trkpt>
      <trkpt lat="43.21493" lon="0.19964">
        <ele>385.8</ele>
        <time>2024-04-17T15:15:19Z</time>
      </trkpt>
      <trkpt lat="43.21489" lon="0.19964">
        <ele>385.8</ele>
        <time>2024-04-17T15:15:20Z</time>
      </trkpt>
      <trkpt lat="43.21485" lon="0.19964">
        <ele>385.8</ele>
        <time>2024-04-17T15:15:21Z</time>
      </trkpt>
      <trkpt lat="43.2148" lon="0.19964">
        <ele>385.8</ele>
        <time>2024-04-17T15:15:22Z</time>
      </trkpt>
      <trkpt lat="43.21476" lon="0.19964">
        <ele>385.8</ele>
        <time>2024-04-17T15:15:23Z</time>
      </trkpt>
      <trkpt lat="43.21472" lon="0.19964">
        <ele>385.6</ele>
        <time>2024-04-17T15:15:24Z</time>
      </trkpt>
      <trkpt lat="43.21468" lon="0.19964">
        <ele>385.6</ele>
        <time>2024-04-17T15:15:25Z</time>
      </trkpt>
      <trkpt lat="43.21464" lon="0.19963">
        <ele>385.4</ele>
        <time>2024-04-17T15:15:26Z</time>
      </trkpt>
      <trkpt lat="43.21461" lon="0.19963">
        <ele>385.4</ele>
        <time>2024-04-17T15:15:27Z</time>
      </trkpt>
      <trkpt lat="43.21457" lon="0.19963">
        <ele>385.2</ele>
        <time>2024-04-17T15:15:28Z</time>
      </trkpt>
      <trkpt lat="43.21453" lon="0.19962">
        <ele>385.2</ele>
        <time>2024-04-17T15:15:29Z</time>
      </trkpt>
      <trkpt lat="43.2145" lon="0.19962">
        <ele>385</ele>
        <time>2024-04-17T15:15:30Z</time>
      </trkpt>
      <trkpt lat="43.21447" lon="0.19962">
        <ele>385</ele>
        <time>2024-04-17T15:15:31Z</time>
      </trkpt>
      <trkpt lat="43.21444" lon="0.19961">
        <ele>385</ele>
        <time>2024-04-17T15:15:32Z</time>
      </trkpt>
      <trkpt lat="43.2144" lon="0.19961">
        <ele>384.8</ele>
        <time>2024-04-17T15:15:33Z</time>
      </trkpt>
      <trkpt lat="43.21438" lon="0.1996">
        <ele>384.8</ele>
        <time>2024-04-17T15:15:34Z</time>
      </trkpt>
      <trkpt lat="43.21435" lon="0.1996">
        <ele>384.8</ele>
        <time>2024-04-17T15:15:35Z</time>
      </trkpt>
      <trkpt lat="43.21432" lon="0.19959">
        <ele>384.8</ele>
        <time>2024-04-17T15:15:36Z</time>
      </trkpt>
      <trkpt lat="43.21429" lon="0.19957">
        <ele>384.8</ele>
        <time>2024-04-17T15:15:37Z</time>
      </trkpt>
      <trkpt lat="43.21426" lon="0.19956">
        <ele>384.8</ele>
        <time>2024-04-17T15:15:38Z</time>
      </trkpt>
      <trkpt lat="43.21423" lon="0.19955">
        <ele>385</ele>
        <time>2024-04-17T15:15:39Z</time>
      </trkpt>
      <trkpt lat="43.2142" lon="0.19954">
        <ele>385.2</ele>
        <time>2024-04-17T15:15:40Z</time>
      </trkpt>
      <trkpt lat="43.21416" lon="0.19952">
        <ele>385.2</ele>
        <time>2024-04-17T15:15:41Z</time>
      </trkpt>
      <trkpt lat="43.21413" lon="0.19952">
        <ele>385.2</ele>
        <time>2024-04-17T15:15:42Z</time>
      </trkpt>
      <trkpt lat="43.21409" lon="0.19951">
        <ele>385.2</ele>
        <time>2024-04-17T15:15:43Z</time>
      </trkpt>
      <trkpt lat="43.21406" lon="0.1995">
        <ele>385.2</ele>
        <time>2024-04-17T15:15:44Z</time>
      </trkpt>
      <trkpt lat="43.21403" lon="0.19949">
        <ele>385.4</ele>
        <time>2024-04-17T15:15:45Z</time>
      </trkpt>
      <trkpt lat="43.214" lon="0.19948">
        <ele>385.2</ele>
        <time>2024-04-17T15:15:46Z</time>
      </trkpt>
      <trkpt lat="43.21396" lon="0.19947">
        <ele>385.4</ele>
        <time>2024-04-17T15:15:47Z</time>
      </trkpt>
      <trkpt lat="43.21393" lon="0.19946">
        <ele>385.4</ele>
        <time>2024-04-17T15:15:48Z</time>
      </trkpt>
      <trkpt lat="43.2139" lon="0.19945">
        <ele>385.4</ele>
        <time>2024-04-17T15:15:49Z</time>
      </trkpt>
      <trkpt lat="43.21387" lon="0.19945">
        <ele>385.4</ele>
        <time>2024-04-17T15:15:50Z</time>
      </trkpt>
      <trkpt lat="43.21383" lon="0.19944">
        <ele>385.4</ele>
        <time>2024-04-17T15:15:51Z</time>
      </trkpt>
      <trkpt lat="43.2138" lon="0.19943">
        <ele>385.4</ele>
        <time>2024-04-17T15:15:52Z</time>
      </trkpt>
      <trkpt lat="43.21377" lon="0.19942">
        <ele>385.4</ele>
        <time>2024-04-17T15:15:53Z</time>
      </trkpt>
      <trkpt lat="43.21375" lon="0.19941">
        <ele>385.4</ele>
        <time>2024-04-17T15:15:54Z</time>
      </trkpt>
      <trkpt lat="43.21372" lon="0.1994">
        <ele>385.6</ele>
        <time>2024-04-17T15:15:55Z</time>
      </trkpt>
      <trkpt lat="43.21369" lon="0.1994">
        <ele>385.6</ele>
        <time>2024-04-17T15:15:56Z</time>
      </trkpt>
      <trkpt lat="43.21367" lon="0.19939">
        <ele>385.8</ele>
        <time>2024-04-17T15:15:57Z</time>
      </trkpt>
      <trkpt lat="43.21364" lon="0.19938">
        <ele>386</ele>
        <time>2024-04-17T15:15:58Z</time>
      </trkpt>
      <trkpt lat="43.21362" lon="0.19938">
        <ele>386.2</ele>
        <time>2024-04-17T15:15:59Z</time>
      </trkpt>
      <trkpt lat="43.2136" lon="0.19937">
        <ele>386.6</ele>
        <time>2024-04-17T15:16:00Z</time>
      </trkpt>
      <trkpt lat="43.21358" lon="0.19937">
        <ele>386.8</ele>
        <time>2024-04-17T15:16:01Z</time>
      </trkpt>
      <trkpt lat="43.21356" lon="0.19936">
        <ele>387.2</ele>
        <time>2024-04-17T15:16:02Z</time>
      </trkpt>
      <trkpt lat="43.21354" lon="0.19935">
        <ele>387.4</ele>
        <time>2024-04-17T15:16:03Z</time>
      </trkpt>
      <trkpt lat="43.21352" lon="0.19935">
        <ele>387.4</ele>
        <time>2024-04-17T15:16:04Z</time>
      </trkpt>
      <trkpt lat="43.2135" lon="0.19934">
        <ele>387.8</ele>
        <time>2024-04-17T15:16:05Z</time>
      </trkpt>
      <trkpt lat="43.21348" lon="0.19934">
        <ele>387.8</ele>
        <time>2024-04-17T15:16:06Z</time>
      </trkpt>
      <trkpt lat="43.21347" lon="0.19933">
        <ele>387.8</ele>
        <time>2024-04-17T15:16:07Z</time>
      </trkpt>
      <trkpt lat="43.21345" lon="0.19933">
        <ele>388</ele>
        <time>2024-04-17T15:16:08Z</time>
      </trkpt>
      <trkpt lat="43.21343" lon="0.19933">
        <ele>388</ele>
        <time>2024-04-17T15:16:09Z</time>
      </trkpt>
      <trkpt lat="43.21341" lon="0.19932">
        <ele>388</ele>
        <time>2024-04-17T15:16:10Z</time>
      </trkpt>
      <trkpt lat="43.21339" lon="0.19932">
        <ele>388.2</ele>
        <time>2024-04-17T15:16:11Z</time>
      </trkpt>
      <trkpt lat="43.21337" lon="0.19931">
        <ele>388.2</ele>
        <time>2024-04-17T15:16:12Z</time>
      </trkpt>
      <trkpt lat="43.21336" lon="0.19931">
        <ele>388.2</ele>
        <time>2024-04-17T15:16:13Z</time>
      </trkpt>
      <trkpt lat="43.21334" lon="0.1993">
        <ele>388.2</ele>
        <time>2024-04-17T15:16:14Z</time>
      </trkpt>
      <trkpt lat="43.21332" lon="0.1993">
        <ele>388.4</ele>
        <time>2024-04-17T15:16:15Z</time>
      </trkpt>
      <trkpt lat="43.21331" lon="0.19929">
        <ele>388.4</ele>
        <time>2024-04-17T15:16:16Z</time>
      </trkpt>
      <trkpt lat="43.21329" lon="0.19928">
        <ele>388.4</ele>
        <time>2024-04-17T15:16:17Z</time>
      </trkpt>
      <trkpt lat="43.21327" lon="0.19928">
        <ele>388.6</ele>
        <time>2024-04-17T15:16:18Z</time>
      </trkpt>
      <trkpt lat="43.21325" lon="0.19927">
        <ele>388.6</ele>
        <time>2024-04-17T15:16:19Z</time>
      </trkpt>
      <trkpt lat="43.21323" lon="0.19927">
        <ele>388.6</ele>
        <time>2024-04-17T15:16:20Z</time>
      </trkpt>
      <trkpt lat="43.21322" lon="0.19926">
        <ele>388.8</ele>
        <time>2024-04-17T15:16:21Z</time>
      </trkpt>
      <trkpt lat="43.2132" lon="0.19926">
        <ele>389</ele>
        <time>2024-04-17T15:16:22Z</time>
      </trkpt>
      <trkpt lat="43.21318" lon="0.19925">
        <ele>389.2</ele>
        <time>2024-04-17T15:16:23Z</time>
      </trkpt>
      <trkpt lat="43.21317" lon="0.19925">
        <ele>389.2</ele>
        <time>2024-04-17T15:16:24Z</time>
      </trkpt>
      <trkpt lat="43.21315" lon="0.19924">
        <ele>389.6</ele>
        <time>2024-04-17T15:16:25Z</time>
      </trkpt>
      <trkpt lat="43.21314" lon="0.19923">
        <ele>389.8</ele>
        <time>2024-04-17T15:16:26Z</time>
      </trkpt>
      <trkpt lat="43.21312" lon="0.19922">
        <ele>390.2</ele>
        <time>2024-04-17T15:16:27Z</time>
      </trkpt>
      <trkpt lat="43.2131" lon="0.19922">
        <ele>390.4</ele>
        <time>2024-04-17T15:16:28Z</time>
      </trkpt>
      <trkpt lat="43.21309" lon="0.19921">
        <ele>390.6</ele>
        <time>2024-04-17T15:16:29Z</time>
      </trkpt>
      <trkpt lat="43.21308" lon="0.1992">
        <ele>390.8</ele>
        <time>2024-04-17T15:16:30Z</time>
      </trkpt>
      <trkpt lat="43.21307" lon="0.19919">
        <ele>391</ele>
        <time>2024-04-17T15:16:31Z</time>
      </trkpt>
      <trkpt lat="43.21306" lon="0.19918">
        <ele>391.2</ele>
        <time>2024-04-17T15:16:32Z</time>
      </trkpt>
      <trkpt lat="43.21304" lon="0.19918">
        <ele>391.4</ele>
        <time>2024-04-17T15:16:33Z</time>
      </trkpt>
      <trkpt lat="43.21303" lon="0.19917">
        <ele>391.6</ele>
        <time>2024-04-17T15:16:34Z</time>
      </trkpt>
      <trkpt lat="43.21301" lon="0.19916">
        <ele>391.6</ele>
        <time>2024-04-17T15:16:35Z</time>
      </trkpt>
      <trkpt lat="43.21301" lon="0.19915">
        <ele>391.8</ele>
        <time>2024-04-17T15:16:36Z</time>
      </trkpt>
      <trkpt lat="43.213" lon="0.19914">
        <ele>391.8</ele>
        <time>2024-04-17T15:16:37Z</time>
      </trkpt>
      <trkpt lat="43.21299" lon="0.19912">
        <ele>391.8</ele>
        <time>2024-04-17T15:16:38Z</time>
      </trkpt>
      <trkpt lat="43.21298" lon="0.19911">
        <ele>392</ele>
        <time>2024-04-17T15:16:39Z</time>
      </trkpt>
      <trkpt lat="43.21297" lon="0.1991">
        <ele>392.2</ele>
        <time>2024-04-17T15:16:40Z</time>
      </trkpt>
      <trkpt lat="43.21295" lon="0.19908">
        <ele>392.2</ele>
        <time>2024-04-17T15:16:41Z</time>
      </trkpt>
      <trkpt lat="43.21294" lon="0.19907">
        <ele>392.2</ele>
        <time>2024-04-17T15:16:42Z</time>
      </trkpt>
      <trkpt lat="43.21293" lon="0.19905">
        <ele>392.6</ele>
        <time>2024-04-17T15:16:43Z</time>
      </trkpt>
      <trkpt lat="43.21292" lon="0.19904">
        <ele>392.8</ele>
        <time>2024-04-17T15:16:44Z</time>
      </trkpt>
      <trkpt lat="43.21291" lon="0.19903">
        <ele>393.2</ele>
        <time>2024-04-17T15:16:45Z</time>
      </trkpt>
      <trkpt lat="43.2129" lon="0.19902">
        <ele>393.6</ele>
        <time>2024-04-17T15:16:46Z</time>
      </trkpt>
      <trkpt lat="43.21289" lon="0.19902">
        <ele>393.6</ele>
        <time>2024-04-17T15:16:47Z</time>
      </trkpt>
      <trkpt lat="43.21287" lon="0.19901">
        <ele>393.8</ele>
        <time>2024-04-17T15:16:48Z</time>
      </trkpt>
      <trkpt lat="43.21287" lon="0.19901">
        <ele>393.8</ele>
        <time>2024-04-17T15:16:49Z</time>
      </trkpt>
      <trkpt lat="43.21286" lon="0.199">
        <ele>394</ele>
        <time>2024-04-17T15:16:50Z</time>
      </trkpt>
      <trkpt lat="43.21284" lon="0.199">
        <ele>394</ele>
        <time>2024-04-17T15:16:51Z</time>
      </trkpt>
      <trkpt lat="43.21283" lon="0.19899">
        <ele>394.2</ele>
        <time>2024-04-17T15:16:52Z</time>
      </trkpt>
      <trkpt lat="43.21282" lon="0.19898">
        <ele>394.4</ele>
        <time>2024-04-17T15:16:53Z</time>
      </trkpt>
      <trkpt lat="43.2128" lon="0.19897">
        <ele>394.4</ele>
        <time>2024-04-17T15:16:54Z</time>
      </trkpt>
      <trkpt lat="43.21279" lon="0.19897">
        <ele>394.4</ele>
        <time>2024-04-17T15:16:55Z</time>
      </trkpt>
      <trkpt lat="43.21278" lon="0.19897">
        <ele>394.6</ele>
        <time>2024-04-17T15:16:56Z</time>
      </trkpt>
      <trkpt lat="43.21277" lon="0.19896">
        <ele>394.8</ele>
        <time>2024-04-17T15:16:57Z</time>
      </trkpt>
      <trkpt lat="43.21276" lon="0.19896">
        <ele>395</ele>
        <time>2024-04-17T15:16:58Z</time>
      </trkpt>
      <trkpt lat="43.21274" lon="0.19895">
        <ele>395.2</ele>
        <time>2024-04-17T15:16:59Z</time>
      </trkpt>
      <trkpt lat="43.21273" lon="0.19894">
        <ele>395.2</ele>
        <time>2024-04-17T15:17:00Z</time>
      </trkpt>
      <trkpt lat="43.21272" lon="0.19893">
        <ele>395.6</ele>
        <time>2024-04-17T15:17:01Z</time>
      </trkpt>
      <trkpt lat="43.2127" lon="0.19893">
        <ele>395.8</ele>
        <time>2024-04-17T15:17:02Z</time>
      </trkpt>
      <trkpt lat="43.21268" lon="0.19892">
        <ele>396</ele>
        <time>2024-04-17T15:17:03Z</time>
      </trkpt>
      <trkpt lat="43.21267" lon="0.19892">
        <ele>396.2</ele>
        <time>2024-04-17T15:17:04Z</time>
      </trkpt>
      <trkpt lat="43.21265" lon="0.19891">
        <ele>396.2</ele>
        <time>2024-04-17T15:17:05Z</time>
      </trkpt>
      <trkpt lat="43.21264" lon="0.19891">
        <ele>396.4</ele>
        <time>2024-04-17T15:17:06Z</time>
      </trkpt>
      <trkpt lat="43.21263" lon="0.19891">
        <ele>396.4</ele>
        <time>2024-04-17T15:17:07Z</time>
      </trkpt>
      <trkpt lat="43.21262" lon="0.19891">
        <ele>396.6</ele>
        <time>2024-04-17T15:17:08Z</time>
      </trkpt>
      <trkpt lat="43.2126" lon="0.19891">
        <ele>396.8</ele>
        <time>2024-04-17T15:17:09Z</time>
      </trkpt>
      <trkpt lat="43.21259" lon="0.19891">
        <ele>397</ele>
        <time>2024-04-17T15:17:10Z</time>
      </trkpt>
      <trkpt lat="43.21258" lon="0.19891">
        <ele>397.2</ele>
        <time>2024-04-17T15:17:11Z</time>
      </trkpt>
      <trkpt lat="43.21257" lon="0.19892">
        <ele>397.2</ele>
        <time>2024-04-17T15:17:12Z</time>
      </trkpt>
      <trkpt lat="43.21255" lon="0.19892">
        <ele>397.2</ele>
        <time>2024-04-17T15:17:13Z</time>
      </trkpt>
      <trkpt lat="43.21253" lon="0.19892">
        <ele>397.2</ele>
        <time>2024-04-17T15:17:14Z</time>
      </trkpt>
      <trkpt lat="43.21251" lon="0.19892">
        <ele>397.2</ele>
        <time>2024-04-17T15:17:15Z</time>
      </trkpt>
      <trkpt lat="43.21249" lon="0.19892">
        <ele>397.2</ele>
        <time>2024-04-17T15:17:16Z</time>
      </trkpt>
      <trkpt lat="43.21248" lon="0.19892">
        <ele>397.2</ele>
        <time>2024-04-17T15:17:17Z</time>
      </trkpt>
      <trkpt lat="43.21248" lon="0.19892">
        <ele>397.2</ele>
        <time>2024-04-17T15:17:18Z</time>
      </trkpt>
      <trkpt lat="43.21247" lon="0.19893">
        <ele>397.2</ele>
        <time>2024-04-17T15:17:19Z</time>
      </trkpt>
      <trkpt lat="43.21247" lon="0.19893">
        <ele>397</ele>
        <time>2024-04-17T15:17:20Z</time>
      </trkpt>
      <trkpt lat="43.21246" lon="0.19893">
        <ele>397</ele>
        <time>2024-04-17T15:17:21Z</time>
      </trkpt>
      <trkpt lat="43.21246" lon="0.19893">
        <ele>396.8</ele>
        <time>2024-04-17T15:17:22Z</time>
      </trkpt>
      <trkpt lat="43.21246" lon="0.19893">
        <ele>396.8</ele>
        <time>2024-04-17T15:17:23Z</time>
      </trkpt>
      <trkpt lat="43.21246" lon="0.19893">
        <ele>396.6</ele>
        <time>2024-04-17T15:17:24Z</time>
      </trkpt>
      <trkpt lat="43.21246" lon="0.19893">
        <ele>396.6</ele>
        <time>2024-04-17T15:17:25Z</time>
      </trkpt>
      <trkpt lat="43.21246" lon="0.19893">
        <ele>396.6</ele>
        <time>2024-04-17T15:17:26Z</time>
      </trkpt>
      <trkpt lat="43.21246" lon="0.19893">
        <ele>396.4</ele>
        <time>2024-04-17T15:17:27Z</time>
      </trkpt>
      <trkpt lat="43.21246" lon="0.19893">
        <ele>396.4</ele>
        <time>2024-04-17T15:17:28Z</time>
      </trkpt>
      <trkpt lat="43.21246" lon="0.19893">
        <ele>396.4</ele>
        <time>2024-04-17T15:17:29Z</time>
      </trkpt>
      <trkpt lat="43.21246" lon="0.19893">
        <ele>396.4</ele>
        <time>2024-04-17T15:17:30Z</time>
      </trkpt>
      <trkpt lat="43.21246" lon="0.19893">
        <ele>396.4</ele>
        <time>2024-04-17T15:17:31Z</time>
      </trkpt>
      <trkpt lat="43.21246" lon="0.19893">
        <ele>396.4</ele>
        <time>2024-04-17T15:17:32Z</time>
      </trkpt>
      <trkpt lat="43.21246" lon="0.19893">
        <ele>396.4</ele>
        <time>2024-04-17T15:17:33Z</time>
      </trkpt>
      <trkpt lat="43.21246" lon="0.19893">
        <ele>396.4</ele>
        <time>2024-04-17T15:17:34Z</time>
      </trkpt>
      <trkpt lat="43.21246" lon="0.19893">
        <ele>396.4</ele>
        <time>2024-04-17T15:17:35Z</time>
      </trkpt>
      <trkpt lat="43.21246" lon="0.19893">
        <ele>396.4</ele>
        <time>2024-04-17T15:17:36Z</time>
      </trkpt>
      <trkpt lat="43.21246" lon="0.19893">
        <ele>396.4</ele>
        <time>2024-04-17T15:17:37Z</time>
      </trkpt>
      <trkpt lat="43.21246" lon="0.19893">
        <ele>396.4</ele>
        <time>2024-04-17T15:17:38Z</time>
      </trkpt>
      <trkpt lat="43.21246" lon="0.19893">
        <ele>396.4</ele>
        <time>2024-04-17T15:17:39Z</time>
      </trkpt>
      <trkpt lat="43.21246" lon="0.19893">
        <ele>396.4</ele>
        <time>2024-04-17T15:17:40Z</time>
      </trkpt>
      <trkpt lat="43.21246" lon="0.19893">
        <ele>396.4</ele>
        <time>2024-04-17T15:17:41Z</time>
      </trkpt>
      <trkpt lat="43.21246" lon="0.19893">
        <ele>396.4</ele>
        <time>2024-04-17T15:17:42Z</time>
      </trkpt>
      <trkpt lat="43.21246" lon="0.19893">
        <ele>396.4</ele>
        <time>2024-04-17T15:17:43Z</time>
      </trkpt>
      <trkpt lat="43.21246" lon="0.19893">
        <ele>396.4</ele>
        <time>2024-04-17T15:17:44Z</time>
      </trkpt>
      <trkpt lat="43.21245" lon="0.19893">
        <ele>396.4</ele>
        <time>2024-04-17T15:17:45Z</time>
      </trkpt>
      <trkpt lat="43.21242" lon="0.19892">
        <ele>396.4</ele>
        <time>2024-04-17T15:17:46Z</time>
      </trkpt>
      <trkpt lat="43.2124" lon="0.19892">
        <ele>396.4</ele>
        <time>2024-04-17T15:17:47Z</time>
      </trkpt>
      <trkpt lat="43.21236" lon="0.19892">
        <ele>396.4</ele>
        <time>2024-04-17T15:17:48Z</time>
      </trkpt>
      <trkpt lat="43.21233" lon="0.19892">
        <ele>396.4</ele>
        <time>2024-04-17T15:17:49Z</time>
      </trkpt>
      <trkpt lat="43.21228" lon="0.19894">
        <ele>396.4</ele>
        <time>2024-04-17T15:17:50Z</time>
      </trkpt>
      <trkpt lat="43.21223" lon="0.19896">
        <ele>396.4</ele>
        <time>2024-04-17T15:17:51Z</time>
      </trkpt>
      <trkpt lat="43.21217" lon="0.19897">
        <ele>396.4</ele>
        <time>2024-04-17T15:17:52Z</time>
      </trkpt>
      <trkpt lat="43.21213" lon="0.19899">
        <ele>396.2</ele>
        <time>2024-04-17T15:17:53Z</time>
      </trkpt>
      <trkpt lat="43.2121" lon="0.19901">
        <ele>395.8</ele>
        <time>2024-04-17T15:17:54Z</time>
      </trkpt>
      <trkpt lat="43.21207" lon="0.19902">
        <ele>395.2</ele>
        <time>2024-04-17T15:17:55Z</time>
      </trkpt>
      <trkpt lat="43.21203" lon="0.19903">
        <ele>394.4</ele>
        <time>2024-04-17T15:17:56Z</time>
      </trkpt>
      <trkpt lat="43.212" lon="0.19903">
        <ele>394.2</ele>
        <time>2024-04-17T15:17:57Z</time>
      </trkpt>
      <trkpt lat="43.21198" lon="0.199">
        <ele>393.4</ele>
        <time>2024-04-17T15:17:58Z</time>
      </trkpt>
      <trkpt lat="43.21194" lon="0.19895">
        <ele>392</ele>
        <time>2024-04-17T15:17:59Z</time>
      </trkpt>
      <trkpt lat="43.21188" lon="0.1989">
        <ele>391.4</ele>
        <time>2024-04-17T15:18:00Z</time>
      </trkpt>
      <trkpt lat="43.21181" lon="0.19884">
        <ele>389.8</ele>
        <time>2024-04-17T15:18:01Z</time>
      </trkpt>
      <trkpt lat="43.21172" lon="0.19878">
        <ele>389.2</ele>
        <time>2024-04-17T15:18:02Z</time>
      </trkpt>
      <trkpt lat="43.21164" lon="0.19873">
        <ele>387.8</ele>
        <time>2024-04-17T15:18:03Z</time>
      </trkpt>
      <trkpt lat="43.21156" lon="0.19868">
        <ele>386.6</ele>
        <time>2024-04-17T15:18:04Z</time>
      </trkpt>
      <trkpt lat="43.21149" lon="0.19862">
        <ele>384.6</ele>
        <time>2024-04-17T15:18:05Z</time>
      </trkpt>
      <trkpt lat="43.21141" lon="0.19857">
        <ele>384</ele>
        <time>2024-04-17T15:18:06Z</time>
      </trkpt>
      <trkpt lat="43.21133" lon="0.19849">
        <ele>382.2</ele>
        <time>2024-04-17T15:18:07Z</time>
      </trkpt>
      <trkpt lat="43.21126" lon="0.19844">
        <ele>380.4</ele>
        <time>2024-04-17T15:18:08Z</time>
      </trkpt>
      <trkpt lat="43.21119" lon="0.19839">
        <ele>379.2</ele>
        <time>2024-04-17T15:18:09Z</time>
      </trkpt>
      <trkpt lat="43.21111" lon="0.19835">
        <ele>377</ele>
        <time>2024-04-17T15:18:10Z</time>
      </trkpt>
      <trkpt lat="43.21103" lon="0.19831">
        <ele>375.8</ele>
        <time>2024-04-17T15:18:11Z</time>
      </trkpt>
      <trkpt lat="43.21097" lon="0.19829">
        <ele>374</ele>
        <time>2024-04-17T15:18:12Z</time>
      </trkpt>
      <trkpt lat="43.21089" lon="0.19827">
        <ele>373.4</ele>
        <time>2024-04-17T15:18:13Z</time>
      </trkpt>
      <trkpt lat="43.21082" lon="0.19825">
        <ele>371.6</ele>
        <time>2024-04-17T15:18:14Z</time>
      </trkpt>
      <trkpt lat="43.21075" lon="0.19824">
        <ele>371</ele>
        <time>2024-04-17T15:18:15Z</time>
      </trkpt>
      <trkpt lat="43.21066" lon="0.19822">
        <ele>369.8</ele>
        <time>2024-04-17T15:18:16Z</time>
      </trkpt>
      <trkpt lat="43.21057" lon="0.1982">
        <ele>368.2</ele>
        <time>2024-04-17T15:18:17Z</time>
      </trkpt>
      <trkpt lat="43.21049" lon="0.19818">
        <ele>367.8</ele>
        <time>2024-04-17T15:18:18Z</time>
      </trkpt>
      <trkpt lat="43.21042" lon="0.19817">
        <ele>366.6</ele>
        <time>2024-04-17T15:18:19Z</time>
      </trkpt>
      <trkpt lat="43.21036" lon="0.19815">
        <ele>366</ele>
        <time>2024-04-17T15:18:20Z</time>
      </trkpt>
      <trkpt lat="43.2103" lon="0.19813">
        <ele>365.2</ele>
        <time>2024-04-17T15:18:21Z</time>
      </trkpt>
      <trkpt lat="43.21026" lon="0.19812">
        <ele>364.6</ele>
        <time>2024-04-17T15:18:22Z</time>
      </trkpt>
      <trkpt lat="43.21023" lon="0.19811">
        <ele>363.4</ele>
        <time>2024-04-17T15:18:23Z</time>
      </trkpt>
      <trkpt lat="43.2102" lon="0.1981">
        <ele>362.2</ele>
        <time>2024-04-17T15:18:24Z</time>
      </trkpt>
      <trkpt lat="43.21018" lon="0.19808">
        <ele>362</ele>
        <time>2024-04-17T15:18:25Z</time>
      </trkpt>
      <trkpt lat="43.21017" lon="0.19807">
        <ele>361</ele>
        <time>2024-04-17T15:18:26Z</time>
      </trkpt>
      <trkpt lat="43.21017" lon="0.19806">
        <ele>360.6</ele>
        <time>2024-04-17T15:18:27Z</time>
      </trkpt>
      <trkpt lat="43.21017" lon="0.19806">
        <ele>360.2</ele>
        <time>2024-04-17T15:18:28Z</time>
      </trkpt>
      <trkpt lat="43.21017" lon="0.19806">
        <ele>360</ele>
        <time>2024-04-17T15:18:29Z</time>
      </trkpt>
      <trkpt lat="43.21017" lon="0.19806">
        <ele>359.8</ele>
        <time>2024-04-17T15:18:30Z</time>
      </trkpt>
      <trkpt lat="43.21017" lon="0.19806">
        <ele>359.8</ele>
        <time>2024-04-17T15:18:31Z</time>
      </trkpt>
      <trkpt lat="43.21017" lon="0.19806">
        <ele>359.8</ele>
        <time>2024-04-17T15:18:32Z</time>
      </trkpt>
      <trkpt lat="43.21017" lon="0.19806">
        <ele>359.6</ele>
        <time>2024-04-17T15:18:33Z</time>
      </trkpt>
      <trkpt lat="43.21017" lon="0.19805">
        <ele>359.6</ele>
        <time>2024-04-17T15:18:34Z</time>
      </trkpt>
      <trkpt lat="43.21018" lon="0.19804">
        <ele>359.6</ele>
        <time>2024-04-17T15:18:35Z</time>
      </trkpt>
      <trkpt lat="43.21019" lon="0.19802">
        <ele>359.6</ele>
        <time>2024-04-17T15:18:36Z</time>
      </trkpt>
      <trkpt lat="43.2102" lon="0.198">
        <ele>359.6</ele>
        <time>2024-04-17T15:18:37Z</time>
      </trkpt>
      <trkpt lat="43.21021" lon="0.19798">
        <ele>359.6</ele>
        <time>2024-04-17T15:18:38Z</time>
      </trkpt>
      <trkpt lat="43.21022" lon="0.19795">
        <ele>359.4</ele>
        <time>2024-04-17T15:18:39Z</time>
      </trkpt>
      <trkpt lat="43.21024" lon="0.19792">
        <ele>359.4</ele>
        <time>2024-04-17T15:18:40Z</time>
      </trkpt>
      <trkpt lat="43.21027" lon="0.19788">
        <ele>359.2</ele>
        <time>2024-04-17T15:18:41Z</time>
      </trkpt>
      <trkpt lat="43.21029" lon="0.19785">
        <ele>359</ele>
        <time>2024-04-17T15:18:42Z</time>
      </trkpt>
      <trkpt lat="43.21032" lon="0.19782">
        <ele>359</ele>
        <time>2024-04-17T15:18:43Z</time>
      </trkpt>
      <trkpt lat="43.21036" lon="0.19778">
        <ele>358.6</ele>
        <time>2024-04-17T15:18:44Z</time>
      </trkpt>
      <trkpt lat="43.21039" lon="0.19775">
        <ele>358.4</ele>
        <time>2024-04-17T15:18:45Z</time>
      </trkpt>
      <trkpt lat="43.21042" lon="0.19772">
        <ele>357.8</ele>
        <time>2024-04-17T15:18:46Z</time>
      </trkpt>
      <trkpt lat="43.21045" lon="0.19769">
        <ele>357.6</ele>
        <time>2024-04-17T15:18:47Z</time>
      </trkpt>
      <trkpt lat="43.21048" lon="0.19766">
        <ele>357.2</ele>
        <time>2024-04-17T15:18:48Z</time>
      </trkpt>
      <trkpt lat="43.21051" lon="0.19764">
        <ele>357</ele>
        <time>2024-04-17T15:18:49Z</time>
      </trkpt>
      <trkpt lat="43.21053" lon="0.19761">
        <ele>356.8</ele>
        <time>2024-04-17T15:18:50Z</time>
      </trkpt>
      <trkpt lat="43.21056" lon="0.19759">
        <ele>356.6</ele>
        <time>2024-04-17T15:18:51Z</time>
      </trkpt>
      <trkpt lat="43.21058" lon="0.19756">
        <ele>356.2</ele>
        <time>2024-04-17T15:18:52Z</time>
      </trkpt>
      <trkpt lat="43.2106" lon="0.19755">
        <ele>356</ele>
        <time>2024-04-17T15:18:53Z</time>
      </trkpt>
      <trkpt lat="43.21062" lon="0.19753">
        <ele>355.8</ele>
        <time>2024-04-17T15:18:54Z</time>
      </trkpt>
      <trkpt lat="43.21063" lon="0.19752">
        <ele>355.4</ele>
        <time>2024-04-17T15:18:55Z</time>
      </trkpt>
      <trkpt lat="43.21065" lon="0.1975">
        <ele>355.2</ele>
        <time>2024-04-17T15:18:56Z</time>
      </trkpt>
      <trkpt lat="43.21067" lon="0.19748">
        <ele>354.8</ele>
        <time>2024-04-17T15:18:57Z</time>
      </trkpt>
      <trkpt lat="43.21067" lon="0.19748">
        <ele>354.4</ele>
        <time>2024-04-17T15:18:58Z</time>
      </trkpt>
      <trkpt lat="43.21068" lon="0.19746">
        <ele>354.2</ele>
        <time>2024-04-17T15:18:59Z</time>
      </trkpt>
      <trkpt lat="43.21068" lon="0.19746">
        <ele>353.8</ele>
        <time>2024-04-17T15:19:00Z</time>
      </trkpt>
      <trkpt lat="43.21068" lon="0.19746">
        <ele>353.6</ele>
        <time>2024-04-17T15:19:01Z</time>
      </trkpt>
      <trkpt lat="43.21068" lon="0.19746">
        <ele>353.4</ele>
        <time>2024-04-17T15:19:02Z</time>
      </trkpt>
      <trkpt lat="43.21068" lon="0.19746">
        <ele>353.4</ele>
        <time>2024-04-17T15:19:03Z</time>
      </trkpt>
      <trkpt lat="43.21068" lon="0.19746">
        <ele>353.4</ele>
        <time>2024-04-17T15:19:04Z</time>
      </trkpt>
      <trkpt lat="43.21068" lon="0.19746">
        <ele>353.2</ele>
        <time>2024-04-17T15:19:05Z</time>
      </trkpt>
      <trkpt lat="43.21068" lon="0.19746">
        <ele>353.2</ele>
        <time>2024-04-17T15:19:06Z</time>
      </trkpt>
      <trkpt lat="43.21069" lon="0.19745">
        <ele>353.2</ele>
        <time>2024-04-17T15:19:07Z</time>
      </trkpt>
      <trkpt lat="43.21069" lon="0.19745">
        <ele>353.2</ele>
        <time>2024-04-17T15:19:08Z</time>
      </trkpt>
      <trkpt lat="43.21069" lon="0.19745">
        <ele>353.2</ele>
        <time>2024-04-17T15:19:09Z</time>
      </trkpt>
      <trkpt lat="43.21069" lon="0.19745">
        <ele>353.2</ele>
        <time>2024-04-17T15:19:10Z</time>
      </trkpt>
      <trkpt lat="43.21069" lon="0.19745">
        <ele>353.2</ele>
        <time>2024-04-17T15:19:11Z</time>
      </trkpt>
      <trkpt lat="43.21069" lon="0.19745">
        <ele>353.2</ele>
        <time>2024-04-17T15:19:12Z</time>
      </trkpt>
      <trkpt lat="43.21069" lon="0.19745">
        <ele>353.2</ele>
        <time>2024-04-17T15:19:13Z</time>
      </trkpt>
      <trkpt lat="43.21069" lon="0.19745">
        <ele>353.2</ele>
        <time>2024-04-17T15:19:14Z</time>
      </trkpt>
      <trkpt lat="43.21069" lon="0.19745">
        <ele>353.2</ele>
        <time>2024-04-17T15:19:15Z</time>
      </trkpt>
      <trkpt lat="43.21069" lon="0.19745">
        <ele>353.2</ele>
        <time>2024-04-17T15:19:16Z</time>
      </trkpt>
      <trkpt lat="43.21069" lon="0.19745">
        <ele>353.2</ele>
        <time>2024-04-17T15:19:17Z</time>
      </trkpt>
      <trkpt lat="43.21069" lon="0.19745">
        <ele>353.2</ele>
        <time>2024-04-17T15:19:18Z</time>
      </trkpt>
      <trkpt lat="43.21069" lon="0.19745">
        <ele>353.4</ele>
        <time>2024-04-17T15:19:19Z</time>
      </trkpt>
      <trkpt lat="43.21069" lon="0.19745">
        <ele>353.4</ele>
        <time>2024-04-17T15:19:20Z</time>
      </trkpt>
      <trkpt lat="43.21069" lon="0.19745">
        <ele>353.4</ele>
        <time>2024-04-17T15:19:21Z</time>
      </trkpt>
      <trkpt lat="43.2107" lon="0.19744">
        <ele>353.4</ele>
        <time>2024-04-17T15:19:22Z</time>
      </trkpt>
      <trkpt lat="43.21072" lon="0.19743">
        <ele>353.6</ele>
        <time>2024-04-17T15:19:23Z</time>
      </trkpt>
      <trkpt lat="43.21075" lon="0.19743">
        <ele>353.6</ele>
        <time>2024-04-17T15:19:24Z</time>
      </trkpt>
      <trkpt lat="43.21078" lon="0.19742">
        <ele>353.6</ele>
        <time>2024-04-17T15:19:25Z</time>
      </trkpt>
      <trkpt lat="43.21081" lon="0.19741">
        <ele>353.6</ele>
        <time>2024-04-17T15:19:26Z</time>
      </trkpt>
      <trkpt lat="43.21083" lon="0.19739">
        <ele>353.6</ele>
        <time>2024-04-17T15:19:27Z</time>
      </trkpt>
      <trkpt lat="43.21086" lon="0.19739">
        <ele>353.6</ele>
        <time>2024-04-17T15:19:28Z</time>
      </trkpt>
      <trkpt lat="43.21089" lon="0.19738">
        <ele>353.4</ele>
        <time>2024-04-17T15:19:29Z</time>
      </trkpt>
      <trkpt lat="43.21092" lon="0.19737">
        <ele>353.2</ele>
        <time>2024-04-17T15:19:30Z</time>
      </trkpt>
      <trkpt lat="43.21095" lon="0.19737">
        <ele>353</ele>
        <time>2024-04-17T15:19:31Z</time>
      </trkpt>
      <trkpt lat="43.21099" lon="0.19737">
        <ele>352.8</ele>
        <time>2024-04-17T15:19:32Z</time>
      </trkpt>
      <trkpt lat="43.21102" lon="0.19737">
        <ele>352.6</ele>
        <time>2024-04-17T15:19:33Z</time>
      </trkpt>
      <trkpt lat="43.21105" lon="0.19737">
        <ele>352.6</ele>
        <time>2024-04-17T15:19:34Z</time>
      </trkpt>
      <trkpt lat="43.21109" lon="0.19737">
        <ele>352.4</ele>
        <time>2024-04-17T15:19:35Z</time>
      </trkpt>
      <trkpt lat="43.21112" lon="0.19736">
        <ele>352.4</ele>
        <time>2024-04-17T15:19:36Z</time>
      </trkpt>
      <trkpt lat="43.21116" lon="0.19736">
        <ele>352.4</ele>
        <time>2024-04-17T15:19:37Z</time>
      </trkpt>
      <trkpt lat="43.21121" lon="0.19735">
        <ele>352.2</ele>
        <time>2024-04-17T15:19:38Z</time>
      </trkpt>
      <trkpt lat="43.21125" lon="0.19734">
        <ele>352</ele>
        <time>2024-04-17T15:19:39Z</time>
      </trkpt>
      <trkpt lat="43.2113" lon="0.19733">
        <ele>352</ele>
        <time>2024-04-17T15:19:40Z</time>
      </trkpt>
      <trkpt lat="43.21135" lon="0.19731">
        <ele>351.6</ele>
        <time>2024-04-17T15:19:41Z</time>
      </trkpt>
      <trkpt lat="43.21138" lon="0.19729">
        <ele>351.4</ele>
        <time>2024-04-17T15:19:42Z</time>
      </trkpt>
      <trkpt lat="43.21141" lon="0.19725">
        <ele>351.2</ele>
        <time>2024-04-17T15:19:43Z</time>
      </trkpt>
      <trkpt lat="43.21145" lon="0.1972">
        <ele>351</ele>
        <time>2024-04-17T15:19:44Z</time>
      </trkpt>
      <trkpt lat="43.21149" lon="0.19713">
        <ele>350.2</ele>
        <time>2024-04-17T15:19:45Z</time>
      </trkpt>
      <trkpt lat="43.21153" lon="0.19707">
        <ele>349.6</ele>
        <time>2024-04-17T15:19:46Z</time>
      </trkpt>
      <trkpt lat="43.21157" lon="0.19702">
        <ele>349.2</ele>
        <time>2024-04-17T15:19:47Z</time>
      </trkpt>
      <trkpt lat="43.21159" lon="0.19698">
        <ele>349</ele>
        <time>2024-04-17T15:19:48Z</time>
      </trkpt>
      <trkpt lat="43.21162" lon="0.19694">
        <ele>348.8</ele>
        <time>2024-04-17T15:19:49Z</time>
      </trkpt>
      <trkpt lat="43.21164" lon="0.1969">
        <ele>348.8</ele>
        <time>2024-04-17T15:19:50Z</time>
      </trkpt>
      <trkpt lat="43.21166" lon="0.19686">
        <ele>348.6</ele>
        <time>2024-04-17T15:19:51Z</time>
      </trkpt>
      <trkpt lat="43.21168" lon="0.1968">
        <ele>348.4</ele>
        <time>2024-04-17T15:19:52Z</time>
      </trkpt>
      <trkpt lat="43.21169" lon="0.19675">
        <ele>348.2</ele>
        <time>2024-04-17T15:19:53Z</time>
      </trkpt>
      <trkpt lat="43.21171" lon="0.1967">
        <ele>348.2</ele>
        <time>2024-04-17T15:19:54Z</time>
      </trkpt>
      <trkpt lat="43.21172" lon="0.19666">
        <ele>348.6</ele>
        <time>2024-04-17T15:19:55Z</time>
      </trkpt>
      <trkpt lat="43.21174" lon="0.19661">
        <ele>348.6</ele>
        <time>2024-04-17T15:19:56Z</time>
      </trkpt>
      <trkpt lat="43.21176" lon="0.19658">
        <ele>348.6</ele>
        <time>2024-04-17T15:19:57Z</time>
      </trkpt>
      <trkpt lat="43.21177" lon="0.19655">
        <ele>348.6</ele>
        <time>2024-04-17T15:19:58Z</time>
      </trkpt>
      <trkpt lat="43.21178" lon="0.19652">
        <ele>348.6</ele>
        <time>2024-04-17T15:19:59Z</time>
      </trkpt>
      <trkpt lat="43.21179" lon="0.1965">
        <ele>348.6</ele>
        <time>2024-04-17T15:20:00Z</time>
      </trkpt>
      <trkpt lat="43.2118" lon="0.19649">
        <ele>348.8</ele>
        <time>2024-04-17T15:20:01Z</time>
      </trkpt>
      <trkpt lat="43.21182" lon="0.19648">
        <ele>348.8</ele>
        <time>2024-04-17T15:20:02Z</time>
      </trkpt>
      <trkpt lat="43.21184" lon="0.19648">
        <ele>349</ele>
        <time>2024-04-17T15:20:03Z</time>
      </trkpt>
      <trkpt lat="43.21186" lon="0.19647">
        <ele>349</ele>
        <time>2024-04-17T15:20:04Z</time>
      </trkpt>
      <trkpt lat="43.21189" lon="0.19646">
        <ele>349</ele>
        <time>2024-04-17T15:20:05Z</time>
      </trkpt>
      <trkpt lat="43.21193" lon="0.19646">
        <ele>349</ele>
        <time>2024-04-17T15:20:06Z</time>
      </trkpt>
      <trkpt lat="43.21196" lon="0.19647">
        <ele>349</ele>
        <time>2024-04-17T15:20:07Z</time>
      </trkpt>
      <trkpt lat="43.212" lon="0.19648">
        <ele>349</ele>
        <time>2024-04-17T15:20:08Z</time>
      </trkpt>
      <trkpt lat="43.21203" lon="0.19648">
        <ele>349</ele>
        <time>2024-04-17T15:20:09Z</time>
      </trkpt>
      <trkpt lat="43.21206" lon="0.19649">
        <ele>348.8</ele>
        <time>2024-04-17T15:20:10Z</time>
      </trkpt>
      <trkpt lat="43.21209" lon="0.19649">
        <ele>348.4</ele>
        <time>2024-04-17T15:20:11Z</time>
      </trkpt>
      <trkpt lat="43.21211" lon="0.19649">
        <ele>348.2</ele>
        <time>2024-04-17T15:20:12Z</time>
      </trkpt>
      <trkpt lat="43.21213" lon="0.19649">
        <ele>348.2</ele>
        <time>2024-04-17T15:20:13Z</time>
      </trkpt>
      <trkpt lat="43.21215" lon="0.19648">
        <ele>348</ele>
        <time>2024-04-17T15:20:14Z</time>
      </trkpt>
      <trkpt lat="43.21217" lon="0.19647">
        <ele>348</ele>
        <time>2024-04-17T15:20:15Z</time>
      </trkpt>
      <trkpt lat="43.21219" lon="0.19646">
        <ele>348</ele>
        <time>2024-04-17T15:20:16Z</time>
      </trkpt>
      <trkpt lat="43.21221" lon="0.19646">
        <ele>348</ele>
        <time>2024-04-17T15:20:17Z</time>
      </trkpt>
      <trkpt lat="43.21222" lon="0.19646">
        <ele>348</ele>
        <time>2024-04-17T15:20:18Z</time>
      </trkpt>
      <trkpt lat="43.21222" lon="0.19646">
        <ele>348</ele>
        <time>2024-04-17T15:20:19Z</time>
      </trkpt>
      <trkpt lat="43.21222" lon="0.19646">
        <ele>348</ele>
        <time>2024-04-17T15:20:20Z</time>
      </trkpt>
      <trkpt lat="43.21222" lon="0.19646">
        <ele>348</ele>
        <time>2024-04-17T15:20:21Z</time>
      </trkpt>
      <trkpt lat="43.21222" lon="0.19646">
        <ele>348</ele>
        <time>2024-04-17T15:20:22Z</time>
      </trkpt>
      <trkpt lat="43.21222" lon="0.19646">
        <ele>348.2</ele>
        <time>2024-04-17T15:20:23Z</time>
      </trkpt>
      <trkpt lat="43.21222" lon="0.19646">
        <ele>348.2</ele>
        <time>2024-04-17T15:20:24Z</time>
      </trkpt>
      <trkpt lat="43.21222" lon="0.19646">
        <ele>348.2</ele>
        <time>2024-04-17T15:20:25Z</time>
      </trkpt>
      <trkpt lat="43.21222" lon="0.19646">
        <ele>348.2</ele>
        <time>2024-04-17T15:20:26Z</time>
      </trkpt>
      <trkpt lat="43.21222" lon="0.19646">
        <ele>348.2</ele>
        <time>2024-04-17T15:20:27Z</time>
      </trkpt>
      <trkpt lat="43.21222" lon="0.19646">
        <ele>348.2</ele>
        <time>2024-04-17T15:20:28Z</time>
      </trkpt>
      <trkpt lat="43.21222" lon="0.19646">
        <ele>348.2</ele>
        <time>2024-04-17T15:20:29Z</time>
      </trkpt>
      <trkpt lat="43.21222" lon="0.19646">
        <ele>348.2</ele>
        <time>2024-04-17T15:20:30Z</time>
      </trkpt>
      <trkpt lat="43.21222" lon="0.19646">
        <ele>348.2</ele>
        <time>2024-04-17T15:20:31Z</time>
      </trkpt>
      <trkpt lat="43.21222" lon="0.19646">
        <ele>348.2</ele>
        <time>2024-04-17T15:20:32Z</time>
      </trkpt>
      <trkpt lat="43.21222" lon="0.19646">
        <ele>348.2</ele>
        <time>2024-04-17T15:20:33Z</time>
      </trkpt>
      <trkpt lat="43.21222" lon="0.19646">
        <ele>348.2</ele>
        <time>2024-04-17T15:20:34Z</time>
      </trkpt>
      <trkpt lat="43.21222" lon="0.19646">
        <ele>348.2</ele>
        <time>2024-04-17T15:20:35Z</time>
      </trkpt>
      <trkpt lat="43.21222" lon="0.19646">
        <ele>348.2</ele>
        <time>2024-04-17T15:20:36Z</time>
      </trkpt>
      <trkpt lat="43.21223" lon="0.19644">
        <ele>348.2</ele>
        <time>2024-04-17T15:20:37Z</time>
      </trkpt>
      <trkpt lat="43.21224" lon="0.19641">
        <ele>348.2</ele>
        <time>2024-04-17T15:20:38Z</time>
      </trkpt>
      <trkpt lat="43.21227" lon="0.19637">
        <ele>348.2</ele>
        <time>2024-04-17T15:20:39Z</time>
      </trkpt>
      <trkpt lat="43.21229" lon="0.19635">
        <ele>348</ele>
        <time>2024-04-17T15:20:40Z</time>
      </trkpt>
      <trkpt lat="43.21231" lon="0.19632">
        <ele>348</ele>
        <time>2024-04-17T15:20:41Z</time>
      </trkpt>
      <trkpt lat="43.21233" lon="0.19629">
        <ele>347.6</ele>
        <time>2024-04-17T15:20:42Z</time>
      </trkpt>
      <trkpt lat="43.21235" lon="0.19625">
        <ele>347.2</ele>
        <time>2024-04-17T15:20:43Z</time>
      </trkpt>
      <trkpt lat="43.21237" lon="0.19621">
        <ele>346.6</ele>
        <time>2024-04-17T15:20:44Z</time>
      </trkpt>
      <trkpt lat="43.21241" lon="0.19616">
        <ele>345.4</ele>
        <time>2024-04-17T15:20:45Z</time>
      </trkpt>
      <trkpt lat="43.21245" lon="0.19611">
        <ele>344.6</ele>
        <time>2024-04-17T15:20:46Z</time>
      </trkpt>
      <trkpt lat="43.21246" lon="0.19608">
        <ele>343.2</ele>
        <time>2024-04-17T15:20:47Z</time>
      </trkpt>
      <trkpt lat="43.21247" lon="0.19605">
        <ele>342.6</ele>
        <time>2024-04-17T15:20:48Z</time>
      </trkpt>
      <trkpt lat="43.21247" lon="0.19601">
        <ele>341.4</ele>
        <time>2024-04-17T15:20:49Z</time>
      </trkpt>
      <trkpt lat="43.21249" lon="0.19596">
        <ele>340.8</ele>
        <time>2024-04-17T15:20:50Z</time>
      </trkpt>
      <trkpt lat="43.21253" lon="0.1959">
        <ele>339.6</ele>
        <time>2024-04-17T15:20:51Z</time>
      </trkpt>
      <trkpt lat="43.21257" lon="0.19584">
        <ele>339.4</ele>
        <time>2024-04-17T15:20:52Z</time>
      </trkpt>
      <trkpt lat="43.2126" lon="0.19578">
        <ele>338.4</ele>
        <time>2024-04-17T15:20:53Z</time>
      </trkpt>
      <trkpt lat="43.21261" lon="0.19572">
        <ele>337</ele>
        <time>2024-04-17T15:20:54Z</time>
      </trkpt>
      <trkpt lat="43.21262" lon="0.19565">
        <ele>336.6</ele>
        <time>2024-04-17T15:20:55Z</time>
      </trkpt>
      <trkpt lat="43.21262" lon="0.19558">
        <ele>334.6</ele>
        <time>2024-04-17T15:20:56Z</time>
      </trkpt>
      <trkpt lat="43.21262" lon="0.19553">
        <ele>333.8</ele>
        <time>2024-04-17T15:20:57Z</time>
      </trkpt>
      <trkpt lat="43.21263" lon="0.1955">
        <ele>331.8</ele>
        <time>2024-04-17T15:20:58Z</time>
      </trkpt>
      <trkpt lat="43.21264" lon="0.19547">
        <ele>330.4</ele>
        <time>2024-04-17T15:20:59Z</time>
      </trkpt>
      <trkpt lat="43.21266" lon="0.19543">
        <ele>328.6</ele>
        <time>2024-04-17T15:21:00Z</time>
      </trkpt>
      <trkpt lat="43.21268" lon="0.19537">
        <ele>327.4</ele>
        <time>2024-04-17T15:21:01Z</time>
      </trkpt>
      <trkpt lat="43.21271" lon="0.19531">
        <ele>326.6</ele>
        <time>2024-04-17T15:21:02Z</time>
      </trkpt>
      <trkpt lat="43.21272" lon="0.19525">
        <ele>325.6</ele>
        <time>2024-04-17T15:21:03Z</time>
      </trkpt>
      <trkpt lat="43.21273" lon="0.19518">
        <ele>324.6</ele>
        <time>2024-04-17T15:21:04Z</time>
      </trkpt>
      <trkpt lat="43.21274" lon="0.19513">
        <ele>323</ele>
        <time>2024-04-17T15:21:05Z</time>
      </trkpt>
      <trkpt lat="43.21275" lon="0.19507">
        <ele>322</ele>
        <time>2024-04-17T15:21:06Z</time>
      </trkpt>
      <trkpt lat="43.21276" lon="0.19504">
        <ele>320.2</ele>
        <time>2024-04-17T15:21:07Z</time>
      </trkpt>
      <trkpt lat="43.21279" lon="0.195">
        <ele>319.2</ele>
        <time>2024-04-17T15:21:08Z</time>
      </trkpt>
      <trkpt lat="43.2128" lon="0.19497">
        <ele>317.6</ele>
        <time>2024-04-17T15:21:09Z</time>
      </trkpt>
      <trkpt lat="43.2128" lon="0.19494">
        <ele>315.8</ele>
        <time>2024-04-17T15:21:10Z</time>
      </trkpt>
      <trkpt lat="43.2128" lon="0.19492">
        <ele>315</ele>
        <time>2024-04-17T15:21:11Z</time>
      </trkpt>
      <trkpt lat="43.21281" lon="0.19491">
        <ele>313.6</ele>
        <time>2024-04-17T15:21:12Z</time>
      </trkpt>
      <trkpt lat="43.21283" lon="0.19489">
        <ele>313</ele>
        <time>2024-04-17T15:21:13Z</time>
      </trkpt>
      <trkpt lat="43.21284" lon="0.19488">
        <ele>311.4</ele>
        <time>2024-04-17T15:21:14Z</time>
      </trkpt>
      <trkpt lat="43.21284" lon="0.19486">
        <ele>310.4</ele>
        <time>2024-04-17T15:21:15Z</time>
      </trkpt>
      <trkpt lat="43.21285" lon="0.19483">
        <ele>308.4</ele>
        <time>2024-04-17T15:21:16Z</time>
      </trkpt>
      <trkpt lat="43.21285" lon="0.19482">
        <ele>307.6</ele>
        <time>2024-04-17T15:21:17Z</time>
      </trkpt>
      <trkpt lat="43.21285" lon="0.19482">
        <ele>306.8</ele>
        <time>2024-04-17T15:21:18Z</time>
      </trkpt>
      <trkpt lat="43.21285" lon="0.19482">
        <ele>305.6</ele>
        <time>2024-04-17T15:21:19Z</time>
      </trkpt>
      <trkpt lat="43.21285" lon="0.19482">
        <ele>304.8</ele>
        <time>2024-04-17T15:21:20Z</time>
      </trkpt>
      <trkpt lat="43.21285" lon="0.19482">
        <ele>303.4</ele>
        <time>2024-04-17T15:21:21Z</time>
      </trkpt>
      <trkpt lat="43.21285" lon="0.19482">
        <ele>302.8</ele>
        <time>2024-04-17T15:21:22Z</time>
      </trkpt>
      <trkpt lat="43.21285" lon="0.19482">
        <ele>302</ele>
        <time>2024-04-17T15:21:23Z</time>
      </trkpt>
      <trkpt lat="43.21285" lon="0.19482">
        <ele>301.8</ele>
        <time>2024-04-17T15:21:24Z</time>
      </trkpt>
      <trkpt lat="43.21285" lon="0.19481">
        <ele>301.6</ele>
        <time>2024-04-17T15:21:25Z</time>
      </trkpt>
      <trkpt lat="43.21285" lon="0.1948">
        <ele>301.4</ele>
        <time>2024-04-17T15:21:26Z</time>
      </trkpt>
      <trkpt lat="43.21285" lon="0.1948">
        <ele>301.4</ele>
        <time>2024-04-17T15:21:27Z</time>
      </trkpt>
      <trkpt lat="43.21285" lon="0.1948">
        <ele>301.2</ele>
        <time>2024-04-17T15:21:28Z</time>
      </trkpt>
      <trkpt lat="43.21285" lon="0.1948">
        <ele>301.2</ele>
        <time>2024-04-17T15:21:29Z</time>
      </trkpt>
      <trkpt lat="43.21285" lon="0.1948">
        <ele>301.2</ele>
        <time>2024-04-17T15:21:30Z</time>
      </trkpt>
      <trkpt lat="43.21285" lon="0.1948">
        <ele>301.2</ele>
        <time>2024-04-17T15:21:31Z</time>
      </trkpt>
      <trkpt lat="43.21285" lon="0.1948">
        <ele>300.8</ele>
        <time>2024-04-17T15:21:32Z</time>
      </trkpt>
      <trkpt lat="43.21285" lon="0.1948">
        <ele>300.8</ele>
        <time>2024-04-17T15:21:33Z</time>
      </trkpt>
      <trkpt lat="43.21285" lon="0.1948">
        <ele>300.8</ele>
        <time>2024-04-17T15:21:34Z</time>
      </trkpt>
      <trkpt lat="43.21285" lon="0.1948">
        <ele>300.4</ele>
        <time>2024-04-17T15:21:35Z</time>
      </trkpt>
      <trkpt lat="43.21285" lon="0.1948">
        <ele>300.2</ele>
        <time>2024-04-17T15:21:36Z</time>
      </trkpt>
      <trkpt lat="43.21285" lon="0.1948">
        <ele>299.8</ele>
        <time>2024-04-17T15:21:37Z</time>
      </trkpt>
      <trkpt lat="43.21285" lon="0.1948">
        <ele>299.8</ele>
        <time>2024-04-17T15:21:38Z</time>
      </trkpt>
      <trkpt lat="43.21285" lon="0.1948">
        <ele>299.4</ele>
        <time>2024-04-17T15:21:39Z</time>
      </trkpt>
      <trkpt lat="43.21285" lon="0.1948">
        <ele>299.4</ele>
        <time>2024-04-17T15:21:40Z</time>
      </trkpt>
      <trkpt lat="43.21285" lon="0.1948">
        <ele>299.4</ele>
        <time>2024-04-17T15:21:41Z</time>
      </trkpt>
      <trkpt lat="43.21285" lon="0.1948">
        <ele>299.2</ele>
        <time>2024-04-17T15:21:42Z</time>
      </trkpt>
      <trkpt lat="43.21285" lon="0.1948">
        <ele>299.2</ele>
        <time>2024-04-17T15:21:43Z</time>
      </trkpt>
      <trkpt lat="43.21285" lon="0.1948">
        <ele>299.2</ele>
        <time>2024-04-17T15:21:44Z</time>
      </trkpt>
      <trkpt lat="43.21285" lon="0.1948">
        <ele>299.2</ele>
        <time>2024-04-17T15:21:45Z</time>
      </trkpt>
      <trkpt lat="43.21285" lon="0.1948">
        <ele>299.2</ele>
        <time>2024-04-17T15:21:46Z</time>
      </trkpt>
      <trkpt lat="43.21285" lon="0.1948">
        <ele>299.2</ele>
        <time>2024-04-17T15:21:47Z</time>
      </trkpt>
      <trkpt lat="43.21285" lon="0.1948">
        <ele>299.4</ele>
        <time>2024-04-17T15:21:48Z</time>
      </trkpt>
      <trkpt lat="43.21285" lon="0.1948">
        <ele>299.4</ele>
        <time>2024-04-17T15:21:49Z</time>
      </trkpt>
      <trkpt lat="43.21285" lon="0.1948">
        <ele>299.4</ele>
        <time>2024-04-17T15:21:51Z</time>
      </trkpt>
      <trkpt lat="43.21285" lon="0.1948">
        <ele>299.2</ele>
        <time>2024-04-17T15:21:52Z</time>
      </trkpt>
      <trkpt lat="43.21285" lon="0.1948">
        <ele>299</ele>
        <time>2024-04-17T15:21:53Z</time>
      </trkpt>
      <trkpt lat="43.21285" lon="0.1948">
        <ele>299</ele>
        <time>2024-04-17T15:21:54Z</time>
      </trkpt>
      <trkpt lat="43.21285" lon="0.1948">
        <ele>299</ele>
        <time>2024-04-17T15:21:55Z</time>
      </trkpt>
      <trkpt lat="43.21285" lon="0.1948">
        <ele>299</ele>
        <time>2024-04-17T15:21:56Z</time>
      </trkpt>
      <trkpt lat="43.21285" lon="0.1948">
        <ele>299</ele>
        <time>2024-04-17T15:21:57Z</time>
      </trkpt>
      <trkpt lat="43.21285" lon="0.1948">
        <ele>298.8</ele>
        <time>2024-04-17T15:21:58Z</time>
      </trkpt>
      <trkpt lat="43.21285" lon="0.1948">
        <ele>298.8</ele>
        <time>2024-04-17T15:21:59Z</time>
      </trkpt>
      <trkpt lat="43.21285" lon="0.1948">
        <ele>298.8</ele>
        <time>2024-04-17T15:22:00Z</time>
      </trkpt>
      <trkpt lat="43.21285" lon="0.1948">
        <ele>298.8</ele>
        <time>2024-04-17T15:22:01Z</time>
      </trkpt>
      <trkpt lat="43.21285" lon="0.1948">
        <ele>298.8</ele>
        <time>2024-04-17T15:22:02Z</time>
      </trkpt>
      <trkpt lat="43.21285" lon="0.1948">
        <ele>298.6</ele>
        <time>2024-04-17T15:22:03Z</time>
      </trkpt>
      <trkpt lat="43.21285" lon="0.1948">
        <ele>298.6</ele>
        <time>2024-04-17T15:22:04Z</time>
      </trkpt>
      <trkpt lat="43.21285" lon="0.1948">
        <ele>298.6</ele>
        <time>2024-04-17T15:22:05Z</time>
      </trkpt>
      <trkpt lat="43.21285" lon="0.1948">
        <ele>298.6</ele>
        <time>2024-04-17T15:22:06Z</time>
      </trkpt>
      <trkpt lat="43.21285" lon="0.1948">
        <ele>298.6</ele>
        <time>2024-04-17T15:22:07Z</time>
      </trkpt>
      <trkpt lat="43.21285" lon="0.1948">
        <ele>298.6</ele>
        <time>2024-04-17T15:22:08Z</time>
      </trkpt>
      <trkpt lat="43.21285" lon="0.1948">
        <ele>298.4</ele>
        <time>2024-04-17T15:22:09Z</time>
      </trkpt>
      <trkpt lat="43.21285" lon="0.1948">
        <ele>298.2</ele>
        <time>2024-04-17T15:22:10Z</time>
      </trkpt>
      <trkpt lat="43.21285" lon="0.1948">
        <ele>298.2</ele>
        <time>2024-04-17T15:22:11Z</time>
      </trkpt>
      <trkpt lat="43.21285" lon="0.1948">
        <ele>298.4</ele>
        <time>2024-04-17T15:22:12Z</time>
      </trkpt>
      <trkpt lat="43.21285" lon="0.1948">
        <ele>298.2</ele>
        <time>2024-04-17T15:22:13Z</time>
      </trkpt>
      <trkpt lat="43.21285" lon="0.1948">
        <ele>298</ele>
        <time>2024-04-17T15:22:14Z</time>
      </trkpt>
      <trkpt lat="43.21285" lon="0.1948">
        <ele>298</ele>
        <time>2024-04-17T15:22:15Z</time>
      </trkpt>
      <trkpt lat="43.21285" lon="0.1948">
        <ele>298</ele>
        <time>2024-04-17T15:22:16Z</time>
      </trkpt>
      <trkpt lat="43.21285" lon="0.1948">
        <ele>298</ele>
        <time>2024-04-17T15:22:17Z</time>
      </trkpt>
      <trkpt lat="43.21285" lon="0.1948">
        <ele>298</ele>
        <time>2024-04-17T15:22:18Z</time>
      </trkpt>
      <trkpt lat="43.21285" lon="0.1948">
        <ele>298</ele>
        <time>2024-04-17T15:22:19Z</time>
      </trkpt>
      <trkpt lat="43.21285" lon="0.1948">
        <ele>298</ele>
        <time>2024-04-17T15:22:20Z</time>
      </trkpt>
      <trkpt lat="43.21285" lon="0.1948">
        <ele>297.8</ele>
        <time>2024-04-17T15:22:21Z</time>
      </trkpt>
      <trkpt lat="43.21286" lon="0.1948">
        <ele>297.8</ele>
        <time>2024-04-17T15:22:22Z</time>
      </trkpt>
      <trkpt lat="43.21286" lon="0.1948">
        <ele>297.8</ele>
        <time>2024-04-17T15:22:23Z</time>
      </trkpt>
      <trkpt lat="43.21286" lon="0.1948">
        <ele>297.8</ele>
        <time>2024-04-17T15:22:24Z</time>
      </trkpt>
      <trkpt lat="43.21286" lon="0.1948">
        <ele>297.6</ele>
        <time>2024-04-17T15:22:25Z</time>
      </trkpt>
      <trkpt lat="43.21286" lon="0.1948">
        <ele>297.6</ele>
        <time>2024-04-17T15:22:26Z</time>
      </trkpt>
      <trkpt lat="43.21286" lon="0.1948">
        <ele>297.6</ele>
        <time>2024-04-17T15:22:27Z</time>
      </trkpt>
      <trkpt lat="43.21286" lon="0.1948">
        <ele>297.6</ele>
        <time>2024-04-17T15:22:28Z</time>
      </trkpt>
      <trkpt lat="43.21286" lon="0.1948">
        <ele>297.6</ele>
        <time>2024-04-17T15:22:29Z</time>
      </trkpt>
      <trkpt lat="43.21286" lon="0.1948">
        <ele>297.4</ele>
        <time>2024-04-17T15:22:30Z</time>
      </trkpt>
      <trkpt lat="43.21286" lon="0.1948">
        <ele>297.4</ele>
        <time>2024-04-17T15:22:31Z</time>
      </trkpt>
      <trkpt lat="43.21286" lon="0.1948">
        <ele>297.2</ele>
        <time>2024-04-17T15:22:32Z</time>
      </trkpt>
      <trkpt lat="43.21286" lon="0.1948">
        <ele>297.2</ele>
        <time>2024-04-17T15:22:33Z</time>
      </trkpt>
      <trkpt lat="43.21286" lon="0.1948">
        <ele>297.2</ele>
        <time>2024-04-17T15:22:34Z</time>
      </trkpt>
      <trkpt lat="43.21286" lon="0.1948">
        <ele>297</ele>
        <time>2024-04-17T15:22:35Z</time>
      </trkpt>
      <trkpt lat="43.21286" lon="0.1948">
        <ele>297</ele>
        <time>2024-04-17T15:22:36Z</time>
      </trkpt>
      <trkpt lat="43.21286" lon="0.1948">
        <ele>297</ele>
        <time>2024-04-17T15:22:37Z</time>
      </trkpt>
      <trkpt lat="43.21286" lon="0.1948">
        <ele>297</ele>
        <time>2024-04-17T15:22:38Z</time>
      </trkpt>
      <trkpt lat="43.21286" lon="0.1948">
        <ele>296.8</ele>
        <time>2024-04-17T15:22:39Z</time>
      </trkpt>
      <trkpt lat="43.21286" lon="0.1948">
        <ele>296.8</ele>
        <time>2024-04-17T15:22:40Z</time>
      </trkpt>
      <trkpt lat="43.21286" lon="0.1948">
        <ele>296.6</ele>
        <time>2024-04-17T15:22:41Z</time>
      </trkpt>
      <trkpt lat="43.21286" lon="0.1948">
        <ele>296.6</ele>
        <time>2024-04-17T15:22:42Z</time>
      </trkpt>
      <trkpt lat="43.21286" lon="0.1948">
        <ele>296.6</ele>
        <time>2024-04-17T15:22:43Z</time>
      </trkpt>
      <trkpt lat="43.21286" lon="0.1948">
        <ele>296.6</ele>
        <time>2024-04-17T15:22:44Z</time>
      </trkpt>
      <trkpt lat="43.21286" lon="0.1948">
        <ele>296.6</ele>
        <time>2024-04-17T15:22:45Z</time>
      </trkpt>
      <trkpt lat="43.21286" lon="0.1948">
        <ele>296.6</ele>
        <time>2024-04-17T15:22:46Z</time>
      </trkpt>
      <trkpt lat="43.21286" lon="0.1948">
        <ele>296.6</ele>
        <time>2024-04-17T15:22:47Z</time>
      </trkpt>
      <trkpt lat="43.21287" lon="0.1948">
        <ele>296.6</ele>
        <time>2024-04-17T15:22:48Z</time>
      </trkpt>
      <trkpt lat="43.21287" lon="0.1948">
        <ele>296.6</ele>
        <time>2024-04-17T15:22:49Z</time>
      </trkpt>
      <trkpt lat="43.21287" lon="0.1948">
        <ele>296.6</ele>
        <time>2024-04-17T15:22:50Z</time>
      </trkpt>
      <trkpt lat="43.21287" lon="0.1948">
        <ele>296.6</ele>
        <time>2024-04-17T15:22:51Z</time>
      </trkpt>
      <trkpt lat="43.21287" lon="0.1948">
        <ele>296.6</ele>
        <time>2024-04-17T15:22:52Z</time>
      </trkpt>
      <trkpt lat="43.21287" lon="0.1948">
        <ele>296.4</ele>
        <time>2024-04-17T15:22:53Z</time>
      </trkpt>
      <trkpt lat="43.21287" lon="0.1948">
        <ele>296.4</ele>
        <time>2024-04-17T15:22:54Z</time>
      </trkpt>
      <trkpt lat="43.21287" lon="0.1948">
        <ele>296.4</ele>
        <time>2024-04-17T15:22:55Z</time>
      </trkpt>
      <trkpt lat="43.21287" lon="0.1948">
        <ele>296.4</ele>
        <time>2024-04-17T15:22:56Z</time>
      </trkpt>
      <trkpt lat="43.21287" lon="0.1948">
        <ele>296.4</ele>
        <time>2024-04-17T15:22:57Z</time>
      </trkpt>
      <trkpt lat="43.21287" lon="0.1948">
        <ele>296.2</ele>
        <time>2024-04-17T15:22:58Z</time>
      </trkpt>
      <trkpt lat="43.21287" lon="0.1948">
        <ele>296.2</ele>
        <time>2024-04-17T15:22:59Z</time>
      </trkpt>
      <trkpt lat="43.21287" lon="0.1948">
        <ele>296.2</ele>
        <time>2024-04-17T15:23:00Z</time>
      </trkpt>
      <trkpt lat="43.21287" lon="0.1948">
        <ele>296.2</ele>
        <time>2024-04-17T15:23:01Z</time>
      </trkpt>
      <trkpt lat="43.21288" lon="0.1948">
        <ele>296.2</ele>
        <time>2024-04-17T15:23:02Z</time>
      </trkpt>
      <trkpt lat="43.21288" lon="0.1948">
        <ele>296.2</ele>
        <time>2024-04-17T15:23:03Z</time>
      </trkpt>
      <trkpt lat="43.21288" lon="0.1948">
        <ele>296</ele>
        <time>2024-04-17T15:23:04Z</time>
      </trkpt>
      <trkpt lat="43.21288" lon="0.1948">
        <ele>296</ele>
        <time>2024-04-17T15:23:05Z</time>
      </trkpt>
      <trkpt lat="43.21288" lon="0.1948">
        <ele>296</ele>
        <time>2024-04-17T15:23:06Z</time>
      </trkpt>
      <trkpt lat="43.21288" lon="0.1948">
        <ele>296</ele>
        <time>2024-04-17T15:23:07Z</time>
      </trkpt>
      <trkpt lat="43.21288" lon="0.1948">
        <ele>296</ele>
        <time>2024-04-17T15:23:08Z</time>
      </trkpt>
      <trkpt lat="43.21288" lon="0.1948">
        <ele>296</ele>
        <time>2024-04-17T15:23:09Z</time>
      </trkpt>
      <trkpt lat="43.21288" lon="0.1948">
        <ele>295.8</ele>
        <time>2024-04-17T15:23:10Z</time>
      </trkpt>
      <trkpt lat="43.21288" lon="0.1948">
        <ele>295.8</ele>
        <time>2024-04-17T15:23:11Z</time>
      </trkpt>
      <trkpt lat="43.21288" lon="0.1948">
        <ele>295.8</ele>
        <time>2024-04-17T15:23:12Z</time>
      </trkpt>
      <trkpt lat="43.21288" lon="0.1948">
        <ele>295.8</ele>
        <time>2024-04-17T15:23:13Z</time>
      </trkpt>
      <trkpt lat="43.21288" lon="0.1948">
        <ele>295.6</ele>
        <time>2024-04-17T15:23:14Z</time>
      </trkpt>
      <trkpt lat="43.21288" lon="0.1948">
        <ele>295.6</ele>
        <time>2024-04-17T15:23:15Z</time>
      </trkpt>
      <trkpt lat="43.21288" lon="0.19477">
        <ele>295.4</ele>
        <time>2024-04-17T15:23:16Z</time>
      </trkpt>
      <trkpt lat="43.21288" lon="0.19474">
        <ele>295.4</ele>
        <time>2024-04-17T15:23:17Z</time>
      </trkpt>
      <trkpt lat="43.21287" lon="0.1947">
        <ele>295.2</ele>
        <time>2024-04-17T15:23:18Z</time>
      </trkpt>
      <trkpt lat="43.21286" lon="0.19466">
        <ele>295.2</ele>
        <time>2024-04-17T15:23:19Z</time>
      </trkpt>
      <trkpt lat="43.21285" lon="0.19462">
        <ele>295.2</ele>
        <time>2024-04-17T15:23:20Z</time>
      </trkpt>
      <trkpt lat="43.21284" lon="0.19459">
        <ele>295</ele>
        <time>2024-04-17T15:23:21Z</time>
      </trkpt>
      <trkpt lat="43.21282" lon="0.19456">
        <ele>294.4</ele>
        <time>2024-04-17T15:23:22Z</time>
      </trkpt>
      <trkpt lat="43.2128" lon="0.19453">
        <ele>293.4</ele>
        <time>2024-04-17T15:23:23Z</time>
      </trkpt>
      <trkpt lat="43.21278" lon="0.1945">
        <ele>293</ele>
        <time>2024-04-17T15:23:24Z</time>
      </trkpt>
      <trkpt lat="43.21275" lon="0.19448">
        <ele>292</ele>
        <time>2024-04-17T15:23:25Z</time>
      </trkpt>
      <trkpt lat="43.21271" lon="0.19447">
        <ele>291.6</ele>
        <time>2024-04-17T15:23:26Z</time>
      </trkpt>
      <trkpt lat="43.21268" lon="0.19448">
        <ele>290.6</ele>
        <time>2024-04-17T15:23:27Z</time>
      </trkpt>
      <trkpt lat="43.21266" lon="0.19449">
        <ele>290</ele>
        <time>2024-04-17T15:23:28Z</time>
      </trkpt>
      <trkpt lat="43.21264" lon="0.1945">
        <ele>288.6</ele>
        <time>2024-04-17T15:23:29Z</time>
      </trkpt>
      <trkpt lat="43.21261" lon="0.1945">
        <ele>288</ele>
        <time>2024-04-17T15:23:30Z</time>
      </trkpt>
      <trkpt lat="43.21259" lon="0.19451">
        <ele>287.6</ele>
        <time>2024-04-17T15:23:31Z</time>
      </trkpt>
      <trkpt lat="43.21258" lon="0.19452">
        <ele>287</ele>
        <time>2024-04-17T15:23:32Z</time>
      </trkpt>
      <trkpt lat="43.21256" lon="0.19453">
        <ele>286.8</ele>
        <time>2024-04-17T15:23:33Z</time>
      </trkpt>
      <trkpt lat="43.21255" lon="0.19453">
        <ele>286.8</ele>
        <time>2024-04-17T15:23:34Z</time>
      </trkpt>
      <trkpt lat="43.21253" lon="0.19454">
        <ele>286.6</ele>
        <time>2024-04-17T15:23:35Z</time>
      </trkpt>
      <trkpt lat="43.21251" lon="0.19455">
        <ele>286.6</ele>
        <time>2024-04-17T15:23:36Z</time>
      </trkpt>
      <trkpt lat="43.21249" lon="0.19457">
        <ele>286.6</ele>
        <time>2024-04-17T15:23:37Z</time>
      </trkpt>
      <trkpt lat="43.21247" lon="0.19457">
        <ele>287</ele>
        <time>2024-04-17T15:23:38Z</time>
      </trkpt>
      <trkpt lat="43.21243" lon="0.19457">
        <ele>287.2</ele>
        <time>2024-04-17T15:23:39Z</time>
      </trkpt>
      <trkpt lat="43.21239" lon="0.19458">
        <ele>287.2</ele>
        <time>2024-04-17T15:23:40Z</time>
      </trkpt>
      <trkpt lat="43.21239" lon="0.19458">
        <ele>287.6</ele>
        <time>2024-04-17T15:23:41Z</time>
      </trkpt>
      <trkpt lat="43.21239" lon="0.19458">
        <ele>287.6</ele>
        <time>2024-04-17T15:23:42Z</time>
      </trkpt>
      <trkpt lat="43.21237" lon="0.19457">
        <ele>287.8</ele>
        <time>2024-04-17T15:23:43Z</time>
      </trkpt>
      <trkpt lat="43.21237" lon="0.19458">
        <ele>288</ele>
        <time>2024-04-17T15:23:44Z</time>
      </trkpt>
      <trkpt lat="43.21237" lon="0.19458">
        <ele>288.2</ele>
        <time>2024-04-17T15:23:45Z</time>
      </trkpt>
      <trkpt lat="43.21233" lon="0.19458">
        <ele>288.4</ele>
        <time>2024-04-17T15:23:46Z</time>
      </trkpt>
      <trkpt lat="43.21232" lon="0.19458">
        <ele>288.6</ele>
        <time>2024-04-17T15:23:47Z</time>
      </trkpt>
      <trkpt lat="43.2123" lon="0.19458">
        <ele>288.8</ele>
        <time>2024-04-17T15:23:48Z</time>
      </trkpt>
      <trkpt lat="43.21226" lon="0.19459">
        <ele>289</ele>
        <time>2024-04-17T15:23:49Z</time>
      </trkpt>
      <trkpt lat="43.21223" lon="0.19459">
        <ele>289.2</ele>
        <time>2024-04-17T15:23:50Z</time>
      </trkpt>
      <trkpt lat="43.2122" lon="0.1946">
        <ele>289.4</ele>
        <time>2024-04-17T15:23:51Z</time>
      </trkpt>
      <trkpt lat="43.21216" lon="0.19462">
        <ele>289.6</ele>
        <time>2024-04-17T15:23:52Z</time>
      </trkpt>
      <trkpt lat="43.21213" lon="0.19463">
        <ele>289.8</ele>
        <time>2024-04-17T15:23:53Z</time>
      </trkpt>
      <trkpt lat="43.21209" lon="0.19464">
        <ele>290</ele>
        <time>2024-04-17T15:23:54Z</time>
      </trkpt>
      <trkpt lat="43.21207" lon="0.19465">
        <ele>290</ele>
        <time>2024-04-17T15:23:55Z</time>
      </trkpt>
      <trkpt lat="43.21204" lon="0.19466">
        <ele>290.2</ele>
        <time>2024-04-17T15:23:56Z</time>
      </trkpt>
      <trkpt lat="43.21203" lon="0.19466">
        <ele>290.4</ele>
        <time>2024-04-17T15:23:57Z</time>
      </trkpt>
      <trkpt lat="43.21203" lon="0.19466">
        <ele>290.4</ele>
        <time>2024-04-17T15:23:58Z</time>
      </trkpt>
      <trkpt lat="43.212" lon="0.19467">
        <ele>290.6</ele>
        <time>2024-04-17T15:23:59Z</time>
      </trkpt>
      <trkpt lat="43.21196" lon="0.19468">
        <ele>290.6</ele>
        <time>2024-04-17T15:24:00Z</time>
      </trkpt>
      <trkpt lat="43.21195" lon="0.19468">
        <ele>290.8</ele>
        <time>2024-04-17T15:24:01Z</time>
      </trkpt>
      <trkpt lat="43.21193" lon="0.19469">
        <ele>290.8</ele>
        <time>2024-04-17T15:24:02Z</time>
      </trkpt>
      <trkpt lat="43.21192" lon="0.1947">
        <ele>291</ele>
        <time>2024-04-17T15:24:03Z</time>
      </trkpt>
      <trkpt lat="43.21191" lon="0.19471">
        <ele>291.2</ele>
        <time>2024-04-17T15:24:04Z</time>
      </trkpt>
      <trkpt lat="43.21189" lon="0.19472">
        <ele>291.2</ele>
        <time>2024-04-17T15:24:05Z</time>
      </trkpt>
      <trkpt lat="43.21188" lon="0.19473">
        <ele>291.6</ele>
        <time>2024-04-17T15:24:06Z</time>
      </trkpt>
      <trkpt lat="43.21187" lon="0.19474">
        <ele>291.6</ele>
        <time>2024-04-17T15:24:07Z</time>
      </trkpt>
      <trkpt lat="43.21187" lon="0.19474">
        <ele>291.8</ele>
        <time>2024-04-17T15:24:08Z</time>
      </trkpt>
      <trkpt lat="43.21187" lon="0.19474">
        <ele>291.8</ele>
        <time>2024-04-17T15:24:09Z</time>
      </trkpt>
      <trkpt lat="43.21187" lon="0.19474">
        <ele>292.4</ele>
        <time>2024-04-17T15:24:10Z</time>
      </trkpt>
      <trkpt lat="43.21187" lon="0.19474">
        <ele>292.6</ele>
        <time>2024-04-17T15:24:11Z</time>
      </trkpt>
      <trkpt lat="43.21187" lon="0.19474">
        <ele>292.8</ele>
        <time>2024-04-17T15:24:12Z</time>
      </trkpt>
      <trkpt lat="43.21187" lon="0.19474">
        <ele>293</ele>
        <time>2024-04-17T15:24:13Z</time>
      </trkpt>
      <trkpt lat="43.21186" lon="0.19475">
        <ele>293</ele>
        <time>2024-04-17T15:24:14Z</time>
      </trkpt>
      <trkpt lat="43.21186" lon="0.19475">
        <ele>293.2</ele>
        <time>2024-04-17T15:24:15Z</time>
      </trkpt>
      <trkpt lat="43.21186" lon="0.19475">
        <ele>293.2</ele>
        <time>2024-04-17T15:24:16Z</time>
      </trkpt>
      <trkpt lat="43.21186" lon="0.19475">
        <ele>293.6</ele>
        <time>2024-04-17T15:24:17Z</time>
      </trkpt>
      <trkpt lat="43.21186" lon="0.19474">
        <ele>293.6</ele>
        <time>2024-04-17T15:24:18Z</time>
      </trkpt>
      <trkpt lat="43.21185" lon="0.19473">
        <ele>293.8</ele>
        <time>2024-04-17T15:24:19Z</time>
      </trkpt>
      <trkpt lat="43.21182" lon="0.19474">
        <ele>294.2</ele>
        <time>2024-04-17T15:24:20Z</time>
      </trkpt>
      <trkpt lat="43.21181" lon="0.19474">
        <ele>294.2</ele>
        <time>2024-04-17T15:24:21Z</time>
      </trkpt>
      <trkpt lat="43.2118" lon="0.19474">
        <ele>294.4</ele>
        <time>2024-04-17T15:24:22Z</time>
      </trkpt>
      <trkpt lat="43.2118" lon="0.19474">
        <ele>294.6</ele>
        <time>2024-04-17T15:24:23Z</time>
      </trkpt>
      <trkpt lat="43.2118" lon="0.19474">
        <ele>294.6</ele>
        <time>2024-04-17T15:24:24Z</time>
      </trkpt>
      <trkpt lat="43.2118" lon="0.19474">
        <ele>294.8</ele>
        <time>2024-04-17T15:24:25Z</time>
      </trkpt>
      <trkpt lat="43.2118" lon="0.19474">
        <ele>294.6</ele>
        <time>2024-04-17T15:24:26Z</time>
      </trkpt>
      <trkpt lat="43.2118" lon="0.19474">
        <ele>294.8</ele>
        <time>2024-04-17T15:24:27Z</time>
      </trkpt>
      <trkpt lat="43.2118" lon="0.19474">
        <ele>294.8</ele>
        <time>2024-04-17T15:24:28Z</time>
      </trkpt>
      <trkpt lat="43.2118" lon="0.19474">
        <ele>295</ele>
        <time>2024-04-17T15:24:29Z</time>
      </trkpt>
      <trkpt lat="43.2118" lon="0.19474">
        <ele>295</ele>
        <time>2024-04-17T15:24:30Z</time>
      </trkpt>
      <trkpt lat="43.2118" lon="0.19474">
        <ele>295.2</ele>
        <time>2024-04-17T15:24:31Z</time>
      </trkpt>
      <trkpt lat="43.21178" lon="0.19475">
        <ele>295.2</ele>
        <time>2024-04-17T15:24:32Z</time>
      </trkpt>
      <trkpt lat="43.21177" lon="0.19475">
        <ele>295.6</ele>
        <time>2024-04-17T15:24:33Z</time>
      </trkpt>
      <trkpt lat="43.21176" lon="0.19474">
        <ele>295.6</ele>
        <time>2024-04-17T15:24:34Z</time>
      </trkpt>
      <trkpt lat="43.21176" lon="0.19474">
        <ele>295.8</ele>
        <time>2024-04-17T15:24:35Z</time>
      </trkpt>
      <trkpt lat="43.21175" lon="0.19473">
        <ele>296</ele>
        <time>2024-04-17T15:24:36Z</time>
      </trkpt>
      <trkpt lat="43.21175" lon="0.19473">
        <ele>296.2</ele>
        <time>2024-04-17T15:24:37Z</time>
      </trkpt>
      <trkpt lat="43.21174" lon="0.19473">
        <ele>296.4</ele>
        <time>2024-04-17T15:24:38Z</time>
      </trkpt>
      <trkpt lat="43.21173" lon="0.19472">
        <ele>296.4</ele>
        <time>2024-04-17T15:24:39Z</time>
      </trkpt>
      <trkpt lat="43.21173" lon="0.19472">
        <ele>296.6</ele>
        <time>2024-04-17T15:24:40Z</time>
      </trkpt>
      <trkpt lat="43.21172" lon="0.19471">
        <ele>296.6</ele>
        <time>2024-04-17T15:24:41Z</time>
      </trkpt>
      <trkpt lat="43.21172" lon="0.19471">
        <ele>296.6</ele>
        <time>2024-04-17T15:24:42Z</time>
      </trkpt>
      <trkpt lat="43.21171" lon="0.19471">
        <ele>296.8</ele>
        <time>2024-04-17T15:24:43Z</time>
      </trkpt>
      <trkpt lat="43.21171" lon="0.1947">
        <ele>296.8</ele>
        <time>2024-04-17T15:24:44Z</time>
      </trkpt>
      <trkpt lat="43.21166" lon="0.19466">
        <ele>296.8</ele>
        <time>2024-04-17T15:24:45Z</time>
      </trkpt>
      <trkpt lat="43.2116" lon="0.19461">
        <ele>296.8</ele>
        <time>2024-04-17T15:24:46Z</time>
      </trkpt>
      <trkpt lat="43.21153" lon="0.19456">
        <ele>296.8</ele>
        <time>2024-04-17T15:24:47Z</time>
      </trkpt>
      <trkpt lat="43.21147" lon="0.19451">
        <ele>296.4</ele>
        <time>2024-04-17T15:24:48Z</time>
      </trkpt>
      <trkpt lat="43.21139" lon="0.19447">
        <ele>295</ele>
        <time>2024-04-17T15:24:49Z</time>
      </trkpt>
      <trkpt lat="43.21131" lon="0.19443">
        <ele>294.4</ele>
        <time>2024-04-17T15:24:50Z</time>
      </trkpt>
      <trkpt lat="43.21124" lon="0.19441">
        <ele>293.6</ele>
        <time>2024-04-17T15:24:51Z</time>
      </trkpt>
      <trkpt lat="43.21117" lon="0.19437">
        <ele>293.2</ele>
        <time>2024-04-17T15:24:52Z</time>
      </trkpt>
      <trkpt lat="43.21111" lon="0.19435">
        <ele>292.4</ele>
        <time>2024-04-17T15:24:53Z</time>
      </trkpt>
      <trkpt lat="43.21105" lon="0.19435">
        <ele>292</ele>
        <time>2024-04-17T15:24:54Z</time>
      </trkpt>
      <trkpt lat="43.21099" lon="0.19435">
        <ele>291.8</ele>
        <time>2024-04-17T15:24:55Z</time>
      </trkpt>
      <trkpt lat="43.21095" lon="0.19434">
        <ele>291.4</ele>
        <time>2024-04-17T15:24:56Z</time>
      </trkpt>
      <trkpt lat="43.21091" lon="0.19435">
        <ele>291.2</ele>
        <time>2024-04-17T15:24:57Z</time>
      </trkpt>
      <trkpt lat="43.21087" lon="0.19436">
        <ele>291</ele>
        <time>2024-04-17T15:24:58Z</time>
      </trkpt>
      <trkpt lat="43.21084" lon="0.19435">
        <ele>291</ele>
        <time>2024-04-17T15:24:59Z</time>
      </trkpt>
      <trkpt lat="43.21081" lon="0.19434">
        <ele>290.4</ele>
        <time>2024-04-17T15:25:00Z</time>
      </trkpt>
      <trkpt lat="43.21079" lon="0.19432">
        <ele>290</ele>
        <time>2024-04-17T15:25:01Z</time>
      </trkpt>
      <trkpt lat="43.21079" lon="0.19431">
        <ele>289.4</ele>
        <time>2024-04-17T15:25:02Z</time>
      </trkpt>
      <trkpt lat="43.21079" lon="0.1943">
        <ele>288.8</ele>
        <time>2024-04-17T15:25:03Z</time>
      </trkpt>
      <trkpt lat="43.2108" lon="0.19429">
        <ele>288.6</ele>
        <time>2024-04-17T15:25:04Z</time>
      </trkpt>
      <trkpt lat="43.2108" lon="0.19427">
        <ele>288.2</ele>
        <time>2024-04-17T15:25:05Z</time>
      </trkpt>
      <trkpt lat="43.21081" lon="0.19424">
        <ele>288.2</ele>
        <time>2024-04-17T15:25:06Z</time>
      </trkpt>
      <trkpt lat="43.21082" lon="0.19421">
        <ele>287.8</ele>
        <time>2024-04-17T15:25:07Z</time>
      </trkpt>
      <trkpt lat="43.21084" lon="0.19419">
        <ele>287.2</ele>
        <time>2024-04-17T15:25:08Z</time>
      </trkpt>
      <trkpt lat="43.21087" lon="0.19415">
        <ele>286.8</ele>
        <time>2024-04-17T15:25:09Z</time>
      </trkpt>
      <trkpt lat="43.21089" lon="0.19414">
        <ele>286.4</ele>
        <time>2024-04-17T15:25:10Z</time>
      </trkpt>
      <trkpt lat="43.2109" lon="0.19411">
        <ele>286</ele>
        <time>2024-04-17T15:25:11Z</time>
      </trkpt>
      <trkpt lat="43.21091" lon="0.19409">
        <ele>285.2</ele>
        <time>2024-04-17T15:25:12Z</time>
      </trkpt>
      <trkpt lat="43.21092" lon="0.19408">
        <ele>284.8</ele>
        <time>2024-04-17T15:25:13Z</time>
      </trkpt>
      <trkpt lat="43.21093" lon="0.19406">
        <ele>283.8</ele>
        <time>2024-04-17T15:25:14Z</time>
      </trkpt>
      <trkpt lat="43.21094" lon="0.19403">
        <ele>283.6</ele>
        <time>2024-04-17T15:25:15Z</time>
      </trkpt>
      <trkpt lat="43.21096" lon="0.19399">
        <ele>283</ele>
        <time>2024-04-17T15:25:16Z</time>
      </trkpt>
      <trkpt lat="43.21096" lon="0.19394">
        <ele>282.6</ele>
        <time>2024-04-17T15:25:17Z</time>
      </trkpt>
      <trkpt lat="43.21097" lon="0.19389">
        <ele>281.8</ele>
        <time>2024-04-17T15:25:18Z</time>
      </trkpt>
      <trkpt lat="43.21098" lon="0.19385">
        <ele>281.2</ele>
        <time>2024-04-17T15:25:19Z</time>
      </trkpt>
      <trkpt lat="43.21099" lon="0.1938">
        <ele>280.8</ele>
        <time>2024-04-17T15:25:20Z</time>
      </trkpt>
      <trkpt lat="43.21099" lon="0.19376">
        <ele>280.4</ele>
        <time>2024-04-17T15:25:21Z</time>
      </trkpt>
      <trkpt lat="43.21098" lon="0.19373">
        <ele>280.2</ele>
        <time>2024-04-17T15:25:22Z</time>
      </trkpt>
      <trkpt lat="43.21096" lon="0.19371">
        <ele>279.8</ele>
        <time>2024-04-17T15:25:23Z</time>
      </trkpt>
      <trkpt lat="43.21094" lon="0.19368">
        <ele>279.6</ele>
        <time>2024-04-17T15:25:24Z</time>
      </trkpt>
      <trkpt lat="43.21092" lon="0.19367">
        <ele>279.4</ele>
        <time>2024-04-17T15:25:25Z</time>
      </trkpt>
      <trkpt lat="43.2109" lon="0.19366">
        <ele>279.2</ele>
        <time>2024-04-17T15:25:26Z</time>
      </trkpt>
      <trkpt lat="43.21089" lon="0.19364">
        <ele>279</ele>
        <time>2024-04-17T15:25:27Z</time>
      </trkpt>
      <trkpt lat="43.21088" lon="0.19363">
        <ele>278.8</ele>
        <time>2024-04-17T15:25:28Z</time>
      </trkpt>
      <trkpt lat="43.21086" lon="0.19362">
        <ele>278.8</ele>
        <time>2024-04-17T15:25:29Z</time>
      </trkpt>
      <trkpt lat="43.21083" lon="0.19359">
        <ele>278.8</ele>
        <time>2024-04-17T15:25:30Z</time>
      </trkpt>
      <trkpt lat="43.21081" lon="0.19359">
        <ele>278.8</ele>
        <time>2024-04-17T15:25:31Z</time>
      </trkpt>
      <trkpt lat="43.21079" lon="0.19358">
        <ele>278.8</ele>
        <time>2024-04-17T15:25:32Z</time>
      </trkpt>
      <trkpt lat="43.21076" lon="0.19357">
        <ele>278.8</ele>
        <time>2024-04-17T15:25:33Z</time>
      </trkpt>
      <trkpt lat="43.21074" lon="0.19356">
        <ele>278.8</ele>
        <time>2024-04-17T15:25:34Z</time>
      </trkpt>
      <trkpt lat="43.21072" lon="0.19355">
        <ele>278.8</ele>
        <time>2024-04-17T15:25:35Z</time>
      </trkpt>
      <trkpt lat="43.2107" lon="0.19354">
        <ele>278.8</ele>
        <time>2024-04-17T15:25:36Z</time>
      </trkpt>
      <trkpt lat="43.21068" lon="0.19353">
        <ele>279</ele>
        <time>2024-04-17T15:25:37Z</time>
      </trkpt>
      <trkpt lat="43.21066" lon="0.19352">
        <ele>279</ele>
        <time>2024-04-17T15:25:38Z</time>
      </trkpt>
      <trkpt lat="43.21064" lon="0.19351">
        <ele>279</ele>
        <time>2024-04-17T15:25:39Z</time>
      </trkpt>
      <trkpt lat="43.21063" lon="0.1935">
        <ele>279.2</ele>
        <time>2024-04-17T15:25:40Z</time>
      </trkpt>
      <trkpt lat="43.21061" lon="0.19349">
        <ele>279.2</ele>
        <time>2024-04-17T15:25:41Z</time>
      </trkpt>
      <trkpt lat="43.21059" lon="0.19348">
        <ele>279.2</ele>
        <time>2024-04-17T15:25:42Z</time>
      </trkpt>
      <trkpt lat="43.21057" lon="0.19348">
        <ele>279.4</ele>
        <time>2024-04-17T15:25:43Z</time>
      </trkpt>
      <trkpt lat="43.21055" lon="0.19347">
        <ele>279.4</ele>
        <time>2024-04-17T15:25:44Z</time>
      </trkpt>
      <trkpt lat="43.21052" lon="0.19346">
        <ele>279.4</ele>
        <time>2024-04-17T15:25:45Z</time>
      </trkpt>
      <trkpt lat="43.2105" lon="0.19345">
        <ele>279.6</ele>
        <time>2024-04-17T15:25:46Z</time>
      </trkpt>
      <trkpt lat="43.21047" lon="0.19343">
        <ele>279.6</ele>
        <time>2024-04-17T15:25:47Z</time>
      </trkpt>
      <trkpt lat="43.21045" lon="0.1934">
        <ele>279.6</ele>
        <time>2024-04-17T15:25:48Z</time>
      </trkpt>
      <trkpt lat="43.21043" lon="0.19338">
        <ele>279.6</ele>
        <time>2024-04-17T15:25:49Z</time>
      </trkpt>
      <trkpt lat="43.2104" lon="0.19336">
        <ele>279.8</ele>
        <time>2024-04-17T15:25:50Z</time>
      </trkpt>
      <trkpt lat="43.21038" lon="0.19335">
        <ele>280</ele>
        <time>2024-04-17T15:25:51Z</time>
      </trkpt>
      <trkpt lat="43.21036" lon="0.19333">
        <ele>280</ele>
        <time>2024-04-17T15:25:52Z</time>
      </trkpt>
      <trkpt lat="43.21034" lon="0.19332">
        <ele>280</ele>
        <time>2024-04-17T15:25:53Z</time>
      </trkpt>
      <trkpt lat="43.21031" lon="0.19331">
        <ele>280</ele>
        <time>2024-04-17T15:25:54Z</time>
      </trkpt>
      <trkpt lat="43.21029" lon="0.19329">
        <ele>280</ele>
        <time>2024-04-17T15:25:55Z</time>
      </trkpt>
      <trkpt lat="43.21027" lon="0.19328">
        <ele>280</ele>
        <time>2024-04-17T15:25:56Z</time>
      </trkpt>
      <trkpt lat="43.21024" lon="0.19326">
        <ele>280</ele>
        <time>2024-04-17T15:25:57Z</time>
      </trkpt>
      <trkpt lat="43.21022" lon="0.19325">
        <ele>280</ele>
        <time>2024-04-17T15:25:58Z</time>
      </trkpt>
      <trkpt lat="43.21019" lon="0.19323">
        <ele>280</ele>
        <time>2024-04-17T15:25:59Z</time>
      </trkpt>
      <trkpt lat="43.21016" lon="0.19322">
        <ele>280</ele>
        <time>2024-04-17T15:26:00Z</time>
      </trkpt>
      <trkpt lat="43.21014" lon="0.19321">
        <ele>280</ele>
        <time>2024-04-17T15:26:01Z</time>
      </trkpt>
      <trkpt lat="43.21011" lon="0.1932">
        <ele>280</ele>
        <time>2024-04-17T15:26:02Z</time>
      </trkpt>
      <trkpt lat="43.21009" lon="0.1932">
        <ele>280</ele>
        <time>2024-04-17T15:26:03Z</time>
      </trkpt>
      <trkpt lat="43.21007" lon="0.19319">
        <ele>280</ele>
        <time>2024-04-17T15:26:04Z</time>
      </trkpt>
      <trkpt lat="43.21005" lon="0.19319">
        <ele>279.8</ele>
        <time>2024-04-17T15:26:05Z</time>
      </trkpt>
      <trkpt lat="43.21002" lon="0.19318">
        <ele>279.8</ele>
        <time>2024-04-17T15:26:06Z</time>
      </trkpt>
      <trkpt lat="43.21" lon="0.19318">
        <ele>279.8</ele>
        <time>2024-04-17T15:26:07Z</time>
      </trkpt>
      <trkpt lat="43.20998" lon="0.19318">
        <ele>279.8</ele>
        <time>2024-04-17T15:26:08Z</time>
      </trkpt>
      <trkpt lat="43.20995" lon="0.19318">
        <ele>279.8</ele>
        <time>2024-04-17T15:26:09Z</time>
      </trkpt>
      <trkpt lat="43.20992" lon="0.19317">
        <ele>279.8</ele>
        <time>2024-04-17T15:26:10Z</time>
      </trkpt>
      <trkpt lat="43.2099" lon="0.19317">
        <ele>280</ele>
        <time>2024-04-17T15:26:11Z</time>
      </trkpt>
      <trkpt lat="43.20987" lon="0.19317">
        <ele>280</ele>
        <time>2024-04-17T15:26:12Z</time>
      </trkpt>
      <trkpt lat="43.20984" lon="0.19316">
        <ele>280</ele>
        <time>2024-04-17T15:26:13Z</time>
      </trkpt>
      <trkpt lat="43.20982" lon="0.19316">
        <ele>280</ele>
        <time>2024-04-17T15:26:14Z</time>
      </trkpt>
      <trkpt lat="43.20979" lon="0.19316">
        <ele>280</ele>
        <time>2024-04-17T15:26:15Z</time>
      </trkpt>
      <trkpt lat="43.20977" lon="0.19315">
        <ele>280.2</ele>
        <time>2024-04-17T15:26:16Z</time>
      </trkpt>
      <trkpt lat="43.20974" lon="0.19315">
        <ele>280.2</ele>
        <time>2024-04-17T15:26:17Z</time>
      </trkpt>
      <trkpt lat="43.20972" lon="0.19314">
        <ele>280.2</ele>
        <time>2024-04-17T15:26:18Z</time>
      </trkpt>
      <trkpt lat="43.2097" lon="0.19314">
        <ele>280.2</ele>
        <time>2024-04-17T15:26:19Z</time>
      </trkpt>
      <trkpt lat="43.20968" lon="0.19313">
        <ele>280.2</ele>
        <time>2024-04-17T15:26:20Z</time>
      </trkpt>
      <trkpt lat="43.20966" lon="0.19311">
        <ele>280.2</ele>
        <time>2024-04-17T15:26:21Z</time>
      </trkpt>
      <trkpt lat="43.20964" lon="0.1931">
        <ele>280.4</ele>
        <time>2024-04-17T15:26:22Z</time>
      </trkpt>
      <trkpt lat="43.20963" lon="0.19308">
        <ele>280.6</ele>
        <time>2024-04-17T15:26:23Z</time>
      </trkpt>
      <trkpt lat="43.20961" lon="0.19307">
        <ele>281.2</ele>
        <time>2024-04-17T15:26:24Z</time>
      </trkpt>
      <trkpt lat="43.2096" lon="0.19306">
        <ele>281.6</ele>
        <time>2024-04-17T15:26:25Z</time>
      </trkpt>
      <trkpt lat="43.20958" lon="0.19305">
        <ele>281.8</ele>
        <time>2024-04-17T15:26:26Z</time>
      </trkpt>
      <trkpt lat="43.20956" lon="0.19305">
        <ele>282</ele>
        <time>2024-04-17T15:26:27Z</time>
      </trkpt>
      <trkpt lat="43.20955" lon="0.19304">
        <ele>282.2</ele>
        <time>2024-04-17T15:26:28Z</time>
      </trkpt>
      <trkpt lat="43.20954" lon="0.19303">
        <ele>282.4</ele>
        <time>2024-04-17T15:26:29Z</time>
      </trkpt>
      <trkpt lat="43.20952" lon="0.19303">
        <ele>282.6</ele>
        <time>2024-04-17T15:26:30Z</time>
      </trkpt>
      <trkpt lat="43.20951" lon="0.19302">
        <ele>283</ele>
        <time>2024-04-17T15:26:31Z</time>
      </trkpt>
      <trkpt lat="43.2095" lon="0.19301">
        <ele>283.2</ele>
        <time>2024-04-17T15:26:32Z</time>
      </trkpt>
      <trkpt lat="43.20949" lon="0.193">
        <ele>283.4</ele>
        <time>2024-04-17T15:26:33Z</time>
      </trkpt>
      <trkpt lat="43.20948" lon="0.19299">
        <ele>283.8</ele>
        <time>2024-04-17T15:26:34Z</time>
      </trkpt>
      <trkpt lat="43.20947" lon="0.19299">
        <ele>283.8</ele>
        <time>2024-04-17T15:26:35Z</time>
      </trkpt>
      <trkpt lat="43.20946" lon="0.19299">
        <ele>284</ele>
        <time>2024-04-17T15:26:36Z</time>
      </trkpt>
      <trkpt lat="43.20944" lon="0.19299">
        <ele>284</ele>
        <time>2024-04-17T15:26:37Z</time>
      </trkpt>
      <trkpt lat="43.20942" lon="0.19299">
        <ele>284.4</ele>
        <time>2024-04-17T15:26:38Z</time>
      </trkpt>
      <trkpt lat="43.2094" lon="0.19299">
        <ele>284.4</ele>
        <time>2024-04-17T15:26:39Z</time>
      </trkpt>
      <trkpt lat="43.20938" lon="0.19298">
        <ele>284.4</ele>
        <time>2024-04-17T15:26:40Z</time>
      </trkpt>
      <trkpt lat="43.20936" lon="0.19297">
        <ele>284.4</ele>
        <time>2024-04-17T15:26:41Z</time>
      </trkpt>
      <trkpt lat="43.20933" lon="0.19297">
        <ele>284.4</ele>
        <time>2024-04-17T15:26:42Z</time>
      </trkpt>
      <trkpt lat="43.2093" lon="0.19297">
        <ele>284.4</ele>
        <time>2024-04-17T15:26:43Z</time>
      </trkpt>
      <trkpt lat="43.20926" lon="0.19298">
        <ele>284.4</ele>
        <time>2024-04-17T15:26:44Z</time>
      </trkpt>
      <trkpt lat="43.2092" lon="0.19298">
        <ele>284.4</ele>
        <time>2024-04-17T15:26:45Z</time>
      </trkpt>
      <trkpt lat="43.20914" lon="0.19298">
        <ele>284.4</ele>
        <time>2024-04-17T15:26:46Z</time>
      </trkpt>
      <trkpt lat="43.20907" lon="0.19299">
        <ele>284</ele>
        <time>2024-04-17T15:26:47Z</time>
      </trkpt>
      <trkpt lat="43.209" lon="0.19299">
        <ele>284</ele>
        <time>2024-04-17T15:26:48Z</time>
      </trkpt>
      <trkpt lat="43.20894" lon="0.19301">
        <ele>283.4</ele>
        <time>2024-04-17T15:26:49Z</time>
      </trkpt>
      <trkpt lat="43.20889" lon="0.19303">
        <ele>282.8</ele>
        <time>2024-04-17T15:26:50Z</time>
      </trkpt>
      <trkpt lat="43.20885" lon="0.19306">
        <ele>282.6</ele>
        <time>2024-04-17T15:26:51Z</time>
      </trkpt>
      <trkpt lat="43.2088" lon="0.1931">
        <ele>282.2</ele>
        <time>2024-04-17T15:26:52Z</time>
      </trkpt>
      <trkpt lat="43.20875" lon="0.19313">
        <ele>282</ele>
        <time>2024-04-17T15:26:53Z</time>
      </trkpt>
      <trkpt lat="43.20872" lon="0.19316">
        <ele>281.6</ele>
        <time>2024-04-17T15:26:54Z</time>
      </trkpt>
      <trkpt lat="43.20868" lon="0.19319">
        <ele>281.6</ele>
        <time>2024-04-17T15:26:55Z</time>
      </trkpt>
      <trkpt lat="43.20865" lon="0.19322">
        <ele>281.4</ele>
        <time>2024-04-17T15:26:56Z</time>
      </trkpt>
      <trkpt lat="43.20862" lon="0.19325">
        <ele>281.4</ele>
        <time>2024-04-17T15:26:57Z</time>
      </trkpt>
      <trkpt lat="43.2086" lon="0.19328">
        <ele>281.2</ele>
        <time>2024-04-17T15:26:58Z</time>
      </trkpt>
      <trkpt lat="43.20857" lon="0.1933">
        <ele>281.2</ele>
        <time>2024-04-17T15:26:59Z</time>
      </trkpt>
      <trkpt lat="43.20855" lon="0.19333">
        <ele>281.2</ele>
        <time>2024-04-17T15:27:00Z</time>
      </trkpt>
      <trkpt lat="43.20852" lon="0.19337">
        <ele>281.2</ele>
        <time>2024-04-17T15:27:01Z</time>
      </trkpt>
      <trkpt lat="43.20849" lon="0.1934">
        <ele>281.2</ele>
        <time>2024-04-17T15:27:02Z</time>
      </trkpt>
      <trkpt lat="43.20846" lon="0.19343">
        <ele>281.2</ele>
        <time>2024-04-17T15:27:03Z</time>
      </trkpt>
      <trkpt lat="43.20843" lon="0.19347">
        <ele>281.2</ele>
        <time>2024-04-17T15:27:04Z</time>
      </trkpt>
      <trkpt lat="43.20841" lon="0.1935">
        <ele>281.2</ele>
        <time>2024-04-17T15:27:05Z</time>
      </trkpt>
      <trkpt lat="43.20838" lon="0.19355">
        <ele>281.2</ele>
        <time>2024-04-17T15:27:06Z</time>
      </trkpt>
      <trkpt lat="43.20837" lon="0.19359">
        <ele>281.2</ele>
        <time>2024-04-17T15:27:07Z</time>
      </trkpt>
      <trkpt lat="43.20834" lon="0.19363">
        <ele>281.2</ele>
        <time>2024-04-17T15:27:08Z</time>
      </trkpt>
      <trkpt lat="43.20831" lon="0.19367">
        <ele>281.2</ele>
        <time>2024-04-17T15:27:09Z</time>
      </trkpt>
      <trkpt lat="43.20828" lon="0.1937">
        <ele>281.2</ele>
        <time>2024-04-17T15:27:10Z</time>
      </trkpt>
      <trkpt lat="43.20824" lon="0.19374">
        <ele>281.2</ele>
        <time>2024-04-17T15:27:11Z</time>
      </trkpt>
      <trkpt lat="43.20821" lon="0.19378">
        <ele>281.2</ele>
        <time>2024-04-17T15:27:12Z</time>
      </trkpt>
      <trkpt lat="43.20818" lon="0.19381">
        <ele>281.2</ele>
        <time>2024-04-17T15:27:13Z</time>
      </trkpt>
      <trkpt lat="43.20815" lon="0.19384">
        <ele>281.2</ele>
        <time>2024-04-17T15:27:14Z</time>
      </trkpt>
      <trkpt lat="43.20811" lon="0.19387">
        <ele>281.2</ele>
        <time>2024-04-17T15:27:15Z</time>
      </trkpt>
      <trkpt lat="43.20808" lon="0.1939">
        <ele>281.4</ele>
        <time>2024-04-17T15:27:16Z</time>
      </trkpt>
      <trkpt lat="43.20806" lon="0.19393">
        <ele>281.4</ele>
        <time>2024-04-17T15:27:17Z</time>
      </trkpt>
      <trkpt lat="43.20804" lon="0.19395">
        <ele>281.4</ele>
        <time>2024-04-17T15:27:18Z</time>
      </trkpt>
      <trkpt lat="43.20802" lon="0.19398">
        <ele>281.4</ele>
        <time>2024-04-17T15:27:19Z</time>
      </trkpt>
      <trkpt lat="43.208" lon="0.19401">
        <ele>281.4</ele>
        <time>2024-04-17T15:27:20Z</time>
      </trkpt>
      <trkpt lat="43.20797" lon="0.19405">
        <ele>281.4</ele>
        <time>2024-04-17T15:27:21Z</time>
      </trkpt>
      <trkpt lat="43.20795" lon="0.19408">
        <ele>281.4</ele>
        <time>2024-04-17T15:27:22Z</time>
      </trkpt>
      <trkpt lat="43.20792" lon="0.19412">
        <ele>281.4</ele>
        <time>2024-04-17T15:27:23Z</time>
      </trkpt>
      <trkpt lat="43.2079" lon="0.19415">
        <ele>281.6</ele>
        <time>2024-04-17T15:27:24Z</time>
      </trkpt>
      <trkpt lat="43.20787" lon="0.19417">
        <ele>281.6</ele>
        <time>2024-04-17T15:27:25Z</time>
      </trkpt>
      <trkpt lat="43.20784" lon="0.19419">
        <ele>281.6</ele>
        <time>2024-04-17T15:27:26Z</time>
      </trkpt>
      <trkpt lat="43.2078" lon="0.19421">
        <ele>281.6</ele>
        <time>2024-04-17T15:27:27Z</time>
      </trkpt>
      <trkpt lat="43.20775" lon="0.19422">
        <ele>281.8</ele>
        <time>2024-04-17T15:27:28Z</time>
      </trkpt>
      <trkpt lat="43.20771" lon="0.19423">
        <ele>281.8</ele>
        <time>2024-04-17T15:27:29Z</time>
      </trkpt>
      <trkpt lat="43.20768" lon="0.19423">
        <ele>282</ele>
        <time>2024-04-17T15:27:30Z</time>
      </trkpt>
      <trkpt lat="43.20764" lon="0.19424">
        <ele>282</ele>
        <time>2024-04-17T15:27:31Z</time>
      </trkpt>
      <trkpt lat="43.20761" lon="0.19425">
        <ele>282</ele>
        <time>2024-04-17T15:27:32Z</time>
      </trkpt>
      <trkpt lat="43.20758" lon="0.19427">
        <ele>282.2</ele>
        <time>2024-04-17T15:27:33Z</time>
      </trkpt>
      <trkpt lat="43.20755" lon="0.19429">
        <ele>282.2</ele>
        <time>2024-04-17T15:27:34Z</time>
      </trkpt>
      <trkpt lat="43.20752" lon="0.1943">
        <ele>282.2</ele>
        <time>2024-04-17T15:27:35Z</time>
      </trkpt>
      <trkpt lat="43.2075" lon="0.19432">
        <ele>282.2</ele>
        <time>2024-04-17T15:27:36Z</time>
      </trkpt>
      <trkpt lat="43.20747" lon="0.19434">
        <ele>282.2</ele>
        <time>2024-04-17T15:27:37Z</time>
      </trkpt>
      <trkpt lat="43.20744" lon="0.19437">
        <ele>282.2</ele>
        <time>2024-04-17T15:27:38Z</time>
      </trkpt>
      <trkpt lat="43.20742" lon="0.1944">
        <ele>282.2</ele>
        <time>2024-04-17T15:27:39Z</time>
      </trkpt>
      <trkpt lat="43.20739" lon="0.19443">
        <ele>282.2</ele>
        <time>2024-04-17T15:27:40Z</time>
      </trkpt>
      <trkpt lat="43.20736" lon="0.19445">
        <ele>282.2</ele>
        <time>2024-04-17T15:27:41Z</time>
      </trkpt>
      <trkpt lat="43.20733" lon="0.19448">
        <ele>282.2</ele>
        <time>2024-04-17T15:27:42Z</time>
      </trkpt>
      <trkpt lat="43.20731" lon="0.1945">
        <ele>282.2</ele>
        <time>2024-04-17T15:27:43Z</time>
      </trkpt>
      <trkpt lat="43.20729" lon="0.19451">
        <ele>282.2</ele>
        <time>2024-04-17T15:27:44Z</time>
      </trkpt>
      <trkpt lat="43.20727" lon="0.19453">
        <ele>282.2</ele>
        <time>2024-04-17T15:27:45Z</time>
      </trkpt>
      <trkpt lat="43.20725" lon="0.19455">
        <ele>282.4</ele>
        <time>2024-04-17T15:27:46Z</time>
      </trkpt>
      <trkpt lat="43.20723" lon="0.19456">
        <ele>282.6</ele>
        <time>2024-04-17T15:27:47Z</time>
      </trkpt>
      <trkpt lat="43.20721" lon="0.19458">
        <ele>282.8</ele>
        <time>2024-04-17T15:27:48Z</time>
      </trkpt>
      <trkpt lat="43.20718" lon="0.19459">
        <ele>282.8</ele>
        <time>2024-04-17T15:27:49Z</time>
      </trkpt>
      <trkpt lat="43.20716" lon="0.19461">
        <ele>283</ele>
        <time>2024-04-17T15:27:50Z</time>
      </trkpt>
      <trkpt lat="43.20713" lon="0.19462">
        <ele>283.4</ele>
        <time>2024-04-17T15:27:51Z</time>
      </trkpt>
      <trkpt lat="43.20711" lon="0.19463">
        <ele>283.4</ele>
        <time>2024-04-17T15:27:52Z</time>
      </trkpt>
      <trkpt lat="43.20709" lon="0.19463">
        <ele>283.6</ele>
        <time>2024-04-17T15:27:53Z</time>
      </trkpt>
      <trkpt lat="43.20706" lon="0.19463">
        <ele>283.8</ele>
        <time>2024-04-17T15:27:54Z</time>
      </trkpt>
      <trkpt lat="43.20704" lon="0.19463">
        <ele>283.8</ele>
        <time>2024-04-17T15:27:55Z</time>
      </trkpt>
      <trkpt lat="43.20701" lon="0.19463">
        <ele>284</ele>
        <time>2024-04-17T15:27:56Z</time>
      </trkpt>
      <trkpt lat="43.20699" lon="0.19461">
        <ele>284</ele>
        <time>2024-04-17T15:27:57Z</time>
      </trkpt>
      <trkpt lat="43.20696" lon="0.19461">
        <ele>284.2</ele>
        <time>2024-04-17T15:27:58Z</time>
      </trkpt>
      <trkpt lat="43.20694" lon="0.1946">
        <ele>284.2</ele>
        <time>2024-04-17T15:27:59Z</time>
      </trkpt>
      <trkpt lat="43.2069" lon="0.19459">
        <ele>284.2</ele>
        <time>2024-04-17T15:28:00Z</time>
      </trkpt>
      <trkpt lat="43.20687" lon="0.19458">
        <ele>284.2</ele>
        <time>2024-04-17T15:28:01Z</time>
      </trkpt>
      <trkpt lat="43.20683" lon="0.19457">
        <ele>284</ele>
        <time>2024-04-17T15:28:02Z</time>
      </trkpt>
      <trkpt lat="43.2068" lon="0.19454">
        <ele>284</ele>
        <time>2024-04-17T15:28:03Z</time>
      </trkpt>
      <trkpt lat="43.20678" lon="0.19451">
        <ele>284</ele>
        <time>2024-04-17T15:28:04Z</time>
      </trkpt>
      <trkpt lat="43.20675" lon="0.19447">
        <ele>283.8</ele>
        <time>2024-04-17T15:28:05Z</time>
      </trkpt>
      <trkpt lat="43.20672" lon="0.19444">
        <ele>283.6</ele>
        <time>2024-04-17T15:28:06Z</time>
      </trkpt>
      <trkpt lat="43.20669" lon="0.19441">
        <ele>283.6</ele>
        <time>2024-04-17T15:28:07Z</time>
      </trkpt>
      <trkpt lat="43.20666" lon="0.19437">
        <ele>283.6</ele>
        <time>2024-04-17T15:28:08Z</time>
      </trkpt>
      <trkpt lat="43.20663" lon="0.19434">
        <ele>283.4</ele>
        <time>2024-04-17T15:28:09Z</time>
      </trkpt>
      <trkpt lat="43.20661" lon="0.19432">
        <ele>283.4</ele>
        <time>2024-04-17T15:28:10Z</time>
      </trkpt>
      <trkpt lat="43.20658" lon="0.19429">
        <ele>283.2</ele>
        <time>2024-04-17T15:28:11Z</time>
      </trkpt>
      <trkpt lat="43.20655" lon="0.19428">
        <ele>283.2</ele>
        <time>2024-04-17T15:28:12Z</time>
      </trkpt>
      <trkpt lat="43.20652" lon="0.19426">
        <ele>283.2</ele>
        <time>2024-04-17T15:28:13Z</time>
      </trkpt>
      <trkpt lat="43.20649" lon="0.19424">
        <ele>283.2</ele>
        <time>2024-04-17T15:28:14Z</time>
      </trkpt>
      <trkpt lat="43.20646" lon="0.19422">
        <ele>283.2</ele>
        <time>2024-04-17T15:28:15Z</time>
      </trkpt>
      <trkpt lat="43.20644" lon="0.1942">
        <ele>283.2</ele>
        <time>2024-04-17T15:28:16Z</time>
      </trkpt>
      <trkpt lat="43.20641" lon="0.19419">
        <ele>283.2</ele>
        <time>2024-04-17T15:28:17Z</time>
      </trkpt>
      <trkpt lat="43.20638" lon="0.19417">
        <ele>283.2</ele>
        <time>2024-04-17T15:28:18Z</time>
      </trkpt>
      <trkpt lat="43.20635" lon="0.19416">
        <ele>283.2</ele>
        <time>2024-04-17T15:28:19Z</time>
      </trkpt>
      <trkpt lat="43.20632" lon="0.19415">
        <ele>283.4</ele>
        <time>2024-04-17T15:28:20Z</time>
      </trkpt>
      <trkpt lat="43.20629" lon="0.19414">
        <ele>283.4</ele>
        <time>2024-04-17T15:28:21Z</time>
      </trkpt>
      <trkpt lat="43.20626" lon="0.19413">
        <ele>283.4</ele>
        <time>2024-04-17T15:28:22Z</time>
      </trkpt>
      <trkpt lat="43.20623" lon="0.19412">
        <ele>283.4</ele>
        <time>2024-04-17T15:28:23Z</time>
      </trkpt>
      <trkpt lat="43.20621" lon="0.19411">
        <ele>283.4</ele>
        <time>2024-04-17T15:28:24Z</time>
      </trkpt>
      <trkpt lat="43.20618" lon="0.1941">
        <ele>283.4</ele>
        <time>2024-04-17T15:28:25Z</time>
      </trkpt>
      <trkpt lat="43.20614" lon="0.19409">
        <ele>283.4</ele>
        <time>2024-04-17T15:28:26Z</time>
      </trkpt>
      <trkpt lat="43.20611" lon="0.19409">
        <ele>283.4</ele>
        <time>2024-04-17T15:28:27Z</time>
      </trkpt>
      <trkpt lat="43.20608" lon="0.19409">
        <ele>283.6</ele>
        <time>2024-04-17T15:28:28Z</time>
      </trkpt>
      <trkpt lat="43.20605" lon="0.19409">
        <ele>283.8</ele>
        <time>2024-04-17T15:28:29Z</time>
      </trkpt>
      <trkpt lat="43.20602" lon="0.19409">
        <ele>284</ele>
        <time>2024-04-17T15:28:30Z</time>
      </trkpt>
      <trkpt lat="43.206" lon="0.19409">
        <ele>284</ele>
        <time>2024-04-17T15:28:31Z</time>
      </trkpt>
      <trkpt lat="43.20597" lon="0.19409">
        <ele>284.2</ele>
        <time>2024-04-17T15:28:32Z</time>
      </trkpt>
      <trkpt lat="43.20595" lon="0.1941">
        <ele>284.2</ele>
        <time>2024-04-17T15:28:33Z</time>
      </trkpt>
      <trkpt lat="43.20592" lon="0.19411">
        <ele>284.2</ele>
        <time>2024-04-17T15:28:34Z</time>
      </trkpt>
      <trkpt lat="43.2059" lon="0.19411">
        <ele>284.2</ele>
        <time>2024-04-17T15:28:35Z</time>
      </trkpt>
      <trkpt lat="43.20588" lon="0.19411">
        <ele>284.4</ele>
        <time>2024-04-17T15:28:36Z</time>
      </trkpt>
      <trkpt lat="43.20587" lon="0.19409">
        <ele>284.6</ele>
        <time>2024-04-17T15:28:37Z</time>
      </trkpt>
      <trkpt lat="43.20586" lon="0.19407">
        <ele>284.6</ele>
        <time>2024-04-17T15:28:38Z</time>
      </trkpt>
      <trkpt lat="43.20586" lon="0.19405">
        <ele>284.8</ele>
        <time>2024-04-17T15:28:39Z</time>
      </trkpt>
      <trkpt lat="43.20585" lon="0.19402">
        <ele>284.8</ele>
        <time>2024-04-17T15:28:40Z</time>
      </trkpt>
      <trkpt lat="43.20585" lon="0.194">
        <ele>285</ele>
        <time>2024-04-17T15:28:41Z</time>
      </trkpt>
      <trkpt lat="43.20585" lon="0.19397">
        <ele>285.2</ele>
        <time>2024-04-17T15:28:42Z</time>
      </trkpt>
      <trkpt lat="43.20585" lon="0.19395">
        <ele>285.2</ele>
        <time>2024-04-17T15:28:43Z</time>
      </trkpt>
      <trkpt lat="43.20585" lon="0.19391">
        <ele>285.2</ele>
        <time>2024-04-17T15:28:44Z</time>
      </trkpt>
      <trkpt lat="43.20584" lon="0.19387">
        <ele>285.2</ele>
        <time>2024-04-17T15:28:45Z</time>
      </trkpt>
      <trkpt lat="43.20585" lon="0.19382">
        <ele>285.2</ele>
        <time>2024-04-17T15:28:46Z</time>
      </trkpt>
      <trkpt lat="43.20586" lon="0.19376">
        <ele>285.2</ele>
        <time>2024-04-17T15:28:47Z</time>
      </trkpt>
      <trkpt lat="43.20586" lon="0.19371">
        <ele>285.2</ele>
        <time>2024-04-17T15:28:48Z</time>
      </trkpt>
      <trkpt lat="43.20587" lon="0.19366">
        <ele>285.2</ele>
        <time>2024-04-17T15:28:49Z</time>
      </trkpt>
      <trkpt lat="43.20588" lon="0.1936">
        <ele>285.2</ele>
        <time>2024-04-17T15:28:50Z</time>
      </trkpt>
      <trkpt lat="43.20588" lon="0.19356">
        <ele>285.2</ele>
        <time>2024-04-17T15:28:51Z</time>
      </trkpt>
      <trkpt lat="43.20589" lon="0.19351">
        <ele>285.2</ele>
        <time>2024-04-17T15:28:52Z</time>
      </trkpt>
      <trkpt lat="43.20589" lon="0.19347">
        <ele>285.2</ele>
        <time>2024-04-17T15:28:53Z</time>
      </trkpt>
      <trkpt lat="43.2059" lon="0.19342">
        <ele>285.2</ele>
        <time>2024-04-17T15:28:54Z</time>
      </trkpt>
      <trkpt lat="43.2059" lon="0.19338">
        <ele>285.2</ele>
        <time>2024-04-17T15:28:55Z</time>
      </trkpt>
      <trkpt lat="43.20591" lon="0.19333">
        <ele>285.2</ele>
        <time>2024-04-17T15:28:56Z</time>
      </trkpt>
      <trkpt lat="43.20591" lon="0.19329">
        <ele>285</ele>
        <time>2024-04-17T15:28:57Z</time>
      </trkpt>
      <trkpt lat="43.20592" lon="0.19324">
        <ele>285</ele>
        <time>2024-04-17T15:28:58Z</time>
      </trkpt>
      <trkpt lat="43.20592" lon="0.1932">
        <ele>285.2</ele>
        <time>2024-04-17T15:28:59Z</time>
      </trkpt>
      <trkpt lat="43.20592" lon="0.19315">
        <ele>285.2</ele>
        <time>2024-04-17T15:29:00Z</time>
      </trkpt>
      <trkpt lat="43.20592" lon="0.19311">
        <ele>285.2</ele>
        <time>2024-04-17T15:29:01Z</time>
      </trkpt>
      <trkpt lat="43.20593" lon="0.19307">
        <ele>285.2</ele>
        <time>2024-04-17T15:29:02Z</time>
      </trkpt>
      <trkpt lat="43.20593" lon="0.19302">
        <ele>285.2</ele>
        <time>2024-04-17T15:29:03Z</time>
      </trkpt>
      <trkpt lat="43.20594" lon="0.19297">
        <ele>285.2</ele>
        <time>2024-04-17T15:29:04Z</time>
      </trkpt>
      <trkpt lat="43.20594" lon="0.19293">
        <ele>285.2</ele>
        <time>2024-04-17T15:29:05Z</time>
      </trkpt>
      <trkpt lat="43.20595" lon="0.19288">
        <ele>285.2</ele>
        <time>2024-04-17T15:29:06Z</time>
      </trkpt>
      <trkpt lat="43.20595" lon="0.19284">
        <ele>285.4</ele>
        <time>2024-04-17T15:29:07Z</time>
      </trkpt>
      <trkpt lat="43.20595" lon="0.19279">
        <ele>285.4</ele>
        <time>2024-04-17T15:29:08Z</time>
      </trkpt>
      <trkpt lat="43.20595" lon="0.19275">
        <ele>285.6</ele>
        <time>2024-04-17T15:29:09Z</time>
      </trkpt>
      <trkpt lat="43.20596" lon="0.19271">
        <ele>285.8</ele>
        <time>2024-04-17T15:29:10Z</time>
      </trkpt>
      <trkpt lat="43.20595" lon="0.19268">
        <ele>285.6</ele>
        <time>2024-04-17T15:29:11Z</time>
      </trkpt>
      <trkpt lat="43.20595" lon="0.19263">
        <ele>285.6</ele>
        <time>2024-04-17T15:29:12Z</time>
      </trkpt>
      <trkpt lat="43.20596" lon="0.1926">
        <ele>285.6</ele>
        <time>2024-04-17T15:29:13Z</time>
      </trkpt>
      <trkpt lat="43.20596" lon="0.19256">
        <ele>285.6</ele>
        <time>2024-04-17T15:29:14Z</time>
      </trkpt>
      <trkpt lat="43.20596" lon="0.19252">
        <ele>285.6</ele>
        <time>2024-04-17T15:29:15Z</time>
      </trkpt>
      <trkpt lat="43.20596" lon="0.19248">
        <ele>285.6</ele>
        <time>2024-04-17T15:29:16Z</time>
      </trkpt>
      <trkpt lat="43.20596" lon="0.19245">
        <ele>285.6</ele>
        <time>2024-04-17T15:29:17Z</time>
      </trkpt>
      <trkpt lat="43.20596" lon="0.19241">
        <ele>285.6</ele>
        <time>2024-04-17T15:29:18Z</time>
      </trkpt>
      <trkpt lat="43.20597" lon="0.19238">
        <ele>285.6</ele>
        <time>2024-04-17T15:29:19Z</time>
      </trkpt>
      <trkpt lat="43.20596" lon="0.19234">
        <ele>285.4</ele>
        <time>2024-04-17T15:29:20Z</time>
      </trkpt>
      <trkpt lat="43.20597" lon="0.19231">
        <ele>285.4</ele>
        <time>2024-04-17T15:29:21Z</time>
      </trkpt>
      <trkpt lat="43.20597" lon="0.19227">
        <ele>285.6</ele>
        <time>2024-04-17T15:29:22Z</time>
      </trkpt>
      <trkpt lat="43.20597" lon="0.19224">
        <ele>285.6</ele>
        <time>2024-04-17T15:29:23Z</time>
      </trkpt>
      <trkpt lat="43.20598" lon="0.19221">
        <ele>285.6</ele>
        <time>2024-04-17T15:29:24Z</time>
      </trkpt>
      <trkpt lat="43.20598" lon="0.19218">
        <ele>285.8</ele>
        <time>2024-04-17T15:29:25Z</time>
      </trkpt>
      <trkpt lat="43.20597" lon="0.19215">
        <ele>285.8</ele>
        <time>2024-04-17T15:29:26Z</time>
      </trkpt>
      <trkpt lat="43.20596" lon="0.19212">
        <ele>285.8</ele>
        <time>2024-04-17T15:29:27Z</time>
      </trkpt>
      <trkpt lat="43.20594" lon="0.1921">
        <ele>285.8</ele>
        <time>2024-04-17T15:29:28Z</time>
      </trkpt>
      <trkpt lat="43.20592" lon="0.19209">
        <ele>285.8</ele>
        <time>2024-04-17T15:29:29Z</time>
      </trkpt>
      <trkpt lat="43.2059" lon="0.19208">
        <ele>285.8</ele>
        <time>2024-04-17T15:29:30Z</time>
      </trkpt>
      <trkpt lat="43.20588" lon="0.19207">
        <ele>286</ele>
        <time>2024-04-17T15:29:31Z</time>
      </trkpt>
      <trkpt lat="43.20585" lon="0.19206">
        <ele>286</ele>
        <time>2024-04-17T15:29:32Z</time>
      </trkpt>
      <trkpt lat="43.20583" lon="0.19205">
        <ele>286.2</ele>
        <time>2024-04-17T15:29:33Z</time>
      </trkpt>
      <trkpt lat="43.20581" lon="0.19204">
        <ele>286.4</ele>
        <time>2024-04-17T15:29:34Z</time>
      </trkpt>
      <trkpt lat="43.20579" lon="0.19203">
        <ele>286.4</ele>
        <time>2024-04-17T15:29:35Z</time>
      </trkpt>
      <trkpt lat="43.20577" lon="0.19202">
        <ele>286.4</ele>
        <time>2024-04-17T15:29:36Z</time>
      </trkpt>
      <trkpt lat="43.20575" lon="0.19202">
        <ele>286.6</ele>
        <time>2024-04-17T15:29:37Z</time>
      </trkpt>
      <trkpt lat="43.20573" lon="0.19201">
        <ele>286.6</ele>
        <time>2024-04-17T15:29:38Z</time>
      </trkpt>
      <trkpt lat="43.20571" lon="0.192">
        <ele>286.6</ele>
        <time>2024-04-17T15:29:39Z</time>
      </trkpt>
      <trkpt lat="43.20569" lon="0.19199">
        <ele>286.6</ele>
        <time>2024-04-17T15:29:40Z</time>
      </trkpt>
      <trkpt lat="43.20568" lon="0.19198">
        <ele>286.8</ele>
        <time>2024-04-17T15:29:41Z</time>
      </trkpt>
      <trkpt lat="43.20566" lon="0.19197">
        <ele>286.8</ele>
        <time>2024-04-17T15:29:42Z</time>
      </trkpt>
      <trkpt lat="43.20564" lon="0.19197">
        <ele>287</ele>
        <time>2024-04-17T15:29:43Z</time>
      </trkpt>
      <trkpt lat="43.20562" lon="0.19196">
        <ele>287</ele>
        <time>2024-04-17T15:29:44Z</time>
      </trkpt>
      <trkpt lat="43.2056" lon="0.19195">
        <ele>287.4</ele>
        <time>2024-04-17T15:29:45Z</time>
      </trkpt>
      <trkpt lat="43.20559" lon="0.19194">
        <ele>287.6</ele>
        <time>2024-04-17T15:29:46Z</time>
      </trkpt>
      <trkpt lat="43.20558" lon="0.19193">
        <ele>287.8</ele>
        <time>2024-04-17T15:29:47Z</time>
      </trkpt>
      <trkpt lat="43.20557" lon="0.19192">
        <ele>288</ele>
        <time>2024-04-17T15:29:48Z</time>
      </trkpt>
      <trkpt lat="43.20555" lon="0.19191">
        <ele>288</ele>
        <time>2024-04-17T15:29:49Z</time>
      </trkpt>
      <trkpt lat="43.20554" lon="0.19191">
        <ele>288.4</ele>
        <time>2024-04-17T15:29:50Z</time>
      </trkpt>
      <trkpt lat="43.20553" lon="0.19191">
        <ele>288.4</ele>
        <time>2024-04-17T15:29:51Z</time>
      </trkpt>
      <trkpt lat="43.20552" lon="0.1919">
        <ele>288.6</ele>
        <time>2024-04-17T15:29:52Z</time>
      </trkpt>
      <trkpt lat="43.20551" lon="0.19188">
        <ele>288.6</ele>
        <time>2024-04-17T15:29:53Z</time>
      </trkpt>
      <trkpt lat="43.2055" lon="0.19187">
        <ele>288.8</ele>
        <time>2024-04-17T15:29:54Z</time>
      </trkpt>
      <trkpt lat="43.20548" lon="0.19186">
        <ele>288.8</ele>
        <time>2024-04-17T15:29:55Z</time>
      </trkpt>
      <trkpt lat="43.20547" lon="0.19185">
        <ele>289.2</ele>
        <time>2024-04-17T15:29:56Z</time>
      </trkpt>
      <trkpt lat="43.20546" lon="0.19184">
        <ele>289.2</ele>
        <time>2024-04-17T15:29:57Z</time>
      </trkpt>
      <trkpt lat="43.20546" lon="0.19184">
        <ele>289.4</ele>
        <time>2024-04-17T15:29:58Z</time>
      </trkpt>
      <trkpt lat="43.20545" lon="0.19183">
        <ele>289.4</ele>
        <time>2024-04-17T15:29:59Z</time>
      </trkpt>
      <trkpt lat="43.20544" lon="0.19183">
        <ele>289.6</ele>
        <time>2024-04-17T15:30:00Z</time>
      </trkpt>
      <trkpt lat="43.20543" lon="0.19182">
        <ele>289.8</ele>
        <time>2024-04-17T15:30:01Z</time>
      </trkpt>
      <trkpt lat="43.20542" lon="0.19182">
        <ele>290.2</ele>
        <time>2024-04-17T15:30:02Z</time>
      </trkpt>
      <trkpt lat="43.20542" lon="0.19182">
        <ele>290.4</ele>
        <time>2024-04-17T15:30:03Z</time>
      </trkpt>
      <trkpt lat="43.20541" lon="0.19182">
        <ele>290.6</ele>
        <time>2024-04-17T15:30:04Z</time>
      </trkpt>
      <trkpt lat="43.2054" lon="0.19181">
        <ele>290.6</ele>
        <time>2024-04-17T15:30:05Z</time>
      </trkpt>
      <trkpt lat="43.20539" lon="0.19181">
        <ele>290.8</ele>
        <time>2024-04-17T15:30:06Z</time>
      </trkpt>
      <trkpt lat="43.20538" lon="0.19181">
        <ele>290.8</ele>
        <time>2024-04-17T15:30:07Z</time>
      </trkpt>
      <trkpt lat="43.20537" lon="0.1918">
        <ele>291</ele>
        <time>2024-04-17T15:30:08Z</time>
      </trkpt>
      <trkpt lat="43.20536" lon="0.1918">
        <ele>291.2</ele>
        <time>2024-04-17T15:30:09Z</time>
      </trkpt>
      <trkpt lat="43.20536" lon="0.19179">
        <ele>291.4</ele>
        <time>2024-04-17T15:30:10Z</time>
      </trkpt>
      <trkpt lat="43.20535" lon="0.19178">
        <ele>291.6</ele>
        <time>2024-04-17T15:30:11Z</time>
      </trkpt>
      <trkpt lat="43.20533" lon="0.19178">
        <ele>291.8</ele>
        <time>2024-04-17T15:30:12Z</time>
      </trkpt>
      <trkpt lat="43.20532" lon="0.19178">
        <ele>292</ele>
        <time>2024-04-17T15:30:13Z</time>
      </trkpt>
      <trkpt lat="43.2053" lon="0.19177">
        <ele>292.2</ele>
        <time>2024-04-17T15:30:14Z</time>
      </trkpt>
      <trkpt lat="43.2053" lon="0.19177">
        <ele>292.4</ele>
        <time>2024-04-17T15:30:15Z</time>
      </trkpt>
      <trkpt lat="43.20529" lon="0.19177">
        <ele>292.4</ele>
        <time>2024-04-17T15:30:16Z</time>
      </trkpt>
      <trkpt lat="43.20528" lon="0.19176">
        <ele>292.4</ele>
        <time>2024-04-17T15:30:17Z</time>
      </trkpt>
      <trkpt lat="43.20527" lon="0.19175">
        <ele>292.6</ele>
        <time>2024-04-17T15:30:18Z</time>
      </trkpt>
      <trkpt lat="43.20526" lon="0.19174">
        <ele>292.6</ele>
        <time>2024-04-17T15:30:19Z</time>
      </trkpt>
      <trkpt lat="43.20525" lon="0.19173">
        <ele>292.8</ele>
        <time>2024-04-17T15:30:20Z</time>
      </trkpt>
      <trkpt lat="43.20523" lon="0.19172">
        <ele>292.8</ele>
        <time>2024-04-17T15:30:21Z</time>
      </trkpt>
      <trkpt lat="43.20522" lon="0.19171">
        <ele>293</ele>
        <time>2024-04-17T15:30:22Z</time>
      </trkpt>
      <trkpt lat="43.20521" lon="0.1917">
        <ele>293.2</ele>
        <time>2024-04-17T15:30:23Z</time>
      </trkpt>
      <trkpt lat="43.2052" lon="0.19168">
        <ele>293.4</ele>
        <time>2024-04-17T15:30:24Z</time>
      </trkpt>
      <trkpt lat="43.20519" lon="0.19167">
        <ele>293.6</ele>
        <time>2024-04-17T15:30:25Z</time>
      </trkpt>
      <trkpt lat="43.20517" lon="0.19167">
        <ele>293.8</ele>
        <time>2024-04-17T15:30:26Z</time>
      </trkpt>
      <trkpt lat="43.20516" lon="0.19166">
        <ele>294</ele>
        <time>2024-04-17T15:30:27Z</time>
      </trkpt>
      <trkpt lat="43.20515" lon="0.19165">
        <ele>294.2</ele>
        <time>2024-04-17T15:30:28Z</time>
      </trkpt>
      <trkpt lat="43.20513" lon="0.19164">
        <ele>294.2</ele>
        <time>2024-04-17T15:30:29Z</time>
      </trkpt>
      <trkpt lat="43.20512" lon="0.19164">
        <ele>294.4</ele>
        <time>2024-04-17T15:30:30Z</time>
      </trkpt>
      <trkpt lat="43.20511" lon="0.19163">
        <ele>294.6</ele>
        <time>2024-04-17T15:30:31Z</time>
      </trkpt>
      <trkpt lat="43.2051" lon="0.19162">
        <ele>294.6</ele>
        <time>2024-04-17T15:30:32Z</time>
      </trkpt>
      <trkpt lat="43.20509" lon="0.19162">
        <ele>295</ele>
        <time>2024-04-17T15:30:33Z</time>
      </trkpt>
      <trkpt lat="43.20508" lon="0.19161">
        <ele>295</ele>
        <time>2024-04-17T15:30:34Z</time>
      </trkpt>
      <trkpt lat="43.20506" lon="0.1916">
        <ele>295.2</ele>
        <time>2024-04-17T15:30:35Z</time>
      </trkpt>
      <trkpt lat="43.20506" lon="0.19159">
        <ele>295.2</ele>
        <time>2024-04-17T15:30:36Z</time>
      </trkpt>
      <trkpt lat="43.20504" lon="0.19159">
        <ele>295.4</ele>
        <time>2024-04-17T15:30:37Z</time>
      </trkpt>
      <trkpt lat="43.20504" lon="0.19158">
        <ele>295.8</ele>
        <time>2024-04-17T15:30:38Z</time>
      </trkpt>
      <trkpt lat="43.20504" lon="0.19158">
        <ele>296</ele>
        <time>2024-04-17T15:30:39Z</time>
      </trkpt>
      <trkpt lat="43.20504" lon="0.19158">
        <ele>296.2</ele>
        <time>2024-04-17T15:30:40Z</time>
      </trkpt>
      <trkpt lat="43.20504" lon="0.19158">
        <ele>296.2</ele>
        <time>2024-04-17T15:30:41Z</time>
      </trkpt>
      <trkpt lat="43.20504" lon="0.19158">
        <ele>296.4</ele>
        <time>2024-04-17T15:30:42Z</time>
      </trkpt>
      <trkpt lat="43.20503" lon="0.19157">
        <ele>296.4</ele>
        <time>2024-04-17T15:30:43Z</time>
      </trkpt>
      <trkpt lat="43.20502" lon="0.19156">
        <ele>296.6</ele>
        <time>2024-04-17T15:30:44Z</time>
      </trkpt>
      <trkpt lat="43.20501" lon="0.19156">
        <ele>296.6</ele>
        <time>2024-04-17T15:30:45Z</time>
      </trkpt>
      <trkpt lat="43.205" lon="0.19155">
        <ele>296.8</ele>
        <time>2024-04-17T15:30:46Z</time>
      </trkpt>
      <trkpt lat="43.20499" lon="0.19154">
        <ele>297</ele>
        <time>2024-04-17T15:30:47Z</time>
      </trkpt>
      <trkpt lat="43.20499" lon="0.19154">
        <ele>297</ele>
        <time>2024-04-17T15:30:48Z</time>
      </trkpt>
      <trkpt lat="43.20498" lon="0.19153">
        <ele>297.2</ele>
        <time>2024-04-17T15:30:49Z</time>
      </trkpt>
      <trkpt lat="43.20498" lon="0.19153">
        <ele>297.2</ele>
        <time>2024-04-17T15:30:50Z</time>
      </trkpt>
      <trkpt lat="43.20497" lon="0.19152">
        <ele>297.2</ele>
        <time>2024-04-17T15:30:51Z</time>
      </trkpt>
      <trkpt lat="43.20497" lon="0.19152">
        <ele>297.4</ele>
        <time>2024-04-17T15:30:52Z</time>
      </trkpt>
      <trkpt lat="43.20497" lon="0.19152">
        <ele>297.8</ele>
        <time>2024-04-17T15:30:53Z</time>
      </trkpt>
      <trkpt lat="43.20496" lon="0.19151">
        <ele>298</ele>
        <time>2024-04-17T15:30:54Z</time>
      </trkpt>
      <trkpt lat="43.20495" lon="0.1915">
        <ele>298</ele>
        <time>2024-04-17T15:30:55Z</time>
      </trkpt>
      <trkpt lat="43.20494" lon="0.1915">
        <ele>298.2</ele>
        <time>2024-04-17T15:30:56Z</time>
      </trkpt>
      <trkpt lat="43.20493" lon="0.19149">
        <ele>298.4</ele>
        <time>2024-04-17T15:30:57Z</time>
      </trkpt>
      <trkpt lat="43.20492" lon="0.19149">
        <ele>298.4</ele>
        <time>2024-04-17T15:30:58Z</time>
      </trkpt>
      <trkpt lat="43.20492" lon="0.19147">
        <ele>298.6</ele>
        <time>2024-04-17T15:30:59Z</time>
      </trkpt>
      <trkpt lat="43.20491" lon="0.19147">
        <ele>298.8</ele>
        <time>2024-04-17T15:31:00Z</time>
      </trkpt>
      <trkpt lat="43.20491" lon="0.19147">
        <ele>299</ele>
        <time>2024-04-17T15:31:01Z</time>
      </trkpt>
      <trkpt lat="43.20491" lon="0.19147">
        <ele>299.2</ele>
        <time>2024-04-17T15:31:02Z</time>
      </trkpt>
      <trkpt lat="43.2049" lon="0.19146">
        <ele>299.4</ele>
        <time>2024-04-17T15:31:03Z</time>
      </trkpt>
      <trkpt lat="43.2049" lon="0.19146">
        <ele>299.8</ele>
        <time>2024-04-17T15:31:04Z</time>
      </trkpt>
      <trkpt lat="43.2049" lon="0.19146">
        <ele>299.8</ele>
        <time>2024-04-17T15:31:05Z</time>
      </trkpt>
      <trkpt lat="43.2049" lon="0.19145">
        <ele>300</ele>
        <time>2024-04-17T15:31:06Z</time>
      </trkpt>
      <trkpt lat="43.20489" lon="0.19145">
        <ele>300.2</ele>
        <time>2024-04-17T15:31:07Z</time>
      </trkpt>
      <trkpt lat="43.20488" lon="0.19144">
        <ele>300.2</ele>
        <time>2024-04-17T15:31:08Z</time>
      </trkpt>
      <trkpt lat="43.20488" lon="0.19143">
        <ele>300.4</ele>
        <time>2024-04-17T15:31:09Z</time>
      </trkpt>
      <trkpt lat="43.20487" lon="0.19142">
        <ele>300.6</ele>
        <time>2024-04-17T15:31:10Z</time>
      </trkpt>
      <trkpt lat="43.20486" lon="0.19142">
        <ele>300.8</ele>
        <time>2024-04-17T15:31:11Z</time>
      </trkpt>
      <trkpt lat="43.20486" lon="0.19141">
        <ele>301</ele>
        <time>2024-04-17T15:31:12Z</time>
      </trkpt>
      <trkpt lat="43.20485" lon="0.1914">
        <ele>301.2</ele>
        <time>2024-04-17T15:31:13Z</time>
      </trkpt>
      <trkpt lat="43.20484" lon="0.19139">
        <ele>301.4</ele>
        <time>2024-04-17T15:31:14Z</time>
      </trkpt>
      <trkpt lat="43.20484" lon="0.19138">
        <ele>301.4</ele>
        <time>2024-04-17T15:31:15Z</time>
      </trkpt>
      <trkpt lat="43.20483" lon="0.19137">
        <ele>301.8</ele>
        <time>2024-04-17T15:31:16Z</time>
      </trkpt>
      <trkpt lat="43.20483" lon="0.19137">
        <ele>301.8</ele>
        <time>2024-04-17T15:31:17Z</time>
      </trkpt>
      <trkpt lat="43.20482" lon="0.19137">
        <ele>302.2</ele>
        <time>2024-04-17T15:31:18Z</time>
      </trkpt>
      <trkpt lat="43.20481" lon="0.19136">
        <ele>302.2</ele>
        <time>2024-04-17T15:31:19Z</time>
      </trkpt>
      <trkpt lat="43.20481" lon="0.19135">
        <ele>302.4</ele>
        <time>2024-04-17T15:31:20Z</time>
      </trkpt>
      <trkpt lat="43.20481" lon="0.19134">
        <ele>302.8</ele>
        <time>2024-04-17T15:31:21Z</time>
      </trkpt>
      <trkpt lat="43.2048" lon="0.19132">
        <ele>303</ele>
        <time>2024-04-17T15:31:22Z</time>
      </trkpt>
      <trkpt lat="43.20479" lon="0.19131">
        <ele>303.4</ele>
        <time>2024-04-17T15:31:23Z</time>
      </trkpt>
      <trkpt lat="43.20479" lon="0.1913">
        <ele>303.6</ele>
        <time>2024-04-17T15:31:24Z</time>
      </trkpt>
      <trkpt lat="43.20478" lon="0.19128">
        <ele>303.8</ele>
        <time>2024-04-17T15:31:25Z</time>
      </trkpt>
      <trkpt lat="43.20478" lon="0.19127">
        <ele>303.8</ele>
        <time>2024-04-17T15:31:26Z</time>
      </trkpt>
      <trkpt lat="43.20477" lon="0.19126">
        <ele>304</ele>
        <time>2024-04-17T15:31:27Z</time>
      </trkpt>
      <trkpt lat="43.20477" lon="0.19125">
        <ele>304.2</ele>
        <time>2024-04-17T15:31:28Z</time>
      </trkpt>
      <trkpt lat="43.20476" lon="0.19124">
        <ele>304.4</ele>
        <time>2024-04-17T15:31:29Z</time>
      </trkpt>
      <trkpt lat="43.20476" lon="0.19122">
        <ele>304.6</ele>
        <time>2024-04-17T15:31:30Z</time>
      </trkpt>
      <trkpt lat="43.20475" lon="0.19121">
        <ele>304.8</ele>
        <time>2024-04-17T15:31:31Z</time>
      </trkpt>
      <trkpt lat="43.20475" lon="0.1912">
        <ele>305</ele>
        <time>2024-04-17T15:31:32Z</time>
      </trkpt>
      <trkpt lat="43.20474" lon="0.19118">
        <ele>305</ele>
        <time>2024-04-17T15:31:33Z</time>
      </trkpt>
      <trkpt lat="43.20473" lon="0.19117">
        <ele>305.2</ele>
        <time>2024-04-17T15:31:34Z</time>
      </trkpt>
      <trkpt lat="43.20473" lon="0.19116">
        <ele>305.2</ele>
        <time>2024-04-17T15:31:35Z</time>
      </trkpt>
      <trkpt lat="43.20471" lon="0.19114">
        <ele>305.4</ele>
        <time>2024-04-17T15:31:36Z</time>
      </trkpt>
      <trkpt lat="43.20471" lon="0.19113">
        <ele>305.4</ele>
        <time>2024-04-17T15:31:37Z</time>
      </trkpt>
      <trkpt lat="43.2047" lon="0.19112">
        <ele>305.6</ele>
        <time>2024-04-17T15:31:38Z</time>
      </trkpt>
      <trkpt lat="43.2047" lon="0.19111">
        <ele>305.8</ele>
        <time>2024-04-17T15:31:39Z</time>
      </trkpt>
      <trkpt lat="43.20469" lon="0.1911">
        <ele>305.8</ele>
        <time>2024-04-17T15:31:40Z</time>
      </trkpt>
      <trkpt lat="43.20468" lon="0.19109">
        <ele>306</ele>
        <time>2024-04-17T15:31:41Z</time>
      </trkpt>
      <trkpt lat="43.20468" lon="0.19108">
        <ele>306.2</ele>
        <time>2024-04-17T15:31:42Z</time>
      </trkpt>
      <trkpt lat="43.20468" lon="0.19108">
        <ele>306.6</ele>
        <time>2024-04-17T15:31:43Z</time>
      </trkpt>
      <trkpt lat="43.20468" lon="0.19106">
        <ele>306.8</ele>
        <time>2024-04-17T15:31:44Z</time>
      </trkpt>
      <trkpt lat="43.20467" lon="0.19105">
        <ele>306.8</ele>
        <time>2024-04-17T15:31:45Z</time>
      </trkpt>
      <trkpt lat="43.20467" lon="0.19104">
        <ele>307</ele>
        <time>2024-04-17T15:31:46Z</time>
      </trkpt>
      <trkpt lat="43.20466" lon="0.19103">
        <ele>307.2</ele>
        <time>2024-04-17T15:31:47Z</time>
      </trkpt>
      <trkpt lat="43.20466" lon="0.19102">
        <ele>307.6</ele>
        <time>2024-04-17T15:31:48Z</time>
      </trkpt>
      <trkpt lat="43.20465" lon="0.19101">
        <ele>307.6</ele>
        <time>2024-04-17T15:31:49Z</time>
      </trkpt>
      <trkpt lat="43.20464" lon="0.19101">
        <ele>307.8</ele>
        <time>2024-04-17T15:31:50Z</time>
      </trkpt>
      <trkpt lat="43.20463" lon="0.191">
        <ele>308</ele>
        <time>2024-04-17T15:31:51Z</time>
      </trkpt>
      <trkpt lat="43.20463" lon="0.19099">
        <ele>308.2</ele>
        <time>2024-04-17T15:31:52Z</time>
      </trkpt>
      <trkpt lat="43.20462" lon="0.19098">
        <ele>308.2</ele>
        <time>2024-04-17T15:31:53Z</time>
      </trkpt>
      <trkpt lat="43.20462" lon="0.19097">
        <ele>308.4</ele>
        <time>2024-04-17T15:31:54Z</time>
      </trkpt>
      <trkpt lat="43.20462" lon="0.19096">
        <ele>308.6</ele>
        <time>2024-04-17T15:31:55Z</time>
      </trkpt>
      <trkpt lat="43.20461" lon="0.19095">
        <ele>308.6</ele>
        <time>2024-04-17T15:31:56Z</time>
      </trkpt>
      <trkpt lat="43.2046" lon="0.19094">
        <ele>308.8</ele>
        <time>2024-04-17T15:31:57Z</time>
      </trkpt>
      <trkpt lat="43.20459" lon="0.19093">
        <ele>309</ele>
        <time>2024-04-17T15:31:58Z</time>
      </trkpt>
      <trkpt lat="43.20458" lon="0.19092">
        <ele>309.2</ele>
        <time>2024-04-17T15:31:59Z</time>
      </trkpt>
      <trkpt lat="43.20457" lon="0.19091">
        <ele>309.2</ele>
        <time>2024-04-17T15:32:00Z</time>
      </trkpt>
      <trkpt lat="43.20457" lon="0.1909">
        <ele>309.4</ele>
        <time>2024-04-17T15:32:01Z</time>
      </trkpt>
      <trkpt lat="43.20456" lon="0.19089">
        <ele>309.6</ele>
        <time>2024-04-17T15:32:02Z</time>
      </trkpt>
      <trkpt lat="43.20455" lon="0.19088">
        <ele>309.6</ele>
        <time>2024-04-17T15:32:03Z</time>
      </trkpt>
      <trkpt lat="43.20455" lon="0.19087">
        <ele>309.8</ele>
        <time>2024-04-17T15:32:04Z</time>
      </trkpt>
      <trkpt lat="43.20454" lon="0.19086">
        <ele>309.8</ele>
        <time>2024-04-17T15:32:05Z</time>
      </trkpt>
      <trkpt lat="43.20453" lon="0.19085">
        <ele>310</ele>
        <time>2024-04-17T15:32:06Z</time>
      </trkpt>
      <trkpt lat="43.20452" lon="0.19084">
        <ele>310.2</ele>
        <time>2024-04-17T15:32:07Z</time>
      </trkpt>
      <trkpt lat="43.20452" lon="0.19084">
        <ele>310.2</ele>
        <time>2024-04-17T15:32:08Z</time>
      </trkpt>
      <trkpt lat="43.20452" lon="0.19083">
        <ele>310.2</ele>
        <time>2024-04-17T15:32:09Z</time>
      </trkpt>
      <trkpt lat="43.20451" lon="0.19083">
        <ele>310.2</ele>
        <time>2024-04-17T15:32:10Z</time>
      </trkpt>
      <trkpt lat="43.20451" lon="0.19082">
        <ele>310.2</ele>
        <time>2024-04-17T15:32:11Z</time>
      </trkpt>
      <trkpt lat="43.2045" lon="0.19082">
        <ele>310.4</ele>
        <time>2024-04-17T15:32:12Z</time>
      </trkpt>
      <trkpt lat="43.20449" lon="0.19082">
        <ele>310.6</ele>
        <time>2024-04-17T15:32:13Z</time>
      </trkpt>
      <trkpt lat="43.20449" lon="0.19081">
        <ele>310.6</ele>
        <time>2024-04-17T15:32:14Z</time>
      </trkpt>
      <trkpt lat="43.20448" lon="0.19081">
        <ele>310.8</ele>
        <time>2024-04-17T15:32:15Z</time>
      </trkpt>
      <trkpt lat="43.20447" lon="0.19081">
        <ele>310.8</ele>
        <time>2024-04-17T15:32:16Z</time>
      </trkpt>
      <trkpt lat="43.20447" lon="0.19081">
        <ele>311</ele>
        <time>2024-04-17T15:32:17Z</time>
      </trkpt>
      <trkpt lat="43.20447" lon="0.19081">
        <ele>311.2</ele>
        <time>2024-04-17T15:32:18Z</time>
      </trkpt>
      <trkpt lat="43.20446" lon="0.1908">
        <ele>311.4</ele>
        <time>2024-04-17T15:32:19Z</time>
      </trkpt>
      <trkpt lat="43.20445" lon="0.19081">
        <ele>311.6</ele>
        <time>2024-04-17T15:32:20Z</time>
      </trkpt>
      <trkpt lat="43.20444" lon="0.1908">
        <ele>311.8</ele>
        <time>2024-04-17T15:32:21Z</time>
      </trkpt>
      <trkpt lat="43.20442" lon="0.1908">
        <ele>312</ele>
        <time>2024-04-17T15:32:22Z</time>
      </trkpt>
      <trkpt lat="43.2044" lon="0.1908">
        <ele>312</ele>
        <time>2024-04-17T15:32:23Z</time>
      </trkpt>
      <trkpt lat="43.20439" lon="0.1908">
        <ele>312.2</ele>
        <time>2024-04-17T15:32:24Z</time>
      </trkpt>
      <trkpt lat="43.20437" lon="0.1908">
        <ele>312.4</ele>
        <time>2024-04-17T15:32:25Z</time>
      </trkpt>
      <trkpt lat="43.20435" lon="0.1908">
        <ele>312.4</ele>
        <time>2024-04-17T15:32:26Z</time>
      </trkpt>
      <trkpt lat="43.20433" lon="0.1908">
        <ele>312.4</ele>
        <time>2024-04-17T15:32:27Z</time>
      </trkpt>
      <trkpt lat="43.2043" lon="0.1908">
        <ele>312.4</ele>
        <time>2024-04-17T15:32:28Z</time>
      </trkpt>
      <trkpt lat="43.20428" lon="0.1908">
        <ele>312.6</ele>
        <time>2024-04-17T15:32:29Z</time>
      </trkpt>
      <trkpt lat="43.20425" lon="0.1908">
        <ele>312.6</ele>
        <time>2024-04-17T15:32:30Z</time>
      </trkpt>
      <trkpt lat="43.20424" lon="0.19079">
        <ele>312.6</ele>
        <time>2024-04-17T15:32:31Z</time>
      </trkpt>
      <trkpt lat="43.20423" lon="0.19079">
        <ele>312.6</ele>
        <time>2024-04-17T15:32:32Z</time>
      </trkpt>
      <trkpt lat="43.20422" lon="0.19078">
        <ele>312.8</ele>
        <time>2024-04-17T15:32:33Z</time>
      </trkpt>
      <trkpt lat="43.20419" lon="0.19078">
        <ele>312.8</ele>
        <time>2024-04-17T15:32:34Z</time>
      </trkpt>
      <trkpt lat="43.20417" lon="0.19076">
        <ele>313</ele>
        <time>2024-04-17T15:32:35Z</time>
      </trkpt>
      <trkpt lat="43.20415" lon="0.19076">
        <ele>313</ele>
        <time>2024-04-17T15:32:36Z</time>
      </trkpt>
      <trkpt lat="43.20413" lon="0.19076">
        <ele>313</ele>
        <time>2024-04-17T15:32:37Z</time>
      </trkpt>
      <trkpt lat="43.20411" lon="0.19076">
        <ele>313</ele>
        <time>2024-04-17T15:32:38Z</time>
      </trkpt>
      <trkpt lat="43.2041" lon="0.19075">
        <ele>313.2</ele>
        <time>2024-04-17T15:32:39Z</time>
      </trkpt>
      <trkpt lat="43.20409" lon="0.19075">
        <ele>313.2</ele>
        <time>2024-04-17T15:32:40Z</time>
      </trkpt>
      <trkpt lat="43.20408" lon="0.19074">
        <ele>313.2</ele>
        <time>2024-04-17T15:32:41Z</time>
      </trkpt>
      <trkpt lat="43.20405" lon="0.19073">
        <ele>313.2</ele>
        <time>2024-04-17T15:32:42Z</time>
      </trkpt>
      <trkpt lat="43.20403" lon="0.19072">
        <ele>313.2</ele>
        <time>2024-04-17T15:32:43Z</time>
      </trkpt>
      <trkpt lat="43.20402" lon="0.19071">
        <ele>313.2</ele>
        <time>2024-04-17T15:32:44Z</time>
      </trkpt>
      <trkpt lat="43.204" lon="0.1907">
        <ele>313.4</ele>
        <time>2024-04-17T15:32:45Z</time>
      </trkpt>
      <trkpt lat="43.20398" lon="0.19069">
        <ele>313.4</ele>
        <time>2024-04-17T15:32:46Z</time>
      </trkpt>
      <trkpt lat="43.20398" lon="0.19069">
        <ele>313.4</ele>
        <time>2024-04-17T15:32:47Z</time>
      </trkpt>
      <trkpt lat="43.20396" lon="0.19069">
        <ele>313.4</ele>
        <time>2024-04-17T15:32:48Z</time>
      </trkpt>
      <trkpt lat="43.20394" lon="0.19068">
        <ele>313.6</ele>
        <time>2024-04-17T15:32:49Z</time>
      </trkpt>
      <trkpt lat="43.20393" lon="0.19067">
        <ele>313.6</ele>
        <time>2024-04-17T15:32:50Z</time>
      </trkpt>
      <trkpt lat="43.2039" lon="0.19066">
        <ele>314</ele>
        <time>2024-04-17T15:32:51Z</time>
      </trkpt>
      <trkpt lat="43.20388" lon="0.19065">
        <ele>314</ele>
        <time>2024-04-17T15:32:52Z</time>
      </trkpt>
      <trkpt lat="43.20385" lon="0.19063">
        <ele>314</ele>
        <time>2024-04-17T15:32:53Z</time>
      </trkpt>
      <trkpt lat="43.20382" lon="0.19061">
        <ele>314</ele>
        <time>2024-04-17T15:32:54Z</time>
      </trkpt>
      <trkpt lat="43.20379" lon="0.1906">
        <ele>314</ele>
        <time>2024-04-17T15:32:55Z</time>
      </trkpt>
      <trkpt lat="43.20377" lon="0.19058">
        <ele>314.2</ele>
        <time>2024-04-17T15:32:56Z</time>
      </trkpt>
      <trkpt lat="43.20375" lon="0.19056">
        <ele>314.4</ele>
        <time>2024-04-17T15:32:57Z</time>
      </trkpt>
      <trkpt lat="43.20373" lon="0.19054">
        <ele>314.4</ele>
        <time>2024-04-17T15:32:58Z</time>
      </trkpt>
      <trkpt lat="43.2037" lon="0.19052">
        <ele>314.6</ele>
        <time>2024-04-17T15:32:59Z</time>
      </trkpt>
      <trkpt lat="43.20367" lon="0.1905">
        <ele>314.6</ele>
        <time>2024-04-17T15:33:00Z</time>
      </trkpt>
      <trkpt lat="43.20363" lon="0.19049">
        <ele>314.6</ele>
        <time>2024-04-17T15:33:01Z</time>
      </trkpt>
      <trkpt lat="43.20361" lon="0.19047">
        <ele>314.6</ele>
        <time>2024-04-17T15:33:02Z</time>
      </trkpt>
      <trkpt lat="43.20357" lon="0.19045">
        <ele>314.8</ele>
        <time>2024-04-17T15:33:03Z</time>
      </trkpt>
      <trkpt lat="43.20355" lon="0.19042">
        <ele>314.8</ele>
        <time>2024-04-17T15:33:04Z</time>
      </trkpt>
      <trkpt lat="43.20354" lon="0.19039">
        <ele>314.8</ele>
        <time>2024-04-17T15:33:05Z</time>
      </trkpt>
      <trkpt lat="43.20353" lon="0.19035">
        <ele>315</ele>
        <time>2024-04-17T15:33:06Z</time>
      </trkpt>
      <trkpt lat="43.20352" lon="0.19032">
        <ele>315</ele>
        <time>2024-04-17T15:33:07Z</time>
      </trkpt>
      <trkpt lat="43.20351" lon="0.19027">
        <ele>315</ele>
        <time>2024-04-17T15:33:08Z</time>
      </trkpt>
      <trkpt lat="43.20349" lon="0.19022">
        <ele>315.2</ele>
        <time>2024-04-17T15:33:09Z</time>
      </trkpt>
      <trkpt lat="43.20348" lon="0.19019">
        <ele>315.2</ele>
        <time>2024-04-17T15:33:10Z</time>
      </trkpt>
      <trkpt lat="43.20346" lon="0.19015">
        <ele>315.2</ele>
        <time>2024-04-17T15:33:11Z</time>
      </trkpt>
      <trkpt lat="43.20345" lon="0.19011">
        <ele>315.4</ele>
        <time>2024-04-17T15:33:12Z</time>
      </trkpt>
      <trkpt lat="43.20343" lon="0.19007">
        <ele>315.4</ele>
        <time>2024-04-17T15:33:13Z</time>
      </trkpt>
      <trkpt lat="43.20342" lon="0.19004">
        <ele>315.6</ele>
        <time>2024-04-17T15:33:14Z</time>
      </trkpt>
      <trkpt lat="43.2034" lon="0.19">
        <ele>315.6</ele>
        <time>2024-04-17T15:33:15Z</time>
      </trkpt>
      <trkpt lat="43.2034" lon="0.18997">
        <ele>315.8</ele>
        <time>2024-04-17T15:33:16Z</time>
      </trkpt>
      <trkpt lat="43.20339" lon="0.18994">
        <ele>316</ele>
        <time>2024-04-17T15:33:17Z</time>
      </trkpt>
      <trkpt lat="43.20338" lon="0.1899">
        <ele>316</ele>
        <time>2024-04-17T15:33:18Z</time>
      </trkpt>
      <trkpt lat="43.20336" lon="0.18986">
        <ele>316</ele>
        <time>2024-04-17T15:33:19Z</time>
      </trkpt>
      <trkpt lat="43.20335" lon="0.18981">
        <ele>316</ele>
        <time>2024-04-17T15:33:20Z</time>
      </trkpt>
      <trkpt lat="43.20334" lon="0.18978">
        <ele>316</ele>
        <time>2024-04-17T15:33:21Z</time>
      </trkpt>
      <trkpt lat="43.20332" lon="0.18974">
        <ele>316</ele>
        <time>2024-04-17T15:33:22Z</time>
      </trkpt>
      <trkpt lat="43.2033" lon="0.18971">
        <ele>316.2</ele>
        <time>2024-04-17T15:33:23Z</time>
      </trkpt>
      <trkpt lat="43.20328" lon="0.18968">
        <ele>316.2</ele>
        <time>2024-04-17T15:33:24Z</time>
      </trkpt>
      <trkpt lat="43.20328" lon="0.18966">
        <ele>316.2</ele>
        <time>2024-04-17T15:33:25Z</time>
      </trkpt>
      <trkpt lat="43.20326" lon="0.18963">
        <ele>316.2</ele>
        <time>2024-04-17T15:33:26Z</time>
      </trkpt>
      <trkpt lat="43.20325" lon="0.1896">
        <ele>316.2</ele>
        <time>2024-04-17T15:33:27Z</time>
      </trkpt>
      <trkpt lat="43.20324" lon="0.18957">
        <ele>316.4</ele>
        <time>2024-04-17T15:33:28Z</time>
      </trkpt>
      <trkpt lat="43.20322" lon="0.18953">
        <ele>316.4</ele>
        <time>2024-04-17T15:33:29Z</time>
      </trkpt>
      <trkpt lat="43.2032" lon="0.1895">
        <ele>316.4</ele>
        <time>2024-04-17T15:33:30Z</time>
      </trkpt>
      <trkpt lat="43.20318" lon="0.18947">
        <ele>316.6</ele>
        <time>2024-04-17T15:33:31Z</time>
      </trkpt>
      <trkpt lat="43.20317" lon="0.18943">
        <ele>316.8</ele>
        <time>2024-04-17T15:33:32Z</time>
      </trkpt>
      <trkpt lat="43.20316" lon="0.18941">
        <ele>317</ele>
        <time>2024-04-17T15:33:33Z</time>
      </trkpt>
      <trkpt lat="43.20315" lon="0.18939">
        <ele>317.2</ele>
        <time>2024-04-17T15:33:34Z</time>
      </trkpt>
      <trkpt lat="43.20314" lon="0.18937">
        <ele>317.4</ele>
        <time>2024-04-17T15:33:35Z</time>
      </trkpt>
      <trkpt lat="43.20313" lon="0.18934">
        <ele>317.4</ele>
        <time>2024-04-17T15:33:36Z</time>
      </trkpt>
      <trkpt lat="43.20312" lon="0.18932">
        <ele>317.4</ele>
        <time>2024-04-17T15:33:37Z</time>
      </trkpt>
      <trkpt lat="43.20311" lon="0.1893">
        <ele>317.6</ele>
        <time>2024-04-17T15:33:38Z</time>
      </trkpt>
      <trkpt lat="43.20309" lon="0.18927">
        <ele>317.8</ele>
        <time>2024-04-17T15:33:39Z</time>
      </trkpt>
      <trkpt lat="43.20308" lon="0.18925">
        <ele>318</ele>
        <time>2024-04-17T15:33:40Z</time>
      </trkpt>
      <trkpt lat="43.20306" lon="0.18922">
        <ele>318.2</ele>
        <time>2024-04-17T15:33:41Z</time>
      </trkpt>
      <trkpt lat="43.20304" lon="0.1892">
        <ele>318.4</ele>
        <time>2024-04-17T15:33:42Z</time>
      </trkpt>
      <trkpt lat="43.20303" lon="0.18918">
        <ele>318.4</ele>
        <time>2024-04-17T15:33:43Z</time>
      </trkpt>
      <trkpt lat="43.20302" lon="0.18915">
        <ele>318.6</ele>
        <time>2024-04-17T15:33:44Z</time>
      </trkpt>
      <trkpt lat="43.20301" lon="0.18913">
        <ele>318.6</ele>
        <time>2024-04-17T15:33:45Z</time>
      </trkpt>
      <trkpt lat="43.20299" lon="0.1891">
        <ele>319</ele>
        <time>2024-04-17T15:33:46Z</time>
      </trkpt>
      <trkpt lat="43.20297" lon="0.18908">
        <ele>319</ele>
        <time>2024-04-17T15:33:47Z</time>
      </trkpt>
      <trkpt lat="43.20297" lon="0.18906">
        <ele>319.2</ele>
        <time>2024-04-17T15:33:48Z</time>
      </trkpt>
      <trkpt lat="43.20295" lon="0.18904">
        <ele>319.4</ele>
        <time>2024-04-17T15:33:49Z</time>
      </trkpt>
      <trkpt lat="43.20294" lon="0.18901">
        <ele>319.4</ele>
        <time>2024-04-17T15:33:50Z</time>
      </trkpt>
      <trkpt lat="43.20293" lon="0.18899">
        <ele>319.6</ele>
        <time>2024-04-17T15:33:51Z</time>
      </trkpt>
      <trkpt lat="43.20292" lon="0.18896">
        <ele>319.8</ele>
        <time>2024-04-17T15:33:52Z</time>
      </trkpt>
      <trkpt lat="43.20291" lon="0.18893">
        <ele>320</ele>
        <time>2024-04-17T15:33:53Z</time>
      </trkpt>
      <trkpt lat="43.2029" lon="0.1889">
        <ele>320.2</ele>
        <time>2024-04-17T15:33:54Z</time>
      </trkpt>
      <trkpt lat="43.20287" lon="0.18887">
        <ele>320.2</ele>
        <time>2024-04-17T15:33:55Z</time>
      </trkpt>
      <trkpt lat="43.20286" lon="0.18884">
        <ele>320.4</ele>
        <time>2024-04-17T15:33:56Z</time>
      </trkpt>
      <trkpt lat="43.20284" lon="0.18882">
        <ele>320.6</ele>
        <time>2024-04-17T15:33:57Z</time>
      </trkpt>
      <trkpt lat="43.20282" lon="0.18879">
        <ele>320.6</ele>
        <time>2024-04-17T15:33:58Z</time>
      </trkpt>
      <trkpt lat="43.20281" lon="0.18876">
        <ele>320.8</ele>
        <time>2024-04-17T15:33:59Z</time>
      </trkpt>
      <trkpt lat="43.2028" lon="0.18873">
        <ele>321</ele>
        <time>2024-04-17T15:34:00Z</time>
      </trkpt>
      <trkpt lat="43.20278" lon="0.18869">
        <ele>321.2</ele>
        <time>2024-04-17T15:34:01Z</time>
      </trkpt>
      <trkpt lat="43.20276" lon="0.18866">
        <ele>321.4</ele>
        <time>2024-04-17T15:34:02Z</time>
      </trkpt>
      <trkpt lat="43.20275" lon="0.18863">
        <ele>321.6</ele>
        <time>2024-04-17T15:34:03Z</time>
      </trkpt>
      <trkpt lat="43.20272" lon="0.18859">
        <ele>321.8</ele>
        <time>2024-04-17T15:34:04Z</time>
      </trkpt>
      <trkpt lat="43.2027" lon="0.18856">
        <ele>321.8</ele>
        <time>2024-04-17T15:34:05Z</time>
      </trkpt>
      <trkpt lat="43.20268" lon="0.18852">
        <ele>321.8</ele>
        <time>2024-04-17T15:34:06Z</time>
      </trkpt>
      <trkpt lat="43.20266" lon="0.18849">
        <ele>322</ele>
        <time>2024-04-17T15:34:07Z</time>
      </trkpt>
      <trkpt lat="43.20264" lon="0.18847">
        <ele>322</ele>
        <time>2024-04-17T15:34:08Z</time>
      </trkpt>
      <trkpt lat="43.20262" lon="0.18844">
        <ele>322</ele>
        <time>2024-04-17T15:34:09Z</time>
      </trkpt>
      <trkpt lat="43.20261" lon="0.18841">
        <ele>322</ele>
        <time>2024-04-17T15:34:10Z</time>
      </trkpt>
      <trkpt lat="43.2026" lon="0.18837">
        <ele>322</ele>
        <time>2024-04-17T15:34:11Z</time>
      </trkpt>
      <trkpt lat="43.20258" lon="0.18834">
        <ele>322</ele>
        <time>2024-04-17T15:34:12Z</time>
      </trkpt>
      <trkpt lat="43.20256" lon="0.18831">
        <ele>322</ele>
        <time>2024-04-17T15:34:13Z</time>
      </trkpt>
      <trkpt lat="43.20254" lon="0.18828">
        <ele>322</ele>
        <time>2024-04-17T15:34:14Z</time>
      </trkpt>
      <trkpt lat="43.20252" lon="0.18825">
        <ele>322.2</ele>
        <time>2024-04-17T15:34:15Z</time>
      </trkpt>
      <trkpt lat="43.20252" lon="0.18822">
        <ele>322.2</ele>
        <time>2024-04-17T15:34:16Z</time>
      </trkpt>
      <trkpt lat="43.20251" lon="0.18821">
        <ele>322.2</ele>
        <time>2024-04-17T15:34:17Z</time>
      </trkpt>
      <trkpt lat="43.2025" lon="0.18819">
        <ele>322.4</ele>
        <time>2024-04-17T15:34:18Z</time>
      </trkpt>
      <trkpt lat="43.20248" lon="0.18816">
        <ele>322.4</ele>
        <time>2024-04-17T15:34:19Z</time>
      </trkpt>
      <trkpt lat="43.20247" lon="0.18814">
        <ele>322.4</ele>
        <time>2024-04-17T15:34:20Z</time>
      </trkpt>
      <trkpt lat="43.20246" lon="0.18811">
        <ele>322.6</ele>
        <time>2024-04-17T15:34:21Z</time>
      </trkpt>
      <trkpt lat="43.20244" lon="0.18808">
        <ele>322.6</ele>
        <time>2024-04-17T15:34:22Z</time>
      </trkpt>
      <trkpt lat="43.20243" lon="0.18805">
        <ele>322.6</ele>
        <time>2024-04-17T15:34:23Z</time>
      </trkpt>
      <trkpt lat="43.20242" lon="0.18802">
        <ele>322.8</ele>
        <time>2024-04-17T15:34:24Z</time>
      </trkpt>
      <trkpt lat="43.2024" lon="0.188">
        <ele>322.8</ele>
        <time>2024-04-17T15:34:25Z</time>
      </trkpt>
      <trkpt lat="43.20239" lon="0.18797">
        <ele>322.8</ele>
        <time>2024-04-17T15:34:26Z</time>
      </trkpt>
      <trkpt lat="43.20238" lon="0.18795">
        <ele>322.8</ele>
        <time>2024-04-17T15:34:27Z</time>
      </trkpt>
      <trkpt lat="43.20236" lon="0.18791">
        <ele>322.8</ele>
        <time>2024-04-17T15:34:28Z</time>
      </trkpt>
      <trkpt lat="43.20234" lon="0.18788">
        <ele>322.8</ele>
        <time>2024-04-17T15:34:29Z</time>
      </trkpt>
      <trkpt lat="43.20232" lon="0.18785">
        <ele>322.8</ele>
        <time>2024-04-17T15:34:30Z</time>
      </trkpt>
      <trkpt lat="43.20231" lon="0.18783">
        <ele>322.8</ele>
        <time>2024-04-17T15:34:31Z</time>
      </trkpt>
      <trkpt lat="43.2023" lon="0.1878">
        <ele>323</ele>
        <time>2024-04-17T15:34:32Z</time>
      </trkpt>
      <trkpt lat="43.20228" lon="0.18777">
        <ele>323</ele>
        <time>2024-04-17T15:34:33Z</time>
      </trkpt>
      <trkpt lat="43.20226" lon="0.18774">
        <ele>323.2</ele>
        <time>2024-04-17T15:34:34Z</time>
      </trkpt>
      <trkpt lat="43.20225" lon="0.18772">
        <ele>323.2</ele>
        <time>2024-04-17T15:34:35Z</time>
      </trkpt>
      <trkpt lat="43.20223" lon="0.18769">
        <ele>323.4</ele>
        <time>2024-04-17T15:34:36Z</time>
      </trkpt>
      <trkpt lat="43.20221" lon="0.18766">
        <ele>323.4</ele>
        <time>2024-04-17T15:34:37Z</time>
      </trkpt>
      <trkpt lat="43.2022" lon="0.18763">
        <ele>323.4</ele>
        <time>2024-04-17T15:34:38Z</time>
      </trkpt>
      <trkpt lat="43.20219" lon="0.18759">
        <ele>323.4</ele>
        <time>2024-04-17T15:34:39Z</time>
      </trkpt>
      <trkpt lat="43.20217" lon="0.18757">
        <ele>323.4</ele>
        <time>2024-04-17T15:34:40Z</time>
      </trkpt>
      <trkpt lat="43.20215" lon="0.18753">
        <ele>323.4</ele>
        <time>2024-04-17T15:34:41Z</time>
      </trkpt>
      <trkpt lat="43.20212" lon="0.1875">
        <ele>323.4</ele>
        <time>2024-04-17T15:34:42Z</time>
      </trkpt>
      <trkpt lat="43.20211" lon="0.18747">
        <ele>323.4</ele>
        <time>2024-04-17T15:34:43Z</time>
      </trkpt>
      <trkpt lat="43.2021" lon="0.18744">
        <ele>323.4</ele>
        <time>2024-04-17T15:34:44Z</time>
      </trkpt>
      <trkpt lat="43.20208" lon="0.1874">
        <ele>323.4</ele>
        <time>2024-04-17T15:34:45Z</time>
      </trkpt>
      <trkpt lat="43.20205" lon="0.18735">
        <ele>323.4</ele>
        <time>2024-04-17T15:34:46Z</time>
      </trkpt>
      <trkpt lat="43.20202" lon="0.18731">
        <ele>323.2</ele>
        <time>2024-04-17T15:34:47Z</time>
      </trkpt>
      <trkpt lat="43.202" lon="0.18728">
        <ele>323.2</ele>
        <time>2024-04-17T15:34:48Z</time>
      </trkpt>
      <trkpt lat="43.20198" lon="0.18724">
        <ele>323.2</ele>
        <time>2024-04-17T15:34:49Z</time>
      </trkpt>
      <trkpt lat="43.20196" lon="0.18721">
        <ele>323.4</ele>
        <time>2024-04-17T15:34:50Z</time>
      </trkpt>
      <trkpt lat="43.20194" lon="0.18717">
        <ele>323.4</ele>
        <time>2024-04-17T15:34:51Z</time>
      </trkpt>
      <trkpt lat="43.20193" lon="0.18714">
        <ele>323.4</ele>
        <time>2024-04-17T15:34:52Z</time>
      </trkpt>
      <trkpt lat="43.20192" lon="0.18711">
        <ele>323.4</ele>
        <time>2024-04-17T15:34:53Z</time>
      </trkpt>
      <trkpt lat="43.2019" lon="0.18708">
        <ele>323.6</ele>
        <time>2024-04-17T15:34:54Z</time>
      </trkpt>
      <trkpt lat="43.20188" lon="0.18705">
        <ele>323.6</ele>
        <time>2024-04-17T15:34:55Z</time>
      </trkpt>
      <trkpt lat="43.20187" lon="0.18702">
        <ele>323.6</ele>
        <time>2024-04-17T15:34:56Z</time>
      </trkpt>
      <trkpt lat="43.20186" lon="0.18699">
        <ele>323.8</ele>
        <time>2024-04-17T15:34:57Z</time>
      </trkpt>
      <trkpt lat="43.20185" lon="0.18696">
        <ele>323.8</ele>
        <time>2024-04-17T15:34:58Z</time>
      </trkpt>
      <trkpt lat="43.20184" lon="0.18694">
        <ele>324</ele>
        <time>2024-04-17T15:34:59Z</time>
      </trkpt>
      <trkpt lat="43.20183" lon="0.18691">
        <ele>324.4</ele>
        <time>2024-04-17T15:35:00Z</time>
      </trkpt>
      <trkpt lat="43.20182" lon="0.18688">
        <ele>324.6</ele>
        <time>2024-04-17T15:35:01Z</time>
      </trkpt>
      <trkpt lat="43.20181" lon="0.18685">
        <ele>324.8</ele>
        <time>2024-04-17T15:35:02Z</time>
      </trkpt>
      <trkpt lat="43.20179" lon="0.18682">
        <ele>325</ele>
        <time>2024-04-17T15:35:03Z</time>
      </trkpt>
      <trkpt lat="43.20178" lon="0.18679">
        <ele>325.2</ele>
        <time>2024-04-17T15:35:04Z</time>
      </trkpt>
      <trkpt lat="43.20176" lon="0.18676">
        <ele>325.2</ele>
        <time>2024-04-17T15:35:05Z</time>
      </trkpt>
      <trkpt lat="43.20175" lon="0.18673">
        <ele>325.4</ele>
        <time>2024-04-17T15:35:06Z</time>
      </trkpt>
      <trkpt lat="43.20173" lon="0.18669">
        <ele>325.4</ele>
        <time>2024-04-17T15:35:07Z</time>
      </trkpt>
      <trkpt lat="43.20172" lon="0.18666">
        <ele>325.6</ele>
        <time>2024-04-17T15:35:08Z</time>
      </trkpt>
      <trkpt lat="43.20171" lon="0.18663">
        <ele>325.6</ele>
        <time>2024-04-17T15:35:09Z</time>
      </trkpt>
      <trkpt lat="43.20169" lon="0.1866">
        <ele>325.6</ele>
        <time>2024-04-17T15:35:10Z</time>
      </trkpt>
      <trkpt lat="43.20168" lon="0.18657">
        <ele>325.6</ele>
        <time>2024-04-17T15:35:11Z</time>
      </trkpt>
      <trkpt lat="43.20167" lon="0.18654">
        <ele>325.6</ele>
        <time>2024-04-17T15:35:12Z</time>
      </trkpt>
      <trkpt lat="43.20166" lon="0.18652">
        <ele>325.6</ele>
        <time>2024-04-17T15:35:13Z</time>
      </trkpt>
      <trkpt lat="43.20164" lon="0.18649">
        <ele>325.6</ele>
        <time>2024-04-17T15:35:14Z</time>
      </trkpt>
      <trkpt lat="43.20163" lon="0.18646">
        <ele>325.6</ele>
        <time>2024-04-17T15:35:15Z</time>
      </trkpt>
      <trkpt lat="43.20161" lon="0.18643">
        <ele>325.6</ele>
        <time>2024-04-17T15:35:16Z</time>
      </trkpt>
      <trkpt lat="43.2016" lon="0.1864">
        <ele>325.6</ele>
        <time>2024-04-17T15:35:17Z</time>
      </trkpt>
      <trkpt lat="43.20159" lon="0.18637">
        <ele>325.6</ele>
        <time>2024-04-17T15:35:18Z</time>
      </trkpt>
      <trkpt lat="43.20158" lon="0.18634">
        <ele>325.6</ele>
        <time>2024-04-17T15:35:19Z</time>
      </trkpt>
      <trkpt lat="43.20157" lon="0.18632">
        <ele>325.4</ele>
        <time>2024-04-17T15:35:20Z</time>
      </trkpt>
      <trkpt lat="43.20156" lon="0.18629">
        <ele>325.4</ele>
        <time>2024-04-17T15:35:21Z</time>
      </trkpt>
      <trkpt lat="43.20155" lon="0.18626">
        <ele>325.4</ele>
        <time>2024-04-17T15:35:22Z</time>
      </trkpt>
      <trkpt lat="43.20153" lon="0.18623">
        <ele>325.4</ele>
        <time>2024-04-17T15:35:23Z</time>
      </trkpt>
      <trkpt lat="43.20152" lon="0.1862">
        <ele>325.6</ele>
        <time>2024-04-17T15:35:24Z</time>
      </trkpt>
      <trkpt lat="43.20151" lon="0.18618">
        <ele>325.6</ele>
        <time>2024-04-17T15:35:25Z</time>
      </trkpt>
      <trkpt lat="43.2015" lon="0.18615">
        <ele>325.6</ele>
        <time>2024-04-17T15:35:26Z</time>
      </trkpt>
      <trkpt lat="43.20149" lon="0.18613">
        <ele>325.8</ele>
        <time>2024-04-17T15:35:27Z</time>
      </trkpt>
      <trkpt lat="43.20147" lon="0.1861">
        <ele>325.8</ele>
        <time>2024-04-17T15:35:28Z</time>
      </trkpt>
      <trkpt lat="43.20145" lon="0.18607">
        <ele>325.8</ele>
        <time>2024-04-17T15:35:29Z</time>
      </trkpt>
      <trkpt lat="43.20144" lon="0.18604">
        <ele>325.8</ele>
        <time>2024-04-17T15:35:30Z</time>
      </trkpt>
      <trkpt lat="43.20143" lon="0.18601">
        <ele>325.8</ele>
        <time>2024-04-17T15:35:31Z</time>
      </trkpt>
      <trkpt lat="43.20142" lon="0.18598">
        <ele>325.8</ele>
        <time>2024-04-17T15:35:32Z</time>
      </trkpt>
      <trkpt lat="43.20139" lon="0.18594">
        <ele>325.8</ele>
        <time>2024-04-17T15:35:33Z</time>
      </trkpt>
      <trkpt lat="43.20137" lon="0.1859">
        <ele>325.8</ele>
        <time>2024-04-17T15:35:34Z</time>
      </trkpt>
      <trkpt lat="43.20134" lon="0.18586">
        <ele>325.8</ele>
        <time>2024-04-17T15:35:35Z</time>
      </trkpt>
      <trkpt lat="43.20132" lon="0.18582">
        <ele>325.8</ele>
        <time>2024-04-17T15:35:36Z</time>
      </trkpt>
      <trkpt lat="43.20131" lon="0.18578">
        <ele>326</ele>
        <time>2024-04-17T15:35:37Z</time>
      </trkpt>
      <trkpt lat="43.20129" lon="0.18575">
        <ele>326</ele>
        <time>2024-04-17T15:35:38Z</time>
      </trkpt>
      <trkpt lat="43.20126" lon="0.18572">
        <ele>326.2</ele>
        <time>2024-04-17T15:35:39Z</time>
      </trkpt>
      <trkpt lat="43.20124" lon="0.18568">
        <ele>326.2</ele>
        <time>2024-04-17T15:35:40Z</time>
      </trkpt>
      <trkpt lat="43.20121" lon="0.18564">
        <ele>326.2</ele>
        <time>2024-04-17T15:35:41Z</time>
      </trkpt>
      <trkpt lat="43.20118" lon="0.1856">
        <ele>326.4</ele>
        <time>2024-04-17T15:35:42Z</time>
      </trkpt>
      <trkpt lat="43.20115" lon="0.18557">
        <ele>326.4</ele>
        <time>2024-04-17T15:35:43Z</time>
      </trkpt>
      <trkpt lat="43.20114" lon="0.18554">
        <ele>326.6</ele>
        <time>2024-04-17T15:35:44Z</time>
      </trkpt>
      <trkpt lat="43.20112" lon="0.1855">
        <ele>326.8</ele>
        <time>2024-04-17T15:35:45Z</time>
      </trkpt>
      <trkpt lat="43.2011" lon="0.18547">
        <ele>327</ele>
        <time>2024-04-17T15:35:46Z</time>
      </trkpt>
      <trkpt lat="43.20108" lon="0.18543">
        <ele>327</ele>
        <time>2024-04-17T15:35:47Z</time>
      </trkpt>
      <trkpt lat="43.20106" lon="0.1854">
        <ele>327.2</ele>
        <time>2024-04-17T15:35:48Z</time>
      </trkpt>
      <trkpt lat="43.20105" lon="0.18536">
        <ele>327.4</ele>
        <time>2024-04-17T15:35:49Z</time>
      </trkpt>
      <trkpt lat="43.20103" lon="0.18533">
        <ele>327.4</ele>
        <time>2024-04-17T15:35:50Z</time>
      </trkpt>
      <trkpt lat="43.201" lon="0.1853">
        <ele>327.6</ele>
        <time>2024-04-17T15:35:51Z</time>
      </trkpt>
      <trkpt lat="43.20099" lon="0.18527">
        <ele>327.8</ele>
        <time>2024-04-17T15:35:52Z</time>
      </trkpt>
      <trkpt lat="43.20098" lon="0.18523">
        <ele>327.8</ele>
        <time>2024-04-17T15:35:53Z</time>
      </trkpt>
      <trkpt lat="43.20096" lon="0.1852">
        <ele>327.8</ele>
        <time>2024-04-17T15:35:54Z</time>
      </trkpt>
      <trkpt lat="43.20095" lon="0.18517">
        <ele>328</ele>
        <time>2024-04-17T15:35:55Z</time>
      </trkpt>
      <trkpt lat="43.20093" lon="0.18514">
        <ele>328.2</ele>
        <time>2024-04-17T15:35:56Z</time>
      </trkpt>
      <trkpt lat="43.20092" lon="0.18511">
        <ele>328.2</ele>
        <time>2024-04-17T15:35:57Z</time>
      </trkpt>
      <trkpt lat="43.2009" lon="0.18508">
        <ele>328.4</ele>
        <time>2024-04-17T15:35:58Z</time>
      </trkpt>
      <trkpt lat="43.20088" lon="0.18505">
        <ele>328.4</ele>
        <time>2024-04-17T15:35:59Z</time>
      </trkpt>
      <trkpt lat="43.20087" lon="0.18502">
        <ele>328.4</ele>
        <time>2024-04-17T15:36:00Z</time>
      </trkpt>
      <trkpt lat="43.20085" lon="0.18498">
        <ele>328.6</ele>
        <time>2024-04-17T15:36:01Z</time>
      </trkpt>
      <trkpt lat="43.20083" lon="0.18495">
        <ele>328.6</ele>
        <time>2024-04-17T15:36:02Z</time>
      </trkpt>
      <trkpt lat="43.20082" lon="0.18492">
        <ele>328.6</ele>
        <time>2024-04-17T15:36:03Z</time>
      </trkpt>
      <trkpt lat="43.2008" lon="0.18488">
        <ele>328.8</ele>
        <time>2024-04-17T15:36:04Z</time>
      </trkpt>
      <trkpt lat="43.20078" lon="0.18485">
        <ele>328.8</ele>
        <time>2024-04-17T15:36:05Z</time>
      </trkpt>
      <trkpt lat="43.20077" lon="0.18482">
        <ele>328.8</ele>
        <time>2024-04-17T15:36:06Z</time>
      </trkpt>
      <trkpt lat="43.20075" lon="0.18479">
        <ele>329</ele>
        <time>2024-04-17T15:36:07Z</time>
      </trkpt>
      <trkpt lat="43.20073" lon="0.18476">
        <ele>329</ele>
        <time>2024-04-17T15:36:08Z</time>
      </trkpt>
      <trkpt lat="43.20072" lon="0.18473">
        <ele>329</ele>
        <time>2024-04-17T15:36:09Z</time>
      </trkpt>
      <trkpt lat="43.20071" lon="0.1847">
        <ele>329</ele>
        <time>2024-04-17T15:36:10Z</time>
      </trkpt>
      <trkpt lat="43.20069" lon="0.18467">
        <ele>329</ele>
        <time>2024-04-17T15:36:11Z</time>
      </trkpt>
      <trkpt lat="43.20067" lon="0.18464">
        <ele>329</ele>
        <time>2024-04-17T15:36:12Z</time>
      </trkpt>
      <trkpt lat="43.20066" lon="0.18461">
        <ele>329</ele>
        <time>2024-04-17T15:36:13Z</time>
      </trkpt>
      <trkpt lat="43.20064" lon="0.18458">
        <ele>329</ele>
        <time>2024-04-17T15:36:14Z</time>
      </trkpt>
      <trkpt lat="43.20063" lon="0.18456">
        <ele>329</ele>
        <time>2024-04-17T15:36:15Z</time>
      </trkpt>
      <trkpt lat="43.20061" lon="0.18453">
        <ele>329</ele>
        <time>2024-04-17T15:36:16Z</time>
      </trkpt>
      <trkpt lat="43.20059" lon="0.1845">
        <ele>329</ele>
        <time>2024-04-17T15:36:17Z</time>
      </trkpt>
      <trkpt lat="43.20058" lon="0.18447">
        <ele>329</ele>
        <time>2024-04-17T15:36:18Z</time>
      </trkpt>
      <trkpt lat="43.20056" lon="0.18444">
        <ele>329.2</ele>
        <time>2024-04-17T15:36:19Z</time>
      </trkpt>
      <trkpt lat="43.20054" lon="0.18441">
        <ele>329.2</ele>
        <time>2024-04-17T15:36:20Z</time>
      </trkpt>
      <trkpt lat="43.20052" lon="0.18438">
        <ele>329.2</ele>
        <time>2024-04-17T15:36:21Z</time>
      </trkpt>
      <trkpt lat="43.2005" lon="0.18435">
        <ele>329.4</ele>
        <time>2024-04-17T15:36:22Z</time>
      </trkpt>
      <trkpt lat="43.20048" lon="0.18432">
        <ele>329.4</ele>
        <time>2024-04-17T15:36:23Z</time>
      </trkpt>
      <trkpt lat="43.20046" lon="0.18429">
        <ele>329.4</ele>
        <time>2024-04-17T15:36:24Z</time>
      </trkpt>
      <trkpt lat="43.20044" lon="0.18426">
        <ele>329.6</ele>
        <time>2024-04-17T15:36:25Z</time>
      </trkpt>
      <trkpt lat="43.20043" lon="0.18423">
        <ele>329.6</ele>
        <time>2024-04-17T15:36:26Z</time>
      </trkpt>
      <trkpt lat="43.20041" lon="0.1842">
        <ele>329.6</ele>
        <time>2024-04-17T15:36:27Z</time>
      </trkpt>
      <trkpt lat="43.20039" lon="0.18417">
        <ele>329.8</ele>
        <time>2024-04-17T15:36:28Z</time>
      </trkpt>
      <trkpt lat="43.20037" lon="0.18414">
        <ele>329.8</ele>
        <time>2024-04-17T15:36:29Z</time>
      </trkpt>
      <trkpt lat="43.20036" lon="0.18412">
        <ele>329.8</ele>
        <time>2024-04-17T15:36:30Z</time>
      </trkpt>
      <trkpt lat="43.20034" lon="0.1841">
        <ele>329.8</ele>
        <time>2024-04-17T15:36:31Z</time>
      </trkpt>
      <trkpt lat="43.20032" lon="0.18407">
        <ele>330</ele>
        <time>2024-04-17T15:36:32Z</time>
      </trkpt>
      <trkpt lat="43.2003" lon="0.18405">
        <ele>330.2</ele>
        <time>2024-04-17T15:36:33Z</time>
      </trkpt>
      <trkpt lat="43.20028" lon="0.18402">
        <ele>330.4</ele>
        <time>2024-04-17T15:36:34Z</time>
      </trkpt>
      <trkpt lat="43.20026" lon="0.184">
        <ele>330.4</ele>
        <time>2024-04-17T15:36:35Z</time>
      </trkpt>
      <trkpt lat="43.20024" lon="0.18397">
        <ele>330.4</ele>
        <time>2024-04-17T15:36:36Z</time>
      </trkpt>
      <trkpt lat="43.20022" lon="0.18394">
        <ele>330.6</ele>
        <time>2024-04-17T15:36:37Z</time>
      </trkpt>
      <trkpt lat="43.2002" lon="0.18391">
        <ele>330.8</ele>
        <time>2024-04-17T15:36:38Z</time>
      </trkpt>
      <trkpt lat="43.20018" lon="0.18389">
        <ele>330.6</ele>
        <time>2024-04-17T15:36:39Z</time>
      </trkpt>
      <trkpt lat="43.20016" lon="0.18387">
        <ele>330.8</ele>
        <time>2024-04-17T15:36:40Z</time>
      </trkpt>
      <trkpt lat="43.20015" lon="0.18385">
        <ele>330.8</ele>
        <time>2024-04-17T15:36:41Z</time>
      </trkpt>
      <trkpt lat="43.20013" lon="0.18382">
        <ele>331</ele>
        <time>2024-04-17T15:36:42Z</time>
      </trkpt>
      <trkpt lat="43.20011" lon="0.1838">
        <ele>331</ele>
        <time>2024-04-17T15:36:43Z</time>
      </trkpt>
      <trkpt lat="43.20009" lon="0.18377">
        <ele>331.2</ele>
        <time>2024-04-17T15:36:44Z</time>
      </trkpt>
      <trkpt lat="43.20006" lon="0.18375">
        <ele>331.4</ele>
        <time>2024-04-17T15:36:45Z</time>
      </trkpt>
      <trkpt lat="43.20005" lon="0.18373">
        <ele>331.8</ele>
        <time>2024-04-17T15:36:46Z</time>
      </trkpt>
      <trkpt lat="43.20003" lon="0.1837">
        <ele>331.8</ele>
        <time>2024-04-17T15:36:47Z</time>
      </trkpt>
      <trkpt lat="43.20001" lon="0.18368">
        <ele>331.8</ele>
        <time>2024-04-17T15:36:48Z</time>
      </trkpt>
      <trkpt lat="43.19999" lon="0.18365">
        <ele>332</ele>
        <time>2024-04-17T15:36:49Z</time>
      </trkpt>
      <trkpt lat="43.19997" lon="0.18363">
        <ele>332</ele>
        <time>2024-04-17T15:36:50Z</time>
      </trkpt>
      <trkpt lat="43.19995" lon="0.18361">
        <ele>332</ele>
        <time>2024-04-17T15:36:51Z</time>
      </trkpt>
      <trkpt lat="43.19993" lon="0.18358">
        <ele>332.2</ele>
        <time>2024-04-17T15:36:52Z</time>
      </trkpt>
      <trkpt lat="43.19992" lon="0.18356">
        <ele>332.2</ele>
        <time>2024-04-17T15:36:53Z</time>
      </trkpt>
      <trkpt lat="43.1999" lon="0.18353">
        <ele>332.2</ele>
        <time>2024-04-17T15:36:54Z</time>
      </trkpt>
      <trkpt lat="43.19988" lon="0.18351">
        <ele>332.2</ele>
        <time>2024-04-17T15:36:55Z</time>
      </trkpt>
      <trkpt lat="43.19986" lon="0.18348">
        <ele>332.2</ele>
        <time>2024-04-17T15:36:56Z</time>
      </trkpt>
      <trkpt lat="43.19984" lon="0.18346">
        <ele>332.2</ele>
        <time>2024-04-17T15:36:57Z</time>
      </trkpt>
      <trkpt lat="43.19982" lon="0.18343">
        <ele>332.4</ele>
        <time>2024-04-17T15:36:58Z</time>
      </trkpt>
      <trkpt lat="43.1998" lon="0.1834">
        <ele>332.4</ele>
        <time>2024-04-17T15:36:59Z</time>
      </trkpt>
      <trkpt lat="43.19979" lon="0.18337">
        <ele>332.6</ele>
        <time>2024-04-17T15:37:00Z</time>
      </trkpt>
      <trkpt lat="43.19978" lon="0.18334">
        <ele>332.6</ele>
        <time>2024-04-17T15:37:01Z</time>
      </trkpt>
      <trkpt lat="43.19976" lon="0.18331">
        <ele>332.8</ele>
        <time>2024-04-17T15:37:02Z</time>
      </trkpt>
      <trkpt lat="43.19975" lon="0.18328">
        <ele>332.8</ele>
        <time>2024-04-17T15:37:03Z</time>
      </trkpt>
      <trkpt lat="43.19974" lon="0.18325">
        <ele>333</ele>
        <time>2024-04-17T15:37:04Z</time>
      </trkpt>
      <trkpt lat="43.19973" lon="0.18322">
        <ele>333.2</ele>
        <time>2024-04-17T15:37:05Z</time>
      </trkpt>
      <trkpt lat="43.19972" lon="0.18319">
        <ele>333.2</ele>
        <time>2024-04-17T15:37:06Z</time>
      </trkpt>
      <trkpt lat="43.19971" lon="0.18316">
        <ele>333.2</ele>
        <time>2024-04-17T15:37:07Z</time>
      </trkpt>
      <trkpt lat="43.1997" lon="0.18313">
        <ele>333.4</ele>
        <time>2024-04-17T15:37:08Z</time>
      </trkpt>
      <trkpt lat="43.1997" lon="0.1831">
        <ele>333.6</ele>
        <time>2024-04-17T15:37:09Z</time>
      </trkpt>
      <trkpt lat="43.19969" lon="0.18308">
        <ele>333.6</ele>
        <time>2024-04-17T15:37:10Z</time>
      </trkpt>
      <trkpt lat="43.19968" lon="0.18305">
        <ele>333.8</ele>
        <time>2024-04-17T15:37:11Z</time>
      </trkpt>
      <trkpt lat="43.19967" lon="0.18302">
        <ele>333.8</ele>
        <time>2024-04-17T15:37:12Z</time>
      </trkpt>
      <trkpt lat="43.19967" lon="0.18299">
        <ele>334</ele>
        <time>2024-04-17T15:37:13Z</time>
      </trkpt>
      <trkpt lat="43.19966" lon="0.18295">
        <ele>334</ele>
        <time>2024-04-17T15:37:14Z</time>
      </trkpt>
      <trkpt lat="43.19965" lon="0.18292">
        <ele>334.2</ele>
        <time>2024-04-17T15:37:15Z</time>
      </trkpt>
      <trkpt lat="43.19964" lon="0.18289">
        <ele>334.2</ele>
        <time>2024-04-17T15:37:16Z</time>
      </trkpt>
      <trkpt lat="43.19963" lon="0.18286">
        <ele>334.2</ele>
        <time>2024-04-17T15:37:17Z</time>
      </trkpt>
      <trkpt lat="43.19962" lon="0.18282">
        <ele>334.2</ele>
        <time>2024-04-17T15:37:18Z</time>
      </trkpt>
      <trkpt lat="43.19961" lon="0.18279">
        <ele>334.4</ele>
        <time>2024-04-17T15:37:19Z</time>
      </trkpt>
      <trkpt lat="43.1996" lon="0.18276">
        <ele>334.4</ele>
        <time>2024-04-17T15:37:20Z</time>
      </trkpt>
      <trkpt lat="43.19959" lon="0.18273">
        <ele>334.6</ele>
        <time>2024-04-17T15:37:21Z</time>
      </trkpt>
      <trkpt lat="43.19958" lon="0.18269">
        <ele>334.8</ele>
        <time>2024-04-17T15:37:22Z</time>
      </trkpt>
      <trkpt lat="43.19956" lon="0.18266">
        <ele>334.8</ele>
        <time>2024-04-17T15:37:23Z</time>
      </trkpt>
      <trkpt lat="43.19955" lon="0.18263">
        <ele>335</ele>
        <time>2024-04-17T15:37:24Z</time>
      </trkpt>
      <trkpt lat="43.19954" lon="0.1826">
        <ele>335</ele>
        <time>2024-04-17T15:37:25Z</time>
      </trkpt>
      <trkpt lat="43.19953" lon="0.18256">
        <ele>335.2</ele>
        <time>2024-04-17T15:37:26Z</time>
      </trkpt>
      <trkpt lat="43.19951" lon="0.18253">
        <ele>335.2</ele>
        <time>2024-04-17T15:37:27Z</time>
      </trkpt>
      <trkpt lat="43.1995" lon="0.1825">
        <ele>335.2</ele>
        <time>2024-04-17T15:37:28Z</time>
      </trkpt>
      <trkpt lat="43.19949" lon="0.18247">
        <ele>335.4</ele>
        <time>2024-04-17T15:37:29Z</time>
      </trkpt>
      <trkpt lat="43.19948" lon="0.18243">
        <ele>335.4</ele>
        <time>2024-04-17T15:37:30Z</time>
      </trkpt>
      <trkpt lat="43.19947" lon="0.1824">
        <ele>335.4</ele>
        <time>2024-04-17T15:37:31Z</time>
      </trkpt>
      <trkpt lat="43.19945" lon="0.18236">
        <ele>335.4</ele>
        <time>2024-04-17T15:37:32Z</time>
      </trkpt>
      <trkpt lat="43.19944" lon="0.18232">
        <ele>335.6</ele>
        <time>2024-04-17T15:37:33Z</time>
      </trkpt>
      <trkpt lat="43.19943" lon="0.18229">
        <ele>335.6</ele>
        <time>2024-04-17T15:37:34Z</time>
      </trkpt>
      <trkpt lat="43.19942" lon="0.18225">
        <ele>335.8</ele>
        <time>2024-04-17T15:37:35Z</time>
      </trkpt>
      <trkpt lat="43.19942" lon="0.18221">
        <ele>335.8</ele>
        <time>2024-04-17T15:37:36Z</time>
      </trkpt>
      <trkpt lat="43.19941" lon="0.18217">
        <ele>335.8</ele>
        <time>2024-04-17T15:37:37Z</time>
      </trkpt>
      <trkpt lat="43.1994" lon="0.18214">
        <ele>335.8</ele>
        <time>2024-04-17T15:37:38Z</time>
      </trkpt>
      <trkpt lat="43.1994" lon="0.1821">
        <ele>335.8</ele>
        <time>2024-04-17T15:37:39Z</time>
      </trkpt>
      <trkpt lat="43.1994" lon="0.18206">
        <ele>335.8</ele>
        <time>2024-04-17T15:37:40Z</time>
      </trkpt>
      <trkpt lat="43.1994" lon="0.18202">
        <ele>335.8</ele>
        <time>2024-04-17T15:37:41Z</time>
      </trkpt>
      <trkpt lat="43.1994" lon="0.18198">
        <ele>335.8</ele>
        <time>2024-04-17T15:37:42Z</time>
      </trkpt>
      <trkpt lat="43.19939" lon="0.18194">
        <ele>335.8</ele>
        <time>2024-04-17T15:37:43Z</time>
      </trkpt>
      <trkpt lat="43.19939" lon="0.18189">
        <ele>335.8</ele>
        <time>2024-04-17T15:37:44Z</time>
      </trkpt>
      <trkpt lat="43.19939" lon="0.18185">
        <ele>335.8</ele>
        <time>2024-04-17T15:37:45Z</time>
      </trkpt>
      <trkpt lat="43.19939" lon="0.18181">
        <ele>335.8</ele>
        <time>2024-04-17T15:37:46Z</time>
      </trkpt>
      <trkpt lat="43.19939" lon="0.18178">
        <ele>335.8</ele>
        <time>2024-04-17T15:37:47Z</time>
      </trkpt>
      <trkpt lat="43.19938" lon="0.18174">
        <ele>335.8</ele>
        <time>2024-04-17T15:37:48Z</time>
      </trkpt>
      <trkpt lat="43.19938" lon="0.1817">
        <ele>335.8</ele>
        <time>2024-04-17T15:37:49Z</time>
      </trkpt>
      <trkpt lat="43.19937" lon="0.18167">
        <ele>335.8</ele>
        <time>2024-04-17T15:37:50Z</time>
      </trkpt>
      <trkpt lat="43.19937" lon="0.18163">
        <ele>335.8</ele>
        <time>2024-04-17T15:37:51Z</time>
      </trkpt>
      <trkpt lat="43.19936" lon="0.18159">
        <ele>335.6</ele>
        <time>2024-04-17T15:37:52Z</time>
      </trkpt>
      <trkpt lat="43.19935" lon="0.18154">
        <ele>335.6</ele>
        <time>2024-04-17T15:37:53Z</time>
      </trkpt>
      <trkpt lat="43.19934" lon="0.1815">
        <ele>335.6</ele>
        <time>2024-04-17T15:37:54Z</time>
      </trkpt>
      <trkpt lat="43.19932" lon="0.18146">
        <ele>335.6</ele>
        <time>2024-04-17T15:37:55Z</time>
      </trkpt>
      <trkpt lat="43.1993" lon="0.18142">
        <ele>335.6</ele>
        <time>2024-04-17T15:37:56Z</time>
      </trkpt>
      <trkpt lat="43.19928" lon="0.18138">
        <ele>335.6</ele>
        <time>2024-04-17T15:37:57Z</time>
      </trkpt>
      <trkpt lat="43.19927" lon="0.18134">
        <ele>335.6</ele>
        <time>2024-04-17T15:37:58Z</time>
      </trkpt>
      <trkpt lat="43.19926" lon="0.1813">
        <ele>335.6</ele>
        <time>2024-04-17T15:37:59Z</time>
      </trkpt>
      <trkpt lat="43.19926" lon="0.18125">
        <ele>335.4</ele>
        <time>2024-04-17T15:38:00Z</time>
      </trkpt>
      <trkpt lat="43.19926" lon="0.1812">
        <ele>335.6</ele>
        <time>2024-04-17T15:38:01Z</time>
      </trkpt>
      <trkpt lat="43.19926" lon="0.18115">
        <ele>335.6</ele>
        <time>2024-04-17T15:38:02Z</time>
      </trkpt>
      <trkpt lat="43.19926" lon="0.18111">
        <ele>335.6</ele>
        <time>2024-04-17T15:38:03Z</time>
      </trkpt>
      <trkpt lat="43.19927" lon="0.18106">
        <ele>335.6</ele>
        <time>2024-04-17T15:38:04Z</time>
      </trkpt>
      <trkpt lat="43.19927" lon="0.18102">
        <ele>335.6</ele>
        <time>2024-04-17T15:38:05Z</time>
      </trkpt>
      <trkpt lat="43.19927" lon="0.18097">
        <ele>335.6</ele>
        <time>2024-04-17T15:38:06Z</time>
      </trkpt>
      <trkpt lat="43.19927" lon="0.18093">
        <ele>335.6</ele>
        <time>2024-04-17T15:38:07Z</time>
      </trkpt>
      <trkpt lat="43.19928" lon="0.18088">
        <ele>335.6</ele>
        <time>2024-04-17T15:38:08Z</time>
      </trkpt>
      <trkpt lat="43.19929" lon="0.18084">
        <ele>335.6</ele>
        <time>2024-04-17T15:38:09Z</time>
      </trkpt>
      <trkpt lat="43.19929" lon="0.18079">
        <ele>335.6</ele>
        <time>2024-04-17T15:38:10Z</time>
      </trkpt>
      <trkpt lat="43.1993" lon="0.18075">
        <ele>335.6</ele>
        <time>2024-04-17T15:38:11Z</time>
      </trkpt>
      <trkpt lat="43.19931" lon="0.1807">
        <ele>335.8</ele>
        <time>2024-04-17T15:38:12Z</time>
      </trkpt>
      <trkpt lat="43.19931" lon="0.18066">
        <ele>335.8</ele>
        <time>2024-04-17T15:38:13Z</time>
      </trkpt>
      <trkpt lat="43.19932" lon="0.18061">
        <ele>335.8</ele>
        <time>2024-04-17T15:38:14Z</time>
      </trkpt>
      <trkpt lat="43.19933" lon="0.18057">
        <ele>335.8</ele>
        <time>2024-04-17T15:38:15Z</time>
      </trkpt>
      <trkpt lat="43.19934" lon="0.18052">
        <ele>335.8</ele>
        <time>2024-04-17T15:38:16Z</time>
      </trkpt>
      <trkpt lat="43.19934" lon="0.18047">
        <ele>335.8</ele>
        <time>2024-04-17T15:38:17Z</time>
      </trkpt>
      <trkpt lat="43.19935" lon="0.18042">
        <ele>335.8</ele>
        <time>2024-04-17T15:38:18Z</time>
      </trkpt>
      <trkpt lat="43.19936" lon="0.18037">
        <ele>335.8</ele>
        <time>2024-04-17T15:38:19Z</time>
      </trkpt>
      <trkpt lat="43.19937" lon="0.18032">
        <ele>335.8</ele>
        <time>2024-04-17T15:38:20Z</time>
      </trkpt>
      <trkpt lat="43.19938" lon="0.18027">
        <ele>336</ele>
        <time>2024-04-17T15:38:21Z</time>
      </trkpt>
      <trkpt lat="43.19939" lon="0.18022">
        <ele>336</ele>
        <time>2024-04-17T15:38:22Z</time>
      </trkpt>
      <trkpt lat="43.1994" lon="0.18017">
        <ele>336</ele>
        <time>2024-04-17T15:38:23Z</time>
      </trkpt>
      <trkpt lat="43.19941" lon="0.18012">
        <ele>336</ele>
        <time>2024-04-17T15:38:24Z</time>
      </trkpt>
      <trkpt lat="43.19942" lon="0.18006">
        <ele>335.8</ele>
        <time>2024-04-17T15:38:25Z</time>
      </trkpt>
      <trkpt lat="43.19943" lon="0.18001">
        <ele>335.8</ele>
        <time>2024-04-17T15:38:26Z</time>
      </trkpt>
      <trkpt lat="43.19944" lon="0.17996">
        <ele>335.6</ele>
        <time>2024-04-17T15:38:27Z</time>
      </trkpt>
      <trkpt lat="43.19945" lon="0.17991">
        <ele>335.6</ele>
        <time>2024-04-17T15:38:28Z</time>
      </trkpt>
      <trkpt lat="43.19946" lon="0.17986">
        <ele>335.6</ele>
        <time>2024-04-17T15:38:29Z</time>
      </trkpt>
      <trkpt lat="43.19948" lon="0.17981">
        <ele>335.6</ele>
        <time>2024-04-17T15:38:30Z</time>
      </trkpt>
      <trkpt lat="43.19949" lon="0.17976">
        <ele>335.6</ele>
        <time>2024-04-17T15:38:31Z</time>
      </trkpt>
      <trkpt lat="43.1995" lon="0.17971">
        <ele>335.6</ele>
        <time>2024-04-17T15:38:32Z</time>
      </trkpt>
      <trkpt lat="43.19951" lon="0.17967">
        <ele>335.4</ele>
        <time>2024-04-17T15:38:33Z</time>
      </trkpt>
      <trkpt lat="43.19952" lon="0.17963">
        <ele>335.4</ele>
        <time>2024-04-17T15:38:34Z</time>
      </trkpt>
      <trkpt lat="43.19953" lon="0.17959">
        <ele>335.6</ele>
        <time>2024-04-17T15:38:35Z</time>
      </trkpt>
      <trkpt lat="43.19954" lon="0.17955">
        <ele>335.6</ele>
        <time>2024-04-17T15:38:36Z</time>
      </trkpt>
      <trkpt lat="43.19955" lon="0.17951">
        <ele>335.8</ele>
        <time>2024-04-17T15:38:37Z</time>
      </trkpt>
      <trkpt lat="43.19956" lon="0.17946">
        <ele>336</ele>
        <time>2024-04-17T15:38:38Z</time>
      </trkpt>
      <trkpt lat="43.19957" lon="0.17942">
        <ele>336.4</ele>
        <time>2024-04-17T15:38:39Z</time>
      </trkpt>
      <trkpt lat="43.19958" lon="0.17938">
        <ele>336.4</ele>
        <time>2024-04-17T15:38:40Z</time>
      </trkpt>
      <trkpt lat="43.19959" lon="0.17933">
        <ele>336.6</ele>
        <time>2024-04-17T15:38:41Z</time>
      </trkpt>
      <trkpt lat="43.1996" lon="0.17928">
        <ele>336.6</ele>
        <time>2024-04-17T15:38:42Z</time>
      </trkpt>
      <trkpt lat="43.19961" lon="0.17924">
        <ele>336.6</ele>
        <time>2024-04-17T15:38:43Z</time>
      </trkpt>
      <trkpt lat="43.19962" lon="0.17919">
        <ele>336.6</ele>
        <time>2024-04-17T15:38:44Z</time>
      </trkpt>
      <trkpt lat="43.19963" lon="0.17914">
        <ele>336.6</ele>
        <time>2024-04-17T15:38:45Z</time>
      </trkpt>
      <trkpt lat="43.19964" lon="0.1791">
        <ele>336.8</ele>
        <time>2024-04-17T15:38:46Z</time>
      </trkpt>
      <trkpt lat="43.19964" lon="0.17905">
        <ele>336.8</ele>
        <time>2024-04-17T15:38:47Z</time>
      </trkpt>
      <trkpt lat="43.19965" lon="0.179">
        <ele>337</ele>
        <time>2024-04-17T15:38:48Z</time>
      </trkpt>
      <trkpt lat="43.19966" lon="0.17895">
        <ele>337</ele>
        <time>2024-04-17T15:38:49Z</time>
      </trkpt>
      <trkpt lat="43.19967" lon="0.17889">
        <ele>336.8</ele>
        <time>2024-04-17T15:38:50Z</time>
      </trkpt>
      <trkpt lat="43.19968" lon="0.17884">
        <ele>336.6</ele>
        <time>2024-04-17T15:38:51Z</time>
      </trkpt>
      <trkpt lat="43.19969" lon="0.17878">
        <ele>336.4</ele>
        <time>2024-04-17T15:38:52Z</time>
      </trkpt>
      <trkpt lat="43.1997" lon="0.17871">
        <ele>336.4</ele>
        <time>2024-04-17T15:38:53Z</time>
      </trkpt>
      <trkpt lat="43.19971" lon="0.17863">
        <ele>336.4</ele>
        <time>2024-04-17T15:38:54Z</time>
      </trkpt>
      <trkpt lat="43.19972" lon="0.17855">
        <ele>335.8</ele>
        <time>2024-04-17T15:38:55Z</time>
      </trkpt>
      <trkpt lat="43.19973" lon="0.17846">
        <ele>335.4</ele>
        <time>2024-04-17T15:38:56Z</time>
      </trkpt>
      <trkpt lat="43.19975" lon="0.17838">
        <ele>334.8</ele>
        <time>2024-04-17T15:38:57Z</time>
      </trkpt>
      <trkpt lat="43.19977" lon="0.17829">
        <ele>334.4</ele>
        <time>2024-04-17T15:38:58Z</time>
      </trkpt>
      <trkpt lat="43.19979" lon="0.17821">
        <ele>334.4</ele>
        <time>2024-04-17T15:38:59Z</time>
      </trkpt>
      <trkpt lat="43.1998" lon="0.17812">
        <ele>334</ele>
        <time>2024-04-17T15:39:00Z</time>
      </trkpt>
      <trkpt lat="43.19982" lon="0.17803">
        <ele>333.8</ele>
        <time>2024-04-17T15:39:01Z</time>
      </trkpt>
      <trkpt lat="43.19982" lon="0.17792">
        <ele>333.6</ele>
        <time>2024-04-17T15:39:02Z</time>
      </trkpt>
      <trkpt lat="43.19982" lon="0.17782">
        <ele>333.2</ele>
        <time>2024-04-17T15:39:03Z</time>
      </trkpt>
      <trkpt lat="43.19982" lon="0.17772">
        <ele>333</ele>
        <time>2024-04-17T15:39:04Z</time>
      </trkpt>
      <trkpt lat="43.19983" lon="0.17762">
        <ele>332.6</ele>
        <time>2024-04-17T15:39:05Z</time>
      </trkpt>
      <trkpt lat="43.19983" lon="0.17753">
        <ele>332</ele>
        <time>2024-04-17T15:39:06Z</time>
      </trkpt>
      <trkpt lat="43.19985" lon="0.17744">
        <ele>331.6</ele>
        <time>2024-04-17T15:39:07Z</time>
      </trkpt>
      <trkpt lat="43.19986" lon="0.17736">
        <ele>331.2</ele>
        <time>2024-04-17T15:39:08Z</time>
      </trkpt>
      <trkpt lat="43.19987" lon="0.17728">
        <ele>330.6</ele>
        <time>2024-04-17T15:39:09Z</time>
      </trkpt>
      <trkpt lat="43.19989" lon="0.17721">
        <ele>330.4</ele>
        <time>2024-04-17T15:39:10Z</time>
      </trkpt>
      <trkpt lat="43.19991" lon="0.17714">
        <ele>330.4</ele>
        <time>2024-04-17T15:39:11Z</time>
      </trkpt>
      <trkpt lat="43.19992" lon="0.17708">
        <ele>330.2</ele>
        <time>2024-04-17T15:39:12Z</time>
      </trkpt>
      <trkpt lat="43.19994" lon="0.17702">
        <ele>329.8</ele>
        <time>2024-04-17T15:39:13Z</time>
      </trkpt>
      <trkpt lat="43.19995" lon="0.17696">
        <ele>329.8</ele>
        <time>2024-04-17T15:39:14Z</time>
      </trkpt>
      <trkpt lat="43.19997" lon="0.17691">
        <ele>329.6</ele>
        <time>2024-04-17T15:39:15Z</time>
      </trkpt>
      <trkpt lat="43.19998" lon="0.17686">
        <ele>329.6</ele>
        <time>2024-04-17T15:39:16Z</time>
      </trkpt>
      <trkpt lat="43.19999" lon="0.17681">
        <ele>329.6</ele>
        <time>2024-04-17T15:39:17Z</time>
      </trkpt>
      <trkpt lat="43.2" lon="0.17676">
        <ele>329.6</ele>
        <time>2024-04-17T15:39:18Z</time>
      </trkpt>
      <trkpt lat="43.2" lon="0.17671">
        <ele>329.6</ele>
        <time>2024-04-17T15:39:19Z</time>
      </trkpt>
      <trkpt lat="43.20001" lon="0.17666">
        <ele>329.6</ele>
        <time>2024-04-17T15:39:20Z</time>
      </trkpt>
      <trkpt lat="43.20002" lon="0.1766">
        <ele>329.6</ele>
        <time>2024-04-17T15:39:21Z</time>
      </trkpt>
      <trkpt lat="43.20003" lon="0.17655">
        <ele>329.6</ele>
        <time>2024-04-17T15:39:22Z</time>
      </trkpt>
      <trkpt lat="43.20004" lon="0.1765">
        <ele>329.6</ele>
        <time>2024-04-17T15:39:23Z</time>
      </trkpt>
      <trkpt lat="43.20005" lon="0.17644">
        <ele>329.6</ele>
        <time>2024-04-17T15:39:24Z</time>
      </trkpt>
      <trkpt lat="43.20007" lon="0.17639">
        <ele>329.8</ele>
        <time>2024-04-17T15:39:25Z</time>
      </trkpt>
      <trkpt lat="43.20008" lon="0.17634">
        <ele>329.8</ele>
        <time>2024-04-17T15:39:26Z</time>
      </trkpt>
      <trkpt lat="43.20009" lon="0.17629">
        <ele>329.8</ele>
        <time>2024-04-17T15:39:27Z</time>
      </trkpt>
      <trkpt lat="43.2001" lon="0.17625">
        <ele>329.8</ele>
        <time>2024-04-17T15:39:28Z</time>
      </trkpt>
      <trkpt lat="43.2001" lon="0.17621">
        <ele>330</ele>
        <time>2024-04-17T15:39:29Z</time>
      </trkpt>
      <trkpt lat="43.20011" lon="0.17617">
        <ele>330.2</ele>
        <time>2024-04-17T15:39:30Z</time>
      </trkpt>
      <trkpt lat="43.20011" lon="0.17613">
        <ele>330.2</ele>
        <time>2024-04-17T15:39:31Z</time>
      </trkpt>
      <trkpt lat="43.20011" lon="0.17609">
        <ele>330.2</ele>
        <time>2024-04-17T15:39:32Z</time>
      </trkpt>
      <trkpt lat="43.20012" lon="0.17606">
        <ele>330.2</ele>
        <time>2024-04-17T15:39:33Z</time>
      </trkpt>
      <trkpt lat="43.20012" lon="0.17603">
        <ele>330.4</ele>
        <time>2024-04-17T15:39:34Z</time>
      </trkpt>
      <trkpt lat="43.20013" lon="0.17599">
        <ele>330.6</ele>
        <time>2024-04-17T15:39:35Z</time>
      </trkpt>
      <trkpt lat="43.20014" lon="0.17596">
        <ele>330.8</ele>
        <time>2024-04-17T15:39:36Z</time>
      </trkpt>
      <trkpt lat="43.20015" lon="0.17593">
        <ele>331</ele>
        <time>2024-04-17T15:39:37Z</time>
      </trkpt>
      <trkpt lat="43.20016" lon="0.1759">
        <ele>331.2</ele>
        <time>2024-04-17T15:39:38Z</time>
      </trkpt>
      <trkpt lat="43.20017" lon="0.17586">
        <ele>331.2</ele>
        <time>2024-04-17T15:39:39Z</time>
      </trkpt>
      <trkpt lat="43.20018" lon="0.17583">
        <ele>331.4</ele>
        <time>2024-04-17T15:39:40Z</time>
      </trkpt>
      <trkpt lat="43.20018" lon="0.17581">
        <ele>331.4</ele>
        <time>2024-04-17T15:39:41Z</time>
      </trkpt>
      <trkpt lat="43.2002" lon="0.17578">
        <ele>331.4</ele>
        <time>2024-04-17T15:39:42Z</time>
      </trkpt>
      <trkpt lat="43.20021" lon="0.17576">
        <ele>331.6</ele>
        <time>2024-04-17T15:39:43Z</time>
      </trkpt>
      <trkpt lat="43.20023" lon="0.17574">
        <ele>331.6</ele>
        <time>2024-04-17T15:39:44Z</time>
      </trkpt>
      <trkpt lat="43.20024" lon="0.17572">
        <ele>331.8</ele>
        <time>2024-04-17T15:39:45Z</time>
      </trkpt>
      <trkpt lat="43.20026" lon="0.17571">
        <ele>331.8</ele>
        <time>2024-04-17T15:39:46Z</time>
      </trkpt>
      <trkpt lat="43.20028" lon="0.17572">
        <ele>332</ele>
        <time>2024-04-17T15:39:47Z</time>
      </trkpt>
      <trkpt lat="43.2003" lon="0.17573">
        <ele>332.2</ele>
        <time>2024-04-17T15:39:48Z</time>
      </trkpt>
      <trkpt lat="43.20032" lon="0.17575">
        <ele>332.4</ele>
        <time>2024-04-17T15:39:49Z</time>
      </trkpt>
      <trkpt lat="43.20034" lon="0.17579">
        <ele>332.6</ele>
        <time>2024-04-17T15:39:50Z</time>
      </trkpt>
      <trkpt lat="43.20035" lon="0.17582">
        <ele>332.8</ele>
        <time>2024-04-17T15:39:51Z</time>
      </trkpt>
      <trkpt lat="43.20036" lon="0.17585">
        <ele>332.8</ele>
        <time>2024-04-17T15:39:52Z</time>
      </trkpt>
      <trkpt lat="43.20038" lon="0.17589">
        <ele>332.8</ele>
        <time>2024-04-17T15:39:53Z</time>
      </trkpt>
      <trkpt lat="43.20039" lon="0.17591">
        <ele>332.8</ele>
        <time>2024-04-17T15:39:54Z</time>
      </trkpt>
      <trkpt lat="43.2004" lon="0.17594">
        <ele>332.8</ele>
        <time>2024-04-17T15:39:55Z</time>
      </trkpt>
      <trkpt lat="43.20042" lon="0.17596">
        <ele>332.8</ele>
        <time>2024-04-17T15:39:56Z</time>
      </trkpt>
      <trkpt lat="43.20043" lon="0.17599">
        <ele>332.6</ele>
        <time>2024-04-17T15:39:57Z</time>
      </trkpt>
      <trkpt lat="43.20045" lon="0.17602">
        <ele>332.6</ele>
        <time>2024-04-17T15:39:58Z</time>
      </trkpt>
      <trkpt lat="43.20047" lon="0.17605">
        <ele>332.6</ele>
        <time>2024-04-17T15:39:59Z</time>
      </trkpt>
      <trkpt lat="43.20049" lon="0.17607">
        <ele>332.4</ele>
        <time>2024-04-17T15:40:00Z</time>
      </trkpt>
      <trkpt lat="43.20051" lon="0.1761">
        <ele>332.4</ele>
        <time>2024-04-17T15:40:01Z</time>
      </trkpt>
      <trkpt lat="43.20053" lon="0.17613">
        <ele>332.4</ele>
        <time>2024-04-17T15:40:02Z</time>
      </trkpt>
      <trkpt lat="43.20055" lon="0.17616">
        <ele>332.4</ele>
        <time>2024-04-17T15:40:03Z</time>
      </trkpt>
      <trkpt lat="43.20057" lon="0.17619">
        <ele>332.4</ele>
        <time>2024-04-17T15:40:04Z</time>
      </trkpt>
      <trkpt lat="43.20059" lon="0.17622">
        <ele>332.4</ele>
        <time>2024-04-17T15:40:05Z</time>
      </trkpt>
      <trkpt lat="43.20061" lon="0.17625">
        <ele>332.6</ele>
        <time>2024-04-17T15:40:06Z</time>
      </trkpt>
      <trkpt lat="43.20063" lon="0.17628">
        <ele>332.6</ele>
        <time>2024-04-17T15:40:07Z</time>
      </trkpt>
      <trkpt lat="43.20066" lon="0.17631">
        <ele>332.6</ele>
        <time>2024-04-17T15:40:08Z</time>
      </trkpt>
      <trkpt lat="43.20068" lon="0.17633">
        <ele>332.6</ele>
        <time>2024-04-17T15:40:09Z</time>
      </trkpt>
      <trkpt lat="43.20071" lon="0.17634">
        <ele>332.6</ele>
        <time>2024-04-17T15:40:10Z</time>
      </trkpt>
      <trkpt lat="43.20073" lon="0.17635">
        <ele>332.8</ele>
        <time>2024-04-17T15:40:11Z</time>
      </trkpt>
      <trkpt lat="43.20075" lon="0.17636">
        <ele>332.8</ele>
        <time>2024-04-17T15:40:12Z</time>
      </trkpt>
      <trkpt lat="43.20078" lon="0.17636">
        <ele>332.8</ele>
        <time>2024-04-17T15:40:13Z</time>
      </trkpt>
      <trkpt lat="43.20081" lon="0.17637">
        <ele>332.8</ele>
        <time>2024-04-17T15:40:14Z</time>
      </trkpt>
      <trkpt lat="43.20084" lon="0.17637">
        <ele>333</ele>
        <time>2024-04-17T15:40:15Z</time>
      </trkpt>
      <trkpt lat="43.20086" lon="0.17637">
        <ele>333</ele>
        <time>2024-04-17T15:40:16Z</time>
      </trkpt>
      <trkpt lat="43.20089" lon="0.17636">
        <ele>333</ele>
        <time>2024-04-17T15:40:17Z</time>
      </trkpt>
      <trkpt lat="43.20091" lon="0.17635">
        <ele>333</ele>
        <time>2024-04-17T15:40:18Z</time>
      </trkpt>
      <trkpt lat="43.20094" lon="0.17633">
        <ele>333</ele>
        <time>2024-04-17T15:40:19Z</time>
      </trkpt>
      <trkpt lat="43.20096" lon="0.17631">
        <ele>333</ele>
        <time>2024-04-17T15:40:20Z</time>
      </trkpt>
      <trkpt lat="43.20098" lon="0.17629">
        <ele>333</ele>
        <time>2024-04-17T15:40:21Z</time>
      </trkpt>
      <trkpt lat="43.201" lon="0.17627">
        <ele>333.2</ele>
        <time>2024-04-17T15:40:22Z</time>
      </trkpt>
      <trkpt lat="43.20103" lon="0.17625">
        <ele>333.2</ele>
        <time>2024-04-17T15:40:23Z</time>
      </trkpt>
      <trkpt lat="43.20105" lon="0.17622">
        <ele>333.2</ele>
        <time>2024-04-17T15:40:24Z</time>
      </trkpt>
      <trkpt lat="43.20107" lon="0.17621">
        <ele>333.2</ele>
        <time>2024-04-17T15:40:25Z</time>
      </trkpt>
      <trkpt lat="43.20108" lon="0.1762">
        <ele>333</ele>
        <time>2024-04-17T15:40:26Z</time>
      </trkpt>
      <trkpt lat="43.2011" lon="0.17618">
        <ele>333.2</ele>
        <time>2024-04-17T15:40:27Z</time>
      </trkpt>
      <trkpt lat="43.20112" lon="0.17616">
        <ele>333.2</ele>
        <time>2024-04-17T15:40:28Z</time>
      </trkpt>
      <trkpt lat="43.20115" lon="0.17613">
        <ele>333.4</ele>
        <time>2024-04-17T15:40:29Z</time>
      </trkpt>
      <trkpt lat="43.20117" lon="0.17611">
        <ele>333.4</ele>
        <time>2024-04-17T15:40:30Z</time>
      </trkpt>
      <trkpt lat="43.20119" lon="0.17608">
        <ele>333.6</ele>
        <time>2024-04-17T15:40:31Z</time>
      </trkpt>
      <trkpt lat="43.20121" lon="0.17606">
        <ele>333.8</ele>
        <time>2024-04-17T15:40:32Z</time>
      </trkpt>
      <trkpt lat="43.20124" lon="0.17603">
        <ele>333.8</ele>
        <time>2024-04-17T15:40:33Z</time>
      </trkpt>
      <trkpt lat="43.20126" lon="0.17601">
        <ele>333.8</ele>
        <time>2024-04-17T15:40:34Z</time>
      </trkpt>
      <trkpt lat="43.20128" lon="0.17599">
        <ele>334</ele>
        <time>2024-04-17T15:40:35Z</time>
      </trkpt>
      <trkpt lat="43.2013" lon="0.17596">
        <ele>334</ele>
        <time>2024-04-17T15:40:36Z</time>
      </trkpt>
      <trkpt lat="43.20132" lon="0.17594">
        <ele>334</ele>
        <time>2024-04-17T15:40:37Z</time>
      </trkpt>
      <trkpt lat="43.20135" lon="0.17591">
        <ele>334</ele>
        <time>2024-04-17T15:40:38Z</time>
      </trkpt>
      <trkpt lat="43.20137" lon="0.17588">
        <ele>334.2</ele>
        <time>2024-04-17T15:40:39Z</time>
      </trkpt>
      <trkpt lat="43.2014" lon="0.17585">
        <ele>334.2</ele>
        <time>2024-04-17T15:40:40Z</time>
      </trkpt>
      <trkpt lat="43.20142" lon="0.17582">
        <ele>334.2</ele>
        <time>2024-04-17T15:40:41Z</time>
      </trkpt>
      <trkpt lat="43.20144" lon="0.17579">
        <ele>334.6</ele>
        <time>2024-04-17T15:40:42Z</time>
      </trkpt>
      <trkpt lat="43.20146" lon="0.17577">
        <ele>334.6</ele>
        <time>2024-04-17T15:40:43Z</time>
      </trkpt>
      <trkpt lat="43.20149" lon="0.17575">
        <ele>334.6</ele>
        <time>2024-04-17T15:40:44Z</time>
      </trkpt>
      <trkpt lat="43.20151" lon="0.17573">
        <ele>334.8</ele>
        <time>2024-04-17T15:40:45Z</time>
      </trkpt>
      <trkpt lat="43.20153" lon="0.1757">
        <ele>334.6</ele>
        <time>2024-04-17T15:40:46Z</time>
      </trkpt>
      <trkpt lat="43.20155" lon="0.17566">
        <ele>334.6</ele>
        <time>2024-04-17T15:40:47Z</time>
      </trkpt>
      <trkpt lat="43.20158" lon="0.17562">
        <ele>334.8</ele>
        <time>2024-04-17T15:40:48Z</time>
      </trkpt>
      <trkpt lat="43.2016" lon="0.1756">
        <ele>335</ele>
        <time>2024-04-17T15:40:49Z</time>
      </trkpt>
      <trkpt lat="43.20163" lon="0.17557">
        <ele>335.2</ele>
        <time>2024-04-17T15:40:50Z</time>
      </trkpt>
      <trkpt lat="43.20166" lon="0.17555">
        <ele>335.2</ele>
        <time>2024-04-17T15:40:51Z</time>
      </trkpt>
      <trkpt lat="43.20168" lon="0.17554">
        <ele>335.4</ele>
        <time>2024-04-17T15:40:52Z</time>
      </trkpt>
      <trkpt lat="43.2017" lon="0.17552">
        <ele>335.4</ele>
        <time>2024-04-17T15:40:53Z</time>
      </trkpt>
      <trkpt lat="43.20172" lon="0.1755">
        <ele>335.4</ele>
        <time>2024-04-17T15:40:54Z</time>
      </trkpt>
      <trkpt lat="43.20175" lon="0.17548">
        <ele>335.4</ele>
        <time>2024-04-17T15:40:55Z</time>
      </trkpt>
      <trkpt lat="43.20177" lon="0.17545">
        <ele>335.4</ele>
        <time>2024-04-17T15:40:56Z</time>
      </trkpt>
      <trkpt lat="43.20179" lon="0.17544">
        <ele>335.4</ele>
        <time>2024-04-17T15:40:57Z</time>
      </trkpt>
      <trkpt lat="43.20181" lon="0.17542">
        <ele>335.2</ele>
        <time>2024-04-17T15:40:58Z</time>
      </trkpt>
      <trkpt lat="43.20183" lon="0.1754">
        <ele>335.4</ele>
        <time>2024-04-17T15:40:59Z</time>
      </trkpt>
      <trkpt lat="43.20185" lon="0.17538">
        <ele>335.4</ele>
        <time>2024-04-17T15:41:00Z</time>
      </trkpt>
      <trkpt lat="43.20187" lon="0.17536">
        <ele>335.4</ele>
        <time>2024-04-17T15:41:01Z</time>
      </trkpt>
      <trkpt lat="43.20189" lon="0.17534">
        <ele>335.6</ele>
        <time>2024-04-17T15:41:02Z</time>
      </trkpt>
      <trkpt lat="43.20191" lon="0.17533">
        <ele>335.8</ele>
        <time>2024-04-17T15:41:03Z</time>
      </trkpt>
      <trkpt lat="43.20194" lon="0.1753">
        <ele>335.8</ele>
        <time>2024-04-17T15:41:04Z</time>
      </trkpt>
      <trkpt lat="43.20197" lon="0.17529">
        <ele>335.8</ele>
        <time>2024-04-17T15:41:05Z</time>
      </trkpt>
      <trkpt lat="43.202" lon="0.17527">
        <ele>335.8</ele>
        <time>2024-04-17T15:41:06Z</time>
      </trkpt>
      <trkpt lat="43.20203" lon="0.17524">
        <ele>336</ele>
        <time>2024-04-17T15:41:07Z</time>
      </trkpt>
      <trkpt lat="43.20205" lon="0.17522">
        <ele>336</ele>
        <time>2024-04-17T15:41:08Z</time>
      </trkpt>
      <trkpt lat="43.20208" lon="0.1752">
        <ele>336.2</ele>
        <time>2024-04-17T15:41:09Z</time>
      </trkpt>
      <trkpt lat="43.20212" lon="0.17518">
        <ele>336.2</ele>
        <time>2024-04-17T15:41:10Z</time>
      </trkpt>
      <trkpt lat="43.20215" lon="0.17516">
        <ele>336.2</ele>
        <time>2024-04-17T15:41:11Z</time>
      </trkpt>
      <trkpt lat="43.20218" lon="0.17514">
        <ele>336.2</ele>
        <time>2024-04-17T15:41:12Z</time>
      </trkpt>
      <trkpt lat="43.20221" lon="0.17512">
        <ele>336.2</ele>
        <time>2024-04-17T15:41:13Z</time>
      </trkpt>
      <trkpt lat="43.20223" lon="0.17509">
        <ele>336.4</ele>
        <time>2024-04-17T15:41:14Z</time>
      </trkpt>
      <trkpt lat="43.20226" lon="0.17505">
        <ele>336.4</ele>
        <time>2024-04-17T15:41:15Z</time>
      </trkpt>
      <trkpt lat="43.20229" lon="0.17501">
        <ele>336.6</ele>
        <time>2024-04-17T15:41:16Z</time>
      </trkpt>
      <trkpt lat="43.2023" lon="0.17497">
        <ele>336.6</ele>
        <time>2024-04-17T15:41:17Z</time>
      </trkpt>
      <trkpt lat="43.20232" lon="0.17493">
        <ele>336.6</ele>
        <time>2024-04-17T15:41:18Z</time>
      </trkpt>
      <trkpt lat="43.20233" lon="0.17489">
        <ele>336.6</ele>
        <time>2024-04-17T15:41:19Z</time>
      </trkpt>
      <trkpt lat="43.20234" lon="0.17485">
        <ele>336.6</ele>
        <time>2024-04-17T15:41:20Z</time>
      </trkpt>
      <trkpt lat="43.20234" lon="0.17481">
        <ele>336.8</ele>
        <time>2024-04-17T15:41:21Z</time>
      </trkpt>
      <trkpt lat="43.20234" lon="0.17477">
        <ele>336.8</ele>
        <time>2024-04-17T15:41:22Z</time>
      </trkpt>
      <trkpt lat="43.20234" lon="0.17472">
        <ele>337</ele>
        <time>2024-04-17T15:41:23Z</time>
      </trkpt>
      <trkpt lat="43.20234" lon="0.17468">
        <ele>337</ele>
        <time>2024-04-17T15:41:24Z</time>
      </trkpt>
      <trkpt lat="43.20234" lon="0.17464">
        <ele>337</ele>
        <time>2024-04-17T15:41:25Z</time>
      </trkpt>
      <trkpt lat="43.20234" lon="0.17461">
        <ele>337.2</ele>
        <time>2024-04-17T15:41:26Z</time>
      </trkpt>
      <trkpt lat="43.20234" lon="0.17457">
        <ele>337.2</ele>
        <time>2024-04-17T15:41:27Z</time>
      </trkpt>
      <trkpt lat="43.20234" lon="0.17454">
        <ele>337.2</ele>
        <time>2024-04-17T15:41:28Z</time>
      </trkpt>
      <trkpt lat="43.20233" lon="0.1745">
        <ele>337.2</ele>
        <time>2024-04-17T15:41:29Z</time>
      </trkpt>
      <trkpt lat="43.20233" lon="0.17447">
        <ele>337.2</ele>
        <time>2024-04-17T15:41:30Z</time>
      </trkpt>
      <trkpt lat="43.20232" lon="0.17443">
        <ele>337.2</ele>
        <time>2024-04-17T15:41:31Z</time>
      </trkpt>
      <trkpt lat="43.20232" lon="0.17439">
        <ele>337.4</ele>
        <time>2024-04-17T15:41:32Z</time>
      </trkpt>
      <trkpt lat="43.20232" lon="0.17435">
        <ele>337.6</ele>
        <time>2024-04-17T15:41:33Z</time>
      </trkpt>
      <trkpt lat="43.20232" lon="0.17432">
        <ele>337.6</ele>
        <time>2024-04-17T15:41:34Z</time>
      </trkpt>
      <trkpt lat="43.20231" lon="0.17428">
        <ele>337.6</ele>
        <time>2024-04-17T15:41:35Z</time>
      </trkpt>
      <trkpt lat="43.20231" lon="0.17425">
        <ele>337.6</ele>
        <time>2024-04-17T15:41:36Z</time>
      </trkpt>
      <trkpt lat="43.20231" lon="0.17421">
        <ele>337.8</ele>
        <time>2024-04-17T15:41:37Z</time>
      </trkpt>
      <trkpt lat="43.20231" lon="0.17418">
        <ele>337.8</ele>
        <time>2024-04-17T15:41:38Z</time>
      </trkpt>
      <trkpt lat="43.20231" lon="0.17414">
        <ele>337.8</ele>
        <time>2024-04-17T15:41:39Z</time>
      </trkpt>
      <trkpt lat="43.20231" lon="0.17411">
        <ele>338</ele>
        <time>2024-04-17T15:41:40Z</time>
      </trkpt>
      <trkpt lat="43.2023" lon="0.17407">
        <ele>338</ele>
        <time>2024-04-17T15:41:41Z</time>
      </trkpt>
      <trkpt lat="43.2023" lon="0.17403">
        <ele>338</ele>
        <time>2024-04-17T15:41:42Z</time>
      </trkpt>
      <trkpt lat="43.2023" lon="0.17399">
        <ele>338.2</ele>
        <time>2024-04-17T15:41:43Z</time>
      </trkpt>
      <trkpt lat="43.2023" lon="0.17396">
        <ele>338.4</ele>
        <time>2024-04-17T15:41:44Z</time>
      </trkpt>
      <trkpt lat="43.2023" lon="0.17392">
        <ele>338.6</ele>
        <time>2024-04-17T15:41:45Z</time>
      </trkpt>
      <trkpt lat="43.20229" lon="0.17389">
        <ele>338.8</ele>
        <time>2024-04-17T15:41:46Z</time>
      </trkpt>
      <trkpt lat="43.20229" lon="0.17385">
        <ele>338.8</ele>
        <time>2024-04-17T15:41:47Z</time>
      </trkpt>
      <trkpt lat="43.20229" lon="0.17382">
        <ele>338.8</ele>
        <time>2024-04-17T15:41:48Z</time>
      </trkpt>
      <trkpt lat="43.20229" lon="0.17378">
        <ele>338.6</ele>
        <time>2024-04-17T15:41:49Z</time>
      </trkpt>
      <trkpt lat="43.20229" lon="0.17374">
        <ele>338.8</ele>
        <time>2024-04-17T15:41:50Z</time>
      </trkpt>
      <trkpt lat="43.20228" lon="0.1737">
        <ele>339</ele>
        <time>2024-04-17T15:41:51Z</time>
      </trkpt>
      <trkpt lat="43.20228" lon="0.17366">
        <ele>339</ele>
        <time>2024-04-17T15:41:52Z</time>
      </trkpt>
      <trkpt lat="43.20228" lon="0.17362">
        <ele>339.2</ele>
        <time>2024-04-17T15:41:53Z</time>
      </trkpt>
      <trkpt lat="43.20228" lon="0.17359">
        <ele>339.2</ele>
        <time>2024-04-17T15:41:54Z</time>
      </trkpt>
      <trkpt lat="43.20228" lon="0.17355">
        <ele>339.2</ele>
        <time>2024-04-17T15:41:55Z</time>
      </trkpt>
      <trkpt lat="43.20228" lon="0.17352">
        <ele>339.2</ele>
        <time>2024-04-17T15:41:56Z</time>
      </trkpt>
      <trkpt lat="43.20228" lon="0.17348">
        <ele>339.4</ele>
        <time>2024-04-17T15:41:57Z</time>
      </trkpt>
      <trkpt lat="43.20228" lon="0.17344">
        <ele>339.4</ele>
        <time>2024-04-17T15:41:58Z</time>
      </trkpt>
      <trkpt lat="43.20228" lon="0.17341">
        <ele>339.4</ele>
        <time>2024-04-17T15:41:59Z</time>
      </trkpt>
      <trkpt lat="43.20227" lon="0.17337">
        <ele>339.4</ele>
        <time>2024-04-17T15:42:00Z</time>
      </trkpt>
      <trkpt lat="43.20227" lon="0.17334">
        <ele>339.4</ele>
        <time>2024-04-17T15:42:01Z</time>
      </trkpt>
      <trkpt lat="43.20227" lon="0.1733">
        <ele>339.6</ele>
        <time>2024-04-17T15:42:02Z</time>
      </trkpt>
      <trkpt lat="43.20227" lon="0.17326">
        <ele>339.6</ele>
        <time>2024-04-17T15:42:03Z</time>
      </trkpt>
      <trkpt lat="43.20227" lon="0.17323">
        <ele>339.6</ele>
        <time>2024-04-17T15:42:04Z</time>
      </trkpt>
      <trkpt lat="43.20228" lon="0.17319">
        <ele>339.8</ele>
        <time>2024-04-17T15:42:05Z</time>
      </trkpt>
      <trkpt lat="43.20228" lon="0.17316">
        <ele>339.8</ele>
        <time>2024-04-17T15:42:06Z</time>
      </trkpt>
      <trkpt lat="43.20228" lon="0.17312">
        <ele>340</ele>
        <time>2024-04-17T15:42:07Z</time>
      </trkpt>
      <trkpt lat="43.20228" lon="0.17309">
        <ele>340</ele>
        <time>2024-04-17T15:42:08Z</time>
      </trkpt>
      <trkpt lat="43.20227" lon="0.17305">
        <ele>340</ele>
        <time>2024-04-17T15:42:09Z</time>
      </trkpt>
      <trkpt lat="43.20226" lon="0.17302">
        <ele>340</ele>
        <time>2024-04-17T15:42:10Z</time>
      </trkpt>
      <trkpt lat="43.20224" lon="0.17298">
        <ele>340</ele>
        <time>2024-04-17T15:42:11Z</time>
      </trkpt>
      <trkpt lat="43.20222" lon="0.17295">
        <ele>340.2</ele>
        <time>2024-04-17T15:42:12Z</time>
      </trkpt>
      <trkpt lat="43.2022" lon="0.17292">
        <ele>340.2</ele>
        <time>2024-04-17T15:42:13Z</time>
      </trkpt>
      <trkpt lat="43.20217" lon="0.1729">
        <ele>340.2</ele>
        <time>2024-04-17T15:42:14Z</time>
      </trkpt>
      <trkpt lat="43.20214" lon="0.17288">
        <ele>340.2</ele>
        <time>2024-04-17T15:42:15Z</time>
      </trkpt>
      <trkpt lat="43.20211" lon="0.17287">
        <ele>340.4</ele>
        <time>2024-04-17T15:42:16Z</time>
      </trkpt>
      <trkpt lat="43.20208" lon="0.17286">
        <ele>340.6</ele>
        <time>2024-04-17T15:42:17Z</time>
      </trkpt>
      <trkpt lat="43.20205" lon="0.17285">
        <ele>340.8</ele>
        <time>2024-04-17T15:42:18Z</time>
      </trkpt>
      <trkpt lat="43.20202" lon="0.17283">
        <ele>340.8</ele>
        <time>2024-04-17T15:42:19Z</time>
      </trkpt>
      <trkpt lat="43.20199" lon="0.17282">
        <ele>340.8</ele>
        <time>2024-04-17T15:42:20Z</time>
      </trkpt>
      <trkpt lat="43.20196" lon="0.17281">
        <ele>340.8</ele>
        <time>2024-04-17T15:42:21Z</time>
      </trkpt>
      <trkpt lat="43.20192" lon="0.1728">
        <ele>340.8</ele>
        <time>2024-04-17T15:42:22Z</time>
      </trkpt>
      <trkpt lat="43.20189" lon="0.17278">
        <ele>340.8</ele>
        <time>2024-04-17T15:42:23Z</time>
      </trkpt>
      <trkpt lat="43.20186" lon="0.17277">
        <ele>340.8</ele>
        <time>2024-04-17T15:42:24Z</time>
      </trkpt>
      <trkpt lat="43.20182" lon="0.17276">
        <ele>340.8</ele>
        <time>2024-04-17T15:42:25Z</time>
      </trkpt>
      <trkpt lat="43.20179" lon="0.17275">
        <ele>340.8</ele>
        <time>2024-04-17T15:42:26Z</time>
      </trkpt>
      <trkpt lat="43.20176" lon="0.17274">
        <ele>340.8</ele>
        <time>2024-04-17T15:42:27Z</time>
      </trkpt>
      <trkpt lat="43.20173" lon="0.17273">
        <ele>340.8</ele>
        <time>2024-04-17T15:42:28Z</time>
      </trkpt>
      <trkpt lat="43.2017" lon="0.17272">
        <ele>340.8</ele>
        <time>2024-04-17T15:42:29Z</time>
      </trkpt>
      <trkpt lat="43.20166" lon="0.17271">
        <ele>341</ele>
        <time>2024-04-17T15:42:30Z</time>
      </trkpt>
      <trkpt lat="43.20162" lon="0.1727">
        <ele>341</ele>
        <time>2024-04-17T15:42:31Z</time>
      </trkpt>
      <trkpt lat="43.20158" lon="0.17269">
        <ele>341</ele>
        <time>2024-04-17T15:42:32Z</time>
      </trkpt>
      <trkpt lat="43.20155" lon="0.17268">
        <ele>341</ele>
        <time>2024-04-17T15:42:33Z</time>
      </trkpt>
      <trkpt lat="43.20152" lon="0.17267">
        <ele>341.2</ele>
        <time>2024-04-17T15:42:34Z</time>
      </trkpt>
      <trkpt lat="43.20148" lon="0.17266">
        <ele>341.2</ele>
        <time>2024-04-17T15:42:35Z</time>
      </trkpt>
      <trkpt lat="43.20145" lon="0.17265">
        <ele>341.2</ele>
        <time>2024-04-17T15:42:36Z</time>
      </trkpt>
      <trkpt lat="43.20142" lon="0.17264">
        <ele>341.2</ele>
        <time>2024-04-17T15:42:37Z</time>
      </trkpt>
      <trkpt lat="43.20138" lon="0.17263">
        <ele>341.2</ele>
        <time>2024-04-17T15:42:38Z</time>
      </trkpt>
      <trkpt lat="43.20134" lon="0.17261">
        <ele>341.2</ele>
        <time>2024-04-17T15:42:39Z</time>
      </trkpt>
      <trkpt lat="43.20131" lon="0.1726">
        <ele>341.2</ele>
        <time>2024-04-17T15:42:40Z</time>
      </trkpt>
      <trkpt lat="43.20127" lon="0.1726">
        <ele>341.2</ele>
        <time>2024-04-17T15:42:41Z</time>
      </trkpt>
      <trkpt lat="43.20123" lon="0.17259">
        <ele>341.2</ele>
        <time>2024-04-17T15:42:42Z</time>
      </trkpt>
      <trkpt lat="43.2012" lon="0.17258">
        <ele>341</ele>
        <time>2024-04-17T15:42:43Z</time>
      </trkpt>
      <trkpt lat="43.20117" lon="0.17256">
        <ele>341</ele>
        <time>2024-04-17T15:42:44Z</time>
      </trkpt>
      <trkpt lat="43.20113" lon="0.17255">
        <ele>341</ele>
        <time>2024-04-17T15:42:45Z</time>
      </trkpt>
      <trkpt lat="43.2011" lon="0.17254">
        <ele>341</ele>
        <time>2024-04-17T15:42:46Z</time>
      </trkpt>
      <trkpt lat="43.20106" lon="0.17252">
        <ele>341</ele>
        <time>2024-04-17T15:42:47Z</time>
      </trkpt>
      <trkpt lat="43.20103" lon="0.17251">
        <ele>341</ele>
        <time>2024-04-17T15:42:48Z</time>
      </trkpt>
      <trkpt lat="43.20099" lon="0.1725">
        <ele>341</ele>
        <time>2024-04-17T15:42:49Z</time>
      </trkpt>
      <trkpt lat="43.20096" lon="0.1725">
        <ele>341</ele>
        <time>2024-04-17T15:42:50Z</time>
      </trkpt>
      <trkpt lat="43.20093" lon="0.17248">
        <ele>340.8</ele>
        <time>2024-04-17T15:42:51Z</time>
      </trkpt>
      <trkpt lat="43.20089" lon="0.17245">
        <ele>340.8</ele>
        <time>2024-04-17T15:42:52Z</time>
      </trkpt>
      <trkpt lat="43.20086" lon="0.17242">
        <ele>340.8</ele>
        <time>2024-04-17T15:42:53Z</time>
      </trkpt>
      <trkpt lat="43.20083" lon="0.17237">
        <ele>340.8</ele>
        <time>2024-04-17T15:42:54Z</time>
      </trkpt>
      <trkpt lat="43.20081" lon="0.17233">
        <ele>340.6</ele>
        <time>2024-04-17T15:42:55Z</time>
      </trkpt>
      <trkpt lat="43.20079" lon="0.17228">
        <ele>340.6</ele>
        <time>2024-04-17T15:42:56Z</time>
      </trkpt>
      <trkpt lat="43.20078" lon="0.17223">
        <ele>340.6</ele>
        <time>2024-04-17T15:42:57Z</time>
      </trkpt>
      <trkpt lat="43.20077" lon="0.17219">
        <ele>340.6</ele>
        <time>2024-04-17T15:42:58Z</time>
      </trkpt>
      <trkpt lat="43.20077" lon="0.17214">
        <ele>340.6</ele>
        <time>2024-04-17T15:42:59Z</time>
      </trkpt>
      <trkpt lat="43.20077" lon="0.1721">
        <ele>340.6</ele>
        <time>2024-04-17T15:43:00Z</time>
      </trkpt>
      <trkpt lat="43.20077" lon="0.17206">
        <ele>340.6</ele>
        <time>2024-04-17T15:43:01Z</time>
      </trkpt>
      <trkpt lat="43.20078" lon="0.17202">
        <ele>340.6</ele>
        <time>2024-04-17T15:43:02Z</time>
      </trkpt>
      <trkpt lat="43.20078" lon="0.17199">
        <ele>340.6</ele>
        <time>2024-04-17T15:43:03Z</time>
      </trkpt>
      <trkpt lat="43.20079" lon="0.17195">
        <ele>340.6</ele>
        <time>2024-04-17T15:43:04Z</time>
      </trkpt>
      <trkpt lat="43.20079" lon="0.17192">
        <ele>340.6</ele>
        <time>2024-04-17T15:43:05Z</time>
      </trkpt>
      <trkpt lat="43.2008" lon="0.17188">
        <ele>341</ele>
        <time>2024-04-17T15:43:06Z</time>
      </trkpt>
      <trkpt lat="43.2008" lon="0.17185">
        <ele>341</ele>
        <time>2024-04-17T15:43:07Z</time>
      </trkpt>
      <trkpt lat="43.20081" lon="0.1718">
        <ele>341.2</ele>
        <time>2024-04-17T15:43:08Z</time>
      </trkpt>
      <trkpt lat="43.20082" lon="0.17176">
        <ele>341.2</ele>
        <time>2024-04-17T15:43:09Z</time>
      </trkpt>
      <trkpt lat="43.20083" lon="0.17171">
        <ele>341.4</ele>
        <time>2024-04-17T15:43:10Z</time>
      </trkpt>
      <trkpt lat="43.20084" lon="0.17167">
        <ele>341.4</ele>
        <time>2024-04-17T15:43:11Z</time>
      </trkpt>
      <trkpt lat="43.20085" lon="0.17163">
        <ele>341.4</ele>
        <time>2024-04-17T15:43:12Z</time>
      </trkpt>
      <trkpt lat="43.20086" lon="0.17159">
        <ele>341.4</ele>
        <time>2024-04-17T15:43:13Z</time>
      </trkpt>
      <trkpt lat="43.20088" lon="0.17155">
        <ele>341.6</ele>
        <time>2024-04-17T15:43:14Z</time>
      </trkpt>
      <trkpt lat="43.20089" lon="0.17152">
        <ele>341.8</ele>
        <time>2024-04-17T15:43:15Z</time>
      </trkpt>
      <trkpt lat="43.2009" lon="0.17148">
        <ele>342</ele>
        <time>2024-04-17T15:43:16Z</time>
      </trkpt>
      <trkpt lat="43.20091" lon="0.17144">
        <ele>342</ele>
        <time>2024-04-17T15:43:17Z</time>
      </trkpt>
      <trkpt lat="43.20092" lon="0.17141">
        <ele>342.2</ele>
        <time>2024-04-17T15:43:18Z</time>
      </trkpt>
      <trkpt lat="43.20094" lon="0.17137">
        <ele>342.2</ele>
        <time>2024-04-17T15:43:19Z</time>
      </trkpt>
      <trkpt lat="43.20095" lon="0.17134">
        <ele>342.4</ele>
        <time>2024-04-17T15:43:20Z</time>
      </trkpt>
      <trkpt lat="43.20097" lon="0.17131">
        <ele>342.4</ele>
        <time>2024-04-17T15:43:21Z</time>
      </trkpt>
      <trkpt lat="43.20098" lon="0.17127">
        <ele>342.6</ele>
        <time>2024-04-17T15:43:22Z</time>
      </trkpt>
      <trkpt lat="43.201" lon="0.17124">
        <ele>342.6</ele>
        <time>2024-04-17T15:43:23Z</time>
      </trkpt>
      <trkpt lat="43.20101" lon="0.1712">
        <ele>343</ele>
        <time>2024-04-17T15:43:24Z</time>
      </trkpt>
      <trkpt lat="43.20103" lon="0.17117">
        <ele>343</ele>
        <time>2024-04-17T15:43:25Z</time>
      </trkpt>
      <trkpt lat="43.20104" lon="0.17113">
        <ele>343</ele>
        <time>2024-04-17T15:43:26Z</time>
      </trkpt>
      <trkpt lat="43.20105" lon="0.1711">
        <ele>343</ele>
        <time>2024-04-17T15:43:27Z</time>
      </trkpt>
      <trkpt lat="43.20107" lon="0.17106">
        <ele>343.2</ele>
        <time>2024-04-17T15:43:28Z</time>
      </trkpt>
      <trkpt lat="43.20108" lon="0.17102">
        <ele>343.4</ele>
        <time>2024-04-17T15:43:29Z</time>
      </trkpt>
      <trkpt lat="43.20109" lon="0.17099">
        <ele>343.4</ele>
        <time>2024-04-17T15:43:30Z</time>
      </trkpt>
      <trkpt lat="43.20109" lon="0.17095">
        <ele>343.6</ele>
        <time>2024-04-17T15:43:31Z</time>
      </trkpt>
      <trkpt lat="43.2011" lon="0.1709">
        <ele>343.6</ele>
        <time>2024-04-17T15:43:32Z</time>
      </trkpt>
      <trkpt lat="43.20109" lon="0.17086">
        <ele>343.6</ele>
        <time>2024-04-17T15:43:33Z</time>
      </trkpt>
      <trkpt lat="43.20109" lon="0.17082">
        <ele>343.6</ele>
        <time>2024-04-17T15:43:34Z</time>
      </trkpt>
      <trkpt lat="43.20109" lon="0.17078">
        <ele>343.8</ele>
        <time>2024-04-17T15:43:35Z</time>
      </trkpt>
      <trkpt lat="43.20109" lon="0.17075">
        <ele>343.8</ele>
        <time>2024-04-17T15:43:36Z</time>
      </trkpt>
      <trkpt lat="43.20108" lon="0.17072">
        <ele>344</ele>
        <time>2024-04-17T15:43:37Z</time>
      </trkpt>
      <trkpt lat="43.20108" lon="0.1707">
        <ele>344</ele>
        <time>2024-04-17T15:43:38Z</time>
      </trkpt>
      <trkpt lat="43.20108" lon="0.17067">
        <ele>344.2</ele>
        <time>2024-04-17T15:43:39Z</time>
      </trkpt>
      <trkpt lat="43.20109" lon="0.17065">
        <ele>344.4</ele>
        <time>2024-04-17T15:43:40Z</time>
      </trkpt>
      <trkpt lat="43.2011" lon="0.17062">
        <ele>344.4</ele>
        <time>2024-04-17T15:43:41Z</time>
      </trkpt>
      <trkpt lat="43.2011" lon="0.17059">
        <ele>344.8</ele>
        <time>2024-04-17T15:43:42Z</time>
      </trkpt>
      <trkpt lat="43.20112" lon="0.17056">
        <ele>344.8</ele>
        <time>2024-04-17T15:43:43Z</time>
      </trkpt>
      <trkpt lat="43.20113" lon="0.17054">
        <ele>345.2</ele>
        <time>2024-04-17T15:43:44Z</time>
      </trkpt>
      <trkpt lat="43.20115" lon="0.17052">
        <ele>345.2</ele>
        <time>2024-04-17T15:43:45Z</time>
      </trkpt>
      <trkpt lat="43.20117" lon="0.17051">
        <ele>345.4</ele>
        <time>2024-04-17T15:43:46Z</time>
      </trkpt>
      <trkpt lat="43.20119" lon="0.17049">
        <ele>345.6</ele>
        <time>2024-04-17T15:43:47Z</time>
      </trkpt>
      <trkpt lat="43.20121" lon="0.17047">
        <ele>345.8</ele>
        <time>2024-04-17T15:43:48Z</time>
      </trkpt>
      <trkpt lat="43.20123" lon="0.17046">
        <ele>346</ele>
        <time>2024-04-17T15:43:49Z</time>
      </trkpt>
      <trkpt lat="43.20126" lon="0.17044">
        <ele>346</ele>
        <time>2024-04-17T15:43:50Z</time>
      </trkpt>
      <trkpt lat="43.20128" lon="0.17043">
        <ele>346.2</ele>
        <time>2024-04-17T15:43:51Z</time>
      </trkpt>
      <trkpt lat="43.2013" lon="0.17041">
        <ele>346.2</ele>
        <time>2024-04-17T15:43:52Z</time>
      </trkpt>
      <trkpt lat="43.20132" lon="0.1704">
        <ele>346.4</ele>
        <time>2024-04-17T15:43:53Z</time>
      </trkpt>
      <trkpt lat="43.20135" lon="0.17039">
        <ele>346.4</ele>
        <time>2024-04-17T15:43:54Z</time>
      </trkpt>
      <trkpt lat="43.20137" lon="0.17038">
        <ele>346.6</ele>
        <time>2024-04-17T15:43:55Z</time>
      </trkpt>
      <trkpt lat="43.20139" lon="0.17036">
        <ele>346.6</ele>
        <time>2024-04-17T15:43:56Z</time>
      </trkpt>
      <trkpt lat="43.20141" lon="0.17035">
        <ele>346.8</ele>
        <time>2024-04-17T15:43:57Z</time>
      </trkpt>
      <trkpt lat="43.20143" lon="0.17034">
        <ele>346.8</ele>
        <time>2024-04-17T15:43:58Z</time>
      </trkpt>
      <trkpt lat="43.20145" lon="0.17033">
        <ele>347</ele>
        <time>2024-04-17T15:43:59Z</time>
      </trkpt>
      <trkpt lat="43.20147" lon="0.17032">
        <ele>347</ele>
        <time>2024-04-17T15:44:00Z</time>
      </trkpt>
      <trkpt lat="43.20149" lon="0.17031">
        <ele>347.2</ele>
        <time>2024-04-17T15:44:01Z</time>
      </trkpt>
      <trkpt lat="43.20151" lon="0.1703">
        <ele>347.2</ele>
        <time>2024-04-17T15:44:02Z</time>
      </trkpt>
      <trkpt lat="43.20153" lon="0.17029">
        <ele>347.2</ele>
        <time>2024-04-17T15:44:03Z</time>
      </trkpt>
      <trkpt lat="43.20156" lon="0.17028">
        <ele>347.4</ele>
        <time>2024-04-17T15:44:04Z</time>
      </trkpt>
      <trkpt lat="43.20158" lon="0.17027">
        <ele>347.4</ele>
        <time>2024-04-17T15:44:05Z</time>
      </trkpt>
      <trkpt lat="43.2016" lon="0.17025">
        <ele>347.4</ele>
        <time>2024-04-17T15:44:06Z</time>
      </trkpt>
      <trkpt lat="43.20162" lon="0.17024">
        <ele>347.6</ele>
        <time>2024-04-17T15:44:07Z</time>
      </trkpt>
      <trkpt lat="43.20165" lon="0.17023">
        <ele>347.6</ele>
        <time>2024-04-17T15:44:08Z</time>
      </trkpt>
      <trkpt lat="43.20167" lon="0.17022">
        <ele>347.6</ele>
        <time>2024-04-17T15:44:09Z</time>
      </trkpt>
      <trkpt lat="43.20169" lon="0.1702">
        <ele>347.8</ele>
        <time>2024-04-17T15:44:10Z</time>
      </trkpt>
      <trkpt lat="43.20172" lon="0.17019">
        <ele>348</ele>
        <time>2024-04-17T15:44:11Z</time>
      </trkpt>
      <trkpt lat="43.20174" lon="0.17018">
        <ele>348.2</ele>
        <time>2024-04-17T15:44:12Z</time>
      </trkpt>
      <trkpt lat="43.20176" lon="0.17016">
        <ele>348.4</ele>
        <time>2024-04-17T15:44:13Z</time>
      </trkpt>
      <trkpt lat="43.20178" lon="0.17015">
        <ele>348.6</ele>
        <time>2024-04-17T15:44:14Z</time>
      </trkpt>
      <trkpt lat="43.2018" lon="0.17013">
        <ele>348.6</ele>
        <time>2024-04-17T15:44:15Z</time>
      </trkpt>
      <trkpt lat="43.20182" lon="0.17011">
        <ele>348.8</ele>
        <time>2024-04-17T15:44:16Z</time>
      </trkpt>
      <trkpt lat="43.20184" lon="0.1701">
        <ele>348.8</ele>
        <time>2024-04-17T15:44:17Z</time>
      </trkpt>
      <trkpt lat="43.20186" lon="0.17008">
        <ele>349.2</ele>
        <time>2024-04-17T15:44:18Z</time>
      </trkpt>
      <trkpt lat="43.20187" lon="0.17007">
        <ele>349.2</ele>
        <time>2024-04-17T15:44:19Z</time>
      </trkpt>
      <trkpt lat="43.20189" lon="0.17005">
        <ele>349.2</ele>
        <time>2024-04-17T15:44:20Z</time>
      </trkpt>
      <trkpt lat="43.20191" lon="0.17004">
        <ele>349.4</ele>
        <time>2024-04-17T15:44:21Z</time>
      </trkpt>
      <trkpt lat="43.20193" lon="0.17002">
        <ele>349.6</ele>
        <time>2024-04-17T15:44:22Z</time>
      </trkpt>
      <trkpt lat="43.20196" lon="0.17">
        <ele>349.8</ele>
        <time>2024-04-17T15:44:23Z</time>
      </trkpt>
      <trkpt lat="43.20198" lon="0.16998">
        <ele>350</ele>
        <time>2024-04-17T15:44:24Z</time>
      </trkpt>
      <trkpt lat="43.202" lon="0.16996">
        <ele>350</ele>
        <time>2024-04-17T15:44:25Z</time>
      </trkpt>
      <trkpt lat="43.20203" lon="0.16994">
        <ele>350.2</ele>
        <time>2024-04-17T15:44:26Z</time>
      </trkpt>
      <trkpt lat="43.20205" lon="0.16992">
        <ele>350.4</ele>
        <time>2024-04-17T15:44:27Z</time>
      </trkpt>
      <trkpt lat="43.20207" lon="0.1699">
        <ele>350.4</ele>
        <time>2024-04-17T15:44:28Z</time>
      </trkpt>
      <trkpt lat="43.2021" lon="0.16988">
        <ele>350.6</ele>
        <time>2024-04-17T15:44:29Z</time>
      </trkpt>
      <trkpt lat="43.20212" lon="0.16986">
        <ele>350.6</ele>
        <time>2024-04-17T15:44:30Z</time>
      </trkpt>
      <trkpt lat="43.20215" lon="0.16984">
        <ele>350.6</ele>
        <time>2024-04-17T15:44:31Z</time>
      </trkpt>
      <trkpt lat="43.20217" lon="0.16982">
        <ele>350.6</ele>
        <time>2024-04-17T15:44:32Z</time>
      </trkpt>
      <trkpt lat="43.20219" lon="0.1698">
        <ele>350.8</ele>
        <time>2024-04-17T15:44:33Z</time>
      </trkpt>
      <trkpt lat="43.20222" lon="0.16978">
        <ele>350.8</ele>
        <time>2024-04-17T15:44:34Z</time>
      </trkpt>
      <trkpt lat="43.20225" lon="0.16976">
        <ele>350.8</ele>
        <time>2024-04-17T15:44:35Z</time>
      </trkpt>
      <trkpt lat="43.20228" lon="0.16974">
        <ele>350.8</ele>
        <time>2024-04-17T15:44:36Z</time>
      </trkpt>
      <trkpt lat="43.2023" lon="0.16972">
        <ele>350.8</ele>
        <time>2024-04-17T15:44:37Z</time>
      </trkpt>
      <trkpt lat="43.20233" lon="0.16971">
        <ele>350.8</ele>
        <time>2024-04-17T15:44:38Z</time>
      </trkpt>
      <trkpt lat="43.20235" lon="0.16969">
        <ele>350.8</ele>
        <time>2024-04-17T15:44:39Z</time>
      </trkpt>
      <trkpt lat="43.20238" lon="0.16968">
        <ele>350.8</ele>
        <time>2024-04-17T15:44:40Z</time>
      </trkpt>
      <trkpt lat="43.20241" lon="0.16967">
        <ele>350.8</ele>
        <time>2024-04-17T15:44:41Z</time>
      </trkpt>
      <trkpt lat="43.20244" lon="0.16966">
        <ele>350.8</ele>
        <time>2024-04-17T15:44:42Z</time>
      </trkpt>
      <trkpt lat="43.20247" lon="0.16964">
        <ele>350.8</ele>
        <time>2024-04-17T15:44:43Z</time>
      </trkpt>
      <trkpt lat="43.2025" lon="0.16964">
        <ele>350.8</ele>
        <time>2024-04-17T15:44:44Z</time>
      </trkpt>
      <trkpt lat="43.20253" lon="0.16963">
        <ele>350.8</ele>
        <time>2024-04-17T15:44:45Z</time>
      </trkpt>
      <trkpt lat="43.20256" lon="0.16963">
        <ele>350.8</ele>
        <time>2024-04-17T15:44:46Z</time>
      </trkpt>
      <trkpt lat="43.20259" lon="0.16962">
        <ele>350.8</ele>
        <time>2024-04-17T15:44:47Z</time>
      </trkpt>
      <trkpt lat="43.20262" lon="0.16961">
        <ele>350.8</ele>
        <time>2024-04-17T15:44:48Z</time>
      </trkpt>
      <trkpt lat="43.20266" lon="0.16961">
        <ele>350.8</ele>
        <time>2024-04-17T15:44:49Z</time>
      </trkpt>
      <trkpt lat="43.20269" lon="0.16961">
        <ele>351</ele>
        <time>2024-04-17T15:44:50Z</time>
      </trkpt>
      <trkpt lat="43.20273" lon="0.16961">
        <ele>351</ele>
        <time>2024-04-17T15:44:51Z</time>
      </trkpt>
      <trkpt lat="43.20276" lon="0.16961">
        <ele>351</ele>
        <time>2024-04-17T15:44:52Z</time>
      </trkpt>
      <trkpt lat="43.20279" lon="0.16961">
        <ele>351.2</ele>
        <time>2024-04-17T15:44:53Z</time>
      </trkpt>
      <trkpt lat="43.20283" lon="0.16961">
        <ele>351.2</ele>
        <time>2024-04-17T15:44:54Z</time>
      </trkpt>
      <trkpt lat="43.20286" lon="0.16961">
        <ele>351.6</ele>
        <time>2024-04-17T15:44:55Z</time>
      </trkpt>
      <trkpt lat="43.20289" lon="0.16961">
        <ele>351.6</ele>
        <time>2024-04-17T15:44:56Z</time>
      </trkpt>
      <trkpt lat="43.20293" lon="0.16962">
        <ele>351.8</ele>
        <time>2024-04-17T15:44:57Z</time>
      </trkpt>
      <trkpt lat="43.20296" lon="0.16962">
        <ele>351.8</ele>
        <time>2024-04-17T15:44:58Z</time>
      </trkpt>
      <trkpt lat="43.203" lon="0.16962">
        <ele>351.8</ele>
        <time>2024-04-17T15:44:59Z</time>
      </trkpt>
      <trkpt lat="43.20303" lon="0.16962">
        <ele>351.8</ele>
        <time>2024-04-17T15:45:00Z</time>
      </trkpt>
      <trkpt lat="43.20307" lon="0.16963">
        <ele>352</ele>
        <time>2024-04-17T15:45:01Z</time>
      </trkpt>
      <trkpt lat="43.20311" lon="0.16963">
        <ele>352</ele>
        <time>2024-04-17T15:45:02Z</time>
      </trkpt>
      <trkpt lat="43.20314" lon="0.16964">
        <ele>352.2</ele>
        <time>2024-04-17T15:45:03Z</time>
      </trkpt>
      <trkpt lat="43.20318" lon="0.16965">
        <ele>352.2</ele>
        <time>2024-04-17T15:45:04Z</time>
      </trkpt>
      <trkpt lat="43.20321" lon="0.16965">
        <ele>352.2</ele>
        <time>2024-04-17T15:45:05Z</time>
      </trkpt>
      <trkpt lat="43.20325" lon="0.16966">
        <ele>352.2</ele>
        <time>2024-04-17T15:45:06Z</time>
      </trkpt>
      <trkpt lat="43.20329" lon="0.16966">
        <ele>352.2</ele>
        <time>2024-04-17T15:45:07Z</time>
      </trkpt>
      <trkpt lat="43.20333" lon="0.16967">
        <ele>352.2</ele>
        <time>2024-04-17T15:45:08Z</time>
      </trkpt>
      <trkpt lat="43.20336" lon="0.16968">
        <ele>352.2</ele>
        <time>2024-04-17T15:45:09Z</time>
      </trkpt>
      <trkpt lat="43.2034" lon="0.16968">
        <ele>352</ele>
        <time>2024-04-17T15:45:10Z</time>
      </trkpt>
      <trkpt lat="43.20344" lon="0.16969">
        <ele>351.8</ele>
        <time>2024-04-17T15:45:11Z</time>
      </trkpt>
      <trkpt lat="43.20348" lon="0.16969">
        <ele>351.8</ele>
        <time>2024-04-17T15:45:12Z</time>
      </trkpt>
      <trkpt lat="43.20352" lon="0.16969">
        <ele>351.6</ele>
        <time>2024-04-17T15:45:13Z</time>
      </trkpt>
      <trkpt lat="43.20355" lon="0.1697">
        <ele>351.6</ele>
        <time>2024-04-17T15:45:14Z</time>
      </trkpt>
      <trkpt lat="43.20359" lon="0.1697">
        <ele>351.6</ele>
        <time>2024-04-17T15:45:15Z</time>
      </trkpt>
      <trkpt lat="43.20363" lon="0.16971">
        <ele>351.4</ele>
        <time>2024-04-17T15:45:16Z</time>
      </trkpt>
      <trkpt lat="43.20367" lon="0.16972">
        <ele>351.4</ele>
        <time>2024-04-17T15:45:17Z</time>
      </trkpt>
      <trkpt lat="43.2037" lon="0.16972">
        <ele>351.4</ele>
        <time>2024-04-17T15:45:18Z</time>
      </trkpt>
      <trkpt lat="43.20374" lon="0.16973">
        <ele>351.2</ele>
        <time>2024-04-17T15:45:19Z</time>
      </trkpt>
      <trkpt lat="43.20377" lon="0.16973">
        <ele>351.2</ele>
        <time>2024-04-17T15:45:20Z</time>
      </trkpt>
      <trkpt lat="43.20381" lon="0.16973">
        <ele>351.2</ele>
        <time>2024-04-17T15:45:21Z</time>
      </trkpt>
      <trkpt lat="43.20385" lon="0.16974">
        <ele>351.2</ele>
        <time>2024-04-17T15:45:22Z</time>
      </trkpt>
      <trkpt lat="43.20389" lon="0.16975">
        <ele>351.2</ele>
        <time>2024-04-17T15:45:23Z</time>
      </trkpt>
      <trkpt lat="43.20393" lon="0.16975">
        <ele>351.2</ele>
        <time>2024-04-17T15:45:24Z</time>
      </trkpt>
      <trkpt lat="43.20397" lon="0.16976">
        <ele>351.2</ele>
        <time>2024-04-17T15:45:25Z</time>
      </trkpt>
      <trkpt lat="43.20401" lon="0.16977">
        <ele>351.2</ele>
        <time>2024-04-17T15:45:26Z</time>
      </trkpt>
      <trkpt lat="43.20404" lon="0.16977">
        <ele>351.2</ele>
        <time>2024-04-17T15:45:27Z</time>
      </trkpt>
      <trkpt lat="43.20408" lon="0.16978">
        <ele>351</ele>
        <time>2024-04-17T15:45:28Z</time>
      </trkpt>
      <trkpt lat="43.20412" lon="0.16978">
        <ele>351</ele>
        <time>2024-04-17T15:45:29Z</time>
      </trkpt>
      <trkpt lat="43.20416" lon="0.16978">
        <ele>351</ele>
        <time>2024-04-17T15:45:30Z</time>
      </trkpt>
      <trkpt lat="43.2042" lon="0.16979">
        <ele>351</ele>
        <time>2024-04-17T15:45:31Z</time>
      </trkpt>
      <trkpt lat="43.20424" lon="0.16979">
        <ele>350.8</ele>
        <time>2024-04-17T15:45:32Z</time>
      </trkpt>
      <trkpt lat="43.20428" lon="0.16979">
        <ele>350.8</ele>
        <time>2024-04-17T15:45:33Z</time>
      </trkpt>
      <trkpt lat="43.20431" lon="0.1698">
        <ele>350.6</ele>
        <time>2024-04-17T15:45:34Z</time>
      </trkpt>
      <trkpt lat="43.20435" lon="0.16981">
        <ele>350.6</ele>
        <time>2024-04-17T15:45:35Z</time>
      </trkpt>
      <trkpt lat="43.20439" lon="0.16981">
        <ele>350.6</ele>
        <time>2024-04-17T15:45:36Z</time>
      </trkpt>
      <trkpt lat="43.20443" lon="0.16982">
        <ele>350.4</ele>
        <time>2024-04-17T15:45:37Z</time>
      </trkpt>
      <trkpt lat="43.20447" lon="0.16982">
        <ele>350.2</ele>
        <time>2024-04-17T15:45:38Z</time>
      </trkpt>
      <trkpt lat="43.20451" lon="0.16983">
        <ele>350.2</ele>
        <time>2024-04-17T15:45:39Z</time>
      </trkpt>
      <trkpt lat="43.20455" lon="0.16983">
        <ele>350</ele>
        <time>2024-04-17T15:45:40Z</time>
      </trkpt>
      <trkpt lat="43.20459" lon="0.16983">
        <ele>350</ele>
        <time>2024-04-17T15:45:41Z</time>
      </trkpt>
      <trkpt lat="43.20462" lon="0.16984">
        <ele>350</ele>
        <time>2024-04-17T15:45:42Z</time>
      </trkpt>
      <trkpt lat="43.20466" lon="0.16984">
        <ele>349.8</ele>
        <time>2024-04-17T15:45:43Z</time>
      </trkpt>
      <trkpt lat="43.2047" lon="0.16985">
        <ele>349.8</ele>
        <time>2024-04-17T15:45:44Z</time>
      </trkpt>
      <trkpt lat="43.20473" lon="0.16985">
        <ele>349.8</ele>
        <time>2024-04-17T15:45:45Z</time>
      </trkpt>
      <trkpt lat="43.20477" lon="0.16986">
        <ele>349.8</ele>
        <time>2024-04-17T15:45:46Z</time>
      </trkpt>
      <trkpt lat="43.2048" lon="0.16986">
        <ele>349.8</ele>
        <time>2024-04-17T15:45:47Z</time>
      </trkpt>
      <trkpt lat="43.20484" lon="0.16986">
        <ele>349.6</ele>
        <time>2024-04-17T15:45:48Z</time>
      </trkpt>
      <trkpt lat="43.20487" lon="0.16984">
        <ele>349.6</ele>
        <time>2024-04-17T15:45:49Z</time>
      </trkpt>
      <trkpt lat="43.2049" lon="0.1698">
        <ele>349.6</ele>
        <time>2024-04-17T15:45:50Z</time>
      </trkpt>
      <trkpt lat="43.20492" lon="0.16975">
        <ele>349.6</ele>
        <time>2024-04-17T15:45:51Z</time>
      </trkpt>
      <trkpt lat="43.20493" lon="0.16969">
        <ele>349.6</ele>
        <time>2024-04-17T15:45:52Z</time>
      </trkpt>
      <trkpt lat="43.20493" lon="0.16964">
        <ele>349.6</ele>
        <time>2024-04-17T15:45:53Z</time>
      </trkpt>
      <trkpt lat="43.20493" lon="0.16958">
        <ele>349.6</ele>
        <time>2024-04-17T15:45:54Z</time>
      </trkpt>
      <trkpt lat="43.20493" lon="0.16953">
        <ele>349.8</ele>
        <time>2024-04-17T15:45:55Z</time>
      </trkpt>
      <trkpt lat="43.20493" lon="0.16948">
        <ele>349.8</ele>
        <time>2024-04-17T15:45:56Z</time>
      </trkpt>
      <trkpt lat="43.20493" lon="0.16943">
        <ele>349.8</ele>
        <time>2024-04-17T15:45:57Z</time>
      </trkpt>
      <trkpt lat="43.20493" lon="0.16938">
        <ele>350</ele>
        <time>2024-04-17T15:45:58Z</time>
      </trkpt>
      <trkpt lat="43.20493" lon="0.16933">
        <ele>350</ele>
        <time>2024-04-17T15:45:59Z</time>
      </trkpt>
      <trkpt lat="43.20493" lon="0.16928">
        <ele>350</ele>
        <time>2024-04-17T15:46:00Z</time>
      </trkpt>
      <trkpt lat="43.20493" lon="0.16924">
        <ele>350</ele>
        <time>2024-04-17T15:46:01Z</time>
      </trkpt>
      <trkpt lat="43.20493" lon="0.16919">
        <ele>350</ele>
        <time>2024-04-17T15:46:02Z</time>
      </trkpt>
      <trkpt lat="43.20493" lon="0.16914">
        <ele>350</ele>
        <time>2024-04-17T15:46:03Z</time>
      </trkpt>
      <trkpt lat="43.20493" lon="0.16909">
        <ele>350</ele>
        <time>2024-04-17T15:46:04Z</time>
      </trkpt>
      <trkpt lat="43.20493" lon="0.16905">
        <ele>350</ele>
        <time>2024-04-17T15:46:05Z</time>
      </trkpt>
      <trkpt lat="43.20493" lon="0.16901">
        <ele>350</ele>
        <time>2024-04-17T15:46:06Z</time>
      </trkpt>
      <trkpt lat="43.20493" lon="0.16896">
        <ele>350.2</ele>
        <time>2024-04-17T15:46:07Z</time>
      </trkpt>
      <trkpt lat="43.20493" lon="0.16892">
        <ele>350.2</ele>
        <time>2024-04-17T15:46:08Z</time>
      </trkpt>
      <trkpt lat="43.20493" lon="0.16888">
        <ele>350.2</ele>
        <time>2024-04-17T15:46:09Z</time>
      </trkpt>
      <trkpt lat="43.20493" lon="0.16884">
        <ele>350.4</ele>
        <time>2024-04-17T15:46:10Z</time>
      </trkpt>
      <trkpt lat="43.20494" lon="0.1688">
        <ele>350.4</ele>
        <time>2024-04-17T15:46:11Z</time>
      </trkpt>
      <trkpt lat="43.20494" lon="0.16876">
        <ele>350.4</ele>
        <time>2024-04-17T15:46:12Z</time>
      </trkpt>
      <trkpt lat="43.20494" lon="0.16872">
        <ele>350.4</ele>
        <time>2024-04-17T15:46:13Z</time>
      </trkpt>
      <trkpt lat="43.20494" lon="0.16868">
        <ele>350.6</ele>
        <time>2024-04-17T15:46:14Z</time>
      </trkpt>
      <trkpt lat="43.20494" lon="0.16864">
        <ele>350.6</ele>
        <time>2024-04-17T15:46:15Z</time>
      </trkpt>
      <trkpt lat="43.20494" lon="0.1686">
        <ele>350.6</ele>
        <time>2024-04-17T15:46:16Z</time>
      </trkpt>
      <trkpt lat="43.20494" lon="0.16856">
        <ele>350.6</ele>
        <time>2024-04-17T15:46:17Z</time>
      </trkpt>
      <trkpt lat="43.20494" lon="0.16853">
        <ele>350.8</ele>
        <time>2024-04-17T15:46:18Z</time>
      </trkpt>
      <trkpt lat="43.20494" lon="0.1685">
        <ele>350.8</ele>
        <time>2024-04-17T15:46:19Z</time>
      </trkpt>
      <trkpt lat="43.20494" lon="0.16846">
        <ele>350.8</ele>
        <time>2024-04-17T15:46:20Z</time>
      </trkpt>
      <trkpt lat="43.20495" lon="0.16843">
        <ele>351</ele>
        <time>2024-04-17T15:46:21Z</time>
      </trkpt>
      <trkpt lat="43.20495" lon="0.1684">
        <ele>351.2</ele>
        <time>2024-04-17T15:46:22Z</time>
      </trkpt>
      <trkpt lat="43.20495" lon="0.16836">
        <ele>351.2</ele>
        <time>2024-04-17T15:46:23Z</time>
      </trkpt>
      <trkpt lat="43.20495" lon="0.16833">
        <ele>351.4</ele>
        <time>2024-04-17T15:46:24Z</time>
      </trkpt>
      <trkpt lat="43.20495" lon="0.16829">
        <ele>351.4</ele>
        <time>2024-04-17T15:46:25Z</time>
      </trkpt>
      <trkpt lat="43.20495" lon="0.16826">
        <ele>351.6</ele>
        <time>2024-04-17T15:46:26Z</time>
      </trkpt>
      <trkpt lat="43.20495" lon="0.16822">
        <ele>351.8</ele>
        <time>2024-04-17T15:46:27Z</time>
      </trkpt>
      <trkpt lat="43.20496" lon="0.16818">
        <ele>352</ele>
        <time>2024-04-17T15:46:28Z</time>
      </trkpt>
      <trkpt lat="43.20496" lon="0.16815">
        <ele>352</ele>
        <time>2024-04-17T15:46:29Z</time>
      </trkpt>
      <trkpt lat="43.20496" lon="0.16811">
        <ele>352.2</ele>
        <time>2024-04-17T15:46:30Z</time>
      </trkpt>
      <trkpt lat="43.20496" lon="0.16807">
        <ele>352.2</ele>
        <time>2024-04-17T15:46:31Z</time>
      </trkpt>
      <trkpt lat="43.20497" lon="0.16803">
        <ele>352.4</ele>
        <time>2024-04-17T15:46:32Z</time>
      </trkpt>
      <trkpt lat="43.20497" lon="0.168">
        <ele>352.4</ele>
        <time>2024-04-17T15:46:33Z</time>
      </trkpt>
      <trkpt lat="43.20497" lon="0.16796">
        <ele>352.6</ele>
        <time>2024-04-17T15:46:34Z</time>
      </trkpt>
      <trkpt lat="43.20497" lon="0.16793">
        <ele>352.6</ele>
        <time>2024-04-17T15:46:35Z</time>
      </trkpt>
      <trkpt lat="43.20497" lon="0.16789">
        <ele>352.6</ele>
        <time>2024-04-17T15:46:36Z</time>
      </trkpt>
      <trkpt lat="43.20497" lon="0.16786">
        <ele>352.8</ele>
        <time>2024-04-17T15:46:37Z</time>
      </trkpt>
      <trkpt lat="43.20497" lon="0.16782">
        <ele>352.8</ele>
        <time>2024-04-17T15:46:38Z</time>
      </trkpt>
      <trkpt lat="43.20497" lon="0.16778">
        <ele>352.8</ele>
        <time>2024-04-17T15:46:39Z</time>
      </trkpt>
      <trkpt lat="43.20497" lon="0.16775">
        <ele>353</ele>
        <time>2024-04-17T15:46:40Z</time>
      </trkpt>
      <trkpt lat="43.20498" lon="0.16771">
        <ele>353</ele>
        <time>2024-04-17T15:46:41Z</time>
      </trkpt>
      <trkpt lat="43.20498" lon="0.16768">
        <ele>353</ele>
        <time>2024-04-17T15:46:42Z</time>
      </trkpt>
      <trkpt lat="43.20497" lon="0.16764">
        <ele>353.2</ele>
        <time>2024-04-17T15:46:43Z</time>
      </trkpt>
      <trkpt lat="43.20497" lon="0.16761">
        <ele>353.2</ele>
        <time>2024-04-17T15:46:44Z</time>
      </trkpt>
      <trkpt lat="43.20497" lon="0.16757">
        <ele>353.2</ele>
        <time>2024-04-17T15:46:45Z</time>
      </trkpt>
      <trkpt lat="43.20497" lon="0.16754">
        <ele>353.4</ele>
        <time>2024-04-17T15:46:46Z</time>
      </trkpt>
      <trkpt lat="43.20497" lon="0.16751">
        <ele>353.4</ele>
        <time>2024-04-17T15:46:47Z</time>
      </trkpt>
      <trkpt lat="43.20497" lon="0.16748">
        <ele>353.4</ele>
        <time>2024-04-17T15:46:48Z</time>
      </trkpt>
      <trkpt lat="43.20497" lon="0.16745">
        <ele>353.6</ele>
        <time>2024-04-17T15:46:49Z</time>
      </trkpt>
      <trkpt lat="43.20497" lon="0.16742">
        <ele>353.8</ele>
        <time>2024-04-17T15:46:50Z</time>
      </trkpt>
      <trkpt lat="43.20496" lon="0.16739">
        <ele>354</ele>
        <time>2024-04-17T15:46:51Z</time>
      </trkpt>
      <trkpt lat="43.20496" lon="0.16735">
        <ele>354</ele>
        <time>2024-04-17T15:46:52Z</time>
      </trkpt>
      <trkpt lat="43.20495" lon="0.16731">
        <ele>354</ele>
        <time>2024-04-17T15:46:53Z</time>
      </trkpt>
      <trkpt lat="43.20495" lon="0.16727">
        <ele>354</ele>
        <time>2024-04-17T15:46:54Z</time>
      </trkpt>
      <trkpt lat="43.20495" lon="0.16724">
        <ele>354</ele>
        <time>2024-04-17T15:46:55Z</time>
      </trkpt>
      <trkpt lat="43.20495" lon="0.1672">
        <ele>354.2</ele>
        <time>2024-04-17T15:46:56Z</time>
      </trkpt>
      <trkpt lat="43.20495" lon="0.16716">
        <ele>354.2</ele>
        <time>2024-04-17T15:46:57Z</time>
      </trkpt>
      <trkpt lat="43.20494" lon="0.16713">
        <ele>354.2</ele>
        <time>2024-04-17T15:46:58Z</time>
      </trkpt>
      <trkpt lat="43.20494" lon="0.1671">
        <ele>354.2</ele>
        <time>2024-04-17T15:46:59Z</time>
      </trkpt>
      <trkpt lat="43.20494" lon="0.16706">
        <ele>354.4</ele>
        <time>2024-04-17T15:47:00Z</time>
      </trkpt>
      <trkpt lat="43.20493" lon="0.16703">
        <ele>354.4</ele>
        <time>2024-04-17T15:47:01Z</time>
      </trkpt>
      <trkpt lat="43.20493" lon="0.16699">
        <ele>354.4</ele>
        <time>2024-04-17T15:47:02Z</time>
      </trkpt>
      <trkpt lat="43.20493" lon="0.16696">
        <ele>354.6</ele>
        <time>2024-04-17T15:47:03Z</time>
      </trkpt>
      <trkpt lat="43.20492" lon="0.16693">
        <ele>354.6</ele>
        <time>2024-04-17T15:47:04Z</time>
      </trkpt>
      <trkpt lat="43.20492" lon="0.1669">
        <ele>354.8</ele>
        <time>2024-04-17T15:47:05Z</time>
      </trkpt>
      <trkpt lat="43.20492" lon="0.16686">
        <ele>354.8</ele>
        <time>2024-04-17T15:47:06Z</time>
      </trkpt>
      <trkpt lat="43.20491" lon="0.16683">
        <ele>355</ele>
        <time>2024-04-17T15:47:07Z</time>
      </trkpt>
      <trkpt lat="43.20491" lon="0.1668">
        <ele>355</ele>
        <time>2024-04-17T15:47:08Z</time>
      </trkpt>
      <trkpt lat="43.2049" lon="0.16677">
        <ele>355.2</ele>
        <time>2024-04-17T15:47:09Z</time>
      </trkpt>
      <trkpt lat="43.2049" lon="0.16673">
        <ele>355.2</ele>
        <time>2024-04-17T15:47:10Z</time>
      </trkpt>
      <trkpt lat="43.20489" lon="0.1667">
        <ele>355.2</ele>
        <time>2024-04-17T15:47:11Z</time>
      </trkpt>
      <trkpt lat="43.20489" lon="0.16667">
        <ele>355.2</ele>
        <time>2024-04-17T15:47:12Z</time>
      </trkpt>
      <trkpt lat="43.20489" lon="0.16664">
        <ele>355.4</ele>
        <time>2024-04-17T15:47:13Z</time>
      </trkpt>
      <trkpt lat="43.20489" lon="0.16661">
        <ele>355.4</ele>
        <time>2024-04-17T15:47:14Z</time>
      </trkpt>
      <trkpt lat="43.20489" lon="0.16658">
        <ele>355.4</ele>
        <time>2024-04-17T15:47:15Z</time>
      </trkpt>
      <trkpt lat="43.20488" lon="0.16655">
        <ele>355.6</ele>
        <time>2024-04-17T15:47:16Z</time>
      </trkpt>
      <trkpt lat="43.20488" lon="0.16653">
        <ele>355.6</ele>
        <time>2024-04-17T15:47:17Z</time>
      </trkpt>
      <trkpt lat="43.20488" lon="0.1665">
        <ele>355.8</ele>
        <time>2024-04-17T15:47:18Z</time>
      </trkpt>
      <trkpt lat="43.20488" lon="0.16647">
        <ele>355.8</ele>
        <time>2024-04-17T15:47:19Z</time>
      </trkpt>
      <trkpt lat="43.20487" lon="0.16645">
        <ele>356</ele>
        <time>2024-04-17T15:47:20Z</time>
      </trkpt>
      <trkpt lat="43.20487" lon="0.16642">
        <ele>356.2</ele>
        <time>2024-04-17T15:47:21Z</time>
      </trkpt>
      <trkpt lat="43.20487" lon="0.16639">
        <ele>356.4</ele>
        <time>2024-04-17T15:47:22Z</time>
      </trkpt>
      <trkpt lat="43.20486" lon="0.16637">
        <ele>356.6</ele>
        <time>2024-04-17T15:47:23Z</time>
      </trkpt>
      <trkpt lat="43.20486" lon="0.16634">
        <ele>356.8</ele>
        <time>2024-04-17T15:47:24Z</time>
      </trkpt>
      <trkpt lat="43.20485" lon="0.16632">
        <ele>357</ele>
        <time>2024-04-17T15:47:25Z</time>
      </trkpt>
      <trkpt lat="43.20485" lon="0.16629">
        <ele>357</ele>
        <time>2024-04-17T15:47:26Z</time>
      </trkpt>
      <trkpt lat="43.20484" lon="0.16626">
        <ele>357.2</ele>
        <time>2024-04-17T15:47:27Z</time>
      </trkpt>
      <trkpt lat="43.20484" lon="0.16624">
        <ele>357.4</ele>
        <time>2024-04-17T15:47:28Z</time>
      </trkpt>
      <trkpt lat="43.20484" lon="0.16621">
        <ele>357.4</ele>
        <time>2024-04-17T15:47:29Z</time>
      </trkpt>
      <trkpt lat="43.20484" lon="0.16618">
        <ele>357.6</ele>
        <time>2024-04-17T15:47:30Z</time>
      </trkpt>
      <trkpt lat="43.20484" lon="0.16615">
        <ele>357.6</ele>
        <time>2024-04-17T15:47:31Z</time>
      </trkpt>
      <trkpt lat="43.20483" lon="0.16613">
        <ele>357.8</ele>
        <time>2024-04-17T15:47:32Z</time>
      </trkpt>
      <trkpt lat="43.20483" lon="0.16611">
        <ele>358</ele>
        <time>2024-04-17T15:47:33Z</time>
      </trkpt>
      <trkpt lat="43.20483" lon="0.16608">
        <ele>358.2</ele>
        <time>2024-04-17T15:47:34Z</time>
      </trkpt>
      <trkpt lat="43.20482" lon="0.16606">
        <ele>358.4</ele>
        <time>2024-04-17T15:47:35Z</time>
      </trkpt>
      <trkpt lat="43.20482" lon="0.16603">
        <ele>358.8</ele>
        <time>2024-04-17T15:47:36Z</time>
      </trkpt>
      <trkpt lat="43.20481" lon="0.16601">
        <ele>358.8</ele>
        <time>2024-04-17T15:47:37Z</time>
      </trkpt>
      <trkpt lat="43.20481" lon="0.16598">
        <ele>359</ele>
        <time>2024-04-17T15:47:38Z</time>
      </trkpt>
      <trkpt lat="43.20481" lon="0.16596">
        <ele>359.2</ele>
        <time>2024-04-17T15:47:39Z</time>
      </trkpt>
      <trkpt lat="43.2048" lon="0.16594">
        <ele>359.4</ele>
        <time>2024-04-17T15:47:40Z</time>
      </trkpt>
      <trkpt lat="43.2048" lon="0.16591">
        <ele>359.6</ele>
        <time>2024-04-17T15:47:41Z</time>
      </trkpt>
      <trkpt lat="43.2048" lon="0.16589">
        <ele>359.8</ele>
        <time>2024-04-17T15:47:42Z</time>
      </trkpt>
      <trkpt lat="43.2048" lon="0.16586">
        <ele>360</ele>
        <time>2024-04-17T15:47:43Z</time>
      </trkpt>
      <trkpt lat="43.2048" lon="0.16584">
        <ele>360</ele>
        <time>2024-04-17T15:47:44Z</time>
      </trkpt>
      <trkpt lat="43.2048" lon="0.16581">
        <ele>360.4</ele>
        <time>2024-04-17T15:47:45Z</time>
      </trkpt>
      <trkpt lat="43.20479" lon="0.16579">
        <ele>360.4</ele>
        <time>2024-04-17T15:47:46Z</time>
      </trkpt>
      <trkpt lat="43.20479" lon="0.16576">
        <ele>360.6</ele>
        <time>2024-04-17T15:47:47Z</time>
      </trkpt>
      <trkpt lat="43.20478" lon="0.16574">
        <ele>360.8</ele>
        <time>2024-04-17T15:47:48Z</time>
      </trkpt>
      <trkpt lat="43.20478" lon="0.16571">
        <ele>361</ele>
        <time>2024-04-17T15:47:49Z</time>
      </trkpt>
      <trkpt lat="43.20478" lon="0.16569">
        <ele>361.2</ele>
        <time>2024-04-17T15:47:50Z</time>
      </trkpt>
      <trkpt lat="43.20478" lon="0.16566">
        <ele>361.4</ele>
        <time>2024-04-17T15:47:51Z</time>
      </trkpt>
      <trkpt lat="43.20477" lon="0.16564">
        <ele>361.4</ele>
        <time>2024-04-17T15:47:52Z</time>
      </trkpt>
      <trkpt lat="43.20477" lon="0.16561">
        <ele>361.4</ele>
        <time>2024-04-17T15:47:53Z</time>
      </trkpt>
      <trkpt lat="43.20477" lon="0.16558">
        <ele>361.6</ele>
        <time>2024-04-17T15:47:54Z</time>
      </trkpt>
      <trkpt lat="43.20477" lon="0.16556">
        <ele>361.6</ele>
        <time>2024-04-17T15:47:55Z</time>
      </trkpt>
      <trkpt lat="43.20477" lon="0.16553">
        <ele>361.6</ele>
        <time>2024-04-17T15:47:56Z</time>
      </trkpt>
      <trkpt lat="43.20476" lon="0.16551">
        <ele>361.8</ele>
        <time>2024-04-17T15:47:57Z</time>
      </trkpt>
      <trkpt lat="43.20476" lon="0.16548">
        <ele>362</ele>
        <time>2024-04-17T15:47:58Z</time>
      </trkpt>
      <trkpt lat="43.20476" lon="0.16546">
        <ele>362.4</ele>
        <time>2024-04-17T15:47:59Z</time>
      </trkpt>
      <trkpt lat="43.20475" lon="0.16543">
        <ele>362.4</ele>
        <time>2024-04-17T15:48:00Z</time>
      </trkpt>
      <trkpt lat="43.20475" lon="0.1654">
        <ele>362.6</ele>
        <time>2024-04-17T15:48:01Z</time>
      </trkpt>
      <trkpt lat="43.20475" lon="0.16538">
        <ele>362.6</ele>
        <time>2024-04-17T15:48:02Z</time>
      </trkpt>
      <trkpt lat="43.20474" lon="0.16535">
        <ele>362.8</ele>
        <time>2024-04-17T15:48:03Z</time>
      </trkpt>
      <trkpt lat="43.20474" lon="0.16533">
        <ele>363</ele>
        <time>2024-04-17T15:48:04Z</time>
      </trkpt>
      <trkpt lat="43.20473" lon="0.16531">
        <ele>363.2</ele>
        <time>2024-04-17T15:48:05Z</time>
      </trkpt>
      <trkpt lat="43.20473" lon="0.16528">
        <ele>363.4</ele>
        <time>2024-04-17T15:48:06Z</time>
      </trkpt>
      <trkpt lat="43.20472" lon="0.16526">
        <ele>363.4</ele>
        <time>2024-04-17T15:48:07Z</time>
      </trkpt>
      <trkpt lat="43.20472" lon="0.16523">
        <ele>363.6</ele>
        <time>2024-04-17T15:48:08Z</time>
      </trkpt>
      <trkpt lat="43.20472" lon="0.16521">
        <ele>363.8</ele>
        <time>2024-04-17T15:48:09Z</time>
      </trkpt>
      <trkpt lat="43.20471" lon="0.16519">
        <ele>364</ele>
        <time>2024-04-17T15:48:10Z</time>
      </trkpt>
      <trkpt lat="43.20471" lon="0.16517">
        <ele>364</ele>
        <time>2024-04-17T15:48:11Z</time>
      </trkpt>
      <trkpt lat="43.20471" lon="0.16514">
        <ele>364.4</ele>
        <time>2024-04-17T15:48:12Z</time>
      </trkpt>
      <trkpt lat="43.20471" lon="0.16512">
        <ele>364.4</ele>
        <time>2024-04-17T15:48:13Z</time>
      </trkpt>
      <trkpt lat="43.20471" lon="0.16509">
        <ele>364.6</ele>
        <time>2024-04-17T15:48:14Z</time>
      </trkpt>
      <trkpt lat="43.2047" lon="0.16507">
        <ele>364.8</ele>
        <time>2024-04-17T15:48:15Z</time>
      </trkpt>
      <trkpt lat="43.2047" lon="0.16505">
        <ele>364.8</ele>
        <time>2024-04-17T15:48:16Z</time>
      </trkpt>
      <trkpt lat="43.2047" lon="0.16503">
        <ele>365</ele>
        <time>2024-04-17T15:48:17Z</time>
      </trkpt>
      <trkpt lat="43.20469" lon="0.165">
        <ele>365</ele>
        <time>2024-04-17T15:48:18Z</time>
      </trkpt>
      <trkpt lat="43.20469" lon="0.16498">
        <ele>365.2</ele>
        <time>2024-04-17T15:48:19Z</time>
      </trkpt>
      <trkpt lat="43.20469" lon="0.16496">
        <ele>365.2</ele>
        <time>2024-04-17T15:48:20Z</time>
      </trkpt>
      <trkpt lat="43.20469" lon="0.16494">
        <ele>365.4</ele>
        <time>2024-04-17T15:48:21Z</time>
      </trkpt>
      <trkpt lat="43.20469" lon="0.16492">
        <ele>365.6</ele>
        <time>2024-04-17T15:48:22Z</time>
      </trkpt>
      <trkpt lat="43.20468" lon="0.1649">
        <ele>365.6</ele>
        <time>2024-04-17T15:48:23Z</time>
      </trkpt>
      <trkpt lat="43.20468" lon="0.16488">
        <ele>365.8</ele>
        <time>2024-04-17T15:48:24Z</time>
      </trkpt>
      <trkpt lat="43.20468" lon="0.16486">
        <ele>365.8</ele>
        <time>2024-04-17T15:48:25Z</time>
      </trkpt>
      <trkpt lat="43.20468" lon="0.16483">
        <ele>366</ele>
        <time>2024-04-17T15:48:26Z</time>
      </trkpt>
      <trkpt lat="43.20468" lon="0.16481">
        <ele>366.2</ele>
        <time>2024-04-17T15:48:27Z</time>
      </trkpt>
      <trkpt lat="43.20468" lon="0.16479">
        <ele>366.4</ele>
        <time>2024-04-17T15:48:28Z</time>
      </trkpt>
      <trkpt lat="43.20468" lon="0.16477">
        <ele>366.4</ele>
        <time>2024-04-17T15:48:29Z</time>
      </trkpt>
      <trkpt lat="43.20467" lon="0.16475">
        <ele>366.8</ele>
        <time>2024-04-17T15:48:30Z</time>
      </trkpt>
      <trkpt lat="43.20467" lon="0.16473">
        <ele>366.8</ele>
        <time>2024-04-17T15:48:31Z</time>
      </trkpt>
      <trkpt lat="43.20467" lon="0.16471">
        <ele>367</ele>
        <time>2024-04-17T15:48:32Z</time>
      </trkpt>
      <trkpt lat="43.20466" lon="0.16469">
        <ele>367.2</ele>
        <time>2024-04-17T15:48:33Z</time>
      </trkpt>
      <trkpt lat="43.20466" lon="0.16467">
        <ele>367.2</ele>
        <time>2024-04-17T15:48:34Z</time>
      </trkpt>
      <trkpt lat="43.20466" lon="0.16465">
        <ele>367.4</ele>
        <time>2024-04-17T15:48:35Z</time>
      </trkpt>
      <trkpt lat="43.20465" lon="0.16463">
        <ele>367.6</ele>
        <time>2024-04-17T15:48:36Z</time>
      </trkpt>
      <trkpt lat="43.20465" lon="0.16461">
        <ele>367.8</ele>
        <time>2024-04-17T15:48:37Z</time>
      </trkpt>
      <trkpt lat="43.20465" lon="0.16459">
        <ele>367.8</ele>
        <time>2024-04-17T15:48:38Z</time>
      </trkpt>
      <trkpt lat="43.20465" lon="0.16457">
        <ele>368</ele>
        <time>2024-04-17T15:48:39Z</time>
      </trkpt>
      <trkpt lat="43.20465" lon="0.16455">
        <ele>368.2</ele>
        <time>2024-04-17T15:48:40Z</time>
      </trkpt>
      <trkpt lat="43.20464" lon="0.16453">
        <ele>368.4</ele>
        <time>2024-04-17T15:48:41Z</time>
      </trkpt>
      <trkpt lat="43.20464" lon="0.16451">
        <ele>368.4</ele>
        <time>2024-04-17T15:48:42Z</time>
      </trkpt>
      <trkpt lat="43.20463" lon="0.1645">
        <ele>368.4</ele>
        <time>2024-04-17T15:48:43Z</time>
      </trkpt>
      <trkpt lat="43.20463" lon="0.16448">
        <ele>368.6</ele>
        <time>2024-04-17T15:48:44Z</time>
      </trkpt>
      <trkpt lat="43.20463" lon="0.16446">
        <ele>368.6</ele>
        <time>2024-04-17T15:48:45Z</time>
      </trkpt>
      <trkpt lat="43.20463" lon="0.16444">
        <ele>368.8</ele>
        <time>2024-04-17T15:48:46Z</time>
      </trkpt>
      <trkpt lat="43.20462" lon="0.16442">
        <ele>368.8</ele>
        <time>2024-04-17T15:48:47Z</time>
      </trkpt>
      <trkpt lat="43.20462" lon="0.1644">
        <ele>369</ele>
        <time>2024-04-17T15:48:48Z</time>
      </trkpt>
      <trkpt lat="43.20461" lon="0.16438">
        <ele>369.2</ele>
        <time>2024-04-17T15:48:49Z</time>
      </trkpt>
      <trkpt lat="43.20461" lon="0.16436">
        <ele>369.2</ele>
        <time>2024-04-17T15:48:50Z</time>
      </trkpt>
      <trkpt lat="43.2046" lon="0.16434">
        <ele>369.6</ele>
        <time>2024-04-17T15:48:51Z</time>
      </trkpt>
      <trkpt lat="43.2046" lon="0.16432">
        <ele>369.8</ele>
        <time>2024-04-17T15:48:52Z</time>
      </trkpt>
      <trkpt lat="43.20459" lon="0.1643">
        <ele>370</ele>
        <time>2024-04-17T15:48:53Z</time>
      </trkpt>
      <trkpt lat="43.20459" lon="0.16428">
        <ele>370.4</ele>
        <time>2024-04-17T15:48:54Z</time>
      </trkpt>
      <trkpt lat="43.20458" lon="0.16427">
        <ele>370.6</ele>
        <time>2024-04-17T15:48:55Z</time>
      </trkpt>
      <trkpt lat="43.20457" lon="0.16425">
        <ele>370.8</ele>
        <time>2024-04-17T15:48:56Z</time>
      </trkpt>
      <trkpt lat="43.20456" lon="0.16423">
        <ele>371</ele>
        <time>2024-04-17T15:48:57Z</time>
      </trkpt>
      <trkpt lat="43.20456" lon="0.16421">
        <ele>371.2</ele>
        <time>2024-04-17T15:48:58Z</time>
      </trkpt>
      <trkpt lat="43.20456" lon="0.16419">
        <ele>371.2</ele>
        <time>2024-04-17T15:48:59Z</time>
      </trkpt>
      <trkpt lat="43.20456" lon="0.16417">
        <ele>371.4</ele>
        <time>2024-04-17T15:49:00Z</time>
      </trkpt>
      <trkpt lat="43.20455" lon="0.16415">
        <ele>371.6</ele>
        <time>2024-04-17T15:49:01Z</time>
      </trkpt>
      <trkpt lat="43.20454" lon="0.16412">
        <ele>371.8</ele>
        <time>2024-04-17T15:49:02Z</time>
      </trkpt>
      <trkpt lat="43.20454" lon="0.1641">
        <ele>372</ele>
        <time>2024-04-17T15:49:03Z</time>
      </trkpt>
      <trkpt lat="43.20453" lon="0.16408">
        <ele>372.2</ele>
        <time>2024-04-17T15:49:04Z</time>
      </trkpt>
      <trkpt lat="43.20453" lon="0.16406">
        <ele>372.4</ele>
        <time>2024-04-17T15:49:05Z</time>
      </trkpt>
      <trkpt lat="43.20452" lon="0.16404">
        <ele>372.6</ele>
        <time>2024-04-17T15:49:06Z</time>
      </trkpt>
      <trkpt lat="43.20452" lon="0.16402">
        <ele>372.6</ele>
        <time>2024-04-17T15:49:07Z</time>
      </trkpt>
      <trkpt lat="43.20452" lon="0.164">
        <ele>372.8</ele>
        <time>2024-04-17T15:49:08Z</time>
      </trkpt>
      <trkpt lat="43.20451" lon="0.16398">
        <ele>373</ele>
        <time>2024-04-17T15:49:09Z</time>
      </trkpt>
      <trkpt lat="43.20451" lon="0.16396">
        <ele>373</ele>
        <time>2024-04-17T15:49:10Z</time>
      </trkpt>
      <trkpt lat="43.20451" lon="0.16393">
        <ele>373.2</ele>
        <time>2024-04-17T15:49:11Z</time>
      </trkpt>
      <trkpt lat="43.2045" lon="0.16391">
        <ele>373.4</ele>
        <time>2024-04-17T15:49:12Z</time>
      </trkpt>
      <trkpt lat="43.2045" lon="0.16389">
        <ele>373.4</ele>
        <time>2024-04-17T15:49:13Z</time>
      </trkpt>
      <trkpt lat="43.2045" lon="0.16387">
        <ele>373.6</ele>
        <time>2024-04-17T15:49:14Z</time>
      </trkpt>
      <trkpt lat="43.2045" lon="0.16385">
        <ele>373.6</ele>
        <time>2024-04-17T15:49:15Z</time>
      </trkpt>
      <trkpt lat="43.2045" lon="0.16383">
        <ele>373.8</ele>
        <time>2024-04-17T15:49:16Z</time>
      </trkpt>
      <trkpt lat="43.2045" lon="0.16381">
        <ele>374</ele>
        <time>2024-04-17T15:49:17Z</time>
      </trkpt>
      <trkpt lat="43.2045" lon="0.16378">
        <ele>374.2</ele>
        <time>2024-04-17T15:49:18Z</time>
      </trkpt>
      <trkpt lat="43.20449" lon="0.16376">
        <ele>374.4</ele>
        <time>2024-04-17T15:49:19Z</time>
      </trkpt>
      <trkpt lat="43.20449" lon="0.16375">
        <ele>374.6</ele>
        <time>2024-04-17T15:49:20Z</time>
      </trkpt>
      <trkpt lat="43.20449" lon="0.16373">
        <ele>374.6</ele>
        <time>2024-04-17T15:49:21Z</time>
      </trkpt>
      <trkpt lat="43.20449" lon="0.16371">
        <ele>374.6</ele>
        <time>2024-04-17T15:49:22Z</time>
      </trkpt>
      <trkpt lat="43.20448" lon="0.16369">
        <ele>374.8</ele>
        <time>2024-04-17T15:49:23Z</time>
      </trkpt>
      <trkpt lat="43.20448" lon="0.16367">
        <ele>375</ele>
        <time>2024-04-17T15:49:24Z</time>
      </trkpt>
      <trkpt lat="43.20448" lon="0.16364">
        <ele>375</ele>
        <time>2024-04-17T15:49:25Z</time>
      </trkpt>
      <trkpt lat="43.20448" lon="0.16362">
        <ele>375.2</ele>
        <time>2024-04-17T15:49:26Z</time>
      </trkpt>
      <trkpt lat="43.20448" lon="0.16361">
        <ele>375.4</ele>
        <time>2024-04-17T15:49:27Z</time>
      </trkpt>
      <trkpt lat="43.20448" lon="0.16359">
        <ele>375.6</ele>
        <time>2024-04-17T15:49:28Z</time>
      </trkpt>
      <trkpt lat="43.20449" lon="0.16357">
        <ele>375.8</ele>
        <time>2024-04-17T15:49:29Z</time>
      </trkpt>
      <trkpt lat="43.20448" lon="0.16355">
        <ele>376</ele>
        <time>2024-04-17T15:49:30Z</time>
      </trkpt>
      <trkpt lat="43.20449" lon="0.16353">
        <ele>376</ele>
        <time>2024-04-17T15:49:31Z</time>
      </trkpt>
      <trkpt lat="43.20449" lon="0.16351">
        <ele>376.4</ele>
        <time>2024-04-17T15:49:32Z</time>
      </trkpt>
      <trkpt lat="43.20449" lon="0.16349">
        <ele>376.4</ele>
        <time>2024-04-17T15:49:33Z</time>
      </trkpt>
      <trkpt lat="43.20449" lon="0.16347">
        <ele>376.6</ele>
        <time>2024-04-17T15:49:34Z</time>
      </trkpt>
      <trkpt lat="43.20449" lon="0.16345">
        <ele>377</ele>
        <time>2024-04-17T15:49:35Z</time>
      </trkpt>
      <trkpt lat="43.20449" lon="0.16344">
        <ele>377.2</ele>
        <time>2024-04-17T15:49:36Z</time>
      </trkpt>
      <trkpt lat="43.20449" lon="0.16341">
        <ele>377</ele>
        <time>2024-04-17T15:49:37Z</time>
      </trkpt>
      <trkpt lat="43.20449" lon="0.16339">
        <ele>377.2</ele>
        <time>2024-04-17T15:49:38Z</time>
      </trkpt>
      <trkpt lat="43.20449" lon="0.16338">
        <ele>377.6</ele>
        <time>2024-04-17T15:49:39Z</time>
      </trkpt>
      <trkpt lat="43.20449" lon="0.16336">
        <ele>377.6</ele>
        <time>2024-04-17T15:49:40Z</time>
      </trkpt>
      <trkpt lat="43.20449" lon="0.16334">
        <ele>377.8</ele>
        <time>2024-04-17T15:49:41Z</time>
      </trkpt>
      <trkpt lat="43.20449" lon="0.16332">
        <ele>378</ele>
        <time>2024-04-17T15:49:42Z</time>
      </trkpt>
      <trkpt lat="43.20449" lon="0.16329">
        <ele>378.2</ele>
        <time>2024-04-17T15:49:43Z</time>
      </trkpt>
      <trkpt lat="43.20449" lon="0.16327">
        <ele>378.4</ele>
        <time>2024-04-17T15:49:44Z</time>
      </trkpt>
      <trkpt lat="43.20449" lon="0.16325">
        <ele>378.6</ele>
        <time>2024-04-17T15:49:45Z</time>
      </trkpt>
      <trkpt lat="43.20449" lon="0.16322">
        <ele>379</ele>
        <time>2024-04-17T15:49:46Z</time>
      </trkpt>
      <trkpt lat="43.20449" lon="0.1632">
        <ele>379</ele>
        <time>2024-04-17T15:49:47Z</time>
      </trkpt>
      <trkpt lat="43.20449" lon="0.16318">
        <ele>379.2</ele>
        <time>2024-04-17T15:49:48Z</time>
      </trkpt>
      <trkpt lat="43.20449" lon="0.16316">
        <ele>379.2</ele>
        <time>2024-04-17T15:49:49Z</time>
      </trkpt>
      <trkpt lat="43.2045" lon="0.16314">
        <ele>379.4</ele>
        <time>2024-04-17T15:49:50Z</time>
      </trkpt>
      <trkpt lat="43.2045" lon="0.16312">
        <ele>379.4</ele>
        <time>2024-04-17T15:49:51Z</time>
      </trkpt>
      <trkpt lat="43.2045" lon="0.1631">
        <ele>379.4</ele>
        <time>2024-04-17T15:49:52Z</time>
      </trkpt>
      <trkpt lat="43.20451" lon="0.16308">
        <ele>379.8</ele>
        <time>2024-04-17T15:49:53Z</time>
      </trkpt>
      <trkpt lat="43.20451" lon="0.16306">
        <ele>379.8</ele>
        <time>2024-04-17T15:49:54Z</time>
      </trkpt>
      <trkpt lat="43.20451" lon="0.16303">
        <ele>380</ele>
        <time>2024-04-17T15:49:55Z</time>
      </trkpt>
      <trkpt lat="43.20451" lon="0.16301">
        <ele>380.2</ele>
        <time>2024-04-17T15:49:56Z</time>
      </trkpt>
      <trkpt lat="43.20452" lon="0.16299">
        <ele>380.2</ele>
        <time>2024-04-17T15:49:57Z</time>
      </trkpt>
      <trkpt lat="43.20452" lon="0.16297">
        <ele>380.4</ele>
        <time>2024-04-17T15:49:58Z</time>
      </trkpt>
      <trkpt lat="43.20453" lon="0.16295">
        <ele>380.6</ele>
        <time>2024-04-17T15:49:59Z</time>
      </trkpt>
      <trkpt lat="43.20454" lon="0.16292">
        <ele>380.6</ele>
        <time>2024-04-17T15:50:00Z</time>
      </trkpt>
      <trkpt lat="43.20454" lon="0.1629">
        <ele>380.8</ele>
        <time>2024-04-17T15:50:01Z</time>
      </trkpt>
      <trkpt lat="43.20455" lon="0.16288">
        <ele>381</ele>
        <time>2024-04-17T15:50:02Z</time>
      </trkpt>
      <trkpt lat="43.20456" lon="0.16286">
        <ele>381.2</ele>
        <time>2024-04-17T15:50:03Z</time>
      </trkpt>
      <trkpt lat="43.20456" lon="0.16284">
        <ele>381.2</ele>
        <time>2024-04-17T15:50:04Z</time>
      </trkpt>
      <trkpt lat="43.20457" lon="0.16283">
        <ele>381.4</ele>
        <time>2024-04-17T15:50:05Z</time>
      </trkpt>
      <trkpt lat="43.20459" lon="0.16281">
        <ele>381.4</ele>
        <time>2024-04-17T15:50:06Z</time>
      </trkpt>
      <trkpt lat="43.2046" lon="0.16279">
        <ele>381.6</ele>
        <time>2024-04-17T15:50:07Z</time>
      </trkpt>
      <trkpt lat="43.20461" lon="0.16277">
        <ele>381.8</ele>
        <time>2024-04-17T15:50:08Z</time>
      </trkpt>
      <trkpt lat="43.20461" lon="0.16275">
        <ele>381.8</ele>
        <time>2024-04-17T15:50:09Z</time>
      </trkpt>
      <trkpt lat="43.20462" lon="0.16274">
        <ele>382.2</ele>
        <time>2024-04-17T15:50:10Z</time>
      </trkpt>
      <trkpt lat="43.20463" lon="0.16272">
        <ele>382.2</ele>
        <time>2024-04-17T15:50:11Z</time>
      </trkpt>
      <trkpt lat="43.20464" lon="0.1627">
        <ele>382.4</ele>
        <time>2024-04-17T15:50:12Z</time>
      </trkpt>
      <trkpt lat="43.20465" lon="0.16268">
        <ele>382.6</ele>
        <time>2024-04-17T15:50:13Z</time>
      </trkpt>
      <trkpt lat="43.20466" lon="0.16266">
        <ele>382.8</ele>
        <time>2024-04-17T15:50:14Z</time>
      </trkpt>
      <trkpt lat="43.20467" lon="0.16264">
        <ele>383</ele>
        <time>2024-04-17T15:50:15Z</time>
      </trkpt>
      <trkpt lat="43.20469" lon="0.16262">
        <ele>383.2</ele>
        <time>2024-04-17T15:50:16Z</time>
      </trkpt>
      <trkpt lat="43.2047" lon="0.16261">
        <ele>383.4</ele>
        <time>2024-04-17T15:50:17Z</time>
      </trkpt>
      <trkpt lat="43.20471" lon="0.16258">
        <ele>383.6</ele>
        <time>2024-04-17T15:50:18Z</time>
      </trkpt>
      <trkpt lat="43.20472" lon="0.16256">
        <ele>383.6</ele>
        <time>2024-04-17T15:50:19Z</time>
      </trkpt>
      <trkpt lat="43.20472" lon="0.16254">
        <ele>383.6</ele>
        <time>2024-04-17T15:50:20Z</time>
      </trkpt>
      <trkpt lat="43.20473" lon="0.16251">
        <ele>383.6</ele>
        <time>2024-04-17T15:50:21Z</time>
      </trkpt>
      <trkpt lat="43.20473" lon="0.16249">
        <ele>383.8</ele>
        <time>2024-04-17T15:50:22Z</time>
      </trkpt>
      <trkpt lat="43.20473" lon="0.16247">
        <ele>383.8</ele>
        <time>2024-04-17T15:50:23Z</time>
      </trkpt>
      <trkpt lat="43.20473" lon="0.16244">
        <ele>384</ele>
        <time>2024-04-17T15:50:24Z</time>
      </trkpt>
      <trkpt lat="43.20472" lon="0.16242">
        <ele>384</ele>
        <time>2024-04-17T15:50:25Z</time>
      </trkpt>
      <trkpt lat="43.20473" lon="0.1624">
        <ele>384.2</ele>
        <time>2024-04-17T15:50:26Z</time>
      </trkpt>
      <trkpt lat="43.20473" lon="0.16238">
        <ele>384.4</ele>
        <time>2024-04-17T15:50:27Z</time>
      </trkpt>
      <trkpt lat="43.20472" lon="0.16235">
        <ele>384.4</ele>
        <time>2024-04-17T15:50:28Z</time>
      </trkpt>
      <trkpt lat="43.20472" lon="0.16233">
        <ele>384.6</ele>
        <time>2024-04-17T15:50:29Z</time>
      </trkpt>
      <trkpt lat="43.20472" lon="0.16231">
        <ele>384.8</ele>
        <time>2024-04-17T15:50:30Z</time>
      </trkpt>
      <trkpt lat="43.20472" lon="0.16228">
        <ele>384.8</ele>
        <time>2024-04-17T15:50:31Z</time>
      </trkpt>
      <trkpt lat="43.20472" lon="0.16226">
        <ele>384.8</ele>
        <time>2024-04-17T15:50:32Z</time>
      </trkpt>
      <trkpt lat="43.20472" lon="0.16223">
        <ele>385</ele>
        <time>2024-04-17T15:50:33Z</time>
      </trkpt>
      <trkpt lat="43.20471" lon="0.16221">
        <ele>385</ele>
        <time>2024-04-17T15:50:34Z</time>
      </trkpt>
      <trkpt lat="43.20471" lon="0.16218">
        <ele>385.2</ele>
        <time>2024-04-17T15:50:35Z</time>
      </trkpt>
      <trkpt lat="43.20471" lon="0.16215">
        <ele>385.4</ele>
        <time>2024-04-17T15:50:36Z</time>
      </trkpt>
      <trkpt lat="43.20471" lon="0.16213">
        <ele>385.6</ele>
        <time>2024-04-17T15:50:37Z</time>
      </trkpt>
      <trkpt lat="43.2047" lon="0.1621">
        <ele>385.8</ele>
        <time>2024-04-17T15:50:38Z</time>
      </trkpt>
      <trkpt lat="43.2047" lon="0.16208">
        <ele>385.8</ele>
        <time>2024-04-17T15:50:39Z</time>
      </trkpt>
      <trkpt lat="43.2047" lon="0.16205">
        <ele>386</ele>
        <time>2024-04-17T15:50:40Z</time>
      </trkpt>
      <trkpt lat="43.2047" lon="0.16203">
        <ele>386</ele>
        <time>2024-04-17T15:50:41Z</time>
      </trkpt>
      <trkpt lat="43.2047" lon="0.162">
        <ele>386.2</ele>
        <time>2024-04-17T15:50:42Z</time>
      </trkpt>
      <trkpt lat="43.2047" lon="0.16197">
        <ele>386.4</ele>
        <time>2024-04-17T15:50:43Z</time>
      </trkpt>
      <trkpt lat="43.2047" lon="0.16194">
        <ele>386.4</ele>
        <time>2024-04-17T15:50:44Z</time>
      </trkpt>
      <trkpt lat="43.20469" lon="0.16192">
        <ele>386.6</ele>
        <time>2024-04-17T15:50:45Z</time>
      </trkpt>
      <trkpt lat="43.20469" lon="0.16189">
        <ele>386.6</ele>
        <time>2024-04-17T15:50:46Z</time>
      </trkpt>
      <trkpt lat="43.20469" lon="0.16187">
        <ele>386.8</ele>
        <time>2024-04-17T15:50:47Z</time>
      </trkpt>
      <trkpt lat="43.20469" lon="0.16184">
        <ele>386.8</ele>
        <time>2024-04-17T15:50:48Z</time>
      </trkpt>
      <trkpt lat="43.20469" lon="0.16181">
        <ele>387</ele>
        <time>2024-04-17T15:50:49Z</time>
      </trkpt>
      <trkpt lat="43.20469" lon="0.16179">
        <ele>387</ele>
        <time>2024-04-17T15:50:50Z</time>
      </trkpt>
      <trkpt lat="43.20469" lon="0.16176">
        <ele>387</ele>
        <time>2024-04-17T15:50:51Z</time>
      </trkpt>
      <trkpt lat="43.20469" lon="0.16173">
        <ele>387.2</ele>
        <time>2024-04-17T15:50:52Z</time>
      </trkpt>
      <trkpt lat="43.20469" lon="0.1617">
        <ele>387.2</ele>
        <time>2024-04-17T15:50:53Z</time>
      </trkpt>
      <trkpt lat="43.20468" lon="0.16168">
        <ele>387.2</ele>
        <time>2024-04-17T15:50:54Z</time>
      </trkpt>
      <trkpt lat="43.20468" lon="0.16165">
        <ele>387.4</ele>
        <time>2024-04-17T15:50:55Z</time>
      </trkpt>
      <trkpt lat="43.20468" lon="0.16162">
        <ele>387.4</ele>
        <time>2024-04-17T15:50:56Z</time>
      </trkpt>
      <trkpt lat="43.20468" lon="0.1616">
        <ele>387.4</ele>
        <time>2024-04-17T15:50:57Z</time>
      </trkpt>
      <trkpt lat="43.20468" lon="0.16157">
        <ele>387.6</ele>
        <time>2024-04-17T15:50:58Z</time>
      </trkpt>
      <trkpt lat="43.20468" lon="0.16154">
        <ele>387.6</ele>
        <time>2024-04-17T15:50:59Z</time>
      </trkpt>
      <trkpt lat="43.20468" lon="0.16152">
        <ele>387.6</ele>
        <time>2024-04-17T15:51:00Z</time>
      </trkpt>
      <trkpt lat="43.20467" lon="0.16149">
        <ele>387.8</ele>
        <time>2024-04-17T15:51:01Z</time>
      </trkpt>
      <trkpt lat="43.20467" lon="0.16146">
        <ele>387.8</ele>
        <time>2024-04-17T15:51:02Z</time>
      </trkpt>
      <trkpt lat="43.20467" lon="0.16144">
        <ele>387.8</ele>
        <time>2024-04-17T15:51:03Z</time>
      </trkpt>
      <trkpt lat="43.20467" lon="0.16141">
        <ele>388</ele>
        <time>2024-04-17T15:51:04Z</time>
      </trkpt>
      <trkpt lat="43.20467" lon="0.16138">
        <ele>388</ele>
        <time>2024-04-17T15:51:05Z</time>
      </trkpt>
      <trkpt lat="43.20467" lon="0.16135">
        <ele>388</ele>
        <time>2024-04-17T15:51:06Z</time>
      </trkpt>
      <trkpt lat="43.20467" lon="0.16133">
        <ele>388.2</ele>
        <time>2024-04-17T15:51:07Z</time>
      </trkpt>
      <trkpt lat="43.20467" lon="0.1613">
        <ele>388.4</ele>
        <time>2024-04-17T15:51:08Z</time>
      </trkpt>
      <trkpt lat="43.20466" lon="0.16127">
        <ele>388.4</ele>
        <time>2024-04-17T15:51:09Z</time>
      </trkpt>
      <trkpt lat="43.20466" lon="0.16124">
        <ele>388.6</ele>
        <time>2024-04-17T15:51:10Z</time>
      </trkpt>
      <trkpt lat="43.20466" lon="0.16121">
        <ele>388.8</ele>
        <time>2024-04-17T15:51:11Z</time>
      </trkpt>
      <trkpt lat="43.20466" lon="0.16119">
        <ele>388.8</ele>
        <time>2024-04-17T15:51:12Z</time>
      </trkpt>
      <trkpt lat="43.20466" lon="0.16116">
        <ele>389</ele>
        <time>2024-04-17T15:51:13Z</time>
      </trkpt>
      <trkpt lat="43.20466" lon="0.16113">
        <ele>389</ele>
        <time>2024-04-17T15:51:14Z</time>
      </trkpt>
      <trkpt lat="43.20465" lon="0.1611">
        <ele>389.2</ele>
        <time>2024-04-17T15:51:15Z</time>
      </trkpt>
      <trkpt lat="43.20465" lon="0.16108">
        <ele>389.2</ele>
        <time>2024-04-17T15:51:16Z</time>
      </trkpt>
      <trkpt lat="43.20465" lon="0.16105">
        <ele>389.4</ele>
        <time>2024-04-17T15:51:17Z</time>
      </trkpt>
      <trkpt lat="43.20465" lon="0.16102">
        <ele>389.4</ele>
        <time>2024-04-17T15:51:18Z</time>
      </trkpt>
      <trkpt lat="43.20465" lon="0.161">
        <ele>389.4</ele>
        <time>2024-04-17T15:51:19Z</time>
      </trkpt>
      <trkpt lat="43.20465" lon="0.16097">
        <ele>389.6</ele>
        <time>2024-04-17T15:51:20Z</time>
      </trkpt>
      <trkpt lat="43.20465" lon="0.16095">
        <ele>389.6</ele>
        <time>2024-04-17T15:51:21Z</time>
      </trkpt>
      <trkpt lat="43.20464" lon="0.16093">
        <ele>389.6</ele>
        <time>2024-04-17T15:51:22Z</time>
      </trkpt>
      <trkpt lat="43.20464" lon="0.1609">
        <ele>390</ele>
        <time>2024-04-17T15:51:23Z</time>
      </trkpt>
      <trkpt lat="43.20464" lon="0.16088">
        <ele>390.4</ele>
        <time>2024-04-17T15:51:24Z</time>
      </trkpt>
      <trkpt lat="43.20464" lon="0.16086">
        <ele>390.4</ele>
        <time>2024-04-17T15:51:25Z</time>
      </trkpt>
      <trkpt lat="43.20464" lon="0.16084">
        <ele>390.6</ele>
        <time>2024-04-17T15:51:26Z</time>
      </trkpt>
      <trkpt lat="43.20464" lon="0.16082">
        <ele>390.8</ele>
        <time>2024-04-17T15:51:27Z</time>
      </trkpt>
      <trkpt lat="43.20464" lon="0.1608">
        <ele>390.8</ele>
        <time>2024-04-17T15:51:28Z</time>
      </trkpt>
      <trkpt lat="43.20463" lon="0.16078">
        <ele>391</ele>
        <time>2024-04-17T15:51:29Z</time>
      </trkpt>
      <trkpt lat="43.20463" lon="0.16076">
        <ele>391</ele>
        <time>2024-04-17T15:51:30Z</time>
      </trkpt>
      <trkpt lat="43.20463" lon="0.16074">
        <ele>391.2</ele>
        <time>2024-04-17T15:51:31Z</time>
      </trkpt>
      <trkpt lat="43.20463" lon="0.16072">
        <ele>391.2</ele>
        <time>2024-04-17T15:51:32Z</time>
      </trkpt>
      <trkpt lat="43.20463" lon="0.1607">
        <ele>391.2</ele>
        <time>2024-04-17T15:51:33Z</time>
      </trkpt>
      <trkpt lat="43.20463" lon="0.16067">
        <ele>391.4</ele>
        <time>2024-04-17T15:51:34Z</time>
      </trkpt>
      <trkpt lat="43.20463" lon="0.16065">
        <ele>391.4</ele>
        <time>2024-04-17T15:51:35Z</time>
      </trkpt>
      <trkpt lat="43.20463" lon="0.16063">
        <ele>391.6</ele>
        <time>2024-04-17T15:51:36Z</time>
      </trkpt>
      <trkpt lat="43.20463" lon="0.16061">
        <ele>391.6</ele>
        <time>2024-04-17T15:51:37Z</time>
      </trkpt>
      <trkpt lat="43.20464" lon="0.16059">
        <ele>391.6</ele>
        <time>2024-04-17T15:51:38Z</time>
      </trkpt>
      <trkpt lat="43.20463" lon="0.16056">
        <ele>391.8</ele>
        <time>2024-04-17T15:51:39Z</time>
      </trkpt>
      <trkpt lat="43.20463" lon="0.16054">
        <ele>392</ele>
        <time>2024-04-17T15:51:40Z</time>
      </trkpt>
      <trkpt lat="43.20463" lon="0.16052">
        <ele>392</ele>
        <time>2024-04-17T15:51:41Z</time>
      </trkpt>
      <trkpt lat="43.20462" lon="0.1605">
        <ele>392.2</ele>
        <time>2024-04-17T15:51:42Z</time>
      </trkpt>
      <trkpt lat="43.20462" lon="0.16047">
        <ele>392.4</ele>
        <time>2024-04-17T15:51:43Z</time>
      </trkpt>
      <trkpt lat="43.20462" lon="0.16045">
        <ele>392.6</ele>
        <time>2024-04-17T15:51:44Z</time>
      </trkpt>
      <trkpt lat="43.20462" lon="0.16043">
        <ele>392.8</ele>
        <time>2024-04-17T15:51:45Z</time>
      </trkpt>
      <trkpt lat="43.20462" lon="0.16041">
        <ele>392.8</ele>
        <time>2024-04-17T15:51:46Z</time>
      </trkpt>
      <trkpt lat="43.20461" lon="0.16038">
        <ele>392.8</ele>
        <time>2024-04-17T15:51:47Z</time>
      </trkpt>
      <trkpt lat="43.20461" lon="0.16036">
        <ele>393</ele>
        <time>2024-04-17T15:51:48Z</time>
      </trkpt>
      <trkpt lat="43.20461" lon="0.16033">
        <ele>393</ele>
        <time>2024-04-17T15:51:49Z</time>
      </trkpt>
      <trkpt lat="43.20461" lon="0.16031">
        <ele>393.2</ele>
        <time>2024-04-17T15:51:50Z</time>
      </trkpt>
      <trkpt lat="43.20461" lon="0.16029">
        <ele>393.4</ele>
        <time>2024-04-17T15:51:51Z</time>
      </trkpt>
      <trkpt lat="43.20461" lon="0.16026">
        <ele>393.6</ele>
        <time>2024-04-17T15:51:52Z</time>
      </trkpt>
      <trkpt lat="43.20461" lon="0.16023">
        <ele>393.8</ele>
        <time>2024-04-17T15:51:53Z</time>
      </trkpt>
      <trkpt lat="43.2046" lon="0.16021">
        <ele>394</ele>
        <time>2024-04-17T15:51:54Z</time>
      </trkpt>
      <trkpt lat="43.2046" lon="0.16019">
        <ele>394.2</ele>
        <time>2024-04-17T15:51:55Z</time>
      </trkpt>
      <trkpt lat="43.2046" lon="0.16016">
        <ele>394.2</ele>
        <time>2024-04-17T15:51:56Z</time>
      </trkpt>
      <trkpt lat="43.2046" lon="0.16014">
        <ele>394.4</ele>
        <time>2024-04-17T15:51:57Z</time>
      </trkpt>
      <trkpt lat="43.2046" lon="0.16011">
        <ele>394.6</ele>
        <time>2024-04-17T15:51:58Z</time>
      </trkpt>
      <trkpt lat="43.20459" lon="0.16009">
        <ele>394.6</ele>
        <time>2024-04-17T15:51:59Z</time>
      </trkpt>
      <trkpt lat="43.20459" lon="0.16007">
        <ele>394.8</ele>
        <time>2024-04-17T15:52:00Z</time>
      </trkpt>
      <trkpt lat="43.20459" lon="0.16004">
        <ele>394.8</ele>
        <time>2024-04-17T15:52:01Z</time>
      </trkpt>
      <trkpt lat="43.20459" lon="0.16001">
        <ele>395</ele>
        <time>2024-04-17T15:52:02Z</time>
      </trkpt>
      <trkpt lat="43.20458" lon="0.15999">
        <ele>395.2</ele>
        <time>2024-04-17T15:52:03Z</time>
      </trkpt>
      <trkpt lat="43.20458" lon="0.15996">
        <ele>395.2</ele>
        <time>2024-04-17T15:52:04Z</time>
      </trkpt>
      <trkpt lat="43.20458" lon="0.15994">
        <ele>395.4</ele>
        <time>2024-04-17T15:52:05Z</time>
      </trkpt>
      <trkpt lat="43.20458" lon="0.15991">
        <ele>395.4</ele>
        <time>2024-04-17T15:52:06Z</time>
      </trkpt>
      <trkpt lat="43.20458" lon="0.15988">
        <ele>395.6</ele>
        <time>2024-04-17T15:52:07Z</time>
      </trkpt>
      <trkpt lat="43.20458" lon="0.15986">
        <ele>395.6</ele>
        <time>2024-04-17T15:52:08Z</time>
      </trkpt>
      <trkpt lat="43.20458" lon="0.15983">
        <ele>395.8</ele>
        <time>2024-04-17T15:52:09Z</time>
      </trkpt>
      <trkpt lat="43.20458" lon="0.15981">
        <ele>396</ele>
        <time>2024-04-17T15:52:10Z</time>
      </trkpt>
      <trkpt lat="43.20458" lon="0.15978">
        <ele>396</ele>
        <time>2024-04-17T15:52:11Z</time>
      </trkpt>
      <trkpt lat="43.20457" lon="0.15975">
        <ele>396</ele>
        <time>2024-04-17T15:52:12Z</time>
      </trkpt>
      <trkpt lat="43.20457" lon="0.15972">
        <ele>396.2</ele>
        <time>2024-04-17T15:52:13Z</time>
      </trkpt>
      <trkpt lat="43.20457" lon="0.1597">
        <ele>396.4</ele>
        <time>2024-04-17T15:52:14Z</time>
      </trkpt>
      <trkpt lat="43.20458" lon="0.15968">
        <ele>396.6</ele>
        <time>2024-04-17T15:52:15Z</time>
      </trkpt>
      <trkpt lat="43.20458" lon="0.15965">
        <ele>396.6</ele>
        <time>2024-04-17T15:52:16Z</time>
      </trkpt>
      <trkpt lat="43.20458" lon="0.15962">
        <ele>396.8</ele>
        <time>2024-04-17T15:52:17Z</time>
      </trkpt>
      <trkpt lat="43.20457" lon="0.1596">
        <ele>397</ele>
        <time>2024-04-17T15:52:18Z</time>
      </trkpt>
      <trkpt lat="43.20458" lon="0.15957">
        <ele>397</ele>
        <time>2024-04-17T15:52:19Z</time>
      </trkpt>
      <trkpt lat="43.20458" lon="0.15954">
        <ele>397.4</ele>
        <time>2024-04-17T15:52:20Z</time>
      </trkpt>
      <trkpt lat="43.20458" lon="0.15952">
        <ele>397.4</ele>
        <time>2024-04-17T15:52:21Z</time>
      </trkpt>
      <trkpt lat="43.20458" lon="0.15949">
        <ele>397.6</ele>
        <time>2024-04-17T15:52:22Z</time>
      </trkpt>
      <trkpt lat="43.20457" lon="0.15947">
        <ele>397.8</ele>
        <time>2024-04-17T15:52:23Z</time>
      </trkpt>
      <trkpt lat="43.20457" lon="0.15944">
        <ele>397.8</ele>
        <time>2024-04-17T15:52:24Z</time>
      </trkpt>
      <trkpt lat="43.20457" lon="0.15941">
        <ele>398</ele>
        <time>2024-04-17T15:52:25Z</time>
      </trkpt>
      <trkpt lat="43.20457" lon="0.15939">
        <ele>398</ele>
        <time>2024-04-17T15:52:26Z</time>
      </trkpt>
      <trkpt lat="43.20457" lon="0.15936">
        <ele>398.2</ele>
        <time>2024-04-17T15:52:27Z</time>
      </trkpt>
      <trkpt lat="43.20457" lon="0.15932">
        <ele>398.2</ele>
        <time>2024-04-17T15:52:28Z</time>
      </trkpt>
      <trkpt lat="43.20457" lon="0.1593">
        <ele>398.2</ele>
        <time>2024-04-17T15:52:29Z</time>
      </trkpt>
      <trkpt lat="43.20457" lon="0.15927">
        <ele>398.4</ele>
        <time>2024-04-17T15:52:30Z</time>
      </trkpt>
      <trkpt lat="43.20457" lon="0.15924">
        <ele>398.4</ele>
        <time>2024-04-17T15:52:31Z</time>
      </trkpt>
      <trkpt lat="43.20456" lon="0.15921">
        <ele>398.6</ele>
        <time>2024-04-17T15:52:32Z</time>
      </trkpt>
      <trkpt lat="43.20456" lon="0.15918">
        <ele>398.6</ele>
        <time>2024-04-17T15:52:33Z</time>
      </trkpt>
      <trkpt lat="43.20456" lon="0.15915">
        <ele>398.8</ele>
        <time>2024-04-17T15:52:34Z</time>
      </trkpt>
      <trkpt lat="43.20456" lon="0.15913">
        <ele>398.8</ele>
        <time>2024-04-17T15:52:35Z</time>
      </trkpt>
      <trkpt lat="43.20456" lon="0.1591">
        <ele>398.8</ele>
        <time>2024-04-17T15:52:36Z</time>
      </trkpt>
      <trkpt lat="43.20456" lon="0.15908">
        <ele>398.8</ele>
        <time>2024-04-17T15:52:37Z</time>
      </trkpt>
      <trkpt lat="43.20456" lon="0.15905">
        <ele>398.8</ele>
        <time>2024-04-17T15:52:38Z</time>
      </trkpt>
      <trkpt lat="43.20456" lon="0.15903">
        <ele>399</ele>
        <time>2024-04-17T15:52:39Z</time>
      </trkpt>
      <trkpt lat="43.20456" lon="0.159">
        <ele>399</ele>
        <time>2024-04-17T15:52:40Z</time>
      </trkpt>
      <trkpt lat="43.20456" lon="0.15898">
        <ele>399</ele>
        <time>2024-04-17T15:52:41Z</time>
      </trkpt>
      <trkpt lat="43.20456" lon="0.15895">
        <ele>399.2</ele>
        <time>2024-04-17T15:52:42Z</time>
      </trkpt>
      <trkpt lat="43.20456" lon="0.15893">
        <ele>399.4</ele>
        <time>2024-04-17T15:52:43Z</time>
      </trkpt>
      <trkpt lat="43.20456" lon="0.1589">
        <ele>399.4</ele>
        <time>2024-04-17T15:52:44Z</time>
      </trkpt>
      <trkpt lat="43.20456" lon="0.15888">
        <ele>399.8</ele>
        <time>2024-04-17T15:52:45Z</time>
      </trkpt>
      <trkpt lat="43.20457" lon="0.15886">
        <ele>400</ele>
        <time>2024-04-17T15:52:46Z</time>
      </trkpt>
      <trkpt lat="43.20457" lon="0.15883">
        <ele>400.4</ele>
        <time>2024-04-17T15:52:47Z</time>
      </trkpt>
      <trkpt lat="43.20457" lon="0.15881">
        <ele>400.4</ele>
        <time>2024-04-17T15:52:48Z</time>
      </trkpt>
      <trkpt lat="43.20457" lon="0.15879">
        <ele>400.6</ele>
        <time>2024-04-17T15:52:49Z</time>
      </trkpt>
      <trkpt lat="43.20457" lon="0.15876">
        <ele>400.6</ele>
        <time>2024-04-17T15:52:50Z</time>
      </trkpt>
      <trkpt lat="43.20457" lon="0.15874">
        <ele>400.6</ele>
        <time>2024-04-17T15:52:51Z</time>
      </trkpt>
      <trkpt lat="43.20457" lon="0.15871">
        <ele>400.8</ele>
        <time>2024-04-17T15:52:52Z</time>
      </trkpt>
      <trkpt lat="43.20457" lon="0.15869">
        <ele>400.8</ele>
        <time>2024-04-17T15:52:53Z</time>
      </trkpt>
      <trkpt lat="43.20456" lon="0.15866">
        <ele>400.8</ele>
        <time>2024-04-17T15:52:54Z</time>
      </trkpt>
      <trkpt lat="43.20456" lon="0.15863">
        <ele>400.8</ele>
        <time>2024-04-17T15:52:55Z</time>
      </trkpt>
      <trkpt lat="43.20455" lon="0.15861">
        <ele>400.8</ele>
        <time>2024-04-17T15:52:56Z</time>
      </trkpt>
      <trkpt lat="43.20455" lon="0.15858">
        <ele>400.8</ele>
        <time>2024-04-17T15:52:57Z</time>
      </trkpt>
      <trkpt lat="43.20455" lon="0.15856">
        <ele>401</ele>
        <time>2024-04-17T15:52:58Z</time>
      </trkpt>
      <trkpt lat="43.20455" lon="0.15853">
        <ele>401.2</ele>
        <time>2024-04-17T15:52:59Z</time>
      </trkpt>
      <trkpt lat="43.20454" lon="0.15851">
        <ele>401.2</ele>
        <time>2024-04-17T15:53:00Z</time>
      </trkpt>
      <trkpt lat="43.20454" lon="0.15848">
        <ele>401.2</ele>
        <time>2024-04-17T15:53:01Z</time>
      </trkpt>
      <trkpt lat="43.20454" lon="0.15846">
        <ele>401.4</ele>
        <time>2024-04-17T15:53:02Z</time>
      </trkpt>
      <trkpt lat="43.20454" lon="0.15843">
        <ele>401.6</ele>
        <time>2024-04-17T15:53:03Z</time>
      </trkpt>
      <trkpt lat="43.20454" lon="0.1584">
        <ele>401.6</ele>
        <time>2024-04-17T15:53:04Z</time>
      </trkpt>
      <trkpt lat="43.20454" lon="0.15837">
        <ele>401.8</ele>
        <time>2024-04-17T15:53:05Z</time>
      </trkpt>
      <trkpt lat="43.20454" lon="0.15834">
        <ele>402</ele>
        <time>2024-04-17T15:53:06Z</time>
      </trkpt>
      <trkpt lat="43.20453" lon="0.15832">
        <ele>402</ele>
        <time>2024-04-17T15:53:07Z</time>
      </trkpt>
      <trkpt lat="43.20453" lon="0.15829">
        <ele>402</ele>
        <time>2024-04-17T15:53:08Z</time>
      </trkpt>
      <trkpt lat="43.20453" lon="0.15826">
        <ele>402</ele>
        <time>2024-04-17T15:53:09Z</time>
      </trkpt>
      <trkpt lat="43.20453" lon="0.15823">
        <ele>402.2</ele>
        <time>2024-04-17T15:53:10Z</time>
      </trkpt>
      <trkpt lat="43.20453" lon="0.1582">
        <ele>402.4</ele>
        <time>2024-04-17T15:53:11Z</time>
      </trkpt>
      <trkpt lat="43.20452" lon="0.15817">
        <ele>402.4</ele>
        <time>2024-04-17T15:53:12Z</time>
      </trkpt>
      <trkpt lat="43.20452" lon="0.15815">
        <ele>402.6</ele>
        <time>2024-04-17T15:53:13Z</time>
      </trkpt>
      <trkpt lat="43.20451" lon="0.15812">
        <ele>402.6</ele>
        <time>2024-04-17T15:53:14Z</time>
      </trkpt>
      <trkpt lat="43.20451" lon="0.15809">
        <ele>402.6</ele>
        <time>2024-04-17T15:53:15Z</time>
      </trkpt>
      <trkpt lat="43.2045" lon="0.15806">
        <ele>402.8</ele>
        <time>2024-04-17T15:53:16Z</time>
      </trkpt>
      <trkpt lat="43.2045" lon="0.15803">
        <ele>402.8</ele>
        <time>2024-04-17T15:53:17Z</time>
      </trkpt>
      <trkpt lat="43.20449" lon="0.158">
        <ele>402.8</ele>
        <time>2024-04-17T15:53:18Z</time>
      </trkpt>
      <trkpt lat="43.20449" lon="0.15797">
        <ele>403</ele>
        <time>2024-04-17T15:53:19Z</time>
      </trkpt>
      <trkpt lat="43.20449" lon="0.15794">
        <ele>403</ele>
        <time>2024-04-17T15:53:20Z</time>
      </trkpt>
      <trkpt lat="43.20449" lon="0.15791">
        <ele>403</ele>
        <time>2024-04-17T15:53:21Z</time>
      </trkpt>
      <trkpt lat="43.20449" lon="0.15788">
        <ele>403</ele>
        <time>2024-04-17T15:53:22Z</time>
      </trkpt>
      <trkpt lat="43.20449" lon="0.15785">
        <ele>403</ele>
        <time>2024-04-17T15:53:23Z</time>
      </trkpt>
      <trkpt lat="43.20449" lon="0.15783">
        <ele>403</ele>
        <time>2024-04-17T15:53:24Z</time>
      </trkpt>
      <trkpt lat="43.20449" lon="0.1578">
        <ele>403</ele>
        <time>2024-04-17T15:53:25Z</time>
      </trkpt>
      <trkpt lat="43.20448" lon="0.15778">
        <ele>403.2</ele>
        <time>2024-04-17T15:53:26Z</time>
      </trkpt>
      <trkpt lat="43.20448" lon="0.15775">
        <ele>403.2</ele>
        <time>2024-04-17T15:53:27Z</time>
      </trkpt>
      <trkpt lat="43.20448" lon="0.15774">
        <ele>403.2</ele>
        <time>2024-04-17T15:53:28Z</time>
      </trkpt>
      <trkpt lat="43.20448" lon="0.15772">
        <ele>403.2</ele>
        <time>2024-04-17T15:53:29Z</time>
      </trkpt>
      <trkpt lat="43.20448" lon="0.1577">
        <ele>403.2</ele>
        <time>2024-04-17T15:53:30Z</time>
      </trkpt>
      <trkpt lat="43.20448" lon="0.15769">
        <ele>403.2</ele>
        <time>2024-04-17T15:53:31Z</time>
      </trkpt>
      <trkpt lat="43.20448" lon="0.15768">
        <ele>403.2</ele>
        <time>2024-04-17T15:53:32Z</time>
      </trkpt>
      <trkpt lat="43.20448" lon="0.15767">
        <ele>403.4</ele>
        <time>2024-04-17T15:53:33Z</time>
      </trkpt>
      <trkpt lat="43.20448" lon="0.15766">
        <ele>403.4</ele>
        <time>2024-04-17T15:53:34Z</time>
      </trkpt>
      <trkpt lat="43.20448" lon="0.15765">
        <ele>403.4</ele>
        <time>2024-04-17T15:53:35Z</time>
      </trkpt>
      <trkpt lat="43.20448" lon="0.15763">
        <ele>403.4</ele>
        <time>2024-04-17T15:53:36Z</time>
      </trkpt>
      <trkpt lat="43.20448" lon="0.15761">
        <ele>403.4</ele>
        <time>2024-04-17T15:53:37Z</time>
      </trkpt>
      <trkpt lat="43.20448" lon="0.15759">
        <ele>403.6</ele>
        <time>2024-04-17T15:53:38Z</time>
      </trkpt>
      <trkpt lat="43.20448" lon="0.15758">
        <ele>403.6</ele>
        <time>2024-04-17T15:53:39Z</time>
      </trkpt>
      <trkpt lat="43.20448" lon="0.15756">
        <ele>403.6</ele>
        <time>2024-04-17T15:53:40Z</time>
      </trkpt>
      <trkpt lat="43.20448" lon="0.15753">
        <ele>403.6</ele>
        <time>2024-04-17T15:53:41Z</time>
      </trkpt>
      <trkpt lat="43.20448" lon="0.15751">
        <ele>403.6</ele>
        <time>2024-04-17T15:53:42Z</time>
      </trkpt>
      <trkpt lat="43.20448" lon="0.15749">
        <ele>403.6</ele>
        <time>2024-04-17T15:53:43Z</time>
      </trkpt>
      <trkpt lat="43.20448" lon="0.15747">
        <ele>403.6</ele>
        <time>2024-04-17T15:53:44Z</time>
      </trkpt>
      <trkpt lat="43.20448" lon="0.15745">
        <ele>403.6</ele>
        <time>2024-04-17T15:53:45Z</time>
      </trkpt>
      <trkpt lat="43.20448" lon="0.15743">
        <ele>403.6</ele>
        <time>2024-04-17T15:53:46Z</time>
      </trkpt>
      <trkpt lat="43.20448" lon="0.15741">
        <ele>403.6</ele>
        <time>2024-04-17T15:53:47Z</time>
      </trkpt>
      <trkpt lat="43.20449" lon="0.15738">
        <ele>403.6</ele>
        <time>2024-04-17T15:53:48Z</time>
      </trkpt>
      <trkpt lat="43.20449" lon="0.15736">
        <ele>403.6</ele>
        <time>2024-04-17T15:53:49Z</time>
      </trkpt>
      <trkpt lat="43.20449" lon="0.15734">
        <ele>403.6</ele>
        <time>2024-04-17T15:53:50Z</time>
      </trkpt>
      <trkpt lat="43.20449" lon="0.15731">
        <ele>403.6</ele>
        <time>2024-04-17T15:53:51Z</time>
      </trkpt>
      <trkpt lat="43.2045" lon="0.15729">
        <ele>403.8</ele>
        <time>2024-04-17T15:53:52Z</time>
      </trkpt>
      <trkpt lat="43.2045" lon="0.15727">
        <ele>403.8</ele>
        <time>2024-04-17T15:53:53Z</time>
      </trkpt>
      <trkpt lat="43.20451" lon="0.15725">
        <ele>403.8</ele>
        <time>2024-04-17T15:53:54Z</time>
      </trkpt>
      <trkpt lat="43.20451" lon="0.15722">
        <ele>403.8</ele>
        <time>2024-04-17T15:53:55Z</time>
      </trkpt>
      <trkpt lat="43.20451" lon="0.1572">
        <ele>403.8</ele>
        <time>2024-04-17T15:53:56Z</time>
      </trkpt>
      <trkpt lat="43.20452" lon="0.15717">
        <ele>403.8</ele>
        <time>2024-04-17T15:53:57Z</time>
      </trkpt>
      <trkpt lat="43.20452" lon="0.15715">
        <ele>404</ele>
        <time>2024-04-17T15:53:58Z</time>
      </trkpt>
      <trkpt lat="43.20453" lon="0.15712">
        <ele>404</ele>
        <time>2024-04-17T15:53:59Z</time>
      </trkpt>
      <trkpt lat="43.20453" lon="0.1571">
        <ele>404</ele>
        <time>2024-04-17T15:54:00Z</time>
      </trkpt>
      <trkpt lat="43.20454" lon="0.15708">
        <ele>404</ele>
        <time>2024-04-17T15:54:01Z</time>
      </trkpt>
      <trkpt lat="43.20455" lon="0.15705">
        <ele>404</ele>
        <time>2024-04-17T15:54:02Z</time>
      </trkpt>
      <trkpt lat="43.20456" lon="0.15703">
        <ele>404</ele>
        <time>2024-04-17T15:54:03Z</time>
      </trkpt>
      <trkpt lat="43.20456" lon="0.157">
        <ele>404</ele>
        <time>2024-04-17T15:54:04Z</time>
      </trkpt>
      <trkpt lat="43.20457" lon="0.15698">
        <ele>404</ele>
        <time>2024-04-17T15:54:05Z</time>
      </trkpt>
      <trkpt lat="43.20458" lon="0.15695">
        <ele>404</ele>
        <time>2024-04-17T15:54:06Z</time>
      </trkpt>
      <trkpt lat="43.20459" lon="0.15693">
        <ele>404.2</ele>
        <time>2024-04-17T15:54:07Z</time>
      </trkpt>
      <trkpt lat="43.20459" lon="0.15691">
        <ele>404.2</ele>
        <time>2024-04-17T15:54:08Z</time>
      </trkpt>
      <trkpt lat="43.2046" lon="0.15689">
        <ele>404.2</ele>
        <time>2024-04-17T15:54:09Z</time>
      </trkpt>
      <trkpt lat="43.20461" lon="0.15687">
        <ele>404.2</ele>
        <time>2024-04-17T15:54:10Z</time>
      </trkpt>
      <trkpt lat="43.20462" lon="0.15684">
        <ele>404.4</ele>
        <time>2024-04-17T15:54:11Z</time>
      </trkpt>
      <trkpt lat="43.20463" lon="0.15682">
        <ele>404.4</ele>
        <time>2024-04-17T15:54:12Z</time>
      </trkpt>
      <trkpt lat="43.20464" lon="0.1568">
        <ele>404.4</ele>
        <time>2024-04-17T15:54:13Z</time>
      </trkpt>
      <trkpt lat="43.20465" lon="0.15678">
        <ele>404.6</ele>
        <time>2024-04-17T15:54:14Z</time>
      </trkpt>
      <trkpt lat="43.20466" lon="0.15676">
        <ele>404.6</ele>
        <time>2024-04-17T15:54:15Z</time>
      </trkpt>
      <trkpt lat="43.20467" lon="0.15674">
        <ele>404.8</ele>
        <time>2024-04-17T15:54:16Z</time>
      </trkpt>
      <trkpt lat="43.20467" lon="0.15672">
        <ele>404.8</ele>
        <time>2024-04-17T15:54:17Z</time>
      </trkpt>
      <trkpt lat="43.20468" lon="0.15669">
        <ele>405</ele>
        <time>2024-04-17T15:54:18Z</time>
      </trkpt>
      <trkpt lat="43.20469" lon="0.15667">
        <ele>405</ele>
        <time>2024-04-17T15:54:19Z</time>
      </trkpt>
      <trkpt lat="43.20469" lon="0.15664">
        <ele>405.2</ele>
        <time>2024-04-17T15:54:20Z</time>
      </trkpt>
      <trkpt lat="43.2047" lon="0.15662">
        <ele>405.4</ele>
        <time>2024-04-17T15:54:21Z</time>
      </trkpt>
      <trkpt lat="43.2047" lon="0.1566">
        <ele>405.4</ele>
        <time>2024-04-17T15:54:22Z</time>
      </trkpt>
      <trkpt lat="43.20471" lon="0.15657">
        <ele>405.4</ele>
        <time>2024-04-17T15:54:23Z</time>
      </trkpt>
      <trkpt lat="43.20472" lon="0.15655">
        <ele>405.6</ele>
        <time>2024-04-17T15:54:24Z</time>
      </trkpt>
      <trkpt lat="43.20472" lon="0.15653">
        <ele>405.6</ele>
        <time>2024-04-17T15:54:25Z</time>
      </trkpt>
      <trkpt lat="43.20473" lon="0.15651">
        <ele>405.8</ele>
        <time>2024-04-17T15:54:26Z</time>
      </trkpt>
      <trkpt lat="43.20474" lon="0.15649">
        <ele>405.8</ele>
        <time>2024-04-17T15:54:27Z</time>
      </trkpt>
      <trkpt lat="43.20474" lon="0.15646">
        <ele>405.8</ele>
        <time>2024-04-17T15:54:28Z</time>
      </trkpt>
      <trkpt lat="43.20475" lon="0.15644">
        <ele>405.8</ele>
        <time>2024-04-17T15:54:29Z</time>
      </trkpt>
      <trkpt lat="43.20476" lon="0.15641">
        <ele>406</ele>
        <time>2024-04-17T15:54:30Z</time>
      </trkpt>
      <trkpt lat="43.20476" lon="0.15639">
        <ele>406.2</ele>
        <time>2024-04-17T15:54:31Z</time>
      </trkpt>
      <trkpt lat="43.20477" lon="0.15637">
        <ele>406.4</ele>
        <time>2024-04-17T15:54:32Z</time>
      </trkpt>
      <trkpt lat="43.20477" lon="0.15634">
        <ele>406.4</ele>
        <time>2024-04-17T15:54:33Z</time>
      </trkpt>
      <trkpt lat="43.20478" lon="0.15632">
        <ele>406.6</ele>
        <time>2024-04-17T15:54:34Z</time>
      </trkpt>
      <trkpt lat="43.20478" lon="0.1563">
        <ele>406.8</ele>
        <time>2024-04-17T15:54:35Z</time>
      </trkpt>
      <trkpt lat="43.20479" lon="0.15628">
        <ele>407</ele>
        <time>2024-04-17T15:54:36Z</time>
      </trkpt>
      <trkpt lat="43.20479" lon="0.15626">
        <ele>407.2</ele>
        <time>2024-04-17T15:54:37Z</time>
      </trkpt>
      <trkpt lat="43.2048" lon="0.15624">
        <ele>407.2</ele>
        <time>2024-04-17T15:54:38Z</time>
      </trkpt>
      <trkpt lat="43.2048" lon="0.15622">
        <ele>407.4</ele>
        <time>2024-04-17T15:54:39Z</time>
      </trkpt>
      <trkpt lat="43.2048" lon="0.1562">
        <ele>407.4</ele>
        <time>2024-04-17T15:54:40Z</time>
      </trkpt>
      <trkpt lat="43.20481" lon="0.15617">
        <ele>407.6</ele>
        <time>2024-04-17T15:54:41Z</time>
      </trkpt>
      <trkpt lat="43.20481" lon="0.15615">
        <ele>407.8</ele>
        <time>2024-04-17T15:54:42Z</time>
      </trkpt>
      <trkpt lat="43.20481" lon="0.15612">
        <ele>407.8</ele>
        <time>2024-04-17T15:54:43Z</time>
      </trkpt>
      <trkpt lat="43.20481" lon="0.1561">
        <ele>408</ele>
        <time>2024-04-17T15:54:44Z</time>
      </trkpt>
      <trkpt lat="43.20481" lon="0.15607">
        <ele>408</ele>
        <time>2024-04-17T15:54:45Z</time>
      </trkpt>
      <trkpt lat="43.20482" lon="0.15604">
        <ele>408</ele>
        <time>2024-04-17T15:54:46Z</time>
      </trkpt>
      <trkpt lat="43.20482" lon="0.156">
        <ele>408</ele>
        <time>2024-04-17T15:54:47Z</time>
      </trkpt>
      <trkpt lat="43.20483" lon="0.15597">
        <ele>408.2</ele>
        <time>2024-04-17T15:54:48Z</time>
      </trkpt>
      <trkpt lat="43.20484" lon="0.15595">
        <ele>408.2</ele>
        <time>2024-04-17T15:54:49Z</time>
      </trkpt>
      <trkpt lat="43.20484" lon="0.15591">
        <ele>408.6</ele>
        <time>2024-04-17T15:54:50Z</time>
      </trkpt>
      <trkpt lat="43.20485" lon="0.15588">
        <ele>408.8</ele>
        <time>2024-04-17T15:54:51Z</time>
      </trkpt>
      <trkpt lat="43.20485" lon="0.15585">
        <ele>408.8</ele>
        <time>2024-04-17T15:54:52Z</time>
      </trkpt>
      <trkpt lat="43.20486" lon="0.15583">
        <ele>408.8</ele>
        <time>2024-04-17T15:54:53Z</time>
      </trkpt>
      <trkpt lat="43.20486" lon="0.1558">
        <ele>409</ele>
        <time>2024-04-17T15:54:54Z</time>
      </trkpt>
      <trkpt lat="43.20486" lon="0.15577">
        <ele>409</ele>
        <time>2024-04-17T15:54:55Z</time>
      </trkpt>
      <trkpt lat="43.20486" lon="0.15574">
        <ele>409</ele>
        <time>2024-04-17T15:54:56Z</time>
      </trkpt>
      <trkpt lat="43.20486" lon="0.1557">
        <ele>409.2</ele>
        <time>2024-04-17T15:54:57Z</time>
      </trkpt>
      <trkpt lat="43.20486" lon="0.15566">
        <ele>409.2</ele>
        <time>2024-04-17T15:54:58Z</time>
      </trkpt>
      <trkpt lat="43.20486" lon="0.15563">
        <ele>409.2</ele>
        <time>2024-04-17T15:54:59Z</time>
      </trkpt>
      <trkpt lat="43.20486" lon="0.15559">
        <ele>409.2</ele>
        <time>2024-04-17T15:55:00Z</time>
      </trkpt>
      <trkpt lat="43.20486" lon="0.15555">
        <ele>409.2</ele>
        <time>2024-04-17T15:55:01Z</time>
      </trkpt>
      <trkpt lat="43.20485" lon="0.15551">
        <ele>409.4</ele>
        <time>2024-04-17T15:55:02Z</time>
      </trkpt>
      <trkpt lat="43.20485" lon="0.15547">
        <ele>409.4</ele>
        <time>2024-04-17T15:55:03Z</time>
      </trkpt>
      <trkpt lat="43.20485" lon="0.15544">
        <ele>409.4</ele>
        <time>2024-04-17T15:55:04Z</time>
      </trkpt>
      <trkpt lat="43.20485" lon="0.15541">
        <ele>409.4</ele>
        <time>2024-04-17T15:55:05Z</time>
      </trkpt>
      <trkpt lat="43.20485" lon="0.15537">
        <ele>409.4</ele>
        <time>2024-04-17T15:55:06Z</time>
      </trkpt>
      <trkpt lat="43.20485" lon="0.15535">
        <ele>409.4</ele>
        <time>2024-04-17T15:55:07Z</time>
      </trkpt>
      <trkpt lat="43.20486" lon="0.15533">
        <ele>409.6</ele>
        <time>2024-04-17T15:55:08Z</time>
      </trkpt>
      <trkpt lat="43.20486" lon="0.1553">
        <ele>409.6</ele>
        <time>2024-04-17T15:55:09Z</time>
      </trkpt>
      <trkpt lat="43.20487" lon="0.15527">
        <ele>409.6</ele>
        <time>2024-04-17T15:55:10Z</time>
      </trkpt>
      <trkpt lat="43.20487" lon="0.15525">
        <ele>409.8</ele>
        <time>2024-04-17T15:55:11Z</time>
      </trkpt>
      <trkpt lat="43.20487" lon="0.15521">
        <ele>409.8</ele>
        <time>2024-04-17T15:55:12Z</time>
      </trkpt>
      <trkpt lat="43.20487" lon="0.15518">
        <ele>409.8</ele>
        <time>2024-04-17T15:55:13Z</time>
      </trkpt>
      <trkpt lat="43.20488" lon="0.15515">
        <ele>409.8</ele>
        <time>2024-04-17T15:55:14Z</time>
      </trkpt>
      <trkpt lat="43.20488" lon="0.15512">
        <ele>410</ele>
        <time>2024-04-17T15:55:15Z</time>
      </trkpt>
      <trkpt lat="43.20489" lon="0.15509">
        <ele>410.2</ele>
        <time>2024-04-17T15:55:16Z</time>
      </trkpt>
      <trkpt lat="43.20489" lon="0.15505">
        <ele>410.2</ele>
        <time>2024-04-17T15:55:17Z</time>
      </trkpt>
      <trkpt lat="43.2049" lon="0.15502">
        <ele>410.4</ele>
        <time>2024-04-17T15:55:18Z</time>
      </trkpt>
      <trkpt lat="43.2049" lon="0.15499">
        <ele>410.4</ele>
        <time>2024-04-17T15:55:19Z</time>
      </trkpt>
      <trkpt lat="43.2049" lon="0.15496">
        <ele>410.8</ele>
        <time>2024-04-17T15:55:20Z</time>
      </trkpt>
      <trkpt lat="43.20491" lon="0.15493">
        <ele>410.8</ele>
        <time>2024-04-17T15:55:21Z</time>
      </trkpt>
      <trkpt lat="43.20491" lon="0.1549">
        <ele>410.8</ele>
        <time>2024-04-17T15:55:22Z</time>
      </trkpt>
      <trkpt lat="43.20491" lon="0.15487">
        <ele>411</ele>
        <time>2024-04-17T15:55:23Z</time>
      </trkpt>
      <trkpt lat="43.20491" lon="0.15483">
        <ele>411</ele>
        <time>2024-04-17T15:55:24Z</time>
      </trkpt>
      <trkpt lat="43.20491" lon="0.1548">
        <ele>411</ele>
        <time>2024-04-17T15:55:25Z</time>
      </trkpt>
      <trkpt lat="43.20491" lon="0.15477">
        <ele>411.2</ele>
        <time>2024-04-17T15:55:26Z</time>
      </trkpt>
      <trkpt lat="43.20491" lon="0.15474">
        <ele>411.2</ele>
        <time>2024-04-17T15:55:27Z</time>
      </trkpt>
      <trkpt lat="43.20492" lon="0.15471">
        <ele>411.4</ele>
        <time>2024-04-17T15:55:28Z</time>
      </trkpt>
      <trkpt lat="43.20492" lon="0.15467">
        <ele>411.4</ele>
        <time>2024-04-17T15:55:29Z</time>
      </trkpt>
      <trkpt lat="43.20492" lon="0.15464">
        <ele>411.4</ele>
        <time>2024-04-17T15:55:30Z</time>
      </trkpt>
      <trkpt lat="43.20493" lon="0.15461">
        <ele>411.4</ele>
        <time>2024-04-17T15:55:31Z</time>
      </trkpt>
      <trkpt lat="43.20493" lon="0.15458">
        <ele>411.6</ele>
        <time>2024-04-17T15:55:32Z</time>
      </trkpt>
      <trkpt lat="43.20493" lon="0.15455">
        <ele>411.6</ele>
        <time>2024-04-17T15:55:33Z</time>
      </trkpt>
      <trkpt lat="43.20493" lon="0.15452">
        <ele>411.8</ele>
        <time>2024-04-17T15:55:34Z</time>
      </trkpt>
      <trkpt lat="43.20493" lon="0.1545">
        <ele>411.8</ele>
        <time>2024-04-17T15:55:35Z</time>
      </trkpt>
      <trkpt lat="43.20493" lon="0.15446">
        <ele>412</ele>
        <time>2024-04-17T15:55:36Z</time>
      </trkpt>
      <trkpt lat="43.20493" lon="0.15443">
        <ele>412</ele>
        <time>2024-04-17T15:55:37Z</time>
      </trkpt>
      <trkpt lat="43.20493" lon="0.15439">
        <ele>412</ele>
        <time>2024-04-17T15:55:38Z</time>
      </trkpt>
      <trkpt lat="43.20493" lon="0.15435">
        <ele>412</ele>
        <time>2024-04-17T15:55:39Z</time>
      </trkpt>
      <trkpt lat="43.20493" lon="0.15432">
        <ele>412.2</ele>
        <time>2024-04-17T15:55:40Z</time>
      </trkpt>
      <trkpt lat="43.20493" lon="0.15428">
        <ele>412.2</ele>
        <time>2024-04-17T15:55:41Z</time>
      </trkpt>
      <trkpt lat="43.20493" lon="0.15425">
        <ele>412.2</ele>
        <time>2024-04-17T15:55:42Z</time>
      </trkpt>
      <trkpt lat="43.20493" lon="0.15421">
        <ele>412.2</ele>
        <time>2024-04-17T15:55:43Z</time>
      </trkpt>
      <trkpt lat="43.20493" lon="0.15418">
        <ele>412.2</ele>
        <time>2024-04-17T15:55:44Z</time>
      </trkpt>
      <trkpt lat="43.20493" lon="0.15414">
        <ele>412.2</ele>
        <time>2024-04-17T15:55:45Z</time>
      </trkpt>
      <trkpt lat="43.20494" lon="0.15411">
        <ele>412.2</ele>
        <time>2024-04-17T15:55:46Z</time>
      </trkpt>
      <trkpt lat="43.20493" lon="0.15407">
        <ele>412.2</ele>
        <time>2024-04-17T15:55:47Z</time>
      </trkpt>
      <trkpt lat="43.20494" lon="0.15404">
        <ele>412.2</ele>
        <time>2024-04-17T15:55:48Z</time>
      </trkpt>
      <trkpt lat="43.20495" lon="0.15402">
        <ele>412.2</ele>
        <time>2024-04-17T15:55:49Z</time>
      </trkpt>
      <trkpt lat="43.20496" lon="0.15399">
        <ele>412.4</ele>
        <time>2024-04-17T15:55:50Z</time>
      </trkpt>
      <trkpt lat="43.20497" lon="0.15396">
        <ele>412.4</ele>
        <time>2024-04-17T15:55:51Z</time>
      </trkpt>
      <trkpt lat="43.20498" lon="0.15393">
        <ele>412.4</ele>
        <time>2024-04-17T15:55:52Z</time>
      </trkpt>
      <trkpt lat="43.20498" lon="0.1539">
        <ele>412.4</ele>
        <time>2024-04-17T15:55:53Z</time>
      </trkpt>
      <trkpt lat="43.20499" lon="0.15386">
        <ele>412.4</ele>
        <time>2024-04-17T15:55:54Z</time>
      </trkpt>
      <trkpt lat="43.205" lon="0.15382">
        <ele>412.4</ele>
        <time>2024-04-17T15:55:55Z</time>
      </trkpt>
      <trkpt lat="43.20501" lon="0.15379">
        <ele>412.4</ele>
        <time>2024-04-17T15:55:56Z</time>
      </trkpt>
      <trkpt lat="43.20502" lon="0.15377">
        <ele>412.6</ele>
        <time>2024-04-17T15:55:57Z</time>
      </trkpt>
      <trkpt lat="43.20504" lon="0.15374">
        <ele>412.6</ele>
        <time>2024-04-17T15:55:58Z</time>
      </trkpt>
      <trkpt lat="43.20505" lon="0.15372">
        <ele>412.6</ele>
        <time>2024-04-17T15:55:59Z</time>
      </trkpt>
      <trkpt lat="43.20506" lon="0.15369">
        <ele>412.6</ele>
        <time>2024-04-17T15:56:00Z</time>
      </trkpt>
      <trkpt lat="43.20508" lon="0.15367">
        <ele>412.6</ele>
        <time>2024-04-17T15:56:01Z</time>
      </trkpt>
      <trkpt lat="43.2051" lon="0.15364">
        <ele>412.6</ele>
        <time>2024-04-17T15:56:02Z</time>
      </trkpt>
      <trkpt lat="43.20511" lon="0.15361">
        <ele>412.8</ele>
        <time>2024-04-17T15:56:03Z</time>
      </trkpt>
      <trkpt lat="43.20512" lon="0.15359">
        <ele>412.8</ele>
        <time>2024-04-17T15:56:04Z</time>
      </trkpt>
      <trkpt lat="43.20513" lon="0.15356">
        <ele>413</ele>
        <time>2024-04-17T15:56:05Z</time>
      </trkpt>
      <trkpt lat="43.20515" lon="0.15353">
        <ele>413</ele>
        <time>2024-04-17T15:56:06Z</time>
      </trkpt>
      <trkpt lat="43.20516" lon="0.15351">
        <ele>413</ele>
        <time>2024-04-17T15:56:07Z</time>
      </trkpt>
      <trkpt lat="43.20517" lon="0.15348">
        <ele>413.2</ele>
        <time>2024-04-17T15:56:08Z</time>
      </trkpt>
      <trkpt lat="43.20519" lon="0.15345">
        <ele>413.2</ele>
        <time>2024-04-17T15:56:09Z</time>
      </trkpt>
      <trkpt lat="43.20521" lon="0.15342">
        <ele>413.2</ele>
        <time>2024-04-17T15:56:10Z</time>
      </trkpt>
      <trkpt lat="43.20522" lon="0.1534">
        <ele>413.2</ele>
        <time>2024-04-17T15:56:11Z</time>
      </trkpt>
      <trkpt lat="43.20524" lon="0.15338">
        <ele>413.2</ele>
        <time>2024-04-17T15:56:12Z</time>
      </trkpt>
      <trkpt lat="43.20526" lon="0.15336">
        <ele>413.4</ele>
        <time>2024-04-17T15:56:13Z</time>
      </trkpt>
      <trkpt lat="43.20528" lon="0.15334">
        <ele>413.4</ele>
        <time>2024-04-17T15:56:14Z</time>
      </trkpt>
      <trkpt lat="43.20529" lon="0.15332">
        <ele>413.6</ele>
        <time>2024-04-17T15:56:15Z</time>
      </trkpt>
      <trkpt lat="43.20532" lon="0.1533">
        <ele>413.6</ele>
        <time>2024-04-17T15:56:16Z</time>
      </trkpt>
      <trkpt lat="43.20533" lon="0.15329">
        <ele>413.8</ele>
        <time>2024-04-17T15:56:17Z</time>
      </trkpt>
      <trkpt lat="43.20535" lon="0.15327">
        <ele>413.8</ele>
        <time>2024-04-17T15:56:18Z</time>
      </trkpt>
      <trkpt lat="43.20537" lon="0.15326">
        <ele>413.8</ele>
        <time>2024-04-17T15:56:19Z</time>
      </trkpt>
      <trkpt lat="43.20539" lon="0.15325">
        <ele>414</ele>
        <time>2024-04-17T15:56:20Z</time>
      </trkpt>
      <trkpt lat="43.2054" lon="0.15324">
        <ele>414</ele>
        <time>2024-04-17T15:56:21Z</time>
      </trkpt>
      <trkpt lat="43.20542" lon="0.15323">
        <ele>414.2</ele>
        <time>2024-04-17T15:56:22Z</time>
      </trkpt>
      <trkpt lat="43.20544" lon="0.15322">
        <ele>414.2</ele>
        <time>2024-04-17T15:56:23Z</time>
      </trkpt>
      <trkpt lat="43.20546" lon="0.15321">
        <ele>414.4</ele>
        <time>2024-04-17T15:56:24Z</time>
      </trkpt>
      <trkpt lat="43.20547" lon="0.15321">
        <ele>414.6</ele>
        <time>2024-04-17T15:56:25Z</time>
      </trkpt>
      <trkpt lat="43.20549" lon="0.1532">
        <ele>414.8</ele>
        <time>2024-04-17T15:56:26Z</time>
      </trkpt>
      <trkpt lat="43.20551" lon="0.1532">
        <ele>415</ele>
        <time>2024-04-17T15:56:27Z</time>
      </trkpt>
      <trkpt lat="43.20553" lon="0.15319">
        <ele>415</ele>
        <time>2024-04-17T15:56:28Z</time>
      </trkpt>
      <trkpt lat="43.20555" lon="0.15319">
        <ele>415.2</ele>
        <time>2024-04-17T15:56:29Z</time>
      </trkpt>
      <trkpt lat="43.20557" lon="0.15318">
        <ele>415.4</ele>
        <time>2024-04-17T15:56:30Z</time>
      </trkpt>
      <trkpt lat="43.20559" lon="0.15317">
        <ele>415.6</ele>
        <time>2024-04-17T15:56:31Z</time>
      </trkpt>
      <trkpt lat="43.2056" lon="0.15317">
        <ele>415.8</ele>
        <time>2024-04-17T15:56:32Z</time>
      </trkpt>
      <trkpt lat="43.20562" lon="0.15316">
        <ele>415.8</ele>
        <time>2024-04-17T15:56:33Z</time>
      </trkpt>
      <trkpt lat="43.20563" lon="0.15315">
        <ele>415.8</ele>
        <time>2024-04-17T15:56:34Z</time>
      </trkpt>
      <trkpt lat="43.20565" lon="0.15315">
        <ele>416</ele>
        <time>2024-04-17T15:56:35Z</time>
      </trkpt>
      <trkpt lat="43.20566" lon="0.15314">
        <ele>416.2</ele>
        <time>2024-04-17T15:56:36Z</time>
      </trkpt>
      <trkpt lat="43.20568" lon="0.15313">
        <ele>416.8</ele>
        <time>2024-04-17T15:56:37Z</time>
      </trkpt>
      <trkpt lat="43.20569" lon="0.15312">
        <ele>416.6</ele>
        <time>2024-04-17T15:56:38Z</time>
      </trkpt>
      <trkpt lat="43.20571" lon="0.15312">
        <ele>417</ele>
        <time>2024-04-17T15:56:39Z</time>
      </trkpt>
      <trkpt lat="43.20573" lon="0.15311">
        <ele>417</ele>
        <time>2024-04-17T15:56:40Z</time>
      </trkpt>
      <trkpt lat="43.20575" lon="0.15309">
        <ele>417.4</ele>
        <time>2024-04-17T15:56:41Z</time>
      </trkpt>
      <trkpt lat="43.20576" lon="0.15308">
        <ele>417.6</ele>
        <time>2024-04-17T15:56:42Z</time>
      </trkpt>
      <trkpt lat="43.20578" lon="0.15307">
        <ele>417.4</ele>
        <time>2024-04-17T15:56:43Z</time>
      </trkpt>
      <trkpt lat="43.2058" lon="0.15306">
        <ele>417.8</ele>
        <time>2024-04-17T15:56:44Z</time>
      </trkpt>
      <trkpt lat="43.20581" lon="0.15304">
        <ele>417.8</ele>
        <time>2024-04-17T15:56:45Z</time>
      </trkpt>
      <trkpt lat="43.20583" lon="0.15301">
        <ele>418.2</ele>
        <time>2024-04-17T15:56:46Z</time>
      </trkpt>
      <trkpt lat="43.20584" lon="0.15299">
        <ele>418.4</ele>
        <time>2024-04-17T15:56:47Z</time>
      </trkpt>
      <trkpt lat="43.20586" lon="0.15296">
        <ele>418.4</ele>
        <time>2024-04-17T15:56:48Z</time>
      </trkpt>
      <trkpt lat="43.20587" lon="0.15293">
        <ele>418.4</ele>
        <time>2024-04-17T15:56:49Z</time>
      </trkpt>
      <trkpt lat="43.20588" lon="0.15291">
        <ele>418.6</ele>
        <time>2024-04-17T15:56:50Z</time>
      </trkpt>
      <trkpt lat="43.20589" lon="0.15288">
        <ele>418.8</ele>
        <time>2024-04-17T15:56:51Z</time>
      </trkpt>
      <trkpt lat="43.2059" lon="0.15285">
        <ele>418.8</ele>
        <time>2024-04-17T15:56:52Z</time>
      </trkpt>
      <trkpt lat="43.20591" lon="0.15282">
        <ele>418.8</ele>
        <time>2024-04-17T15:56:53Z</time>
      </trkpt>
      <trkpt lat="43.20592" lon="0.15279">
        <ele>419</ele>
        <time>2024-04-17T15:56:54Z</time>
      </trkpt>
      <trkpt lat="43.20592" lon="0.15276">
        <ele>419.2</ele>
        <time>2024-04-17T15:56:55Z</time>
      </trkpt>
      <trkpt lat="43.20593" lon="0.15272">
        <ele>419.2</ele>
        <time>2024-04-17T15:56:56Z</time>
      </trkpt>
      <trkpt lat="43.20593" lon="0.15269">
        <ele>419.2</ele>
        <time>2024-04-17T15:56:57Z</time>
      </trkpt>
      <trkpt lat="43.20593" lon="0.15266">
        <ele>419.4</ele>
        <time>2024-04-17T15:56:58Z</time>
      </trkpt>
      <trkpt lat="43.20594" lon="0.15262">
        <ele>419.4</ele>
        <time>2024-04-17T15:56:59Z</time>
      </trkpt>
      <trkpt lat="43.20594" lon="0.15259">
        <ele>419.6</ele>
        <time>2024-04-17T15:57:00Z</time>
      </trkpt>
      <trkpt lat="43.20595" lon="0.15256">
        <ele>419.6</ele>
        <time>2024-04-17T15:57:01Z</time>
      </trkpt>
      <trkpt lat="43.20596" lon="0.15253">
        <ele>419.8</ele>
        <time>2024-04-17T15:57:02Z</time>
      </trkpt>
      <trkpt lat="43.20596" lon="0.1525">
        <ele>419.8</ele>
        <time>2024-04-17T15:57:03Z</time>
      </trkpt>
      <trkpt lat="43.20597" lon="0.15246">
        <ele>419.8</ele>
        <time>2024-04-17T15:57:04Z</time>
      </trkpt>
      <trkpt lat="43.20598" lon="0.15243">
        <ele>419.8</ele>
        <time>2024-04-17T15:57:05Z</time>
      </trkpt>
      <trkpt lat="43.20598" lon="0.15239">
        <ele>419.8</ele>
        <time>2024-04-17T15:57:06Z</time>
      </trkpt>
      <trkpt lat="43.20599" lon="0.15236">
        <ele>419.8</ele>
        <time>2024-04-17T15:57:07Z</time>
      </trkpt>
      <trkpt lat="43.20599" lon="0.15232">
        <ele>420</ele>
        <time>2024-04-17T15:57:08Z</time>
      </trkpt>
      <trkpt lat="43.206" lon="0.15228">
        <ele>420</ele>
        <time>2024-04-17T15:57:09Z</time>
      </trkpt>
      <trkpt lat="43.20601" lon="0.15225">
        <ele>420</ele>
        <time>2024-04-17T15:57:10Z</time>
      </trkpt>
      <trkpt lat="43.20602" lon="0.15221">
        <ele>420.2</ele>
        <time>2024-04-17T15:57:11Z</time>
      </trkpt>
      <trkpt lat="43.20603" lon="0.15217">
        <ele>420.2</ele>
        <time>2024-04-17T15:57:12Z</time>
      </trkpt>
      <trkpt lat="43.20603" lon="0.15214">
        <ele>420.2</ele>
        <time>2024-04-17T15:57:13Z</time>
      </trkpt>
      <trkpt lat="43.20604" lon="0.1521">
        <ele>420.2</ele>
        <time>2024-04-17T15:57:14Z</time>
      </trkpt>
      <trkpt lat="43.20606" lon="0.15207">
        <ele>420.2</ele>
        <time>2024-04-17T15:57:15Z</time>
      </trkpt>
      <trkpt lat="43.20607" lon="0.15204">
        <ele>420.2</ele>
        <time>2024-04-17T15:57:16Z</time>
      </trkpt>
      <trkpt lat="43.20608" lon="0.152">
        <ele>420.2</ele>
        <time>2024-04-17T15:57:17Z</time>
      </trkpt>
      <trkpt lat="43.20609" lon="0.15196">
        <ele>420.2</ele>
        <time>2024-04-17T15:57:18Z</time>
      </trkpt>
      <trkpt lat="43.2061" lon="0.15193">
        <ele>420</ele>
        <time>2024-04-17T15:57:19Z</time>
      </trkpt>
      <trkpt lat="43.20611" lon="0.15189">
        <ele>420</ele>
        <time>2024-04-17T15:57:20Z</time>
      </trkpt>
      <trkpt lat="43.20612" lon="0.15185">
        <ele>419.8</ele>
        <time>2024-04-17T15:57:21Z</time>
      </trkpt>
      <trkpt lat="43.20613" lon="0.15182">
        <ele>419.8</ele>
        <time>2024-04-17T15:57:22Z</time>
      </trkpt>
      <trkpt lat="43.20614" lon="0.15178">
        <ele>419.8</ele>
        <time>2024-04-17T15:57:23Z</time>
      </trkpt>
      <trkpt lat="43.20615" lon="0.15175">
        <ele>419.6</ele>
        <time>2024-04-17T15:57:24Z</time>
      </trkpt>
      <trkpt lat="43.20616" lon="0.15171">
        <ele>419.6</ele>
        <time>2024-04-17T15:57:25Z</time>
      </trkpt>
      <trkpt lat="43.20617" lon="0.15168">
        <ele>419.6</ele>
        <time>2024-04-17T15:57:26Z</time>
      </trkpt>
      <trkpt lat="43.20618" lon="0.15164">
        <ele>419.6</ele>
        <time>2024-04-17T15:57:27Z</time>
      </trkpt>
      <trkpt lat="43.20619" lon="0.15161">
        <ele>419.6</ele>
        <time>2024-04-17T15:57:28Z</time>
      </trkpt>
      <trkpt lat="43.20621" lon="0.15158">
        <ele>419.6</ele>
        <time>2024-04-17T15:57:29Z</time>
      </trkpt>
      <trkpt lat="43.20622" lon="0.15154">
        <ele>419.4</ele>
        <time>2024-04-17T15:57:30Z</time>
      </trkpt>
      <trkpt lat="43.20623" lon="0.15149">
        <ele>419.4</ele>
        <time>2024-04-17T15:57:31Z</time>
      </trkpt>
      <trkpt lat="43.20624" lon="0.15145">
        <ele>419.4</ele>
        <time>2024-04-17T15:57:32Z</time>
      </trkpt>
      <trkpt lat="43.20625" lon="0.15141">
        <ele>419.4</ele>
        <time>2024-04-17T15:57:33Z</time>
      </trkpt>
      <trkpt lat="43.20626" lon="0.15136">
        <ele>419.4</ele>
        <time>2024-04-17T15:57:34Z</time>
      </trkpt>
      <trkpt lat="43.20628" lon="0.15132">
        <ele>419.4</ele>
        <time>2024-04-17T15:57:35Z</time>
      </trkpt>
      <trkpt lat="43.20629" lon="0.15128">
        <ele>419.4</ele>
        <time>2024-04-17T15:57:36Z</time>
      </trkpt>
      <trkpt lat="43.2063" lon="0.15124">
        <ele>419.2</ele>
        <time>2024-04-17T15:57:37Z</time>
      </trkpt>
      <trkpt lat="43.20632" lon="0.1512">
        <ele>419.2</ele>
        <time>2024-04-17T15:57:38Z</time>
      </trkpt>
      <trkpt lat="43.20633" lon="0.15115">
        <ele>419.2</ele>
        <time>2024-04-17T15:57:39Z</time>
      </trkpt>
      <trkpt lat="43.20635" lon="0.1511">
        <ele>419.2</ele>
        <time>2024-04-17T15:57:40Z</time>
      </trkpt>
      <trkpt lat="43.20637" lon="0.15105">
        <ele>419</ele>
        <time>2024-04-17T15:57:41Z</time>
      </trkpt>
      <trkpt lat="43.20639" lon="0.15099">
        <ele>419</ele>
        <time>2024-04-17T15:57:42Z</time>
      </trkpt>
      <trkpt lat="43.20642" lon="0.15095">
        <ele>418.8</ele>
        <time>2024-04-17T15:57:43Z</time>
      </trkpt>
      <trkpt lat="43.20644" lon="0.1509">
        <ele>418.6</ele>
        <time>2024-04-17T15:57:44Z</time>
      </trkpt>
      <trkpt lat="43.20646" lon="0.15086">
        <ele>418.6</ele>
        <time>2024-04-17T15:57:45Z</time>
      </trkpt>
      <trkpt lat="43.20648" lon="0.15082">
        <ele>418.4</ele>
        <time>2024-04-17T15:57:46Z</time>
      </trkpt>
      <trkpt lat="43.2065" lon="0.15079">
        <ele>418.4</ele>
        <time>2024-04-17T15:57:47Z</time>
      </trkpt>
      <trkpt lat="43.20652" lon="0.15075">
        <ele>418.4</ele>
        <time>2024-04-17T15:57:48Z</time>
      </trkpt>
      <trkpt lat="43.20653" lon="0.15072">
        <ele>418.4</ele>
        <time>2024-04-17T15:57:49Z</time>
      </trkpt>
      <trkpt lat="43.20656" lon="0.15069">
        <ele>418.4</ele>
        <time>2024-04-17T15:57:50Z</time>
      </trkpt>
      <trkpt lat="43.20657" lon="0.15066">
        <ele>418.4</ele>
        <time>2024-04-17T15:57:51Z</time>
      </trkpt>
      <trkpt lat="43.20659" lon="0.15063">
        <ele>418.4</ele>
        <time>2024-04-17T15:57:52Z</time>
      </trkpt>
      <trkpt lat="43.20661" lon="0.1506">
        <ele>418.4</ele>
        <time>2024-04-17T15:57:53Z</time>
      </trkpt>
      <trkpt lat="43.20664" lon="0.15056">
        <ele>418.4</ele>
        <time>2024-04-17T15:57:54Z</time>
      </trkpt>
      <trkpt lat="43.20666" lon="0.15053">
        <ele>418.6</ele>
        <time>2024-04-17T15:57:55Z</time>
      </trkpt>
      <trkpt lat="43.20668" lon="0.1505">
        <ele>418.6</ele>
        <time>2024-04-17T15:57:56Z</time>
      </trkpt>
      <trkpt lat="43.2067" lon="0.15047">
        <ele>418.6</ele>
        <time>2024-04-17T15:57:57Z</time>
      </trkpt>
      <trkpt lat="43.20672" lon="0.15044">
        <ele>418.6</ele>
        <time>2024-04-17T15:57:58Z</time>
      </trkpt>
      <trkpt lat="43.20674" lon="0.15041">
        <ele>418.6</ele>
        <time>2024-04-17T15:57:59Z</time>
      </trkpt>
      <trkpt lat="43.20676" lon="0.15037">
        <ele>418.6</ele>
        <time>2024-04-17T15:58:00Z</time>
      </trkpt>
      <trkpt lat="43.20678" lon="0.15033">
        <ele>418.6</ele>
        <time>2024-04-17T15:58:01Z</time>
      </trkpt>
      <trkpt lat="43.2068" lon="0.15029">
        <ele>418.8</ele>
        <time>2024-04-17T15:58:02Z</time>
      </trkpt>
      <trkpt lat="43.20683" lon="0.15024">
        <ele>418.8</ele>
        <time>2024-04-17T15:58:03Z</time>
      </trkpt>
      <trkpt lat="43.20685" lon="0.1502">
        <ele>418.8</ele>
        <time>2024-04-17T15:58:04Z</time>
      </trkpt>
      <trkpt lat="43.20688" lon="0.15015">
        <ele>418.8</ele>
        <time>2024-04-17T15:58:05Z</time>
      </trkpt>
      <trkpt lat="43.2069" lon="0.1501">
        <ele>418.8</ele>
        <time>2024-04-17T15:58:06Z</time>
      </trkpt>
      <trkpt lat="43.20691" lon="0.15005">
        <ele>418.8</ele>
        <time>2024-04-17T15:58:07Z</time>
      </trkpt>
      <trkpt lat="43.20693" lon="0.15001">
        <ele>418.8</ele>
        <time>2024-04-17T15:58:08Z</time>
      </trkpt>
      <trkpt lat="43.20694" lon="0.14997">
        <ele>418.8</ele>
        <time>2024-04-17T15:58:09Z</time>
      </trkpt>
      <trkpt lat="43.20695" lon="0.14993">
        <ele>418.8</ele>
        <time>2024-04-17T15:58:10Z</time>
      </trkpt>
      <trkpt lat="43.20695" lon="0.14988">
        <ele>418.8</ele>
        <time>2024-04-17T15:58:11Z</time>
      </trkpt>
      <trkpt lat="43.20695" lon="0.14984">
        <ele>418.8</ele>
        <time>2024-04-17T15:58:12Z</time>
      </trkpt>
      <trkpt lat="43.20695" lon="0.14979">
        <ele>418.8</ele>
        <time>2024-04-17T15:58:13Z</time>
      </trkpt>
      <trkpt lat="43.20696" lon="0.14974">
        <ele>418.8</ele>
        <time>2024-04-17T15:58:14Z</time>
      </trkpt>
      <trkpt lat="43.20696" lon="0.1497">
        <ele>418.8</ele>
        <time>2024-04-17T15:58:15Z</time>
      </trkpt>
      <trkpt lat="43.20695" lon="0.14966">
        <ele>418.8</ele>
        <time>2024-04-17T15:58:16Z</time>
      </trkpt>
      <trkpt lat="43.20695" lon="0.14962">
        <ele>418.8</ele>
        <time>2024-04-17T15:58:17Z</time>
      </trkpt>
      <trkpt lat="43.20695" lon="0.14959">
        <ele>419</ele>
        <time>2024-04-17T15:58:18Z</time>
      </trkpt>
      <trkpt lat="43.20695" lon="0.14955">
        <ele>419</ele>
        <time>2024-04-17T15:58:19Z</time>
      </trkpt>
      <trkpt lat="43.20695" lon="0.14952">
        <ele>419.2</ele>
        <time>2024-04-17T15:58:20Z</time>
      </trkpt>
      <trkpt lat="43.20695" lon="0.14949">
        <ele>419.4</ele>
        <time>2024-04-17T15:58:21Z</time>
      </trkpt>
      <trkpt lat="43.20694" lon="0.14946">
        <ele>419.6</ele>
        <time>2024-04-17T15:58:22Z</time>
      </trkpt>
      <trkpt lat="43.20694" lon="0.14942">
        <ele>419.6</ele>
        <time>2024-04-17T15:58:23Z</time>
      </trkpt>
      <trkpt lat="43.20694" lon="0.14939">
        <ele>419.8</ele>
        <time>2024-04-17T15:58:24Z</time>
      </trkpt>
      <trkpt lat="43.20693" lon="0.14935">
        <ele>419.8</ele>
        <time>2024-04-17T15:58:25Z</time>
      </trkpt>
      <trkpt lat="43.20692" lon="0.14932">
        <ele>420.4</ele>
        <time>2024-04-17T15:58:26Z</time>
      </trkpt>
      <trkpt lat="43.20692" lon="0.14929">
        <ele>420.6</ele>
        <time>2024-04-17T15:58:27Z</time>
      </trkpt>
      <trkpt lat="43.20691" lon="0.14925">
        <ele>420.6</ele>
        <time>2024-04-17T15:58:28Z</time>
      </trkpt>
      <trkpt lat="43.2069" lon="0.14922">
        <ele>421</ele>
        <time>2024-04-17T15:58:29Z</time>
      </trkpt>
      <trkpt lat="43.2069" lon="0.14919">
        <ele>421</ele>
        <time>2024-04-17T15:58:30Z</time>
      </trkpt>
      <trkpt lat="43.2069" lon="0.14916">
        <ele>421</ele>
        <time>2024-04-17T15:58:31Z</time>
      </trkpt>
      <trkpt lat="43.2069" lon="0.14912">
        <ele>421</ele>
        <time>2024-04-17T15:58:32Z</time>
      </trkpt>
      <trkpt lat="43.20689" lon="0.14908">
        <ele>421</ele>
        <time>2024-04-17T15:58:33Z</time>
      </trkpt>
      <trkpt lat="43.2069" lon="0.14905">
        <ele>421</ele>
        <time>2024-04-17T15:58:34Z</time>
      </trkpt>
      <trkpt lat="43.20691" lon="0.14901">
        <ele>421</ele>
        <time>2024-04-17T15:58:35Z</time>
      </trkpt>
      <trkpt lat="43.20693" lon="0.14899">
        <ele>420.8</ele>
        <time>2024-04-17T15:58:36Z</time>
      </trkpt>
      <trkpt lat="43.20696" lon="0.14896">
        <ele>420.8</ele>
        <time>2024-04-17T15:58:37Z</time>
      </trkpt>
      <trkpt lat="43.207" lon="0.14894">
        <ele>420.6</ele>
        <time>2024-04-17T15:58:38Z</time>
      </trkpt>
      <trkpt lat="43.20704" lon="0.14893">
        <ele>420.4</ele>
        <time>2024-04-17T15:58:39Z</time>
      </trkpt>
      <trkpt lat="43.20708" lon="0.14891">
        <ele>420.2</ele>
        <time>2024-04-17T15:58:40Z</time>
      </trkpt>
      <trkpt lat="43.20712" lon="0.14888">
        <ele>420</ele>
        <time>2024-04-17T15:58:41Z</time>
      </trkpt>
      <trkpt lat="43.20716" lon="0.14886">
        <ele>419.6</ele>
        <time>2024-04-17T15:58:42Z</time>
      </trkpt>
      <trkpt lat="43.20721" lon="0.14883">
        <ele>419.2</ele>
        <time>2024-04-17T15:58:43Z</time>
      </trkpt>
      <trkpt lat="43.20726" lon="0.14879">
        <ele>419</ele>
        <time>2024-04-17T15:58:44Z</time>
      </trkpt>
      <trkpt lat="43.20732" lon="0.14874">
        <ele>418.6</ele>
        <time>2024-04-17T15:58:45Z</time>
      </trkpt>
      <trkpt lat="43.20739" lon="0.14871">
        <ele>418.4</ele>
        <time>2024-04-17T15:58:46Z</time>
      </trkpt>
      <trkpt lat="43.20745" lon="0.14867">
        <ele>418.2</ele>
        <time>2024-04-17T15:58:47Z</time>
      </trkpt>
      <trkpt lat="43.20751" lon="0.14863">
        <ele>418</ele>
        <time>2024-04-17T15:58:48Z</time>
      </trkpt>
      <trkpt lat="43.20758" lon="0.1486">
        <ele>417.6</ele>
        <time>2024-04-17T15:58:49Z</time>
      </trkpt>
      <trkpt lat="43.20764" lon="0.14856">
        <ele>417.4</ele>
        <time>2024-04-17T15:58:50Z</time>
      </trkpt>
      <trkpt lat="43.20769" lon="0.14853">
        <ele>416.8</ele>
        <time>2024-04-17T15:58:51Z</time>
      </trkpt>
      <trkpt lat="43.20774" lon="0.14851">
        <ele>416</ele>
        <time>2024-04-17T15:58:52Z</time>
      </trkpt>
      <trkpt lat="43.20777" lon="0.1485">
        <ele>415.8</ele>
        <time>2024-04-17T15:58:53Z</time>
      </trkpt>
      <trkpt lat="43.20779" lon="0.14848">
        <ele>415.4</ele>
        <time>2024-04-17T15:58:54Z</time>
      </trkpt>
      <trkpt lat="43.20781" lon="0.14846">
        <ele>415.2</ele>
        <time>2024-04-17T15:58:55Z</time>
      </trkpt>
      <trkpt lat="43.20783" lon="0.14845">
        <ele>415</ele>
        <time>2024-04-17T15:58:56Z</time>
      </trkpt>
      <trkpt lat="43.20785" lon="0.14844">
        <ele>415</ele>
        <time>2024-04-17T15:58:57Z</time>
      </trkpt>
      <trkpt lat="43.20788" lon="0.14844">
        <ele>414.8</ele>
        <time>2024-04-17T15:58:58Z</time>
      </trkpt>
      <trkpt lat="43.20792" lon="0.14843">
        <ele>414.8</ele>
        <time>2024-04-17T15:58:59Z</time>
      </trkpt>
      <trkpt lat="43.20795" lon="0.14842">
        <ele>414.8</ele>
        <time>2024-04-17T15:59:00Z</time>
      </trkpt>
      <trkpt lat="43.20797" lon="0.14841">
        <ele>414.4</ele>
        <time>2024-04-17T15:59:01Z</time>
      </trkpt>
      <trkpt lat="43.208" lon="0.1484">
        <ele>414.4</ele>
        <time>2024-04-17T15:59:02Z</time>
      </trkpt>
      <trkpt lat="43.20804" lon="0.14839">
        <ele>414.4</ele>
        <time>2024-04-17T15:59:03Z</time>
      </trkpt>
      <trkpt lat="43.20807" lon="0.14839">
        <ele>414.4</ele>
        <time>2024-04-17T15:59:04Z</time>
      </trkpt>
      <trkpt lat="43.2081" lon="0.14839">
        <ele>414.6</ele>
        <time>2024-04-17T15:59:05Z</time>
      </trkpt>
      <trkpt lat="43.20814" lon="0.1484">
        <ele>414.6</ele>
        <time>2024-04-17T15:59:06Z</time>
      </trkpt>
      <trkpt lat="43.20817" lon="0.1484">
        <ele>414.2</ele>
        <time>2024-04-17T15:59:07Z</time>
      </trkpt>
      <trkpt lat="43.2082" lon="0.1484">
        <ele>414.2</ele>
        <time>2024-04-17T15:59:08Z</time>
      </trkpt>
      <trkpt lat="43.20823" lon="0.1484">
        <ele>414</ele>
        <time>2024-04-17T15:59:09Z</time>
      </trkpt>
      <trkpt lat="43.20826" lon="0.1484">
        <ele>414</ele>
        <time>2024-04-17T15:59:10Z</time>
      </trkpt>
      <trkpt lat="43.20829" lon="0.1484">
        <ele>414</ele>
        <time>2024-04-17T15:59:11Z</time>
      </trkpt>
      <trkpt lat="43.20832" lon="0.14839">
        <ele>413.8</ele>
        <time>2024-04-17T15:59:12Z</time>
      </trkpt>
      <trkpt lat="43.20835" lon="0.14839">
        <ele>413.8</ele>
        <time>2024-04-17T15:59:13Z</time>
      </trkpt>
      <trkpt lat="43.20838" lon="0.14838">
        <ele>413.8</ele>
        <time>2024-04-17T15:59:14Z</time>
      </trkpt>
      <trkpt lat="43.20841" lon="0.14837">
        <ele>413.8</ele>
        <time>2024-04-17T15:59:15Z</time>
      </trkpt>
      <trkpt lat="43.20844" lon="0.14837">
        <ele>413.6</ele>
        <time>2024-04-17T15:59:16Z</time>
      </trkpt>
      <trkpt lat="43.20848" lon="0.14836">
        <ele>413.6</ele>
        <time>2024-04-17T15:59:17Z</time>
      </trkpt>
      <trkpt lat="43.20852" lon="0.14836">
        <ele>413.6</ele>
        <time>2024-04-17T15:59:18Z</time>
      </trkpt>
      <trkpt lat="43.20857" lon="0.14835">
        <ele>413.4</ele>
        <time>2024-04-17T15:59:19Z</time>
      </trkpt>
      <trkpt lat="43.20862" lon="0.14835">
        <ele>413.4</ele>
        <time>2024-04-17T15:59:20Z</time>
      </trkpt>
      <trkpt lat="43.20867" lon="0.14834">
        <ele>413.2</ele>
        <time>2024-04-17T15:59:21Z</time>
      </trkpt>
      <trkpt lat="43.20872" lon="0.14834">
        <ele>413.2</ele>
        <time>2024-04-17T15:59:22Z</time>
      </trkpt>
      <trkpt lat="43.20875" lon="0.14833">
        <ele>412.8</ele>
        <time>2024-04-17T15:59:23Z</time>
      </trkpt>
      <trkpt lat="43.20878" lon="0.14833">
        <ele>412.6</ele>
        <time>2024-04-17T15:59:24Z</time>
      </trkpt>
      <trkpt lat="43.2088" lon="0.14833">
        <ele>412.2</ele>
        <time>2024-04-17T15:59:25Z</time>
      </trkpt>
      <trkpt lat="43.20882" lon="0.14832">
        <ele>411.8</ele>
        <time>2024-04-17T15:59:26Z</time>
      </trkpt>
      <trkpt lat="43.20884" lon="0.14832">
        <ele>411.6</ele>
        <time>2024-04-17T15:59:27Z</time>
      </trkpt>
      <trkpt lat="43.20886" lon="0.14832">
        <ele>411.4</ele>
        <time>2024-04-17T15:59:28Z</time>
      </trkpt>
      <trkpt lat="43.20888" lon="0.14832">
        <ele>411.2</ele>
        <time>2024-04-17T15:59:29Z</time>
      </trkpt>
      <trkpt lat="43.20891" lon="0.14831">
        <ele>411</ele>
        <time>2024-04-17T15:59:30Z</time>
      </trkpt>
      <trkpt lat="43.20894" lon="0.14831">
        <ele>411</ele>
        <time>2024-04-17T15:59:31Z</time>
      </trkpt>
      <trkpt lat="43.20897" lon="0.14831">
        <ele>410.8</ele>
        <time>2024-04-17T15:59:32Z</time>
      </trkpt>
      <trkpt lat="43.209" lon="0.14831">
        <ele>410.6</ele>
        <time>2024-04-17T15:59:33Z</time>
      </trkpt>
      <trkpt lat="43.20903" lon="0.14831">
        <ele>410.6</ele>
        <time>2024-04-17T15:59:34Z</time>
      </trkpt>
      <trkpt lat="43.20905" lon="0.14831">
        <ele>410.6</ele>
        <time>2024-04-17T15:59:35Z</time>
      </trkpt>
      <trkpt lat="43.20908" lon="0.1483">
        <ele>410.4</ele>
        <time>2024-04-17T15:59:36Z</time>
      </trkpt>
      <trkpt lat="43.2091" lon="0.14828">
        <ele>410.4</ele>
        <time>2024-04-17T15:59:37Z</time>
      </trkpt>
      <trkpt lat="43.20913" lon="0.14827">
        <ele>410.4</ele>
        <time>2024-04-17T15:59:38Z</time>
      </trkpt>
      <trkpt lat="43.20915" lon="0.14827">
        <ele>410.4</ele>
        <time>2024-04-17T15:59:39Z</time>
      </trkpt>
      <trkpt lat="43.20918" lon="0.14827">
        <ele>410.4</ele>
        <time>2024-04-17T15:59:40Z</time>
      </trkpt>
      <trkpt lat="43.2092" lon="0.14825">
        <ele>410.4</ele>
        <time>2024-04-17T15:59:41Z</time>
      </trkpt>
      <trkpt lat="43.20923" lon="0.14823">
        <ele>410.6</ele>
        <time>2024-04-17T15:59:42Z</time>
      </trkpt>
      <trkpt lat="43.20925" lon="0.14822">
        <ele>410.6</ele>
        <time>2024-04-17T15:59:43Z</time>
      </trkpt>
      <trkpt lat="43.20928" lon="0.1482">
        <ele>410.8</ele>
        <time>2024-04-17T15:59:44Z</time>
      </trkpt>
      <trkpt lat="43.20931" lon="0.1482">
        <ele>411</ele>
        <time>2024-04-17T15:59:45Z</time>
      </trkpt>
      <trkpt lat="43.20934" lon="0.1482">
        <ele>411</ele>
        <time>2024-04-17T15:59:46Z</time>
      </trkpt>
      <trkpt lat="43.20937" lon="0.1482">
        <ele>411</ele>
        <time>2024-04-17T15:59:47Z</time>
      </trkpt>
      <trkpt lat="43.20941" lon="0.1482">
        <ele>411.2</ele>
        <time>2024-04-17T15:59:48Z</time>
      </trkpt>
      <trkpt lat="43.20944" lon="0.1482">
        <ele>411.4</ele>
        <time>2024-04-17T15:59:49Z</time>
      </trkpt>
      <trkpt lat="43.20947" lon="0.1482">
        <ele>411.6</ele>
        <time>2024-04-17T15:59:50Z</time>
      </trkpt>
      <trkpt lat="43.20951" lon="0.1482">
        <ele>411.8</ele>
        <time>2024-04-17T15:59:51Z</time>
      </trkpt>
      <trkpt lat="43.20954" lon="0.14821">
        <ele>411.8</ele>
        <time>2024-04-17T15:59:52Z</time>
      </trkpt>
      <trkpt lat="43.20957" lon="0.1482">
        <ele>412</ele>
        <time>2024-04-17T15:59:53Z</time>
      </trkpt>
      <trkpt lat="43.2096" lon="0.1482">
        <ele>412.2</ele>
        <time>2024-04-17T15:59:54Z</time>
      </trkpt>
      <trkpt lat="43.20963" lon="0.1482">
        <ele>412.2</ele>
        <time>2024-04-17T15:59:55Z</time>
      </trkpt>
      <trkpt lat="43.20966" lon="0.1482">
        <ele>412.4</ele>
        <time>2024-04-17T15:59:56Z</time>
      </trkpt>
      <trkpt lat="43.20969" lon="0.14819">
        <ele>412.6</ele>
        <time>2024-04-17T15:59:57Z</time>
      </trkpt>
      <trkpt lat="43.20972" lon="0.14819">
        <ele>412.6</ele>
        <time>2024-04-17T15:59:58Z</time>
      </trkpt>
      <trkpt lat="43.20975" lon="0.1482">
        <ele>412.8</ele>
        <time>2024-04-17T15:59:59Z</time>
      </trkpt>
      <trkpt lat="43.20978" lon="0.14818">
        <ele>413</ele>
        <time>2024-04-17T16:00:00Z</time>
      </trkpt>
      <trkpt lat="43.20981" lon="0.14818">
        <ele>413</ele>
        <time>2024-04-17T16:00:01Z</time>
      </trkpt>
      <trkpt lat="43.20984" lon="0.14817">
        <ele>413.2</ele>
        <time>2024-04-17T16:00:02Z</time>
      </trkpt>
      <trkpt lat="43.20986" lon="0.14817">
        <ele>413.2</ele>
        <time>2024-04-17T16:00:03Z</time>
      </trkpt>
      <trkpt lat="43.20989" lon="0.14818">
        <ele>413.4</ele>
        <time>2024-04-17T16:00:04Z</time>
      </trkpt>
      <trkpt lat="43.20992" lon="0.14817">
        <ele>413.4</ele>
        <time>2024-04-17T16:00:05Z</time>
      </trkpt>
      <trkpt lat="43.20994" lon="0.14817">
        <ele>413.4</ele>
        <time>2024-04-17T16:00:06Z</time>
      </trkpt>
      <trkpt lat="43.20997" lon="0.14817">
        <ele>413.6</ele>
        <time>2024-04-17T16:00:07Z</time>
      </trkpt>
      <trkpt lat="43.20999" lon="0.14817">
        <ele>413.8</ele>
        <time>2024-04-17T16:00:08Z</time>
      </trkpt>
      <trkpt lat="43.21002" lon="0.14816">
        <ele>413.8</ele>
        <time>2024-04-17T16:00:09Z</time>
      </trkpt>
      <trkpt lat="43.21004" lon="0.14816">
        <ele>413.8</ele>
        <time>2024-04-17T16:00:10Z</time>
      </trkpt>
      <trkpt lat="43.21006" lon="0.14816">
        <ele>414</ele>
        <time>2024-04-17T16:00:11Z</time>
      </trkpt>
      <trkpt lat="43.21008" lon="0.14817">
        <ele>414.2</ele>
        <time>2024-04-17T16:00:12Z</time>
      </trkpt>
      <trkpt lat="43.2101" lon="0.14817">
        <ele>414.4</ele>
        <time>2024-04-17T16:00:13Z</time>
      </trkpt>
      <trkpt lat="43.21012" lon="0.14817">
        <ele>414.4</ele>
        <time>2024-04-17T16:00:14Z</time>
      </trkpt>
      <trkpt lat="43.21014" lon="0.14818">
        <ele>414.6</ele>
        <time>2024-04-17T16:00:15Z</time>
      </trkpt>
      <trkpt lat="43.21016" lon="0.14818">
        <ele>414.8</ele>
        <time>2024-04-17T16:00:16Z</time>
      </trkpt>
      <trkpt lat="43.21018" lon="0.14819">
        <ele>414.8</ele>
        <time>2024-04-17T16:00:17Z</time>
      </trkpt>
      <trkpt lat="43.2102" lon="0.14821">
        <ele>414.8</ele>
        <time>2024-04-17T16:00:18Z</time>
      </trkpt>
      <trkpt lat="43.21022" lon="0.14822">
        <ele>414.8</ele>
        <time>2024-04-17T16:00:19Z</time>
      </trkpt>
      <trkpt lat="43.21024" lon="0.14823">
        <ele>415</ele>
        <time>2024-04-17T16:00:20Z</time>
      </trkpt>
      <trkpt lat="43.21026" lon="0.14824">
        <ele>415</ele>
        <time>2024-04-17T16:00:21Z</time>
      </trkpt>
      <trkpt lat="43.21028" lon="0.14826">
        <ele>415.2</ele>
        <time>2024-04-17T16:00:22Z</time>
      </trkpt>
      <trkpt lat="43.2103" lon="0.14828">
        <ele>415.6</ele>
        <time>2024-04-17T16:00:23Z</time>
      </trkpt>
      <trkpt lat="43.21032" lon="0.14829">
        <ele>415.6</ele>
        <time>2024-04-17T16:00:24Z</time>
      </trkpt>
      <trkpt lat="43.21034" lon="0.14831">
        <ele>415.8</ele>
        <time>2024-04-17T16:00:25Z</time>
      </trkpt>
      <trkpt lat="43.21036" lon="0.14833">
        <ele>415.8</ele>
        <time>2024-04-17T16:00:26Z</time>
      </trkpt>
      <trkpt lat="43.21038" lon="0.14835">
        <ele>415.8</ele>
        <time>2024-04-17T16:00:27Z</time>
      </trkpt>
      <trkpt lat="43.21041" lon="0.14837">
        <ele>415.8</ele>
        <time>2024-04-17T16:00:28Z</time>
      </trkpt>
      <trkpt lat="43.21043" lon="0.14838">
        <ele>416.2</ele>
        <time>2024-04-17T16:00:29Z</time>
      </trkpt>
      <trkpt lat="43.21045" lon="0.1484">
        <ele>416.2</ele>
        <time>2024-04-17T16:00:30Z</time>
      </trkpt>
      <trkpt lat="43.21047" lon="0.14841">
        <ele>416.4</ele>
        <time>2024-04-17T16:00:31Z</time>
      </trkpt>
      <trkpt lat="43.2105" lon="0.14842">
        <ele>416.8</ele>
        <time>2024-04-17T16:00:32Z</time>
      </trkpt>
      <trkpt lat="43.21053" lon="0.14843">
        <ele>416.8</ele>
        <time>2024-04-17T16:00:33Z</time>
      </trkpt>
      <trkpt lat="43.21056" lon="0.14846">
        <ele>417.2</ele>
        <time>2024-04-17T16:00:34Z</time>
      </trkpt>
      <trkpt lat="43.21058" lon="0.14849">
        <ele>417.2</ele>
        <time>2024-04-17T16:00:35Z</time>
      </trkpt>
      <trkpt lat="43.2106" lon="0.14851">
        <ele>417.4</ele>
        <time>2024-04-17T16:00:36Z</time>
      </trkpt>
      <trkpt lat="43.21061" lon="0.14853">
        <ele>417.4</ele>
        <time>2024-04-17T16:00:37Z</time>
      </trkpt>
      <trkpt lat="43.21063" lon="0.14855">
        <ele>417.4</ele>
        <time>2024-04-17T16:00:38Z</time>
      </trkpt>
      <trkpt lat="43.21065" lon="0.14857">
        <ele>417.4</ele>
        <time>2024-04-17T16:00:39Z</time>
      </trkpt>
      <trkpt lat="43.21068" lon="0.1486">
        <ele>417.4</ele>
        <time>2024-04-17T16:00:40Z</time>
      </trkpt>
      <trkpt lat="43.2107" lon="0.14863">
        <ele>417.4</ele>
        <time>2024-04-17T16:00:41Z</time>
      </trkpt>
      <trkpt lat="43.21074" lon="0.14866">
        <ele>417.4</ele>
        <time>2024-04-17T16:00:42Z</time>
      </trkpt>
      <trkpt lat="43.21076" lon="0.14867">
        <ele>417.4</ele>
        <time>2024-04-17T16:00:43Z</time>
      </trkpt>
      <trkpt lat="43.21077" lon="0.1487">
        <ele>417.6</ele>
        <time>2024-04-17T16:00:44Z</time>
      </trkpt>
      <trkpt lat="43.21079" lon="0.14871">
        <ele>417.6</ele>
        <time>2024-04-17T16:00:45Z</time>
      </trkpt>
      <trkpt lat="43.21081" lon="0.14873">
        <ele>417.6</ele>
        <time>2024-04-17T16:00:46Z</time>
      </trkpt>
      <trkpt lat="43.21083" lon="0.14874">
        <ele>417.4</ele>
        <time>2024-04-17T16:00:47Z</time>
      </trkpt>
      <trkpt lat="43.21085" lon="0.14877">
        <ele>417.4</ele>
        <time>2024-04-17T16:00:48Z</time>
      </trkpt>
      <trkpt lat="43.21088" lon="0.1488">
        <ele>417.4</ele>
        <time>2024-04-17T16:00:49Z</time>
      </trkpt>
      <trkpt lat="43.21093" lon="0.14885">
        <ele>417.4</ele>
        <time>2024-04-17T16:00:50Z</time>
      </trkpt>
      <trkpt lat="43.21097" lon="0.14891">
        <ele>417.2</ele>
        <time>2024-04-17T16:00:51Z</time>
      </trkpt>
      <trkpt lat="43.21101" lon="0.14896">
        <ele>416.8</ele>
        <time>2024-04-17T16:00:52Z</time>
      </trkpt>
      <trkpt lat="43.21107" lon="0.14903">
        <ele>416.8</ele>
        <time>2024-04-17T16:00:53Z</time>
      </trkpt>
      <trkpt lat="43.21113" lon="0.14908">
        <ele>416.6</ele>
        <time>2024-04-17T16:00:54Z</time>
      </trkpt>
      <trkpt lat="43.21117" lon="0.14913">
        <ele>416.4</ele>
        <time>2024-04-17T16:00:55Z</time>
      </trkpt>
      <trkpt lat="43.21121" lon="0.14917">
        <ele>415.8</ele>
        <time>2024-04-17T16:00:56Z</time>
      </trkpt>
      <trkpt lat="43.21126" lon="0.14921">
        <ele>415.4</ele>
        <time>2024-04-17T16:00:57Z</time>
      </trkpt>
      <trkpt lat="43.21131" lon="0.14924">
        <ele>415</ele>
        <time>2024-04-17T16:00:58Z</time>
      </trkpt>
      <trkpt lat="43.21137" lon="0.14928">
        <ele>414.6</ele>
        <time>2024-04-17T16:00:59Z</time>
      </trkpt>
      <trkpt lat="43.21143" lon="0.14931">
        <ele>414.2</ele>
        <time>2024-04-17T16:01:00Z</time>
      </trkpt>
      <trkpt lat="43.21149" lon="0.14933">
        <ele>413.8</ele>
        <time>2024-04-17T16:01:01Z</time>
      </trkpt>
      <trkpt lat="43.21156" lon="0.14935">
        <ele>413.6</ele>
        <time>2024-04-17T16:01:02Z</time>
      </trkpt>
      <trkpt lat="43.21162" lon="0.14936">
        <ele>413.4</ele>
        <time>2024-04-17T16:01:03Z</time>
      </trkpt>
      <trkpt lat="43.21167" lon="0.14938">
        <ele>413</ele>
        <time>2024-04-17T16:01:04Z</time>
      </trkpt>
      <trkpt lat="43.21173" lon="0.14938">
        <ele>412.4</ele>
        <time>2024-04-17T16:01:05Z</time>
      </trkpt>
      <trkpt lat="43.2118" lon="0.14938">
        <ele>412</ele>
        <time>2024-04-17T16:01:06Z</time>
      </trkpt>
      <trkpt lat="43.21187" lon="0.14938">
        <ele>411.6</ele>
        <time>2024-04-17T16:01:07Z</time>
      </trkpt>
      <trkpt lat="43.21195" lon="0.14938">
        <ele>410.8</ele>
        <time>2024-04-17T16:01:08Z</time>
      </trkpt>
      <trkpt lat="43.21202" lon="0.14938">
        <ele>410.6</ele>
        <time>2024-04-17T16:01:09Z</time>
      </trkpt>
      <trkpt lat="43.21209" lon="0.14939">
        <ele>410</ele>
        <time>2024-04-17T16:01:10Z</time>
      </trkpt>
      <trkpt lat="43.21217" lon="0.14939">
        <ele>409.8</ele>
        <time>2024-04-17T16:01:11Z</time>
      </trkpt>
      <trkpt lat="43.21226" lon="0.14939">
        <ele>409.2</ele>
        <time>2024-04-17T16:01:12Z</time>
      </trkpt>
      <trkpt lat="43.21233" lon="0.14938">
        <ele>407.8</ele>
        <time>2024-04-17T16:01:13Z</time>
      </trkpt>
      <trkpt lat="43.2124" lon="0.14938">
        <ele>407.4</ele>
        <time>2024-04-17T16:01:14Z</time>
      </trkpt>
      <trkpt lat="43.21246" lon="0.14939">
        <ele>406.6</ele>
        <time>2024-04-17T16:01:15Z</time>
      </trkpt>
      <trkpt lat="43.21251" lon="0.14942">
        <ele>406.2</ele>
        <time>2024-04-17T16:01:16Z</time>
      </trkpt>
      <trkpt lat="43.21256" lon="0.14948">
        <ele>405.6</ele>
        <time>2024-04-17T16:01:17Z</time>
      </trkpt>
      <trkpt lat="43.2126" lon="0.14954">
        <ele>404.8</ele>
        <time>2024-04-17T16:01:18Z</time>
      </trkpt>
      <trkpt lat="43.21264" lon="0.1496">
        <ele>403.8</ele>
        <time>2024-04-17T16:01:19Z</time>
      </trkpt>
      <trkpt lat="43.21268" lon="0.14967">
        <ele>403.2</ele>
        <time>2024-04-17T16:01:20Z</time>
      </trkpt>
      <trkpt lat="43.21272" lon="0.14972">
        <ele>402.6</ele>
        <time>2024-04-17T16:01:21Z</time>
      </trkpt>
      <trkpt lat="43.21277" lon="0.14977">
        <ele>402.2</ele>
        <time>2024-04-17T16:01:22Z</time>
      </trkpt>
      <trkpt lat="43.21281" lon="0.14982">
        <ele>402</ele>
        <time>2024-04-17T16:01:23Z</time>
      </trkpt>
      <trkpt lat="43.21285" lon="0.14986">
        <ele>401.8</ele>
        <time>2024-04-17T16:01:24Z</time>
      </trkpt>
      <trkpt lat="43.2129" lon="0.14989">
        <ele>401.8</ele>
        <time>2024-04-17T16:01:25Z</time>
      </trkpt>
      <trkpt lat="43.21293" lon="0.14992">
        <ele>401.6</ele>
        <time>2024-04-17T16:01:26Z</time>
      </trkpt>
      <trkpt lat="43.21297" lon="0.14995">
        <ele>401.4</ele>
        <time>2024-04-17T16:01:27Z</time>
      </trkpt>
      <trkpt lat="43.213" lon="0.14998">
        <ele>401.4</ele>
        <time>2024-04-17T16:01:28Z</time>
      </trkpt>
      <trkpt lat="43.21302" lon="0.15">
        <ele>401.4</ele>
        <time>2024-04-17T16:01:29Z</time>
      </trkpt>
      <trkpt lat="43.21304" lon="0.15003">
        <ele>401.4</ele>
        <time>2024-04-17T16:01:30Z</time>
      </trkpt>
      <trkpt lat="43.21307" lon="0.15005">
        <ele>401.6</ele>
        <time>2024-04-17T16:01:31Z</time>
      </trkpt>
      <trkpt lat="43.21309" lon="0.15008">
        <ele>401.6</ele>
        <time>2024-04-17T16:01:32Z</time>
      </trkpt>
      <trkpt lat="43.21311" lon="0.1501">
        <ele>401.6</ele>
        <time>2024-04-17T16:01:33Z</time>
      </trkpt>
      <trkpt lat="43.21314" lon="0.15013">
        <ele>401.6</ele>
        <time>2024-04-17T16:01:34Z</time>
      </trkpt>
      <trkpt lat="43.21316" lon="0.15015">
        <ele>401.8</ele>
        <time>2024-04-17T16:01:35Z</time>
      </trkpt>
      <trkpt lat="43.21318" lon="0.15017">
        <ele>401.8</ele>
        <time>2024-04-17T16:01:36Z</time>
      </trkpt>
      <trkpt lat="43.2132" lon="0.1502">
        <ele>402</ele>
        <time>2024-04-17T16:01:37Z</time>
      </trkpt>
      <trkpt lat="43.21321" lon="0.15022">
        <ele>402</ele>
        <time>2024-04-17T16:01:38Z</time>
      </trkpt>
      <trkpt lat="43.21323" lon="0.15023">
        <ele>402</ele>
        <time>2024-04-17T16:01:39Z</time>
      </trkpt>
      <trkpt lat="43.21325" lon="0.15025">
        <ele>402.2</ele>
        <time>2024-04-17T16:01:40Z</time>
      </trkpt>
      <trkpt lat="43.21327" lon="0.15026">
        <ele>402.2</ele>
        <time>2024-04-17T16:01:41Z</time>
      </trkpt>
      <trkpt lat="43.21329" lon="0.15027">
        <ele>402.2</ele>
        <time>2024-04-17T16:01:42Z</time>
      </trkpt>
      <trkpt lat="43.2133" lon="0.15028">
        <ele>402.4</ele>
        <time>2024-04-17T16:01:43Z</time>
      </trkpt>
      <trkpt lat="43.21331" lon="0.15028">
        <ele>402.4</ele>
        <time>2024-04-17T16:01:44Z</time>
      </trkpt>
      <trkpt lat="43.21332" lon="0.15029">
        <ele>402.6</ele>
        <time>2024-04-17T16:01:45Z</time>
      </trkpt>
      <trkpt lat="43.21332" lon="0.15029">
        <ele>402.6</ele>
        <time>2024-04-17T16:01:46Z</time>
      </trkpt>
      <trkpt lat="43.21333" lon="0.1503">
        <ele>402.8</ele>
        <time>2024-04-17T16:01:47Z</time>
      </trkpt>
      <trkpt lat="43.21333" lon="0.1503">
        <ele>402.8</ele>
        <time>2024-04-17T16:01:48Z</time>
      </trkpt>
      <trkpt lat="43.21334" lon="0.15031">
        <ele>403</ele>
        <time>2024-04-17T16:01:49Z</time>
      </trkpt>
      <trkpt lat="43.21335" lon="0.15032">
        <ele>403</ele>
        <time>2024-04-17T16:01:50Z</time>
      </trkpt>
      <trkpt lat="43.21335" lon="0.15032">
        <ele>403</ele>
        <time>2024-04-17T16:01:51Z</time>
      </trkpt>
      <trkpt lat="43.21336" lon="0.15034">
        <ele>403</ele>
        <time>2024-04-17T16:01:52Z</time>
      </trkpt>
      <trkpt lat="43.21337" lon="0.15035">
        <ele>403</ele>
        <time>2024-04-17T16:01:53Z</time>
      </trkpt>
      <trkpt lat="43.21337" lon="0.15035">
        <ele>403</ele>
        <time>2024-04-17T16:01:54Z</time>
      </trkpt>
      <trkpt lat="43.21337" lon="0.15035">
        <ele>403</ele>
        <time>2024-04-17T16:01:55Z</time>
      </trkpt>
      <trkpt lat="43.21337" lon="0.15035">
        <ele>403</ele>
        <time>2024-04-17T16:01:56Z</time>
      </trkpt>
      <trkpt lat="43.21337" lon="0.15035">
        <ele>403.2</ele>
        <time>2024-04-17T16:01:57Z</time>
      </trkpt>
      <trkpt lat="43.21337" lon="0.15035">
        <ele>403.2</ele>
        <time>2024-04-17T16:01:58Z</time>
      </trkpt>
      <trkpt lat="43.21337" lon="0.15035">
        <ele>403.2</ele>
        <time>2024-04-17T16:01:59Z</time>
      </trkpt>
      <trkpt lat="43.21337" lon="0.15035">
        <ele>403.2</ele>
        <time>2024-04-17T16:02:00Z</time>
      </trkpt>
      <trkpt lat="43.21337" lon="0.15035">
        <ele>403.2</ele>
        <time>2024-04-17T16:02:01Z</time>
      </trkpt>
      <trkpt lat="43.21337" lon="0.15035">
        <ele>403.2</ele>
        <time>2024-04-17T16:02:02Z</time>
      </trkpt>
      <trkpt lat="43.21337" lon="0.15035">
        <ele>403.2</ele>
        <time>2024-04-17T16:02:03Z</time>
      </trkpt>
      <trkpt lat="43.21337" lon="0.15035">
        <ele>403.2</ele>
        <time>2024-04-17T16:02:04Z</time>
      </trkpt>
      <trkpt lat="43.21337" lon="0.15035">
        <ele>403.2</ele>
        <time>2024-04-17T16:02:05Z</time>
      </trkpt>
      <trkpt lat="43.21337" lon="0.15035">
        <ele>403.2</ele>
        <time>2024-04-17T16:02:06Z</time>
      </trkpt>
      <trkpt lat="43.21337" lon="0.15035">
        <ele>403.2</ele>
        <time>2024-04-17T16:02:07Z</time>
      </trkpt>
      <trkpt lat="43.21337" lon="0.15035">
        <ele>403.2</ele>
        <time>2024-04-17T16:02:08Z</time>
      </trkpt>
      <trkpt lat="43.21337" lon="0.15035">
        <ele>403.2</ele>
        <time>2024-04-17T16:02:09Z</time>
      </trkpt>
      <trkpt lat="43.21337" lon="0.15035">
        <ele>403.2</ele>
        <time>2024-04-17T16:02:10Z</time>
      </trkpt>
      <trkpt lat="43.21337" lon="0.15035">
        <ele>403.2</ele>
        <time>2024-04-17T16:02:11Z</time>
      </trkpt>
      <trkpt lat="43.21337" lon="0.15035">
        <ele>403.2</ele>
        <time>2024-04-17T16:02:12Z</time>
      </trkpt>
      <trkpt lat="43.21337" lon="0.15035">
        <ele>403.2</ele>
        <time>2024-04-17T16:02:13Z</time>
      </trkpt>
      <trkpt lat="43.21337" lon="0.15035">
        <ele>403.2</ele>
        <time>2024-04-17T16:02:14Z</time>
      </trkpt>
      <trkpt lat="43.21337" lon="0.15035">
        <ele>403.2</ele>
        <time>2024-04-17T16:02:15Z</time>
      </trkpt>
      <trkpt lat="43.21337" lon="0.15035">
        <ele>403.2</ele>
        <time>2024-04-17T16:02:16Z</time>
      </trkpt>
      <trkpt lat="43.21337" lon="0.15035">
        <ele>403.2</ele>
        <time>2024-04-17T16:02:17Z</time>
      </trkpt>
      <trkpt lat="43.21337" lon="0.15035">
        <ele>403.2</ele>
        <time>2024-04-17T16:02:18Z</time>
      </trkpt>
      <trkpt lat="43.21337" lon="0.15035">
        <ele>403.2</ele>
        <time>2024-04-17T16:02:19Z</time>
      </trkpt>
      <trkpt lat="43.21337" lon="0.15035">
        <ele>403.2</ele>
        <time>2024-04-17T16:02:20Z</time>
      </trkpt>
      <trkpt lat="43.21337" lon="0.15035">
        <ele>403.2</ele>
        <time>2024-04-17T16:02:21Z</time>
      </trkpt>
      <trkpt lat="43.21337" lon="0.15035">
        <ele>403.2</ele>
        <time>2024-04-17T16:02:22Z</time>
      </trkpt>
      <trkpt lat="43.21337" lon="0.15035">
        <ele>403.2</ele>
        <time>2024-04-17T16:02:23Z</time>
      </trkpt>
      <trkpt lat="43.21337" lon="0.15035">
        <ele>403.2</ele>
        <time>2024-04-17T16:02:24Z</time>
      </trkpt>
      <trkpt lat="43.21337" lon="0.15035">
        <ele>403.2</ele>
        <time>2024-04-17T16:02:25Z</time>
      </trkpt>
      <trkpt lat="43.21337" lon="0.15035">
        <ele>403.2</ele>
        <time>2024-04-17T16:02:26Z</time>
      </trkpt>
      <trkpt lat="43.21337" lon="0.15035">
        <ele>403.2</ele>
        <time>2024-04-17T16:02:27Z</time>
      </trkpt>
      <trkpt lat="43.21337" lon="0.15035">
        <ele>403.2</ele>
        <time>2024-04-17T16:02:28Z</time>
      </trkpt>
      <trkpt lat="43.21337" lon="0.15035">
        <ele>403.2</ele>
        <time>2024-04-17T16:02:29Z</time>
      </trkpt>
      <trkpt lat="43.21337" lon="0.15035">
        <ele>403.2</ele>
        <time>2024-04-17T16:02:30Z</time>
      </trkpt>
      <trkpt lat="43.21337" lon="0.15035">
        <ele>403.2</ele>
        <time>2024-04-17T16:02:31Z</time>
      </trkpt>
      <trkpt lat="43.21337" lon="0.15035">
        <ele>403.2</ele>
        <time>2024-04-17T16:02:32Z</time>
      </trkpt>
      <trkpt lat="43.21337" lon="0.15035">
        <ele>403.2</ele>
        <time>2024-04-17T16:02:33Z</time>
      </trkpt>
      <trkpt lat="43.21337" lon="0.15035">
        <ele>403.2</ele>
        <time>2024-04-17T16:02:34Z</time>
      </trkpt>
      <trkpt lat="43.21337" lon="0.15035">
        <ele>403.2</ele>
        <time>2024-04-17T16:02:35Z</time>
      </trkpt>
      <trkpt lat="43.21337" lon="0.15035">
        <ele>403.2</ele>
        <time>2024-04-17T16:02:36Z</time>
      </trkpt>
      <trkpt lat="43.21337" lon="0.15035">
        <ele>403.2</ele>
        <time>2024-04-17T16:02:37Z</time>
      </trkpt>
      <trkpt lat="43.21337" lon="0.15035">
        <ele>403.2</ele>
        <time>2024-04-17T16:02:38Z</time>
      </trkpt>
      <trkpt lat="43.21337" lon="0.15035">
        <ele>403.2</ele>
        <time>2024-04-17T16:02:39Z</time>
      </trkpt>
      <trkpt lat="43.21337" lon="0.15035">
        <ele>403.2</ele>
        <time>2024-04-17T16:02:40Z</time>
      </trkpt>
      <trkpt lat="43.21337" lon="0.15035">
        <ele>403.2</ele>
        <time>2024-04-17T16:02:41Z</time>
      </trkpt>
      <trkpt lat="43.21337" lon="0.15035">
        <ele>403.2</ele>
        <time>2024-04-17T16:02:42Z</time>
      </trkpt>
      <trkpt lat="43.21337" lon="0.15035">
        <ele>403.2</ele>
        <time>2024-04-17T16:02:43Z</time>
      </trkpt>
      <trkpt lat="43.21337" lon="0.15035">
        <ele>403.2</ele>
        <time>2024-04-17T16:02:44Z</time>
      </trkpt>
      <trkpt lat="43.21337" lon="0.15035">
        <ele>403.2</ele>
        <time>2024-04-17T16:02:45Z</time>
      </trkpt>
      <trkpt lat="43.21337" lon="0.15035">
        <ele>403.2</ele>
        <time>2024-04-17T16:02:46Z</time>
      </trkpt>
      <trkpt lat="43.21337" lon="0.15035">
        <ele>403.2</ele>
        <time>2024-04-17T16:02:47Z</time>
      </trkpt>
      <trkpt lat="43.21337" lon="0.15035">
        <ele>403.2</ele>
        <time>2024-04-17T16:02:48Z</time>
      </trkpt>
      <trkpt lat="43.21337" lon="0.15035">
        <ele>403.2</ele>
        <time>2024-04-17T16:02:49Z</time>
      </trkpt>
      <trkpt lat="43.21337" lon="0.15035">
        <ele>403.2</ele>
        <time>2024-04-17T16:02:50Z</time>
      </trkpt>
      <trkpt lat="43.21337" lon="0.15035">
        <ele>403.2</ele>
        <time>2024-04-17T16:02:51Z</time>
      </trkpt>
      <trkpt lat="43.21337" lon="0.15035">
        <ele>403.2</ele>
        <time>2024-04-17T16:02:52Z</time>
      </trkpt>
      <trkpt lat="43.21337" lon="0.15035">
        <ele>403.2</ele>
        <time>2024-04-17T16:02:53Z</time>
      </trkpt>
      <trkpt lat="43.21337" lon="0.15035">
        <ele>403.2</ele>
        <time>2024-04-17T16:02:54Z</time>
      </trkpt>
      <trkpt lat="43.21337" lon="0.15035">
        <ele>403.2</ele>
        <time>2024-04-17T16:02:55Z</time>
      </trkpt>
      <trkpt lat="43.21337" lon="0.15035">
        <ele>403.2</ele>
        <time>2024-04-17T16:02:56Z</time>
      </trkpt>
      <trkpt lat="43.21337" lon="0.15035">
        <ele>403.2</ele>
        <time>2024-04-17T16:02:57Z</time>
      </trkpt>
      <trkpt lat="43.21337" lon="0.15035">
        <ele>403.2</ele>
        <time>2024-04-17T16:02:58Z</time>
      </trkpt>
      <trkpt lat="43.21337" lon="0.15035">
        <ele>403.2</ele>
        <time>2024-04-17T16:02:59Z</time>
      </trkpt>
      <trkpt lat="43.21337" lon="0.15035">
        <ele>403.2</ele>
        <time>2024-04-17T16:03:00Z</time>
      </trkpt>
      <trkpt lat="43.21337" lon="0.15035">
        <ele>403.2</ele>
        <time>2024-04-17T16:03:01Z</time>
      </trkpt>
      <trkpt lat="43.21337" lon="0.15035">
        <ele>403</ele>
        <time>2024-04-17T16:03:02Z</time>
      </trkpt>
      <trkpt lat="43.21337" lon="0.15035">
        <ele>403.2</ele>
        <time>2024-04-17T16:03:03Z</time>
      </trkpt>
      <trkpt lat="43.21337" lon="0.15035">
        <ele>403.2</ele>
        <time>2024-04-17T16:03:04Z</time>
      </trkpt>
      <trkpt lat="43.21337" lon="0.15035">
        <ele>403.2</ele>
        <time>2024-04-17T16:03:05Z</time>
      </trkpt>
      <trkpt lat="43.21337" lon="0.15035">
        <ele>403.2</ele>
        <time>2024-04-17T16:03:06Z</time>
      </trkpt>
      <trkpt lat="43.21337" lon="0.15035">
        <ele>403.2</ele>
        <time>2024-04-17T16:03:07Z</time>
      </trkpt>
      <trkpt lat="43.21337" lon="0.15035">
        <ele>403.2</ele>
        <time>2024-04-17T16:03:08Z</time>
      </trkpt>
      <trkpt lat="43.21337" lon="0.15035">
        <ele>403.2</ele>
        <time>2024-04-17T16:03:09Z</time>
      </trkpt>
      <trkpt lat="43.21337" lon="0.15035">
        <ele>403.2</ele>
        <time>2024-04-17T16:03:10Z</time>
      </trkpt>
      <trkpt lat="43.21337" lon="0.15035">
        <ele>403.2</ele>
        <time>2024-04-17T16:03:11Z</time>
      </trkpt>
      <trkpt lat="43.21337" lon="0.15035">
        <ele>403.2</ele>
        <time>2024-04-17T16:03:12Z</time>
      </trkpt>
      <trkpt lat="43.21337" lon="0.15035">
        <ele>403.2</ele>
        <time>2024-04-17T16:03:13Z</time>
      </trkpt>
      <trkpt lat="43.21337" lon="0.15035">
        <ele>403.2</ele>
        <time>2024-04-17T16:03:14Z</time>
      </trkpt>
      <trkpt lat="43.21337" lon="0.15035">
        <ele>403.2</ele>
        <time>2024-04-17T16:03:15Z</time>
      </trkpt>
      <trkpt lat="43.21337" lon="0.15035">
        <ele>403.2</ele>
        <time>2024-04-17T16:03:16Z</time>
      </trkpt>
      <trkpt lat="43.21337" lon="0.15035">
        <ele>403.2</ele>
        <time>2024-04-17T16:03:17Z</time>
      </trkpt>
      <trkpt lat="43.21337" lon="0.15035">
        <ele>403.2</ele>
        <time>2024-04-17T16:03:18Z</time>
      </trkpt>
      <trkpt lat="43.21337" lon="0.15035">
        <ele>403.2</ele>
        <time>2024-04-17T16:03:19Z</time>
      </trkpt>
      <trkpt lat="43.21337" lon="0.15035">
        <ele>403.2</ele>
        <time>2024-04-17T16:03:20Z</time>
      </trkpt>
      <trkpt lat="43.21337" lon="0.15035">
        <ele>403.4</ele>
        <time>2024-04-17T16:03:21Z</time>
      </trkpt>
      <trkpt lat="43.21337" lon="0.15035">
        <ele>403.4</ele>
        <time>2024-04-17T16:03:22Z</time>
      </trkpt>
      <trkpt lat="43.21337" lon="0.15035">
        <ele>403.4</ele>
        <time>2024-04-17T16:03:23Z</time>
      </trkpt>
      <trkpt lat="43.21337" lon="0.15035">
        <ele>403.4</ele>
        <time>2024-04-17T16:03:24Z</time>
      </trkpt>
      <trkpt lat="43.21337" lon="0.15035">
        <ele>403.4</ele>
        <time>2024-04-17T16:03:25Z</time>
      </trkpt>
      <trkpt lat="43.21338" lon="0.15035">
        <ele>403.4</ele>
        <time>2024-04-17T16:03:26Z</time>
      </trkpt>
      <trkpt lat="43.21338" lon="0.15035">
        <ele>403.4</ele>
        <time>2024-04-17T16:03:27Z</time>
      </trkpt>
      <trkpt lat="43.21338" lon="0.15035">
        <ele>403.4</ele>
        <time>2024-04-17T16:03:28Z</time>
      </trkpt>
      <trkpt lat="43.21338" lon="0.15035">
        <ele>403.4</ele>
        <time>2024-04-17T16:03:29Z</time>
      </trkpt>
      <trkpt lat="43.21338" lon="0.15035">
        <ele>403.4</ele>
        <time>2024-04-17T16:03:30Z</time>
      </trkpt>
      <trkpt lat="43.21338" lon="0.15035">
        <ele>403.4</ele>
        <time>2024-04-17T16:03:31Z</time>
      </trkpt>
      <trkpt lat="43.21338" lon="0.15035">
        <ele>403.4</ele>
        <time>2024-04-17T16:03:32Z</time>
      </trkpt>
      <trkpt lat="43.21338" lon="0.15035">
        <ele>403.4</ele>
        <time>2024-04-17T16:03:33Z</time>
      </trkpt>
      <trkpt lat="43.21338" lon="0.15035">
        <ele>403.4</ele>
        <time>2024-04-17T16:03:34Z</time>
      </trkpt>
      <trkpt lat="43.21338" lon="0.15035">
        <ele>403.4</ele>
        <time>2024-04-17T16:03:35Z</time>
      </trkpt>
      <trkpt lat="43.21338" lon="0.15035">
        <ele>403.4</ele>
        <time>2024-04-17T16:03:36Z</time>
      </trkpt>
      <trkpt lat="43.21338" lon="0.15035">
        <ele>403.4</ele>
        <time>2024-04-17T16:03:37Z</time>
      </trkpt>
      <trkpt lat="43.21338" lon="0.15035">
        <ele>403.2</ele>
        <time>2024-04-17T16:03:38Z</time>
      </trkpt>
      <trkpt lat="43.21338" lon="0.15035">
        <ele>403.2</ele>
        <time>2024-04-17T16:03:39Z</time>
      </trkpt>
      <trkpt lat="43.21338" lon="0.15035">
        <ele>403.2</ele>
        <time>2024-04-17T16:03:40Z</time>
      </trkpt>
      <trkpt lat="43.21338" lon="0.15035">
        <ele>403.2</ele>
        <time>2024-04-17T16:03:41Z</time>
      </trkpt>
      <trkpt lat="43.21338" lon="0.15035">
        <ele>403.2</ele>
        <time>2024-04-17T16:03:42Z</time>
      </trkpt>
      <trkpt lat="43.21338" lon="0.15035">
        <ele>403.2</ele>
        <time>2024-04-17T16:03:43Z</time>
      </trkpt>
      <trkpt lat="43.21338" lon="0.15035">
        <ele>403.2</ele>
        <time>2024-04-17T16:03:44Z</time>
      </trkpt>
      <trkpt lat="43.21338" lon="0.15035">
        <ele>403.2</ele>
        <time>2024-04-17T16:03:45Z</time>
      </trkpt>
      <trkpt lat="43.21338" lon="0.15035">
        <ele>403.2</ele>
        <time>2024-04-17T16:03:46Z</time>
      </trkpt>
      <trkpt lat="43.21338" lon="0.15035">
        <ele>403.2</ele>
        <time>2024-04-17T16:03:47Z</time>
      </trkpt>
      <trkpt lat="43.21338" lon="0.15035">
        <ele>403.2</ele>
        <time>2024-04-17T16:03:48Z</time>
      </trkpt>
      <trkpt lat="43.21338" lon="0.15035">
        <ele>403.2</ele>
        <time>2024-04-17T16:03:49Z</time>
      </trkpt>
      <trkpt lat="43.21338" lon="0.15035">
        <ele>403.2</ele>
        <time>2024-04-17T16:03:50Z</time>
      </trkpt>
      <trkpt lat="43.21338" lon="0.15035">
        <ele>403.2</ele>
        <time>2024-04-17T16:03:51Z</time>
      </trkpt>
      <trkpt lat="43.21338" lon="0.15035">
        <ele>403.2</ele>
        <time>2024-04-17T16:03:52Z</time>
      </trkpt>
      <trkpt lat="43.21338" lon="0.15035">
        <ele>403.4</ele>
        <time>2024-04-17T16:03:53Z</time>
      </trkpt>
      <trkpt lat="43.21338" lon="0.15035">
        <ele>403.4</ele>
        <time>2024-04-17T16:03:54Z</time>
      </trkpt>
      <trkpt lat="43.21338" lon="0.15035">
        <ele>403.4</ele>
        <time>2024-04-17T16:03:55Z</time>
      </trkpt>
      <trkpt lat="43.21338" lon="0.15035">
        <ele>403.4</ele>
        <time>2024-04-17T16:03:56Z</time>
      </trkpt>
      <trkpt lat="43.21338" lon="0.15035">
        <ele>403.4</ele>
        <time>2024-04-17T16:03:57Z</time>
      </trkpt>
      <trkpt lat="43.21338" lon="0.15035">
        <ele>403.4</ele>
        <time>2024-04-17T16:03:58Z</time>
      </trkpt>
      <trkpt lat="43.21338" lon="0.15035">
        <ele>403.4</ele>
        <time>2024-04-17T16:03:59Z</time>
      </trkpt>
      <trkpt lat="43.21338" lon="0.15035">
        <ele>403.4</ele>
        <time>2024-04-17T16:04:00Z</time>
      </trkpt>
      <trkpt lat="43.21338" lon="0.15035">
        <ele>403.4</ele>
        <time>2024-04-17T16:04:01Z</time>
      </trkpt>
      <trkpt lat="43.21338" lon="0.15035">
        <ele>403.4</ele>
        <time>2024-04-17T16:04:02Z</time>
      </trkpt>
      <trkpt lat="43.21338" lon="0.15035">
        <ele>403.4</ele>
        <time>2024-04-17T16:04:03Z</time>
      </trkpt>
      <trkpt lat="43.21338" lon="0.15035">
        <ele>403.4</ele>
        <time>2024-04-17T16:04:04Z</time>
      </trkpt>
      <trkpt lat="43.21338" lon="0.15035">
        <ele>403.4</ele>
        <time>2024-04-17T16:04:05Z</time>
      </trkpt>
      <trkpt lat="43.21339" lon="0.15035">
        <ele>403.4</ele>
        <time>2024-04-17T16:04:06Z</time>
      </trkpt>
      <trkpt lat="43.21339" lon="0.15035">
        <ele>403.4</ele>
        <time>2024-04-17T16:04:07Z</time>
      </trkpt>
      <trkpt lat="43.21339" lon="0.15035">
        <ele>403.4</ele>
        <time>2024-04-17T16:04:08Z</time>
      </trkpt>
      <trkpt lat="43.21339" lon="0.15035">
        <ele>403.4</ele>
        <time>2024-04-17T16:04:09Z</time>
      </trkpt>
      <trkpt lat="43.21339" lon="0.15035">
        <ele>403.4</ele>
        <time>2024-04-17T16:04:10Z</time>
      </trkpt>
      <trkpt lat="43.21339" lon="0.15035">
        <ele>403.4</ele>
        <time>2024-04-17T16:04:11Z</time>
      </trkpt>
      <trkpt lat="43.21339" lon="0.15035">
        <ele>403.4</ele>
        <time>2024-04-17T16:04:12Z</time>
      </trkpt>
      <trkpt lat="43.21339" lon="0.15035">
        <ele>403.4</ele>
        <time>2024-04-17T16:04:13Z</time>
      </trkpt>
      <trkpt lat="43.21339" lon="0.15035">
        <ele>403.4</ele>
        <time>2024-04-17T16:04:14Z</time>
      </trkpt>
      <trkpt lat="43.21339" lon="0.15035">
        <ele>403.4</ele>
        <time>2024-04-17T16:04:15Z</time>
      </trkpt>
      <trkpt lat="43.21339" lon="0.15035">
        <ele>403.4</ele>
        <time>2024-04-17T16:04:16Z</time>
      </trkpt>
      <trkpt lat="43.21339" lon="0.15035">
        <ele>403.4</ele>
        <time>2024-04-17T16:04:17Z</time>
      </trkpt>
      <trkpt lat="43.21339" lon="0.15035">
        <ele>403.4</ele>
        <time>2024-04-17T16:04:18Z</time>
      </trkpt>
      <trkpt lat="43.21339" lon="0.15035">
        <ele>403.4</ele>
        <time>2024-04-17T16:04:19Z</time>
      </trkpt>
      <trkpt lat="43.21339" lon="0.15035">
        <ele>403.4</ele>
        <time>2024-04-17T16:04:20Z</time>
      </trkpt>
      <trkpt lat="43.21339" lon="0.15035">
        <ele>403.6</ele>
        <time>2024-04-17T16:04:21Z</time>
      </trkpt>
      <trkpt lat="43.21339" lon="0.15035">
        <ele>403.6</ele>
        <time>2024-04-17T16:04:22Z</time>
      </trkpt>
      <trkpt lat="43.21339" lon="0.15035">
        <ele>403.6</ele>
        <time>2024-04-17T16:04:23Z</time>
      </trkpt>
      <trkpt lat="43.21339" lon="0.15035">
        <ele>403.6</ele>
        <time>2024-04-17T16:04:24Z</time>
      </trkpt>
      <trkpt lat="43.21339" lon="0.15035">
        <ele>403.6</ele>
        <time>2024-04-17T16:04:25Z</time>
      </trkpt>
      <trkpt lat="43.21339" lon="0.15035">
        <ele>403.6</ele>
        <time>2024-04-17T16:04:26Z</time>
      </trkpt>
      <trkpt lat="43.21339" lon="0.15035">
        <ele>403.6</ele>
        <time>2024-04-17T16:04:27Z</time>
      </trkpt>
      <trkpt lat="43.21339" lon="0.15035">
        <ele>403.8</ele>
        <time>2024-04-17T16:04:28Z</time>
      </trkpt>
      <trkpt lat="43.21339" lon="0.15035">
        <ele>403.8</ele>
        <time>2024-04-17T16:04:29Z</time>
      </trkpt>
      <trkpt lat="43.21339" lon="0.15035">
        <ele>403.6</ele>
        <time>2024-04-17T16:04:30Z</time>
      </trkpt>
      <trkpt lat="43.21339" lon="0.15035">
        <ele>403.8</ele>
        <time>2024-04-17T16:04:31Z</time>
      </trkpt>
      <trkpt lat="43.21339" lon="0.15035">
        <ele>403.8</ele>
        <time>2024-04-17T16:04:32Z</time>
      </trkpt>
      <trkpt lat="43.21339" lon="0.15035">
        <ele>403.8</ele>
        <time>2024-04-17T16:04:33Z</time>
      </trkpt>
      <trkpt lat="43.21339" lon="0.15035">
        <ele>403.8</ele>
        <time>2024-04-17T16:04:34Z</time>
      </trkpt>
      <trkpt lat="43.21339" lon="0.15035">
        <ele>403.8</ele>
        <time>2024-04-17T16:04:35Z</time>
      </trkpt>
      <trkpt lat="43.21339" lon="0.15035">
        <ele>403.8</ele>
        <time>2024-04-17T16:04:36Z</time>
      </trkpt>
      <trkpt lat="43.21339" lon="0.15035">
        <ele>403.8</ele>
        <time>2024-04-17T16:04:37Z</time>
      </trkpt>
      <trkpt lat="43.21339" lon="0.15035">
        <ele>403.8</ele>
        <time>2024-04-17T16:04:38Z</time>
      </trkpt>
      <trkpt lat="43.21339" lon="0.15035">
        <ele>403.8</ele>
        <time>2024-04-17T16:04:39Z</time>
      </trkpt>
      <trkpt lat="43.21339" lon="0.15035">
        <ele>403.8</ele>
        <time>2024-04-17T16:04:40Z</time>
      </trkpt>
      <trkpt lat="43.21339" lon="0.15035">
        <ele>403.8</ele>
        <time>2024-04-17T16:04:41Z</time>
      </trkpt>
      <trkpt lat="43.21339" lon="0.15035">
        <ele>403.8</ele>
        <time>2024-04-17T16:04:42Z</time>
      </trkpt>
      <trkpt lat="43.21339" lon="0.15035">
        <ele>403.8</ele>
        <time>2024-04-17T16:04:43Z</time>
      </trkpt>
      <trkpt lat="43.21339" lon="0.15035">
        <ele>403.8</ele>
        <time>2024-04-17T16:04:44Z</time>
      </trkpt>
      <trkpt lat="43.21339" lon="0.15035">
        <ele>403.8</ele>
        <time>2024-04-17T16:04:45Z</time>
      </trkpt>
      <trkpt lat="43.21339" lon="0.15035">
        <ele>403.8</ele>
        <time>2024-04-17T16:04:46Z</time>
      </trkpt>
      <trkpt lat="43.21339" lon="0.15035">
        <ele>403.8</ele>
        <time>2024-04-17T16:04:47Z</time>
      </trkpt>
      <trkpt lat="43.21339" lon="0.15035">
        <ele>403.8</ele>
        <time>2024-04-17T16:04:48Z</time>
      </trkpt>
      <trkpt lat="43.21339" lon="0.15035">
        <ele>403.8</ele>
        <time>2024-04-17T16:04:49Z</time>
      </trkpt>
      <trkpt lat="43.21339" lon="0.15035">
        <ele>403.8</ele>
        <time>2024-04-17T16:04:50Z</time>
      </trkpt>
      <trkpt lat="43.21339" lon="0.15035">
        <ele>403.8</ele>
        <time>2024-04-17T16:04:51Z</time>
      </trkpt>
      <trkpt lat="43.21339" lon="0.15035">
        <ele>403.6</ele>
        <time>2024-04-17T16:04:52Z</time>
      </trkpt>
      <trkpt lat="43.21339" lon="0.15035">
        <ele>403.6</ele>
        <time>2024-04-17T16:04:53Z</time>
      </trkpt>
      <trkpt lat="43.21339" lon="0.15035">
        <ele>403.6</ele>
        <time>2024-04-17T16:04:54Z</time>
      </trkpt>
      <trkpt lat="43.21339" lon="0.15035">
        <ele>403.6</ele>
        <time>2024-04-17T16:04:55Z</time>
      </trkpt>
      <trkpt lat="43.21339" lon="0.15035">
        <ele>403.6</ele>
        <time>2024-04-17T16:04:56Z</time>
      </trkpt>
      <trkpt lat="43.21338" lon="0.15035">
        <ele>403.6</ele>
        <time>2024-04-17T16:04:57Z</time>
      </trkpt>
      <trkpt lat="43.21338" lon="0.15035">
        <ele>403.6</ele>
        <time>2024-04-17T16:04:58Z</time>
      </trkpt>
      <trkpt lat="43.21338" lon="0.15035">
        <ele>403.6</ele>
        <time>2024-04-17T16:04:59Z</time>
      </trkpt>
      <trkpt lat="43.21338" lon="0.15035">
        <ele>403.6</ele>
        <time>2024-04-17T16:05:00Z</time>
      </trkpt>
      <trkpt lat="43.21338" lon="0.15035">
        <ele>403.6</ele>
        <time>2024-04-17T16:05:01Z</time>
      </trkpt>
      <trkpt lat="43.21338" lon="0.15035">
        <ele>403.6</ele>
        <time>2024-04-17T16:05:02Z</time>
      </trkpt>
      <trkpt lat="43.21338" lon="0.15035">
        <ele>403.6</ele>
        <time>2024-04-17T16:05:03Z</time>
      </trkpt>
      <trkpt lat="43.21338" lon="0.15035">
        <ele>403.6</ele>
        <time>2024-04-17T16:05:04Z</time>
      </trkpt>
      <trkpt lat="43.21338" lon="0.15035">
        <ele>403.6</ele>
        <time>2024-04-17T16:05:05Z</time>
      </trkpt>
      <trkpt lat="43.21338" lon="0.15035">
        <ele>403.6</ele>
        <time>2024-04-17T16:05:06Z</time>
      </trkpt>
      <trkpt lat="43.21338" lon="0.15035">
        <ele>403.6</ele>
        <time>2024-04-17T16:05:07Z</time>
      </trkpt>
      <trkpt lat="43.21338" lon="0.15035">
        <ele>403.6</ele>
        <time>2024-04-17T16:05:08Z</time>
      </trkpt>
      <trkpt lat="43.21338" lon="0.15035">
        <ele>403.6</ele>
        <time>2024-04-17T16:05:09Z</time>
      </trkpt>
      <trkpt lat="43.21338" lon="0.15035">
        <ele>403.6</ele>
        <time>2024-04-17T16:05:10Z</time>
      </trkpt>
      <trkpt lat="43.21338" lon="0.15035">
        <ele>403.6</ele>
        <time>2024-04-17T16:05:11Z</time>
      </trkpt>
      <trkpt lat="43.21338" lon="0.15035">
        <ele>403.6</ele>
        <time>2024-04-17T16:05:12Z</time>
      </trkpt>
      <trkpt lat="43.21338" lon="0.15035">
        <ele>403.6</ele>
        <time>2024-04-17T16:05:13Z</time>
      </trkpt>
      <trkpt lat="43.21338" lon="0.15035">
        <ele>403.6</ele>
        <time>2024-04-17T16:05:14Z</time>
      </trkpt>
      <trkpt lat="43.21338" lon="0.15035">
        <ele>403.6</ele>
        <time>2024-04-17T16:05:15Z</time>
      </trkpt>
      <trkpt lat="43.21338" lon="0.15035">
        <ele>403.6</ele>
        <time>2024-04-17T16:05:16Z</time>
      </trkpt>
      <trkpt lat="43.21338" lon="0.15035">
        <ele>403.6</ele>
        <time>2024-04-17T16:05:17Z</time>
      </trkpt>
      <trkpt lat="43.21338" lon="0.15035">
        <ele>403.6</ele>
        <time>2024-04-17T16:05:18Z</time>
      </trkpt>
      <trkpt lat="43.21338" lon="0.15035">
        <ele>403.6</ele>
        <time>2024-04-17T16:05:19Z</time>
      </trkpt>
      <trkpt lat="43.21338" lon="0.15035">
        <ele>403.6</ele>
        <time>2024-04-17T16:05:20Z</time>
      </trkpt>
      <trkpt lat="43.21338" lon="0.15035">
        <ele>403.6</ele>
        <time>2024-04-17T16:05:21Z</time>
      </trkpt>
      <trkpt lat="43.21338" lon="0.15035">
        <ele>403.6</ele>
        <time>2024-04-17T16:05:22Z</time>
      </trkpt>
      <trkpt lat="43.21338" lon="0.15035">
        <ele>403.6</ele>
        <time>2024-04-17T16:05:23Z</time>
      </trkpt>
      <trkpt lat="43.21338" lon="0.15035">
        <ele>403.6</ele>
        <time>2024-04-17T16:05:24Z</time>
      </trkpt>
      <trkpt lat="43.21338" lon="0.15035">
        <ele>403.6</ele>
        <time>2024-04-17T16:05:25Z</time>
      </trkpt>
      <trkpt lat="43.21338" lon="0.15035">
        <ele>403.6</ele>
        <time>2024-04-17T16:05:26Z</time>
      </trkpt>
      <trkpt lat="43.21338" lon="0.15035">
        <ele>403.6</ele>
        <time>2024-04-17T16:05:27Z</time>
      </trkpt>
      <trkpt lat="43.21339" lon="0.15035">
        <ele>403.4</ele>
        <time>2024-04-17T16:05:28Z</time>
      </trkpt>
      <trkpt lat="43.21341" lon="0.15034">
        <ele>403.4</ele>
        <time>2024-04-17T16:05:29Z</time>
      </trkpt>
      <trkpt lat="43.21343" lon="0.15032">
        <ele>403.4</ele>
        <time>2024-04-17T16:05:30Z</time>
      </trkpt>
      <trkpt lat="43.21345" lon="0.15031">
        <ele>403.4</ele>
        <time>2024-04-17T16:05:31Z</time>
      </trkpt>
      <trkpt lat="43.21346" lon="0.15028">
        <ele>403.2</ele>
        <time>2024-04-17T16:05:32Z</time>
      </trkpt>
      <trkpt lat="43.21347" lon="0.15024">
        <ele>403.2</ele>
        <time>2024-04-17T16:05:33Z</time>
      </trkpt>
      <trkpt lat="43.21348" lon="0.15019">
        <ele>403</ele>
        <time>2024-04-17T16:05:34Z</time>
      </trkpt>
      <trkpt lat="43.21349" lon="0.15014">
        <ele>402.6</ele>
        <time>2024-04-17T16:05:35Z</time>
      </trkpt>
      <trkpt lat="43.21347" lon="0.15007">
        <ele>402</ele>
        <time>2024-04-17T16:05:36Z</time>
      </trkpt>
      <trkpt lat="43.21345" lon="0.14999">
        <ele>401.4</ele>
        <time>2024-04-17T16:05:37Z</time>
      </trkpt>
      <trkpt lat="43.21341" lon="0.14991">
        <ele>401</ele>
        <time>2024-04-17T16:05:38Z</time>
      </trkpt>
      <trkpt lat="43.21336" lon="0.14984">
        <ele>400</ele>
        <time>2024-04-17T16:05:39Z</time>
      </trkpt>
      <trkpt lat="43.21332" lon="0.14978">
        <ele>399.8</ele>
        <time>2024-04-17T16:05:40Z</time>
      </trkpt>
      <trkpt lat="43.21327" lon="0.14971">
        <ele>398.6</ele>
        <time>2024-04-17T16:05:41Z</time>
      </trkpt>
      <trkpt lat="43.21322" lon="0.14966">
        <ele>398.2</ele>
        <time>2024-04-17T16:05:42Z</time>
      </trkpt>
      <trkpt lat="43.21318" lon="0.1496">
        <ele>396.6</ele>
        <time>2024-04-17T16:05:43Z</time>
      </trkpt>
      <trkpt lat="43.21315" lon="0.14954">
        <ele>395.8</ele>
        <time>2024-04-17T16:05:44Z</time>
      </trkpt>
      <trkpt lat="43.21311" lon="0.14948">
        <ele>395.2</ele>
        <time>2024-04-17T16:05:45Z</time>
      </trkpt>
      <trkpt lat="43.21307" lon="0.14941">
        <ele>393.2</ele>
        <time>2024-04-17T16:05:46Z</time>
      </trkpt>
      <trkpt lat="43.21305" lon="0.14935">
        <ele>392.6</ele>
        <time>2024-04-17T16:05:47Z</time>
      </trkpt>
      <trkpt lat="43.21305" lon="0.14929">
        <ele>391.6</ele>
        <time>2024-04-17T16:05:48Z</time>
      </trkpt>
      <trkpt lat="43.21306" lon="0.14923">
        <ele>391.2</ele>
        <time>2024-04-17T16:05:49Z</time>
      </trkpt>
      <trkpt lat="43.21306" lon="0.14919">
        <ele>390.2</ele>
        <time>2024-04-17T16:05:50Z</time>
      </trkpt>
      <trkpt lat="43.21304" lon="0.14915">
        <ele>389.4</ele>
        <time>2024-04-17T16:05:51Z</time>
      </trkpt>
      <trkpt lat="43.21301" lon="0.14911">
        <ele>388.4</ele>
        <time>2024-04-17T16:05:52Z</time>
      </trkpt>
      <trkpt lat="43.21299" lon="0.14907">
        <ele>387.4</ele>
        <time>2024-04-17T16:05:53Z</time>
      </trkpt>
      <trkpt lat="43.21296" lon="0.14902">
        <ele>387.2</ele>
        <time>2024-04-17T16:05:54Z</time>
      </trkpt>
      <trkpt lat="43.21293" lon="0.14897">
        <ele>386.6</ele>
        <time>2024-04-17T16:05:55Z</time>
      </trkpt>
      <trkpt lat="43.21291" lon="0.14893">
        <ele>386.4</ele>
        <time>2024-04-17T16:05:56Z</time>
      </trkpt>
      <trkpt lat="43.2129" lon="0.14888">
        <ele>386</ele>
        <time>2024-04-17T16:05:57Z</time>
      </trkpt>
      <trkpt lat="43.2129" lon="0.14885">
        <ele>385.8</ele>
        <time>2024-04-17T16:05:58Z</time>
      </trkpt>
      <trkpt lat="43.21289" lon="0.14882">
        <ele>385.6</ele>
        <time>2024-04-17T16:05:59Z</time>
      </trkpt>
      <trkpt lat="43.21287" lon="0.14877">
        <ele>385.6</ele>
        <time>2024-04-17T16:06:00Z</time>
      </trkpt>
      <trkpt lat="43.21284" lon="0.14872">
        <ele>385.4</ele>
        <time>2024-04-17T16:06:01Z</time>
      </trkpt>
      <trkpt lat="43.21281" lon="0.14867">
        <ele>385.4</ele>
        <time>2024-04-17T16:06:02Z</time>
      </trkpt>
      <trkpt lat="43.21279" lon="0.14862">
        <ele>385.2</ele>
        <time>2024-04-17T16:06:03Z</time>
      </trkpt>
      <trkpt lat="43.21278" lon="0.14857">
        <ele>384.8</ele>
        <time>2024-04-17T16:06:04Z</time>
      </trkpt>
      <trkpt lat="43.21276" lon="0.14852">
        <ele>384.8</ele>
        <time>2024-04-17T16:06:05Z</time>
      </trkpt>
      <trkpt lat="43.21274" lon="0.14847">
        <ele>384.6</ele>
        <time>2024-04-17T16:06:06Z</time>
      </trkpt>
      <trkpt lat="43.21268" lon="0.14842">
        <ele>384.6</ele>
        <time>2024-04-17T16:06:07Z</time>
      </trkpt>
      <trkpt lat="43.21262" lon="0.14838">
        <ele>384.2</ele>
        <time>2024-04-17T16:06:08Z</time>
      </trkpt>
      <trkpt lat="43.21258" lon="0.14834">
        <ele>384</ele>
        <time>2024-04-17T16:06:09Z</time>
      </trkpt>
      <trkpt lat="43.21254" lon="0.1483">
        <ele>383.8</ele>
        <time>2024-04-17T16:06:10Z</time>
      </trkpt>
      <trkpt lat="43.21252" lon="0.1483">
        <ele>383.4</ele>
        <time>2024-04-17T16:06:11Z</time>
      </trkpt>
      <trkpt lat="43.21249" lon="0.14829">
        <ele>383.4</ele>
        <time>2024-04-17T16:06:12Z</time>
      </trkpt>
      <trkpt lat="43.21248" lon="0.14828">
        <ele>383.2</ele>
        <time>2024-04-17T16:06:13Z</time>
      </trkpt>
      <trkpt lat="43.21248" lon="0.14825">
        <ele>383</ele>
        <time>2024-04-17T16:06:14Z</time>
      </trkpt>
      <trkpt lat="43.21248" lon="0.14824">
        <ele>383</ele>
        <time>2024-04-17T16:06:15Z</time>
      </trkpt>
      <trkpt lat="43.21248" lon="0.14821">
        <ele>383</ele>
        <time>2024-04-17T16:06:16Z</time>
      </trkpt>
      <trkpt lat="43.21249" lon="0.14819">
        <ele>382.8</ele>
        <time>2024-04-17T16:06:17Z</time>
      </trkpt>
      <trkpt lat="43.2125" lon="0.14817">
        <ele>382.8</ele>
        <time>2024-04-17T16:06:18Z</time>
      </trkpt>
      <trkpt lat="43.2125" lon="0.14813">
        <ele>382.8</ele>
        <time>2024-04-17T16:06:19Z</time>
      </trkpt>
      <trkpt lat="43.21249" lon="0.1481">
        <ele>382.6</ele>
        <time>2024-04-17T16:06:20Z</time>
      </trkpt>
      <trkpt lat="43.21247" lon="0.14804">
        <ele>382.4</ele>
        <time>2024-04-17T16:06:21Z</time>
      </trkpt>
      <trkpt lat="43.21244" lon="0.148">
        <ele>382.2</ele>
        <time>2024-04-17T16:06:22Z</time>
      </trkpt>
      <trkpt lat="43.21238" lon="0.14794">
        <ele>382.2</ele>
        <time>2024-04-17T16:06:23Z</time>
      </trkpt>
      <trkpt lat="43.21232" lon="0.14789">
        <ele>382</ele>
        <time>2024-04-17T16:06:24Z</time>
      </trkpt>
      <trkpt lat="43.21228" lon="0.14784">
        <ele>381.6</ele>
        <time>2024-04-17T16:06:25Z</time>
      </trkpt>
      <trkpt lat="43.21224" lon="0.1478">
        <ele>381.6</ele>
        <time>2024-04-17T16:06:26Z</time>
      </trkpt>
      <trkpt lat="43.21221" lon="0.14777">
        <ele>381.4</ele>
        <time>2024-04-17T16:06:27Z</time>
      </trkpt>
      <trkpt lat="43.2122" lon="0.14775">
        <ele>381.2</ele>
        <time>2024-04-17T16:06:28Z</time>
      </trkpt>
      <trkpt lat="43.21219" lon="0.14773">
        <ele>380.8</ele>
        <time>2024-04-17T16:06:29Z</time>
      </trkpt>
      <trkpt lat="43.21219" lon="0.14771">
        <ele>380.8</ele>
        <time>2024-04-17T16:06:30Z</time>
      </trkpt>
      <trkpt lat="43.2122" lon="0.1477">
        <ele>380.8</ele>
        <time>2024-04-17T16:06:31Z</time>
      </trkpt>
      <trkpt lat="43.21219" lon="0.14768">
        <ele>380.6</ele>
        <time>2024-04-17T16:06:32Z</time>
      </trkpt>
      <trkpt lat="43.21219" lon="0.14765">
        <ele>380.6</ele>
        <time>2024-04-17T16:06:33Z</time>
      </trkpt>
      <trkpt lat="43.21219" lon="0.14763">
        <ele>380.2</ele>
        <time>2024-04-17T16:06:34Z</time>
      </trkpt>
      <trkpt lat="43.21219" lon="0.14761">
        <ele>380.2</ele>
        <time>2024-04-17T16:06:35Z</time>
      </trkpt>
      <trkpt lat="43.21218" lon="0.14758">
        <ele>380</ele>
        <time>2024-04-17T16:06:36Z</time>
      </trkpt>
      <trkpt lat="43.21217" lon="0.14754">
        <ele>380</ele>
        <time>2024-04-17T16:06:37Z</time>
      </trkpt>
      <trkpt lat="43.21216" lon="0.1475">
        <ele>379.4</ele>
        <time>2024-04-17T16:06:38Z</time>
      </trkpt>
      <trkpt lat="43.21216" lon="0.14747">
        <ele>379</ele>
        <time>2024-04-17T16:06:39Z</time>
      </trkpt>
      <trkpt lat="43.21216" lon="0.14743">
        <ele>378.6</ele>
        <time>2024-04-17T16:06:40Z</time>
      </trkpt>
      <trkpt lat="43.21215" lon="0.1474">
        <ele>378.6</ele>
        <time>2024-04-17T16:06:41Z</time>
      </trkpt>
      <trkpt lat="43.21215" lon="0.14737">
        <ele>377.6</ele>
        <time>2024-04-17T16:06:42Z</time>
      </trkpt>
      <trkpt lat="43.21212" lon="0.14731">
        <ele>377.4</ele>
        <time>2024-04-17T16:06:43Z</time>
      </trkpt>
      <trkpt lat="43.21205" lon="0.14725">
        <ele>377.2</ele>
        <time>2024-04-17T16:06:44Z</time>
      </trkpt>
      <trkpt lat="43.212" lon="0.14718">
        <ele>376.6</ele>
        <time>2024-04-17T16:06:45Z</time>
      </trkpt>
      <trkpt lat="43.21197" lon="0.14713">
        <ele>376.6</ele>
        <time>2024-04-17T16:06:46Z</time>
      </trkpt>
      <trkpt lat="43.21194" lon="0.14708">
        <ele>376.2</ele>
        <time>2024-04-17T16:06:47Z</time>
      </trkpt>
      <trkpt lat="43.21193" lon="0.14706">
        <ele>376.2</ele>
        <time>2024-04-17T16:06:48Z</time>
      </trkpt>
      <trkpt lat="43.21192" lon="0.14705">
        <ele>376</ele>
        <time>2024-04-17T16:06:49Z</time>
      </trkpt>
      <trkpt lat="43.21191" lon="0.14703">
        <ele>376</ele>
        <time>2024-04-17T16:06:50Z</time>
      </trkpt>
      <trkpt lat="43.21188" lon="0.14699">
        <ele>376</ele>
        <time>2024-04-17T16:06:51Z</time>
      </trkpt>
      <trkpt lat="43.21185" lon="0.14696">
        <ele>375.8</ele>
        <time>2024-04-17T16:06:52Z</time>
      </trkpt>
      <trkpt lat="43.2118" lon="0.14692">
        <ele>375.6</ele>
        <time>2024-04-17T16:06:53Z</time>
      </trkpt>
      <trkpt lat="43.21178" lon="0.14691">
        <ele>375.4</ele>
        <time>2024-04-17T16:06:54Z</time>
      </trkpt>
      <trkpt lat="43.21176" lon="0.14689">
        <ele>375.2</ele>
        <time>2024-04-17T16:06:55Z</time>
      </trkpt>
      <trkpt lat="43.21173" lon="0.14687">
        <ele>375.2</ele>
        <time>2024-04-17T16:06:56Z</time>
      </trkpt>
      <trkpt lat="43.2117" lon="0.14685">
        <ele>375.2</ele>
        <time>2024-04-17T16:06:57Z</time>
      </trkpt>
      <trkpt lat="43.21166" lon="0.14682">
        <ele>375.2</ele>
        <time>2024-04-17T16:06:58Z</time>
      </trkpt>
      <trkpt lat="43.21163" lon="0.1468">
        <ele>375.2</ele>
        <time>2024-04-17T16:06:59Z</time>
      </trkpt>
      <trkpt lat="43.21161" lon="0.14678">
        <ele>375</ele>
        <time>2024-04-17T16:07:00Z</time>
      </trkpt>
      <trkpt lat="43.2116" lon="0.14676">
        <ele>375</ele>
        <time>2024-04-17T16:07:01Z</time>
      </trkpt>
      <trkpt lat="43.21158" lon="0.14675">
        <ele>375</ele>
        <time>2024-04-17T16:07:02Z</time>
      </trkpt>
      <trkpt lat="43.21157" lon="0.14673">
        <ele>375</ele>
        <time>2024-04-17T16:07:03Z</time>
      </trkpt>
      <trkpt lat="43.21157" lon="0.14672">
        <ele>375</ele>
        <time>2024-04-17T16:07:04Z</time>
      </trkpt>
      <trkpt lat="43.21156" lon="0.14671">
        <ele>375</ele>
        <time>2024-04-17T16:07:05Z</time>
      </trkpt>
      <trkpt lat="43.21156" lon="0.14671">
        <ele>375</ele>
        <time>2024-04-17T16:07:06Z</time>
      </trkpt>
      <trkpt lat="43.21156" lon="0.14671">
        <ele>375</ele>
        <time>2024-04-17T16:07:07Z</time>
      </trkpt>
      <trkpt lat="43.21156" lon="0.14671">
        <ele>375</ele>
        <time>2024-04-17T16:07:08Z</time>
      </trkpt>
      <trkpt lat="43.21156" lon="0.14671">
        <ele>375</ele>
        <time>2024-04-17T16:07:09Z</time>
      </trkpt>
      <trkpt lat="43.21156" lon="0.14671">
        <ele>375</ele>
        <time>2024-04-17T16:07:10Z</time>
      </trkpt>
      <trkpt lat="43.21156" lon="0.14671">
        <ele>375</ele>
        <time>2024-04-17T16:07:11Z</time>
      </trkpt>
      <trkpt lat="43.21156" lon="0.14671">
        <ele>375</ele>
        <time>2024-04-17T16:07:12Z</time>
      </trkpt>
      <trkpt lat="43.21156" lon="0.14671">
        <ele>375</ele>
        <time>2024-04-17T16:07:13Z</time>
      </trkpt>
      <trkpt lat="43.21156" lon="0.14671">
        <ele>374.8</ele>
        <time>2024-04-17T16:07:14Z</time>
      </trkpt>
      <trkpt lat="43.21156" lon="0.14671">
        <ele>374.8</ele>
        <time>2024-04-17T16:07:15Z</time>
      </trkpt>
      <trkpt lat="43.21156" lon="0.14671">
        <ele>374.8</ele>
        <time>2024-04-17T16:07:16Z</time>
      </trkpt>
      <trkpt lat="43.21156" lon="0.14671">
        <ele>374.8</ele>
        <time>2024-04-17T16:07:17Z</time>
      </trkpt>
      <trkpt lat="43.21156" lon="0.14671">
        <ele>374.8</ele>
        <time>2024-04-17T16:07:18Z</time>
      </trkpt>
      <trkpt lat="43.21156" lon="0.14671">
        <ele>375</ele>
        <time>2024-04-17T16:07:19Z</time>
      </trkpt>
      <trkpt lat="43.21156" lon="0.14671">
        <ele>375</ele>
        <time>2024-04-17T16:07:20Z</time>
      </trkpt>
      <trkpt lat="43.21156" lon="0.14671">
        <ele>375</ele>
        <time>2024-04-17T16:07:21Z</time>
      </trkpt>
      <trkpt lat="43.21156" lon="0.14671">
        <ele>375</ele>
        <time>2024-04-17T16:07:22Z</time>
      </trkpt>
      <trkpt lat="43.21156" lon="0.14671">
        <ele>375</ele>
        <time>2024-04-17T16:07:23Z</time>
      </trkpt>
      <trkpt lat="43.21156" lon="0.14671">
        <ele>375</ele>
        <time>2024-04-17T16:07:24Z</time>
      </trkpt>
      <trkpt lat="43.21156" lon="0.14671">
        <ele>375</ele>
        <time>2024-04-17T16:07:25Z</time>
      </trkpt>
      <trkpt lat="43.21156" lon="0.14671">
        <ele>375</ele>
        <time>2024-04-17T16:07:26Z</time>
      </trkpt>
      <trkpt lat="43.21156" lon="0.14671">
        <ele>375</ele>
        <time>2024-04-17T16:07:27Z</time>
      </trkpt>
      <trkpt lat="43.21156" lon="0.14671">
        <ele>375</ele>
        <time>2024-04-17T16:07:28Z</time>
      </trkpt>
      <trkpt lat="43.21156" lon="0.14671">
        <ele>375</ele>
        <time>2024-04-17T16:07:29Z</time>
      </trkpt>
      <trkpt lat="43.21156" lon="0.14671">
        <ele>375</ele>
        <time>2024-04-17T16:07:30Z</time>
      </trkpt>
      <trkpt lat="43.21156" lon="0.14671">
        <ele>375</ele>
        <time>2024-04-17T16:07:31Z</time>
      </trkpt>
      <trkpt lat="43.21156" lon="0.14671">
        <ele>375</ele>
        <time>2024-04-17T16:07:32Z</time>
      </trkpt>
      <trkpt lat="43.21156" lon="0.14671">
        <ele>375</ele>
        <time>2024-04-17T16:07:33Z</time>
      </trkpt>
      <trkpt lat="43.21156" lon="0.14671">
        <ele>375</ele>
        <time>2024-04-17T16:07:34Z</time>
      </trkpt>
      <trkpt lat="43.21156" lon="0.14671">
        <ele>375</ele>
        <time>2024-04-17T16:07:35Z</time>
      </trkpt>
      <trkpt lat="43.21156" lon="0.14671">
        <ele>375</ele>
        <time>2024-04-17T16:07:36Z</time>
      </trkpt>
      <trkpt lat="43.21156" lon="0.14671">
        <ele>375</ele>
        <time>2024-04-17T16:07:37Z</time>
      </trkpt>
      <trkpt lat="43.21156" lon="0.14671">
        <ele>375</ele>
        <time>2024-04-17T16:07:38Z</time>
      </trkpt>
      <trkpt lat="43.21156" lon="0.14671">
        <ele>375</ele>
        <time>2024-04-17T16:07:39Z</time>
      </trkpt>
      <trkpt lat="43.21156" lon="0.14671">
        <ele>375</ele>
        <time>2024-04-17T16:07:40Z</time>
      </trkpt>
      <trkpt lat="43.21156" lon="0.14671">
        <ele>375</ele>
        <time>2024-04-17T16:07:41Z</time>
      </trkpt>
      <trkpt lat="43.21156" lon="0.14671">
        <ele>374.8</ele>
        <time>2024-04-17T16:07:42Z</time>
      </trkpt>
      <trkpt lat="43.21156" lon="0.14671">
        <ele>374.8</ele>
        <time>2024-04-17T16:07:43Z</time>
      </trkpt>
      <trkpt lat="43.21156" lon="0.14671">
        <ele>374.6</ele>
        <time>2024-04-17T16:07:44Z</time>
      </trkpt>
      <trkpt lat="43.21156" lon="0.14671">
        <ele>374.6</ele>
        <time>2024-04-17T16:07:45Z</time>
      </trkpt>
      <trkpt lat="43.21156" lon="0.14671">
        <ele>374.6</ele>
        <time>2024-04-17T16:07:46Z</time>
      </trkpt>
      <trkpt lat="43.21156" lon="0.14671">
        <ele>374.8</ele>
        <time>2024-04-17T16:07:47Z</time>
      </trkpt>
      <trkpt lat="43.21156" lon="0.14671">
        <ele>374.6</ele>
        <time>2024-04-17T16:07:48Z</time>
      </trkpt>
      <trkpt lat="43.21156" lon="0.14671">
        <ele>374.6</ele>
        <time>2024-04-17T16:07:49Z</time>
      </trkpt>
      <trkpt lat="43.21156" lon="0.14671">
        <ele>374.6</ele>
        <time>2024-04-17T16:07:50Z</time>
      </trkpt>
      <trkpt lat="43.21156" lon="0.14671">
        <ele>374.6</ele>
        <time>2024-04-17T16:07:51Z</time>
      </trkpt>
      <trkpt lat="43.21156" lon="0.1467">
        <ele>374.4</ele>
        <time>2024-04-17T16:07:52Z</time>
      </trkpt>
      <trkpt lat="43.21156" lon="0.1467">
        <ele>374.4</ele>
        <time>2024-04-17T16:07:53Z</time>
      </trkpt>
      <trkpt lat="43.21156" lon="0.1467">
        <ele>374.4</ele>
        <time>2024-04-17T16:07:54Z</time>
      </trkpt>
      <trkpt lat="43.21156" lon="0.1467">
        <ele>374.2</ele>
        <time>2024-04-17T16:07:55Z</time>
      </trkpt>
      <trkpt lat="43.21155" lon="0.14668">
        <ele>374.2</ele>
        <time>2024-04-17T16:07:56Z</time>
      </trkpt>
      <trkpt lat="43.21155" lon="0.14668">
        <ele>374</ele>
        <time>2024-04-17T16:07:57Z</time>
      </trkpt>
      <trkpt lat="43.21155" lon="0.14668">
        <ele>374</ele>
        <time>2024-04-17T16:07:58Z</time>
      </trkpt>
      <trkpt lat="43.21155" lon="0.14667">
        <ele>374</ele>
        <time>2024-04-17T16:07:59Z</time>
      </trkpt>
      <trkpt lat="43.21152" lon="0.14664">
        <ele>374</ele>
        <time>2024-04-17T16:08:00Z</time>
      </trkpt>
      <trkpt lat="43.21148" lon="0.1466">
        <ele>374</ele>
        <time>2024-04-17T16:08:01Z</time>
      </trkpt>
      <trkpt lat="43.21146" lon="0.14657">
        <ele>373.8</ele>
        <time>2024-04-17T16:08:02Z</time>
      </trkpt>
      <trkpt lat="43.21144" lon="0.14654">
        <ele>373.2</ele>
        <time>2024-04-17T16:08:03Z</time>
      </trkpt>
      <trkpt lat="43.21142" lon="0.14649">
        <ele>372.8</ele>
        <time>2024-04-17T16:08:04Z</time>
      </trkpt>
      <trkpt lat="43.21141" lon="0.14643">
        <ele>372.2</ele>
        <time>2024-04-17T16:08:05Z</time>
      </trkpt>
      <trkpt lat="43.21139" lon="0.14637">
        <ele>372</ele>
        <time>2024-04-17T16:08:06Z</time>
      </trkpt>
      <trkpt lat="43.21137" lon="0.14631">
        <ele>371.4</ele>
        <time>2024-04-17T16:08:07Z</time>
      </trkpt>
      <trkpt lat="43.21135" lon="0.14626">
        <ele>371.4</ele>
        <time>2024-04-17T16:08:08Z</time>
      </trkpt>
      <trkpt lat="43.21132" lon="0.14622">
        <ele>371</ele>
        <time>2024-04-17T16:08:09Z</time>
      </trkpt>
      <trkpt lat="43.21128" lon="0.14618">
        <ele>370.8</ele>
        <time>2024-04-17T16:08:10Z</time>
      </trkpt>
      <trkpt lat="43.21123" lon="0.14614">
        <ele>370.6</ele>
        <time>2024-04-17T16:08:11Z</time>
      </trkpt>
      <trkpt lat="43.21122" lon="0.14613">
        <ele>370.4</ele>
        <time>2024-04-17T16:08:12Z</time>
      </trkpt>
      <trkpt lat="43.21122" lon="0.14612">
        <ele>370.4</ele>
        <time>2024-04-17T16:08:13Z</time>
      </trkpt>
      <trkpt lat="43.21121" lon="0.14611">
        <ele>370.4</ele>
        <time>2024-04-17T16:08:14Z</time>
      </trkpt>
      <trkpt lat="43.21121" lon="0.14611">
        <ele>370.2</ele>
        <time>2024-04-17T16:08:15Z</time>
      </trkpt>
      <trkpt lat="43.21121" lon="0.14611">
        <ele>370.2</ele>
        <time>2024-04-17T16:08:16Z</time>
      </trkpt>
      <trkpt lat="43.21121" lon="0.14611">
        <ele>370.2</ele>
        <time>2024-04-17T16:08:17Z</time>
      </trkpt>
      <trkpt lat="43.21121" lon="0.14611">
        <ele>370.2</ele>
        <time>2024-04-17T16:08:18Z</time>
      </trkpt>
      <trkpt lat="43.21121" lon="0.14611">
        <ele>370.2</ele>
        <time>2024-04-17T16:08:19Z</time>
      </trkpt>
      <trkpt lat="43.2112" lon="0.14611">
        <ele>370.2</ele>
        <time>2024-04-17T16:08:20Z</time>
      </trkpt>
      <trkpt lat="43.21119" lon="0.14611">
        <ele>370.2</ele>
        <time>2024-04-17T16:08:21Z</time>
      </trkpt>
      <trkpt lat="43.21119" lon="0.14611">
        <ele>370.2</ele>
        <time>2024-04-17T16:08:22Z</time>
      </trkpt>
      <trkpt lat="43.21119" lon="0.14611">
        <ele>370.2</ele>
        <time>2024-04-17T16:08:23Z</time>
      </trkpt>
      <trkpt lat="43.2112" lon="0.1461">
        <ele>370.2</ele>
        <time>2024-04-17T16:08:24Z</time>
      </trkpt>
      <trkpt lat="43.21119" lon="0.14608">
        <ele>370.2</ele>
        <time>2024-04-17T16:08:25Z</time>
      </trkpt>
      <trkpt lat="43.2112" lon="0.14608">
        <ele>370.2</ele>
        <time>2024-04-17T16:08:26Z</time>
      </trkpt>
      <trkpt lat="43.2112" lon="0.14608">
        <ele>370</ele>
        <time>2024-04-17T16:08:27Z</time>
      </trkpt>
      <trkpt lat="43.2112" lon="0.14608">
        <ele>370.2</ele>
        <time>2024-04-17T16:08:28Z</time>
      </trkpt>
      <trkpt lat="43.21121" lon="0.14606">
        <ele>370.2</ele>
        <time>2024-04-17T16:08:29Z</time>
      </trkpt>
      <trkpt lat="43.21123" lon="0.14605">
        <ele>369.8</ele>
        <time>2024-04-17T16:08:30Z</time>
      </trkpt>
      <trkpt lat="43.21124" lon="0.14604">
        <ele>369.8</ele>
        <time>2024-04-17T16:08:31Z</time>
      </trkpt>
      <trkpt lat="43.21124" lon="0.14604">
        <ele>369.6</ele>
        <time>2024-04-17T16:08:32Z</time>
      </trkpt>
      <trkpt lat="43.21124" lon="0.14603">
        <ele>369.6</ele>
        <time>2024-04-17T16:08:33Z</time>
      </trkpt>
      <trkpt lat="43.21125" lon="0.14603">
        <ele>369.6</ele>
        <time>2024-04-17T16:08:34Z</time>
      </trkpt>
      <trkpt lat="43.21125" lon="0.14603">
        <ele>369.6</ele>
        <time>2024-04-17T16:08:35Z</time>
      </trkpt>
      <trkpt lat="43.21125" lon="0.14603">
        <ele>369.6</ele>
        <time>2024-04-17T16:08:36Z</time>
      </trkpt>
      <trkpt lat="43.21125" lon="0.14602">
        <ele>369.6</ele>
        <time>2024-04-17T16:08:37Z</time>
      </trkpt>
      <trkpt lat="43.21125" lon="0.14602">
        <ele>369.6</ele>
        <time>2024-04-17T16:08:38Z</time>
      </trkpt>
      <trkpt lat="43.21125" lon="0.14602">
        <ele>369.6</ele>
        <time>2024-04-17T16:08:39Z</time>
      </trkpt>
      <trkpt lat="43.21125" lon="0.14602">
        <ele>369.6</ele>
        <time>2024-04-17T16:08:40Z</time>
      </trkpt>
      <trkpt lat="43.21125" lon="0.14602">
        <ele>369.6</ele>
        <time>2024-04-17T16:08:41Z</time>
      </trkpt>
      <trkpt lat="43.21125" lon="0.14602">
        <ele>369.6</ele>
        <time>2024-04-17T16:08:42Z</time>
      </trkpt>
      <trkpt lat="43.21125" lon="0.14602">
        <ele>369.6</ele>
        <time>2024-04-17T16:08:43Z</time>
      </trkpt>
      <trkpt lat="43.21125" lon="0.14602">
        <ele>369.8</ele>
        <time>2024-04-17T16:08:44Z</time>
      </trkpt>
      <trkpt lat="43.21125" lon="0.14602">
        <ele>369.8</ele>
        <time>2024-04-17T16:08:45Z</time>
      </trkpt>
      <trkpt lat="43.21125" lon="0.14602">
        <ele>369.8</ele>
        <time>2024-04-17T16:08:46Z</time>
      </trkpt>
      <trkpt lat="43.21125" lon="0.14602">
        <ele>369.8</ele>
        <time>2024-04-17T16:08:47Z</time>
      </trkpt>
      <trkpt lat="43.21125" lon="0.14602">
        <ele>370</ele>
        <time>2024-04-17T16:08:48Z</time>
      </trkpt>
      <trkpt lat="43.21125" lon="0.14602">
        <ele>370</ele>
        <time>2024-04-17T16:08:49Z</time>
      </trkpt>
      <trkpt lat="43.21125" lon="0.14602">
        <ele>370</ele>
        <time>2024-04-17T16:08:50Z</time>
      </trkpt>
      <trkpt lat="43.21125" lon="0.14602">
        <ele>370</ele>
        <time>2024-04-17T16:08:51Z</time>
      </trkpt>
      <trkpt lat="43.21125" lon="0.14602">
        <ele>370</ele>
        <time>2024-04-17T16:08:52Z</time>
      </trkpt>
      <trkpt lat="43.21125" lon="0.14602">
        <ele>369.8</ele>
        <time>2024-04-17T16:08:53Z</time>
      </trkpt>
      <trkpt lat="43.21125" lon="0.14602">
        <ele>369.8</ele>
        <time>2024-04-17T16:08:54Z</time>
      </trkpt>
      <trkpt lat="43.21125" lon="0.14602">
        <ele>369.8</ele>
        <time>2024-04-17T16:08:55Z</time>
      </trkpt>
      <trkpt lat="43.21125" lon="0.14602">
        <ele>369.8</ele>
        <time>2024-04-17T16:08:56Z</time>
      </trkpt>
      <trkpt lat="43.21125" lon="0.14602">
        <ele>369.8</ele>
        <time>2024-04-17T16:08:57Z</time>
      </trkpt>
      <trkpt lat="43.21125" lon="0.14602">
        <ele>369.8</ele>
        <time>2024-04-17T16:08:58Z</time>
      </trkpt>
      <trkpt lat="43.21125" lon="0.14602">
        <ele>369.8</ele>
        <time>2024-04-17T16:08:59Z</time>
      </trkpt>
      <trkpt lat="43.21125" lon="0.14602">
        <ele>369.8</ele>
        <time>2024-04-17T16:09:00Z</time>
      </trkpt>
      <trkpt lat="43.21125" lon="0.14602">
        <ele>369.8</ele>
        <time>2024-04-17T16:09:01Z</time>
      </trkpt>
      <trkpt lat="43.21125" lon="0.14602">
        <ele>369.8</ele>
        <time>2024-04-17T16:09:02Z</time>
      </trkpt>
      <trkpt lat="43.21125" lon="0.14602">
        <ele>369.8</ele>
        <time>2024-04-17T16:09:03Z</time>
      </trkpt>
      <trkpt lat="43.21125" lon="0.14602">
        <ele>369.8</ele>
        <time>2024-04-17T16:09:04Z</time>
      </trkpt>
      <trkpt lat="43.21125" lon="0.14602">
        <ele>369.8</ele>
        <time>2024-04-17T16:09:05Z</time>
      </trkpt>
      <trkpt lat="43.21125" lon="0.14602">
        <ele>369.8</ele>
        <time>2024-04-17T16:09:06Z</time>
      </trkpt>
      <trkpt lat="43.21125" lon="0.14602">
        <ele>369.8</ele>
        <time>2024-04-17T16:09:07Z</time>
      </trkpt>
      <trkpt lat="43.21125" lon="0.14602">
        <ele>369.8</ele>
        <time>2024-04-17T16:09:08Z</time>
      </trkpt>
      <trkpt lat="43.21125" lon="0.14602">
        <ele>369.8</ele>
        <time>2024-04-17T16:09:09Z</time>
      </trkpt>
      <trkpt lat="43.21125" lon="0.14602">
        <ele>370</ele>
        <time>2024-04-17T16:09:10Z</time>
      </trkpt>
      <trkpt lat="43.21125" lon="0.14602">
        <ele>370</ele>
        <time>2024-04-17T16:09:11Z</time>
      </trkpt>
      <trkpt lat="43.21125" lon="0.14602">
        <ele>370</ele>
        <time>2024-04-17T16:09:12Z</time>
      </trkpt>
      <trkpt lat="43.21125" lon="0.14602">
        <ele>370</ele>
        <time>2024-04-17T16:09:13Z</time>
      </trkpt>
      <trkpt lat="43.21125" lon="0.14602">
        <ele>370</ele>
        <time>2024-04-17T16:09:14Z</time>
      </trkpt>
      <trkpt lat="43.21125" lon="0.14602">
        <ele>370.2</ele>
        <time>2024-04-17T16:09:15Z</time>
      </trkpt>
      <trkpt lat="43.21125" lon="0.14602">
        <ele>370.2</ele>
        <time>2024-04-17T16:09:16Z</time>
      </trkpt>
      <trkpt lat="43.21125" lon="0.14602">
        <ele>370.2</ele>
        <time>2024-04-17T16:09:17Z</time>
      </trkpt>
      <trkpt lat="43.21125" lon="0.14602">
        <ele>370.2</ele>
        <time>2024-04-17T16:09:18Z</time>
      </trkpt>
      <trkpt lat="43.21125" lon="0.14602">
        <ele>370.2</ele>
        <time>2024-04-17T16:09:19Z</time>
      </trkpt>
      <trkpt lat="43.21126" lon="0.14602">
        <ele>370.2</ele>
        <time>2024-04-17T16:09:20Z</time>
      </trkpt>
      <trkpt lat="43.21127" lon="0.14602">
        <ele>370.2</ele>
        <time>2024-04-17T16:09:21Z</time>
      </trkpt>
      <trkpt lat="43.21128" lon="0.14602">
        <ele>370.2</ele>
        <time>2024-04-17T16:09:22Z</time>
      </trkpt>
      <trkpt lat="43.21128" lon="0.14602">
        <ele>370.2</ele>
        <time>2024-04-17T16:09:23Z</time>
      </trkpt>
      <trkpt lat="43.21128" lon="0.14602">
        <ele>370.2</ele>
        <time>2024-04-17T16:09:24Z</time>
      </trkpt>
      <trkpt lat="43.21128" lon="0.14602">
        <ele>370</ele>
        <time>2024-04-17T16:09:25Z</time>
      </trkpt>
      <trkpt lat="43.21128" lon="0.14602">
        <ele>370</ele>
        <time>2024-04-17T16:09:26Z</time>
      </trkpt>
      <trkpt lat="43.21128" lon="0.14602">
        <ele>370</ele>
        <time>2024-04-17T16:09:27Z</time>
      </trkpt>
      <trkpt lat="43.21128" lon="0.14602">
        <ele>370</ele>
        <time>2024-04-17T16:09:28Z</time>
      </trkpt>
      <trkpt lat="43.21128" lon="0.14602">
        <ele>370</ele>
        <time>2024-04-17T16:09:29Z</time>
      </trkpt>
      <trkpt lat="43.2113" lon="0.14601">
        <ele>370</ele>
        <time>2024-04-17T16:09:30Z</time>
      </trkpt>
      <trkpt lat="43.21132" lon="0.14599">
        <ele>369.8</ele>
        <time>2024-04-17T16:09:31Z</time>
      </trkpt>
      <trkpt lat="43.21134" lon="0.14596">
        <ele>369.8</ele>
        <time>2024-04-17T16:09:32Z</time>
      </trkpt>
      <trkpt lat="43.21136" lon="0.14592">
        <ele>369.6</ele>
        <time>2024-04-17T16:09:33Z</time>
      </trkpt>
      <trkpt lat="43.2114" lon="0.14587">
        <ele>369.6</ele>
        <time>2024-04-17T16:09:34Z</time>
      </trkpt>
      <trkpt lat="43.21141" lon="0.14583">
        <ele>369.6</ele>
        <time>2024-04-17T16:09:35Z</time>
      </trkpt>
      <trkpt lat="43.21142" lon="0.1458">
        <ele>369.6</ele>
        <time>2024-04-17T16:09:36Z</time>
      </trkpt>
      <trkpt lat="43.21143" lon="0.14578">
        <ele>369.6</ele>
        <time>2024-04-17T16:09:37Z</time>
      </trkpt>
      <trkpt lat="43.21143" lon="0.14575">
        <ele>369.6</ele>
        <time>2024-04-17T16:09:38Z</time>
      </trkpt>
      <trkpt lat="43.21144" lon="0.14574">
        <ele>369.6</ele>
        <time>2024-04-17T16:09:39Z</time>
      </trkpt>
      <trkpt lat="43.21145" lon="0.14573">
        <ele>369.8</ele>
        <time>2024-04-17T16:09:40Z</time>
      </trkpt>
      <trkpt lat="43.21146" lon="0.14571">
        <ele>370</ele>
        <time>2024-04-17T16:09:41Z</time>
      </trkpt>
      <trkpt lat="43.21147" lon="0.1457">
        <ele>370</ele>
        <time>2024-04-17T16:09:42Z</time>
      </trkpt>
      <trkpt lat="43.21149" lon="0.14569">
        <ele>370</ele>
        <time>2024-04-17T16:09:43Z</time>
      </trkpt>
      <trkpt lat="43.2115" lon="0.14568">
        <ele>370.2</ele>
        <time>2024-04-17T16:09:44Z</time>
      </trkpt>
      <trkpt lat="43.21152" lon="0.14566">
        <ele>370.2</ele>
        <time>2024-04-17T16:09:45Z</time>
      </trkpt>
      <trkpt lat="43.21153" lon="0.14564">
        <ele>370.2</ele>
        <time>2024-04-17T16:09:46Z</time>
      </trkpt>
      <trkpt lat="43.21154" lon="0.14562">
        <ele>370.4</ele>
        <time>2024-04-17T16:09:47Z</time>
      </trkpt>
      <trkpt lat="43.21156" lon="0.1456">
        <ele>370.4</ele>
        <time>2024-04-17T16:09:48Z</time>
      </trkpt>
      <trkpt lat="43.21157" lon="0.14559">
        <ele>370.4</ele>
        <time>2024-04-17T16:09:49Z</time>
      </trkpt>
      <trkpt lat="43.21159" lon="0.14557">
        <ele>370.4</ele>
        <time>2024-04-17T16:09:50Z</time>
      </trkpt>
      <trkpt lat="43.21161" lon="0.14556">
        <ele>370.4</ele>
        <time>2024-04-17T16:09:51Z</time>
      </trkpt>
      <trkpt lat="43.21163" lon="0.14556">
        <ele>370.4</ele>
        <time>2024-04-17T16:09:52Z</time>
      </trkpt>
      <trkpt lat="43.21165" lon="0.14555">
        <ele>370.6</ele>
        <time>2024-04-17T16:09:53Z</time>
      </trkpt>
      <trkpt lat="43.21166" lon="0.14554">
        <ele>370.6</ele>
        <time>2024-04-17T16:09:54Z</time>
      </trkpt>
      <trkpt lat="43.21166" lon="0.14554">
        <ele>370.6</ele>
        <time>2024-04-17T16:09:55Z</time>
      </trkpt>
      <trkpt lat="43.21167" lon="0.14553">
        <ele>370.8</ele>
        <time>2024-04-17T16:09:56Z</time>
      </trkpt>
      <trkpt lat="43.21166" lon="0.14553">
        <ele>370.8</ele>
        <time>2024-04-17T16:09:57Z</time>
      </trkpt>
      <trkpt lat="43.21167" lon="0.14552">
        <ele>370.8</ele>
        <time>2024-04-17T16:09:58Z</time>
      </trkpt>
      <trkpt lat="43.21168" lon="0.14551">
        <ele>371</ele>
        <time>2024-04-17T16:09:59Z</time>
      </trkpt>
      <trkpt lat="43.21169" lon="0.14551">
        <ele>371.2</ele>
        <time>2024-04-17T16:10:00Z</time>
      </trkpt>
      <trkpt lat="43.2117" lon="0.14551">
        <ele>371.4</ele>
        <time>2024-04-17T16:10:01Z</time>
      </trkpt>
      <trkpt lat="43.21171" lon="0.14551">
        <ele>371.6</ele>
        <time>2024-04-17T16:10:02Z</time>
      </trkpt>
      <trkpt lat="43.21172" lon="0.1455">
        <ele>371.6</ele>
        <time>2024-04-17T16:10:03Z</time>
      </trkpt>
      <trkpt lat="43.21174" lon="0.1455">
        <ele>371.8</ele>
        <time>2024-04-17T16:10:04Z</time>
      </trkpt>
      <trkpt lat="43.21176" lon="0.1455">
        <ele>372</ele>
        <time>2024-04-17T16:10:05Z</time>
      </trkpt>
      <trkpt lat="43.21177" lon="0.14549">
        <ele>372.2</ele>
        <time>2024-04-17T16:10:06Z</time>
      </trkpt>
      <trkpt lat="43.21179" lon="0.14548">
        <ele>372.4</ele>
        <time>2024-04-17T16:10:07Z</time>
      </trkpt>
      <trkpt lat="43.2118" lon="0.14548">
        <ele>372.6</ele>
        <time>2024-04-17T16:10:08Z</time>
      </trkpt>
      <trkpt lat="43.21181" lon="0.14547">
        <ele>372.8</ele>
        <time>2024-04-17T16:10:09Z</time>
      </trkpt>
      <trkpt lat="43.21182" lon="0.14547">
        <ele>373</ele>
        <time>2024-04-17T16:10:10Z</time>
      </trkpt>
      <trkpt lat="43.21184" lon="0.14546">
        <ele>373</ele>
        <time>2024-04-17T16:10:11Z</time>
      </trkpt>
      <trkpt lat="43.21186" lon="0.14547">
        <ele>373.2</ele>
        <time>2024-04-17T16:10:12Z</time>
      </trkpt>
      <trkpt lat="43.21187" lon="0.14547">
        <ele>373.4</ele>
        <time>2024-04-17T16:10:13Z</time>
      </trkpt>
      <trkpt lat="43.21189" lon="0.14547">
        <ele>373.4</ele>
        <time>2024-04-17T16:10:14Z</time>
      </trkpt>
      <trkpt lat="43.21192" lon="0.14547">
        <ele>373.6</ele>
        <time>2024-04-17T16:10:15Z</time>
      </trkpt>
      <trkpt lat="43.21194" lon="0.14547">
        <ele>373.6</ele>
        <time>2024-04-17T16:10:16Z</time>
      </trkpt>
      <trkpt lat="43.21197" lon="0.14549">
        <ele>373.6</ele>
        <time>2024-04-17T16:10:17Z</time>
      </trkpt>
      <trkpt lat="43.212" lon="0.14551">
        <ele>373.6</ele>
        <time>2024-04-17T16:10:18Z</time>
      </trkpt>
      <trkpt lat="43.21204" lon="0.14552">
        <ele>373.6</ele>
        <time>2024-04-17T16:10:19Z</time>
      </trkpt>
      <trkpt lat="43.21207" lon="0.14553">
        <ele>373.6</ele>
        <time>2024-04-17T16:10:20Z</time>
      </trkpt>
      <trkpt lat="43.21209" lon="0.14552">
        <ele>373.6</ele>
        <time>2024-04-17T16:10:21Z</time>
      </trkpt>
      <trkpt lat="43.21212" lon="0.14552">
        <ele>373.6</ele>
        <time>2024-04-17T16:10:22Z</time>
      </trkpt>
      <trkpt lat="43.21216" lon="0.14553">
        <ele>373.6</ele>
        <time>2024-04-17T16:10:23Z</time>
      </trkpt>
      <trkpt lat="43.21218" lon="0.14555">
        <ele>373.4</ele>
        <time>2024-04-17T16:10:24Z</time>
      </trkpt>
      <trkpt lat="43.21221" lon="0.14557">
        <ele>373.4</ele>
        <time>2024-04-17T16:10:25Z</time>
      </trkpt>
      <trkpt lat="43.21224" lon="0.1456">
        <ele>373.6</ele>
        <time>2024-04-17T16:10:26Z</time>
      </trkpt>
      <trkpt lat="43.21226" lon="0.14561">
        <ele>373.4</ele>
        <time>2024-04-17T16:10:27Z</time>
      </trkpt>
      <trkpt lat="43.21228" lon="0.14562">
        <ele>373.2</ele>
        <time>2024-04-17T16:10:28Z</time>
      </trkpt>
      <trkpt lat="43.2123" lon="0.14563">
        <ele>373.2</ele>
        <time>2024-04-17T16:10:29Z</time>
      </trkpt>
      <trkpt lat="43.21232" lon="0.14563">
        <ele>373.2</ele>
        <time>2024-04-17T16:10:30Z</time>
      </trkpt>
      <trkpt lat="43.21236" lon="0.14562">
        <ele>373.2</ele>
        <time>2024-04-17T16:10:31Z</time>
      </trkpt>
      <trkpt lat="43.21238" lon="0.14562">
        <ele>373.2</ele>
        <time>2024-04-17T16:10:32Z</time>
      </trkpt>
      <trkpt lat="43.21241" lon="0.14562">
        <ele>373.2</ele>
        <time>2024-04-17T16:10:33Z</time>
      </trkpt>
      <trkpt lat="43.21244" lon="0.14564">
        <ele>373.2</ele>
        <time>2024-04-17T16:10:34Z</time>
      </trkpt>
      <trkpt lat="43.21246" lon="0.14565">
        <ele>373</ele>
        <time>2024-04-17T16:10:35Z</time>
      </trkpt>
      <trkpt lat="43.21251" lon="0.14569">
        <ele>373</ele>
        <time>2024-04-17T16:10:36Z</time>
      </trkpt>
      <trkpt lat="43.21253" lon="0.14572">
        <ele>373</ele>
        <time>2024-04-17T16:10:37Z</time>
      </trkpt>
      <trkpt lat="43.21255" lon="0.14574">
        <ele>373</ele>
        <time>2024-04-17T16:10:38Z</time>
      </trkpt>
      <trkpt lat="43.21257" lon="0.14574">
        <ele>372.8</ele>
        <time>2024-04-17T16:10:39Z</time>
      </trkpt>
      <trkpt lat="43.21259" lon="0.14576">
        <ele>372.8</ele>
        <time>2024-04-17T16:10:40Z</time>
      </trkpt>
      <trkpt lat="43.21261" lon="0.14577">
        <ele>372.6</ele>
        <time>2024-04-17T16:10:41Z</time>
      </trkpt>
      <trkpt lat="43.21263" lon="0.14578">
        <ele>372.6</ele>
        <time>2024-04-17T16:10:42Z</time>
      </trkpt>
      <trkpt lat="43.21265" lon="0.1458">
        <ele>372.6</ele>
        <time>2024-04-17T16:10:43Z</time>
      </trkpt>
      <trkpt lat="43.21268" lon="0.14579">
        <ele>372.6</ele>
        <time>2024-04-17T16:10:44Z</time>
      </trkpt>
      <trkpt lat="43.21273" lon="0.14577">
        <ele>372.6</ele>
        <time>2024-04-17T16:10:45Z</time>
      </trkpt>
      <trkpt lat="43.21279" lon="0.14577">
        <ele>372.6</ele>
        <time>2024-04-17T16:10:46Z</time>
      </trkpt>
      <trkpt lat="43.21285" lon="0.14577">
        <ele>372.8</ele>
        <time>2024-04-17T16:10:47Z</time>
      </trkpt>
      <trkpt lat="43.21288" lon="0.1458">
        <ele>372.8</ele>
        <time>2024-04-17T16:10:48Z</time>
      </trkpt>
      <trkpt lat="43.21291" lon="0.1458">
        <ele>373</ele>
        <time>2024-04-17T16:10:49Z</time>
      </trkpt>
      <trkpt lat="43.21295" lon="0.1458">
        <ele>373</ele>
        <time>2024-04-17T16:10:50Z</time>
      </trkpt>
      <trkpt lat="43.21298" lon="0.14579">
        <ele>373</ele>
        <time>2024-04-17T16:10:51Z</time>
      </trkpt>
      <trkpt lat="43.21301" lon="0.14579">
        <ele>373</ele>
        <time>2024-04-17T16:10:52Z</time>
      </trkpt>
      <trkpt lat="43.21305" lon="0.1458">
        <ele>373</ele>
        <time>2024-04-17T16:10:53Z</time>
      </trkpt>
      <trkpt lat="43.21307" lon="0.1458">
        <ele>373</ele>
        <time>2024-04-17T16:10:54Z</time>
      </trkpt>
      <trkpt lat="43.21308" lon="0.1458">
        <ele>373</ele>
        <time>2024-04-17T16:10:55Z</time>
      </trkpt>
      <trkpt lat="43.2131" lon="0.14579">
        <ele>372.8</ele>
        <time>2024-04-17T16:10:56Z</time>
      </trkpt>
      <trkpt lat="43.21313" lon="0.14579">
        <ele>372.8</ele>
        <time>2024-04-17T16:10:57Z</time>
      </trkpt>
      <trkpt lat="43.21316" lon="0.14581">
        <ele>372.8</ele>
        <time>2024-04-17T16:10:58Z</time>
      </trkpt>
      <trkpt lat="43.21319" lon="0.14584">
        <ele>372.8</ele>
        <time>2024-04-17T16:10:59Z</time>
      </trkpt>
      <trkpt lat="43.21322" lon="0.14586">
        <ele>372.8</ele>
        <time>2024-04-17T16:11:00Z</time>
      </trkpt>
      <trkpt lat="43.21325" lon="0.14587">
        <ele>372.6</ele>
        <time>2024-04-17T16:11:01Z</time>
      </trkpt>
      <trkpt lat="43.21326" lon="0.14588">
        <ele>372.4</ele>
        <time>2024-04-17T16:11:02Z</time>
      </trkpt>
      <trkpt lat="43.21328" lon="0.14589">
        <ele>372.2</ele>
        <time>2024-04-17T16:11:03Z</time>
      </trkpt>
      <trkpt lat="43.2133" lon="0.14589">
        <ele>372.2</ele>
        <time>2024-04-17T16:11:04Z</time>
      </trkpt>
      <trkpt lat="43.21333" lon="0.14589">
        <ele>372.4</ele>
        <time>2024-04-17T16:11:05Z</time>
      </trkpt>
      <trkpt lat="43.21336" lon="0.14589">
        <ele>372.4</ele>
        <time>2024-04-17T16:11:06Z</time>
      </trkpt>
      <trkpt lat="43.2134" lon="0.14591">
        <ele>372</ele>
        <time>2024-04-17T16:11:07Z</time>
      </trkpt>
      <trkpt lat="43.21343" lon="0.14593">
        <ele>372.2</ele>
        <time>2024-04-17T16:11:08Z</time>
      </trkpt>
      <trkpt lat="43.21347" lon="0.14594">
        <ele>372</ele>
        <time>2024-04-17T16:11:09Z</time>
      </trkpt>
      <trkpt lat="43.2135" lon="0.14595">
        <ele>372</ele>
        <time>2024-04-17T16:11:10Z</time>
      </trkpt>
      <trkpt lat="43.21354" lon="0.14596">
        <ele>371.8</ele>
        <time>2024-04-17T16:11:11Z</time>
      </trkpt>
      <trkpt lat="43.21357" lon="0.14597">
        <ele>372</ele>
        <time>2024-04-17T16:11:12Z</time>
      </trkpt>
      <trkpt lat="43.21359" lon="0.14598">
        <ele>372</ele>
        <time>2024-04-17T16:11:13Z</time>
      </trkpt>
      <trkpt lat="43.21362" lon="0.14599">
        <ele>371.8</ele>
        <time>2024-04-17T16:11:14Z</time>
      </trkpt>
      <trkpt lat="43.21365" lon="0.14599">
        <ele>371.8</ele>
        <time>2024-04-17T16:11:15Z</time>
      </trkpt>
      <trkpt lat="43.21368" lon="0.14599">
        <ele>371.6</ele>
        <time>2024-04-17T16:11:16Z</time>
      </trkpt>
      <trkpt lat="43.21371" lon="0.14599">
        <ele>371.6</ele>
        <time>2024-04-17T16:11:17Z</time>
      </trkpt>
      <trkpt lat="43.21374" lon="0.146">
        <ele>371.6</ele>
        <time>2024-04-17T16:11:18Z</time>
      </trkpt>
      <trkpt lat="43.21377" lon="0.14601">
        <ele>371.6</ele>
        <time>2024-04-17T16:11:19Z</time>
      </trkpt>
      <trkpt lat="43.21381" lon="0.14602">
        <ele>371.4</ele>
        <time>2024-04-17T16:11:20Z</time>
      </trkpt>
      <trkpt lat="43.21384" lon="0.14604">
        <ele>371.4</ele>
        <time>2024-04-17T16:11:21Z</time>
      </trkpt>
      <trkpt lat="43.21388" lon="0.14605">
        <ele>371.4</ele>
        <time>2024-04-17T16:11:22Z</time>
      </trkpt>
      <trkpt lat="43.21392" lon="0.14604">
        <ele>371.4</ele>
        <time>2024-04-17T16:11:23Z</time>
      </trkpt>
      <trkpt lat="43.21395" lon="0.14602">
        <ele>371.4</ele>
        <time>2024-04-17T16:11:24Z</time>
      </trkpt>
      <trkpt lat="43.21398" lon="0.14597">
        <ele>371.4</ele>
        <time>2024-04-17T16:11:25Z</time>
      </trkpt>
      <trkpt lat="43.214" lon="0.14592">
        <ele>371.4</ele>
        <time>2024-04-17T16:11:26Z</time>
      </trkpt>
      <trkpt lat="43.21402" lon="0.14588">
        <ele>371.4</ele>
        <time>2024-04-17T16:11:27Z</time>
      </trkpt>
      <trkpt lat="43.21402" lon="0.14583">
        <ele>371.4</ele>
        <time>2024-04-17T16:11:28Z</time>
      </trkpt>
      <trkpt lat="43.21403" lon="0.14579">
        <ele>371.4</ele>
        <time>2024-04-17T16:11:29Z</time>
      </trkpt>
      <trkpt lat="43.21405" lon="0.14577">
        <ele>371.4</ele>
        <time>2024-04-17T16:11:30Z</time>
      </trkpt>
      <trkpt lat="43.21406" lon="0.14574">
        <ele>371.4</ele>
        <time>2024-04-17T16:11:31Z</time>
      </trkpt>
      <trkpt lat="43.21408" lon="0.14572">
        <ele>371.4</ele>
        <time>2024-04-17T16:11:32Z</time>
      </trkpt>
      <trkpt lat="43.21411" lon="0.14568">
        <ele>371.6</ele>
        <time>2024-04-17T16:11:33Z</time>
      </trkpt>
      <trkpt lat="43.21412" lon="0.14564">
        <ele>371.6</ele>
        <time>2024-04-17T16:11:34Z</time>
      </trkpt>
      <trkpt lat="43.21413" lon="0.14559">
        <ele>371.6</ele>
        <time>2024-04-17T16:11:35Z</time>
      </trkpt>
      <trkpt lat="43.21415" lon="0.14555">
        <ele>371.6</ele>
        <time>2024-04-17T16:11:36Z</time>
      </trkpt>
      <trkpt lat="43.21417" lon="0.14553">
        <ele>371.6</ele>
        <time>2024-04-17T16:11:37Z</time>
      </trkpt>
      <trkpt lat="43.21419" lon="0.1455">
        <ele>371.6</ele>
        <time>2024-04-17T16:11:38Z</time>
      </trkpt>
      <trkpt lat="43.2142" lon="0.14547">
        <ele>371.6</ele>
        <time>2024-04-17T16:11:39Z</time>
      </trkpt>
      <trkpt lat="43.21421" lon="0.14544">
        <ele>371.6</ele>
        <time>2024-04-17T16:11:40Z</time>
      </trkpt>
      <trkpt lat="43.21421" lon="0.1454">
        <ele>371.6</ele>
        <time>2024-04-17T16:11:41Z</time>
      </trkpt>
      <trkpt lat="43.2142" lon="0.14536">
        <ele>371.6</ele>
        <time>2024-04-17T16:11:42Z</time>
      </trkpt>
      <trkpt lat="43.21419" lon="0.14534">
        <ele>371.6</ele>
        <time>2024-04-17T16:11:43Z</time>
      </trkpt>
      <trkpt lat="43.21419" lon="0.14531">
        <ele>371.6</ele>
        <time>2024-04-17T16:11:44Z</time>
      </trkpt>
      <trkpt lat="43.21418" lon="0.14529">
        <ele>371.6</ele>
        <time>2024-04-17T16:11:45Z</time>
      </trkpt>
      <trkpt lat="43.21419" lon="0.14525">
        <ele>371.6</ele>
        <time>2024-04-17T16:11:46Z</time>
      </trkpt>
      <trkpt lat="43.21419" lon="0.14523">
        <ele>371.6</ele>
        <time>2024-04-17T16:11:47Z</time>
      </trkpt>
      <trkpt lat="43.21421" lon="0.14522">
        <ele>371.8</ele>
        <time>2024-04-17T16:11:48Z</time>
      </trkpt>
      <trkpt lat="43.21423" lon="0.14522">
        <ele>371.8</ele>
        <time>2024-04-17T16:11:49Z</time>
      </trkpt>
      <trkpt lat="43.21423" lon="0.14522">
        <ele>371.8</ele>
        <time>2024-04-17T16:11:50Z</time>
      </trkpt>
      <trkpt lat="43.21424" lon="0.14521">
        <ele>371.8</ele>
        <time>2024-04-17T16:11:51Z</time>
      </trkpt>
      <trkpt lat="43.21425" lon="0.1452">
        <ele>371.8</ele>
        <time>2024-04-17T16:11:52Z</time>
      </trkpt>
      <trkpt lat="43.21426" lon="0.1452">
        <ele>371.8</ele>
        <time>2024-04-17T16:11:53Z</time>
      </trkpt>
      <trkpt lat="43.21426" lon="0.14518">
        <ele>371.8</ele>
        <time>2024-04-17T16:11:54Z</time>
      </trkpt>
      <trkpt lat="43.21427" lon="0.14516">
        <ele>371.8</ele>
        <time>2024-04-17T16:11:55Z</time>
      </trkpt>
      <trkpt lat="43.21427" lon="0.14514">
        <ele>371.8</ele>
        <time>2024-04-17T16:11:56Z</time>
      </trkpt>
      <trkpt lat="43.21427" lon="0.14512">
        <ele>371.8</ele>
        <time>2024-04-17T16:11:57Z</time>
      </trkpt>
      <trkpt lat="43.21427" lon="0.14508">
        <ele>371.8</ele>
        <time>2024-04-17T16:11:58Z</time>
      </trkpt>
      <trkpt lat="43.21428" lon="0.14505">
        <ele>371.8</ele>
        <time>2024-04-17T16:11:59Z</time>
      </trkpt>
      <trkpt lat="43.21429" lon="0.14501">
        <ele>371.8</ele>
        <time>2024-04-17T16:12:00Z</time>
      </trkpt>
      <trkpt lat="43.2143" lon="0.14497">
        <ele>371.8</ele>
        <time>2024-04-17T16:12:01Z</time>
      </trkpt>
      <trkpt lat="43.21431" lon="0.14492">
        <ele>371.8</ele>
        <time>2024-04-17T16:12:02Z</time>
      </trkpt>
      <trkpt lat="43.21432" lon="0.14488">
        <ele>372</ele>
        <time>2024-04-17T16:12:03Z</time>
      </trkpt>
      <trkpt lat="43.21433" lon="0.14484">
        <ele>372.4</ele>
        <time>2024-04-17T16:12:04Z</time>
      </trkpt>
      <trkpt lat="43.21434" lon="0.14481">
        <ele>372.4</ele>
        <time>2024-04-17T16:12:05Z</time>
      </trkpt>
      <trkpt lat="43.21435" lon="0.14477">
        <ele>372.8</ele>
        <time>2024-04-17T16:12:06Z</time>
      </trkpt>
      <trkpt lat="43.21436" lon="0.14474">
        <ele>373</ele>
        <time>2024-04-17T16:12:07Z</time>
      </trkpt>
      <trkpt lat="43.21437" lon="0.14471">
        <ele>373</ele>
        <time>2024-04-17T16:12:08Z</time>
      </trkpt>
      <trkpt lat="43.21439" lon="0.14469">
        <ele>373.4</ele>
        <time>2024-04-17T16:12:09Z</time>
      </trkpt>
      <trkpt lat="43.2144" lon="0.14466">
        <ele>373.4</ele>
        <time>2024-04-17T16:12:10Z</time>
      </trkpt>
      <trkpt lat="43.21441" lon="0.14464">
        <ele>373.6</ele>
        <time>2024-04-17T16:12:11Z</time>
      </trkpt>
      <trkpt lat="43.21442" lon="0.14461">
        <ele>373.6</ele>
        <time>2024-04-17T16:12:12Z</time>
      </trkpt>
      <trkpt lat="43.21443" lon="0.14458">
        <ele>373.8</ele>
        <time>2024-04-17T16:12:13Z</time>
      </trkpt>
      <trkpt lat="43.21444" lon="0.14454">
        <ele>373.8</ele>
        <time>2024-04-17T16:12:14Z</time>
      </trkpt>
      <trkpt lat="43.21445" lon="0.14452">
        <ele>374</ele>
        <time>2024-04-17T16:12:15Z</time>
      </trkpt>
      <trkpt lat="43.21445" lon="0.14449">
        <ele>374</ele>
        <time>2024-04-17T16:12:16Z</time>
      </trkpt>
      <trkpt lat="43.21446" lon="0.14446">
        <ele>374</ele>
        <time>2024-04-17T16:12:17Z</time>
      </trkpt>
      <trkpt lat="43.21447" lon="0.14443">
        <ele>374.2</ele>
        <time>2024-04-17T16:12:18Z</time>
      </trkpt>
      <trkpt lat="43.21449" lon="0.14441">
        <ele>374.2</ele>
        <time>2024-04-17T16:12:19Z</time>
      </trkpt>
      <trkpt lat="43.21451" lon="0.14439">
        <ele>374.4</ele>
        <time>2024-04-17T16:12:20Z</time>
      </trkpt>
      <trkpt lat="43.21452" lon="0.14437">
        <ele>374.4</ele>
        <time>2024-04-17T16:12:21Z</time>
      </trkpt>
      <trkpt lat="43.21453" lon="0.14433">
        <ele>374.4</ele>
        <time>2024-04-17T16:12:22Z</time>
      </trkpt>
      <trkpt lat="43.21454" lon="0.14429">
        <ele>374.4</ele>
        <time>2024-04-17T16:12:23Z</time>
      </trkpt>
      <trkpt lat="43.21454" lon="0.14424">
        <ele>374.6</ele>
        <time>2024-04-17T16:12:24Z</time>
      </trkpt>
      <trkpt lat="43.21454" lon="0.14421">
        <ele>374.8</ele>
        <time>2024-04-17T16:12:25Z</time>
      </trkpt>
      <trkpt lat="43.21455" lon="0.14418">
        <ele>375</ele>
        <time>2024-04-17T16:12:26Z</time>
      </trkpt>
      <trkpt lat="43.21456" lon="0.14415">
        <ele>375.2</ele>
        <time>2024-04-17T16:12:27Z</time>
      </trkpt>
      <trkpt lat="43.21457" lon="0.14411">
        <ele>375.2</ele>
        <time>2024-04-17T16:12:28Z</time>
      </trkpt>
      <trkpt lat="43.21456" lon="0.14408">
        <ele>375.4</ele>
        <time>2024-04-17T16:12:29Z</time>
      </trkpt>
      <trkpt lat="43.21455" lon="0.14404">
        <ele>375.4</ele>
        <time>2024-04-17T16:12:30Z</time>
      </trkpt>
      <trkpt lat="43.21456" lon="0.14402">
        <ele>375.6</ele>
        <time>2024-04-17T16:12:31Z</time>
      </trkpt>
      <trkpt lat="43.21459" lon="0.14399">
        <ele>375.6</ele>
        <time>2024-04-17T16:12:32Z</time>
      </trkpt>
      <trkpt lat="43.2146" lon="0.14397">
        <ele>375.8</ele>
        <time>2024-04-17T16:12:33Z</time>
      </trkpt>
      <trkpt lat="43.2146" lon="0.14394">
        <ele>376</ele>
        <time>2024-04-17T16:12:34Z</time>
      </trkpt>
      <trkpt lat="43.21461" lon="0.14392">
        <ele>376</ele>
        <time>2024-04-17T16:12:35Z</time>
      </trkpt>
      <trkpt lat="43.21462" lon="0.1439">
        <ele>376</ele>
        <time>2024-04-17T16:12:36Z</time>
      </trkpt>
      <trkpt lat="43.21463" lon="0.14388">
        <ele>376.2</ele>
        <time>2024-04-17T16:12:37Z</time>
      </trkpt>
      <trkpt lat="43.21463" lon="0.14386">
        <ele>376.2</ele>
        <time>2024-04-17T16:12:38Z</time>
      </trkpt>
      <trkpt lat="43.21464" lon="0.14385">
        <ele>376.4</ele>
        <time>2024-04-17T16:12:39Z</time>
      </trkpt>
      <trkpt lat="43.21465" lon="0.14383">
        <ele>376.4</ele>
        <time>2024-04-17T16:12:40Z</time>
      </trkpt>
      <trkpt lat="43.21465" lon="0.14381">
        <ele>376.6</ele>
        <time>2024-04-17T16:12:41Z</time>
      </trkpt>
      <trkpt lat="43.21466" lon="0.14379">
        <ele>376.8</ele>
        <time>2024-04-17T16:12:42Z</time>
      </trkpt>
      <trkpt lat="43.21467" lon="0.14377">
        <ele>377</ele>
        <time>2024-04-17T16:12:43Z</time>
      </trkpt>
      <trkpt lat="43.21468" lon="0.14375">
        <ele>377</ele>
        <time>2024-04-17T16:12:44Z</time>
      </trkpt>
      <trkpt lat="43.21469" lon="0.14374">
        <ele>377.2</ele>
        <time>2024-04-17T16:12:45Z</time>
      </trkpt>
      <trkpt lat="43.2147" lon="0.14372">
        <ele>377.2</ele>
        <time>2024-04-17T16:12:46Z</time>
      </trkpt>
      <trkpt lat="43.21472" lon="0.14369">
        <ele>377.2</ele>
        <time>2024-04-17T16:12:47Z</time>
      </trkpt>
      <trkpt lat="43.21473" lon="0.14366">
        <ele>377.4</ele>
        <time>2024-04-17T16:12:48Z</time>
      </trkpt>
      <trkpt lat="43.21473" lon="0.14364">
        <ele>377.6</ele>
        <time>2024-04-17T16:12:49Z</time>
      </trkpt>
      <trkpt lat="43.21474" lon="0.14362">
        <ele>378</ele>
        <time>2024-04-17T16:12:50Z</time>
      </trkpt>
      <trkpt lat="43.21474" lon="0.14359">
        <ele>378</ele>
        <time>2024-04-17T16:12:51Z</time>
      </trkpt>
      <trkpt lat="43.21473" lon="0.14356">
        <ele>378.2</ele>
        <time>2024-04-17T16:12:52Z</time>
      </trkpt>
      <trkpt lat="43.21473" lon="0.14354">
        <ele>378.2</ele>
        <time>2024-04-17T16:12:53Z</time>
      </trkpt>
      <trkpt lat="43.21474" lon="0.1435">
        <ele>378.4</ele>
        <time>2024-04-17T16:12:54Z</time>
      </trkpt>
      <trkpt lat="43.21475" lon="0.14347">
        <ele>378.4</ele>
        <time>2024-04-17T16:12:55Z</time>
      </trkpt>
      <trkpt lat="43.21476" lon="0.14344">
        <ele>378.6</ele>
        <time>2024-04-17T16:12:56Z</time>
      </trkpt>
      <trkpt lat="43.21477" lon="0.14342">
        <ele>378.8</ele>
        <time>2024-04-17T16:12:57Z</time>
      </trkpt>
      <trkpt lat="43.21478" lon="0.14339">
        <ele>378.8</ele>
        <time>2024-04-17T16:12:58Z</time>
      </trkpt>
      <trkpt lat="43.21479" lon="0.14336">
        <ele>378.8</ele>
        <time>2024-04-17T16:12:59Z</time>
      </trkpt>
      <trkpt lat="43.21479" lon="0.14333">
        <ele>379</ele>
        <time>2024-04-17T16:13:00Z</time>
      </trkpt>
      <trkpt lat="43.21479" lon="0.1433">
        <ele>379</ele>
        <time>2024-04-17T16:13:01Z</time>
      </trkpt>
      <trkpt lat="43.21479" lon="0.14327">
        <ele>379</ele>
        <time>2024-04-17T16:13:02Z</time>
      </trkpt>
      <trkpt lat="43.2148" lon="0.14324">
        <ele>379.2</ele>
        <time>2024-04-17T16:13:03Z</time>
      </trkpt>
      <trkpt lat="43.2148" lon="0.14321">
        <ele>379.4</ele>
        <time>2024-04-17T16:13:04Z</time>
      </trkpt>
      <trkpt lat="43.2148" lon="0.14317">
        <ele>379.6</ele>
        <time>2024-04-17T16:13:05Z</time>
      </trkpt>
      <trkpt lat="43.21482" lon="0.14313">
        <ele>379.8</ele>
        <time>2024-04-17T16:13:06Z</time>
      </trkpt>
      <trkpt lat="43.21484" lon="0.14311">
        <ele>380</ele>
        <time>2024-04-17T16:13:07Z</time>
      </trkpt>
      <trkpt lat="43.21486" lon="0.14309">
        <ele>380.2</ele>
        <time>2024-04-17T16:13:08Z</time>
      </trkpt>
      <trkpt lat="43.21487" lon="0.14306">
        <ele>380.2</ele>
        <time>2024-04-17T16:13:09Z</time>
      </trkpt>
      <trkpt lat="43.21488" lon="0.14302">
        <ele>380.2</ele>
        <time>2024-04-17T16:13:10Z</time>
      </trkpt>
      <trkpt lat="43.21487" lon="0.14297">
        <ele>380.4</ele>
        <time>2024-04-17T16:13:11Z</time>
      </trkpt>
      <trkpt lat="43.21487" lon="0.14293">
        <ele>380.4</ele>
        <time>2024-04-17T16:13:12Z</time>
      </trkpt>
      <trkpt lat="43.21488" lon="0.14289">
        <ele>380.4</ele>
        <time>2024-04-17T16:13:13Z</time>
      </trkpt>
      <trkpt lat="43.21489" lon="0.14287">
        <ele>380.6</ele>
        <time>2024-04-17T16:13:14Z</time>
      </trkpt>
      <trkpt lat="43.2149" lon="0.14285">
        <ele>380.8</ele>
        <time>2024-04-17T16:13:15Z</time>
      </trkpt>
      <trkpt lat="43.21492" lon="0.14282">
        <ele>380.8</ele>
        <time>2024-04-17T16:13:16Z</time>
      </trkpt>
      <trkpt lat="43.21493" lon="0.1428">
        <ele>380.8</ele>
        <time>2024-04-17T16:13:17Z</time>
      </trkpt>
      <trkpt lat="43.21494" lon="0.14277">
        <ele>380.8</ele>
        <time>2024-04-17T16:13:18Z</time>
      </trkpt>
      <trkpt lat="43.21494" lon="0.14274">
        <ele>381</ele>
        <time>2024-04-17T16:13:19Z</time>
      </trkpt>
      <trkpt lat="43.21493" lon="0.1427">
        <ele>381</ele>
        <time>2024-04-17T16:13:20Z</time>
      </trkpt>
      <trkpt lat="43.21493" lon="0.14265">
        <ele>381.2</ele>
        <time>2024-04-17T16:13:21Z</time>
      </trkpt>
      <trkpt lat="43.21494" lon="0.14263">
        <ele>381.4</ele>
        <time>2024-04-17T16:13:22Z</time>
      </trkpt>
      <trkpt lat="43.21493" lon="0.14258">
        <ele>381.4</ele>
        <time>2024-04-17T16:13:23Z</time>
      </trkpt>
      <trkpt lat="43.21493" lon="0.14253">
        <ele>381.8</ele>
        <time>2024-04-17T16:13:24Z</time>
      </trkpt>
      <trkpt lat="43.21494" lon="0.14247">
        <ele>381.8</ele>
        <time>2024-04-17T16:13:25Z</time>
      </trkpt>
      <trkpt lat="43.21494" lon="0.14245">
        <ele>382</ele>
        <time>2024-04-17T16:13:26Z</time>
      </trkpt>
      <trkpt lat="43.21494" lon="0.14244">
        <ele>382</ele>
        <time>2024-04-17T16:13:27Z</time>
      </trkpt>
      <trkpt lat="43.21496" lon="0.14242">
        <ele>382.2</ele>
        <time>2024-04-17T16:13:28Z</time>
      </trkpt>
      <trkpt lat="43.21497" lon="0.1424">
        <ele>382.2</ele>
        <time>2024-04-17T16:13:29Z</time>
      </trkpt>
      <trkpt lat="43.21498" lon="0.14238">
        <ele>382.4</ele>
        <time>2024-04-17T16:13:30Z</time>
      </trkpt>
      <trkpt lat="43.215" lon="0.14237">
        <ele>382.6</ele>
        <time>2024-04-17T16:13:31Z</time>
      </trkpt>
      <trkpt lat="43.21501" lon="0.14235">
        <ele>382.6</ele>
        <time>2024-04-17T16:13:32Z</time>
      </trkpt>
      <trkpt lat="43.21503" lon="0.14234">
        <ele>382.6</ele>
        <time>2024-04-17T16:13:33Z</time>
      </trkpt>
      <trkpt lat="43.21504" lon="0.14233">
        <ele>382.6</ele>
        <time>2024-04-17T16:13:34Z</time>
      </trkpt>
      <trkpt lat="43.21506" lon="0.14231">
        <ele>382.8</ele>
        <time>2024-04-17T16:13:35Z</time>
      </trkpt>
      <trkpt lat="43.21508" lon="0.1423">
        <ele>382.8</ele>
        <time>2024-04-17T16:13:36Z</time>
      </trkpt>
      <trkpt lat="43.2151" lon="0.14228">
        <ele>382.8</ele>
        <time>2024-04-17T16:13:37Z</time>
      </trkpt>
      <trkpt lat="43.21511" lon="0.14226">
        <ele>383</ele>
        <time>2024-04-17T16:13:38Z</time>
      </trkpt>
      <trkpt lat="43.21513" lon="0.14225">
        <ele>383.2</ele>
        <time>2024-04-17T16:13:39Z</time>
      </trkpt>
      <trkpt lat="43.21514" lon="0.14224">
        <ele>383.2</ele>
        <time>2024-04-17T16:13:40Z</time>
      </trkpt>
      <trkpt lat="43.21516" lon="0.14222">
        <ele>383.2</ele>
        <time>2024-04-17T16:13:41Z</time>
      </trkpt>
      <trkpt lat="43.21518" lon="0.14221">
        <ele>383.4</ele>
        <time>2024-04-17T16:13:42Z</time>
      </trkpt>
      <trkpt lat="43.2152" lon="0.14219">
        <ele>383.6</ele>
        <time>2024-04-17T16:13:43Z</time>
      </trkpt>
      <trkpt lat="43.21522" lon="0.14217">
        <ele>383.8</ele>
        <time>2024-04-17T16:13:44Z</time>
      </trkpt>
      <trkpt lat="43.21525" lon="0.14216">
        <ele>383.8</ele>
        <time>2024-04-17T16:13:45Z</time>
      </trkpt>
      <trkpt lat="43.21527" lon="0.14215">
        <ele>383.8</ele>
        <time>2024-04-17T16:13:46Z</time>
      </trkpt>
      <trkpt lat="43.21529" lon="0.14214">
        <ele>384</ele>
        <time>2024-04-17T16:13:47Z</time>
      </trkpt>
      <trkpt lat="43.21531" lon="0.14212">
        <ele>384</ele>
        <time>2024-04-17T16:13:48Z</time>
      </trkpt>
      <trkpt lat="43.21533" lon="0.1421">
        <ele>384.2</ele>
        <time>2024-04-17T16:13:49Z</time>
      </trkpt>
      <trkpt lat="43.21535" lon="0.14209">
        <ele>384.4</ele>
        <time>2024-04-17T16:13:50Z</time>
      </trkpt>
      <trkpt lat="43.21538" lon="0.14207">
        <ele>384.6</ele>
        <time>2024-04-17T16:13:51Z</time>
      </trkpt>
      <trkpt lat="43.2154" lon="0.14206">
        <ele>384.8</ele>
        <time>2024-04-17T16:13:52Z</time>
      </trkpt>
      <trkpt lat="43.21542" lon="0.14205">
        <ele>384.8</ele>
        <time>2024-04-17T16:13:53Z</time>
      </trkpt>
      <trkpt lat="43.21545" lon="0.14204">
        <ele>385</ele>
        <time>2024-04-17T16:13:54Z</time>
      </trkpt>
      <trkpt lat="43.21547" lon="0.14203">
        <ele>385</ele>
        <time>2024-04-17T16:13:55Z</time>
      </trkpt>
      <trkpt lat="43.2155" lon="0.14203">
        <ele>385</ele>
        <time>2024-04-17T16:13:56Z</time>
      </trkpt>
      <trkpt lat="43.21553" lon="0.14201">
        <ele>385</ele>
        <time>2024-04-17T16:13:57Z</time>
      </trkpt>
      <trkpt lat="43.21555" lon="0.142">
        <ele>385.2</ele>
        <time>2024-04-17T16:13:58Z</time>
      </trkpt>
      <trkpt lat="43.21557" lon="0.142">
        <ele>385.2</ele>
        <time>2024-04-17T16:13:59Z</time>
      </trkpt>
      <trkpt lat="43.21558" lon="0.142">
        <ele>385.2</ele>
        <time>2024-04-17T16:14:00Z</time>
      </trkpt>
      <trkpt lat="43.21559" lon="0.14201">
        <ele>385.2</ele>
        <time>2024-04-17T16:14:01Z</time>
      </trkpt>
      <trkpt lat="43.2156" lon="0.14203">
        <ele>385.2</ele>
        <time>2024-04-17T16:14:02Z</time>
      </trkpt>
      <trkpt lat="43.2156" lon="0.14205">
        <ele>385.2</ele>
        <time>2024-04-17T16:14:03Z</time>
      </trkpt>
      <trkpt lat="43.2156" lon="0.14207">
        <ele>385.2</ele>
        <time>2024-04-17T16:14:04Z</time>
      </trkpt>
      <trkpt lat="43.2156" lon="0.14211">
        <ele>385.2</ele>
        <time>2024-04-17T16:14:05Z</time>
      </trkpt>
      <trkpt lat="43.21561" lon="0.14216">
        <ele>385.2</ele>
        <time>2024-04-17T16:14:06Z</time>
      </trkpt>
      <trkpt lat="43.21561" lon="0.1422">
        <ele>385.2</ele>
        <time>2024-04-17T16:14:07Z</time>
      </trkpt>
      <trkpt lat="43.21561" lon="0.14223">
        <ele>385.2</ele>
        <time>2024-04-17T16:14:08Z</time>
      </trkpt>
      <trkpt lat="43.21561" lon="0.14227">
        <ele>385.2</ele>
        <time>2024-04-17T16:14:09Z</time>
      </trkpt>
      <trkpt lat="43.2156" lon="0.1423">
        <ele>385.2</ele>
        <time>2024-04-17T16:14:10Z</time>
      </trkpt>
      <trkpt lat="43.2156" lon="0.14235">
        <ele>385</ele>
        <time>2024-04-17T16:14:11Z</time>
      </trkpt>
      <trkpt lat="43.2156" lon="0.14239">
        <ele>384.8</ele>
        <time>2024-04-17T16:14:12Z</time>
      </trkpt>
      <trkpt lat="43.2156" lon="0.14245">
        <ele>384.8</ele>
        <time>2024-04-17T16:14:13Z</time>
      </trkpt>
      <trkpt lat="43.21561" lon="0.14252">
        <ele>384.4</ele>
        <time>2024-04-17T16:14:14Z</time>
      </trkpt>
      <trkpt lat="43.21562" lon="0.1426">
        <ele>384.2</ele>
        <time>2024-04-17T16:14:15Z</time>
      </trkpt>
      <trkpt lat="43.21562" lon="0.14266">
        <ele>383.8</ele>
        <time>2024-04-17T16:14:16Z</time>
      </trkpt>
      <trkpt lat="43.21563" lon="0.14272">
        <ele>383.8</ele>
        <time>2024-04-17T16:14:17Z</time>
      </trkpt>
      <trkpt lat="43.21562" lon="0.14278">
        <ele>383.2</ele>
        <time>2024-04-17T16:14:18Z</time>
      </trkpt>
      <trkpt lat="43.21561" lon="0.14283">
        <ele>382.8</ele>
        <time>2024-04-17T16:14:19Z</time>
      </trkpt>
      <trkpt lat="43.2156" lon="0.14288">
        <ele>382.4</ele>
        <time>2024-04-17T16:14:20Z</time>
      </trkpt>
      <trkpt lat="43.21561" lon="0.14296">
        <ele>382</ele>
        <time>2024-04-17T16:14:21Z</time>
      </trkpt>
      <trkpt lat="43.21561" lon="0.14304">
        <ele>381.8</ele>
        <time>2024-04-17T16:14:22Z</time>
      </trkpt>
      <trkpt lat="43.21561" lon="0.14312">
        <ele>381.2</ele>
        <time>2024-04-17T16:14:23Z</time>
      </trkpt>
      <trkpt lat="43.21562" lon="0.14321">
        <ele>381</ele>
        <time>2024-04-17T16:14:24Z</time>
      </trkpt>
      <trkpt lat="43.21564" lon="0.14329">
        <ele>380.8</ele>
        <time>2024-04-17T16:14:25Z</time>
      </trkpt>
      <trkpt lat="43.21567" lon="0.14338">
        <ele>380.6</ele>
        <time>2024-04-17T16:14:26Z</time>
      </trkpt>
      <trkpt lat="43.21571" lon="0.14345">
        <ele>380.2</ele>
        <time>2024-04-17T16:14:27Z</time>
      </trkpt>
      <trkpt lat="43.21576" lon="0.14351">
        <ele>380.2</ele>
        <time>2024-04-17T16:14:28Z</time>
      </trkpt>
      <trkpt lat="43.21581" lon="0.14358">
        <ele>380</ele>
        <time>2024-04-17T16:14:29Z</time>
      </trkpt>
      <trkpt lat="43.21585" lon="0.14364">
        <ele>380</ele>
        <time>2024-04-17T16:14:30Z</time>
      </trkpt>
      <trkpt lat="43.21587" lon="0.1437">
        <ele>380</ele>
        <time>2024-04-17T16:14:31Z</time>
      </trkpt>
      <trkpt lat="43.21589" lon="0.14377">
        <ele>379.8</ele>
        <time>2024-04-17T16:14:32Z</time>
      </trkpt>
      <trkpt lat="43.2159" lon="0.14383">
        <ele>379.6</ele>
        <time>2024-04-17T16:14:33Z</time>
      </trkpt>
      <trkpt lat="43.2159" lon="0.14389">
        <ele>379.4</ele>
        <time>2024-04-17T16:14:34Z</time>
      </trkpt>
      <trkpt lat="43.21593" lon="0.14395">
        <ele>379.2</ele>
        <time>2024-04-17T16:14:35Z</time>
      </trkpt>
      <trkpt lat="43.21595" lon="0.14403">
        <ele>379.2</ele>
        <time>2024-04-17T16:14:36Z</time>
      </trkpt>
      <trkpt lat="43.21599" lon="0.14412">
        <ele>379.2</ele>
        <time>2024-04-17T16:14:37Z</time>
      </trkpt>
      <trkpt lat="43.21602" lon="0.1442">
        <ele>379</ele>
        <time>2024-04-17T16:14:38Z</time>
      </trkpt>
      <trkpt lat="43.21607" lon="0.14427">
        <ele>378.8</ele>
        <time>2024-04-17T16:14:39Z</time>
      </trkpt>
      <trkpt lat="43.2161" lon="0.14432">
        <ele>378.8</ele>
        <time>2024-04-17T16:14:40Z</time>
      </trkpt>
      <trkpt lat="43.21612" lon="0.14436">
        <ele>378.6</ele>
        <time>2024-04-17T16:14:41Z</time>
      </trkpt>
      <trkpt lat="43.21613" lon="0.1444">
        <ele>378.4</ele>
        <time>2024-04-17T16:14:42Z</time>
      </trkpt>
      <trkpt lat="43.21614" lon="0.14447">
        <ele>378</ele>
        <time>2024-04-17T16:14:43Z</time>
      </trkpt>
      <trkpt lat="43.21616" lon="0.14455">
        <ele>377.6</ele>
        <time>2024-04-17T16:14:44Z</time>
      </trkpt>
      <trkpt lat="43.21619" lon="0.14462">
        <ele>377.4</ele>
        <time>2024-04-17T16:14:45Z</time>
      </trkpt>
      <trkpt lat="43.21622" lon="0.14468">
        <ele>376.8</ele>
        <time>2024-04-17T16:14:46Z</time>
      </trkpt>
      <trkpt lat="43.21626" lon="0.14474">
        <ele>376.6</ele>
        <time>2024-04-17T16:14:47Z</time>
      </trkpt>
      <trkpt lat="43.21627" lon="0.14479">
        <ele>376.2</ele>
        <time>2024-04-17T16:14:48Z</time>
      </trkpt>
      <trkpt lat="43.21628" lon="0.14484">
        <ele>376.2</ele>
        <time>2024-04-17T16:14:49Z</time>
      </trkpt>
      <trkpt lat="43.21628" lon="0.14488">
        <ele>376</ele>
        <time>2024-04-17T16:14:50Z</time>
      </trkpt>
      <trkpt lat="43.21629" lon="0.14492">
        <ele>375.8</ele>
        <time>2024-04-17T16:14:51Z</time>
      </trkpt>
      <trkpt lat="43.21631" lon="0.14496">
        <ele>375.8</ele>
        <time>2024-04-17T16:14:52Z</time>
      </trkpt>
      <trkpt lat="43.21635" lon="0.14502">
        <ele>375.4</ele>
        <time>2024-04-17T16:14:53Z</time>
      </trkpt>
      <trkpt lat="43.21637" lon="0.14508">
        <ele>375.2</ele>
        <time>2024-04-17T16:14:54Z</time>
      </trkpt>
      <trkpt lat="43.21639" lon="0.14513">
        <ele>374.8</ele>
        <time>2024-04-17T16:14:55Z</time>
      </trkpt>
      <trkpt lat="43.2164" lon="0.14518">
        <ele>374.6</ele>
        <time>2024-04-17T16:14:56Z</time>
      </trkpt>
      <trkpt lat="43.21642" lon="0.14524">
        <ele>374.2</ele>
        <time>2024-04-17T16:14:57Z</time>
      </trkpt>
      <trkpt lat="43.21644" lon="0.14531">
        <ele>374</ele>
        <time>2024-04-17T16:14:58Z</time>
      </trkpt>
      <trkpt lat="43.21647" lon="0.14537">
        <ele>373.8</ele>
        <time>2024-04-17T16:14:59Z</time>
      </trkpt>
      <trkpt lat="43.2165" lon="0.14543">
        <ele>373.6</ele>
        <time>2024-04-17T16:15:00Z</time>
      </trkpt>
      <trkpt lat="43.21652" lon="0.14549">
        <ele>373.6</ele>
        <time>2024-04-17T16:15:01Z</time>
      </trkpt>
      <trkpt lat="43.21655" lon="0.14554">
        <ele>373.4</ele>
        <time>2024-04-17T16:15:02Z</time>
      </trkpt>
      <trkpt lat="43.21659" lon="0.1456">
        <ele>373.2</ele>
        <time>2024-04-17T16:15:03Z</time>
      </trkpt>
      <trkpt lat="43.21662" lon="0.14565">
        <ele>372.8</ele>
        <time>2024-04-17T16:15:04Z</time>
      </trkpt>
      <trkpt lat="43.21666" lon="0.14569">
        <ele>372.8</ele>
        <time>2024-04-17T16:15:05Z</time>
      </trkpt>
      <trkpt lat="43.21671" lon="0.14573">
        <ele>372.6</ele>
        <time>2024-04-17T16:15:06Z</time>
      </trkpt>
      <trkpt lat="43.21675" lon="0.14578">
        <ele>372.2</ele>
        <time>2024-04-17T16:15:07Z</time>
      </trkpt>
      <trkpt lat="43.2168" lon="0.14583">
        <ele>372.2</ele>
        <time>2024-04-17T16:15:08Z</time>
      </trkpt>
      <trkpt lat="43.21683" lon="0.14587">
        <ele>372</ele>
        <time>2024-04-17T16:15:09Z</time>
      </trkpt>
      <trkpt lat="43.21688" lon="0.14589">
        <ele>372</ele>
        <time>2024-04-17T16:15:10Z</time>
      </trkpt>
      <trkpt lat="43.21692" lon="0.14594">
        <ele>371.8</ele>
        <time>2024-04-17T16:15:11Z</time>
      </trkpt>
      <trkpt lat="43.21696" lon="0.14599">
        <ele>371.6</ele>
        <time>2024-04-17T16:15:12Z</time>
      </trkpt>
      <trkpt lat="43.21698" lon="0.14604">
        <ele>371.4</ele>
        <time>2024-04-17T16:15:13Z</time>
      </trkpt>
      <trkpt lat="43.21701" lon="0.14609">
        <ele>371.2</ele>
        <time>2024-04-17T16:15:14Z</time>
      </trkpt>
      <trkpt lat="43.21706" lon="0.14613">
        <ele>371</ele>
        <time>2024-04-17T16:15:15Z</time>
      </trkpt>
      <trkpt lat="43.2171" lon="0.14617">
        <ele>370.6</ele>
        <time>2024-04-17T16:15:16Z</time>
      </trkpt>
      <trkpt lat="43.21714" lon="0.14619">
        <ele>370.6</ele>
        <time>2024-04-17T16:15:17Z</time>
      </trkpt>
      <trkpt lat="43.21718" lon="0.14619">
        <ele>370.4</ele>
        <time>2024-04-17T16:15:18Z</time>
      </trkpt>
      <trkpt lat="43.21723" lon="0.14618">
        <ele>370.2</ele>
        <time>2024-04-17T16:15:19Z</time>
      </trkpt>
      <trkpt lat="43.21727" lon="0.14616">
        <ele>370.2</ele>
        <time>2024-04-17T16:15:20Z</time>
      </trkpt>
      <trkpt lat="43.21731" lon="0.14614">
        <ele>370</ele>
        <time>2024-04-17T16:15:21Z</time>
      </trkpt>
      <trkpt lat="43.21734" lon="0.14611">
        <ele>370</ele>
        <time>2024-04-17T16:15:22Z</time>
      </trkpt>
      <trkpt lat="43.21737" lon="0.14608">
        <ele>369.8</ele>
        <time>2024-04-17T16:15:23Z</time>
      </trkpt>
      <trkpt lat="43.21739" lon="0.14605">
        <ele>369.8</ele>
        <time>2024-04-17T16:15:24Z</time>
      </trkpt>
      <trkpt lat="43.21742" lon="0.14603">
        <ele>369.6</ele>
        <time>2024-04-17T16:15:25Z</time>
      </trkpt>
      <trkpt lat="43.21744" lon="0.14602">
        <ele>369.6</ele>
        <time>2024-04-17T16:15:26Z</time>
      </trkpt>
      <trkpt lat="43.21746" lon="0.14601">
        <ele>369.6</ele>
        <time>2024-04-17T16:15:27Z</time>
      </trkpt>
      <trkpt lat="43.21748" lon="0.14598">
        <ele>369.6</ele>
        <time>2024-04-17T16:15:28Z</time>
      </trkpt>
      <trkpt lat="43.21749" lon="0.14595">
        <ele>369.6</ele>
        <time>2024-04-17T16:15:29Z</time>
      </trkpt>
      <trkpt lat="43.21752" lon="0.14591">
        <ele>369.4</ele>
        <time>2024-04-17T16:15:30Z</time>
      </trkpt>
      <trkpt lat="43.21754" lon="0.14588">
        <ele>369.4</ele>
        <time>2024-04-17T16:15:31Z</time>
      </trkpt>
      <trkpt lat="43.21757" lon="0.14584">
        <ele>369.4</ele>
        <time>2024-04-17T16:15:32Z</time>
      </trkpt>
      <trkpt lat="43.21759" lon="0.14581">
        <ele>369.4</ele>
        <time>2024-04-17T16:15:33Z</time>
      </trkpt>
      <trkpt lat="43.21762" lon="0.1458">
        <ele>369.4</ele>
        <time>2024-04-17T16:15:34Z</time>
      </trkpt>
      <trkpt lat="43.21766" lon="0.14578">
        <ele>369.4</ele>
        <time>2024-04-17T16:15:35Z</time>
      </trkpt>
      <trkpt lat="43.21769" lon="0.14575">
        <ele>369.2</ele>
        <time>2024-04-17T16:15:36Z</time>
      </trkpt>
      <trkpt lat="43.21773" lon="0.14575">
        <ele>369.2</ele>
        <time>2024-04-17T16:15:37Z</time>
      </trkpt>
      <trkpt lat="43.21777" lon="0.14575">
        <ele>369.2</ele>
        <time>2024-04-17T16:15:38Z</time>
      </trkpt>
      <trkpt lat="43.21781" lon="0.14575">
        <ele>369.2</ele>
        <time>2024-04-17T16:15:39Z</time>
      </trkpt>
      <trkpt lat="43.21786" lon="0.14576">
        <ele>369.2</ele>
        <time>2024-04-17T16:15:40Z</time>
      </trkpt>
      <trkpt lat="43.2179" lon="0.14577">
        <ele>368.8</ele>
        <time>2024-04-17T16:15:41Z</time>
      </trkpt>
      <trkpt lat="43.21794" lon="0.14578">
        <ele>368.8</ele>
        <time>2024-04-17T16:15:42Z</time>
      </trkpt>
      <trkpt lat="43.21798" lon="0.1458">
        <ele>368.4</ele>
        <time>2024-04-17T16:15:43Z</time>
      </trkpt>
      <trkpt lat="43.21806" lon="0.14581">
        <ele>368.4</ele>
        <time>2024-04-17T16:15:44Z</time>
      </trkpt>
      <trkpt lat="43.21814" lon="0.14583">
        <ele>368</ele>
        <time>2024-04-17T16:15:45Z</time>
      </trkpt>
      <trkpt lat="43.2182" lon="0.14587">
        <ele>367.8</ele>
        <time>2024-04-17T16:15:46Z</time>
      </trkpt>
      <trkpt lat="43.21825" lon="0.14591">
        <ele>367.6</ele>
        <time>2024-04-17T16:15:47Z</time>
      </trkpt>
      <trkpt lat="43.21831" lon="0.14596">
        <ele>367</ele>
        <time>2024-04-17T16:15:48Z</time>
      </trkpt>
      <trkpt lat="43.21839" lon="0.146">
        <ele>366.6</ele>
        <time>2024-04-17T16:15:49Z</time>
      </trkpt>
      <trkpt lat="43.21849" lon="0.14605">
        <ele>366.2</ele>
        <time>2024-04-17T16:15:50Z</time>
      </trkpt>
      <trkpt lat="43.21856" lon="0.14608">
        <ele>365.8</ele>
        <time>2024-04-17T16:15:51Z</time>
      </trkpt>
      <trkpt lat="43.21861" lon="0.14611">
        <ele>365.2</ele>
        <time>2024-04-17T16:15:52Z</time>
      </trkpt>
      <trkpt lat="43.21865" lon="0.14611">
        <ele>364.8</ele>
        <time>2024-04-17T16:15:53Z</time>
      </trkpt>
      <trkpt lat="43.21869" lon="0.14611">
        <ele>364.2</ele>
        <time>2024-04-17T16:15:54Z</time>
      </trkpt>
      <trkpt lat="43.21874" lon="0.1461">
        <ele>364</ele>
        <time>2024-04-17T16:15:55Z</time>
      </trkpt>
      <trkpt lat="43.21878" lon="0.14607">
        <ele>363.4</ele>
        <time>2024-04-17T16:15:56Z</time>
      </trkpt>
      <trkpt lat="43.21883" lon="0.14603">
        <ele>363</ele>
        <time>2024-04-17T16:15:57Z</time>
      </trkpt>
      <trkpt lat="43.21886" lon="0.146">
        <ele>362.6</ele>
        <time>2024-04-17T16:15:58Z</time>
      </trkpt>
      <trkpt lat="43.21889" lon="0.14597">
        <ele>361.4</ele>
        <time>2024-04-17T16:15:59Z</time>
      </trkpt>
      <trkpt lat="43.21891" lon="0.14595">
        <ele>361</ele>
        <time>2024-04-17T16:16:00Z</time>
      </trkpt>
      <trkpt lat="43.21893" lon="0.14594">
        <ele>360.2</ele>
        <time>2024-04-17T16:16:01Z</time>
      </trkpt>
      <trkpt lat="43.21896" lon="0.14593">
        <ele>360</ele>
        <time>2024-04-17T16:16:02Z</time>
      </trkpt>
      <trkpt lat="43.21898" lon="0.14591">
        <ele>359.4</ele>
        <time>2024-04-17T16:16:03Z</time>
      </trkpt>
      <trkpt lat="43.219" lon="0.14588">
        <ele>359.2</ele>
        <time>2024-04-17T16:16:04Z</time>
      </trkpt>
      <trkpt lat="43.21903" lon="0.14586">
        <ele>359</ele>
        <time>2024-04-17T16:16:05Z</time>
      </trkpt>
      <trkpt lat="43.21905" lon="0.14585">
        <ele>358.8</ele>
        <time>2024-04-17T16:16:06Z</time>
      </trkpt>
      <trkpt lat="43.21907" lon="0.14583">
        <ele>358.8</ele>
        <time>2024-04-17T16:16:07Z</time>
      </trkpt>
      <trkpt lat="43.21909" lon="0.14581">
        <ele>358.8</ele>
        <time>2024-04-17T16:16:08Z</time>
      </trkpt>
      <trkpt lat="43.21912" lon="0.14579">
        <ele>358.6</ele>
        <time>2024-04-17T16:16:09Z</time>
      </trkpt>
      <trkpt lat="43.21914" lon="0.14577">
        <ele>358.6</ele>
        <time>2024-04-17T16:16:10Z</time>
      </trkpt>
      <trkpt lat="43.21916" lon="0.14576">
        <ele>358.6</ele>
        <time>2024-04-17T16:16:11Z</time>
      </trkpt>
      <trkpt lat="43.21918" lon="0.14575">
        <ele>358.6</ele>
        <time>2024-04-17T16:16:12Z</time>
      </trkpt>
      <trkpt lat="43.21921" lon="0.14573">
        <ele>358.4</ele>
        <time>2024-04-17T16:16:13Z</time>
      </trkpt>
      <trkpt lat="43.21924" lon="0.1457">
        <ele>358.4</ele>
        <time>2024-04-17T16:16:14Z</time>
      </trkpt>
      <trkpt lat="43.21928" lon="0.14567">
        <ele>358.4</ele>
        <time>2024-04-17T16:16:15Z</time>
      </trkpt>
      <trkpt lat="43.21932" lon="0.14565">
        <ele>358.2</ele>
        <time>2024-04-17T16:16:16Z</time>
      </trkpt>
      <trkpt lat="43.21935" lon="0.14564">
        <ele>358.2</ele>
        <time>2024-04-17T16:16:17Z</time>
      </trkpt>
      <trkpt lat="43.21938" lon="0.14564">
        <ele>358</ele>
        <time>2024-04-17T16:16:18Z</time>
      </trkpt>
      <trkpt lat="43.2194" lon="0.14564">
        <ele>358</ele>
        <time>2024-04-17T16:16:19Z</time>
      </trkpt>
      <trkpt lat="43.21942" lon="0.14564">
        <ele>357.8</ele>
        <time>2024-04-17T16:16:20Z</time>
      </trkpt>
      <trkpt lat="43.21944" lon="0.14565">
        <ele>357.6</ele>
        <time>2024-04-17T16:16:21Z</time>
      </trkpt>
      <trkpt lat="43.21945" lon="0.14564">
        <ele>357.6</ele>
        <time>2024-04-17T16:16:22Z</time>
      </trkpt>
      <trkpt lat="43.21947" lon="0.14562">
        <ele>357.6</ele>
        <time>2024-04-17T16:16:23Z</time>
      </trkpt>
      <trkpt lat="43.2195" lon="0.14559">
        <ele>357.6</ele>
        <time>2024-04-17T16:16:24Z</time>
      </trkpt>
      <trkpt lat="43.21952" lon="0.14556">
        <ele>357.6</ele>
        <time>2024-04-17T16:16:25Z</time>
      </trkpt>
      <trkpt lat="43.21954" lon="0.14553">
        <ele>357.6</ele>
        <time>2024-04-17T16:16:26Z</time>
      </trkpt>
      <trkpt lat="43.21956" lon="0.1455">
        <ele>357.4</ele>
        <time>2024-04-17T16:16:27Z</time>
      </trkpt>
      <trkpt lat="43.21957" lon="0.14546">
        <ele>357.4</ele>
        <time>2024-04-17T16:16:28Z</time>
      </trkpt>
      <trkpt lat="43.21958" lon="0.14542">
        <ele>357.2</ele>
        <time>2024-04-17T16:16:29Z</time>
      </trkpt>
      <trkpt lat="43.21959" lon="0.14538">
        <ele>357.2</ele>
        <time>2024-04-17T16:16:30Z</time>
      </trkpt>
      <trkpt lat="43.2196" lon="0.14536">
        <ele>357.2</ele>
        <time>2024-04-17T16:16:31Z</time>
      </trkpt>
      <trkpt lat="43.21959" lon="0.14536">
        <ele>357.2</ele>
        <time>2024-04-17T16:16:32Z</time>
      </trkpt>
      <trkpt lat="43.21959" lon="0.14536">
        <ele>357.4</ele>
        <time>2024-04-17T16:16:33Z</time>
      </trkpt>
      <trkpt lat="43.2196" lon="0.14534">
        <ele>357.4</ele>
        <time>2024-04-17T16:16:34Z</time>
      </trkpt>
      <trkpt lat="43.21962" lon="0.14532">
        <ele>357.6</ele>
        <time>2024-04-17T16:16:35Z</time>
      </trkpt>
      <trkpt lat="43.21965" lon="0.14527">
        <ele>357.6</ele>
        <time>2024-04-17T16:16:36Z</time>
      </trkpt>
      <trkpt lat="43.21965" lon="0.14524">
        <ele>357.6</ele>
        <time>2024-04-17T16:16:37Z</time>
      </trkpt>
      <trkpt lat="43.21965" lon="0.14523">
        <ele>357.6</ele>
        <time>2024-04-17T16:16:38Z</time>
      </trkpt>
      <trkpt lat="43.21966" lon="0.14521">
        <ele>357.6</ele>
        <time>2024-04-17T16:16:39Z</time>
      </trkpt>
      <trkpt lat="43.21967" lon="0.14518">
        <ele>357.8</ele>
        <time>2024-04-17T16:16:40Z</time>
      </trkpt>
      <trkpt lat="43.21968" lon="0.14515">
        <ele>357.8</ele>
        <time>2024-04-17T16:16:41Z</time>
      </trkpt>
      <trkpt lat="43.21966" lon="0.14511">
        <ele>358</ele>
        <time>2024-04-17T16:16:42Z</time>
      </trkpt>
      <trkpt lat="43.21967" lon="0.14507">
        <ele>358</ele>
        <time>2024-04-17T16:16:43Z</time>
      </trkpt>
      <trkpt lat="43.21969" lon="0.14503">
        <ele>358</ele>
        <time>2024-04-17T16:16:44Z</time>
      </trkpt>
      <trkpt lat="43.2197" lon="0.14501">
        <ele>358.4</ele>
        <time>2024-04-17T16:16:45Z</time>
      </trkpt>
      <trkpt lat="43.21972" lon="0.14499">
        <ele>358.4</ele>
        <time>2024-04-17T16:16:46Z</time>
      </trkpt>
      <trkpt lat="43.21973" lon="0.14497">
        <ele>358.6</ele>
        <time>2024-04-17T16:16:47Z</time>
      </trkpt>
      <trkpt lat="43.21974" lon="0.14495">
        <ele>358.6</ele>
        <time>2024-04-17T16:16:48Z</time>
      </trkpt>
      <trkpt lat="43.21975" lon="0.14492">
        <ele>358.8</ele>
        <time>2024-04-17T16:16:49Z</time>
      </trkpt>
      <trkpt lat="43.21976" lon="0.14488">
        <ele>358.8</ele>
        <time>2024-04-17T16:16:50Z</time>
      </trkpt>
      <trkpt lat="43.21977" lon="0.14483">
        <ele>359</ele>
        <time>2024-04-17T16:16:51Z</time>
      </trkpt>
      <trkpt lat="43.21976" lon="0.14479">
        <ele>359</ele>
        <time>2024-04-17T16:16:52Z</time>
      </trkpt>
      <trkpt lat="43.21976" lon="0.14474">
        <ele>359.2</ele>
        <time>2024-04-17T16:16:53Z</time>
      </trkpt>
      <trkpt lat="43.21975" lon="0.14469">
        <ele>359.4</ele>
        <time>2024-04-17T16:16:54Z</time>
      </trkpt>
      <trkpt lat="43.21977" lon="0.14466">
        <ele>359.4</ele>
        <time>2024-04-17T16:16:55Z</time>
      </trkpt>
      <trkpt lat="43.21978" lon="0.14466">
        <ele>359.6</ele>
        <time>2024-04-17T16:16:56Z</time>
      </trkpt>
      <trkpt lat="43.21979" lon="0.14466">
        <ele>359.8</ele>
        <time>2024-04-17T16:16:57Z</time>
      </trkpt>
      <trkpt lat="43.21981" lon="0.14465">
        <ele>359.8</ele>
        <time>2024-04-17T16:16:58Z</time>
      </trkpt>
      <trkpt lat="43.21982" lon="0.14464">
        <ele>359.8</ele>
        <time>2024-04-17T16:16:59Z</time>
      </trkpt>
      <trkpt lat="43.21984" lon="0.14463">
        <ele>360</ele>
        <time>2024-04-17T16:17:00Z</time>
      </trkpt>
      <trkpt lat="43.21986" lon="0.14462">
        <ele>360.2</ele>
        <time>2024-04-17T16:17:01Z</time>
      </trkpt>
      <trkpt lat="43.21988" lon="0.14459">
        <ele>360.2</ele>
        <time>2024-04-17T16:17:02Z</time>
      </trkpt>
      <trkpt lat="43.21989" lon="0.14455">
        <ele>360.2</ele>
        <time>2024-04-17T16:17:03Z</time>
      </trkpt>
      <trkpt lat="43.21989" lon="0.14453">
        <ele>360.4</ele>
        <time>2024-04-17T16:17:04Z</time>
      </trkpt>
      <trkpt lat="43.21989" lon="0.1445">
        <ele>360.4</ele>
        <time>2024-04-17T16:17:05Z</time>
      </trkpt>
      <trkpt lat="43.21989" lon="0.14448">
        <ele>360.6</ele>
        <time>2024-04-17T16:17:06Z</time>
      </trkpt>
      <trkpt lat="43.2199" lon="0.14447">
        <ele>360.8</ele>
        <time>2024-04-17T16:17:07Z</time>
      </trkpt>
      <trkpt lat="43.21991" lon="0.14446">
        <ele>360.6</ele>
        <time>2024-04-17T16:17:08Z</time>
      </trkpt>
      <trkpt lat="43.21992" lon="0.14444">
        <ele>360.8</ele>
        <time>2024-04-17T16:17:09Z</time>
      </trkpt>
      <trkpt lat="43.21995" lon="0.14441">
        <ele>361.2</ele>
        <time>2024-04-17T16:17:10Z</time>
      </trkpt>
      <trkpt lat="43.21996" lon="0.14436">
        <ele>361.2</ele>
        <time>2024-04-17T16:17:11Z</time>
      </trkpt>
      <trkpt lat="43.21996" lon="0.14434">
        <ele>361.4</ele>
        <time>2024-04-17T16:17:12Z</time>
      </trkpt>
      <trkpt lat="43.21997" lon="0.14432">
        <ele>361.4</ele>
        <time>2024-04-17T16:17:13Z</time>
      </trkpt>
      <trkpt lat="43.21998" lon="0.14431">
        <ele>361.6</ele>
        <time>2024-04-17T16:17:14Z</time>
      </trkpt>
      <trkpt lat="43.21999" lon="0.14429">
        <ele>361.6</ele>
        <time>2024-04-17T16:17:15Z</time>
      </trkpt>
      <trkpt lat="43.22" lon="0.14427">
        <ele>361.6</ele>
        <time>2024-04-17T16:17:16Z</time>
      </trkpt>
      <trkpt lat="43.22001" lon="0.14425">
        <ele>361.8</ele>
        <time>2024-04-17T16:17:17Z</time>
      </trkpt>
      <trkpt lat="43.22002" lon="0.14424">
        <ele>361.8</ele>
        <time>2024-04-17T16:17:18Z</time>
      </trkpt>
      <trkpt lat="43.22002" lon="0.14423">
        <ele>362</ele>
        <time>2024-04-17T16:17:19Z</time>
      </trkpt>
      <trkpt lat="43.22002" lon="0.14422">
        <ele>362</ele>
        <time>2024-04-17T16:17:20Z</time>
      </trkpt>
      <trkpt lat="43.22002" lon="0.1442">
        <ele>362</ele>
        <time>2024-04-17T16:17:21Z</time>
      </trkpt>
      <trkpt lat="43.22002" lon="0.14417">
        <ele>362.2</ele>
        <time>2024-04-17T16:17:22Z</time>
      </trkpt>
      <trkpt lat="43.22002" lon="0.14414">
        <ele>362.4</ele>
        <time>2024-04-17T16:17:23Z</time>
      </trkpt>
      <trkpt lat="43.22004" lon="0.14411">
        <ele>362.4</ele>
        <time>2024-04-17T16:17:24Z</time>
      </trkpt>
      <trkpt lat="43.22005" lon="0.14409">
        <ele>362.6</ele>
        <time>2024-04-17T16:17:25Z</time>
      </trkpt>
      <trkpt lat="43.22007" lon="0.14405">
        <ele>362.6</ele>
        <time>2024-04-17T16:17:26Z</time>
      </trkpt>
      <trkpt lat="43.22009" lon="0.144">
        <ele>362.6</ele>
        <time>2024-04-17T16:17:27Z</time>
      </trkpt>
      <trkpt lat="43.2201" lon="0.14395">
        <ele>362.8</ele>
        <time>2024-04-17T16:17:28Z</time>
      </trkpt>
      <trkpt lat="43.22011" lon="0.14391">
        <ele>362.8</ele>
        <time>2024-04-17T16:17:29Z</time>
      </trkpt>
      <trkpt lat="43.22013" lon="0.14387">
        <ele>362.8</ele>
        <time>2024-04-17T16:17:30Z</time>
      </trkpt>
      <trkpt lat="43.22015" lon="0.14384">
        <ele>362.8</ele>
        <time>2024-04-17T16:17:31Z</time>
      </trkpt>
      <trkpt lat="43.22017" lon="0.14381">
        <ele>362.8</ele>
        <time>2024-04-17T16:17:32Z</time>
      </trkpt>
      <trkpt lat="43.22018" lon="0.1438">
        <ele>362.8</ele>
        <time>2024-04-17T16:17:33Z</time>
      </trkpt>
      <trkpt lat="43.2202" lon="0.14379">
        <ele>362.8</ele>
        <time>2024-04-17T16:17:34Z</time>
      </trkpt>
      <trkpt lat="43.22021" lon="0.14377">
        <ele>362.8</ele>
        <time>2024-04-17T16:17:35Z</time>
      </trkpt>
      <trkpt lat="43.22023" lon="0.14375">
        <ele>362.8</ele>
        <time>2024-04-17T16:17:36Z</time>
      </trkpt>
      <trkpt lat="43.22024" lon="0.14372">
        <ele>362.8</ele>
        <time>2024-04-17T16:17:37Z</time>
      </trkpt>
      <trkpt lat="43.22027" lon="0.14369">
        <ele>362.8</ele>
        <time>2024-04-17T16:17:38Z</time>
      </trkpt>
      <trkpt lat="43.2203" lon="0.14364">
        <ele>363</ele>
        <time>2024-04-17T16:17:39Z</time>
      </trkpt>
      <trkpt lat="43.22031" lon="0.1436">
        <ele>363</ele>
        <time>2024-04-17T16:17:40Z</time>
      </trkpt>
      <trkpt lat="43.22031" lon="0.14356">
        <ele>363</ele>
        <time>2024-04-17T16:17:41Z</time>
      </trkpt>
      <trkpt lat="43.22031" lon="0.14354">
        <ele>363</ele>
        <time>2024-04-17T16:17:42Z</time>
      </trkpt>
      <trkpt lat="43.2203" lon="0.14351">
        <ele>363</ele>
        <time>2024-04-17T16:17:43Z</time>
      </trkpt>
      <trkpt lat="43.22031" lon="0.14347">
        <ele>363.2</ele>
        <time>2024-04-17T16:17:44Z</time>
      </trkpt>
      <trkpt lat="43.22029" lon="0.14345">
        <ele>363.2</ele>
        <time>2024-04-17T16:17:45Z</time>
      </trkpt>
      <trkpt lat="43.22029" lon="0.14342">
        <ele>363.4</ele>
        <time>2024-04-17T16:17:46Z</time>
      </trkpt>
      <trkpt lat="43.22029" lon="0.14342">
        <ele>363.6</ele>
        <time>2024-04-17T16:17:47Z</time>
      </trkpt>
      <trkpt lat="43.22029" lon="0.14342">
        <ele>363.6</ele>
        <time>2024-04-17T16:17:48Z</time>
      </trkpt>
      <trkpt lat="43.22029" lon="0.14338">
        <ele>363.8</ele>
        <time>2024-04-17T16:17:49Z</time>
      </trkpt>
      <trkpt lat="43.22029" lon="0.14338">
        <ele>364</ele>
        <time>2024-04-17T16:17:50Z</time>
      </trkpt>
      <trkpt lat="43.22029" lon="0.14335">
        <ele>364.4</ele>
        <time>2024-04-17T16:17:51Z</time>
      </trkpt>
      <trkpt lat="43.22029" lon="0.14331">
        <ele>364.4</ele>
        <time>2024-04-17T16:17:52Z</time>
      </trkpt>
      <trkpt lat="43.22027" lon="0.14327">
        <ele>364.8</ele>
        <time>2024-04-17T16:17:53Z</time>
      </trkpt>
      <trkpt lat="43.22026" lon="0.14325">
        <ele>365</ele>
        <time>2024-04-17T16:17:54Z</time>
      </trkpt>
      <trkpt lat="43.22026" lon="0.14321">
        <ele>365.2</ele>
        <time>2024-04-17T16:17:55Z</time>
      </trkpt>
      <trkpt lat="43.22026" lon="0.14319">
        <ele>365.2</ele>
        <time>2024-04-17T16:17:56Z</time>
      </trkpt>
      <trkpt lat="43.22025" lon="0.14316">
        <ele>365.4</ele>
        <time>2024-04-17T16:17:57Z</time>
      </trkpt>
      <trkpt lat="43.22025" lon="0.14314">
        <ele>365.6</ele>
        <time>2024-04-17T16:17:58Z</time>
      </trkpt>
      <trkpt lat="43.22024" lon="0.14312">
        <ele>365.6</ele>
        <time>2024-04-17T16:17:59Z</time>
      </trkpt>
      <trkpt lat="43.22023" lon="0.14309">
        <ele>365.8</ele>
        <time>2024-04-17T16:18:00Z</time>
      </trkpt>
      <trkpt lat="43.22023" lon="0.14306">
        <ele>366</ele>
        <time>2024-04-17T16:18:01Z</time>
      </trkpt>
      <trkpt lat="43.22022" lon="0.14304">
        <ele>366.2</ele>
        <time>2024-04-17T16:18:02Z</time>
      </trkpt>
      <trkpt lat="43.22021" lon="0.14301">
        <ele>366.4</ele>
        <time>2024-04-17T16:18:03Z</time>
      </trkpt>
      <trkpt lat="43.2202" lon="0.14299">
        <ele>366.6</ele>
        <time>2024-04-17T16:18:04Z</time>
      </trkpt>
      <trkpt lat="43.22019" lon="0.14299">
        <ele>366.6</ele>
        <time>2024-04-17T16:18:05Z</time>
      </trkpt>
      <trkpt lat="43.22019" lon="0.14296">
        <ele>366.6</ele>
        <time>2024-04-17T16:18:06Z</time>
      </trkpt>
      <trkpt lat="43.22019" lon="0.14296">
        <ele>366.8</ele>
        <time>2024-04-17T16:18:07Z</time>
      </trkpt>
      <trkpt lat="43.22018" lon="0.14294">
        <ele>366.8</ele>
        <time>2024-04-17T16:18:08Z</time>
      </trkpt>
      <trkpt lat="43.22017" lon="0.14292">
        <ele>367.2</ele>
        <time>2024-04-17T16:18:09Z</time>
      </trkpt>
      <trkpt lat="43.22016" lon="0.14289">
        <ele>367.2</ele>
        <time>2024-04-17T16:18:10Z</time>
      </trkpt>
      <trkpt lat="43.22015" lon="0.14288">
        <ele>367.6</ele>
        <time>2024-04-17T16:18:11Z</time>
      </trkpt>
      <trkpt lat="43.22014" lon="0.14288">
        <ele>367.6</ele>
        <time>2024-04-17T16:18:12Z</time>
      </trkpt>
      <trkpt lat="43.22014" lon="0.14287">
        <ele>367.8</ele>
        <time>2024-04-17T16:18:13Z</time>
      </trkpt>
      <trkpt lat="43.22013" lon="0.14287">
        <ele>367.8</ele>
        <time>2024-04-17T16:18:14Z</time>
      </trkpt>
      <trkpt lat="43.22013" lon="0.14286">
        <ele>368</ele>
        <time>2024-04-17T16:18:15Z</time>
      </trkpt>
      <trkpt lat="43.22012" lon="0.14286">
        <ele>368.2</ele>
        <time>2024-04-17T16:18:16Z</time>
      </trkpt>
      <trkpt lat="43.22009" lon="0.14282">
        <ele>368.2</ele>
        <time>2024-04-17T16:18:17Z</time>
      </trkpt>
      <trkpt lat="43.22006" lon="0.14278">
        <ele>368.4</ele>
        <time>2024-04-17T16:18:18Z</time>
      </trkpt>
      <trkpt lat="43.22005" lon="0.14276">
        <ele>368.6</ele>
        <time>2024-04-17T16:18:19Z</time>
      </trkpt>
      <trkpt lat="43.22004" lon="0.14274">
        <ele>368.8</ele>
        <time>2024-04-17T16:18:20Z</time>
      </trkpt>
      <trkpt lat="43.22002" lon="0.14271">
        <ele>368.8</ele>
        <time>2024-04-17T16:18:21Z</time>
      </trkpt>
      <trkpt lat="43.21999" lon="0.14268">
        <ele>369</ele>
        <time>2024-04-17T16:18:22Z</time>
      </trkpt>
      <trkpt lat="43.21996" lon="0.14265">
        <ele>369.2</ele>
        <time>2024-04-17T16:18:23Z</time>
      </trkpt>
      <trkpt lat="43.21994" lon="0.14263">
        <ele>369.4</ele>
        <time>2024-04-17T16:18:24Z</time>
      </trkpt>
      <trkpt lat="43.21993" lon="0.14261">
        <ele>369.4</ele>
        <time>2024-04-17T16:18:25Z</time>
      </trkpt>
      <trkpt lat="43.21991" lon="0.14259">
        <ele>369.6</ele>
        <time>2024-04-17T16:18:26Z</time>
      </trkpt>
      <trkpt lat="43.21989" lon="0.14256">
        <ele>369.8</ele>
        <time>2024-04-17T16:18:27Z</time>
      </trkpt>
      <trkpt lat="43.21987" lon="0.14254">
        <ele>369.8</ele>
        <time>2024-04-17T16:18:28Z</time>
      </trkpt>
      <trkpt lat="43.21987" lon="0.14252">
        <ele>370</ele>
        <time>2024-04-17T16:18:29Z</time>
      </trkpt>
      <trkpt lat="43.21986" lon="0.14251">
        <ele>370.2</ele>
        <time>2024-04-17T16:18:30Z</time>
      </trkpt>
      <trkpt lat="43.21985" lon="0.14249">
        <ele>370.4</ele>
        <time>2024-04-17T16:18:31Z</time>
      </trkpt>
      <trkpt lat="43.21984" lon="0.14248">
        <ele>370.6</ele>
        <time>2024-04-17T16:18:32Z</time>
      </trkpt>
      <trkpt lat="43.21984" lon="0.14246">
        <ele>370.6</ele>
        <time>2024-04-17T16:18:33Z</time>
      </trkpt>
      <trkpt lat="43.21983" lon="0.14244">
        <ele>370.8</ele>
        <time>2024-04-17T16:18:34Z</time>
      </trkpt>
      <trkpt lat="43.21982" lon="0.14243">
        <ele>370.8</ele>
        <time>2024-04-17T16:18:35Z</time>
      </trkpt>
      <trkpt lat="43.21981" lon="0.14241">
        <ele>371</ele>
        <time>2024-04-17T16:18:36Z</time>
      </trkpt>
      <trkpt lat="43.2198" lon="0.1424">
        <ele>371</ele>
        <time>2024-04-17T16:18:37Z</time>
      </trkpt>
      <trkpt lat="43.2198" lon="0.14238">
        <ele>371.2</ele>
        <time>2024-04-17T16:18:38Z</time>
      </trkpt>
      <trkpt lat="43.21979" lon="0.14237">
        <ele>371.4</ele>
        <time>2024-04-17T16:18:39Z</time>
      </trkpt>
      <trkpt lat="43.21978" lon="0.14236">
        <ele>371.4</ele>
        <time>2024-04-17T16:18:40Z</time>
      </trkpt>
      <trkpt lat="43.21978" lon="0.14236">
        <ele>371.6</ele>
        <time>2024-04-17T16:18:41Z</time>
      </trkpt>
      <trkpt lat="43.21978" lon="0.14234">
        <ele>371.6</ele>
        <time>2024-04-17T16:18:42Z</time>
      </trkpt>
      <trkpt lat="43.21977" lon="0.14233">
        <ele>371.6</ele>
        <time>2024-04-17T16:18:43Z</time>
      </trkpt>
      <trkpt lat="43.21977" lon="0.14232">
        <ele>371.6</ele>
        <time>2024-04-17T16:18:44Z</time>
      </trkpt>
      <trkpt lat="43.21976" lon="0.1423">
        <ele>371.8</ele>
        <time>2024-04-17T16:18:45Z</time>
      </trkpt>
      <trkpt lat="43.21975" lon="0.14227">
        <ele>371.8</ele>
        <time>2024-04-17T16:18:46Z</time>
      </trkpt>
      <trkpt lat="43.21975" lon="0.14225">
        <ele>372</ele>
        <time>2024-04-17T16:18:47Z</time>
      </trkpt>
      <trkpt lat="43.21975" lon="0.14223">
        <ele>372</ele>
        <time>2024-04-17T16:18:48Z</time>
      </trkpt>
      <trkpt lat="43.21976" lon="0.14221">
        <ele>372.2</ele>
        <time>2024-04-17T16:18:49Z</time>
      </trkpt>
      <trkpt lat="43.21976" lon="0.1422">
        <ele>372.2</ele>
        <time>2024-04-17T16:18:50Z</time>
      </trkpt>
      <trkpt lat="43.21976" lon="0.14219">
        <ele>372.4</ele>
        <time>2024-04-17T16:18:51Z</time>
      </trkpt>
      <trkpt lat="43.21976" lon="0.14217">
        <ele>372.4</ele>
        <time>2024-04-17T16:18:52Z</time>
      </trkpt>
      <trkpt lat="43.21976" lon="0.14217">
        <ele>372.6</ele>
        <time>2024-04-17T16:18:53Z</time>
      </trkpt>
      <trkpt lat="43.21976" lon="0.14217">
        <ele>372.6</ele>
        <time>2024-04-17T16:18:54Z</time>
      </trkpt>
      <trkpt lat="43.21976" lon="0.14217">
        <ele>372.6</ele>
        <time>2024-04-17T16:18:55Z</time>
      </trkpt>
      <trkpt lat="43.21976" lon="0.14217">
        <ele>372.8</ele>
        <time>2024-04-17T16:18:56Z</time>
      </trkpt>
      <trkpt lat="43.21976" lon="0.14217">
        <ele>372.8</ele>
        <time>2024-04-17T16:18:57Z</time>
      </trkpt>
      <trkpt lat="43.21976" lon="0.14217">
        <ele>372.8</ele>
        <time>2024-04-17T16:18:58Z</time>
      </trkpt>
      <trkpt lat="43.21976" lon="0.14217">
        <ele>372.8</ele>
        <time>2024-04-17T16:18:59Z</time>
      </trkpt>
      <trkpt lat="43.21976" lon="0.14217">
        <ele>372.8</ele>
        <time>2024-04-17T16:19:00Z</time>
      </trkpt>
      <trkpt lat="43.21976" lon="0.14217">
        <ele>372.8</ele>
        <time>2024-04-17T16:19:01Z</time>
      </trkpt>
      <trkpt lat="43.21976" lon="0.14217">
        <ele>372.8</ele>
        <time>2024-04-17T16:19:02Z</time>
      </trkpt>
      <trkpt lat="43.21976" lon="0.14217">
        <ele>372.8</ele>
        <time>2024-04-17T16:19:03Z</time>
      </trkpt>
      <trkpt lat="43.21976" lon="0.14217">
        <ele>372.8</ele>
        <time>2024-04-17T16:19:04Z</time>
      </trkpt>
      <trkpt lat="43.21976" lon="0.14217">
        <ele>372.8</ele>
        <time>2024-04-17T16:19:05Z</time>
      </trkpt>
      <trkpt lat="43.21976" lon="0.14217">
        <ele>372.8</ele>
        <time>2024-04-17T16:19:06Z</time>
      </trkpt>
      <trkpt lat="43.21976" lon="0.14217">
        <ele>372.8</ele>
        <time>2024-04-17T16:19:07Z</time>
      </trkpt>
      <trkpt lat="43.21976" lon="0.14217">
        <ele>372.8</ele>
        <time>2024-04-17T16:19:08Z</time>
      </trkpt>
      <trkpt lat="43.21976" lon="0.14217">
        <ele>372.8</ele>
        <time>2024-04-17T16:19:09Z</time>
      </trkpt>
      <trkpt lat="43.21976" lon="0.14217">
        <ele>372.8</ele>
        <time>2024-04-17T16:19:10Z</time>
      </trkpt>
      <trkpt lat="43.21976" lon="0.14217">
        <ele>372.8</ele>
        <time>2024-04-17T16:19:11Z</time>
      </trkpt>
      <trkpt lat="43.21976" lon="0.14217">
        <ele>372.8</ele>
        <time>2024-04-17T16:19:12Z</time>
      </trkpt>
      <trkpt lat="43.21976" lon="0.14217">
        <ele>372.8</ele>
        <time>2024-04-17T16:19:13Z</time>
      </trkpt>
      <trkpt lat="43.21976" lon="0.14217">
        <ele>372.8</ele>
        <time>2024-04-17T16:19:14Z</time>
      </trkpt>
      <trkpt lat="43.21976" lon="0.14217">
        <ele>372.8</ele>
        <time>2024-04-17T16:19:15Z</time>
      </trkpt>
      <trkpt lat="43.21976" lon="0.14217">
        <ele>372.8</ele>
        <time>2024-04-17T16:19:16Z</time>
      </trkpt>
      <trkpt lat="43.21976" lon="0.14217">
        <ele>373</ele>
        <time>2024-04-17T16:19:17Z</time>
      </trkpt>
      <trkpt lat="43.21976" lon="0.14217">
        <ele>373</ele>
        <time>2024-04-17T16:19:18Z</time>
      </trkpt>
      <trkpt lat="43.21976" lon="0.14217">
        <ele>373</ele>
        <time>2024-04-17T16:19:19Z</time>
      </trkpt>
      <trkpt lat="43.21976" lon="0.14217">
        <ele>373</ele>
        <time>2024-04-17T16:19:20Z</time>
      </trkpt>
      <trkpt lat="43.21976" lon="0.14217">
        <ele>373</ele>
        <time>2024-04-17T16:19:21Z</time>
      </trkpt>
      <trkpt lat="43.21976" lon="0.14217">
        <ele>373</ele>
        <time>2024-04-17T16:19:22Z</time>
      </trkpt>
      <trkpt lat="43.21977" lon="0.14217">
        <ele>373</ele>
        <time>2024-04-17T16:19:23Z</time>
      </trkpt>
      <trkpt lat="43.21978" lon="0.14217">
        <ele>373</ele>
        <time>2024-04-17T16:19:24Z</time>
      </trkpt>
      <trkpt lat="43.21979" lon="0.14217">
        <ele>373</ele>
        <time>2024-04-17T16:19:25Z</time>
      </trkpt>
      <trkpt lat="43.21981" lon="0.14217">
        <ele>373</ele>
        <time>2024-04-17T16:19:26Z</time>
      </trkpt>
      <trkpt lat="43.21983" lon="0.14216">
        <ele>373</ele>
        <time>2024-04-17T16:19:27Z</time>
      </trkpt>
      <trkpt lat="43.21985" lon="0.14215">
        <ele>372.8</ele>
        <time>2024-04-17T16:19:28Z</time>
      </trkpt>
      <trkpt lat="43.21987" lon="0.14214">
        <ele>372.8</ele>
        <time>2024-04-17T16:19:29Z</time>
      </trkpt>
      <trkpt lat="43.21989" lon="0.14213">
        <ele>372.8</ele>
        <time>2024-04-17T16:19:30Z</time>
      </trkpt>
      <trkpt lat="43.21992" lon="0.14211">
        <ele>372.8</ele>
        <time>2024-04-17T16:19:31Z</time>
      </trkpt>
      <trkpt lat="43.21994" lon="0.14209">
        <ele>372.8</ele>
        <time>2024-04-17T16:19:32Z</time>
      </trkpt>
      <trkpt lat="43.21997" lon="0.14207">
        <ele>372.8</ele>
        <time>2024-04-17T16:19:33Z</time>
      </trkpt>
      <trkpt lat="43.21998" lon="0.14205">
        <ele>372.8</ele>
        <time>2024-04-17T16:19:34Z</time>
      </trkpt>
      <trkpt lat="43.22" lon="0.14204">
        <ele>372.6</ele>
        <time>2024-04-17T16:19:35Z</time>
      </trkpt>
      <trkpt lat="43.22003" lon="0.14202">
        <ele>372.6</ele>
        <time>2024-04-17T16:19:36Z</time>
      </trkpt>
      <trkpt lat="43.22005" lon="0.14201">
        <ele>372.6</ele>
        <time>2024-04-17T16:19:37Z</time>
      </trkpt>
      <trkpt lat="43.22007" lon="0.14199">
        <ele>372.4</ele>
        <time>2024-04-17T16:19:38Z</time>
      </trkpt>
      <trkpt lat="43.22009" lon="0.14197">
        <ele>372.4</ele>
        <time>2024-04-17T16:19:39Z</time>
      </trkpt>
      <trkpt lat="43.22011" lon="0.14196">
        <ele>372.2</ele>
        <time>2024-04-17T16:19:40Z</time>
      </trkpt>
      <trkpt lat="43.22013" lon="0.14195">
        <ele>372</ele>
        <time>2024-04-17T16:19:41Z</time>
      </trkpt>
      <trkpt lat="43.22015" lon="0.14194">
        <ele>372</ele>
        <time>2024-04-17T16:19:42Z</time>
      </trkpt>
      <trkpt lat="43.22018" lon="0.14193">
        <ele>371.8</ele>
        <time>2024-04-17T16:19:43Z</time>
      </trkpt>
      <trkpt lat="43.22022" lon="0.14188">
        <ele>371.8</ele>
        <time>2024-04-17T16:19:44Z</time>
      </trkpt>
      <trkpt lat="43.22026" lon="0.14185">
        <ele>371.8</ele>
        <time>2024-04-17T16:19:45Z</time>
      </trkpt>
      <trkpt lat="43.2203" lon="0.14183">
        <ele>371.8</ele>
        <time>2024-04-17T16:19:46Z</time>
      </trkpt>
      <trkpt lat="43.22035" lon="0.14181">
        <ele>371.6</ele>
        <time>2024-04-17T16:19:47Z</time>
      </trkpt>
      <trkpt lat="43.22039" lon="0.14178">
        <ele>371.6</ele>
        <time>2024-04-17T16:19:48Z</time>
      </trkpt>
      <trkpt lat="43.22044" lon="0.14176">
        <ele>371.4</ele>
        <time>2024-04-17T16:19:49Z</time>
      </trkpt>
      <trkpt lat="43.22049" lon="0.14174">
        <ele>371.4</ele>
        <time>2024-04-17T16:19:50Z</time>
      </trkpt>
      <trkpt lat="43.22054" lon="0.14171">
        <ele>371.4</ele>
        <time>2024-04-17T16:19:51Z</time>
      </trkpt>
      <trkpt lat="43.22059" lon="0.14166">
        <ele>371.2</ele>
        <time>2024-04-17T16:19:52Z</time>
      </trkpt>
      <trkpt lat="43.22065" lon="0.14162">
        <ele>371.2</ele>
        <time>2024-04-17T16:19:53Z</time>
      </trkpt>
      <trkpt lat="43.22069" lon="0.14158">
        <ele>371.2</ele>
        <time>2024-04-17T16:19:54Z</time>
      </trkpt>
      <trkpt lat="43.22073" lon="0.14157">
        <ele>371</ele>
        <time>2024-04-17T16:19:55Z</time>
      </trkpt>
      <trkpt lat="43.22076" lon="0.14156">
        <ele>370.8</ele>
        <time>2024-04-17T16:19:56Z</time>
      </trkpt>
      <trkpt lat="43.22079" lon="0.14153">
        <ele>370.8</ele>
        <time>2024-04-17T16:19:57Z</time>
      </trkpt>
      <trkpt lat="43.2208" lon="0.1415">
        <ele>370.2</ele>
        <time>2024-04-17T16:19:58Z</time>
      </trkpt>
      <trkpt lat="43.22082" lon="0.14146">
        <ele>370</ele>
        <time>2024-04-17T16:19:59Z</time>
      </trkpt>
      <trkpt lat="43.22083" lon="0.14143">
        <ele>369.8</ele>
        <time>2024-04-17T16:20:00Z</time>
      </trkpt>
      <trkpt lat="43.22085" lon="0.14139">
        <ele>369.8</ele>
        <time>2024-04-17T16:20:01Z</time>
      </trkpt>
      <trkpt lat="43.22086" lon="0.14136">
        <ele>369.8</ele>
        <time>2024-04-17T16:20:02Z</time>
      </trkpt>
      <trkpt lat="43.22087" lon="0.14133">
        <ele>369.6</ele>
        <time>2024-04-17T16:20:03Z</time>
      </trkpt>
      <trkpt lat="43.22087" lon="0.1413">
        <ele>369.6</ele>
        <time>2024-04-17T16:20:04Z</time>
      </trkpt>
      <trkpt lat="43.22087" lon="0.14126">
        <ele>369.4</ele>
        <time>2024-04-17T16:20:05Z</time>
      </trkpt>
      <trkpt lat="43.22087" lon="0.14124">
        <ele>369.4</ele>
        <time>2024-04-17T16:20:06Z</time>
      </trkpt>
      <trkpt lat="43.22084" lon="0.1412">
        <ele>369.6</ele>
        <time>2024-04-17T16:20:07Z</time>
      </trkpt>
      <trkpt lat="43.22083" lon="0.14117">
        <ele>369.6</ele>
        <time>2024-04-17T16:20:08Z</time>
      </trkpt>
      <trkpt lat="43.22083" lon="0.14114">
        <ele>369.6</ele>
        <time>2024-04-17T16:20:09Z</time>
      </trkpt>
      <trkpt lat="43.22082" lon="0.14112">
        <ele>369.8</ele>
        <time>2024-04-17T16:20:10Z</time>
      </trkpt>
      <trkpt lat="43.22082" lon="0.1411">
        <ele>369.8</ele>
        <time>2024-04-17T16:20:11Z</time>
      </trkpt>
      <trkpt lat="43.22082" lon="0.14109">
        <ele>370</ele>
        <time>2024-04-17T16:20:12Z</time>
      </trkpt>
      <trkpt lat="43.22082" lon="0.14106">
        <ele>370.2</ele>
        <time>2024-04-17T16:20:13Z</time>
      </trkpt>
      <trkpt lat="43.22082" lon="0.14104">
        <ele>370.4</ele>
        <time>2024-04-17T16:20:14Z</time>
      </trkpt>
      <trkpt lat="43.22083" lon="0.14102">
        <ele>370.4</ele>
        <time>2024-04-17T16:20:15Z</time>
      </trkpt>
      <trkpt lat="43.22083" lon="0.14099">
        <ele>370.6</ele>
        <time>2024-04-17T16:20:16Z</time>
      </trkpt>
      <trkpt lat="43.22085" lon="0.14096">
        <ele>370.6</ele>
        <time>2024-04-17T16:20:17Z</time>
      </trkpt>
      <trkpt lat="43.22087" lon="0.14092">
        <ele>370.6</ele>
        <time>2024-04-17T16:20:18Z</time>
      </trkpt>
      <trkpt lat="43.22089" lon="0.14088">
        <ele>370.6</ele>
        <time>2024-04-17T16:20:19Z</time>
      </trkpt>
      <trkpt lat="43.22091" lon="0.14085">
        <ele>370.6</ele>
        <time>2024-04-17T16:20:20Z</time>
      </trkpt>
      <trkpt lat="43.22093" lon="0.14082">
        <ele>370.8</ele>
        <time>2024-04-17T16:20:21Z</time>
      </trkpt>
      <trkpt lat="43.22094" lon="0.14078">
        <ele>370.8</ele>
        <time>2024-04-17T16:20:22Z</time>
      </trkpt>
      <trkpt lat="43.22096" lon="0.14075">
        <ele>370.8</ele>
        <time>2024-04-17T16:20:23Z</time>
      </trkpt>
      <trkpt lat="43.22098" lon="0.1407">
        <ele>371.2</ele>
        <time>2024-04-17T16:20:24Z</time>
      </trkpt>
      <trkpt lat="43.221" lon="0.14065">
        <ele>371.2</ele>
        <time>2024-04-17T16:20:25Z</time>
      </trkpt>
      <trkpt lat="43.22103" lon="0.14061">
        <ele>371.4</ele>
        <time>2024-04-17T16:20:26Z</time>
      </trkpt>
      <trkpt lat="43.22104" lon="0.14058">
        <ele>371.6</ele>
        <time>2024-04-17T16:20:27Z</time>
      </trkpt>
      <trkpt lat="43.22106" lon="0.14055">
        <ele>371.6</ele>
        <time>2024-04-17T16:20:28Z</time>
      </trkpt>
      <trkpt lat="43.22107" lon="0.14052">
        <ele>371.6</ele>
        <time>2024-04-17T16:20:29Z</time>
      </trkpt>
      <trkpt lat="43.22108" lon="0.14049">
        <ele>371.8</ele>
        <time>2024-04-17T16:20:30Z</time>
      </trkpt>
      <trkpt lat="43.2211" lon="0.14047">
        <ele>371.8</ele>
        <time>2024-04-17T16:20:31Z</time>
      </trkpt>
      <trkpt lat="43.22111" lon="0.14043">
        <ele>371.8</ele>
        <time>2024-04-17T16:20:32Z</time>
      </trkpt>
      <trkpt lat="43.22112" lon="0.1404">
        <ele>372</ele>
        <time>2024-04-17T16:20:33Z</time>
      </trkpt>
      <trkpt lat="43.22114" lon="0.14036">
        <ele>372</ele>
        <time>2024-04-17T16:20:34Z</time>
      </trkpt>
      <trkpt lat="43.22115" lon="0.14032">
        <ele>372</ele>
        <time>2024-04-17T16:20:35Z</time>
      </trkpt>
      <trkpt lat="43.22115" lon="0.14028">
        <ele>372</ele>
        <time>2024-04-17T16:20:36Z</time>
      </trkpt>
      <trkpt lat="43.22116" lon="0.14023">
        <ele>372.2</ele>
        <time>2024-04-17T16:20:37Z</time>
      </trkpt>
      <trkpt lat="43.22118" lon="0.14019">
        <ele>372.2</ele>
        <time>2024-04-17T16:20:38Z</time>
      </trkpt>
      <trkpt lat="43.22119" lon="0.14015">
        <ele>372.4</ele>
        <time>2024-04-17T16:20:39Z</time>
      </trkpt>
      <trkpt lat="43.22119" lon="0.14009">
        <ele>372.6</ele>
        <time>2024-04-17T16:20:40Z</time>
      </trkpt>
      <trkpt lat="43.22121" lon="0.14004">
        <ele>372.6</ele>
        <time>2024-04-17T16:20:41Z</time>
      </trkpt>
      <trkpt lat="43.22123" lon="0.14001">
        <ele>372.6</ele>
        <time>2024-04-17T16:20:42Z</time>
      </trkpt>
      <trkpt lat="43.22127" lon="0.13997">
        <ele>372.6</ele>
        <time>2024-04-17T16:20:43Z</time>
      </trkpt>
      <trkpt lat="43.22127" lon="0.13993">
        <ele>372.6</ele>
        <time>2024-04-17T16:20:44Z</time>
      </trkpt>
      <trkpt lat="43.22129" lon="0.13989">
        <ele>372.6</ele>
        <time>2024-04-17T16:20:45Z</time>
      </trkpt>
      <trkpt lat="43.2213" lon="0.13986">
        <ele>372.6</ele>
        <time>2024-04-17T16:20:46Z</time>
      </trkpt>
      <trkpt lat="43.22131" lon="0.13984">
        <ele>372.6</ele>
        <time>2024-04-17T16:20:47Z</time>
      </trkpt>
      <trkpt lat="43.22132" lon="0.1398">
        <ele>372.4</ele>
        <time>2024-04-17T16:20:48Z</time>
      </trkpt>
      <trkpt lat="43.22133" lon="0.13977">
        <ele>372.4</ele>
        <time>2024-04-17T16:20:49Z</time>
      </trkpt>
      <trkpt lat="43.22135" lon="0.13973">
        <ele>372.2</ele>
        <time>2024-04-17T16:20:50Z</time>
      </trkpt>
      <trkpt lat="43.22137" lon="0.13971">
        <ele>372</ele>
        <time>2024-04-17T16:20:51Z</time>
      </trkpt>
      <trkpt lat="43.22138" lon="0.13968">
        <ele>372</ele>
        <time>2024-04-17T16:20:52Z</time>
      </trkpt>
      <trkpt lat="43.2214" lon="0.13964">
        <ele>371.8</ele>
        <time>2024-04-17T16:20:53Z</time>
      </trkpt>
      <trkpt lat="43.22141" lon="0.1396">
        <ele>371.8</ele>
        <time>2024-04-17T16:20:54Z</time>
      </trkpt>
      <trkpt lat="43.22143" lon="0.13955">
        <ele>371.6</ele>
        <time>2024-04-17T16:20:55Z</time>
      </trkpt>
      <trkpt lat="43.22145" lon="0.13951">
        <ele>371.6</ele>
        <time>2024-04-17T16:20:56Z</time>
      </trkpt>
      <trkpt lat="43.22147" lon="0.13946">
        <ele>371.4</ele>
        <time>2024-04-17T16:20:57Z</time>
      </trkpt>
      <trkpt lat="43.22149" lon="0.13942">
        <ele>371.2</ele>
        <time>2024-04-17T16:20:58Z</time>
      </trkpt>
      <trkpt lat="43.22152" lon="0.13938">
        <ele>371</ele>
        <time>2024-04-17T16:20:59Z</time>
      </trkpt>
      <trkpt lat="43.22157" lon="0.13934">
        <ele>370.8</ele>
        <time>2024-04-17T16:21:00Z</time>
      </trkpt>
      <trkpt lat="43.22162" lon="0.13931">
        <ele>370.6</ele>
        <time>2024-04-17T16:21:01Z</time>
      </trkpt>
      <trkpt lat="43.22168" lon="0.13928">
        <ele>370.4</ele>
        <time>2024-04-17T16:21:02Z</time>
      </trkpt>
      <trkpt lat="43.22172" lon="0.13924">
        <ele>370</ele>
        <time>2024-04-17T16:21:03Z</time>
      </trkpt>
      <trkpt lat="43.22176" lon="0.13921">
        <ele>369.8</ele>
        <time>2024-04-17T16:21:04Z</time>
      </trkpt>
      <trkpt lat="43.22179" lon="0.13917">
        <ele>369</ele>
        <time>2024-04-17T16:21:05Z</time>
      </trkpt>
      <trkpt lat="43.22183" lon="0.13914">
        <ele>368.8</ele>
        <time>2024-04-17T16:21:06Z</time>
      </trkpt>
      <trkpt lat="43.22186" lon="0.13911">
        <ele>368.4</ele>
        <time>2024-04-17T16:21:07Z</time>
      </trkpt>
      <trkpt lat="43.22189" lon="0.13909">
        <ele>368.4</ele>
        <time>2024-04-17T16:21:08Z</time>
      </trkpt>
      <trkpt lat="43.22192" lon="0.13907">
        <ele>368.2</ele>
        <time>2024-04-17T16:21:09Z</time>
      </trkpt>
      <trkpt lat="43.22195" lon="0.13903">
        <ele>368.2</ele>
        <time>2024-04-17T16:21:10Z</time>
      </trkpt>
      <trkpt lat="43.22198" lon="0.139">
        <ele>368.2</ele>
        <time>2024-04-17T16:21:11Z</time>
      </trkpt>
      <trkpt lat="43.22201" lon="0.13897">
        <ele>368.2</ele>
        <time>2024-04-17T16:21:12Z</time>
      </trkpt>
      <trkpt lat="43.22204" lon="0.13894">
        <ele>368.4</ele>
        <time>2024-04-17T16:21:13Z</time>
      </trkpt>
      <trkpt lat="43.22207" lon="0.13891">
        <ele>368.6</ele>
        <time>2024-04-17T16:21:14Z</time>
      </trkpt>
      <trkpt lat="43.2221" lon="0.13888">
        <ele>368.8</ele>
        <time>2024-04-17T16:21:15Z</time>
      </trkpt>
      <trkpt lat="43.22212" lon="0.13885">
        <ele>368.8</ele>
        <time>2024-04-17T16:21:16Z</time>
      </trkpt>
      <trkpt lat="43.22215" lon="0.13883">
        <ele>369</ele>
        <time>2024-04-17T16:21:17Z</time>
      </trkpt>
      <trkpt lat="43.22218" lon="0.1388">
        <ele>369.2</ele>
        <time>2024-04-17T16:21:18Z</time>
      </trkpt>
      <trkpt lat="43.2222" lon="0.13877">
        <ele>369.2</ele>
        <time>2024-04-17T16:21:19Z</time>
      </trkpt>
      <trkpt lat="43.22222" lon="0.13874">
        <ele>369.2</ele>
        <time>2024-04-17T16:21:20Z</time>
      </trkpt>
      <trkpt lat="43.22225" lon="0.13872">
        <ele>369.2</ele>
        <time>2024-04-17T16:21:21Z</time>
      </trkpt>
      <trkpt lat="43.22228" lon="0.13869">
        <ele>369.2</ele>
        <time>2024-04-17T16:21:22Z</time>
      </trkpt>
      <trkpt lat="43.2223" lon="0.13867">
        <ele>369.4</ele>
        <time>2024-04-17T16:21:23Z</time>
      </trkpt>
      <trkpt lat="43.22232" lon="0.13865">
        <ele>369.6</ele>
        <time>2024-04-17T16:21:24Z</time>
      </trkpt>
      <trkpt lat="43.22235" lon="0.13863">
        <ele>369.6</ele>
        <time>2024-04-17T16:21:25Z</time>
      </trkpt>
      <trkpt lat="43.22237" lon="0.13861">
        <ele>369.8</ele>
        <time>2024-04-17T16:21:26Z</time>
      </trkpt>
      <trkpt lat="43.2224" lon="0.13859">
        <ele>369.8</ele>
        <time>2024-04-17T16:21:27Z</time>
      </trkpt>
      <trkpt lat="43.22242" lon="0.13856">
        <ele>370</ele>
        <time>2024-04-17T16:21:28Z</time>
      </trkpt>
      <trkpt lat="43.22244" lon="0.13854">
        <ele>370</ele>
        <time>2024-04-17T16:21:29Z</time>
      </trkpt>
      <trkpt lat="43.22247" lon="0.13851">
        <ele>370</ele>
        <time>2024-04-17T16:21:30Z</time>
      </trkpt>
      <trkpt lat="43.22249" lon="0.13849">
        <ele>370.6</ele>
        <time>2024-04-17T16:21:31Z</time>
      </trkpt>
      <trkpt lat="43.22252" lon="0.13846">
        <ele>371.2</ele>
        <time>2024-04-17T16:21:32Z</time>
      </trkpt>
      <trkpt lat="43.22254" lon="0.13843">
        <ele>371.4</ele>
        <time>2024-04-17T16:21:33Z</time>
      </trkpt>
      <trkpt lat="43.22257" lon="0.13841">
        <ele>371.6</ele>
        <time>2024-04-17T16:21:34Z</time>
      </trkpt>
      <trkpt lat="43.22259" lon="0.13838">
        <ele>371.8</ele>
        <time>2024-04-17T16:21:35Z</time>
      </trkpt>
      <trkpt lat="43.22261" lon="0.13836">
        <ele>371.8</ele>
        <time>2024-04-17T16:21:36Z</time>
      </trkpt>
      <trkpt lat="43.22264" lon="0.13833">
        <ele>372</ele>
        <time>2024-04-17T16:21:37Z</time>
      </trkpt>
      <trkpt lat="43.22266" lon="0.1383">
        <ele>372</ele>
        <time>2024-04-17T16:21:38Z</time>
      </trkpt>
      <trkpt lat="43.22269" lon="0.13828">
        <ele>372</ele>
        <time>2024-04-17T16:21:39Z</time>
      </trkpt>
      <trkpt lat="43.22271" lon="0.13826">
        <ele>372</ele>
        <time>2024-04-17T16:21:40Z</time>
      </trkpt>
      <trkpt lat="43.22274" lon="0.13824">
        <ele>372.2</ele>
        <time>2024-04-17T16:21:41Z</time>
      </trkpt>
      <trkpt lat="43.22276" lon="0.13822">
        <ele>372.2</ele>
        <time>2024-04-17T16:21:42Z</time>
      </trkpt>
      <trkpt lat="43.22279" lon="0.13819">
        <ele>372.2</ele>
        <time>2024-04-17T16:21:43Z</time>
      </trkpt>
      <trkpt lat="43.22281" lon="0.13817">
        <ele>372.2</ele>
        <time>2024-04-17T16:21:44Z</time>
      </trkpt>
      <trkpt lat="43.22284" lon="0.13815">
        <ele>372.2</ele>
        <time>2024-04-17T16:21:45Z</time>
      </trkpt>
      <trkpt lat="43.22287" lon="0.13813">
        <ele>372.2</ele>
        <time>2024-04-17T16:21:46Z</time>
      </trkpt>
      <trkpt lat="43.22289" lon="0.13811">
        <ele>372.4</ele>
        <time>2024-04-17T16:21:47Z</time>
      </trkpt>
      <trkpt lat="43.22292" lon="0.13808">
        <ele>372.4</ele>
        <time>2024-04-17T16:21:48Z</time>
      </trkpt>
      <trkpt lat="43.22295" lon="0.13807">
        <ele>372.4</ele>
        <time>2024-04-17T16:21:49Z</time>
      </trkpt>
      <trkpt lat="43.22297" lon="0.13805">
        <ele>372.4</ele>
        <time>2024-04-17T16:21:50Z</time>
      </trkpt>
      <trkpt lat="43.223" lon="0.13802">
        <ele>372.6</ele>
        <time>2024-04-17T16:21:51Z</time>
      </trkpt>
      <trkpt lat="43.22303" lon="0.138">
        <ele>372.6</ele>
        <time>2024-04-17T16:21:52Z</time>
      </trkpt>
      <trkpt lat="43.22305" lon="0.13798">
        <ele>372.6</ele>
        <time>2024-04-17T16:21:53Z</time>
      </trkpt>
      <trkpt lat="43.22308" lon="0.13795">
        <ele>372.6</ele>
        <time>2024-04-17T16:21:54Z</time>
      </trkpt>
      <trkpt lat="43.22311" lon="0.13793">
        <ele>372.8</ele>
        <time>2024-04-17T16:21:55Z</time>
      </trkpt>
      <trkpt lat="43.22313" lon="0.13792">
        <ele>372.8</ele>
        <time>2024-04-17T16:21:56Z</time>
      </trkpt>
      <trkpt lat="43.22315" lon="0.1379">
        <ele>372.8</ele>
        <time>2024-04-17T16:21:57Z</time>
      </trkpt>
      <trkpt lat="43.22317" lon="0.13787">
        <ele>372.8</ele>
        <time>2024-04-17T16:21:58Z</time>
      </trkpt>
      <trkpt lat="43.2232" lon="0.13785">
        <ele>372.8</ele>
        <time>2024-04-17T16:21:59Z</time>
      </trkpt>
      <trkpt lat="43.22322" lon="0.13783">
        <ele>372.8</ele>
        <time>2024-04-17T16:22:00Z</time>
      </trkpt>
      <trkpt lat="43.22324" lon="0.1378">
        <ele>372.8</ele>
        <time>2024-04-17T16:22:01Z</time>
      </trkpt>
      <trkpt lat="43.22326" lon="0.13777">
        <ele>372.8</ele>
        <time>2024-04-17T16:22:02Z</time>
      </trkpt>
      <trkpt lat="43.22328" lon="0.13774">
        <ele>372.8</ele>
        <time>2024-04-17T16:22:03Z</time>
      </trkpt>
      <trkpt lat="43.22328" lon="0.1377">
        <ele>372.8</ele>
        <time>2024-04-17T16:22:04Z</time>
      </trkpt>
      <trkpt lat="43.22328" lon="0.13766">
        <ele>372.8</ele>
        <time>2024-04-17T16:22:05Z</time>
      </trkpt>
      <trkpt lat="43.22328" lon="0.13762">
        <ele>373</ele>
        <time>2024-04-17T16:22:06Z</time>
      </trkpt>
      <trkpt lat="43.22327" lon="0.13759">
        <ele>373</ele>
        <time>2024-04-17T16:22:07Z</time>
      </trkpt>
      <trkpt lat="43.22326" lon="0.13755">
        <ele>373</ele>
        <time>2024-04-17T16:22:08Z</time>
      </trkpt>
      <trkpt lat="43.22325" lon="0.13752">
        <ele>373.2</ele>
        <time>2024-04-17T16:22:09Z</time>
      </trkpt>
      <trkpt lat="43.22323" lon="0.13749">
        <ele>373.2</ele>
        <time>2024-04-17T16:22:10Z</time>
      </trkpt>
      <trkpt lat="43.22321" lon="0.13745">
        <ele>373.2</ele>
        <time>2024-04-17T16:22:11Z</time>
      </trkpt>
      <trkpt lat="43.22319" lon="0.13742">
        <ele>373.4</ele>
        <time>2024-04-17T16:22:12Z</time>
      </trkpt>
      <trkpt lat="43.22317" lon="0.13738">
        <ele>373.6</ele>
        <time>2024-04-17T16:22:13Z</time>
      </trkpt>
      <trkpt lat="43.22315" lon="0.13734">
        <ele>373.6</ele>
        <time>2024-04-17T16:22:14Z</time>
      </trkpt>
      <trkpt lat="43.22313" lon="0.13731">
        <ele>373.6</ele>
        <time>2024-04-17T16:22:15Z</time>
      </trkpt>
      <trkpt lat="43.22311" lon="0.13728">
        <ele>373.8</ele>
        <time>2024-04-17T16:22:16Z</time>
      </trkpt>
      <trkpt lat="43.2231" lon="0.13725">
        <ele>373.8</ele>
        <time>2024-04-17T16:22:17Z</time>
      </trkpt>
      <trkpt lat="43.22308" lon="0.13721">
        <ele>374</ele>
        <time>2024-04-17T16:22:18Z</time>
      </trkpt>
      <trkpt lat="43.22306" lon="0.13718">
        <ele>374.2</ele>
        <time>2024-04-17T16:22:19Z</time>
      </trkpt>
      <trkpt lat="43.22304" lon="0.13715">
        <ele>374.2</ele>
        <time>2024-04-17T16:22:20Z</time>
      </trkpt>
      <trkpt lat="43.22302" lon="0.13712">
        <ele>374.2</ele>
        <time>2024-04-17T16:22:21Z</time>
      </trkpt>
      <trkpt lat="43.22301" lon="0.13709">
        <ele>374.4</ele>
        <time>2024-04-17T16:22:22Z</time>
      </trkpt>
      <trkpt lat="43.22299" lon="0.13706">
        <ele>374.4</ele>
        <time>2024-04-17T16:22:23Z</time>
      </trkpt>
      <trkpt lat="43.22297" lon="0.13703">
        <ele>374.6</ele>
        <time>2024-04-17T16:22:24Z</time>
      </trkpt>
      <trkpt lat="43.22296" lon="0.13699">
        <ele>374.8</ele>
        <time>2024-04-17T16:22:25Z</time>
      </trkpt>
      <trkpt lat="43.22294" lon="0.13697">
        <ele>375</ele>
        <time>2024-04-17T16:22:26Z</time>
      </trkpt>
      <trkpt lat="43.22293" lon="0.13694">
        <ele>375.2</ele>
        <time>2024-04-17T16:22:27Z</time>
      </trkpt>
      <trkpt lat="43.22291" lon="0.13691">
        <ele>375.2</ele>
        <time>2024-04-17T16:22:28Z</time>
      </trkpt>
      <trkpt lat="43.22289" lon="0.13688">
        <ele>375.4</ele>
        <time>2024-04-17T16:22:29Z</time>
      </trkpt>
      <trkpt lat="43.22288" lon="0.13685">
        <ele>375.4</ele>
        <time>2024-04-17T16:22:30Z</time>
      </trkpt>
      <trkpt lat="43.22286" lon="0.13683">
        <ele>375.6</ele>
        <time>2024-04-17T16:22:31Z</time>
      </trkpt>
      <trkpt lat="43.22285" lon="0.1368">
        <ele>375.6</ele>
        <time>2024-04-17T16:22:32Z</time>
      </trkpt>
      <trkpt lat="43.22283" lon="0.13677">
        <ele>375.8</ele>
        <time>2024-04-17T16:22:33Z</time>
      </trkpt>
      <trkpt lat="43.22282" lon="0.13674">
        <ele>375.8</ele>
        <time>2024-04-17T16:22:34Z</time>
      </trkpt>
      <trkpt lat="43.2228" lon="0.13671">
        <ele>375.8</ele>
        <time>2024-04-17T16:22:35Z</time>
      </trkpt>
      <trkpt lat="43.22279" lon="0.13668">
        <ele>376</ele>
        <time>2024-04-17T16:22:36Z</time>
      </trkpt>
      <trkpt lat="43.22277" lon="0.13665">
        <ele>376</ele>
        <time>2024-04-17T16:22:37Z</time>
      </trkpt>
      <trkpt lat="43.22275" lon="0.13662">
        <ele>376.2</ele>
        <time>2024-04-17T16:22:38Z</time>
      </trkpt>
      <trkpt lat="43.22273" lon="0.13659">
        <ele>376.2</ele>
        <time>2024-04-17T16:22:39Z</time>
      </trkpt>
      <trkpt lat="43.22271" lon="0.13656">
        <ele>376.4</ele>
        <time>2024-04-17T16:22:40Z</time>
      </trkpt>
      <trkpt lat="43.2227" lon="0.13653">
        <ele>376.6</ele>
        <time>2024-04-17T16:22:41Z</time>
      </trkpt>
      <trkpt lat="43.22268" lon="0.13649">
        <ele>376.8</ele>
        <time>2024-04-17T16:22:42Z</time>
      </trkpt>
      <trkpt lat="43.22266" lon="0.13646">
        <ele>377</ele>
        <time>2024-04-17T16:22:43Z</time>
      </trkpt>
      <trkpt lat="43.22264" lon="0.13643">
        <ele>377</ele>
        <time>2024-04-17T16:22:44Z</time>
      </trkpt>
      <trkpt lat="43.22263" lon="0.1364">
        <ele>377.2</ele>
        <time>2024-04-17T16:22:45Z</time>
      </trkpt>
      <trkpt lat="43.22261" lon="0.13637">
        <ele>377.2</ele>
        <time>2024-04-17T16:22:46Z</time>
      </trkpt>
      <trkpt lat="43.2226" lon="0.13633">
        <ele>377.4</ele>
        <time>2024-04-17T16:22:47Z</time>
      </trkpt>
      <trkpt lat="43.22259" lon="0.1363">
        <ele>377.4</ele>
        <time>2024-04-17T16:22:48Z</time>
      </trkpt>
      <trkpt lat="43.22257" lon="0.13627">
        <ele>377.4</ele>
        <time>2024-04-17T16:22:49Z</time>
      </trkpt>
      <trkpt lat="43.22256" lon="0.13623">
        <ele>377.6</ele>
        <time>2024-04-17T16:22:50Z</time>
      </trkpt>
      <trkpt lat="43.22254" lon="0.1362">
        <ele>377.6</ele>
        <time>2024-04-17T16:22:51Z</time>
      </trkpt>
      <trkpt lat="43.22253" lon="0.13617">
        <ele>377.6</ele>
        <time>2024-04-17T16:22:52Z</time>
      </trkpt>
      <trkpt lat="43.22252" lon="0.13613">
        <ele>377.6</ele>
        <time>2024-04-17T16:22:53Z</time>
      </trkpt>
      <trkpt lat="43.2225" lon="0.1361">
        <ele>377.6</ele>
        <time>2024-04-17T16:22:54Z</time>
      </trkpt>
      <trkpt lat="43.22249" lon="0.13607">
        <ele>377.6</ele>
        <time>2024-04-17T16:22:55Z</time>
      </trkpt>
      <trkpt lat="43.22247" lon="0.13604">
        <ele>377.6</ele>
        <time>2024-04-17T16:22:56Z</time>
      </trkpt>
      <trkpt lat="43.22246" lon="0.13601">
        <ele>377.8</ele>
        <time>2024-04-17T16:22:57Z</time>
      </trkpt>
      <trkpt lat="43.22244" lon="0.13599">
        <ele>377.8</ele>
        <time>2024-04-17T16:22:58Z</time>
      </trkpt>
      <trkpt lat="43.22243" lon="0.13596">
        <ele>377.8</ele>
        <time>2024-04-17T16:22:59Z</time>
      </trkpt>
      <trkpt lat="43.22242" lon="0.13593">
        <ele>378</ele>
        <time>2024-04-17T16:23:00Z</time>
      </trkpt>
      <trkpt lat="43.22241" lon="0.1359">
        <ele>378</ele>
        <time>2024-04-17T16:23:01Z</time>
      </trkpt>
      <trkpt lat="43.22241" lon="0.13587">
        <ele>378.2</ele>
        <time>2024-04-17T16:23:02Z</time>
      </trkpt>
      <trkpt lat="43.22242" lon="0.13585">
        <ele>378.4</ele>
        <time>2024-04-17T16:23:03Z</time>
      </trkpt>
      <trkpt lat="43.22244" lon="0.13584">
        <ele>378.6</ele>
        <time>2024-04-17T16:23:04Z</time>
      </trkpt>
      <trkpt lat="43.22246" lon="0.13583">
        <ele>378.6</ele>
        <time>2024-04-17T16:23:05Z</time>
      </trkpt>
      <trkpt lat="43.22247" lon="0.13583">
        <ele>378.8</ele>
        <time>2024-04-17T16:23:06Z</time>
      </trkpt>
      <trkpt lat="43.22249" lon="0.13582">
        <ele>378.8</ele>
        <time>2024-04-17T16:23:07Z</time>
      </trkpt>
    </trkseg>
  </trk>
</gpx>